<?xml version='1.0' encoding='UTF-8'?><gpx version="1.1" creator="JPX - https://github.com/jenetics/jpx" xmlns="http://www.topografix.com/GPX/1/1"><trk><trkseg><trkpt lat="43.16156273141655" lon="12.282861101276913"><ele>251.00000000000003</ele><time>2026-03-29T06:58:32Z</time></trkpt><trkpt lat="43.161582860269114" lon="12.282777251849499"><ele>251.0</ele><time>2026-03-29T06:58:36Z</time></trkpt><trkpt lat="43.161657219105145" lon="12.282708285861684"><ele>251.0</ele><time>2026-03-29T07:03:19Z</time></trkpt><trkpt lat="43.16171394193019" lon="12.282777239253583"><ele>251.0</ele><time>2026-03-29T07:05:01Z</time></trkpt><trkpt lat="43.161775455793894" lon="12.282712233450207"><ele>251.00000000000003</ele><time>2026-03-29T07:05:03Z</time></trkpt><trkpt lat="43.16185009382008" lon="12.282597810122143"><ele>251.0</ele><time>2026-03-29T07:05:04Z</time></trkpt><trkpt lat="43.16191698941611" lon="12.282455483994273"><ele>251.0</ele><time>2026-03-29T07:05:05Z</time></trkpt><trkpt lat="43.16196969297193" lon="12.282335432711536"><ele>251.00000000000003</ele><time>2026-03-29T07:05:06Z</time></trkpt><trkpt lat="43.16202922236705" lon="12.282261605923026"><ele>251.00000000000003</ele><time>2026-03-29T07:05:07Z</time></trkpt><trkpt lat="43.16209180858225" lon="12.28214623555544"><ele>251.0</ele><time>2026-03-29T07:05:08Z</time></trkpt><trkpt lat="43.16216645514573" lon="12.281983504151494"><ele>251.0</ele><time>2026-03-29T07:05:09Z</time></trkpt><trkpt lat="43.16224310132323" lon="12.281826584497678"><ele>250.75</ele><time>2026-03-29T07:05:10Z</time></trkpt><trkpt lat="43.16230989177038" lon="12.28168268042189"><ele>250.5</ele><time>2026-03-29T07:05:11Z</time></trkpt><trkpt lat="43.16237555797559" lon="12.281551794766571"><ele>250.25</ele><time>2026-03-29T07:05:12Z</time></trkpt><trkpt lat="43.16245242068417" lon="12.281415862454882"><ele>250.0</ele><time>2026-03-29T07:05:13Z</time></trkpt><trkpt lat="43.16250856204245" lon="12.281291178892713"><ele>250.0</ele><time>2026-03-29T07:05:14Z</time></trkpt><trkpt lat="43.16257742708068" lon="12.281196908813138"><ele>250.0</ele><time>2026-03-29T07:05:15Z</time></trkpt><trkpt lat="43.16262534764624" lon="12.281101199277815"><ele>250.0</ele><time>2026-03-29T07:05:16Z</time></trkpt><trkpt lat="43.16268467145755" lon="12.280986061903155"><ele>250.0</ele><time>2026-03-29T07:05:17Z</time></trkpt><trkpt lat="43.16276256847938" lon="12.280835983360646"><ele>250.0</ele><time>2026-03-29T07:05:18Z</time></trkpt><trkpt lat="43.1628527963612" lon="12.28066482680311"><ele>250.33333333333331</ele><time>2026-03-29T07:05:19Z</time></trkpt><trkpt lat="43.162952254390916" lon="12.280476161208357"><ele>250.66666666666669</ele><time>2026-03-29T07:05:20Z</time></trkpt><trkpt lat="43.16305046940851" lon="12.280289853519378"><ele>251.0</ele><time>2026-03-29T07:05:21Z</time></trkpt><trkpt lat="43.16312483096602" lon="12.280108180074022"><ele>251.25</ele><time>2026-03-29T07:05:22Z</time></trkpt><trkpt lat="43.16321585960758" lon="12.27995185862212"><ele>251.5</ele><time>2026-03-29T07:05:23Z</time></trkpt><trkpt lat="43.16329748220559" lon="12.279800498547921"><ele>251.75</ele><time>2026-03-29T07:05:24Z</time></trkpt><trkpt lat="43.163378330571796" lon="12.279658000081021"><ele>252.0</ele><time>2026-03-29T07:05:25Z</time></trkpt><trkpt lat="43.163472000147216" lon="12.27952735338395"><ele>252.0</ele><time>2026-03-29T07:05:26Z</time></trkpt><trkpt lat="43.16358942632804" lon="12.27944055681448"><ele>252.0</ele><time>2026-03-29T07:05:27Z</time></trkpt><trkpt lat="43.163694942342126" lon="12.27937614187374"><ele>252.0</ele><time>2026-03-29T07:05:28Z</time></trkpt><trkpt lat="43.16379315451531" lon="12.279331170870476"><ele>252.0</ele><time>2026-03-29T07:05:29Z</time></trkpt><trkpt lat="43.16387910593295" lon="12.279297531285"><ele>252.0</ele><time>2026-03-29T07:05:30Z</time></trkpt><trkpt lat="43.163961144512776" lon="12.279270355903895"><ele>252.0</ele><time>2026-03-29T07:05:31Z</time></trkpt><trkpt lat="43.16402789164197" lon="12.279248195921365"><ele>252.0</ele><time>2026-03-29T07:05:32Z</time></trkpt><trkpt lat="43.164118079613715" lon="12.279218879516515"><ele>252.0</ele><time>2026-03-29T07:05:34Z</time></trkpt><trkpt lat="43.164142620285354" lon="12.279052111713643"><ele>252.0</ele><time>2026-03-29T07:05:36Z</time></trkpt><trkpt lat="43.16412162465456" lon="12.278935032231699"><ele>252.0</ele><time>2026-03-29T07:05:37Z</time></trkpt><trkpt lat="43.16412228309676" lon="12.278814035888368"><ele>252.5</ele><time>2026-03-29T07:05:38Z</time></trkpt><trkpt lat="43.164108162590395" lon="12.278664258681246"><ele>253.0</ele><time>2026-03-29T07:05:39Z</time></trkpt><trkpt lat="43.164077149666" lon="12.278465811410205"><ele>253.5</ele><time>2026-03-29T07:05:40Z</time></trkpt><trkpt lat="43.1640332251763" lon="12.27828223157065"><ele>254.0</ele><time>2026-03-29T07:05:41Z</time></trkpt><trkpt lat="43.164008202977435" lon="12.278135698392731"><ele>254.75</ele><time>2026-03-29T07:05:42Z</time></trkpt><trkpt lat="43.163984507783674" lon="12.277968626771093"><ele>255.5</ele><time>2026-03-29T07:05:43Z</time></trkpt><trkpt lat="43.16397358732711" lon="12.277801211233706"><ele>256.25</ele><time>2026-03-29T07:05:44Z</time></trkpt><trkpt lat="43.163976239784866" lon="12.277596879245538"><ele>257.0</ele><time>2026-03-29T07:05:45Z</time></trkpt><trkpt lat="43.163980328079695" lon="12.277381683730537"><ele>257.0</ele><time>2026-03-29T07:05:46Z</time></trkpt><trkpt lat="43.163984237209554" lon="12.27717591895652"><ele>257.0</ele><time>2026-03-29T07:05:47Z</time></trkpt><trkpt lat="43.16397288359668" lon="12.276978082650988"><ele>257.0</ele><time>2026-03-29T07:05:48Z</time></trkpt><trkpt lat="43.16397796436765" lon="12.276781182830717"><ele>257.0</ele><time>2026-03-29T07:05:49Z</time></trkpt><trkpt lat="43.163985389083535" lon="12.276596601093782"><ele>257.5</ele><time>2026-03-29T07:05:50Z</time></trkpt><trkpt lat="43.16400932252213" lon="12.276416818237866"><ele>258.0</ele><time>2026-03-29T07:05:51Z</time></trkpt><trkpt lat="43.16407422911832" lon="12.276244719342007"><ele>258.5</ele><time>2026-03-29T07:05:52Z</time></trkpt><trkpt lat="43.16414743268082" lon="12.276067037422928"><ele>259.0</ele><time>2026-03-29T07:05:53Z</time></trkpt><trkpt lat="43.16421057271412" lon="12.275890371684156"><ele>259.25</ele><time>2026-03-29T07:05:54Z</time></trkpt><trkpt lat="43.16427350089658" lon="12.275746175857018"><ele>259.5</ele><time>2026-03-29T07:05:55Z</time></trkpt><trkpt lat="43.164350126231376" lon="12.275646730835515"><ele>259.75</ele><time>2026-03-29T07:05:56Z</time></trkpt><trkpt lat="43.1643500639601" lon="12.275451913985979"><ele>260.0</ele><time>2026-03-29T07:05:57Z</time></trkpt><trkpt lat="43.16438486201726" lon="12.275273749709504"><ele>260.0</ele><time>2026-03-29T07:05:58Z</time></trkpt><trkpt lat="43.164397568565356" lon="12.275090100613994"><ele>260.0</ele><time>2026-03-29T07:05:59Z</time></trkpt><trkpt lat="43.16438830572546" lon="12.274901533045682"><ele>260.0</ele><time>2026-03-29T07:06:00Z</time></trkpt><trkpt lat="43.164421573169406" lon="12.274752236784165"><ele>260.0</ele><time>2026-03-29T07:06:01Z</time></trkpt><trkpt lat="43.16442796737706" lon="12.274595967117653"><ele>260.5</ele><time>2026-03-29T07:06:02Z</time></trkpt><trkpt lat="43.16443193079342" lon="12.274416102919007"><ele>261.0</ele><time>2026-03-29T07:06:03Z</time></trkpt><trkpt lat="43.164430191237855" lon="12.27424681315809"><ele>261.5</ele><time>2026-03-29T07:06:04Z</time></trkpt><trkpt lat="43.164375346161606" lon="12.2740440072402"><ele>262.0</ele><time>2026-03-29T07:06:05Z</time></trkpt><trkpt lat="43.16440728489423" lon="12.273852517172042"><ele>262.2</ele><time>2026-03-29T07:06:06Z</time></trkpt><trkpt lat="43.16441488236065" lon="12.273712796063325"><ele>262.4</ele><time>2026-03-29T07:06:07Z</time></trkpt><trkpt lat="43.164425154794294" lon="12.273571877874403"><ele>262.6</ele><time>2026-03-29T07:06:08Z</time></trkpt><trkpt lat="43.16443748363495" lon="12.273435057102914"><ele>262.8</ele><time>2026-03-29T07:06:09Z</time></trkpt><trkpt lat="43.16446749523892" lon="12.273306562353184"><ele>263.0</ele><time>2026-03-29T07:06:10Z</time></trkpt><trkpt lat="43.16448355015542" lon="12.273195285786402"><ele>263.83333333333337</ele><time>2026-03-29T07:06:11Z</time></trkpt><trkpt lat="43.16448053425686" lon="12.27309983362748"><ele>264.6666666666667</ele><time>2026-03-29T07:06:12Z</time></trkpt><trkpt lat="43.16445932810398" lon="12.272949348108417"><ele>265.5</ele><time>2026-03-29T07:06:14Z</time></trkpt><trkpt lat="43.16446545094147" lon="12.272824848429002"><ele>266.3333333333333</ele><time>2026-03-29T07:06:16Z</time></trkpt><trkpt lat="43.1644838328752" lon="12.272742017812527"><ele>267.16666666666663</ele><time>2026-03-29T07:06:24.999Z</time></trkpt><trkpt lat="43.164546246015846" lon="12.272638292893314"><ele>268.0</ele><time>2026-03-29T07:06:26.999Z</time></trkpt><trkpt lat="43.16458604393383" lon="12.272559149827428"><ele>268.0</ele><time>2026-03-29T07:06:27.999Z</time></trkpt><trkpt lat="43.16462893910648" lon="12.272473847478294"><ele>268.0</ele><time>2026-03-29T07:06:28.999Z</time></trkpt><trkpt lat="43.16472350881099" lon="12.272432189358181"><ele>268.0</ele><time>2026-03-29T07:06:29.999Z</time></trkpt><trkpt lat="43.16472960539865" lon="12.27229725360293"><ele>268.0</ele><time>2026-03-29T07:06:30.999Z</time></trkpt><trkpt lat="43.164780620273724" lon="12.272199752831215"><ele>268.0</ele><time>2026-03-29T07:06:31.999Z</time></trkpt><trkpt lat="43.164852310879056" lon="12.272101241668366"><ele>271.0</ele><time>2026-03-29T07:06:32.999Z</time></trkpt><trkpt lat="43.164954309203594" lon="12.271995498205202"><ele>274.0</ele><time>2026-03-29T07:06:33.999Z</time></trkpt><trkpt lat="43.1650522517069" lon="12.271890118823523"><ele>277.0</ele><time>2026-03-29T07:06:34.999Z</time></trkpt><trkpt lat="43.16513368985816" lon="12.271790387395528"><ele>280.0</ele><time>2026-03-29T07:06:35.999Z</time></trkpt><trkpt lat="43.16521785002065" lon="12.271686042093343"><ele>280.0</ele><time>2026-03-29T07:06:36.999Z</time></trkpt><trkpt lat="43.165299634329415" lon="12.271579838930142"><ele>280.0</ele><time>2026-03-29T07:06:37.999Z</time></trkpt><trkpt lat="43.16536715420328" lon="12.271485021613936"><ele>280.0</ele><time>2026-03-29T07:06:38.999Z</time></trkpt><trkpt lat="43.165432450512974" lon="12.271397693573837"><ele>280.0</ele><time>2026-03-29T07:06:40Z</time></trkpt><trkpt lat="43.165491750056866" lon="12.27133414022364"><ele>280.0</ele><time>2026-03-29T07:06:41Z</time></trkpt><trkpt lat="43.16556829449546" lon="12.271246039352793"><ele>279.8</ele><time>2026-03-29T07:06:43Z</time></trkpt><trkpt lat="43.165607224490245" lon="12.271153846731439"><ele>279.6</ele><time>2026-03-29T07:06:57Z</time></trkpt><trkpt lat="43.16566350554284" lon="12.271040141239263"><ele>279.4</ele><time>2026-03-29T07:07:00Z</time></trkpt><trkpt lat="43.16573523514612" lon="12.270918418436706"><ele>279.2</ele><time>2026-03-29T07:07:02Z</time></trkpt><trkpt lat="43.165825098796915" lon="12.270816255117705"><ele>279.0</ele><time>2026-03-29T07:07:04Z</time></trkpt><trkpt lat="43.1658808128032" lon="12.2706589080462"><ele>281.3333333333333</ele><time>2026-03-29T07:07:06Z</time></trkpt><trkpt lat="43.1659002369741" lon="12.270576086809708"><ele>283.6666666666667</ele><time>2026-03-29T07:07:07Z</time></trkpt><trkpt lat="43.165951702192494" lon="12.270460312014212"><ele>286.0</ele><time>2026-03-29T07:07:09Z</time></trkpt><trkpt lat="43.16600986371206" lon="12.270366540175033"><ele>288.33333333333337</ele><time>2026-03-29T07:07:11Z</time></trkpt><trkpt lat="43.16607510971574" lon="12.270314354985226"><ele>290.6666666666667</ele><time>2026-03-29T07:07:13Z</time></trkpt><trkpt lat="43.16614050584461" lon="12.270272891223241"><ele>293.0</ele><time>2026-03-29T07:07:15Z</time></trkpt><trkpt lat="43.16624274087738" lon="12.27021118524251"><ele>293.0</ele><time>2026-03-29T07:07:17Z</time></trkpt><trkpt lat="43.16631081238394" lon="12.270147392625166"><ele>293.0</ele><time>2026-03-29T07:07:20Z</time></trkpt><trkpt lat="43.166344568178886" lon="12.270025068257967"><ele>293.0</ele><time>2026-03-29T07:07:22Z</time></trkpt><trkpt lat="43.16635104585824" lon="12.269895926778291"><ele>293.0</ele><time>2026-03-29T07:07:24Z</time></trkpt><trkpt lat="43.16626310694632" lon="12.269878664375298"><ele>293.0</ele><time>2026-03-29T07:07:27Z</time></trkpt><trkpt lat="43.16622408282037" lon="12.26977539287301"><ele>293.0</ele><time>2026-03-29T07:07:29Z</time></trkpt><trkpt lat="43.16622146531515" lon="12.269657850389835"><ele>294.0</ele><time>2026-03-29T07:07:32Z</time></trkpt><trkpt lat="43.166302670589594" lon="12.269622037990857"><ele>295.0</ele><time>2026-03-29T07:07:34Z</time></trkpt><trkpt lat="43.166370895338005" lon="12.269657225719563"><ele>296.0</ele><time>2026-03-29T07:07:36Z</time></trkpt><trkpt lat="43.166450611073145" lon="12.269664191413174"><ele>297.0</ele><time>2026-03-29T07:07:38Z</time></trkpt><trkpt lat="43.16653459143092" lon="12.269659702360665"><ele>298.0</ele><time>2026-03-29T07:07:40Z</time></trkpt><trkpt lat="43.166633692952594" lon="12.269629015941334"><ele>299.0</ele><time>2026-03-29T07:07:42Z</time></trkpt><trkpt lat="43.16658565962159" lon="12.269510080254056"><ele>300.2</ele><time>2026-03-29T07:07:45Z</time></trkpt><trkpt lat="43.16657663687821" lon="12.269421561100753"><ele>301.4</ele><time>2026-03-29T07:07:47Z</time></trkpt><trkpt lat="43.16658830707187" lon="12.269212947451617"><ele>302.6</ele><time>2026-03-29T07:07:49Z</time></trkpt><trkpt lat="43.166650896786734" lon="12.269133215339679"><ele>303.8</ele><time>2026-03-29T07:07:51Z</time></trkpt><trkpt lat="43.16668702296437" lon="12.269035212572426"><ele>305.0</ele><time>2026-03-29T07:07:53Z</time></trkpt><trkpt lat="43.16669183074312" lon="12.268942519364332"><ele>307.6666666666667</ele><time>2026-03-29T07:07:54Z</time></trkpt><trkpt lat="43.16665988426819" lon="12.268811090353694"><ele>310.33333333333337</ele><time>2026-03-29T07:07:56Z</time></trkpt><trkpt lat="43.166630077751805" lon="12.268707062408193"><ele>313.0</ele><time>2026-03-29T07:07:59Z</time></trkpt><trkpt lat="43.16666879646735" lon="12.268605592804166"><ele>315.6666666666667</ele><time>2026-03-29T07:08:02Z</time></trkpt><trkpt lat="43.16674569216552" lon="12.26854654067398"><ele>318.3333333333333</ele><time>2026-03-29T07:08:04Z</time></trkpt><trkpt lat="43.16681965111373" lon="12.268539744659277"><ele>321.0</ele><time>2026-03-29T07:08:06Z</time></trkpt><trkpt lat="43.166848474982544" lon="12.268423596573127"><ele>321.0</ele><time>2026-03-29T07:08:10Z</time></trkpt><trkpt lat="43.16688879103594" lon="12.268317865637558"><ele>321.0</ele><time>2026-03-29T07:08:11Z</time></trkpt><trkpt lat="43.16695302338684" lon="12.268348090870687"><ele>321.0</ele><time>2026-03-29T07:08:15Z</time></trkpt><trkpt lat="43.16698407840367" lon="12.268236575965771"><ele>321.0</ele><time>2026-03-29T07:08:17Z</time></trkpt><trkpt lat="43.167039500163334" lon="12.268112832978915"><ele>321.0</ele><time>2026-03-29T07:08:19Z</time></trkpt><trkpt lat="43.167115079515874" lon="12.268029424765903"><ele>321.0</ele><time>2026-03-29T07:08:22Z</time></trkpt><trkpt lat="43.16715094122921" lon="12.267895275113732"><ele>321.8333333333333</ele><time>2026-03-29T07:08:24Z</time></trkpt><trkpt lat="43.16712963731478" lon="12.267775843005591"><ele>322.6666666666667</ele><time>2026-03-29T07:08:27.999Z</time></trkpt><trkpt lat="43.167141198557516" lon="12.267679114298844"><ele>323.5</ele><time>2026-03-29T07:08:29.999Z</time></trkpt><trkpt lat="43.167100317240596" lon="12.267528085787886"><ele>324.33333333333337</ele><time>2026-03-29T07:08:31.999Z</time></trkpt><trkpt lat="43.1671019993012" lon="12.267432693660394"><ele>325.1666666666667</ele><time>2026-03-29T07:08:33.999Z</time></trkpt><trkpt lat="43.16711745078444" lon="12.267326851455124"><ele>326.0</ele><time>2026-03-29T07:08:35.999Z</time></trkpt><trkpt lat="43.16712606457158" lon="12.267221909408343"><ele>326.0</ele><time>2026-03-29T07:09:57Z</time></trkpt><trkpt lat="43.167181151353475" lon="12.267105039403432"><ele>326.0</ele><time>2026-03-29T07:10:04Z</time></trkpt><trkpt lat="43.167238896169934" lon="12.267018906644198"><ele>326.0</ele><time>2026-03-29T07:10:18Z</time></trkpt><trkpt lat="43.16732131160214" lon="12.266974486470112"><ele>326.0</ele><time>2026-03-29T07:10:19.999Z</time></trkpt><trkpt lat="43.16738768163907" lon="12.266945493503025"><ele>326.0</ele><time>2026-03-29T07:10:22.999Z</time></trkpt><trkpt lat="43.1674478327102" lon="12.266846197515726"><ele>326.0</ele><time>2026-03-29T07:10:24.999Z</time></trkpt><trkpt lat="43.16747956963875" lon="12.266717936866224"><ele>333.5</ele><time>2026-03-29T07:10:26.999Z</time></trkpt><trkpt lat="43.1675379430394" lon="12.266648546411194"><ele>341.0</ele><time>2026-03-29T07:10:28.999Z</time></trkpt><trkpt lat="43.16765369686775" lon="12.266661003628206"><ele>348.5</ele><time>2026-03-29T07:10:30.999Z</time></trkpt><trkpt lat="43.16770095389533" lon="12.266562788458666"><ele>356.0</ele><time>2026-03-29T07:10:32.999Z</time></trkpt><trkpt lat="43.16787410077116" lon="12.266469214482061"><ele>355.5</ele><time>2026-03-29T07:10:34.999Z</time></trkpt><trkpt lat="43.167968348102264" lon="12.26639836473758"><ele>355.0</ele><time>2026-03-29T07:10:36.999Z</time></trkpt><trkpt lat="43.16799174619078" lon="12.266277108106676"><ele>354.5</ele><time>2026-03-29T07:10:38.999Z</time></trkpt><trkpt lat="43.16806327730936" lon="12.26620676849503"><ele>354.0</ele><time>2026-03-29T07:10:40.999Z</time></trkpt><trkpt lat="43.168140711201815" lon="12.266210456515495"><ele>353.5</ele><time>2026-03-29T07:10:42.999Z</time></trkpt><trkpt lat="43.16822202619293" lon="12.26622449907056"><ele>353.0</ele><time>2026-03-29T07:10:44.999Z</time></trkpt><trkpt lat="43.16826165165403" lon="12.26612052629001"><ele>357.4</ele><time>2026-03-29T07:10:46.999Z</time></trkpt><trkpt lat="43.168263897386105" lon="12.265962597601998"><ele>361.79999999999995</ele><time>2026-03-29T07:10:48.999Z</time></trkpt><trkpt lat="43.16827673236946" lon="12.26587345223122"><ele>366.2</ele><time>2026-03-29T07:10:49.999Z</time></trkpt><trkpt lat="43.168295047336386" lon="12.26575835034546"><ele>370.6</ele><time>2026-03-29T07:10:50.999Z</time></trkpt><trkpt lat="43.1683263989244" lon="12.265645308414346"><ele>375.0</ele><time>2026-03-29T07:10:52Z</time></trkpt><trkpt lat="43.16836241053984" lon="12.265513556675433"><ele>376.2</ele><time>2026-03-29T07:10:53Z</time></trkpt><trkpt lat="43.16838496845864" lon="12.265432478775859"><ele>377.4</ele><time>2026-03-29T07:10:54Z</time></trkpt><trkpt lat="43.16843831914526" lon="12.265304825011365"><ele>378.6</ele><time>2026-03-29T07:10:55Z</time></trkpt><trkpt lat="43.16848837616221" lon="12.265182310958034"><ele>379.8</ele><time>2026-03-29T07:10:56Z</time></trkpt><trkpt lat="43.16849827613846" lon="12.265016743422509"><ele>381.0</ele><time>2026-03-29T07:10:58Z</time></trkpt><trkpt lat="43.16847064297054" lon="12.264933707636823"><ele>381.0</ele><time>2026-03-29T07:10:59Z</time></trkpt><trkpt lat="43.16846158686968" lon="12.264845602741573"><ele>381.0</ele><time>2026-03-29T07:11:00Z</time></trkpt><trkpt lat="43.168473119391024" lon="12.264741468768836"><ele>381.0</ele><time>2026-03-29T07:11:01Z</time></trkpt><trkpt lat="43.16850091616851" lon="12.264626208811816"><ele>381.0</ele><time>2026-03-29T07:11:02Z</time></trkpt><trkpt lat="43.16854313901086" lon="12.264519136606523"><ele>381.0</ele><time>2026-03-29T07:11:03Z</time></trkpt><trkpt lat="43.16858351947364" lon="12.264451215721957"><ele>381.0</ele><time>2026-03-29T07:11:04Z</time></trkpt><trkpt lat="43.16860738350265" lon="12.264362043169442"><ele>382.8333333333333</ele><time>2026-03-29T07:11:05Z</time></trkpt><trkpt lat="43.168586169930286" lon="12.26426126032344"><ele>384.66666666666663</ele><time>2026-03-29T07:11:06Z</time></trkpt><trkpt lat="43.16853275964121" lon="12.264154988046847"><ele>386.5</ele><time>2026-03-29T07:11:07Z</time></trkpt><trkpt lat="43.16848452489649" lon="12.26405714245528"><ele>388.3333333333333</ele><time>2026-03-29T07:11:08Z</time></trkpt><trkpt lat="43.168494136014175" lon="12.263961507330116"><ele>390.16666666666663</ele><time>2026-03-29T07:11:09Z</time></trkpt><trkpt lat="43.16848719159732" lon="12.26386867023058"><ele>392.0</ele><time>2026-03-29T07:11:10Z</time></trkpt><trkpt lat="43.16846014897294" lon="12.263773334530267"><ele>394.16666666666663</ele><time>2026-03-29T07:11:11Z</time></trkpt><trkpt lat="43.16840426992398" lon="12.263722259356284"><ele>396.3333333333333</ele><time>2026-03-29T07:11:12Z</time></trkpt><trkpt lat="43.16834145696137" lon="12.263649641498922"><ele>398.5</ele><time>2026-03-29T07:11:13Z</time></trkpt><trkpt lat="43.168294323148636" lon="12.26354374133154"><ele>400.66666666666663</ele><time>2026-03-29T07:11:14Z</time></trkpt><trkpt lat="43.16826257899627" lon="12.26340621162341"><ele>402.8333333333333</ele><time>2026-03-29T07:11:15Z</time></trkpt><trkpt lat="43.16824111567184" lon="12.263276602918458"><ele>405.0</ele><time>2026-03-29T07:11:16Z</time></trkpt><trkpt lat="43.16823861671544" lon="12.263144798218383"><ele>408.2</ele><time>2026-03-29T07:11:17Z</time></trkpt><trkpt lat="43.16826162395516" lon="12.26301533742957"><ele>411.4</ele><time>2026-03-29T07:11:18Z</time></trkpt><trkpt lat="43.16829611005467" lon="12.26285684416099"><ele>414.6</ele><time>2026-03-29T07:11:19Z</time></trkpt><trkpt lat="43.16832091943289" lon="12.262714081988246"><ele>417.8</ele><time>2026-03-29T07:11:20Z</time></trkpt><trkpt lat="43.168308757646194" lon="12.26258076442382"><ele>421.0</ele><time>2026-03-29T07:11:21Z</time></trkpt><trkpt lat="43.168289051832" lon="12.262445900472928"><ele>421.0</ele><time>2026-03-29T07:11:22Z</time></trkpt><trkpt lat="43.16825785077438" lon="12.262291124219256"><ele>421.0</ele><time>2026-03-29T07:11:23Z</time></trkpt><trkpt lat="43.16823246937062" lon="12.262121642049692"><ele>421.0</ele><time>2026-03-29T07:11:24Z</time></trkpt><trkpt lat="43.168244613805086" lon="12.261965223016203"><ele>421.0</ele><time>2026-03-29T07:11:25Z</time></trkpt><trkpt lat="43.16827146111618" lon="12.261815156124772"><ele>424.0</ele><time>2026-03-29T07:11:26Z</time></trkpt><trkpt lat="43.16829540819225" lon="12.261682146338705"><ele>427.0</ele><time>2026-03-29T07:11:27Z</time></trkpt><trkpt lat="43.16828881713353" lon="12.261561611246053"><ele>430.0</ele><time>2026-03-29T07:11:28Z</time></trkpt><trkpt lat="43.16825031847455" lon="12.261441674758066"><ele>433.0</ele><time>2026-03-29T07:11:29Z</time></trkpt><trkpt lat="43.16819624957246" lon="12.261305202943712"><ele>436.0</ele><time>2026-03-29T07:11:30Z</time></trkpt><trkpt lat="43.16812090738905" lon="12.261188383400121"><ele>436.0</ele><time>2026-03-29T07:11:31Z</time></trkpt><trkpt lat="43.168032351993304" lon="12.26109011510809"><ele>436.0</ele><time>2026-03-29T07:11:32Z</time></trkpt><trkpt lat="43.16793365018582" lon="12.260993023107638"><ele>436.0</ele><time>2026-03-29T07:11:33Z</time></trkpt><trkpt lat="43.16781780439073" lon="12.260915551442976"><ele>436.0</ele><time>2026-03-29T07:11:34Z</time></trkpt><trkpt lat="43.16771149045787" lon="12.260860183888793"><ele>436.0</ele><time>2026-03-29T07:11:35Z</time></trkpt><trkpt lat="43.167612706334324" lon="12.260812636784236"><ele>436.0</ele><time>2026-03-29T07:11:36Z</time></trkpt><trkpt lat="43.16751563997784" lon="12.260765303087222"><ele>436.0</ele><time>2026-03-29T07:11:37Z</time></trkpt><trkpt lat="43.16741994016145" lon="12.260701143613433"><ele>436.0</ele><time>2026-03-29T07:11:38Z</time></trkpt><trkpt lat="43.16733177216687" lon="12.260620666481874"><ele>436.0</ele><time>2026-03-29T07:11:39Z</time></trkpt><trkpt lat="43.16724521284796" lon="12.260560343188859"><ele>432.83333333333337</ele><time>2026-03-29T07:11:40Z</time></trkpt><trkpt lat="43.167148598100816" lon="12.260524469639824"><ele>429.6666666666667</ele><time>2026-03-29T07:11:41Z</time></trkpt><trkpt lat="43.16705085559087" lon="12.260507281587813"><ele>426.5</ele><time>2026-03-29T07:11:42Z</time></trkpt><trkpt lat="43.166976896005075" lon="12.260497721558993"><ele>423.33333333333337</ele><time>2026-03-29T07:11:43Z</time></trkpt><trkpt lat="43.16692025377788" lon="12.260400693050583"><ele>420.1666666666667</ele><time>2026-03-29T07:11:45Z</time></trkpt><trkpt lat="43.16685827253642" lon="12.260333870287772"><ele>417.0</ele><time>2026-03-29T07:11:47Z</time></trkpt><trkpt lat="43.16678535800524" lon="12.260378340742477"><ele>417.0</ele><time>2026-03-29T07:11:48Z</time></trkpt><trkpt lat="43.16671144113068" lon="12.260420873799841"><ele>417.0</ele><time>2026-03-29T07:11:49Z</time></trkpt><trkpt lat="43.16659175582731" lon="12.260491215761332"><ele>417.0</ele><time>2026-03-29T07:11:51Z</time></trkpt><trkpt lat="43.16652653477386" lon="12.260503890331496"><ele>417.0</ele><time>2026-03-29T07:11:52Z</time></trkpt><trkpt lat="43.16639830744665" lon="12.260496254737639"><ele>417.0</ele><time>2026-03-29T07:11:54Z</time></trkpt><trkpt lat="43.166336442773044" lon="12.26046667528815"><ele>414.5</ele><time>2026-03-29T07:11:55Z</time></trkpt><trkpt lat="43.166270390205305" lon="12.260423773758172"><ele>412.0</ele><time>2026-03-29T07:11:56Z</time></trkpt><trkpt lat="43.16620880765928" lon="12.260364082149515"><ele>409.5</ele><time>2026-03-29T07:11:57Z</time></trkpt><trkpt lat="43.16612251701315" lon="12.26025994768496"><ele>407.0</ele><time>2026-03-29T07:11:59Z</time></trkpt><trkpt lat="43.16604383754023" lon="12.260223774936025"><ele>404.5</ele><time>2026-03-29T07:12:01Z</time></trkpt><trkpt lat="43.16599881511914" lon="12.260297580933269"><ele>402.0</ele><time>2026-03-29T07:12:03Z</time></trkpt><trkpt lat="43.165926464265375" lon="12.26040790023665"><ele>402.0</ele><time>2026-03-29T07:12:05Z</time></trkpt><trkpt lat="43.16588042398989" lon="12.260473889947775"><ele>402.0</ele><time>2026-03-29T07:12:07Z</time></trkpt><trkpt lat="43.16579664959325" lon="12.260551861426924"><ele>402.0</ele><time>2026-03-29T07:12:10Z</time></trkpt><trkpt lat="43.16572773612621" lon="12.260603953862299"><ele>402.0</ele><time>2026-03-29T07:12:13Z</time></trkpt><trkpt lat="43.16553616167565" lon="12.26073998183364"><ele>399.40000000000003</ele><time>2026-03-29T07:12:15Z</time></trkpt><trkpt lat="43.16544155598241" lon="12.260797489236525"><ele>396.8</ele><time>2026-03-29T07:12:16.999Z</time></trkpt><trkpt lat="43.16529412914988" lon="12.260833917586734"><ele>394.2</ele><time>2026-03-29T07:12:18.999Z</time></trkpt><trkpt lat="43.165239790044616" lon="12.260892632535699"><ele>391.6</ele><time>2026-03-29T07:12:19.999Z</time></trkpt><trkpt lat="43.165159970634484" lon="12.261006326524289"><ele>389.0</ele><time>2026-03-29T07:12:21.999Z</time></trkpt><trkpt lat="43.16510890826551" lon="12.261073629382787"><ele>389.0</ele><time>2026-03-29T07:12:22.999Z</time></trkpt><trkpt lat="43.16506395796044" lon="12.261147058147497"><ele>389.0</ele><time>2026-03-29T07:12:23.999Z</time></trkpt><trkpt lat="43.165022787321526" lon="12.261221895691607"><ele>389.0</ele><time>2026-03-29T07:12:24.999Z</time></trkpt><trkpt lat="43.164989865481544" lon="12.261298268886707"><ele>389.0</ele><time>2026-03-29T07:12:25.999Z</time></trkpt><trkpt lat="43.16495440726998" lon="12.261380537469252"><ele>389.0</ele><time>2026-03-29T07:12:26.999Z</time></trkpt><trkpt lat="43.16491311963746" lon="12.261457198515954"><ele>389.0</ele><time>2026-03-29T07:12:27.999Z</time></trkpt><trkpt lat="43.16487037093544" lon="12.261535807555955"><ele>389.0</ele><time>2026-03-29T07:12:28.999Z</time></trkpt><trkpt lat="43.16482607497101" lon="12.261617393991065"><ele>388.0</ele><time>2026-03-29T07:12:29.999Z</time></trkpt><trkpt lat="43.164782226321954" lon="12.261722886922445"><ele>387.0</ele><time>2026-03-29T07:12:30.999Z</time></trkpt><trkpt lat="43.164694874298284" lon="12.261903383006253"><ele>386.0</ele><time>2026-03-29T07:12:31.999Z</time></trkpt><trkpt lat="43.16455865047365" lon="12.262360387866968"><ele>385.99999999999994</ele><time>2026-03-29T07:12:32.999Z</time></trkpt><trkpt lat="43.16448008178445" lon="12.262386892284102"><ele>386.0</ele><time>2026-03-29T07:12:33.999Z</time></trkpt><trkpt lat="43.164412788617234" lon="12.262413322549435"><ele>386.0</ele><time>2026-03-29T07:12:34.999Z</time></trkpt><trkpt lat="43.16444098397063" lon="12.262497996575165"><ele>386.0</ele><time>2026-03-29T07:12:36.999Z</time></trkpt><trkpt lat="43.16446163370896" lon="12.262624556764711"><ele>385.99999999999994</ele><time>2026-03-29T07:12:38.999Z</time></trkpt><trkpt lat="43.164401850924456" lon="12.26272499858997"><ele>386.0</ele><time>2026-03-29T07:12:39.999Z</time></trkpt><trkpt lat="43.16435152883332" lon="12.262813898176976"><ele>385.99999999999994</ele><time>2026-03-29T07:12:40.999Z</time></trkpt><trkpt lat="43.16432152285649" lon="12.262894823462943"><ele>386.0</ele><time>2026-03-29T07:12:41.999Z</time></trkpt><trkpt lat="43.16429255061901" lon="12.262980849548892"><ele>386.0</ele><time>2026-03-29T07:12:42.999Z</time></trkpt><trkpt lat="43.16425913734733" lon="12.263085166208787"><ele>386.0</ele><time>2026-03-29T07:12:43.999Z</time></trkpt><trkpt lat="43.164209379223955" lon="12.263180919608082"><ele>385.99999999999994</ele><time>2026-03-29T07:12:44.999Z</time></trkpt><trkpt lat="43.16414740616573" lon="12.263286614210164"><ele>386.0</ele><time>2026-03-29T07:12:45.999Z</time></trkpt><trkpt lat="43.16405832983538" lon="12.263385448438054"><ele>386.20000000000005</ele><time>2026-03-29T07:12:46.999Z</time></trkpt><trkpt lat="43.16396892169371" lon="12.263485949208684"><ele>386.40000000000003</ele><time>2026-03-29T07:12:47.999Z</time></trkpt><trkpt lat="43.16387339197776" lon="12.263568249054346"><ele>386.6</ele><time>2026-03-29T07:12:48.999Z</time></trkpt><trkpt lat="43.16378147500556" lon="12.263692031364986"><ele>386.8</ele><time>2026-03-29T07:12:49.999Z</time></trkpt><trkpt lat="43.163714941682024" lon="12.2637778346602"><ele>387.0</ele><time>2026-03-29T07:12:50.999Z</time></trkpt><trkpt lat="43.16362330563198" lon="12.263857641830903"><ele>386.40000000000003</ele><time>2026-03-29T07:12:51.999Z</time></trkpt><trkpt lat="43.163526629596475" lon="12.263969785042436"><ele>385.8</ele><time>2026-03-29T07:12:52.999Z</time></trkpt><trkpt lat="43.16346138154653" lon="12.264027944502722"><ele>385.2</ele><time>2026-03-29T07:12:53.999Z</time></trkpt><trkpt lat="43.163387521462994" lon="12.264104722422957"><ele>384.6</ele><time>2026-03-29T07:12:54.999Z</time></trkpt><trkpt lat="43.1633081063014" lon="12.264174906552661"><ele>384.0</ele><time>2026-03-29T07:12:57Z</time></trkpt><trkpt lat="43.16329600654294" lon="12.2642997216559"><ele>384.0</ele><time>2026-03-29T07:12:59Z</time></trkpt><trkpt lat="43.16330625050107" lon="12.26441535053375"><ele>384.0</ele><time>2026-03-29T07:13:00Z</time></trkpt><trkpt lat="43.16325461882128" lon="12.26458049964036"><ele>384.0</ele><time>2026-03-29T07:13:01Z</time></trkpt><trkpt lat="43.16315333333093" lon="12.264726258185977"><ele>384.0</ele><time>2026-03-29T07:13:02Z</time></trkpt><trkpt lat="43.16305139029096" lon="12.26487450362056"><ele>383.4</ele><time>2026-03-29T07:13:03Z</time></trkpt><trkpt lat="43.16295759299092" lon="12.26501413091715"><ele>382.79999999999995</ele><time>2026-03-29T07:13:04Z</time></trkpt><trkpt lat="43.16289357371997" lon="12.265157154792048"><ele>382.20000000000005</ele><time>2026-03-29T07:13:05Z</time></trkpt><trkpt lat="43.162841379769205" lon="12.265265646209615"><ele>381.6</ele><time>2026-03-29T07:13:06Z</time></trkpt><trkpt lat="43.16277528409403" lon="12.265352477167234"><ele>381.0</ele><time>2026-03-29T07:13:07Z</time></trkpt><trkpt lat="43.16269347513464" lon="12.265394358209388"><ele>381.0</ele><time>2026-03-29T07:13:08Z</time></trkpt><trkpt lat="43.16263021457496" lon="12.265493785625258"><ele>381.0</ele><time>2026-03-29T07:13:09Z</time></trkpt><trkpt lat="43.16258031455543" lon="12.265654159408367"><ele>381.0</ele><time>2026-03-29T07:13:10Z</time></trkpt><trkpt lat="43.162564192027524" lon="12.26578716630393"><ele>381.0</ele><time>2026-03-29T07:13:11Z</time></trkpt><trkpt lat="43.16258551211831" lon="12.265928772211025"><ele>381.0</ele><time>2026-03-29T07:13:12Z</time></trkpt><trkpt lat="43.16253665089865" lon="12.266064199756348"><ele>379.5</ele><time>2026-03-29T07:13:13Z</time></trkpt><trkpt lat="43.16248645347382" lon="12.26620256432085"><ele>378.0</ele><time>2026-03-29T07:13:14Z</time></trkpt><trkpt lat="43.16244129725406" lon="12.266338185521159"><ele>376.5</ele><time>2026-03-29T07:13:15Z</time></trkpt><trkpt lat="43.16237334182512" lon="12.266479921802798"><ele>375.0</ele><time>2026-03-29T07:13:16Z</time></trkpt><trkpt lat="43.1623080934808" lon="12.266622960618003"><ele>378.75</ele><time>2026-03-29T07:13:17Z</time></trkpt><trkpt lat="43.16224463675581" lon="12.266777782390907"><ele>382.5</ele><time>2026-03-29T07:13:18Z</time></trkpt><trkpt lat="43.16217663721264" lon="12.266921847472911"><ele>386.25</ele><time>2026-03-29T07:13:19Z</time></trkpt><trkpt lat="43.16210285901349" lon="12.267070368862658"><ele>390.0</ele><time>2026-03-29T07:13:20Z</time></trkpt><trkpt lat="43.162006389919284" lon="12.267179570367146"><ele>390.0</ele><time>2026-03-29T07:13:21Z</time></trkpt><trkpt lat="43.161897158542835" lon="12.267226119467127"><ele>390.0</ele><time>2026-03-29T07:13:22Z</time></trkpt><trkpt lat="43.16182410671732" lon="12.267307811477023"><ele>390.0</ele><time>2026-03-29T07:13:23Z</time></trkpt><trkpt lat="43.161788444027366" lon="12.267386304994975"><ele>390.0</ele><time>2026-03-29T07:13:24Z</time></trkpt><trkpt lat="43.161802909418974" lon="12.26749059310517"><ele>390.0</ele><time>2026-03-29T07:13:26Z</time></trkpt><trkpt lat="43.16192840763739" lon="12.267529999175117"><ele>385.4</ele><time>2026-03-29T07:13:28Z</time></trkpt><trkpt lat="43.16203806635756" lon="12.267490617544146"><ele>380.8</ele><time>2026-03-29T07:13:29Z</time></trkpt><trkpt lat="43.16217249176184" lon="12.26748077415222"><ele>376.20000000000005</ele><time>2026-03-29T07:13:30Z</time></trkpt><trkpt lat="43.162252349995065" lon="12.267470288703416"><ele>371.6</ele><time>2026-03-29T07:13:31Z</time></trkpt><trkpt lat="43.16235505213919" lon="12.267499089484986"><ele>367.0</ele><time>2026-03-29T07:13:33Z</time></trkpt><trkpt lat="43.162286813125526" lon="12.267711446955566"><ele>367.0</ele><time>2026-03-29T07:13:35Z</time></trkpt><trkpt lat="43.16222887524787" lon="12.267840367137621"><ele>367.0</ele><time>2026-03-29T07:13:36Z</time></trkpt><trkpt lat="43.16215976327955" lon="12.268004272261658"><ele>367.0</ele><time>2026-03-29T07:13:37Z</time></trkpt><trkpt lat="43.16206878902694" lon="12.268175110834155"><ele>367.0</ele><time>2026-03-29T07:13:38Z</time></trkpt><trkpt lat="43.16197121177487" lon="12.268330092160642"><ele>362.66666666666663</ele><time>2026-03-29T07:13:39Z</time></trkpt><trkpt lat="43.16183516444416" lon="12.268443094600178"><ele>358.3333333333333</ele><time>2026-03-29T07:13:40Z</time></trkpt><trkpt lat="43.16171528521225" lon="12.268607425084735"><ele>354.0</ele><time>2026-03-29T07:13:41Z</time></trkpt><trkpt lat="43.16157570022945" lon="12.268761236006222"><ele>350.6666666666667</ele><time>2026-03-29T07:13:42Z</time></trkpt><trkpt lat="43.161446783926365" lon="12.26892177628951"><ele>347.33333333333337</ele><time>2026-03-29T07:13:43Z</time></trkpt><trkpt lat="43.16132166031245" lon="12.269078232247963"><ele>344.0</ele><time>2026-03-29T07:13:44Z</time></trkpt><trkpt lat="43.16118064991304" lon="12.269200922394907"><ele>344.0</ele><time>2026-03-29T07:13:45Z</time></trkpt><trkpt lat="43.1610332442645" lon="12.269341089755317"><ele>344.0</ele><time>2026-03-29T07:13:46Z</time></trkpt><trkpt lat="43.160882120591815" lon="12.269487822764853"><ele>344.0</ele><time>2026-03-29T07:13:47Z</time></trkpt><trkpt lat="43.160741873811126" lon="12.2696512654589"><ele>343.6666666666667</ele><time>2026-03-29T07:13:48Z</time></trkpt><trkpt lat="43.16058682059056" lon="12.269795864756844"><ele>343.3333333333333</ele><time>2026-03-29T07:13:49Z</time></trkpt><trkpt lat="43.160425522584696" lon="12.269951202323362"><ele>343.0</ele><time>2026-03-29T07:13:50Z</time></trkpt><trkpt lat="43.16026268000749" lon="12.270110637826496"><ele>343.0</ele><time>2026-03-29T07:13:51Z</time></trkpt><trkpt lat="43.16012896044194" lon="12.270268090284706"><ele>343.0</ele><time>2026-03-29T07:13:52Z</time></trkpt><trkpt lat="43.16001484692161" lon="12.270417595394953"><ele>343.0</ele><time>2026-03-29T07:13:53Z</time></trkpt><trkpt lat="43.15989653887496" lon="12.270527190878443"><ele>340.5</ele><time>2026-03-29T07:13:54Z</time></trkpt><trkpt lat="43.159795167387294" lon="12.27065353713379"><ele>338.0</ele><time>2026-03-29T07:13:55Z</time></trkpt><trkpt lat="43.15972909906735" lon="12.270812100723465"><ele>335.5</ele><time>2026-03-29T07:13:56Z</time></trkpt><trkpt lat="43.15965979605934" lon="12.270969894292922"><ele>333.0</ele><time>2026-03-29T07:13:57Z</time></trkpt><trkpt lat="43.15959670742965" lon="12.271155534064002"><ele>333.0</ele><time>2026-03-29T07:13:58Z</time></trkpt><trkpt lat="43.15953703366806" lon="12.271335524080392"><ele>333.0</ele><time>2026-03-29T07:13:59Z</time></trkpt><trkpt lat="43.15947740369151" lon="12.271512620284026"><ele>333.0</ele><time>2026-03-29T07:14:00Z</time></trkpt><trkpt lat="43.1594213494742" lon="12.271687173427429"><ele>333.0</ele><time>2026-03-29T07:14:01Z</time></trkpt><trkpt lat="43.1593696509761" lon="12.271855333169865"><ele>332.5</ele><time>2026-03-29T07:14:02Z</time></trkpt><trkpt lat="43.159323719066705" lon="12.272028959832639"><ele>332.0</ele><time>2026-03-29T07:14:03Z</time></trkpt><trkpt lat="43.159283393297514" lon="12.272204103721537"><ele>331.5</ele><time>2026-03-29T07:14:04Z</time></trkpt><trkpt lat="43.15925326574225" lon="12.272352158610444"><ele>331.0</ele><time>2026-03-29T07:14:05Z</time></trkpt><trkpt lat="43.159250473321634" lon="12.272494279670088"><ele>331.0</ele><time>2026-03-29T07:14:06Z</time></trkpt><trkpt lat="43.15927275266463" lon="12.27265998160476"><ele>331.0</ele><time>2026-03-29T07:14:07Z</time></trkpt><trkpt lat="43.15930044743156" lon="12.272820490910373"><ele>331.0</ele><time>2026-03-29T07:14:08Z</time></trkpt><trkpt lat="43.15933033325159" lon="12.272946487467467"><ele>331.0</ele><time>2026-03-29T07:14:09Z</time></trkpt><trkpt lat="43.159394244812304" lon="12.273035234417263"><ele>331.0</ele><time>2026-03-29T07:14:10Z</time></trkpt><trkpt lat="43.15948624149814" lon="12.273098204006631"><ele>331.0</ele><time>2026-03-29T07:14:11Z</time></trkpt><trkpt lat="43.15960405974623" lon="12.273115287004039"><ele>331.0</ele><time>2026-03-29T07:14:11.999Z</time></trkpt><trkpt lat="43.159724830729296" lon="12.273091348955495"><ele>331.0</ele><time>2026-03-29T07:14:12.999Z</time></trkpt><trkpt lat="43.1598555317528" lon="12.273039415414043"><ele>331.0</ele><time>2026-03-29T07:14:13.999Z</time></trkpt><trkpt lat="43.15997536735817" lon="12.27296873861235"><ele>330.66666666666663</ele><time>2026-03-29T07:14:14.999Z</time></trkpt><trkpt lat="43.16007987725817" lon="12.27293514689428"><ele>330.3333333333333</ele><time>2026-03-29T07:14:15.999Z</time></trkpt><trkpt lat="43.16015326104358" lon="12.272940946752405"><ele>330.0</ele><time>2026-03-29T07:14:16.999Z</time></trkpt><trkpt lat="43.16022525767364" lon="12.27297766493349"><ele>329.6666666666667</ele><time>2026-03-29T07:14:17.999Z</time></trkpt><trkpt lat="43.16031541295145" lon="12.273020414010071"><ele>329.33333333333337</ele><time>2026-03-29T07:14:18.999Z</time></trkpt><trkpt lat="43.160395617341536" lon="12.273077381589813"><ele>329.0</ele><time>2026-03-29T07:14:19.999Z</time></trkpt><trkpt lat="43.16046528136394" lon="12.273095085500238"><ele>325.8</ele><time>2026-03-29T07:14:20.999Z</time></trkpt><trkpt lat="43.16050902754045" lon="12.273185866986287"><ele>322.59999999999997</ele><time>2026-03-29T07:14:21.999Z</time></trkpt><trkpt lat="43.16051855956279" lon="12.273294660045426"><ele>319.4</ele><time>2026-03-29T07:14:22.999Z</time></trkpt><trkpt lat="43.16049651796696" lon="12.273411333049765"><ele>316.2</ele><time>2026-03-29T07:14:23.999Z</time></trkpt><trkpt lat="43.16040166092033" lon="12.273496940693414"><ele>313.0</ele><time>2026-03-29T07:14:24.999Z</time></trkpt><trkpt lat="43.160360692147684" lon="12.273610296233958"><ele>313.0</ele><time>2026-03-29T07:14:25.999Z</time></trkpt><trkpt lat="43.160348235878764" lon="12.273718006460651"><ele>313.0</ele><time>2026-03-29T07:14:26.999Z</time></trkpt><trkpt lat="43.160425804491624" lon="12.273830794547866"><ele>313.0</ele><time>2026-03-29T07:14:27.999Z</time></trkpt><trkpt lat="43.16049844143165" lon="12.273952414304995"><ele>313.0</ele><time>2026-03-29T07:14:28.999Z</time></trkpt><trkpt lat="43.16054789747401" lon="12.274094909341791"><ele>313.0</ele><time>2026-03-29T07:14:29.999Z</time></trkpt><trkpt lat="43.16062730824595" lon="12.274242616374218"><ele>310.0</ele><time>2026-03-29T07:14:30.999Z</time></trkpt><trkpt lat="43.16067356452922" lon="12.274364555062471"><ele>307.0</ele><time>2026-03-29T07:14:31.999Z</time></trkpt><trkpt lat="43.160759036310964" lon="12.27449058452429"><ele>304.0</ele><time>2026-03-29T07:14:32.999Z</time></trkpt><trkpt lat="43.16087183510239" lon="12.274590270692123"><ele>301.0</ele><time>2026-03-29T07:14:33.999Z</time></trkpt><trkpt lat="43.16095726758724" lon="12.274702784540729"><ele>297.0</ele><time>2026-03-29T07:14:34.999Z</time></trkpt><trkpt lat="43.161013783298586" lon="12.274853752753112"><ele>293.0</ele><time>2026-03-29T07:14:35.999Z</time></trkpt><trkpt lat="43.16105838373082" lon="12.275021135884154"><ele>289.0</ele><time>2026-03-29T07:14:36.999Z</time></trkpt><trkpt lat="43.16108741245982" lon="12.27520205921677"><ele>285.0</ele><time>2026-03-29T07:14:37.999Z</time></trkpt><trkpt lat="43.16111049402118" lon="12.275385209068421"><ele>285.0</ele><time>2026-03-29T07:14:38.999Z</time></trkpt><trkpt lat="43.161111337695715" lon="12.27555064278704"><ele>285.0</ele><time>2026-03-29T07:14:39.999Z</time></trkpt><trkpt lat="43.161119923040474" lon="12.275702998904586"><ele>285.0</ele><time>2026-03-29T07:14:40.999Z</time></trkpt><trkpt lat="43.16113342682863" lon="12.275831888462521"><ele>285.0</ele><time>2026-03-29T07:14:41.999Z</time></trkpt><trkpt lat="43.16116070636687" lon="12.275942516806904"><ele>285.0</ele><time>2026-03-29T07:14:42.999Z</time></trkpt><trkpt lat="43.16122153965386" lon="12.276030740001023"><ele>282.0</ele><time>2026-03-29T07:14:43.999Z</time></trkpt><trkpt lat="43.16131232473281" lon="12.27608407285948"><ele>279.0</ele><time>2026-03-29T07:14:44.999Z</time></trkpt><trkpt lat="43.16143696351218" lon="12.276106640075518"><ele>276.0</ele><time>2026-03-29T07:14:45.999Z</time></trkpt><trkpt lat="43.16158267072798" lon="12.27612252636678"><ele>273.0</ele><time>2026-03-29T07:14:46.999Z</time></trkpt><trkpt lat="43.161734419032534" lon="12.27615249504576"><ele>268.6666666666667</ele><time>2026-03-29T07:14:47.999Z</time></trkpt><trkpt lat="43.16189838924906" lon="12.27618872048924"><ele>264.33333333333337</ele><time>2026-03-29T07:14:48.999Z</time></trkpt><trkpt lat="43.162063997515475" lon="12.276247846692394"><ele>260.0</ele><time>2026-03-29T07:14:49.999Z</time></trkpt><trkpt lat="43.1622198497749" lon="12.276247552469163"><ele>260.0</ele><time>2026-03-29T07:14:50.999Z</time></trkpt><trkpt lat="43.162375689013196" lon="12.276201849429844"><ele>260.0</ele><time>2026-03-29T07:14:51.999Z</time></trkpt><trkpt lat="43.16253830638767" lon="12.27611495090621"><ele>260.0</ele><time>2026-03-29T07:14:52.999Z</time></trkpt><trkpt lat="43.16268100682871" lon="12.276034821665885"><ele>260.0</ele><time>2026-03-29T07:14:53.999Z</time></trkpt><trkpt lat="43.16279850298033" lon="12.275986706290293"><ele>260.0</ele><time>2026-03-29T07:14:54.999Z</time></trkpt><trkpt lat="43.16291804524797" lon="12.275969175786889"><ele>260.0</ele><time>2026-03-29T07:14:55.999Z</time></trkpt><trkpt lat="43.16304155953298" lon="12.275996617087785"><ele>260.0</ele><time>2026-03-29T07:14:56.999Z</time></trkpt><trkpt lat="43.163163099309656" lon="12.276061220456452"><ele>259.75</ele><time>2026-03-29T07:14:57.999Z</time></trkpt><trkpt lat="43.16328954908353" lon="12.276114712737474"><ele>259.5</ele><time>2026-03-29T07:14:58.999Z</time></trkpt><trkpt lat="43.16341114564673" lon="12.276195061876752"><ele>259.25</ele><time>2026-03-29T07:14:59.999Z</time></trkpt><trkpt lat="43.16352598231857" lon="12.276279776256592"><ele>259.0</ele><time>2026-03-29T07:15:00.999Z</time></trkpt><trkpt lat="43.163625505711856" lon="12.276366062602133"><ele>259.0</ele><time>2026-03-29T07:15:01.999Z</time></trkpt><trkpt lat="43.163707600274925" lon="12.276439562261332"><ele>259.0</ele><time>2026-03-29T07:15:03Z</time></trkpt><trkpt lat="43.16377632591018" lon="12.27649383034128"><ele>259.0</ele><time>2026-03-29T07:15:04Z</time></trkpt><trkpt lat="43.16386973613944" lon="12.276569947194218"><ele>259.0</ele><time>2026-03-29T07:15:06Z</time></trkpt><trkpt lat="43.16398935858582" lon="12.276489203892291"><ele>259.0</ele><time>2026-03-29T07:15:09Z</time></trkpt><trkpt lat="43.16401634300305" lon="12.27640533413661"><ele>259.3333333333333</ele><time>2026-03-29T07:15:10Z</time></trkpt><trkpt lat="43.164047068000855" lon="12.276310683839728"><ele>259.66666666666663</ele><time>2026-03-29T07:15:11Z</time></trkpt><trkpt lat="43.16409113495934" lon="12.276202701139207"><ele>260.0</ele><time>2026-03-29T07:15:12Z</time></trkpt><trkpt lat="43.16413483035511" lon="12.276091162309058"><ele>260.3333333333333</ele><time>2026-03-29T07:15:13Z</time></trkpt><trkpt lat="43.164176687559426" lon="12.275983540158576"><ele>260.6666666666667</ele><time>2026-03-29T07:15:14Z</time></trkpt><trkpt lat="43.164209959627634" lon="12.275895542740725"><ele>261.0</ele><time>2026-03-29T07:15:15Z</time></trkpt><trkpt lat="43.164280641932415" lon="12.275756700731042"><ele>261.0</ele><time>2026-03-29T07:15:17Z</time></trkpt><trkpt lat="43.16434914106655" lon="12.275648348403239"><ele>261.0</ele><time>2026-03-29T07:15:19Z</time></trkpt><trkpt lat="43.164486745062135" lon="12.275607647696097"><ele>261.0</ele><time>2026-03-29T07:15:21Z</time></trkpt><trkpt lat="43.164582119375076" lon="12.275616094959041"><ele>261.0</ele><time>2026-03-29T07:15:22Z</time></trkpt><trkpt lat="43.16469164244261" lon="12.275592125111993"><ele>260.8</ele><time>2026-03-29T07:15:23Z</time></trkpt><trkpt lat="43.1648134776132" lon="12.275587386328018"><ele>260.6</ele><time>2026-03-29T07:15:24Z</time></trkpt><trkpt lat="43.1649153197187" lon="12.275585844893184"><ele>260.4</ele><time>2026-03-29T07:15:25Z</time></trkpt><trkpt lat="43.16499754420792" lon="12.275579025769623"><ele>260.2</ele><time>2026-03-29T07:15:26Z</time></trkpt><trkpt lat="43.16506921289488" lon="12.27557064968717"><ele>260.0</ele><time>2026-03-29T07:15:27Z</time></trkpt><trkpt lat="43.16514347067837" lon="12.275589121856502"><ele>260.5</ele><time>2026-03-29T07:15:28Z</time></trkpt><trkpt lat="43.16522157001708" lon="12.275586724230298"><ele>261.0</ele><time>2026-03-29T07:15:29Z</time></trkpt><trkpt lat="43.165288836902505" lon="12.275575655305548"><ele>261.5</ele><time>2026-03-29T07:15:30Z</time></trkpt><trkpt lat="43.16538984579913" lon="12.275540178496168"><ele>262.0</ele><time>2026-03-29T07:15:32Z</time></trkpt><trkpt lat="43.165452039626416" lon="12.275509222251157"><ele>262.5</ele><time>2026-03-29T07:15:33Z</time></trkpt><trkpt lat="43.165513759746204" lon="12.275475831855385"><ele>263.0</ele><time>2026-03-29T07:15:34Z</time></trkpt><trkpt lat="43.16558883415786" lon="12.275426975544248"><ele>263.0</ele><time>2026-03-29T07:15:35Z</time></trkpt><trkpt lat="43.16549316560257" lon="12.274979870474244"><ele>263.0</ele><time>2026-03-29T07:15:36Z</time></trkpt><trkpt lat="43.16551260685342" lon="12.274824452709742"><ele>263.75</ele><time>2026-03-29T07:15:37Z</time></trkpt><trkpt lat="43.16552960994185" lon="12.274683421878102"><ele>264.5</ele><time>2026-03-29T07:15:38Z</time></trkpt><trkpt lat="43.16554670428528" lon="12.274545800155316"><ele>265.25</ele><time>2026-03-29T07:15:39Z</time></trkpt><trkpt lat="43.16556495888362" lon="12.274388431062313"><ele>266.0</ele><time>2026-03-29T07:15:40Z</time></trkpt><trkpt lat="43.165584393509796" lon="12.274205953655905"><ele>266.0</ele><time>2026-03-29T07:15:41Z</time></trkpt><trkpt lat="43.16560641073171" lon="12.274022582193274"><ele>266.0</ele><time>2026-03-29T07:15:42Z</time></trkpt><trkpt lat="43.16563165253574" lon="12.273825362769102"><ele>266.0</ele><time>2026-03-29T07:15:43Z</time></trkpt><trkpt lat="43.16564639395618" lon="12.273643269974235"><ele>266.0</ele><time>2026-03-29T07:15:44Z</time></trkpt><trkpt lat="43.165663723028224" lon="12.273458862182022"><ele>266.75</ele><time>2026-03-29T07:15:45Z</time></trkpt><trkpt lat="43.16568479466636" lon="12.273282170683807"><ele>267.5</ele><time>2026-03-29T07:15:46Z</time></trkpt><trkpt lat="43.16570652379581" lon="12.273101120494692"><ele>268.25</ele><time>2026-03-29T07:15:47Z</time></trkpt><trkpt lat="43.16573975583087" lon="12.272938272162888"><ele>269.0</ele><time>2026-03-29T07:15:48Z</time></trkpt><trkpt lat="43.16578030384392" lon="12.272813326575955"><ele>271.2</ele><time>2026-03-29T07:15:49Z</time></trkpt><trkpt lat="43.16583812392401" lon="12.272719435840253"><ele>273.4</ele><time>2026-03-29T07:15:50Z</time></trkpt><trkpt lat="43.16592278284122" lon="12.272658868316444"><ele>275.6</ele><time>2026-03-29T07:15:51Z</time></trkpt><trkpt lat="43.16603298048618" lon="12.272635361236592"><ele>277.8</ele><time>2026-03-29T07:15:52Z</time></trkpt><trkpt lat="43.16616145576733" lon="12.272635499893735"><ele>280.0</ele><time>2026-03-29T07:15:53Z</time></trkpt><trkpt lat="43.16629831157248" lon="12.272630455389322"><ele>280.0</ele><time>2026-03-29T07:15:54Z</time></trkpt><trkpt lat="43.16642664963605" lon="12.272607493047552"><ele>280.0</ele><time>2026-03-29T07:15:55Z</time></trkpt><trkpt lat="43.16652174871882" lon="12.272523804922058"><ele>280.0</ele><time>2026-03-29T07:15:56Z</time></trkpt><trkpt lat="43.16661210740267" lon="12.272415277581105"><ele>280.0</ele><time>2026-03-29T07:15:57Z</time></trkpt><trkpt lat="43.16669639680702" lon="12.272301146004661"><ele>281.6</ele><time>2026-03-29T07:15:58Z</time></trkpt><trkpt lat="43.16676328422593" lon="12.272204277927955"><ele>283.2</ele><time>2026-03-29T07:15:59Z</time></trkpt><trkpt lat="43.166831726967615" lon="12.272127516369398"><ele>284.8</ele><time>2026-03-29T07:16:00Z</time></trkpt><trkpt lat="43.1669121725465" lon="12.272068773548385"><ele>286.4</ele><time>2026-03-29T07:16:00.999Z</time></trkpt><trkpt lat="43.16699977465453" lon="12.272035463514927"><ele>288.0</ele><time>2026-03-29T07:16:01.999Z</time></trkpt><trkpt lat="43.16708975312193" lon="12.27200318233845"><ele>288.0</ele><time>2026-03-29T07:16:02.999Z</time></trkpt><trkpt lat="43.16716520008178" lon="12.271928618344393"><ele>288.0</ele><time>2026-03-29T07:16:03.999Z</time></trkpt><trkpt lat="43.16719185911719" lon="12.271784951949154"><ele>288.0</ele><time>2026-03-29T07:16:04.999Z</time></trkpt><trkpt lat="43.16720332429788" lon="12.271626481131861"><ele>288.0</ele><time>2026-03-29T07:16:05.999Z</time></trkpt><trkpt lat="43.167231036965575" lon="12.271454427061357"><ele>288.0</ele><time>2026-03-29T07:16:06.999Z</time></trkpt><trkpt lat="43.16727563723657" lon="12.271294242397914"><ele>286.75</ele><time>2026-03-29T07:16:07.999Z</time></trkpt><trkpt lat="43.1673270774378" lon="12.271156481607324"><ele>285.5</ele><time>2026-03-29T07:16:08.999Z</time></trkpt><trkpt lat="43.16740004269006" lon="12.271039952271728"><ele>284.25</ele><time>2026-03-29T07:16:09.999Z</time></trkpt><trkpt lat="43.16749621982627" lon="12.270941783597953"><ele>283.0</ele><time>2026-03-29T07:16:10.999Z</time></trkpt><trkpt lat="43.16760689684212" lon="12.270859133904054"><ele>284.0</ele><time>2026-03-29T07:16:11.999Z</time></trkpt><trkpt lat="43.16773404548249" lon="12.270757662344653"><ele>285.0</ele><time>2026-03-29T07:16:12.999Z</time></trkpt><trkpt lat="43.167846385819125" lon="12.270665618856638"><ele>286.0</ele><time>2026-03-29T07:16:13.999Z</time></trkpt><trkpt lat="43.16795285899421" lon="12.27056332564839"><ele>287.0</ele><time>2026-03-29T07:16:14.999Z</time></trkpt><trkpt lat="43.16806502125399" lon="12.270436637990828"><ele>287.0</ele><time>2026-03-29T07:16:15.999Z</time></trkpt><trkpt lat="43.16818117790072" lon="12.27028332020832"><ele>287.0</ele><time>2026-03-29T07:16:16.999Z</time></trkpt><trkpt lat="43.168280648413095" lon="12.270151237200103"><ele>287.0</ele><time>2026-03-29T07:16:17.999Z</time></trkpt><trkpt lat="43.16837637433264" lon="12.270024059541964"><ele>287.0</ele><time>2026-03-29T07:16:18.999Z</time></trkpt><trkpt lat="43.16848086676185" lon="12.269916576133404"><ele>290.25</ele><time>2026-03-29T07:16:19.999Z</time></trkpt><trkpt lat="43.168594034008656" lon="12.269804950960872"><ele>293.5</ele><time>2026-03-29T07:16:20.999Z</time></trkpt><trkpt lat="43.16871348544261" lon="12.269718548411484"><ele>296.75</ele><time>2026-03-29T07:16:21.999Z</time></trkpt><trkpt lat="43.16884674837405" lon="12.26964745985525"><ele>300.0</ele><time>2026-03-29T07:16:22.999Z</time></trkpt><trkpt lat="43.1689987911846" lon="12.269584374951654"><ele>301.25</ele><time>2026-03-29T07:16:23.999Z</time></trkpt><trkpt lat="43.169142771800196" lon="12.269529565067652"><ele>302.5</ele><time>2026-03-29T07:16:24.999Z</time></trkpt><trkpt lat="43.16926200519184" lon="12.26947580057358"><ele>303.75</ele><time>2026-03-29T07:16:25.999Z</time></trkpt><trkpt lat="43.16936872560883" lon="12.26943672120785"><ele>305.0</ele><time>2026-03-29T07:16:26.999Z</time></trkpt><trkpt lat="43.16944907505308" lon="12.269407735748057"><ele>305.0</ele><time>2026-03-29T07:16:27.999Z</time></trkpt><trkpt lat="43.169535501155764" lon="12.269390873127291"><ele>305.0</ele><time>2026-03-29T07:16:29.999Z</time></trkpt><trkpt lat="43.169596835766534" lon="12.269314123916086"><ele>305.0</ele><time>2026-03-29T07:16:31.999Z</time></trkpt><trkpt lat="43.1696513459613" lon="12.269241091050432"><ele>305.0</ele><time>2026-03-29T07:16:33.999Z</time></trkpt><trkpt lat="43.16971699597676" lon="12.269149799819239"><ele>305.0</ele><time>2026-03-29T07:16:35.999Z</time></trkpt><trkpt lat="43.16976517411852" lon="12.269066534425253"><ele>305.0</ele><time>2026-03-29T07:16:36.999Z</time></trkpt><trkpt lat="43.169832619334855" lon="12.268980618131684"><ele>306.0</ele><time>2026-03-29T07:16:37.999Z</time></trkpt><trkpt lat="43.16991630952126" lon="12.268911845924368"><ele>307.0</ele><time>2026-03-29T07:16:38.999Z</time></trkpt><trkpt lat="43.170033903079165" lon="12.268853195160137"><ele>308.0</ele><time>2026-03-29T07:16:39.999Z</time></trkpt><trkpt lat="43.170158691833635" lon="12.26879454102796"><ele>309.0</ele><time>2026-03-29T07:16:40.999Z</time></trkpt><trkpt lat="43.170302622482396" lon="12.268710762896296"><ele>309.0</ele><time>2026-03-29T07:16:41.999Z</time></trkpt><trkpt lat="43.17042543704756" lon="12.268620091235471"><ele>309.0</ele><time>2026-03-29T07:16:42.999Z</time></trkpt><trkpt lat="43.17053307965209" lon="12.268519458309745"><ele>309.0</ele><time>2026-03-29T07:16:43.999Z</time></trkpt><trkpt lat="43.17064339143484" lon="12.26840268290451"><ele>309.0</ele><time>2026-03-29T07:16:44.999Z</time></trkpt><trkpt lat="43.170774000132106" lon="12.268287114345993"><ele>310.2</ele><time>2026-03-29T07:16:45.999Z</time></trkpt><trkpt lat="43.17088204865654" lon="12.268163216658678"><ele>311.4</ele><time>2026-03-29T07:16:46.999Z</time></trkpt><trkpt lat="43.170960019307564" lon="12.268069971758118"><ele>312.6</ele><time>2026-03-29T07:16:47.999Z</time></trkpt><trkpt lat="43.17101201113458" lon="12.267993065664644"><ele>313.8</ele><time>2026-03-29T07:16:48.999Z</time></trkpt><trkpt lat="43.17106201090133" lon="12.267910955384567"><ele>315.0</ele><time>2026-03-29T07:16:49.999Z</time></trkpt><trkpt lat="43.171098807210555" lon="12.267836488361244"><ele>315.5</ele><time>2026-03-29T07:16:50.999Z</time></trkpt><trkpt lat="43.171159520629004" lon="12.267682462669184"><ele>316.0</ele><time>2026-03-29T07:16:52.999Z</time></trkpt><trkpt lat="43.171215544842944" lon="12.2676267082612"><ele>316.5</ele><time>2026-03-29T07:16:53.999Z</time></trkpt><trkpt lat="43.171275871247296" lon="12.267564855166183"><ele>317.0</ele><time>2026-03-29T07:16:54.999Z</time></trkpt><trkpt lat="43.17131160410281" lon="12.267482702436237"><ele>317.5</ele><time>2026-03-29T07:16:55.999Z</time></trkpt><trkpt lat="43.17136907566347" lon="12.267400527101364"><ele>318.0</ele><time>2026-03-29T07:16:57.999Z</time></trkpt><trkpt lat="43.17151092808508" lon="12.267390920808003"><ele>319.4</ele><time>2026-03-29T07:16:59.999Z</time></trkpt><trkpt lat="43.171595151320275" lon="12.267367371794807"><ele>320.8</ele><time>2026-03-29T07:17:00.999Z</time></trkpt><trkpt lat="43.17169329414873" lon="12.267335915754733"><ele>322.2</ele><time>2026-03-29T07:17:01.999Z</time></trkpt><trkpt lat="43.17179617909512" lon="12.26727696070923"><ele>323.6</ele><time>2026-03-29T07:17:02.999Z</time></trkpt><trkpt lat="43.17187990778988" lon="12.26721958039616"><ele>325.0</ele><time>2026-03-29T07:17:03.999Z</time></trkpt><trkpt lat="43.17194296076113" lon="12.267163393722337"><ele>326.57142857142856</ele><time>2026-03-29T07:17:04.999Z</time></trkpt><trkpt lat="43.17199343991964" lon="12.267091267501316"><ele>328.14285714285717</ele><time>2026-03-29T07:17:05.999Z</time></trkpt><trkpt lat="43.17203817187218" lon="12.267012550789822"><ele>329.7142857142857</ele><time>2026-03-29T07:17:06.999Z</time></trkpt><trkpt lat="43.17205940176291" lon="12.26692881250426"><ele>331.2857142857143</ele><time>2026-03-29T07:17:07.999Z</time></trkpt><trkpt lat="43.17206725545344" lon="12.266827764070174"><ele>332.8571428571429</ele><time>2026-03-29T07:17:09Z</time></trkpt><trkpt lat="43.17205959495079" lon="12.266740624401985"><ele>334.42857142857144</ele><time>2026-03-29T07:17:10Z</time></trkpt><trkpt lat="43.17206754423698" lon="12.266638295812111"><ele>336.0</ele><time>2026-03-29T07:17:11Z</time></trkpt><trkpt lat="43.17211746320821" lon="12.266571424294348"><ele>336.0</ele><time>2026-03-29T07:17:12Z</time></trkpt><trkpt lat="43.17215433972624" lon="12.266481566477513"><ele>336.0</ele><time>2026-03-29T07:17:13Z</time></trkpt><trkpt lat="43.17219786063232" lon="12.266395766058958"><ele>336.0</ele><time>2026-03-29T07:17:14Z</time></trkpt><trkpt lat="43.17225097053005" lon="12.266293535068977"><ele>336.0</ele><time>2026-03-29T07:17:15Z</time></trkpt><trkpt lat="43.17231634593524" lon="12.266198354771396"><ele>336.0</ele><time>2026-03-29T07:17:16Z</time></trkpt><trkpt lat="43.17238044682832" lon="12.266142524574274"><ele>336.0</ele><time>2026-03-29T07:17:17Z</time></trkpt><trkpt lat="43.17241306435463" lon="12.266036359116356"><ele>338.20000000000005</ele><time>2026-03-29T07:17:18Z</time></trkpt><trkpt lat="43.17241852682118" lon="12.265918264656815"><ele>340.40000000000003</ele><time>2026-03-29T07:17:19Z</time></trkpt><trkpt lat="43.17235185506609" lon="12.265802071319039"><ele>342.6</ele><time>2026-03-29T07:17:20Z</time></trkpt><trkpt lat="43.17236535518062" lon="12.265688851199245"><ele>344.8</ele><time>2026-03-29T07:17:21Z</time></trkpt><trkpt lat="43.1723794244595" lon="12.265559587874488"><ele>347.0</ele><time>2026-03-29T07:17:22Z</time></trkpt><trkpt lat="43.17242346884337" lon="12.265438928731331"><ele>350.0</ele><time>2026-03-29T07:17:23Z</time></trkpt><trkpt lat="43.17246510526253" lon="12.265320611334108"><ele>353.0</ele><time>2026-03-29T07:17:24Z</time></trkpt><trkpt lat="43.17249317042241" lon="12.265220787844413"><ele>356.0</ele><time>2026-03-29T07:17:25Z</time></trkpt><trkpt lat="43.172474749325296" lon="12.265082139523502"><ele>359.0</ele><time>2026-03-29T07:17:26Z</time></trkpt><trkpt lat="43.17251692125525" lon="12.264939560025454"><ele>362.0</ele><time>2026-03-29T07:17:27Z</time></trkpt><trkpt lat="43.17254925363521" lon="12.264807944647902"><ele>365.20000000000005</ele><time>2026-03-29T07:17:28Z</time></trkpt><trkpt lat="43.17256862092886" lon="12.26469704524157"><ele>368.4</ele><time>2026-03-29T07:17:29Z</time></trkpt><trkpt lat="43.172621725076084" lon="12.264597900850601"><ele>371.6</ele><time>2026-03-29T07:17:30Z</time></trkpt><trkpt lat="43.172712807631264" lon="12.26449464114597"><ele>374.79999999999995</ele><time>2026-03-29T07:17:31Z</time></trkpt><trkpt lat="43.17274643196899" lon="12.264360607196965"><ele>378.0</ele><time>2026-03-29T07:17:32Z</time></trkpt><trkpt lat="43.172780523559474" lon="12.26425217944982"><ele>378.0</ele><time>2026-03-29T07:17:33Z</time></trkpt><trkpt lat="43.172851528063234" lon="12.264160985736213"><ele>378.0</ele><time>2026-03-29T07:17:34Z</time></trkpt><trkpt lat="43.172889395371" lon="12.26405010668147"><ele>378.0</ele><time>2026-03-29T07:17:35Z</time></trkpt><trkpt lat="43.172911541515546" lon="12.263946288833866"><ele>378.0</ele><time>2026-03-29T07:17:36Z</time></trkpt><trkpt lat="43.172933382110074" lon="12.263798904324702"><ele>378.0</ele><time>2026-03-29T07:17:38Z</time></trkpt><trkpt lat="43.17299299457064" lon="12.263719952117834"><ele>379.0</ele><time>2026-03-29T07:17:39Z</time></trkpt><trkpt lat="43.17306381939549" lon="12.26362851122827"><ele>380.0</ele><time>2026-03-29T07:17:40Z</time></trkpt><trkpt lat="43.17310229464713" lon="12.263513385350043"><ele>381.0</ele><time>2026-03-29T07:17:41Z</time></trkpt><trkpt lat="43.17315476696844" lon="12.26340289090456"><ele>382.0</ele><time>2026-03-29T07:17:42Z</time></trkpt><trkpt lat="43.17323501884335" lon="12.263338153529876"><ele>383.0</ele><time>2026-03-29T07:17:43Z</time></trkpt><trkpt lat="43.17331893164362" lon="12.263270488654706"><ele>383.0</ele><time>2026-03-29T07:17:44Z</time></trkpt><trkpt lat="43.173463475745486" lon="12.2632035882651"><ele>383.0</ele><time>2026-03-29T07:17:45Z</time></trkpt><trkpt lat="43.17359137348453" lon="12.263149894024007"><ele>383.0</ele><time>2026-03-29T07:17:46Z</time></trkpt><trkpt lat="43.17367840734703" lon="12.263096055519524"><ele>383.0</ele><time>2026-03-29T07:17:47Z</time></trkpt><trkpt lat="43.17375148550024" lon="12.263046382151181"><ele>385.6666666666667</ele><time>2026-03-29T07:17:48Z</time></trkpt><trkpt lat="43.17381447741105" lon="12.263006500263435"><ele>388.33333333333337</ele><time>2026-03-29T07:17:49.999Z</time></trkpt><trkpt lat="43.173896619535256" lon="12.262904808331077"><ele>391.0</ele><time>2026-03-29T07:17:51.999Z</time></trkpt><trkpt lat="43.173981310417254" lon="12.262867568396587"><ele>393.6666666666667</ele><time>2026-03-29T07:17:53.999Z</time></trkpt><trkpt lat="43.174042555973" lon="12.262813352929596"><ele>396.3333333333333</ele><time>2026-03-29T07:17:55.999Z</time></trkpt><trkpt lat="43.17411044760166" lon="12.26280567526366"><ele>399.0</ele><time>2026-03-29T07:17:59.999Z</time></trkpt><trkpt lat="43.17413954370583" lon="12.262890109863212"><ele>399.0</ele><time>2026-03-29T07:18:02.999Z</time></trkpt><trkpt lat="43.1741923534533" lon="12.262967169546833"><ele>399.0</ele><time>2026-03-29T07:18:04.999Z</time></trkpt><trkpt lat="43.174222200079974" lon="12.26304755856026"><ele>399.0</ele><time>2026-03-29T07:18:07.999Z</time></trkpt><trkpt lat="43.17439477508478" lon="12.263192787695361"><ele>399.0</ele><time>2026-03-29T07:18:08.999Z</time></trkpt><trkpt lat="43.174454740076925" lon="12.26333060195536"><ele>397.0</ele><time>2026-03-29T07:18:10.999Z</time></trkpt><trkpt lat="43.17453755745888" lon="12.263459745180606"><ele>395.0</ele><time>2026-03-29T07:18:12.999Z</time></trkpt><trkpt lat="43.17461714689016" lon="12.263457781307325"><ele>393.0</ele><time>2026-03-29T07:18:14.999Z</time></trkpt><trkpt lat="43.1746725002703" lon="12.263398519326335"><ele>391.0</ele><time>2026-03-29T07:18:15.999Z</time></trkpt><trkpt lat="43.174706706846145" lon="12.263243578315182"><ele>389.0</ele><time>2026-03-29T07:18:16.999Z</time></trkpt><trkpt lat="43.1747979229768" lon="12.263227082437488"><ele>390.66666666666663</ele><time>2026-03-29T07:18:18.999Z</time></trkpt><trkpt lat="43.174822618729635" lon="12.26311032395635"><ele>392.3333333333333</ele><time>2026-03-29T07:18:20.999Z</time></trkpt><trkpt lat="43.17487824332023" lon="12.26300751872738"><ele>394.0</ele><time>2026-03-29T07:18:22.999Z</time></trkpt><trkpt lat="43.174903702897964" lon="12.262923279491261"><ele>395.66666666666663</ele><time>2026-03-29T07:18:24.999Z</time></trkpt><trkpt lat="43.174953423549844" lon="12.262865813122726"><ele>397.3333333333333</ele><time>2026-03-29T07:18:28.999Z</time></trkpt><trkpt lat="43.175013662495786" lon="12.262811268522798"><ele>399.0</ele><time>2026-03-29T07:18:40.999Z</time></trkpt><trkpt lat="43.175034157169165" lon="12.262723314425104"><ele>401.6666666666667</ele><time>2026-03-29T07:18:46.999Z</time></trkpt><trkpt lat="43.17503641858184" lon="12.262604146021852"><ele>404.33333333333337</ele><time>2026-03-29T07:19:16Z</time></trkpt><trkpt lat="43.175078953778616" lon="12.262515387402411"><ele>407.0</ele><time>2026-03-29T07:19:18Z</time></trkpt><trkpt lat="43.17515873156242" lon="12.2625395769351"><ele>409.6666666666667</ele><time>2026-03-29T07:19:21Z</time></trkpt><trkpt lat="43.17523867735038" lon="12.262546117679209"><ele>412.33333333333337</ele><time>2026-03-29T07:19:24Z</time></trkpt><trkpt lat="43.17531020638059" lon="12.262562298378851"><ele>415.0</ele><time>2026-03-29T07:19:26Z</time></trkpt><trkpt lat="43.17538803079387" lon="12.262573382269126"><ele>415.00000000000006</ele><time>2026-03-29T07:19:28Z</time></trkpt><trkpt lat="43.175458421315184" lon="12.262601220397459"><ele>415.0</ele><time>2026-03-29T07:19:30Z</time></trkpt><trkpt lat="43.175548788057554" lon="12.262607677776636"><ele>415.0</ele><time>2026-03-29T07:19:32Z</time></trkpt><trkpt lat="43.175611402107236" lon="12.262618504875675"><ele>415.0</ele><time>2026-03-29T07:19:34Z</time></trkpt><trkpt lat="43.1756701855404" lon="12.262569070531976"><ele>415.00000000000006</ele><time>2026-03-29T07:19:38Z</time></trkpt><trkpt lat="43.17574629095878" lon="12.26255823049326"><ele>415.0</ele><time>2026-03-29T07:19:44Z</time></trkpt><trkpt lat="43.175830800937064" lon="12.262521665040952"><ele>418.33333333333337</ele><time>2026-03-29T07:19:47Z</time></trkpt><trkpt lat="43.175899634542574" lon="12.262469742519066"><ele>421.6666666666667</ele><time>2026-03-29T07:19:49.999Z</time></trkpt><trkpt lat="43.175968881549" lon="12.262428018328128"><ele>425.0</ele><time>2026-03-29T07:19:53.999Z</time></trkpt><trkpt lat="43.17606073039172" lon="12.262390749660254"><ele>428.33333333333337</ele><time>2026-03-29T07:20:13.999Z</time></trkpt><trkpt lat="43.17614443351797" lon="12.262370401717023"><ele>431.6666666666667</ele><time>2026-03-29T07:20:15.999Z</time></trkpt><trkpt lat="43.17621769345809" lon="12.262354565626795"><ele>435.0</ele><time>2026-03-29T07:20:17.999Z</time></trkpt><trkpt lat="43.17630152719721" lon="12.262292103065707"><ele>435.1666666666667</ele><time>2026-03-29T07:20:20.999Z</time></trkpt><trkpt lat="43.176372952246375" lon="12.262262503862845"><ele>435.33333333333337</ele><time>2026-03-29T07:20:22.999Z</time></trkpt><trkpt lat="43.17649201482029" lon="12.26225577158024"><ele>435.5</ele><time>2026-03-29T07:20:24.999Z</time></trkpt><trkpt lat="43.176554999439475" lon="12.262265474158136"><ele>435.6666666666667</ele><time>2026-03-29T07:20:25.999Z</time></trkpt><trkpt lat="43.176618382970716" lon="12.262271166265066"><ele>435.83333333333337</ele><time>2026-03-29T07:20:26.999Z</time></trkpt><trkpt lat="43.17672163698771" lon="12.26228982687177"><ele>436.0</ele><time>2026-03-29T07:20:28.999Z</time></trkpt><trkpt lat="43.17677979922693" lon="12.262241910495995"><ele>441.0</ele><time>2026-03-29T07:20:31.999Z</time></trkpt><trkpt lat="43.17683892837846" lon="12.26216927953217"><ele>446.0</ele><time>2026-03-29T07:20:34.999Z</time></trkpt><trkpt lat="43.17688506465169" lon="12.261921266029724"><ele>451.0</ele><time>2026-03-29T07:20:37.999Z</time></trkpt><trkpt lat="43.176870213383424" lon="12.261774571618483"><ele>456.0</ele><time>2026-03-29T07:20:39.999Z</time></trkpt><trkpt lat="43.17686125417678" lon="12.261627315424604"><ele>456.0</ele><time>2026-03-29T07:20:41.999Z</time></trkpt><trkpt lat="43.176937183573884" lon="12.261576668760616"><ele>456.0</ele><time>2026-03-29T07:20:45.999Z</time></trkpt><trkpt lat="43.17700886179659" lon="12.261583955930966"><ele>456.0</ele><time>2026-03-29T07:20:47.999Z</time></trkpt><trkpt lat="43.17708995959898" lon="12.261574485735743"><ele>456.0</ele><time>2026-03-29T07:20:49.999Z</time></trkpt><trkpt lat="43.1772109490127" lon="12.261662424858272"><ele>456.0</ele><time>2026-03-29T07:20:51.999Z</time></trkpt><trkpt lat="43.17727056433445" lon="12.261696764565727"><ele>456.0</ele><time>2026-03-29T07:20:52.999Z</time></trkpt><trkpt lat="43.17736545455812" lon="12.261739849835664"><ele>455.20000000000005</ele><time>2026-03-29T07:20:54.999Z</time></trkpt><trkpt lat="43.17744592983283" lon="12.26183095403717"><ele>454.40000000000003</ele><time>2026-03-29T07:20:56.999Z</time></trkpt><trkpt lat="43.17754902218474" lon="12.26191382526702"><ele>453.6</ele><time>2026-03-29T07:20:58.999Z</time></trkpt><trkpt lat="43.177612623415186" lon="12.261956251503529"><ele>452.8</ele><time>2026-03-29T07:20:59.999Z</time></trkpt><trkpt lat="43.17767219212635" lon="12.262002895458"><ele>452.0</ele><time>2026-03-29T07:21:00.999Z</time></trkpt><trkpt lat="43.17776302492537" lon="12.262077489125325"><ele>452.0</ele><time>2026-03-29T07:21:02.999Z</time></trkpt><trkpt lat="43.17785428841934" lon="12.262116030722355"><ele>452.00000000000006</ele><time>2026-03-29T07:21:04.999Z</time></trkpt><trkpt lat="43.177958992829424" lon="12.262133295065812"><ele>452.00000000000006</ele><time>2026-03-29T07:21:06.999Z</time></trkpt><trkpt lat="43.17804915395976" lon="12.262157057820035"><ele>452.0</ele><time>2026-03-29T07:21:08.999Z</time></trkpt><trkpt lat="43.17814781986961" lon="12.262185663558101"><ele>452.0</ele><time>2026-03-29T07:21:10.999Z</time></trkpt><trkpt lat="43.17821570859423" lon="12.26219130536173"><ele>450.40000000000003</ele><time>2026-03-29T07:21:11.999Z</time></trkpt><trkpt lat="43.17827921123295" lon="12.262198125106949"><ele>448.80000000000007</ele><time>2026-03-29T07:21:12.999Z</time></trkpt><trkpt lat="43.1784099554866" lon="12.262210860533898"><ele>447.2</ele><time>2026-03-29T07:21:14.999Z</time></trkpt><trkpt lat="43.178531570077894" lon="12.26221671029156"><ele>445.6</ele><time>2026-03-29T07:21:16.999Z</time></trkpt><trkpt lat="43.178624577892386" lon="12.262238860701277"><ele>444.0</ele><time>2026-03-29T07:21:18.999Z</time></trkpt><trkpt lat="43.17870996576765" lon="12.262249229136307"><ele>444.0</ele><time>2026-03-29T07:21:23Z</time></trkpt><trkpt lat="43.17880894947381" lon="12.262280945737311"><ele>444.0</ele><time>2026-03-29T07:21:25Z</time></trkpt><trkpt lat="43.17887982556492" lon="12.262311510631605"><ele>444.0</ele><time>2026-03-29T07:21:26Z</time></trkpt><trkpt lat="43.17894184575763" lon="12.26234366182026"><ele>444.0</ele><time>2026-03-29T07:21:27Z</time></trkpt><trkpt lat="43.17900374878654" lon="12.262379979199029"><ele>444.0</ele><time>2026-03-29T07:21:28Z</time></trkpt><trkpt lat="43.179079292194416" lon="12.262412921731888"><ele>444.0</ele><time>2026-03-29T07:21:29Z</time></trkpt><trkpt lat="43.17915714854671" lon="12.262449923556725"><ele>444.4</ele><time>2026-03-29T07:21:30Z</time></trkpt><trkpt lat="43.17922586925708" lon="12.262477754450474"><ele>444.79999999999995</ele><time>2026-03-29T07:21:31Z</time></trkpt><trkpt lat="43.17934936260187" lon="12.26252014665796"><ele>445.20000000000005</ele><time>2026-03-29T07:21:33Z</time></trkpt><trkpt lat="43.179462829269156" lon="12.26257105414615"><ele>445.6</ele><time>2026-03-29T07:21:35Z</time></trkpt><trkpt lat="43.179536235937476" lon="12.26260271638808"><ele>446.0</ele><time>2026-03-29T07:21:36Z</time></trkpt><trkpt lat="43.17961052899461" lon="12.262637569513274"><ele>445.99999999999994</ele><time>2026-03-29T07:21:37Z</time></trkpt><trkpt lat="43.17969486335661" lon="12.262685962373927"><ele>446.0</ele><time>2026-03-29T07:21:38Z</time></trkpt><trkpt lat="43.1797667278475" lon="12.262755707737103"><ele>446.0</ele><time>2026-03-29T07:21:39Z</time></trkpt><trkpt lat="43.17983018819559" lon="12.262835945237498"><ele>446.0</ele><time>2026-03-29T07:21:40Z</time></trkpt><trkpt lat="43.179884882370885" lon="12.262931992847845"><ele>445.99999999999994</ele><time>2026-03-29T07:21:41Z</time></trkpt><trkpt lat="43.17994277502438" lon="12.263034906233022"><ele>446.0</ele><time>2026-03-29T07:21:42Z</time></trkpt><trkpt lat="43.180009942101535" lon="12.263133266071666"><ele>445.8</ele><time>2026-03-29T07:21:43Z</time></trkpt><trkpt lat="43.18007805460583" lon="12.263228257468155"><ele>445.6</ele><time>2026-03-29T07:21:44Z</time></trkpt><trkpt lat="43.18014845718203" lon="12.263316189542868"><ele>445.4</ele><time>2026-03-29T07:21:45Z</time></trkpt><trkpt lat="43.180228903231686" lon="12.26339644776081"><ele>445.2</ele><time>2026-03-29T07:21:45.999Z</time></trkpt><trkpt lat="43.18030714733256" lon="12.263468512395246"><ele>445.0</ele><time>2026-03-29T07:21:46.999Z</time></trkpt><trkpt lat="43.180385529854426" lon="12.263525253615052"><ele>445.00000000000006</ele><time>2026-03-29T07:21:47.999Z</time></trkpt><trkpt lat="43.18045302352694" lon="12.26357092086648"><ele>445.0</ele><time>2026-03-29T07:21:48.999Z</time></trkpt><trkpt lat="43.18052352123307" lon="12.263640432791071"><ele>445.0</ele><time>2026-03-29T07:21:49.999Z</time></trkpt><trkpt lat="43.18061060800058" lon="12.263666891640755"><ele>445.0</ele><time>2026-03-29T07:21:50.999Z</time></trkpt><trkpt lat="43.18068264116343" lon="12.263647588862023"><ele>445.00000000000006</ele><time>2026-03-29T07:21:51.999Z</time></trkpt><trkpt lat="43.18077599433096" lon="12.263644651647299"><ele>445.0</ele><time>2026-03-29T07:21:54.999Z</time></trkpt><trkpt lat="43.18087117591659" lon="12.263493708973416"><ele>446.1666666666667</ele><time>2026-03-29T07:21:56.999Z</time></trkpt><trkpt lat="43.18094288592824" lon="12.26349709711394"><ele>447.33333333333337</ele><time>2026-03-29T07:21:57.999Z</time></trkpt><trkpt lat="43.181008717201216" lon="12.263498942508612"><ele>448.5</ele><time>2026-03-29T07:21:58.999Z</time></trkpt><trkpt lat="43.18108430216145" lon="12.263486315309613"><ele>449.66666666666663</ele><time>2026-03-29T07:21:59.999Z</time></trkpt><trkpt lat="43.1811721463358" lon="12.263470738285228"><ele>450.8333333333333</ele><time>2026-03-29T07:22:00.999Z</time></trkpt><trkpt lat="43.181255119848174" lon="12.263431561405897"><ele>452.0</ele><time>2026-03-29T07:22:01.999Z</time></trkpt><trkpt lat="43.18134280085585" lon="12.26340924615847"><ele>451.99999999999994</ele><time>2026-03-29T07:22:02.999Z</time></trkpt><trkpt lat="43.18142754731741" lon="12.263380006739155"><ele>452.0</ele><time>2026-03-29T07:22:03.999Z</time></trkpt><trkpt lat="43.18150275683516" lon="12.263383418403723"><ele>452.0</ele><time>2026-03-29T07:22:04.999Z</time></trkpt><trkpt lat="43.18158598898321" lon="12.263367541826899"><ele>452.0</ele><time>2026-03-29T07:22:05.999Z</time></trkpt><trkpt lat="43.18167098950952" lon="12.263351411111724"><ele>451.99999999999994</ele><time>2026-03-29T07:22:06.999Z</time></trkpt><trkpt lat="43.18176596573147" lon="12.263336000186763"><ele>452.0</ele><time>2026-03-29T07:22:07.999Z</time></trkpt><trkpt lat="43.18187403468204" lon="12.263322781110125"><ele>449.20000000000005</ele><time>2026-03-29T07:22:08.999Z</time></trkpt><trkpt lat="43.18198739916529" lon="12.263319940590234"><ele>446.40000000000003</ele><time>2026-03-29T07:22:09.999Z</time></trkpt><trkpt lat="43.18210208257889" lon="12.263327779064547"><ele>443.59999999999997</ele><time>2026-03-29T07:22:10.999Z</time></trkpt><trkpt lat="43.18220820677089" lon="12.263324080716902"><ele>440.79999999999995</ele><time>2026-03-29T07:22:11.999Z</time></trkpt><trkpt lat="43.182320064598045" lon="12.263339824060932"><ele>438.0</ele><time>2026-03-29T07:22:12.999Z</time></trkpt><trkpt lat="43.18243064312575" lon="12.263356022969713"><ele>433.5</ele><time>2026-03-29T07:22:13.999Z</time></trkpt><trkpt lat="43.18254756187855" lon="12.263401650624887"><ele>429.0</ele><time>2026-03-29T07:22:14.999Z</time></trkpt><trkpt lat="43.18267017450616" lon="12.263448330336086"><ele>424.5</ele><time>2026-03-29T07:22:15.999Z</time></trkpt><trkpt lat="43.182792220393566" lon="12.263497840228569"><ele>420.0</ele><time>2026-03-29T07:22:16.999Z</time></trkpt><trkpt lat="43.18290532349172" lon="12.263552778157308"><ele>420.0</ele><time>2026-03-29T07:22:17.999Z</time></trkpt><trkpt lat="43.183016143578826" lon="12.263602502801874"><ele>420.0</ele><time>2026-03-29T07:22:18.999Z</time></trkpt><trkpt lat="43.183133321175625" lon="12.263639689645396"><ele>420.0</ele><time>2026-03-29T07:22:19.999Z</time></trkpt><trkpt lat="43.183245088361105" lon="12.263655993682551"><ele>420.0</ele><time>2026-03-29T07:22:20.999Z</time></trkpt><trkpt lat="43.183335923536795" lon="12.263608549657668"><ele>420.0</ele><time>2026-03-29T07:22:21.999Z</time></trkpt><trkpt lat="43.18338782995338" lon="12.263510605660507"><ele>417.8</ele><time>2026-03-29T07:22:22.999Z</time></trkpt><trkpt lat="43.18344685460884" lon="12.263375488321087"><ele>415.6</ele><time>2026-03-29T07:22:23.999Z</time></trkpt><trkpt lat="43.18353150851895" lon="12.263248072970383"><ele>413.4</ele><time>2026-03-29T07:22:24.999Z</time></trkpt><trkpt lat="43.18359655393786" lon="12.26314316802222"><ele>411.2</ele><time>2026-03-29T07:22:25.999Z</time></trkpt><trkpt lat="43.183678673311405" lon="12.263085297608031"><ele>409.0</ele><time>2026-03-29T07:22:26.999Z</time></trkpt><trkpt lat="43.183766356837296" lon="12.263033218649884"><ele>404.4</ele><time>2026-03-29T07:22:27.999Z</time></trkpt><trkpt lat="43.18385480635131" lon="12.262991612310659"><ele>399.79999999999995</ele><time>2026-03-29T07:22:28.999Z</time></trkpt><trkpt lat="43.183951073492636" lon="12.26296590915658"><ele>395.20000000000005</ele><time>2026-03-29T07:22:29.999Z</time></trkpt><trkpt lat="43.184040750216845" lon="12.262963267595586"><ele>390.6</ele><time>2026-03-29T07:22:30.999Z</time></trkpt><trkpt lat="43.18413237451813" lon="12.262947288027773"><ele>386.0</ele><time>2026-03-29T07:22:31.999Z</time></trkpt><trkpt lat="43.18421883930454" lon="12.26295525360342"><ele>385.99999999999994</ele><time>2026-03-29T07:22:32.999Z</time></trkpt><trkpt lat="43.18431972851409" lon="12.262954807859062"><ele>386.0</ele><time>2026-03-29T07:22:33.999Z</time></trkpt><trkpt lat="43.18440014534076" lon="12.262944440032678"><ele>386.0</ele><time>2026-03-29T07:22:34.999Z</time></trkpt><trkpt lat="43.18447975028731" lon="12.262901636981992"><ele>386.0</ele><time>2026-03-29T07:22:35.999Z</time></trkpt><trkpt lat="43.18455573019411" lon="12.26285804431583"><ele>385.99999999999994</ele><time>2026-03-29T07:22:36.999Z</time></trkpt><trkpt lat="43.184635990672874" lon="12.262808847026108"><ele>386.0</ele><time>2026-03-29T07:22:37.999Z</time></trkpt><trkpt lat="43.18469682965003" lon="12.262756906935557"><ele>386.0</ele><time>2026-03-29T07:22:38.999Z</time></trkpt><trkpt lat="43.184756851483684" lon="12.262646627312108"><ele>386.0</ele><time>2026-03-29T07:22:40.999Z</time></trkpt><trkpt lat="43.18477957074595" lon="12.26255075612904"><ele>386.0</ele><time>2026-03-29T07:22:42.999Z</time></trkpt><trkpt lat="43.18474673074418" lon="12.26268519927402"><ele>386.0</ele><time>2026-03-29T07:23:47Z</time></trkpt><trkpt lat="43.18467568539355" lon="12.262758616907028"><ele>386.0</ele><time>2026-03-29T07:23:48Z</time></trkpt><trkpt lat="43.184591652252024" lon="12.262820229841862"><ele>385.99999999999994</ele><time>2026-03-29T07:23:49Z</time></trkpt><trkpt lat="43.18450270487517" lon="12.26283812430675"><ele>386.0</ele><time>2026-03-29T07:23:50Z</time></trkpt><trkpt lat="43.18444517410332" lon="12.262881253238296"><ele>386.0</ele><time>2026-03-29T07:23:51Z</time></trkpt><trkpt lat="43.18437122289788" lon="12.262907120750329"><ele>386.0</ele><time>2026-03-29T07:23:55Z</time></trkpt><trkpt lat="43.1844033572735" lon="12.263005002804071"><ele>385.99999999999994</ele><time>2026-03-29T07:23:59Z</time></trkpt><trkpt lat="43.18450690786074" lon="12.263015024124202"><ele>386.0</ele><time>2026-03-29T07:25:51Z</time></trkpt><trkpt lat="43.18461819067074" lon="12.263110250939928"><ele>388.99999999999994</ele><time>2026-03-29T07:25:53Z</time></trkpt><trkpt lat="43.184706161307375" lon="12.263192074537956"><ele>392.0</ele><time>2026-03-29T07:25:54Z</time></trkpt><trkpt lat="43.18477890471107" lon="12.263220730526115"><ele>395.0</ele><time>2026-03-29T07:25:55Z</time></trkpt><trkpt lat="43.18485444662744" lon="12.263209628091877"><ele>398.0</ele><time>2026-03-29T07:25:56Z</time></trkpt><trkpt lat="43.18493181310658" lon="12.263182762377959"><ele>400.99999999999994</ele><time>2026-03-29T07:25:57Z</time></trkpt><trkpt lat="43.18503705426726" lon="12.263228590852918"><ele>404.0</ele><time>2026-03-29T07:25:59Z</time></trkpt><trkpt lat="43.18510125300282" lon="12.26323852175762"><ele>404.0</ele><time>2026-03-29T07:26:00Z</time></trkpt><trkpt lat="43.18518848133103" lon="12.263243881796797"><ele>404.0</ele><time>2026-03-29T07:26:01Z</time></trkpt><trkpt lat="43.18525815253175" lon="12.263303170292428"><ele>404.0</ele><time>2026-03-29T07:26:02Z</time></trkpt><trkpt lat="43.185344925352055" lon="12.263403094098505"><ele>404.0</ele><time>2026-03-29T07:26:03Z</time></trkpt><trkpt lat="43.1854472634599" lon="12.26349414466573"><ele>404.0</ele><time>2026-03-29T07:26:04Z</time></trkpt><trkpt lat="43.18554409655904" lon="12.263589425083019"><ele>403.99999999999994</ele><time>2026-03-29T07:26:05Z</time></trkpt><trkpt lat="43.18560563856997" lon="12.263675708055468"><ele>404.0</ele><time>2026-03-29T07:26:06Z</time></trkpt><trkpt lat="43.1856424365465" lon="12.26374635318376"><ele>404.0</ele><time>2026-03-29T07:26:07Z</time></trkpt><trkpt lat="43.185642535641136" lon="12.263853656482338"><ele>404.0</ele><time>2026-03-29T07:26:08Z</time></trkpt><trkpt lat="43.185637267746" lon="12.263985618325053"><ele>403.99999999999994</ele><time>2026-03-29T07:26:09Z</time></trkpt><trkpt lat="43.185599110040876" lon="12.264132447153605"><ele>404.0</ele><time>2026-03-29T07:26:10Z</time></trkpt><trkpt lat="43.1855763937044" lon="12.264271706119077"><ele>404.2</ele><time>2026-03-29T07:26:11Z</time></trkpt><trkpt lat="43.185598882550764" lon="12.264406051886"><ele>404.4</ele><time>2026-03-29T07:26:13Z</time></trkpt><trkpt lat="43.18571115099672" lon="12.264386695365266"><ele>404.6</ele><time>2026-03-29T07:26:15Z</time></trkpt><trkpt lat="43.185786954199116" lon="12.264328268702032"><ele>404.8</ele><time>2026-03-29T07:26:16Z</time></trkpt><trkpt lat="43.18585647835386" lon="12.264301756299577"><ele>405.0</ele><time>2026-03-29T07:26:17Z</time></trkpt><trkpt lat="43.185974112603915" lon="12.264304865848503"><ele>405.0</ele><time>2026-03-29T07:26:19Z</time></trkpt><trkpt lat="43.18602919924212" lon="12.264372557379923"><ele>405.0</ele><time>2026-03-29T07:26:20Z</time></trkpt><trkpt lat="43.186117571556444" lon="12.264423673573432"><ele>405.0</ele><time>2026-03-29T07:26:22Z</time></trkpt><trkpt lat="43.18620303780117" lon="12.264527902710423"><ele>405.0</ele><time>2026-03-29T07:26:24Z</time></trkpt><trkpt lat="43.18636344595372" lon="12.264668092924701"><ele>405.0</ele><time>2026-03-29T07:26:26Z</time></trkpt><trkpt lat="43.18646622101269" lon="12.264764456364642"><ele>405.0</ele><time>2026-03-29T07:26:27Z</time></trkpt><trkpt lat="43.18653252490163" lon="12.264832039363695"><ele>405.0</ele><time>2026-03-29T07:26:28Z</time></trkpt><trkpt lat="43.186572346661094" lon="12.264915024785745"><ele>405.0</ele><time>2026-03-29T07:26:29Z</time></trkpt><trkpt lat="43.186604021011206" lon="12.265012016610653"><ele>405.0</ele><time>2026-03-29T07:26:30Z</time></trkpt><trkpt lat="43.18665226086869" lon="12.265093549323808"><ele>405.0</ele><time>2026-03-29T07:26:31Z</time></trkpt><trkpt lat="43.18671190592704" lon="12.265169017556314"><ele>406.3333333333333</ele><time>2026-03-29T07:26:32Z</time></trkpt><trkpt lat="43.186779614505376" lon="12.265258217373956"><ele>407.66666666666663</ele><time>2026-03-29T07:26:33Z</time></trkpt><trkpt lat="43.18683202448818" lon="12.265352736700082"><ele>409.0</ele><time>2026-03-29T07:26:34Z</time></trkpt><trkpt lat="43.18685742427931" lon="12.265445389573975"><ele>410.3333333333333</ele><time>2026-03-29T07:26:35Z</time></trkpt><trkpt lat="43.186859017713424" lon="12.265547459923575"><ele>411.66666666666663</ele><time>2026-03-29T07:26:36Z</time></trkpt><trkpt lat="43.1868808869124" lon="12.26569443981036"><ele>413.0</ele><time>2026-03-29T07:26:38Z</time></trkpt><trkpt lat="43.18697506499703" lon="12.26564902306272"><ele>413.2</ele><time>2026-03-29T07:26:40Z</time></trkpt><trkpt lat="43.18704148481909" lon="12.2656219784232"><ele>413.4</ele><time>2026-03-29T07:26:42Z</time></trkpt><trkpt lat="43.187138746000635" lon="12.265683630474834"><ele>413.59999999999997</ele><time>2026-03-29T07:26:46Z</time></trkpt><trkpt lat="43.18727886422852" lon="12.265746487211636"><ele>413.79999999999995</ele><time>2026-03-29T07:26:48Z</time></trkpt><trkpt lat="43.18736074366326" lon="12.265789542064214"><ele>414.0</ele><time>2026-03-29T07:26:49Z</time></trkpt><trkpt lat="43.18745528533074" lon="12.265841628231927"><ele>414.0</ele><time>2026-03-29T07:26:50Z</time></trkpt><trkpt lat="43.18755501237132" lon="12.265882882485224"><ele>414.0</ele><time>2026-03-29T07:26:51Z</time></trkpt><trkpt lat="43.187648800539165" lon="12.265900131058217"><ele>414.0</ele><time>2026-03-29T07:26:52Z</time></trkpt><trkpt lat="43.187737792136915" lon="12.265936467901957"><ele>414.0</ele><time>2026-03-29T07:26:53Z</time></trkpt><trkpt lat="43.18783588244525" lon="12.265963545401988"><ele>414.0</ele><time>2026-03-29T07:26:54Z</time></trkpt><trkpt lat="43.18792427720064" lon="12.265977060743392"><ele>414.0</ele><time>2026-03-29T07:26:55Z</time></trkpt><trkpt lat="43.18799195944587" lon="12.265972152930956"><ele>414.0</ele><time>2026-03-29T07:26:56Z</time></trkpt><trkpt lat="43.18806863704401" lon="12.265839611158894"><ele>414.0</ele><time>2026-03-29T07:26:58Z</time></trkpt><trkpt lat="43.1880677383597" lon="12.26572718555695"><ele>414.0</ele><time>2026-03-29T07:26:59Z</time></trkpt><trkpt lat="43.18805696747866" lon="12.265605863975573"><ele>414.0</ele><time>2026-03-29T07:27:00Z</time></trkpt><trkpt lat="43.188056619908984" lon="12.265495805203159"><ele>414.0</ele><time>2026-03-29T07:27:01Z</time></trkpt><trkpt lat="43.18803238397156" lon="12.265350349499393"><ele>412.1666666666667</ele><time>2026-03-29T07:27:03Z</time></trkpt><trkpt lat="43.18799439303877" lon="12.26526499797894"><ele>410.33333333333337</ele><time>2026-03-29T07:27:04Z</time></trkpt><trkpt lat="43.18797908146107" lon="12.26517944486042"><ele>408.5</ele><time>2026-03-29T07:27:05Z</time></trkpt><trkpt lat="43.18799935438539" lon="12.26504300523937"><ele>406.6666666666667</ele><time>2026-03-29T07:27:07Z</time></trkpt><trkpt lat="43.18796714212317" lon="12.26490665417766"><ele>404.83333333333337</ele><time>2026-03-29T07:27:09Z</time></trkpt><trkpt lat="43.187957567485704" lon="12.26480421741272"><ele>403.0</ele><time>2026-03-29T07:27:10Z</time></trkpt><trkpt lat="43.18794204095055" lon="12.26470189880374"><ele>402.33333333333337</ele><time>2026-03-29T07:27:11Z</time></trkpt><trkpt lat="43.18792387283163" lon="12.264610291000501"><ele>401.6666666666667</ele><time>2026-03-29T07:27:12Z</time></trkpt><trkpt lat="43.18789464985407" lon="12.264521509884155"><ele>401.0</ele><time>2026-03-29T07:27:13Z</time></trkpt><trkpt lat="43.18790028595331" lon="12.264385751110508"><ele>400.33333333333337</ele><time>2026-03-29T07:27:15Z</time></trkpt><trkpt lat="43.18793194929726" lon="12.264286329555674"><ele>399.6666666666667</ele><time>2026-03-29T07:27:17Z</time></trkpt><trkpt lat="43.187928892979315" lon="12.26412645095746"><ele>399.0</ele><time>2026-03-29T07:27:21Z</time></trkpt><trkpt lat="43.18795617893469" lon="12.264028863091859"><ele>399.0</ele><time>2026-03-29T07:27:22Z</time></trkpt><trkpt lat="43.18799959922552" lon="12.263950172311027"><ele>399.0</ele><time>2026-03-29T07:27:23Z</time></trkpt><trkpt lat="43.18805804211892" lon="12.263911057656246"><ele>399.0</ele><time>2026-03-29T07:27:24Z</time></trkpt><trkpt lat="43.188170157917234" lon="12.26383507451207"><ele>399.0</ele><time>2026-03-29T07:27:26Z</time></trkpt><trkpt lat="43.18823930168574" lon="12.26378689880768"><ele>399.0</ele><time>2026-03-29T07:27:27Z</time></trkpt><trkpt lat="43.188322906300115" lon="12.263765502233134"><ele>399.0</ele><time>2026-03-29T07:27:28Z</time></trkpt><trkpt lat="43.188407741105024" lon="12.263756569441139"><ele>399.6666666666667</ele><time>2026-03-29T07:27:29Z</time></trkpt><trkpt lat="43.18848364715454" lon="12.263770685706183"><ele>400.33333333333337</ele><time>2026-03-29T07:27:30Z</time></trkpt><trkpt lat="43.18856295433039" lon="12.263787190920558"><ele>401.0</ele><time>2026-03-29T07:27:32Z</time></trkpt><trkpt lat="43.188650173058434" lon="12.263785638440355"><ele>401.6666666666667</ele><time>2026-03-29T07:27:35Z</time></trkpt><trkpt lat="43.18871645937938" lon="12.263770272530536"><ele>402.33333333333337</ele><time>2026-03-29T07:27:38Z</time></trkpt><trkpt lat="43.188816484238615" lon="12.263795869946138"><ele>403.0</ele><time>2026-03-29T07:27:40Z</time></trkpt><trkpt lat="43.1888855663232" lon="12.263784062012732"><ele>403.0</ele><time>2026-03-29T07:27:42Z</time></trkpt><trkpt lat="43.1889491908422" lon="12.263784540898953"><ele>403.0</ele><time>2026-03-29T07:27:44Z</time></trkpt><trkpt lat="43.18903894516592" lon="12.263773304779821"><ele>403.0</ele><time>2026-03-29T07:27:46Z</time></trkpt><trkpt lat="43.189136405539166" lon="12.263744297795252"><ele>403.0</ele><time>2026-03-29T07:27:48Z</time></trkpt><trkpt lat="43.189265626284985" lon="12.263719864357695"><ele>403.0</ele><time>2026-03-29T07:27:50Z</time></trkpt><trkpt lat="43.189337924024116" lon="12.263724515494758"><ele>404.00000000000006</ele><time>2026-03-29T07:27:51Z</time></trkpt><trkpt lat="43.18943771219712" lon="12.263770764609415"><ele>405.0</ele><time>2026-03-29T07:27:53Z</time></trkpt><trkpt lat="43.18950472047645" lon="12.263802519915517"><ele>406.0</ele><time>2026-03-29T07:27:54Z</time></trkpt><trkpt lat="43.18958263117623" lon="12.263824788051023"><ele>407.0</ele><time>2026-03-29T07:27:55Z</time></trkpt><trkpt lat="43.18965081839892" lon="12.263840857647669"><ele>408.00000000000006</ele><time>2026-03-29T07:27:56Z</time></trkpt><trkpt lat="43.189714502591166" lon="12.263877259781175"><ele>409.0</ele><time>2026-03-29T07:27:57Z</time></trkpt><trkpt lat="43.1897830013761" lon="12.263887118502296"><ele>410.75</ele><time>2026-03-29T07:27:58Z</time></trkpt><trkpt lat="43.18990588096698" lon="12.26386835812251"><ele>412.5</ele><time>2026-03-29T07:28:00Z</time></trkpt><trkpt lat="43.19001637862271" lon="12.263845992704491"><ele>414.25</ele><time>2026-03-29T07:28:02Z</time></trkpt><trkpt lat="43.19013993719627" lon="12.263876451422023"><ele>416.0</ele><time>2026-03-29T07:28:04Z</time></trkpt><trkpt lat="43.19022677323538" lon="12.263948623094596"><ele>420.3333333333333</ele><time>2026-03-29T07:28:06Z</time></trkpt><trkpt lat="43.19028073486647" lon="12.264028712515325"><ele>424.66666666666663</ele><time>2026-03-29T07:28:08Z</time></trkpt><trkpt lat="43.190335443525214" lon="12.264123091676524"><ele>429.0</ele><time>2026-03-29T07:28:10Z</time></trkpt><trkpt lat="43.19040918173564" lon="12.264222834024004"><ele>433.33333333333337</ele><time>2026-03-29T07:28:12Z</time></trkpt><trkpt lat="43.19047490902234" lon="12.264287243999966"><ele>437.6666666666667</ele><time>2026-03-29T07:28:14Z</time></trkpt><trkpt lat="43.190558759578586" lon="12.264354595960418"><ele>442.0</ele><time>2026-03-29T07:28:16Z</time></trkpt><trkpt lat="43.19062440218809" lon="12.264471287544989"><ele>441.40000000000003</ele><time>2026-03-29T07:28:18Z</time></trkpt><trkpt lat="43.190686830584255" lon="12.264608442923999"><ele>440.80000000000007</ele><time>2026-03-29T07:28:20Z</time></trkpt><trkpt lat="43.19071990578991" lon="12.264737706380428"><ele>440.2</ele><time>2026-03-29T07:28:22Z</time></trkpt><trkpt lat="43.190729319564056" lon="12.264888841739184"><ele>439.6</ele><time>2026-03-29T07:28:24Z</time></trkpt><trkpt lat="43.19074017252107" lon="12.265016467147847"><ele>439.0</ele><time>2026-03-29T07:28:26Z</time></trkpt><trkpt lat="43.19066609994227" lon="12.265075246554861"><ele>444.0</ele><time>2026-03-29T07:28:28Z</time></trkpt><trkpt lat="43.19059539023648" lon="12.264962994850523"><ele>449.0</ele><time>2026-03-29T07:28:30Z</time></trkpt><trkpt lat="43.19049289586164" lon="12.264877820978048"><ele>454.0</ele><time>2026-03-29T07:28:32Z</time></trkpt><trkpt lat="43.19041946438357" lon="12.264844954171899"><ele>459.0</ele><time>2026-03-29T07:28:33Z</time></trkpt><trkpt lat="43.19034320949948" lon="12.264859126430043"><ele>464.0</ele><time>2026-03-29T07:28:34Z</time></trkpt><trkpt lat="43.19025644682282" lon="12.264853580432629"><ele>463.99999999999994</ele><time>2026-03-29T07:28:35Z</time></trkpt><trkpt lat="43.1901686974295" lon="12.264791109979214"><ele>464.0</ele><time>2026-03-29T07:28:37Z</time></trkpt><trkpt lat="43.190100261456834" lon="12.264810857308115"><ele>464.0</ele><time>2026-03-29T07:28:39Z</time></trkpt><trkpt lat="43.19006288917371" lon="12.264900312024865"><ele>464.0</ele><time>2026-03-29T07:29:03Z</time></trkpt><trkpt lat="43.190046424786" lon="12.265012456184635"><ele>463.99999999999994</ele><time>2026-03-29T07:29:51Z</time></trkpt><trkpt lat="43.19003889365277" lon="12.265104073086198"><ele>464.0</ele><time>2026-03-29T07:29:54Z</time></trkpt><trkpt lat="43.19002107164731" lon="12.265193903836472"><ele>463.99999999999994</ele><time>2026-03-29T07:29:58Z</time></trkpt><trkpt lat="43.19001483248264" lon="12.265283961389434"><ele>464.0</ele><time>2026-03-29T07:30:11Z</time></trkpt><trkpt lat="43.18998988094842" lon="12.265370221818435"><ele>464.0</ele><time>2026-03-29T07:30:15Z</time></trkpt><trkpt lat="43.18989801345096" lon="12.265379086890595"><ele>464.0</ele><time>2026-03-29T07:30:19Z</time></trkpt><trkpt lat="43.18981362657823" lon="12.26530504198368"><ele>463.99999999999994</ele><time>2026-03-29T07:30:21Z</time></trkpt><trkpt lat="43.18970735804969" lon="12.265304572046226"><ele>464.0</ele><time>2026-03-29T07:30:23Z</time></trkpt><trkpt lat="43.18963767185363" lon="12.265312241809237"><ele>463.2</ele><time>2026-03-29T07:30:24Z</time></trkpt><trkpt lat="43.18951590557397" lon="12.265326879287061"><ele>462.4</ele><time>2026-03-29T07:30:26Z</time></trkpt><trkpt lat="43.18945064478595" lon="12.265361264378463"><ele>461.6</ele><time>2026-03-29T07:30:27Z</time></trkpt><trkpt lat="43.18932798431452" lon="12.265397938718785"><ele>460.8</ele><time>2026-03-29T07:30:29Z</time></trkpt><trkpt lat="43.189246767168626" lon="12.265476985644458"><ele>460.0</ele><time>2026-03-29T07:30:31Z</time></trkpt><trkpt lat="43.189271071570964" lon="12.265587684685975"><ele>460.0</ele><time>2026-03-29T07:30:33Z</time></trkpt><trkpt lat="43.18933734428763" lon="12.265611390947722"><ele>460.0</ele><time>2026-03-29T07:30:35Z</time></trkpt><trkpt lat="43.189342032509764" lon="12.265767434353844"><ele>460.0</ele><time>2026-03-29T07:30:38Z</time></trkpt><trkpt lat="43.18941722729169" lon="12.265896322812726"><ele>460.0</ele><time>2026-03-29T07:30:40Z</time></trkpt><trkpt lat="43.189449294620005" lon="12.265978317490694"><ele>460.0</ele><time>2026-03-29T07:30:41Z</time></trkpt><trkpt lat="43.1895297324476" lon="12.266076965171036"><ele>461.4</ele><time>2026-03-29T07:30:43Z</time></trkpt><trkpt lat="43.189627364416104" lon="12.26609780186897"><ele>462.8</ele><time>2026-03-29T07:30:45Z</time></trkpt><trkpt lat="43.189706649414966" lon="12.26617156269971"><ele>464.20000000000005</ele><time>2026-03-29T07:30:47Z</time></trkpt><trkpt lat="43.189814573625966" lon="12.266270776686115"><ele>465.6</ele><time>2026-03-29T07:30:49Z</time></trkpt><trkpt lat="43.18987751613157" lon="12.266302810268986"><ele>467.0</ele><time>2026-03-29T07:30:50Z</time></trkpt><trkpt lat="43.18999947728595" lon="12.266325474552115"><ele>469.16666666666663</ele><time>2026-03-29T07:30:52Z</time></trkpt><trkpt lat="43.19005427994524" lon="12.266210926013382"><ele>471.3333333333333</ele><time>2026-03-29T07:30:53Z</time></trkpt><trkpt lat="43.19010885745384" lon="12.266117866715144"><ele>473.5</ele><time>2026-03-29T07:30:55Z</time></trkpt><trkpt lat="43.19015902559717" lon="12.26605988842934"><ele>475.66666666666663</ele><time>2026-03-29T07:30:57Z</time></trkpt><trkpt lat="43.1902367466258" lon="12.266031655343127"><ele>477.8333333333333</ele><time>2026-03-29T07:31:01Z</time></trkpt><trkpt lat="43.19030197654811" lon="12.266050175446834"><ele>480.0</ele><time>2026-03-29T07:31:03Z</time></trkpt><trkpt lat="43.19037368195003" lon="12.266061342175282"><ele>480.0</ele><time>2026-03-29T07:31:05Z</time></trkpt><trkpt lat="43.19043445740055" lon="12.266087048095333"><ele>480.0</ele><time>2026-03-29T07:31:08Z</time></trkpt><trkpt lat="43.19052030604744" lon="12.266049257690295"><ele>480.0</ele><time>2026-03-29T07:31:11Z</time></trkpt><trkpt lat="43.19058933207285" lon="12.265955344892932"><ele>480.0</ele><time>2026-03-29T07:31:14Z</time></trkpt><trkpt lat="43.190657444186876" lon="12.265885328283323"><ele>480.0</ele><time>2026-03-29T07:31:16Z</time></trkpt><trkpt lat="43.19073893332723" lon="12.265826471366037"><ele>480.0</ele><time>2026-03-29T07:31:18Z</time></trkpt><trkpt lat="43.190803042702775" lon="12.26589873002762"><ele>477.6</ele><time>2026-03-29T07:31:20Z</time></trkpt><trkpt lat="43.19087779802726" lon="12.265991859874674"><ele>475.2</ele><time>2026-03-29T07:31:22Z</time></trkpt><trkpt lat="43.19097571125563" lon="12.266055174784922"><ele>472.79999999999995</ele><time>2026-03-29T07:31:24Z</time></trkpt><trkpt lat="43.19104434574409" lon="12.266184717769994"><ele>470.4</ele><time>2026-03-29T07:31:26Z</time></trkpt><trkpt lat="43.19113630800118" lon="12.266208841228302"><ele>468.0</ele><time>2026-03-29T07:31:28Z</time></trkpt><trkpt lat="43.19121286799243" lon="12.266187351304392"><ele>468.0</ele><time>2026-03-29T07:31:29Z</time></trkpt><trkpt lat="43.19128460766005" lon="12.266180899369699"><ele>468.00000000000006</ele><time>2026-03-29T07:31:30Z</time></trkpt><trkpt lat="43.191352620297394" lon="12.266183946202604"><ele>468.0</ele><time>2026-03-29T07:31:31Z</time></trkpt><trkpt lat="43.191401754278296" lon="12.266238622495417"><ele>468.0</ele><time>2026-03-29T07:31:32Z</time></trkpt><trkpt lat="43.19144176995826" lon="12.266310735737445"><ele>468.00000000000006</ele><time>2026-03-29T07:31:33Z</time></trkpt><trkpt lat="43.19153105730059" lon="12.266381235206197"><ele>468.0</ele><time>2026-03-29T07:31:35Z</time></trkpt><trkpt lat="43.19160751326705" lon="12.266385499991616"><ele>468.0</ele><time>2026-03-29T07:31:38Z</time></trkpt><trkpt lat="43.19164296112778" lon="12.266216515192626"><ele>464.0</ele><time>2026-03-29T07:31:41Z</time></trkpt><trkpt lat="43.19169157064234" lon="12.266132336744556"><ele>459.99999999999994</ele><time>2026-03-29T07:31:43Z</time></trkpt><trkpt lat="43.19178567270855" lon="12.266062209262941"><ele>455.99999999999994</ele><time>2026-03-29T07:31:45Z</time></trkpt><trkpt lat="43.19186281116236" lon="12.266097223094935"><ele>452.0</ele><time>2026-03-29T07:31:47Z</time></trkpt><trkpt lat="43.19196188045023" lon="12.266067841591324"><ele>448.0</ele><time>2026-03-29T07:31:49Z</time></trkpt><trkpt lat="43.19200639454689" lon="12.26595592785922"><ele>448.00000000000006</ele><time>2026-03-29T07:31:51Z</time></trkpt><trkpt lat="43.19208281080564" lon="12.265890350795285"><ele>448.0</ele><time>2026-03-29T07:31:53Z</time></trkpt><trkpt lat="43.19216200178175" lon="12.26581909576689"><ele>448.0</ele><time>2026-03-29T07:31:55Z</time></trkpt><trkpt lat="43.192236598472995" lon="12.265745893281624"><ele>448.0</ele><time>2026-03-29T07:31:58Z</time></trkpt><trkpt lat="43.192300026289686" lon="12.265683643717365"><ele>448.00000000000006</ele><time>2026-03-29T07:32:00Z</time></trkpt><trkpt lat="43.192359897893404" lon="12.2656546162021"><ele>448.0</ele><time>2026-03-29T07:32:01Z</time></trkpt><trkpt lat="43.192455496854166" lon="12.26562036641041"><ele>442.6666666666667</ele><time>2026-03-29T07:32:03Z</time></trkpt><trkpt lat="43.19248575307618" lon="12.265525969190278"><ele>437.33333333333337</ele><time>2026-03-29T07:32:05Z</time></trkpt><trkpt lat="43.19250694171228" lon="12.265420950489215"><ele>432.0</ele><time>2026-03-29T07:32:07Z</time></trkpt><trkpt lat="43.19245056137723" lon="12.265342428446983"><ele>426.66666666666663</ele><time>2026-03-29T07:32:10Z</time></trkpt><trkpt lat="43.192421270990884" lon="12.265237397623498"><ele>421.3333333333333</ele><time>2026-03-29T07:32:13Z</time></trkpt><trkpt lat="43.19241178374043" lon="12.26512931198264"><ele>416.0</ele><time>2026-03-29T07:32:16Z</time></trkpt><trkpt lat="43.19243145885822" lon="12.265021609699437"><ele>416.0</ele><time>2026-03-29T07:32:20Z</time></trkpt><trkpt lat="43.19247696578994" lon="12.264942744557617"><ele>416.0</ele><time>2026-03-29T07:32:24Z</time></trkpt><trkpt lat="43.19254495267944" lon="12.264844150336284"><ele>416.0</ele><time>2026-03-29T07:32:27Z</time></trkpt><trkpt lat="43.19251984189419" lon="12.264711549004428"><ele>416.0</ele><time>2026-03-29T07:32:30Z</time></trkpt><trkpt lat="43.19244745563714" lon="12.264642200095047"><ele>416.0</ele><time>2026-03-29T07:32:32Z</time></trkpt><trkpt lat="43.192344440264925" lon="12.26462514208936"><ele>417.3333333333333</ele><time>2026-03-29T07:32:34Z</time></trkpt><trkpt lat="43.19224265409264" lon="12.264596256861235"><ele>418.66666666666663</ele><time>2026-03-29T07:32:36Z</time></trkpt><trkpt lat="43.192189710720925" lon="12.264502158601715"><ele>420.0</ele><time>2026-03-29T07:32:40Z</time></trkpt><trkpt lat="43.19216266581662" lon="12.264382537385826"><ele>421.33333333333337</ele><time>2026-03-29T07:32:43Z</time></trkpt><trkpt lat="43.19219321730083" lon="12.264300810480904"><ele>422.6666666666667</ele><time>2026-03-29T07:32:44Z</time></trkpt><trkpt lat="43.19224845757274" lon="12.264231702871069"><ele>424.0</ele><time>2026-03-29T07:32:45Z</time></trkpt><trkpt lat="43.19233006141321" lon="12.264198474078"><ele>420.79999999999995</ele><time>2026-03-29T07:32:46Z</time></trkpt><trkpt lat="43.1924014710965" lon="12.264170937961794"><ele>417.59999999999997</ele><time>2026-03-29T07:32:47Z</time></trkpt><trkpt lat="43.19241936958775" lon="12.264019341838937"><ele>414.4</ele><time>2026-03-29T07:32:49Z</time></trkpt><trkpt lat="43.19237772380085" lon="12.263877932209798"><ele>411.2</ele><time>2026-03-29T07:32:51Z</time></trkpt><trkpt lat="43.192314103149116" lon="12.263778621982697"><ele>408.0</ele><time>2026-03-29T07:32:53Z</time></trkpt><trkpt lat="43.19226319158817" lon="12.263654076098758"><ele>408.0</ele><time>2026-03-29T07:32:55Z</time></trkpt><trkpt lat="43.19222732297057" lon="12.263564792599398"><ele>408.0</ele><time>2026-03-29T07:32:56Z</time></trkpt><trkpt lat="43.19218659581681" lon="12.263440366579504"><ele>408.0</ele><time>2026-03-29T07:32:58Z</time></trkpt><trkpt lat="43.192100886648625" lon="12.26336589263949"><ele>408.0</ele><time>2026-03-29T07:33:00Z</time></trkpt><trkpt lat="43.192051411690535" lon="12.263303636535534"><ele>408.0</ele><time>2026-03-29T07:33:01Z</time></trkpt><trkpt lat="43.19200907363525" lon="12.2632161291798"><ele>408.0</ele><time>2026-03-29T07:33:10Z</time></trkpt><trkpt lat="43.19202545632983" lon="12.263103414933365"><ele>404.3333333333333</ele><time>2026-03-29T07:33:13Z</time></trkpt><trkpt lat="43.192045661837746" lon="12.262965926046256"><ele>400.66666666666663</ele><time>2026-03-29T07:33:15Z</time></trkpt><trkpt lat="43.192061477477544" lon="12.262872450029086"><ele>397.0</ele><time>2026-03-29T07:33:17Z</time></trkpt><trkpt lat="43.1920326265422" lon="12.262791805958276"><ele>393.3333333333333</ele><time>2026-03-29T07:33:19Z</time></trkpt><trkpt lat="43.19194819940668" lon="12.262724606706753"><ele>389.66666666666663</ele><time>2026-03-29T07:33:22Z</time></trkpt><trkpt lat="43.19187320414243" lon="12.262675123939216"><ele>386.0</ele><time>2026-03-29T07:33:24Z</time></trkpt><trkpt lat="43.191880046228114" lon="12.2625480090715"><ele>385.99999999999994</ele><time>2026-03-29T07:33:26Z</time></trkpt><trkpt lat="43.19185169616941" lon="12.262453379843581"><ele>386.0</ele><time>2026-03-29T07:33:28Z</time></trkpt><trkpt lat="43.19178758702904" lon="12.262387658261817"><ele>386.0</ele><time>2026-03-29T07:33:30Z</time></trkpt><trkpt lat="43.19173134675631" lon="12.262280669015055"><ele>386.0</ele><time>2026-03-29T07:33:32Z</time></trkpt><trkpt lat="43.19164304823597" lon="12.262240618184014"><ele>385.99999999999994</ele><time>2026-03-29T07:33:34Z</time></trkpt><trkpt lat="43.191595283996605" lon="12.262179202887099"><ele>386.0</ele><time>2026-03-29T07:33:35Z</time></trkpt><trkpt lat="43.19149675460889" lon="12.26213022761994"><ele>382.42857142857144</ele><time>2026-03-29T07:33:37Z</time></trkpt><trkpt lat="43.19146030982896" lon="12.26201807797292"><ele>378.8571428571429</ele><time>2026-03-29T07:33:39Z</time></trkpt><trkpt lat="43.19141397068673" lon="12.261957314749296"><ele>375.28571428571433</ele><time>2026-03-29T07:33:42Z</time></trkpt><trkpt lat="43.19134425811574" lon="12.261944617189762"><ele>371.7142857142857</ele><time>2026-03-29T07:33:45Z</time></trkpt><trkpt lat="43.1912642179621" lon="12.261936740443156"><ele>368.1428571428571</ele><time>2026-03-29T07:33:55Z</time></trkpt><trkpt lat="43.191196514135754" lon="12.261896563438487"><ele>364.5714285714286</ele><time>2026-03-29T07:34:10Z</time></trkpt><trkpt lat="43.19113678497718" lon="12.261864698825708"><ele>361.0</ele><time>2026-03-29T07:34:16Z</time></trkpt><trkpt lat="43.1910622857773" lon="12.261795747603554"><ele>361.0</ele><time>2026-03-29T07:34:21Z</time></trkpt><trkpt lat="43.19099351871152" lon="12.261783982395853"><ele>361.0</ele><time>2026-03-29T07:34:23Z</time></trkpt><trkpt lat="43.19093900187715" lon="12.26169887557348"><ele>361.0</ele><time>2026-03-29T07:34:25Z</time></trkpt><trkpt lat="43.19085522387202" lon="12.26163682951868"><ele>361.0</ele><time>2026-03-29T07:34:28Z</time></trkpt><trkpt lat="43.190877110230375" lon="12.261501551990232"><ele>361.0</ele><time>2026-03-29T07:34:32Z</time></trkpt><trkpt lat="43.19081339524033" lon="12.261466064934268"><ele>361.0</ele><time>2026-03-29T07:34:34Z</time></trkpt><trkpt lat="43.190738383045826" lon="12.261439257712366"><ele>358.20000000000005</ele><time>2026-03-29T07:34:35Z</time></trkpt><trkpt lat="43.19064662063255" lon="12.261404602445024"><ele>355.40000000000003</ele><time>2026-03-29T07:34:36Z</time></trkpt><trkpt lat="43.19056336577546" lon="12.261373162876549"><ele>352.6</ele><time>2026-03-29T07:34:37Z</time></trkpt><trkpt lat="43.19048291593145" lon="12.261345859174476"><ele>349.8</ele><time>2026-03-29T07:34:38Z</time></trkpt><trkpt lat="43.190409817852895" lon="12.261330025278948"><ele>347.0</ele><time>2026-03-29T07:34:39Z</time></trkpt><trkpt lat="43.190284404452505" lon="12.261284986754834"><ele>347.0</ele><time>2026-03-29T07:34:41Z</time></trkpt><trkpt lat="43.19021943521611" lon="12.26124675936604"><ele>347.0</ele><time>2026-03-29T07:34:42Z</time></trkpt><trkpt lat="43.19015985736492" lon="12.261204981987477"><ele>347.0</ele><time>2026-03-29T07:34:43Z</time></trkpt><trkpt lat="43.19009453717864" lon="12.261158066048736"><ele>347.0</ele><time>2026-03-29T07:34:44Z</time></trkpt><trkpt lat="43.19001445673637" lon="12.261087237325423"><ele>347.0</ele><time>2026-03-29T07:34:46Z</time></trkpt><trkpt lat="43.189894375942224" lon="12.261051796609385"><ele>347.0</ele><time>2026-03-29T07:34:48Z</time></trkpt><trkpt lat="43.18977886347028" lon="12.261009452586704"><ele>345.75</ele><time>2026-03-29T07:34:50Z</time></trkpt><trkpt lat="43.18965608722601" lon="12.261016205258414"><ele>344.5</ele><time>2026-03-29T07:34:52Z</time></trkpt><trkpt lat="43.1895430375731" lon="12.261038473411231"><ele>343.25</ele><time>2026-03-29T07:34:54Z</time></trkpt><trkpt lat="43.1894329988776" lon="12.261013599988328"><ele>342.0</ele><time>2026-03-29T07:34:56Z</time></trkpt><trkpt lat="43.189303749191225" lon="12.261014313897688"><ele>342.0</ele><time>2026-03-29T07:34:58Z</time></trkpt><trkpt lat="43.189238779179384" lon="12.261018873865567"><ele>342.0</ele><time>2026-03-29T07:34:59Z</time></trkpt><trkpt lat="43.18917011504319" lon="12.26103723284846"><ele>342.0</ele><time>2026-03-29T07:35:00Z</time></trkpt><trkpt lat="43.18910640951212" lon="12.26104984687596"><ele>342.0</ele><time>2026-03-29T07:35:01Z</time></trkpt><trkpt lat="43.18898000343046" lon="12.261035474644116"><ele>342.0</ele><time>2026-03-29T07:35:03Z</time></trkpt><trkpt lat="43.18890769546206" lon="12.261029380513765"><ele>342.0</ele><time>2026-03-29T07:35:04Z</time></trkpt><trkpt lat="43.188780714361144" lon="12.261007122652813"><ele>341.20000000000005</ele><time>2026-03-29T07:35:06Z</time></trkpt><trkpt lat="43.18870885209168" lon="12.261017508390758"><ele>340.4</ele><time>2026-03-29T07:35:07Z</time></trkpt><trkpt lat="43.18863028410149" lon="12.261034800173036"><ele>339.6</ele><time>2026-03-29T07:35:08Z</time></trkpt><trkpt lat="43.18850579181208" lon="12.2610768456751"><ele>338.79999999999995</ele><time>2026-03-29T07:35:10Z</time></trkpt><trkpt lat="43.188384634561956" lon="12.26111076336961"><ele>338.0</ele><time>2026-03-29T07:35:12Z</time></trkpt><trkpt lat="43.18826675865257" lon="12.261141228649954"><ele>338.0</ele><time>2026-03-29T07:35:14Z</time></trkpt><trkpt lat="43.18819913801092" lon="12.2611633905499"><ele>338.0</ele><time>2026-03-29T07:35:15Z</time></trkpt><trkpt lat="43.18811777117993" lon="12.261204165714236"><ele>338.0</ele><time>2026-03-29T07:35:16Z</time></trkpt><trkpt lat="43.18803986293853" lon="12.261232033147095"><ele>338.0</ele><time>2026-03-29T07:35:17Z</time></trkpt><trkpt lat="43.187957800381675" lon="12.261232428751656"><ele>338.0</ele><time>2026-03-29T07:35:18Z</time></trkpt><trkpt lat="43.1878905084752" lon="12.261212532654875"><ele>338.0</ele><time>2026-03-29T07:35:19Z</time></trkpt><trkpt lat="43.18782853355226" lon="12.26115708818624"><ele>337.1666666666667</ele><time>2026-03-29T07:35:20Z</time></trkpt><trkpt lat="43.1877796494136" lon="12.261082319031921"><ele>336.33333333333337</ele><time>2026-03-29T07:35:21Z</time></trkpt><trkpt lat="43.187722722103864" lon="12.26100292175188"><ele>335.5</ele><time>2026-03-29T07:35:22Z</time></trkpt><trkpt lat="43.18765631275005" lon="12.260923929436148"><ele>334.6666666666667</ele><time>2026-03-29T07:35:23Z</time></trkpt><trkpt lat="43.187603805013865" lon="12.260861067289984"><ele>333.8333333333333</ele><time>2026-03-29T07:35:24Z</time></trkpt><trkpt lat="43.1875412933549" lon="12.26083180746063"><ele>333.0</ele><time>2026-03-29T07:35:25Z</time></trkpt><trkpt lat="43.18746867290467" lon="12.260861501577425"><ele>333.0</ele><time>2026-03-29T07:35:26Z</time></trkpt><trkpt lat="43.18739982093715" lon="12.260919411504549"><ele>333.0</ele><time>2026-03-29T07:35:27Z</time></trkpt><trkpt lat="43.18730313306844" lon="12.260934428492574"><ele>333.0</ele><time>2026-03-29T07:35:28Z</time></trkpt><trkpt lat="43.18720656954716" lon="12.260956766697888"><ele>333.0</ele><time>2026-03-29T07:35:29Z</time></trkpt><trkpt lat="43.18713281112707" lon="12.260985430615706"><ele>333.0</ele><time>2026-03-29T07:35:30Z</time></trkpt><trkpt lat="43.18702564743043" lon="12.261020897946407"><ele>333.5714285714286</ele><time>2026-03-29T07:35:32Z</time></trkpt><trkpt lat="43.18693272637164" lon="12.260977072532514"><ele>334.1428571428571</ele><time>2026-03-29T07:35:34Z</time></trkpt><trkpt lat="43.186871958007195" lon="12.260943930284732"><ele>334.7142857142857</ele><time>2026-03-29T07:35:35Z</time></trkpt><trkpt lat="43.18680540179267" lon="12.260928487806078"><ele>335.28571428571433</ele><time>2026-03-29T07:35:36Z</time></trkpt><trkpt lat="43.186743618596985" lon="12.26096091852464"><ele>335.8571428571429</ele><time>2026-03-29T07:35:37Z</time></trkpt><trkpt lat="43.186675906406265" lon="12.2609979955632"><ele>336.42857142857144</ele><time>2026-03-29T07:35:38Z</time></trkpt><trkpt lat="43.186615644746894" lon="12.261045948754001"><ele>337.0</ele><time>2026-03-29T07:35:39Z</time></trkpt><trkpt lat="43.186578645336034" lon="12.26112364094196"><ele>337.8333333333333</ele><time>2026-03-29T07:35:41Z</time></trkpt><trkpt lat="43.186489727701" lon="12.261022422140504"><ele>338.66666666666663</ele><time>2026-03-29T07:35:43Z</time></trkpt><trkpt lat="43.18640376406378" lon="12.260981570642683"><ele>339.5</ele><time>2026-03-29T07:35:45Z</time></trkpt><trkpt lat="43.18630559416575" lon="12.261002086968299"><ele>340.3333333333333</ele><time>2026-03-29T07:35:47Z</time></trkpt><trkpt lat="43.18623339897809" lon="12.261013534046372"><ele>341.1666666666667</ele><time>2026-03-29T07:35:48Z</time></trkpt><trkpt lat="43.186171834754795" lon="12.260987823805511"><ele>342.0</ele><time>2026-03-29T07:35:49Z</time></trkpt><trkpt lat="43.1860758143346" lon="12.260915297143"><ele>342.0</ele><time>2026-03-29T07:35:51Z</time></trkpt><trkpt lat="43.18598267145086" lon="12.260847178076492"><ele>342.0</ele><time>2026-03-29T07:35:53Z</time></trkpt><trkpt lat="43.185892536741974" lon="12.260796444594545"><ele>342.0</ele><time>2026-03-29T07:35:55Z</time></trkpt><trkpt lat="43.18578001223282" lon="12.260738745524238"><ele>342.0</ele><time>2026-03-29T07:35:57Z</time></trkpt><trkpt lat="43.18567863391694" lon="12.260667638269451"><ele>342.0</ele><time>2026-03-29T07:35:59Z</time></trkpt><trkpt lat="43.18560329152706" lon="12.26061899296716"><ele>340.1666666666667</ele><time>2026-03-29T07:36:01Z</time></trkpt><trkpt lat="43.18551311283422" lon="12.260568026900167"><ele>338.3333333333333</ele><time>2026-03-29T07:36:03Z</time></trkpt><trkpt lat="43.18544292473351" lon="12.260526531066214"><ele>336.5</ele><time>2026-03-29T07:36:04Z</time></trkpt><trkpt lat="43.18537476164235" lon="12.26048728952313"><ele>334.66666666666663</ele><time>2026-03-29T07:36:05Z</time></trkpt><trkpt lat="43.185308701544926" lon="12.260446095261976"><ele>332.8333333333333</ele><time>2026-03-29T07:36:06Z</time></trkpt><trkpt lat="43.18524478208717" lon="12.260419775395212"><ele>331.0</ele><time>2026-03-29T07:36:08Z</time></trkpt><trkpt lat="43.18516120943179" lon="12.260375241356925"><ele>331.0</ele><time>2026-03-29T07:36:13Z</time></trkpt><trkpt lat="43.18509416749839" lon="12.260343235501312"><ele>331.0</ele><time>2026-03-29T07:36:15Z</time></trkpt><trkpt lat="43.18503021154076" lon="12.260295135537332"><ele>331.0</ele><time>2026-03-29T07:36:22Z</time></trkpt><trkpt lat="43.18495745392984" lon="12.260275420379275"><ele>331.0</ele><time>2026-03-29T07:36:24Z</time></trkpt><trkpt lat="43.18489973548239" lon="12.260237577439197"><ele>331.0</ele><time>2026-03-29T07:36:26Z</time></trkpt><trkpt lat="43.18477483617788" lon="12.26017489695348"><ele>331.0</ele><time>2026-03-29T07:36:28Z</time></trkpt><trkpt lat="43.18466233223942" lon="12.260115734269517"><ele>331.5</ele><time>2026-03-29T07:36:29Z</time></trkpt><trkpt lat="43.184577124184116" lon="12.26009061964694"><ele>332.0</ele><time>2026-03-29T07:36:30Z</time></trkpt><trkpt lat="43.18450117339409" lon="12.260060999453"><ele>332.5</ele><time>2026-03-29T07:36:31Z</time></trkpt><trkpt lat="43.18442649312251" lon="12.260028437051446"><ele>333.0</ele><time>2026-03-29T07:36:32Z</time></trkpt><trkpt lat="43.18434673959348" lon="12.259994589853932"><ele>333.5</ele><time>2026-03-29T07:36:33Z</time></trkpt><trkpt lat="43.184270952440706" lon="12.259958827498142"><ele>334.0</ele><time>2026-03-29T07:36:34Z</time></trkpt><trkpt lat="43.18418904399729" lon="12.259922185357935"><ele>334.0</ele><time>2026-03-29T07:36:35Z</time></trkpt><trkpt lat="43.184068565749286" lon="12.259897338206903"><ele>334.0</ele><time>2026-03-29T07:36:36Z</time></trkpt><trkpt lat="43.183971347188105" lon="12.259847886026616"><ele>334.0</ele><time>2026-03-29T07:36:37Z</time></trkpt><trkpt lat="43.183890328263736" lon="12.259810190778405"><ele>334.0</ele><time>2026-03-29T07:36:38Z</time></trkpt><trkpt lat="43.18381035682909" lon="12.259793697855837"><ele>334.0</ele><time>2026-03-29T07:36:39Z</time></trkpt><trkpt lat="43.18373052235309" lon="12.259799005959188"><ele>335.0</ele><time>2026-03-29T07:36:40Z</time></trkpt><trkpt lat="43.18365653345004" lon="12.259795028433857"><ele>336.0</ele><time>2026-03-29T07:36:41Z</time></trkpt><trkpt lat="43.18358839169874" lon="12.259796893746287"><ele>337.0</ele><time>2026-03-29T07:36:42Z</time></trkpt><trkpt lat="43.18346523742091" lon="12.259789128247712"><ele>338.0</ele><time>2026-03-29T07:36:44Z</time></trkpt><trkpt lat="43.18339675533354" lon="12.25971265953315"><ele>339.0</ele><time>2026-03-29T07:36:46Z</time></trkpt><trkpt lat="43.18340021754515" lon="12.259611495291079"><ele>340.0</ele><time>2026-03-29T07:36:48Z</time></trkpt><trkpt lat="43.183405592011205" lon="12.259463040914733"><ele>337.8333333333333</ele><time>2026-03-29T07:36:50Z</time></trkpt><trkpt lat="43.18336523142879" lon="12.259321901757334"><ele>335.66666666666663</ele><time>2026-03-29T07:36:52Z</time></trkpt><trkpt lat="43.18335817675999" lon="12.2592359489074"><ele>333.5</ele><time>2026-03-29T07:36:53Z</time></trkpt><trkpt lat="43.18335222226508" lon="12.2591499174725"><ele>331.3333333333333</ele><time>2026-03-29T07:36:54Z</time></trkpt><trkpt lat="43.18332568752568" lon="12.25904073633764"><ele>329.1666666666667</ele><time>2026-03-29T07:36:55Z</time></trkpt><trkpt lat="43.18326970701932" lon="12.25890534374156"><ele>327.0</ele><time>2026-03-29T07:36:56Z</time></trkpt><trkpt lat="43.183214907353815" lon="12.258747954460164"><ele>327.20000000000005</ele><time>2026-03-29T07:36:57Z</time></trkpt><trkpt lat="43.18316471889808" lon="12.258626782518185"><ele>327.4</ele><time>2026-03-29T07:36:58Z</time></trkpt><trkpt lat="43.18311404373706" lon="12.258522407315853"><ele>327.6</ele><time>2026-03-29T07:36:59Z</time></trkpt><trkpt lat="43.183067428663264" lon="12.258424063320932"><ele>327.79999999999995</ele><time>2026-03-29T07:37:00Z</time></trkpt><trkpt lat="43.18302463218162" lon="12.258342479668453"><ele>328.0</ele><time>2026-03-29T07:37:01Z</time></trkpt><trkpt lat="43.18296318846801" lon="12.258230084106183"><ele>328.0</ele><time>2026-03-29T07:37:03Z</time></trkpt><trkpt lat="43.182967586380215" lon="12.258143690618263"><ele>328.0</ele><time>2026-03-29T07:37:07Z</time></trkpt><trkpt lat="43.18298400167593" lon="12.25804115212893"><ele>328.0</ele><time>2026-03-29T07:37:12Z</time></trkpt><trkpt lat="43.18301844830906" lon="12.257953095797728"><ele>328.0</ele><time>2026-03-29T07:37:14Z</time></trkpt><trkpt lat="43.183076163690544" lon="12.25784768113154"><ele>328.0</ele><time>2026-03-29T07:37:16Z</time></trkpt><trkpt lat="43.18314380524957" lon="12.257809495912637"><ele>328.0</ele><time>2026-03-29T07:37:18Z</time></trkpt><trkpt lat="43.18325249588625" lon="12.257755083232805"><ele>327.79999999999995</ele><time>2026-03-29T07:37:20Z</time></trkpt><trkpt lat="43.1833232978822" lon="12.257773758917383"><ele>327.6</ele><time>2026-03-29T07:37:22Z</time></trkpt><trkpt lat="43.18339339840446" lon="12.257802027125644"><ele>327.4</ele><time>2026-03-29T07:37:30Z</time></trkpt><trkpt lat="43.18343561002292" lon="12.257915941141206"><ele>327.20000000000005</ele><time>2026-03-29T07:37:32Z</time></trkpt><trkpt lat="43.183535075919494" lon="12.258070078372723"><ele>327.0</ele><time>2026-03-29T07:37:34Z</time></trkpt><trkpt lat="43.18359339949518" lon="12.25815286011296"><ele>325.25</ele><time>2026-03-29T07:37:35Z</time></trkpt><trkpt lat="43.18368219943676" lon="12.258250308256228"><ele>323.5</ele><time>2026-03-29T07:37:36Z</time></trkpt><trkpt lat="43.18377223546771" lon="12.258361256862814"><ele>321.75</ele><time>2026-03-29T07:37:37Z</time></trkpt><trkpt lat="43.18387039711182" lon="12.258461462255957"><ele>320.0</ele><time>2026-03-29T07:37:38Z</time></trkpt><trkpt lat="43.18395035754791" lon="12.258543689201465"><ele>322.33333333333337</ele><time>2026-03-29T07:37:39Z</time></trkpt><trkpt lat="43.18403081163077" lon="12.258587423427029"><ele>324.6666666666667</ele><time>2026-03-29T07:37:40Z</time></trkpt><trkpt lat="43.1841229259901" lon="12.258614899746542"><ele>327.0</ele><time>2026-03-29T07:37:41Z</time></trkpt><trkpt lat="43.184217173748706" lon="12.258622119073936"><ele>329.3333333333333</ele><time>2026-03-29T07:37:42Z</time></trkpt><trkpt lat="43.184288195171995" lon="12.258615623801076"><ele>331.66666666666663</ele><time>2026-03-29T07:37:43Z</time></trkpt><trkpt lat="43.18436434968415" lon="12.258616592762214"><ele>334.0</ele><time>2026-03-29T07:37:44Z</time></trkpt><trkpt lat="43.18445265257928" lon="12.258655509617851"><ele>334.0</ele><time>2026-03-29T07:37:46Z</time></trkpt><trkpt lat="43.184503846151465" lon="12.258710654634118"><ele>334.0</ele><time>2026-03-29T07:37:47Z</time></trkpt><trkpt lat="43.18457282253157" lon="12.258773460347674"><ele>334.0</ele><time>2026-03-29T07:37:48Z</time></trkpt><trkpt lat="43.18462412494967" lon="12.258833259390553"><ele>334.0</ele><time>2026-03-29T07:37:49Z</time></trkpt><trkpt lat="43.18470741294331" lon="12.258944484456265"><ele>334.0</ele><time>2026-03-29T07:37:51Z</time></trkpt><trkpt lat="43.18476429990237" lon="12.259048687322437"><ele>334.0</ele><time>2026-03-29T07:37:53Z</time></trkpt><trkpt lat="43.18481827095648" lon="12.259152292854711"><ele>334.0</ele><time>2026-03-29T07:37:55Z</time></trkpt><trkpt lat="43.18492217169661" lon="12.259204491968909"><ele>334.0</ele><time>2026-03-29T07:37:57.999Z</time></trkpt><trkpt lat="43.18502472617024" lon="12.259243416935513"><ele>334.0</ele><time>2026-03-29T07:37:59.999Z</time></trkpt><trkpt lat="43.18508205395905" lon="12.259294888759351"><ele>334.0</ele><time>2026-03-29T07:38:01.999Z</time></trkpt><trkpt lat="43.18541805805776" lon="12.25941108419877"><ele>334.0</ele><time>2026-03-29T07:38:04.999Z</time></trkpt><trkpt lat="43.185529873030404" lon="12.259395165322323"><ele>334.0</ele><time>2026-03-29T07:38:05.999Z</time></trkpt><trkpt lat="43.185668910841564" lon="12.259371743115725"><ele>334.0</ele><time>2026-03-29T07:38:07Z</time></trkpt><trkpt lat="43.185791420327924" lon="12.259365574629536"><ele>334.0</ele><time>2026-03-29T07:38:08Z</time></trkpt><trkpt lat="43.18588628081669" lon="12.259410017478572"><ele>333.3333333333333</ele><time>2026-03-29T07:38:09Z</time></trkpt><trkpt lat="43.18595523819509" lon="12.25949762708421"><ele>332.66666666666663</ele><time>2026-03-29T07:38:10Z</time></trkpt><trkpt lat="43.18602265089142" lon="12.259590216070988"><ele>332.0</ele><time>2026-03-29T07:38:11Z</time></trkpt><trkpt lat="43.18608658481665" lon="12.259675763627936"><ele>331.3333333333333</ele><time>2026-03-29T07:38:12Z</time></trkpt><trkpt lat="43.18615238865641" lon="12.259750604742075"><ele>330.6666666666667</ele><time>2026-03-29T07:38:13Z</time></trkpt><trkpt lat="43.186228373565775" lon="12.259803734600112"><ele>330.0</ele><time>2026-03-29T07:38:14Z</time></trkpt><trkpt lat="43.186330793471285" lon="12.25986478364169"><ele>330.0</ele><time>2026-03-29T07:38:15Z</time></trkpt><trkpt lat="43.186429004033506" lon="12.259912531103435"><ele>330.0</ele><time>2026-03-29T07:38:16Z</time></trkpt><trkpt lat="43.18654545451199" lon="12.259930869259646"><ele>330.0</ele><time>2026-03-29T07:38:17Z</time></trkpt><trkpt lat="43.1866464440068" lon="12.259956851675353"><ele>330.0</ele><time>2026-03-29T07:38:18Z</time></trkpt><trkpt lat="43.186744381512725" lon="12.25995480188134"><ele>330.0</ele><time>2026-03-29T07:38:19Z</time></trkpt><trkpt lat="43.18682866526209" lon="12.259921190003366"><ele>330.8</ele><time>2026-03-29T07:38:20Z</time></trkpt><trkpt lat="43.18689394969547" lon="12.259878806775168"><ele>331.6</ele><time>2026-03-29T07:38:21Z</time></trkpt><trkpt lat="43.18698777992477" lon="12.259841138678315"><ele>332.4</ele><time>2026-03-29T07:38:22Z</time></trkpt><trkpt lat="43.187100548933316" lon="12.25986995127733"><ele>333.2</ele><time>2026-03-29T07:38:23Z</time></trkpt><trkpt lat="43.18720376937728" lon="12.259931236881917"><ele>334.0</ele><time>2026-03-29T07:38:24Z</time></trkpt><trkpt lat="43.18729559327139" lon="12.259975341685657"><ele>335.5</ele><time>2026-03-29T07:38:25Z</time></trkpt><trkpt lat="43.18737257740949" lon="12.260031555216823"><ele>337.0</ele><time>2026-03-29T07:38:26Z</time></trkpt><trkpt lat="43.187469997131906" lon="12.260038167311304"><ele>338.5</ele><time>2026-03-29T07:38:28Z</time></trkpt><trkpt lat="43.18756314126951" lon="12.260125840567841"><ele>340.0</ele><time>2026-03-29T07:38:30Z</time></trkpt><trkpt lat="43.18762300310141" lon="12.260183949160705"><ele>341.5</ele><time>2026-03-29T07:38:31Z</time></trkpt><trkpt lat="43.18769400082975" lon="12.260185485662594"><ele>343.0</ele><time>2026-03-29T07:38:32Z</time></trkpt><trkpt lat="43.187779644218956" lon="12.260205834310042"><ele>343.0</ele><time>2026-03-29T07:38:33Z</time></trkpt><trkpt lat="43.18786175746339" lon="12.260228981768208"><ele>343.0</ele><time>2026-03-29T07:38:34Z</time></trkpt><trkpt lat="43.18794141943121" lon="12.260245495074022"><ele>343.0</ele><time>2026-03-29T07:38:35Z</time></trkpt><trkpt lat="43.18807951977325" lon="12.260188459374763"><ele>343.0</ele><time>2026-03-29T07:38:37Z</time></trkpt><trkpt lat="43.18815980230956" lon="12.260147150081695"><ele>343.0</ele><time>2026-03-29T07:38:38Z</time></trkpt><trkpt lat="43.18824516218504" lon="12.260135678878163"><ele>344.5</ele><time>2026-03-29T07:38:39Z</time></trkpt><trkpt lat="43.188326117411414" lon="12.260143068812487"><ele>346.0</ele><time>2026-03-29T07:38:40Z</time></trkpt><trkpt lat="43.18842671731217" lon="12.260165224648947"><ele>347.5</ele><time>2026-03-29T07:38:41Z</time></trkpt><trkpt lat="43.1885193358243" lon="12.260186077753954"><ele>349.0</ele><time>2026-03-29T07:38:42Z</time></trkpt><trkpt lat="43.18859435992036" lon="12.260209641289626"><ele>350.5</ele><time>2026-03-29T07:38:43Z</time></trkpt><trkpt lat="43.18865402061055" lon="12.260259105530297"><ele>352.0</ele><time>2026-03-29T07:38:44Z</time></trkpt><trkpt lat="43.18870794273453" lon="12.260314300207545"><ele>352.0</ele><time>2026-03-29T07:38:45Z</time></trkpt><trkpt lat="43.18884365483021" lon="12.260359373106272"><ele>352.0</ele><time>2026-03-29T07:38:47Z</time></trkpt><trkpt lat="43.18894485345085" lon="12.260373071588772"><ele>352.0</ele><time>2026-03-29T07:38:48Z</time></trkpt><trkpt lat="43.18904172879387" lon="12.260410680625844"><ele>352.0</ele><time>2026-03-29T07:38:49Z</time></trkpt><trkpt lat="43.189119715784166" lon="12.260468970620483"><ele>352.0</ele><time>2026-03-29T07:38:50Z</time></trkpt><trkpt lat="43.18919102835681" lon="12.260475264631637"><ele>353.0</ele><time>2026-03-29T07:38:51Z</time></trkpt><trkpt lat="43.18929795833132" lon="12.26052378027887"><ele>354.0</ele><time>2026-03-29T07:38:53Z</time></trkpt><trkpt lat="43.189387207534935" lon="12.260454749005739"><ele>355.0</ele><time>2026-03-29T07:38:55Z</time></trkpt><trkpt lat="43.189453789899446" lon="12.26031919408507"><ele>356.0</ele><time>2026-03-29T07:38:57Z</time></trkpt><trkpt lat="43.18956098626578" lon="12.260321447842784"><ele>357.0</ele><time>2026-03-29T07:38:59Z</time></trkpt><trkpt lat="43.18963685208732" lon="12.260329476469142"><ele>357.0</ele><time>2026-03-29T07:39:00Z</time></trkpt><trkpt lat="43.18970779908708" lon="12.260341800005122"><ele>357.0</ele><time>2026-03-29T07:39:01Z</time></trkpt><trkpt lat="43.18977766764762" lon="12.260334374014993"><ele>357.0</ele><time>2026-03-29T07:39:02Z</time></trkpt><trkpt lat="43.18986167747719" lon="12.260342213546904"><ele>357.0</ele><time>2026-03-29T07:39:03Z</time></trkpt><trkpt lat="43.18995333233294" lon="12.260361802147898"><ele>357.0</ele><time>2026-03-29T07:39:04Z</time></trkpt><trkpt lat="43.19002460763486" lon="12.26040598504202"><ele>357.0</ele><time>2026-03-29T07:39:05Z</time></trkpt><trkpt lat="43.190077470768856" lon="12.260466223811097"><ele>359.0</ele><time>2026-03-29T07:39:06Z</time></trkpt><trkpt lat="43.190129798692226" lon="12.26055604364466"><ele>361.0</ele><time>2026-03-29T07:39:07Z</time></trkpt><trkpt lat="43.19019279691409" lon="12.260625597274403"><ele>363.0</ele><time>2026-03-29T07:39:08Z</time></trkpt><trkpt lat="43.19032305111014" lon="12.26061204158274"><ele>365.0</ele><time>2026-03-29T07:39:10Z</time></trkpt><trkpt lat="43.19040788258098" lon="12.2606006829299"><ele>367.0</ele><time>2026-03-29T07:39:11Z</time></trkpt><trkpt lat="43.190491919509604" lon="12.260606234209094"><ele>365.16666666666663</ele><time>2026-03-29T07:39:12Z</time></trkpt><trkpt lat="43.19057974479056" lon="12.26064988836066"><ele>363.3333333333333</ele><time>2026-03-29T07:39:13Z</time></trkpt><trkpt lat="43.19067026484879" lon="12.26069249604863"><ele>361.5</ele><time>2026-03-29T07:39:14Z</time></trkpt><trkpt lat="43.190733378959" lon="12.260714692166118"><ele>359.6666666666667</ele><time>2026-03-29T07:39:15Z</time></trkpt><trkpt lat="43.190794906619" lon="12.260744820829553"><ele>357.83333333333337</ele><time>2026-03-29T07:39:16Z</time></trkpt><trkpt lat="43.190860608654795" lon="12.26076109468772"><ele>356.0</ele><time>2026-03-29T07:39:17Z</time></trkpt><trkpt lat="43.19092698622693" lon="12.260762528985463"><ele>356.0</ele><time>2026-03-29T07:39:18Z</time></trkpt><trkpt lat="43.19101059606808" lon="12.260778084143997"><ele>356.0</ele><time>2026-03-29T07:39:19Z</time></trkpt><trkpt lat="43.191074680571724" lon="12.260818317259499"><ele>356.0</ele><time>2026-03-29T07:39:20Z</time></trkpt><trkpt lat="43.191151799828184" lon="12.260853674354994"><ele>356.0</ele><time>2026-03-29T07:39:21Z</time></trkpt><trkpt lat="43.19124232358599" lon="12.260851532372923"><ele>356.0</ele><time>2026-03-29T07:39:22Z</time></trkpt><trkpt lat="43.19133883643438" lon="12.260852415801665"><ele>356.0</ele><time>2026-03-29T07:39:23Z</time></trkpt><trkpt lat="43.19141581259145" lon="12.26089243027665"><ele>356.0</ele><time>2026-03-29T07:39:24Z</time></trkpt><trkpt lat="43.191491974441576" lon="12.260943242896342"><ele>356.0</ele><time>2026-03-29T07:39:25Z</time></trkpt><trkpt lat="43.19157474300458" lon="12.260970949105985"><ele>356.0</ele><time>2026-03-29T07:39:26Z</time></trkpt><trkpt lat="43.19166100225464" lon="12.260950776652201"><ele>356.0</ele><time>2026-03-29T07:39:27Z</time></trkpt><trkpt lat="43.19173216192086" lon="12.260913329658324"><ele>356.0</ele><time>2026-03-29T07:39:28Z</time></trkpt><trkpt lat="43.19181361071422" lon="12.260851943265374"><ele>356.0</ele><time>2026-03-29T07:39:29Z</time></trkpt><trkpt lat="43.19190363956564" lon="12.260828038445718"><ele>356.33333333333337</ele><time>2026-03-29T07:39:30Z</time></trkpt><trkpt lat="43.19196660423798" lon="12.260839742458973"><ele>356.6666666666667</ele><time>2026-03-29T07:39:31Z</time></trkpt><trkpt lat="43.192073531615854" lon="12.260820279747076"><ele>357.0</ele><time>2026-03-29T07:39:34Z</time></trkpt><trkpt lat="43.19214489647673" lon="12.260811602827678"><ele>357.3333333333333</ele><time>2026-03-29T07:39:35Z</time></trkpt><trkpt lat="43.192235870619044" lon="12.260750005510154"><ele>357.66666666666663</ele><time>2026-03-29T07:39:37Z</time></trkpt><trkpt lat="43.1923300938106" lon="12.260692463328017"><ele>358.0</ele><time>2026-03-29T07:39:39Z</time></trkpt><trkpt lat="43.19264211643408" lon="12.260615469325641"><ele>362.16666666666663</ele><time>2026-03-29T07:39:41Z</time></trkpt><trkpt lat="43.19273645516872" lon="12.260566803027727"><ele>366.3333333333333</ele><time>2026-03-29T07:39:42Z</time></trkpt><trkpt lat="43.19282122015803" lon="12.260557453899862"><ele>370.5</ele><time>2026-03-29T07:39:43Z</time></trkpt><trkpt lat="43.19289690531673" lon="12.260571706230634"><ele>374.6666666666667</ele><time>2026-03-29T07:39:44Z</time></trkpt><trkpt lat="43.19297275779573" lon="12.260579634771085"><ele>378.83333333333337</ele><time>2026-03-29T07:39:45Z</time></trkpt><trkpt lat="43.1930727926061" lon="12.260580466366967"><ele>383.0</ele><time>2026-03-29T07:39:46Z</time></trkpt><trkpt lat="43.19316908725451" lon="12.260589036973542"><ele>382.0</ele><time>2026-03-29T07:39:47Z</time></trkpt><trkpt lat="43.19325351111845" lon="12.26062314540198"><ele>381.0</ele><time>2026-03-29T07:39:48Z</time></trkpt><trkpt lat="43.19333347218106" lon="12.260626247028203"><ele>380.0</ele><time>2026-03-29T07:39:49Z</time></trkpt><trkpt lat="43.19340391367326" lon="12.260579270154151"><ele>379.0</ele><time>2026-03-29T07:39:50Z</time></trkpt><trkpt lat="43.193473976253316" lon="12.260528014768107"><ele>378.0</ele><time>2026-03-29T07:39:51Z</time></trkpt><trkpt lat="43.19352989387748" lon="12.260452973023538"><ele>377.0</ele><time>2026-03-29T07:39:52Z</time></trkpt><trkpt lat="43.193566935451635" lon="12.260382166364469"><ele>377.0</ele><time>2026-03-29T07:39:53Z</time></trkpt><trkpt lat="43.1936251049969" lon="12.260307566617374"><ele>377.0</ele><time>2026-03-29T07:39:53.999Z</time></trkpt><trkpt lat="43.19367625082485" lon="12.26022813201101"><ele>377.0</ele><time>2026-03-29T07:39:54.999Z</time></trkpt><trkpt lat="43.19374642447874" lon="12.26016267629562"><ele>377.0</ele><time>2026-03-29T07:39:56.999Z</time></trkpt><trkpt lat="43.193821211982886" lon="12.260239682533696"><ele>377.0</ele><time>2026-03-29T07:39:58.999Z</time></trkpt><trkpt lat="43.19387310279897" lon="12.260292374739844"><ele>377.0</ele><time>2026-03-29T07:39:59.999Z</time></trkpt><trkpt lat="43.19399771540702" lon="12.260277406101224"><ele>376.6</ele><time>2026-03-29T07:40:01.999Z</time></trkpt><trkpt lat="43.19415420065622" lon="12.260362645524458"><ele>376.20000000000005</ele><time>2026-03-29T07:40:02.999Z</time></trkpt><trkpt lat="43.19420982499886" lon="12.260317078231616"><ele>375.8</ele><time>2026-03-29T07:40:03.999Z</time></trkpt><trkpt lat="43.19426743436301" lon="12.260244702249802"><ele>375.4</ele><time>2026-03-29T07:40:04.999Z</time></trkpt><trkpt lat="43.19432516702277" lon="12.26018053595654"><ele>375.0</ele><time>2026-03-29T07:40:05.999Z</time></trkpt><trkpt lat="43.194465008387155" lon="12.260132573442284"><ele>375.0</ele><time>2026-03-29T07:40:06.999Z</time></trkpt><trkpt lat="43.19458252895926" lon="12.260066022276767"><ele>375.0</ele><time>2026-03-29T07:40:07.999Z</time></trkpt><trkpt lat="43.194690848492556" lon="12.260032346656738"><ele>375.0</ele><time>2026-03-29T07:40:08.999Z</time></trkpt><trkpt lat="43.194792873400594" lon="12.260043764269636"><ele>375.0</ele><time>2026-03-29T07:40:09.999Z</time></trkpt><trkpt lat="43.19486463983075" lon="12.260064067139183"><ele>375.0</ele><time>2026-03-29T07:40:10.999Z</time></trkpt><trkpt lat="43.19492958590748" lon="12.260083235458236"><ele>375.8333333333333</ele><time>2026-03-29T07:40:11.999Z</time></trkpt><trkpt lat="43.194990327835455" lon="12.260108074808812"><ele>376.6666666666667</ele><time>2026-03-29T07:40:13Z</time></trkpt><trkpt lat="43.195085619509385" lon="12.26009742045691"><ele>377.5</ele><time>2026-03-29T07:40:14Z</time></trkpt><trkpt lat="43.19517618854648" lon="12.260113914022583"><ele>378.33333333333337</ele><time>2026-03-29T07:40:15Z</time></trkpt><trkpt lat="43.195278876589775" lon="12.260153020901232"><ele>379.1666666666667</ele><time>2026-03-29T07:40:16Z</time></trkpt><trkpt lat="43.19534241174329" lon="12.26020483079051"><ele>380.0</ele><time>2026-03-29T07:40:17Z</time></trkpt><trkpt lat="43.19540653693262" lon="12.260268291847634"><ele>380.0</ele><time>2026-03-29T07:40:18Z</time></trkpt><trkpt lat="43.195466436108674" lon="12.26029629804312"><ele>380.0</ele><time>2026-03-29T07:40:19Z</time></trkpt><trkpt lat="43.1955752760231" lon="12.260341784951883"><ele>380.0</ele><time>2026-03-29T07:40:21Z</time></trkpt><trkpt lat="43.19570525103802" lon="12.260269374984158"><ele>380.0</ele><time>2026-03-29T07:40:23Z</time></trkpt><trkpt lat="43.195782431329626" lon="12.260249526495187"><ele>380.0</ele><time>2026-03-29T07:40:24Z</time></trkpt><trkpt lat="43.19585413155969" lon="12.260215697864183"><ele>380.33333333333337</ele><time>2026-03-29T07:40:25Z</time></trkpt><trkpt lat="43.19591485206098" lon="12.260155657033259"><ele>380.6666666666667</ele><time>2026-03-29T07:40:26Z</time></trkpt><trkpt lat="43.195961693517" lon="12.260057263892412"><ele>381.0</ele><time>2026-03-29T07:40:27Z</time></trkpt><trkpt lat="43.19602583214978" lon="12.25999702708393"><ele>381.3333333333333</ele><time>2026-03-29T07:40:29Z</time></trkpt><trkpt lat="43.19610818064382" lon="12.260017111803503"><ele>381.66666666666663</ele><time>2026-03-29T07:40:31Z</time></trkpt><trkpt lat="43.196172832336934" lon="12.26001600033156"><ele>382.0</ele><time>2026-03-29T07:40:33Z</time></trkpt><trkpt lat="43.196249754585885" lon="12.260012120432076"><ele>382.0</ele><time>2026-03-29T07:40:34Z</time></trkpt><trkpt lat="43.196351754414366" lon="12.260027866593846"><ele>382.0</ele><time>2026-03-29T07:40:35Z</time></trkpt><trkpt lat="43.19645580056451" lon="12.26001054743436"><ele>382.0</ele><time>2026-03-29T07:40:36Z</time></trkpt><trkpt lat="43.196545616464505" lon="12.260007064055818"><ele>382.0</ele><time>2026-03-29T07:40:37Z</time></trkpt><trkpt lat="43.196613134805894" lon="12.260018677652551"><ele>382.0</ele><time>2026-03-29T07:40:38Z</time></trkpt><trkpt lat="43.19668716436149" lon="12.2600273865091"><ele>382.0</ele><time>2026-03-29T07:40:39Z</time></trkpt><trkpt lat="43.19675923349125" lon="12.260051686510211"><ele>381.6</ele><time>2026-03-29T07:40:40Z</time></trkpt><trkpt lat="43.19687130390252" lon="12.260059308976684"><ele>381.20000000000005</ele><time>2026-03-29T07:40:42Z</time></trkpt><trkpt lat="43.196994446501684" lon="12.259995711093552"><ele>380.8</ele><time>2026-03-29T07:40:44Z</time></trkpt><trkpt lat="43.19705822993767" lon="12.259937900767211"><ele>380.4</ele><time>2026-03-29T07:40:45Z</time></trkpt><trkpt lat="43.19714696286355" lon="12.259855744094223"><ele>380.0</ele><time>2026-03-29T07:40:47Z</time></trkpt><trkpt lat="43.19721005683245" lon="12.25986213139404"><ele>380.0</ele><time>2026-03-29T07:40:48Z</time></trkpt><trkpt lat="43.19727994283455" lon="12.259899433802781"><ele>380.0</ele><time>2026-03-29T07:40:49Z</time></trkpt><trkpt lat="43.19735188563896" lon="12.259935325345296"><ele>380.0</ele><time>2026-03-29T07:40:50Z</time></trkpt><trkpt lat="43.19744084428971" lon="12.259964202565026"><ele>380.0</ele><time>2026-03-29T07:40:52Z</time></trkpt><trkpt lat="43.19755892310003" lon="12.259974493671537"><ele>380.0</ele><time>2026-03-29T07:40:54Z</time></trkpt><trkpt lat="43.19762784886285" lon="12.259983329026811"><ele>380.0</ele><time>2026-03-29T07:40:55Z</time></trkpt><trkpt lat="43.197691773345404" lon="12.259953880657655"><ele>379.6</ele><time>2026-03-29T07:40:56Z</time></trkpt><trkpt lat="43.197782331398685" lon="12.259911372733029"><ele>379.2</ele><time>2026-03-29T07:40:57Z</time></trkpt><trkpt lat="43.197875351525255" lon="12.259905565348355"><ele>378.79999999999995</ele><time>2026-03-29T07:40:58Z</time></trkpt><trkpt lat="43.19795554985648" lon="12.259926491111012"><ele>378.4</ele><time>2026-03-29T07:40:59Z</time></trkpt><trkpt lat="43.19806737838545" lon="12.259969552767613"><ele>378.0</ele><time>2026-03-29T07:41:01Z</time></trkpt><trkpt lat="43.19813525898156" lon="12.259961809120524"><ele>378.6666666666667</ele><time>2026-03-29T07:41:02Z</time></trkpt><trkpt lat="43.19821273826026" lon="12.25996820170436"><ele>379.3333333333333</ele><time>2026-03-29T07:41:03Z</time></trkpt><trkpt lat="43.198292003646024" lon="12.259963355885784"><ele>380.0</ele><time>2026-03-29T07:41:04Z</time></trkpt><trkpt lat="43.198376574262475" lon="12.259915152425378"><ele>380.66666666666663</ele><time>2026-03-29T07:41:06Z</time></trkpt><trkpt lat="43.19844466985637" lon="12.259868301525563"><ele>381.3333333333333</ele><time>2026-03-29T07:41:08Z</time></trkpt><trkpt lat="43.198527413846605" lon="12.259857998838685"><ele>382.0</ele><time>2026-03-29T07:41:10Z</time></trkpt><trkpt lat="43.1985993881136" lon="12.259848948421164"><ele>382.0</ele><time>2026-03-29T07:41:13Z</time></trkpt><trkpt lat="43.19867458433587" lon="12.259849411562715"><ele>382.0</ele><time>2026-03-29T07:41:15Z</time></trkpt><trkpt lat="43.19879421085301" lon="12.259821941360423"><ele>382.0</ele><time>2026-03-29T07:41:17Z</time></trkpt><trkpt lat="43.198868111224456" lon="12.259772787550139"><ele>382.0</ele><time>2026-03-29T07:41:25Z</time></trkpt><trkpt lat="43.198931063271864" lon="12.259748496584592"><ele>382.0</ele><time>2026-03-29T07:41:51.999Z</time></trkpt><trkpt lat="43.19902090265911" lon="12.259706886320847"><ele>382.0</ele><time>2026-03-29T07:41:54.999Z</time></trkpt><trkpt lat="43.19908080309959" lon="12.259673140615453"><ele>385.0</ele><time>2026-03-29T07:41:57.999Z</time></trkpt><trkpt lat="43.19911902441121" lon="12.259599227521049"><ele>388.0</ele><time>2026-03-29T07:42:03.999Z</time></trkpt><trkpt lat="43.19907082040644" lon="12.25951678021961"><ele>391.0</ele><time>2026-03-29T07:42:05.999Z</time></trkpt><trkpt lat="43.1990640879768" lon="12.259419806387688"><ele>394.0</ele><time>2026-03-29T07:42:07.999Z</time></trkpt><trkpt lat="43.19914487713116" lon="12.25942331600923"><ele>397.00000000000006</ele><time>2026-03-29T07:42:09.999Z</time></trkpt><trkpt lat="43.199150194712736" lon="12.25931275280537"><ele>400.0</ele><time>2026-03-29T07:43:27Z</time></trkpt><trkpt lat="43.19913970239407" lon="12.259194817588282"><ele>400.00000000000006</ele><time>2026-03-29T07:44:01.999Z</time></trkpt><trkpt lat="43.19912201970624" lon="12.259061162573127"><ele>400.0</ele><time>2026-03-29T07:46:18.999Z</time></trkpt><trkpt lat="43.199103890177916" lon="12.258958088875916"><ele>400.0</ele><time>2026-03-29T07:46:26.999Z</time></trkpt><trkpt lat="43.19906719054811" lon="12.25886402317953"><ele>400.0</ele><time>2026-03-29T07:46:31Z</time></trkpt><trkpt lat="43.199027666263895" lon="12.258792053412948"><ele>400.00000000000006</ele><time>2026-03-29T07:46:38Z</time></trkpt><trkpt lat="43.19900207977923" lon="12.258688658025221"><ele>400.0</ele><time>2026-03-29T07:47:13Z</time></trkpt><trkpt lat="43.19900859968785" lon="12.258602601722572"><ele>403.33333333333337</ele><time>2026-03-29T07:47:17Z</time></trkpt><trkpt lat="43.19906543414933" lon="12.258560756010278"><ele>406.6666666666667</ele><time>2026-03-29T07:47:39.999Z</time></trkpt><trkpt lat="43.199114385626885" lon="12.258477372527151"><ele>410.0</ele><time>2026-03-29T07:47:41.999Z</time></trkpt><trkpt lat="43.199178052540475" lon="12.258397624622342"><ele>413.33333333333337</ele><time>2026-03-29T07:48:49Z</time></trkpt><trkpt lat="43.19924486954648" lon="12.258390009774383"><ele>416.6666666666667</ele><time>2026-03-29T07:48:52Z</time></trkpt><trkpt lat="43.199328371321485" lon="12.25829322865966"><ele>420.0</ele><time>2026-03-29T07:48:55Z</time></trkpt><trkpt lat="43.1993784929407" lon="12.258221732990856"><ele>420.0</ele><time>2026-03-29T07:48:57Z</time></trkpt><trkpt lat="43.19939312808348" lon="12.258127013665211"><ele>420.0</ele><time>2026-03-29T07:48:59Z</time></trkpt><trkpt lat="43.19941685664552" lon="12.258009347312191"><ele>420.0</ele><time>2026-03-29T07:49:01Z</time></trkpt><trkpt lat="43.1994123108491" lon="12.257872664997393"><ele>420.0</ele><time>2026-03-29T07:49:03Z</time></trkpt><trkpt lat="43.19940977318437" lon="12.257785691839493"><ele>420.0</ele><time>2026-03-29T07:49:04Z</time></trkpt><trkpt lat="43.199406760142736" lon="12.257696226802015"><ele>420.0</ele><time>2026-03-29T07:49:05Z</time></trkpt><trkpt lat="43.19939098691449" lon="12.257551540248793"><ele>423.3333333333333</ele><time>2026-03-29T07:49:07Z</time></trkpt><trkpt lat="43.199383718244036" lon="12.257404966194091"><ele>426.66666666666663</ele><time>2026-03-29T07:49:09Z</time></trkpt><trkpt lat="43.199377271845165" lon="12.257259024488933"><ele>430.0</ele><time>2026-03-29T07:49:11Z</time></trkpt><trkpt lat="43.19931814998557" lon="12.257179742961137"><ele>433.3333333333333</ele><time>2026-03-29T07:49:13Z</time></trkpt><trkpt lat="43.19925316970345" lon="12.257154721799063"><ele>436.66666666666663</ele><time>2026-03-29T07:49:15Z</time></trkpt><trkpt lat="43.1991750951386" lon="12.257118271011453"><ele>440.0</ele><time>2026-03-29T07:49:17Z</time></trkpt><trkpt lat="43.19922477953018" lon="12.257051223042387"><ele>445.6</ele><time>2026-03-29T07:49:24Z</time></trkpt><trkpt lat="43.19930038881062" lon="12.257036503955485"><ele>451.2</ele><time>2026-03-29T07:49:27.999Z</time></trkpt><trkpt lat="43.199378096724324" lon="12.257025124815584"><ele>456.79999999999995</ele><time>2026-03-29T07:49:31.999Z</time></trkpt><trkpt lat="43.19944629700577" lon="12.257015644274556"><ele>462.4</ele><time>2026-03-29T07:49:34.999Z</time></trkpt><trkpt lat="43.199536683069624" lon="12.257029375694524"><ele>468.0</ele><time>2026-03-29T07:49:37.999Z</time></trkpt><trkpt lat="43.199839142791575" lon="12.257023862054039"><ele>468.0</ele><time>2026-03-29T07:49:40.999Z</time></trkpt><trkpt lat="43.19992196385896" lon="12.257024095828282"><ele>467.99999999999994</ele><time>2026-03-29T07:49:41.999Z</time></trkpt><trkpt lat="43.20002107387861" lon="12.25704192393136"><ele>467.99999999999994</ele><time>2026-03-29T07:49:42.999Z</time></trkpt><trkpt lat="43.200146500097276" lon="12.257103062372325"><ele>468.0</ele><time>2026-03-29T07:49:43.999Z</time></trkpt><trkpt lat="43.20025637736777" lon="12.257155256832883"><ele>468.0</ele><time>2026-03-29T07:49:44.999Z</time></trkpt><trkpt lat="43.20035513836019" lon="12.257215295746391"><ele>468.0</ele><time>2026-03-29T07:49:45.999Z</time></trkpt><trkpt lat="43.2004461289821" lon="12.257260397094475"><ele>468.0</ele><time>2026-03-29T07:49:46.999Z</time></trkpt><trkpt lat="43.20052142343611" lon="12.257302016402491"><ele>468.0</ele><time>2026-03-29T07:49:47.999Z</time></trkpt><trkpt lat="43.20060173647593" lon="12.257309121374494"><ele>468.0</ele><time>2026-03-29T07:49:48.999Z</time></trkpt><trkpt lat="43.200669857611196" lon="12.257289391661885"><ele>468.0</ele><time>2026-03-29T07:49:49.999Z</time></trkpt><trkpt lat="43.20075031027732" lon="12.257262466443532"><ele>468.0</ele><time>2026-03-29T07:49:50.999Z</time></trkpt><trkpt lat="43.20082748826986" lon="12.25722225353963"><ele>465.8333333333333</ele><time>2026-03-29T07:49:51.999Z</time></trkpt><trkpt lat="43.20090748814508" lon="12.257160696409002"><ele>463.66666666666663</ele><time>2026-03-29T07:49:52.999Z</time></trkpt><trkpt lat="43.20098703201236" lon="12.25709991196288"><ele>461.5</ele><time>2026-03-29T07:49:53.999Z</time></trkpt><trkpt lat="43.201065889545156" lon="12.257037659824018"><ele>459.3333333333333</ele><time>2026-03-29T07:49:54.999Z</time></trkpt><trkpt lat="43.20114613286364" lon="12.256992050910467"><ele>457.16666666666663</ele><time>2026-03-29T07:49:55.999Z</time></trkpt><trkpt lat="43.20121237387193" lon="12.256960204304114"><ele>455.0</ele><time>2026-03-29T07:49:56.999Z</time></trkpt><trkpt lat="43.20127227973254" lon="12.256883874302524"><ele>455.0</ele><time>2026-03-29T07:49:58.999Z</time></trkpt><trkpt lat="43.20125236931806" lon="12.256796511721047"><ele>455.0</ele><time>2026-03-29T07:50:01.999Z</time></trkpt><trkpt lat="43.2012811091406" lon="12.256651042416502"><ele>455.0</ele><time>2026-03-29T07:50:03.999Z</time></trkpt><trkpt lat="43.201353531458274" lon="12.256507815752391"><ele>455.0</ele><time>2026-03-29T07:50:05.999Z</time></trkpt><trkpt lat="43.20147698693625" lon="12.256448793509723"><ele>455.0</ele><time>2026-03-29T07:50:07.999Z</time></trkpt><trkpt lat="43.201571971519115" lon="12.25647004467395"><ele>452.49999999999994</ele><time>2026-03-29T07:50:08.999Z</time></trkpt><trkpt lat="43.20166080010453" lon="12.256491733662871"><ele>450.0</ele><time>2026-03-29T07:50:09.999Z</time></trkpt><trkpt lat="43.2017452671957" lon="12.256510690639157"><ele>447.5</ele><time>2026-03-29T07:50:10.999Z</time></trkpt><trkpt lat="43.201842889663624" lon="12.256514896708879"><ele>445.0</ele><time>2026-03-29T07:50:11.999Z</time></trkpt><trkpt lat="43.201896950442816" lon="12.256576059424425"><ele>442.49999999999994</ele><time>2026-03-29T07:50:12.999Z</time></trkpt><trkpt lat="43.20195746001365" lon="12.2566345185204"><ele>440.0</ele><time>2026-03-29T07:50:13.999Z</time></trkpt><trkpt lat="43.20201929777025" lon="12.256680100177586"><ele>440.0</ele><time>2026-03-29T07:50:14.999Z</time></trkpt><trkpt lat="43.2021381434665" lon="12.256628039329097"><ele>440.0</ele><time>2026-03-29T07:50:16.999Z</time></trkpt><trkpt lat="43.20224637514306" lon="12.256592299691107"><ele>440.0</ele><time>2026-03-29T07:50:18.999Z</time></trkpt><trkpt lat="43.2023363444698" lon="12.256642604244089"><ele>440.0</ele><time>2026-03-29T07:50:20.999Z</time></trkpt><trkpt lat="43.202349728407526" lon="12.256727610663983"><ele>440.0</ele><time>2026-03-29T07:50:21.999Z</time></trkpt><trkpt lat="43.20233794472718" lon="12.256862326839693"><ele>440.0</ele><time>2026-03-29T07:50:22.999Z</time></trkpt><trkpt lat="43.20232095457746" lon="12.256962505219985"><ele>440.0</ele><time>2026-03-29T07:50:23.999Z</time></trkpt><trkpt lat="43.20232770654938" lon="12.257057778821062"><ele>440.0</ele><time>2026-03-29T07:50:25.999Z</time></trkpt><trkpt lat="43.202389782564495" lon="12.257001649379413"><ele>440.0</ele><time>2026-03-29T07:50:28.999Z</time></trkpt><trkpt lat="43.20261274956533" lon="12.256786223854396"><ele>441.16666666666663</ele><time>2026-03-29T07:50:31.999Z</time></trkpt><trkpt lat="43.20264128479251" lon="12.25670318797367"><ele>442.3333333333333</ele><time>2026-03-29T07:50:32.999Z</time></trkpt><trkpt lat="43.20266168505836" lon="12.256612187991426"><ele>443.5</ele><time>2026-03-29T07:50:33.999Z</time></trkpt><trkpt lat="43.20268530243883" lon="12.25653078710285"><ele>444.66666666666663</ele><time>2026-03-29T07:50:34.999Z</time></trkpt><trkpt lat="43.20274998046698" lon="12.256424780803771"><ele>445.8333333333333</ele><time>2026-03-29T07:50:36.999Z</time></trkpt><trkpt lat="43.202842677207265" lon="12.256352794151706"><ele>447.0</ele><time>2026-03-29T07:50:38.999Z</time></trkpt><trkpt lat="43.202906794713975" lon="12.256330366588436"><ele>447.0</ele><time>2026-03-29T07:50:39.999Z</time></trkpt><trkpt lat="43.20296129641523" lon="12.25637878435172"><ele>447.0</ele><time>2026-03-29T07:50:41.999Z</time></trkpt><trkpt lat="43.20293919531192" lon="12.256507870135202"><ele>447.0</ele><time>2026-03-29T07:50:45Z</time></trkpt><trkpt lat="43.202933475768795" lon="12.256634644676677"><ele>447.0</ele><time>2026-03-29T07:50:47Z</time></trkpt><trkpt lat="43.202898498593385" lon="12.256770878603827"><ele>447.0</ele><time>2026-03-29T07:50:49Z</time></trkpt><trkpt lat="43.20284353764293" lon="12.256851504805981"><ele>447.0</ele><time>2026-03-29T07:50:50Z</time></trkpt><trkpt lat="43.20283119397129" lon="12.256966720300454"><ele>443.25</ele><time>2026-03-29T07:50:53Z</time></trkpt><trkpt lat="43.202820858701884" lon="12.257071830210457"><ele>439.5</ele><time>2026-03-29T07:50:57Z</time></trkpt><trkpt lat="43.20282824062421" lon="12.257437059877947"><ele>435.75</ele><time>2026-03-29T07:50:58Z</time></trkpt><trkpt lat="43.20284386536031" lon="12.257575802818264"><ele>432.0</ele><time>2026-03-29T07:50:59Z</time></trkpt><trkpt lat="43.2028900178487" lon="12.257678536407457"><ele>430.8333333333333</ele><time>2026-03-29T07:51:00Z</time></trkpt><trkpt lat="43.20298791193856" lon="12.257812269667587"><ele>429.66666666666663</ele><time>2026-03-29T07:51:02Z</time></trkpt><trkpt lat="43.203043257739424" lon="12.257885484643516"><ele>428.5</ele><time>2026-03-29T07:51:03Z</time></trkpt><trkpt lat="43.203077731722495" lon="12.257964423131996"><ele>427.3333333333333</ele><time>2026-03-29T07:51:04Z</time></trkpt><trkpt lat="43.20311406977548" lon="12.258037246182283"><ele>426.16666666666663</ele><time>2026-03-29T07:51:05Z</time></trkpt><trkpt lat="43.20316150282929" lon="12.25810473416447"><ele>425.0</ele><time>2026-03-29T07:51:06Z</time></trkpt><trkpt lat="43.203227439014164" lon="12.258247780348817"><ele>424.8333333333333</ele><time>2026-03-29T07:51:08Z</time></trkpt><trkpt lat="43.20324194016702" lon="12.258353245882434"><ele>424.66666666666663</ele><time>2026-03-29T07:51:09Z</time></trkpt><trkpt lat="43.20325935076218" lon="12.258486423492885"><ele>424.5</ele><time>2026-03-29T07:51:10Z</time></trkpt><trkpt lat="43.20326309929461" lon="12.258616243578423"><ele>424.33333333333337</ele><time>2026-03-29T07:51:11Z</time></trkpt><trkpt lat="43.20324867295984" lon="12.258742880499788"><ele>424.1666666666667</ele><time>2026-03-29T07:51:12Z</time></trkpt><trkpt lat="43.20321846227512" lon="12.258829058487578"><ele>424.0</ele><time>2026-03-29T07:51:13Z</time></trkpt><trkpt lat="43.20313912640156" lon="12.25893173801023"><ele>429.2</ele><time>2026-03-29T07:51:15Z</time></trkpt><trkpt lat="43.20303902860125" lon="12.259000403096655"><ele>434.4</ele><time>2026-03-29T07:51:16Z</time></trkpt><trkpt lat="43.20306950857063" lon="12.259104407286058"><ele>439.6</ele><time>2026-03-29T07:51:19Z</time></trkpt><trkpt lat="43.20317473071027" lon="12.259118079721693"><ele>444.8</ele><time>2026-03-29T07:51:20Z</time></trkpt><trkpt lat="43.20326872948529" lon="12.259160910023192"><ele>450.0</ele><time>2026-03-29T07:51:22Z</time></trkpt><trkpt lat="43.20322496285406" lon="12.259248087234127"><ele>450.0</ele><time>2026-03-29T07:51:24Z</time></trkpt><trkpt lat="43.20313607802105" lon="12.25923843990444"><ele>450.0</ele><time>2026-03-29T07:51:26Z</time></trkpt><trkpt lat="43.20303607908463" lon="12.25929155584529"><ele>450.0</ele><time>2026-03-29T07:51:29Z</time></trkpt><trkpt lat="43.20295675096428" lon="12.259359656998145"><ele>450.0</ele><time>2026-03-29T07:51:32Z</time></trkpt><trkpt lat="43.20290040738338" lon="12.259460496338903"><ele>450.0</ele><time>2026-03-29T07:51:35Z</time></trkpt><trkpt lat="43.202797748208965" lon="12.259439376464487"><ele>450.0</ele><time>2026-03-29T07:51:36Z</time></trkpt><trkpt lat="43.202743463580326" lon="12.25950483653727"><ele>450.0</ele><time>2026-03-29T07:51:36.999Z</time></trkpt><trkpt lat="43.20263249367103" lon="12.25956144887169"><ele>450.0</ele><time>2026-03-29T07:51:37.999Z</time></trkpt><trkpt lat="43.202567900298554" lon="12.25962062523855"><ele>450.0</ele><time>2026-03-29T07:51:38.999Z</time></trkpt><trkpt lat="43.20251129748803" lon="12.25968088302876"><ele>450.0</ele><time>2026-03-29T07:51:39.999Z</time></trkpt><trkpt lat="43.202449319776214" lon="12.259759426284592"><ele>450.0</ele><time>2026-03-29T07:51:40.999Z</time></trkpt><trkpt lat="43.202358221829236" lon="12.259819688496947"><ele>451.8</ele><time>2026-03-29T07:51:41.999Z</time></trkpt><trkpt lat="43.20226966588368" lon="12.259884416049616"><ele>453.6</ele><time>2026-03-29T07:51:42.999Z</time></trkpt><trkpt lat="43.20222117468804" lon="12.259942035186151"><ele>455.4</ele><time>2026-03-29T07:51:43.999Z</time></trkpt><trkpt lat="43.20213755895106" lon="12.260046504289626"><ele>457.2</ele><time>2026-03-29T07:51:45.999Z</time></trkpt><trkpt lat="43.20221935257528" lon="12.260133487942124"><ele>459.0</ele><time>2026-03-29T07:51:48.999Z</time></trkpt><trkpt lat="43.20231449516122" lon="12.260183384870148"><ele>462.5</ele><time>2026-03-29T07:51:50.999Z</time></trkpt><trkpt lat="43.202398834960846" lon="12.260232535061762"><ele>466.0</ele><time>2026-03-29T07:51:52.999Z</time></trkpt><trkpt lat="43.20246509836805" lon="12.260263202409849"><ele>469.5</ele><time>2026-03-29T07:51:56.999Z</time></trkpt><trkpt lat="43.20253914038425" lon="12.260311919270864"><ele>473.0</ele><time>2026-03-29T07:51:58.999Z</time></trkpt><trkpt lat="43.202608598269485" lon="12.260385803759656"><ele>476.5</ele><time>2026-03-29T07:51:59.999Z</time></trkpt><trkpt lat="43.20267133388019" lon="12.260451425688979"><ele>480.0</ele><time>2026-03-29T07:52:00.999Z</time></trkpt><trkpt lat="43.20276134044354" lon="12.260508266441613"><ele>480.0</ele><time>2026-03-29T07:52:01.999Z</time></trkpt><trkpt lat="43.20284270190651" lon="12.260615087380646"><ele>480.0</ele><time>2026-03-29T07:52:02.999Z</time></trkpt><trkpt lat="43.202888386371164" lon="12.260702299400943"><ele>480.0</ele><time>2026-03-29T07:52:03.999Z</time></trkpt><trkpt lat="43.20295058399149" lon="12.260772397287612"><ele>480.0</ele><time>2026-03-29T07:52:04.999Z</time></trkpt><trkpt lat="43.203045629690294" lon="12.260873768791546"><ele>480.0</ele><time>2026-03-29T07:52:06.999Z</time></trkpt><trkpt lat="43.20310840430836" lon="12.260943209694029"><ele>481.5</ele><time>2026-03-29T07:52:09.999Z</time></trkpt><trkpt lat="43.203159807813776" lon="12.261021547168653"><ele>483.0</ele><time>2026-03-29T07:52:12.999Z</time></trkpt><trkpt lat="43.20322624037342" lon="12.26106261476261"><ele>484.5</ele><time>2026-03-29T07:52:14.999Z</time></trkpt><trkpt lat="43.20329056789204" lon="12.261101777674336"><ele>486.0</ele><time>2026-03-29T07:52:16.999Z</time></trkpt><trkpt lat="43.203342421463894" lon="12.261177573457665"><ele>487.5</ele><time>2026-03-29T07:52:18.999Z</time></trkpt><trkpt lat="43.203390297682546" lon="12.26125129860782"><ele>489.0</ele><time>2026-03-29T07:52:20.999Z</time></trkpt><trkpt lat="43.203442099026205" lon="12.261358363558841"><ele>491.0</ele><time>2026-03-29T07:52:23.999Z</time></trkpt><trkpt lat="43.20350549756351" lon="12.26145262071729"><ele>493.0</ele><time>2026-03-29T07:52:24.999Z</time></trkpt><trkpt lat="43.20358698483284" lon="12.261579209610087"><ele>495.0</ele><time>2026-03-29T07:52:25.999Z</time></trkpt><trkpt lat="43.20366710824768" lon="12.261637685579219"><ele>497.0</ele><time>2026-03-29T07:52:26.999Z</time></trkpt><trkpt lat="43.20373318640264" lon="12.26170370783183"><ele>499.0</ele><time>2026-03-29T07:52:27.999Z</time></trkpt><trkpt lat="43.20379808483898" lon="12.261777594432072"><ele>499.0</ele><time>2026-03-29T07:52:28.999Z</time></trkpt><trkpt lat="43.20390049881454" lon="12.261839385302675"><ele>499.0</ele><time>2026-03-29T07:52:29.999Z</time></trkpt><trkpt lat="43.2040151113806" lon="12.261879101214845"><ele>499.0</ele><time>2026-03-29T07:52:30.999Z</time></trkpt><trkpt lat="43.20414458095001" lon="12.261917551987876"><ele>499.0</ele><time>2026-03-29T07:52:31.999Z</time></trkpt><trkpt lat="43.20425462134824" lon="12.261943928705586"><ele>502.79999999999995</ele><time>2026-03-29T07:52:32.999Z</time></trkpt><trkpt lat="43.20437260438067" lon="12.261975813265433"><ele>506.59999999999997</ele><time>2026-03-29T07:52:33.999Z</time></trkpt><trkpt lat="43.20445850646769" lon="12.262013598853407"><ele>510.4</ele><time>2026-03-29T07:52:34.999Z</time></trkpt><trkpt lat="43.2045433094223" lon="12.262078382553982"><ele>514.1999999999999</ele><time>2026-03-29T07:52:35.999Z</time></trkpt><trkpt lat="43.204625901056744" lon="12.262163885833658"><ele>518.0</ele><time>2026-03-29T07:52:36.999Z</time></trkpt><trkpt lat="43.20469141719871" lon="12.262271578957675"><ele>515.8</ele><time>2026-03-29T07:52:37.999Z</time></trkpt><trkpt lat="43.20475498430587" lon="12.262354130779782"><ele>513.5999999999999</ele><time>2026-03-29T07:52:38.999Z</time></trkpt><trkpt lat="43.204806067015426" lon="12.262424735846045"><ele>511.40000000000003</ele><time>2026-03-29T07:52:39.999Z</time></trkpt><trkpt lat="43.20490916447758" lon="12.262454074780393"><ele>509.20000000000005</ele><time>2026-03-29T07:52:41.999Z</time></trkpt><trkpt lat="43.204998781027236" lon="12.262524170558072"><ele>507.0</ele><time>2026-03-29T07:52:43.999Z</time></trkpt><trkpt lat="43.20509755260356" lon="12.262567801151256"><ele>510.6666666666667</ele><time>2026-03-29T07:52:45.999Z</time></trkpt><trkpt lat="43.20520507449871" lon="12.262585426522959"><ele>514.3333333333334</ele><time>2026-03-29T07:53:03Z</time></trkpt><trkpt lat="43.20528581348864" lon="12.262621698763397"><ele>518.0</ele><time>2026-03-29T07:53:04Z</time></trkpt><trkpt lat="43.205371875950846" lon="12.262683103342813"><ele>521.6666666666667</ele><time>2026-03-29T07:53:05Z</time></trkpt><trkpt lat="43.205418316347476" lon="12.262758969056549"><ele>525.3333333333334</ele><time>2026-03-29T07:53:06Z</time></trkpt><trkpt lat="43.205458325698615" lon="12.2628589117162"><ele>529.0</ele><time>2026-03-29T07:53:07Z</time></trkpt><trkpt lat="43.205491890516775" lon="12.262973540155901"><ele>529.0</ele><time>2026-03-29T07:53:08Z</time></trkpt><trkpt lat="43.20554256990094" lon="12.263076868642834"><ele>529.0</ele><time>2026-03-29T07:53:09Z</time></trkpt><trkpt lat="43.20562275361765" lon="12.263170244280884"><ele>529.0</ele><time>2026-03-29T07:53:10Z</time></trkpt><trkpt lat="43.205698219528145" lon="12.263236198450324"><ele>529.0</ele><time>2026-03-29T07:53:11Z</time></trkpt><trkpt lat="43.20575587562473" lon="12.263293811375563"><ele>529.0</ele><time>2026-03-29T07:53:12Z</time></trkpt><trkpt lat="43.20581984527244" lon="12.263379789368921"><ele>529.0</ele><time>2026-03-29T07:53:13Z</time></trkpt><trkpt lat="43.20589845101211" lon="12.263429125259977"><ele>531.4</ele><time>2026-03-29T07:53:14Z</time></trkpt><trkpt lat="43.20598185663669" lon="12.26346862717146"><ele>533.8</ele><time>2026-03-29T07:53:15Z</time></trkpt><trkpt lat="43.206046526927516" lon="12.263517500156512"><ele>536.2</ele><time>2026-03-29T07:53:16Z</time></trkpt><trkpt lat="43.20611755910081" lon="12.263592032700062"><ele>538.6</ele><time>2026-03-29T07:53:18Z</time></trkpt><trkpt lat="43.20619055527647" lon="12.26360959469748"><ele>541.0</ele><time>2026-03-29T07:53:21Z</time></trkpt><trkpt lat="43.20627626616681" lon="12.263758339469696"><ele>541.0</ele><time>2026-03-29T07:53:22.999Z</time></trkpt><trkpt lat="43.206337852709645" lon="12.26385289712509"><ele>541.0</ele><time>2026-03-29T07:53:23.999Z</time></trkpt><trkpt lat="43.20639911876708" lon="12.26394872065205"><ele>541.0</ele><time>2026-03-29T07:53:24.999Z</time></trkpt><trkpt lat="43.20645719291462" lon="12.264043996884867"><ele>541.0</ele><time>2026-03-29T07:53:25.999Z</time></trkpt><trkpt lat="43.20651870725474" lon="12.264136099588479"><ele>541.0</ele><time>2026-03-29T07:53:26.999Z</time></trkpt><trkpt lat="43.206569064163126" lon="12.26423378673666"><ele>542.3333333333334</ele><time>2026-03-29T07:53:27.999Z</time></trkpt><trkpt lat="43.20659484676836" lon="12.264352531878103"><ele>543.6666666666667</ele><time>2026-03-29T07:53:28.999Z</time></trkpt><trkpt lat="43.206591128955715" lon="12.264471127292992"><ele>545.0</ele><time>2026-03-29T07:53:29.999Z</time></trkpt><trkpt lat="43.20658505247196" lon="12.26457955303555"><ele>546.3333333333334</ele><time>2026-03-29T07:53:30.999Z</time></trkpt><trkpt lat="43.20655830188518" lon="12.26466861740057"><ele>547.6666666666666</ele><time>2026-03-29T07:53:31.999Z</time></trkpt><trkpt lat="43.20649907402856" lon="12.264734067101523"><ele>549.0</ele><time>2026-03-29T07:53:32.999Z</time></trkpt><trkpt lat="43.20643402474799" lon="12.264811529411093"><ele>547.2</ele><time>2026-03-29T07:53:34.999Z</time></trkpt><trkpt lat="43.20654359431726" lon="12.264911060293764"><ele>545.4</ele><time>2026-03-29T07:53:40.999Z</time></trkpt><trkpt lat="43.20665556051579" lon="12.264940312586397"><ele>543.6</ele><time>2026-03-29T07:53:42.999Z</time></trkpt><trkpt lat="43.20673764697224" lon="12.264902835775636"><ele>541.8</ele><time>2026-03-29T07:53:44.999Z</time></trkpt><trkpt lat="43.20681684735452" lon="12.26490737993852"><ele>540.0</ele><time>2026-03-29T07:53:46.999Z</time></trkpt><trkpt lat="43.20689093391895" lon="12.264871295235924"><ele>540.0</ele><time>2026-03-29T07:53:48.999Z</time></trkpt><trkpt lat="43.20695872588753" lon="12.26479464644057"><ele>540.0</ele><time>2026-03-29T07:53:50.999Z</time></trkpt><trkpt lat="43.207019820988215" lon="12.264706506667808"><ele>540.0</ele><time>2026-03-29T07:53:53.999Z</time></trkpt><trkpt lat="43.20710195228535" lon="12.264685988508434"><ele>540.0</ele><time>2026-03-29T07:53:55.999Z</time></trkpt><trkpt lat="43.20718133061356" lon="12.264660666051407"><ele>540.0</ele><time>2026-03-29T07:53:57.999Z</time></trkpt><trkpt lat="43.20725382015949" lon="12.264625365841875"><ele>540.0</ele><time>2026-03-29T07:53:59.999Z</time></trkpt><trkpt lat="43.20731832328198" lon="12.264593471775878"><ele>542.5</ele><time>2026-03-29T07:54:02.999Z</time></trkpt><trkpt lat="43.20738153645218" lon="12.264619101804664"><ele>545.0</ele><time>2026-03-29T07:54:04.999Z</time></trkpt><trkpt lat="43.2074693622139" lon="12.264597504666979"><ele>547.5</ele><time>2026-03-29T07:54:07.999Z</time></trkpt><trkpt lat="43.20753491346385" lon="12.264568798676157"><ele>550.0</ele><time>2026-03-29T07:54:09.999Z</time></trkpt><trkpt lat="43.2076030857046" lon="12.264553158229099"><ele>552.5</ele><time>2026-03-29T07:54:11.999Z</time></trkpt><trkpt lat="43.20773975906527" lon="12.264490242010691"><ele>555.0</ele><time>2026-03-29T07:54:13.999Z</time></trkpt><trkpt lat="43.20782497065582" lon="12.264455496611175"><ele>555.0</ele><time>2026-03-29T07:54:14.999Z</time></trkpt><trkpt lat="43.20788680846543" lon="12.264413134948267"><ele>555.0</ele><time>2026-03-29T07:54:15.999Z</time></trkpt><trkpt lat="43.2079621215493" lon="12.264366931328315"><ele>555.0</ele><time>2026-03-29T07:54:16.999Z</time></trkpt><trkpt lat="43.20806618058999" lon="12.264324065982223"><ele>555.0</ele><time>2026-03-29T07:54:17.999Z</time></trkpt><trkpt lat="43.20817902101171" lon="12.264295228840401"><ele>555.0</ele><time>2026-03-29T07:54:18.999Z</time></trkpt><trkpt lat="43.208293889527" lon="12.264281802513961"><ele>552.8</ele><time>2026-03-29T07:54:19.999Z</time></trkpt><trkpt lat="43.208412803148796" lon="12.264283244542176"><ele>550.6</ele><time>2026-03-29T07:54:20.999Z</time></trkpt><trkpt lat="43.208527343373625" lon="12.264288151343369"><ele>548.4</ele><time>2026-03-29T07:54:21.999Z</time></trkpt><trkpt lat="43.208621105302186" lon="12.26428919965639"><ele>546.2</ele><time>2026-03-29T07:54:22.999Z</time></trkpt><trkpt lat="43.20871854653449" lon="12.264290290499197"><ele>544.0</ele><time>2026-03-29T07:54:23.999Z</time></trkpt><trkpt lat="43.20882678809318" lon="12.264292601338909"><ele>544.0</ele><time>2026-03-29T07:54:24.999Z</time></trkpt><trkpt lat="43.20893735034912" lon="12.26429755595952"><ele>544.0</ele><time>2026-03-29T07:54:25.999Z</time></trkpt><trkpt lat="43.209057847254236" lon="12.264305955610412"><ele>544.0</ele><time>2026-03-29T07:54:26.999Z</time></trkpt><trkpt lat="43.20918231205869" lon="12.264307920716536"><ele>544.0</ele><time>2026-03-29T07:54:27.999Z</time></trkpt><trkpt lat="43.20931778525815" lon="12.26430877539163"><ele>546.0</ele><time>2026-03-29T07:54:28.999Z</time></trkpt><trkpt lat="43.20945340978294" lon="12.264306517578571"><ele>548.0</ele><time>2026-03-29T07:54:29.999Z</time></trkpt><trkpt lat="43.20958122148761" lon="12.26430716628295"><ele>550.0</ele><time>2026-03-29T07:54:30.999Z</time></trkpt><trkpt lat="43.20970076841861" lon="12.264313964564268"><ele>552.0</ele><time>2026-03-29T07:54:31.999Z</time></trkpt><trkpt lat="43.20979906529633" lon="12.264329713241231"><ele>552.5</ele><time>2026-03-29T07:54:32.999Z</time></trkpt><trkpt lat="43.20987107198007" lon="12.26435754764286"><ele>553.0</ele><time>2026-03-29T07:54:33.999Z</time></trkpt><trkpt lat="43.20995763118095" lon="12.264444991086659"><ele>553.5</ele><time>2026-03-29T07:54:35.999Z</time></trkpt><trkpt lat="43.21000829680817" lon="12.264521048722672"><ele>554.0</ele><time>2026-03-29T07:54:36.999Z</time></trkpt><trkpt lat="43.21005611679794" lon="12.264607140524967"><ele>554.5</ele><time>2026-03-29T07:54:37.999Z</time></trkpt><trkpt lat="43.21010176994194" lon="12.264688781415291"><ele>555.0</ele><time>2026-03-29T07:54:38.999Z</time></trkpt><trkpt lat="43.21015548369477" lon="12.264756201773023"><ele>555.0</ele><time>2026-03-29T07:54:40.999Z</time></trkpt><trkpt lat="43.21023404172405" lon="12.264788570979617"><ele>555.0</ele><time>2026-03-29T07:54:44.999Z</time></trkpt><trkpt lat="43.21048645355583" lon="12.264727472676986"><ele>555.0</ele><time>2026-03-29T07:54:47.999Z</time></trkpt><trkpt lat="43.210574923375454" lon="12.264737772513714"><ele>555.0</ele><time>2026-03-29T07:54:48.999Z</time></trkpt><trkpt lat="43.210659996543185" lon="12.264743423564754"><ele>555.8333333333334</ele><time>2026-03-29T07:54:49.999Z</time></trkpt><trkpt lat="43.21074578796564" lon="12.264765759620365"><ele>556.6666666666666</ele><time>2026-03-29T07:54:50.999Z</time></trkpt><trkpt lat="43.210833035501" lon="12.264789391931432"><ele>557.5</ele><time>2026-03-29T07:54:51.999Z</time></trkpt><trkpt lat="43.210896713352405" lon="12.264824919312764"><ele>558.3333333333333</ele><time>2026-03-29T07:54:52.999Z</time></trkpt><trkpt lat="43.21097037888342" lon="12.264831487996934"><ele>559.1666666666666</ele><time>2026-03-29T07:54:53.999Z</time></trkpt><trkpt lat="43.211036821890815" lon="12.264824267241728"><ele>560.0</ele><time>2026-03-29T07:54:55Z</time></trkpt><trkpt lat="43.21110841961944" lon="12.264824453853747"><ele>560.0</ele><time>2026-03-29T07:54:56Z</time></trkpt><trkpt lat="43.211220922537635" lon="12.264813739329389"><ele>560.0</ele><time>2026-03-29T07:54:58Z</time></trkpt><trkpt lat="43.2113163478011" lon="12.264712802215408"><ele>560.0</ele><time>2026-03-29T07:55:00Z</time></trkpt><trkpt lat="43.21135526006697" lon="12.264614325539133"><ele>560.0</ele><time>2026-03-29T07:55:01Z</time></trkpt><trkpt lat="43.21140467101011" lon="12.26451077116573"><ele>560.0</ele><time>2026-03-29T07:55:02Z</time></trkpt><trkpt lat="43.21145243352901" lon="12.264444470221633"><ele>559.5</ele><time>2026-03-29T07:55:03Z</time></trkpt><trkpt lat="43.21153406886482" lon="12.264422489384726"><ele>559.0</ele><time>2026-03-29T07:55:04Z</time></trkpt><trkpt lat="43.21161385069998" lon="12.264446350539579"><ele>558.5</ele><time>2026-03-29T07:55:05Z</time></trkpt><trkpt lat="43.21167698035549" lon="12.264487302795985"><ele>558.0</ele><time>2026-03-29T07:55:06Z</time></trkpt><trkpt lat="43.21175793539811" lon="12.264559664531479"><ele>557.5</ele><time>2026-03-29T07:55:08Z</time></trkpt><trkpt lat="43.211870579127876" lon="12.264573834126885"><ele>557.0</ele><time>2026-03-29T07:55:10Z</time></trkpt><trkpt lat="43.211947909465515" lon="12.264558678057083"><ele>557.0</ele><time>2026-03-29T07:55:11Z</time></trkpt><trkpt lat="43.21202462466792" lon="12.26454988905532"><ele>557.0</ele><time>2026-03-29T07:55:11.999Z</time></trkpt><trkpt lat="43.21209123679859" lon="12.264556588505373"><ele>557.0</ele><time>2026-03-29T07:55:12.999Z</time></trkpt><trkpt lat="43.21216275575096" lon="12.264591124201782"><ele>557.0</ele><time>2026-03-29T07:55:16.999Z</time></trkpt><trkpt lat="43.21225073361322" lon="12.264593238492427"><ele>557.0</ele><time>2026-03-29T07:55:18.999Z</time></trkpt><trkpt lat="43.21232002032902" lon="12.264584083917425"><ele>557.0</ele><time>2026-03-29T07:55:19.999Z</time></trkpt><trkpt lat="43.21238165795049" lon="12.264543246579697"><ele>557.0</ele><time>2026-03-29T07:55:20.999Z</time></trkpt><trkpt lat="43.2124433646247" lon="12.264469114381283"><ele>555.8000000000001</ele><time>2026-03-29T07:55:21.999Z</time></trkpt><trkpt lat="43.21254204332546" lon="12.264400244159395"><ele>554.6</ele><time>2026-03-29T07:55:22.999Z</time></trkpt><trkpt lat="43.21263528141331" lon="12.264329207101287"><ele>553.4000000000001</ele><time>2026-03-29T07:55:23.999Z</time></trkpt><trkpt lat="43.21272717063612" lon="12.26428908537123"><ele>552.2</ele><time>2026-03-29T07:55:24.999Z</time></trkpt><trkpt lat="43.21279079277228" lon="12.26428739454632"><ele>551.0</ele><time>2026-03-29T07:55:25.999Z</time></trkpt><trkpt lat="43.212874744167905" lon="12.264282644431031"><ele>551.0</ele><time>2026-03-29T07:55:27.999Z</time></trkpt><trkpt lat="43.21299120451109" lon="12.264263196541117"><ele>551.0</ele><time>2026-03-29T07:55:29.999Z</time></trkpt><trkpt lat="43.21307569609699" lon="12.264273047213909"><ele>551.0</ele><time>2026-03-29T07:55:30.999Z</time></trkpt><trkpt lat="43.21316869713691" lon="12.264307256518858"><ele>551.0</ele><time>2026-03-29T07:55:31.999Z</time></trkpt><trkpt lat="43.213254898276475" lon="12.26434826165935"><ele>551.0</ele><time>2026-03-29T07:55:32.999Z</time></trkpt><trkpt lat="43.21333539337548" lon="12.264366768394478"><ele>548.0</ele><time>2026-03-29T07:55:33.999Z</time></trkpt><trkpt lat="43.21340708890779" lon="12.264328650726656"><ele>545.0</ele><time>2026-03-29T07:55:34.999Z</time></trkpt><trkpt lat="43.21347591481182" lon="12.264277766190922"><ele>542.0</ele><time>2026-03-29T07:55:35.999Z</time></trkpt><trkpt lat="43.21351467301192" lon="12.26418722492203"><ele>539.0</ele><time>2026-03-29T07:55:36.999Z</time></trkpt><trkpt lat="43.21353483498837" lon="12.264101030057207"><ele>536.0</ele><time>2026-03-29T07:55:37.999Z</time></trkpt><trkpt lat="43.21356210238023" lon="12.264003705679128"><ele>533.0</ele><time>2026-03-29T07:55:38.999Z</time></trkpt><trkpt lat="43.213547584421434" lon="12.263890861099574"><ele>532.1999999999999</ele><time>2026-03-29T07:55:39.999Z</time></trkpt><trkpt lat="43.213523255208635" lon="12.263760657632153"><ele>531.4</ele><time>2026-03-29T07:55:40.999Z</time></trkpt><trkpt lat="43.21350754525811" lon="12.263621961459478"><ele>530.5999999999999</ele><time>2026-03-29T07:55:41.999Z</time></trkpt><trkpt lat="43.213507825225015" lon="12.263498389465626"><ele>529.8</ele><time>2026-03-29T07:55:42.999Z</time></trkpt><trkpt lat="43.213511982981515" lon="12.26337601757725"><ele>529.0</ele><time>2026-03-29T07:55:43.999Z</time></trkpt><trkpt lat="43.21352589689173" lon="12.26327257945286"><ele>529.0</ele><time>2026-03-29T07:55:44.999Z</time></trkpt><trkpt lat="43.21352780364681" lon="12.263177838547255"><ele>529.0</ele><time>2026-03-29T07:55:45.999Z</time></trkpt><trkpt lat="43.21345127447944" lon="12.263030576583118"><ele>529.0</ele><time>2026-03-29T07:55:47.999Z</time></trkpt><trkpt lat="43.21338772025749" lon="12.262973963142992"><ele>529.0</ele><time>2026-03-29T07:55:48.999Z</time></trkpt><trkpt lat="43.21333769223749" lon="12.262902065556379"><ele>529.0</ele><time>2026-03-29T07:55:49.999Z</time></trkpt><trkpt lat="43.2132678511024" lon="12.262791155978345"><ele>528.4</ele><time>2026-03-29T07:55:51.999Z</time></trkpt><trkpt lat="43.213307038192525" lon="12.262627753929221"><ele>527.8</ele><time>2026-03-29T07:55:53.999Z</time></trkpt><trkpt lat="43.21332831286775" lon="12.26253616672024"><ele>527.2</ele><time>2026-03-29T07:55:54.999Z</time></trkpt><trkpt lat="43.2133922436378" lon="12.262471359339626"><ele>526.6</ele><time>2026-03-29T07:55:56.999Z</time></trkpt><trkpt lat="43.21339217614955" lon="12.262349095863284"><ele>526.0</ele><time>2026-03-29T07:55:58.999Z</time></trkpt><trkpt lat="43.21347863149447" lon="12.262155389666338"><ele>527.5</ele><time>2026-03-29T07:56:00.999Z</time></trkpt><trkpt lat="43.213507254587356" lon="12.262041473238138"><ele>529.0</ele><time>2026-03-29T07:56:02.999Z</time></trkpt><trkpt lat="43.213548288366106" lon="12.261921874397071"><ele>530.5</ele><time>2026-03-29T07:56:03.999Z</time></trkpt><trkpt lat="43.213658293903485" lon="12.261787026393028"><ele>532.0</ele><time>2026-03-29T07:56:04.999Z</time></trkpt><trkpt lat="43.21373083204299" lon="12.261646041849632"><ele>532.0</ele><time>2026-03-29T07:56:05.999Z</time></trkpt><trkpt lat="43.213794156184406" lon="12.261533968733419"><ele>532.0</ele><time>2026-03-29T07:56:06.999Z</time></trkpt><trkpt lat="43.21381376816021" lon="12.261427502397915"><ele>532.0</ele><time>2026-03-29T07:56:07.999Z</time></trkpt><trkpt lat="43.21379348434276" lon="12.261309311904638"><ele>532.0</ele><time>2026-03-29T07:56:09.999Z</time></trkpt><trkpt lat="43.21376053169212" lon="12.261226378271239"><ele>532.0</ele><time>2026-03-29T07:56:12.999Z</time></trkpt><trkpt lat="43.213702672879336" lon="12.26116610357185"><ele>532.0</ele><time>2026-03-29T07:56:14.999Z</time></trkpt><trkpt lat="43.21356100840982" lon="12.261111486252492"><ele>531.0</ele><time>2026-03-29T07:56:16.999Z</time></trkpt><trkpt lat="43.213493178908145" lon="12.26106944504161"><ele>530.0</ele><time>2026-03-29T07:56:17.999Z</time></trkpt><trkpt lat="43.213429782140395" lon="12.260980420474977"><ele>529.0</ele><time>2026-03-29T07:56:18.999Z</time></trkpt><trkpt lat="43.21338759626883" lon="12.260911935116662"><ele>528.0</ele><time>2026-03-29T07:56:19.999Z</time></trkpt><trkpt lat="43.21337158006948" lon="12.26078431879423"><ele>527.0</ele><time>2026-03-29T07:56:20.999Z</time></trkpt><trkpt lat="43.21336972995364" lon="12.260642088424634"><ele>526.0</ele><time>2026-03-29T07:56:22.999Z</time></trkpt><trkpt lat="43.213492738585906" lon="12.260614282298793"><ele>529.0</ele><time>2026-03-29T07:56:24.999Z</time></trkpt><trkpt lat="43.21355362940129" lon="12.260547311171376"><ele>532.0</ele><time>2026-03-29T07:56:25.999Z</time></trkpt><trkpt lat="43.21360945745634" lon="12.260470769346107"><ele>535.0</ele><time>2026-03-29T07:56:26.999Z</time></trkpt><trkpt lat="43.21372490029651" lon="12.260368954832748"><ele>538.0</ele><time>2026-03-29T07:56:28.999Z</time></trkpt><trkpt lat="43.21380100784476" lon="12.260323663733244"><ele>541.0</ele><time>2026-03-29T07:56:29.999Z</time></trkpt><trkpt lat="43.21388561408041" lon="12.26025919112955"><ele>541.0</ele><time>2026-03-29T07:56:31.999Z</time></trkpt><trkpt lat="43.21388193034318" lon="12.260155834233249"><ele>541.0</ele><time>2026-03-29T07:56:34.999Z</time></trkpt><trkpt lat="43.21384569929059" lon="12.259996381593846"><ele>541.0</ele><time>2026-03-29T07:56:36.999Z</time></trkpt><trkpt lat="43.21388799219465" lon="12.25992540232574"><ele>541.0</ele><time>2026-03-29T07:56:37.999Z</time></trkpt><trkpt lat="43.21393174384748" lon="12.25985619923872"><ele>541.0</ele><time>2026-03-29T07:56:38.999Z</time></trkpt><trkpt lat="43.21399605399577" lon="12.259770849727657"><ele>541.0</ele><time>2026-03-29T07:56:40.999Z</time></trkpt><trkpt lat="43.21407369715374" lon="12.259688416021184"><ele>537.2</ele><time>2026-03-29T07:56:42.999Z</time></trkpt><trkpt lat="43.21416223302317" lon="12.25966530800582"><ele>533.4000000000001</ele><time>2026-03-29T07:56:44.999Z</time></trkpt><trkpt lat="43.214294122393405" lon="12.25959237455141"><ele>529.6</ele><time>2026-03-29T07:56:46.999Z</time></trkpt><trkpt lat="43.21437590775137" lon="12.259514725919225"><ele>525.8000000000001</ele><time>2026-03-29T07:56:48.999Z</time></trkpt><trkpt lat="43.21444748853919" lon="12.259480947865438"><ele>522.0</ele><time>2026-03-29T07:56:50.999Z</time></trkpt><trkpt lat="43.214557838333484" lon="12.259476187800196"><ele>522.0</ele><time>2026-03-29T07:56:54.999Z</time></trkpt><trkpt lat="43.21465244911056" lon="12.259345115064606"><ele>522.0</ele><time>2026-03-29T07:56:58.999Z</time></trkpt><trkpt lat="43.21470161838207" lon="12.259265074373905"><ele>522.0</ele><time>2026-03-29T07:57:02Z</time></trkpt><trkpt lat="43.21481043496018" lon="12.259339056713964"><ele>522.0</ele><time>2026-03-29T07:57:05Z</time></trkpt><trkpt lat="43.214868400923294" lon="12.259408639672145"><ele>522.0</ele><time>2026-03-29T07:57:06Z</time></trkpt><trkpt lat="43.2149303223454" lon="12.259480510253377"><ele>520.6</ele><time>2026-03-29T07:57:07Z</time></trkpt><trkpt lat="43.21499328647549" lon="12.259552473091318"><ele>519.2</ele><time>2026-03-29T07:57:08Z</time></trkpt><trkpt lat="43.21507034366349" lon="12.259700030619035"><ele>517.8</ele><time>2026-03-29T07:57:10Z</time></trkpt><trkpt lat="43.21507778969303" lon="12.25983427058128"><ele>516.4</ele><time>2026-03-29T07:57:11Z</time></trkpt><trkpt lat="43.215114582819794" lon="12.259975890330876"><ele>515.0</ele><time>2026-03-29T07:57:12Z</time></trkpt><trkpt lat="43.21516876042001" lon="12.260084505813648"><ele>512.2</ele><time>2026-03-29T07:57:13Z</time></trkpt><trkpt lat="43.2152410997458" lon="12.260164367078612"><ele>509.4</ele><time>2026-03-29T07:57:14Z</time></trkpt><trkpt lat="43.2153099567876" lon="12.260234761063428"><ele>506.6</ele><time>2026-03-29T07:57:15Z</time></trkpt><trkpt lat="43.21536575407873" lon="12.26031728558273"><ele>503.8</ele><time>2026-03-29T07:57:16Z</time></trkpt><trkpt lat="43.215413098412675" lon="12.260409351852173"><ele>501.0</ele><time>2026-03-29T07:57:17Z</time></trkpt><trkpt lat="43.21552719749657" lon="12.260436137666181"><ele>501.0</ele><time>2026-03-29T07:57:19Z</time></trkpt><trkpt lat="43.21565368352818" lon="12.260387003299227"><ele>501.0</ele><time>2026-03-29T07:57:21Z</time></trkpt><trkpt lat="43.21571177782531" lon="12.26034020583244"><ele>501.0</ele><time>2026-03-29T07:57:22Z</time></trkpt><trkpt lat="43.21579907177151" lon="12.260324667625934"><ele>501.0</ele><time>2026-03-29T07:57:24Z</time></trkpt><trkpt lat="43.21586994080578" lon="12.260384380081401"><ele>501.0</ele><time>2026-03-29T07:57:26Z</time></trkpt><trkpt lat="43.215924185839434" lon="12.260438224067915"><ele>501.0</ele><time>2026-03-29T07:57:28Z</time></trkpt><trkpt lat="43.21599720802557" lon="12.260483694712644"><ele>501.8571428571429</ele><time>2026-03-29T07:57:30Z</time></trkpt><trkpt lat="43.21604437063039" lon="12.260545108746182"><ele>502.71428571428567</ele><time>2026-03-29T07:57:32Z</time></trkpt><trkpt lat="43.21602682639807" lon="12.260635027632588"><ele>503.57142857142856</ele><time>2026-03-29T07:57:35Z</time></trkpt><trkpt lat="43.215980910891844" lon="12.260709263664255"><ele>504.42857142857144</ele><time>2026-03-29T07:57:38Z</time></trkpt><trkpt lat="43.21604285226451" lon="12.260743861981942"><ele>505.28571428571433</ele><time>2026-03-29T07:57:41Z</time></trkpt><trkpt lat="43.216116018165266" lon="12.260742062963908"><ele>506.1428571428571</ele><time>2026-03-29T07:57:44Z</time></trkpt><trkpt lat="43.216187605244905" lon="12.260711469396714"><ele>507.0</ele><time>2026-03-29T07:57:47Z</time></trkpt><trkpt lat="43.21625089343056" lon="12.260717931637885"><ele>505.3333333333333</ele><time>2026-03-29T07:57:49Z</time></trkpt><trkpt lat="43.21629209334089" lon="12.260793156988429"><ele>503.66666666666663</ele><time>2026-03-29T07:57:51Z</time></trkpt><trkpt lat="43.21632897669688" lon="12.260871068573493"><ele>502.0</ele><time>2026-03-29T07:57:53Z</time></trkpt><trkpt lat="43.21633569689013" lon="12.260969275711107"><ele>500.3333333333333</ele><time>2026-03-29T07:57:55Z</time></trkpt><trkpt lat="43.21635853842005" lon="12.261094603355664"><ele>498.66666666666663</ele><time>2026-03-29T07:57:58Z</time></trkpt><trkpt lat="43.216425689693935" lon="12.261112440696316"><ele>497.0</ele><time>2026-03-29T07:58:01Z</time></trkpt><trkpt lat="43.216510861652125" lon="12.261038917105859"><ele>496.99999999999994</ele><time>2026-03-29T07:58:03Z</time></trkpt><trkpt lat="43.21660862572981" lon="12.260955049166013"><ele>497.0</ele><time>2026-03-29T07:58:05Z</time></trkpt><trkpt lat="43.21665528496249" lon="12.260896982810664"><ele>497.0</ele><time>2026-03-29T07:58:06Z</time></trkpt><trkpt lat="43.2167513489386" lon="12.260855593934568"><ele>497.0</ele><time>2026-03-29T07:58:09Z</time></trkpt><trkpt lat="43.21681253360472" lon="12.26076989562815"><ele>496.99999999999994</ele><time>2026-03-29T07:58:11Z</time></trkpt><trkpt lat="43.216853401131324" lon="12.260687681369957"><ele>497.0</ele><time>2026-03-29T07:58:13Z</time></trkpt><trkpt lat="43.2169109895595" lon="12.260633096950803"><ele>500.20000000000005</ele><time>2026-03-29T07:58:14Z</time></trkpt><trkpt lat="43.216996994019574" lon="12.260565883342869"><ele>503.40000000000003</ele><time>2026-03-29T07:58:16Z</time></trkpt><trkpt lat="43.217064351556694" lon="12.260546233773775"><ele>506.59999999999997</ele><time>2026-03-29T07:58:18Z</time></trkpt><trkpt lat="43.217190872051134" lon="12.26061318196757"><ele>509.79999999999995</ele><time>2026-03-29T07:58:20Z</time></trkpt><trkpt lat="43.217263231208065" lon="12.260602218480987"><ele>513.0</ele><time>2026-03-29T07:58:21Z</time></trkpt><trkpt lat="43.21735762105485" lon="12.260597250289672"><ele>512.5</ele><time>2026-03-29T07:58:23Z</time></trkpt><trkpt lat="43.21743204584721" lon="12.260664786744353"><ele>512.0</ele><time>2026-03-29T07:58:24Z</time></trkpt><trkpt lat="43.21750597960857" lon="12.260703364506403"><ele>511.5</ele><time>2026-03-29T07:58:25Z</time></trkpt><trkpt lat="43.217597692728376" lon="12.260682907276298"><ele>511.0</ele><time>2026-03-29T07:58:27Z</time></trkpt><trkpt lat="43.21765118544328" lon="12.26077608102174"><ele>510.5</ele><time>2026-03-29T07:58:29Z</time></trkpt><trkpt lat="43.21770716763813" lon="12.260849547755168"><ele>510.0</ele><time>2026-03-29T07:58:30Z</time></trkpt><trkpt lat="43.21770618124052" lon="12.261013882015618"><ele>510.0</ele><time>2026-03-29T07:58:32Z</time></trkpt><trkpt lat="43.21769983255009" lon="12.261151129336378"><ele>510.0</ele><time>2026-03-29T07:58:34Z</time></trkpt><trkpt lat="43.21771610004421" lon="12.261256214634171"><ele>510.0</ele><time>2026-03-29T07:58:37Z</time></trkpt><trkpt lat="43.21772120697237" lon="12.261391249193057"><ele>510.0</ele><time>2026-03-29T07:58:39Z</time></trkpt><trkpt lat="43.21767589992581" lon="12.261515797229878"><ele>510.0</ele><time>2026-03-29T07:58:41Z</time></trkpt><trkpt lat="43.21767975212435" lon="12.261633010882647"><ele>508.6</ele><time>2026-03-29T07:58:43Z</time></trkpt><trkpt lat="43.21774148612253" lon="12.261765957636362"><ele>507.2</ele><time>2026-03-29T07:58:45Z</time></trkpt><trkpt lat="43.21780192413236" lon="12.261837953239112"><ele>505.79999999999995</ele><time>2026-03-29T07:58:46Z</time></trkpt><trkpt lat="43.21788963806939" lon="12.261979739133253"><ele>504.4</ele><time>2026-03-29T07:58:48Z</time></trkpt><trkpt lat="43.2179603191501" lon="12.262089967287869"><ele>503.0</ele><time>2026-03-29T07:58:50Z</time></trkpt><trkpt lat="43.21806696406736" lon="12.262081233811324"><ele>503.0</ele><time>2026-03-29T07:58:52Z</time></trkpt><trkpt lat="43.21812518657711" lon="12.262165920927758"><ele>502.99999999999994</ele><time>2026-03-29T07:58:55Z</time></trkpt><trkpt lat="43.218200382833764" lon="12.262260044691965"><ele>502.99999999999994</ele><time>2026-03-29T07:58:57Z</time></trkpt><trkpt lat="43.218288926213084" lon="12.262315177500456"><ele>503.0</ele><time>2026-03-29T07:58:58Z</time></trkpt><trkpt lat="43.21839356925266" lon="12.262410184617227"><ele>503.0</ele><time>2026-03-29T07:58:59Z</time></trkpt><trkpt lat="43.21845745298673" lon="12.26243160621739"><ele>504.28571428571433</ele><time>2026-03-29T07:59:00Z</time></trkpt><trkpt lat="43.21851050899624" lon="12.262360318387714"><ele>505.5714285714286</ele><time>2026-03-29T07:59:01Z</time></trkpt><trkpt lat="43.21854617638655" lon="12.262288542472339"><ele>506.8571428571429</ele><time>2026-03-29T07:59:02Z</time></trkpt><trkpt lat="43.2186014362108" lon="12.26222379918366"><ele>508.1428571428571</ele><time>2026-03-29T07:59:03Z</time></trkpt><trkpt lat="43.21866138196073" lon="12.262155461491648"><ele>509.4285714285714</ele><time>2026-03-29T07:59:04Z</time></trkpt><trkpt lat="43.21872136741503" lon="12.262105536000618"><ele>510.71428571428567</ele><time>2026-03-29T07:59:05Z</time></trkpt><trkpt lat="43.21879136087748" lon="12.262078226569104"><ele>512.0</ele><time>2026-03-29T07:59:06Z</time></trkpt><trkpt lat="43.218877618830604" lon="12.262085592993966"><ele>517.3333333333333</ele><time>2026-03-29T07:59:07Z</time></trkpt><trkpt lat="43.21898950165325" lon="12.262097971037816"><ele>522.6666666666666</ele><time>2026-03-29T07:59:08Z</time></trkpt><trkpt lat="43.21907442791313" lon="12.262094764772097"><ele>528.0</ele><time>2026-03-29T07:59:09Z</time></trkpt><trkpt lat="43.21915544238901" lon="12.262082803841738"><ele>533.3333333333334</ele><time>2026-03-29T07:59:10Z</time></trkpt><trkpt lat="43.21923519941748" lon="12.26207045890833"><ele>538.6666666666667</ele><time>2026-03-29T07:59:11Z</time></trkpt><trkpt lat="43.21930678333035" lon="12.2620548310537"><ele>544.0</ele><time>2026-03-29T07:59:12Z</time></trkpt><trkpt lat="43.219372959913514" lon="12.262039974881878"><ele>544.0</ele><time>2026-03-29T07:59:13Z</time></trkpt><trkpt lat="43.219433903432865" lon="12.262011303014809"><ele>544.0</ele><time>2026-03-29T07:59:14Z</time></trkpt><trkpt lat="43.21949668104158" lon="12.261983870294953"><ele>544.0</ele><time>2026-03-29T07:59:15Z</time></trkpt><trkpt lat="43.219568417995184" lon="12.261970105800806"><ele>544.0</ele><time>2026-03-29T07:59:16Z</time></trkpt><trkpt lat="43.21968809354441" lon="12.261928149576075"><ele>544.0</ele><time>2026-03-29T07:59:18Z</time></trkpt><trkpt lat="43.21979561822611" lon="12.261860318299478"><ele>544.0</ele><time>2026-03-29T07:59:20Z</time></trkpt><trkpt lat="43.219858844891384" lon="12.26184660780954"><ele>543.0</ele><time>2026-03-29T07:59:21Z</time></trkpt><trkpt lat="43.21995640675659" lon="12.261911321155445"><ele>542.0</ele><time>2026-03-29T07:59:23Z</time></trkpt><trkpt lat="43.22000616432201" lon="12.261972455901898"><ele>541.0</ele><time>2026-03-29T07:59:24Z</time></trkpt><trkpt lat="43.22006195680239" lon="12.262022793078803"><ele>540.0</ele><time>2026-03-29T07:59:25Z</time></trkpt><trkpt lat="43.22018197198519" lon="12.262090644186353"><ele>539.0</ele><time>2026-03-29T07:59:27Z</time></trkpt><trkpt lat="43.220245499941065" lon="12.262154024217965"><ele>539.0</ele><time>2026-03-29T07:59:28Z</time></trkpt><trkpt lat="43.220306514857725" lon="12.26221150653203"><ele>539.0</ele><time>2026-03-29T07:59:29Z</time></trkpt><trkpt lat="43.22038462004122" lon="12.262279658813863"><ele>539.0</ele><time>2026-03-29T07:59:30Z</time></trkpt><trkpt lat="43.220446673387826" lon="12.26230359427641"><ele>539.0</ele><time>2026-03-29T07:59:31Z</time></trkpt><trkpt lat="43.220540934273096" lon="12.26229932564754"><ele>539.0</ele><time>2026-03-29T07:59:33Z</time></trkpt><trkpt lat="43.220616486597" lon="12.262303346233148"><ele>539.0</ele><time>2026-03-29T07:59:34Z</time></trkpt><trkpt lat="43.22067846445906" lon="12.262278760446577"><ele>537.3333333333333</ele><time>2026-03-29T07:59:35Z</time></trkpt><trkpt lat="43.22075818601044" lon="12.262242084999876"><ele>535.6666666666666</ele><time>2026-03-29T07:59:36Z</time></trkpt><trkpt lat="43.220822315987725" lon="12.262226622553884"><ele>534.0</ele><time>2026-03-29T07:59:37Z</time></trkpt><trkpt lat="43.22092121443252" lon="12.26222707114953"><ele>532.3333333333334</ele><time>2026-03-29T07:59:40Z</time></trkpt><trkpt lat="43.22100475133137" lon="12.262248307747983"><ele>530.6666666666667</ele><time>2026-03-29T07:59:41Z</time></trkpt><trkpt lat="43.221087401263866" lon="12.262287943700098"><ele>529.0</ele><time>2026-03-29T07:59:42Z</time></trkpt><trkpt lat="43.22118955904234" lon="12.262331583018641"><ele>529.0</ele><time>2026-03-29T07:59:43Z</time></trkpt><trkpt lat="43.22127884117178" lon="12.262400124116972"><ele>529.0</ele><time>2026-03-29T07:59:44Z</time></trkpt><trkpt lat="43.22135712939449" lon="12.262442523353432"><ele>529.0</ele><time>2026-03-29T07:59:45Z</time></trkpt><trkpt lat="43.22143638484059" lon="12.262476610701572"><ele>529.0</ele><time>2026-03-29T07:59:46Z</time></trkpt><trkpt lat="43.221527007200436" lon="12.262523708889598"><ele>529.0</ele><time>2026-03-29T07:59:47Z</time></trkpt><trkpt lat="43.22161535070214" lon="12.262601986667468"><ele>529.8333333333334</ele><time>2026-03-29T07:59:48Z</time></trkpt><trkpt lat="43.22166498917867" lon="12.262697658190342"><ele>530.6666666666667</ele><time>2026-03-29T07:59:49Z</time></trkpt><trkpt lat="43.22170563862358" lon="12.262628437570777"><ele>531.5</ele><time>2026-03-29T07:59:55Z</time></trkpt><trkpt lat="43.22171394734174" lon="12.262484026559848"><ele>532.3333333333334</ele><time>2026-03-29T07:59:58Z</time></trkpt><trkpt lat="43.22174691359649" lon="12.262381734826649"><ele>533.1666666666666</ele><time>2026-03-29T08:00:00Z</time></trkpt><trkpt lat="43.22174651355399" lon="12.262261146660427"><ele>534.0</ele><time>2026-03-29T08:00:03Z</time></trkpt><trkpt lat="43.22170432372893" lon="12.26216040450958"><ele>537.0</ele><time>2026-03-29T08:00:05Z</time></trkpt><trkpt lat="43.22163821266516" lon="12.262074290000347"><ele>540.0</ele><time>2026-03-29T08:00:07Z</time></trkpt><trkpt lat="43.22157930409848" lon="12.262033680529864"><ele>543.0</ele><time>2026-03-29T08:00:09Z</time></trkpt><trkpt lat="43.221547310825095" lon="12.261926291766075"><ele>546.0</ele><time>2026-03-29T08:00:12Z</time></trkpt><trkpt lat="43.22157050459231" lon="12.261825200452375"><ele>549.0</ele><time>2026-03-29T08:00:14Z</time></trkpt><trkpt lat="43.22163262840922" lon="12.261727092242037"><ele>552.0</ele><time>2026-03-29T08:00:18Z</time></trkpt><trkpt lat="43.22161201665922" lon="12.261637549197697"><ele>552.0</ele><time>2026-03-29T08:00:20Z</time></trkpt><trkpt lat="43.221561443876375" lon="12.261584708440248"><ele>552.0</ele><time>2026-03-29T08:00:29Z</time></trkpt><trkpt lat="43.22152098422217" lon="12.261516514396282"><ele>552.0</ele><time>2026-03-29T08:00:57Z</time></trkpt><trkpt lat="43.22145264340187" lon="12.261476938673603"><ele>552.0</ele><time>2026-03-29T08:01:04Z</time></trkpt><trkpt lat="43.22139250248001" lon="12.261373552062123"><ele>552.0</ele><time>2026-03-29T08:01:06Z</time></trkpt><trkpt lat="43.22136553115857" lon="12.261284860038419"><ele>552.0</ele><time>2026-03-29T08:01:11Z</time></trkpt><trkpt lat="43.22130807590724" lon="12.261174598036849"><ele>557.8000000000001</ele><time>2026-03-29T08:01:15Z</time></trkpt><trkpt lat="43.22123900973782" lon="12.261120137129781"><ele>563.6</ele><time>2026-03-29T08:01:18Z</time></trkpt><trkpt lat="43.22122941972676" lon="12.260975297039282"><ele>569.4000000000001</ele><time>2026-03-29T08:01:23Z</time></trkpt><trkpt lat="43.221273741830316" lon="12.26087374029595"><ele>575.2</ele><time>2026-03-29T08:01:25Z</time></trkpt><trkpt lat="43.22133065964328" lon="12.260761718489805"><ele>581.0</ele><time>2026-03-29T08:01:27Z</time></trkpt><trkpt lat="43.22135295660634" lon="12.260640325290854"><ele>583.0</ele><time>2026-03-29T08:01:29Z</time></trkpt><trkpt lat="43.22136356671772" lon="12.260515986172594"><ele>585.0</ele><time>2026-03-29T08:01:31Z</time></trkpt><trkpt lat="43.22131695886966" lon="12.260438040144509"><ele>587.0</ele><time>2026-03-29T08:01:33Z</time></trkpt><trkpt lat="43.22123393578753" lon="12.260442342437623"><ele>589.0</ele><time>2026-03-29T08:01:35Z</time></trkpt><trkpt lat="43.22118013472065" lon="12.260396204071577"><ele>591.0</ele><time>2026-03-29T08:01:37Z</time></trkpt><trkpt lat="43.221124263822624" lon="12.260324882479303"><ele>593.0</ele><time>2026-03-29T08:01:38Z</time></trkpt><trkpt lat="43.22106823328332" lon="12.260263519810458"><ele>593.0</ele><time>2026-03-29T08:01:39Z</time></trkpt><trkpt lat="43.22101269894708" lon="12.260193887623215"><ele>593.0</ele><time>2026-03-29T08:01:40Z</time></trkpt><trkpt lat="43.2209575955514" lon="12.260126871186909"><ele>593.0</ele><time>2026-03-29T08:01:41Z</time></trkpt><trkpt lat="43.22091343171438" lon="12.260064253841305"><ele>593.0</ele><time>2026-03-29T08:01:42Z</time></trkpt><trkpt lat="43.22080200825464" lon="12.259984831606937"><ele>593.0</ele><time>2026-03-29T08:01:44Z</time></trkpt><trkpt lat="43.22069537469335" lon="12.259879087680863"><ele>593.0</ele><time>2026-03-29T08:01:46Z</time></trkpt><trkpt lat="43.220640701439706" lon="12.259830152143008"><ele>593.0</ele><time>2026-03-29T08:01:47Z</time></trkpt><trkpt lat="43.22055417182138" lon="12.259804037506461"><ele>593.0</ele><time>2026-03-29T08:01:49Z</time></trkpt><trkpt lat="43.22041459208901" lon="12.25976662101374"><ele>593.0</ele><time>2026-03-29T08:01:51Z</time></trkpt><trkpt lat="43.22031661620707" lon="12.259728619504745"><ele>593.0</ele><time>2026-03-29T08:01:52Z</time></trkpt><trkpt lat="43.22023097358663" lon="12.259714162088788"><ele>593.0</ele><time>2026-03-29T08:01:53Z</time></trkpt><trkpt lat="43.220144540355406" lon="12.259695931255232"><ele>593.0</ele><time>2026-03-29T08:01:54Z</time></trkpt><trkpt lat="43.22006978482997" lon="12.259663205227653"><ele>593.0</ele><time>2026-03-29T08:01:55Z</time></trkpt><trkpt lat="43.220008518122974" lon="12.259607310145805"><ele>593.0</ele><time>2026-03-29T08:01:56Z</time></trkpt><trkpt lat="43.21998341489412" lon="12.25943054242217"><ele>593.0</ele><time>2026-03-29T08:01:58Z</time></trkpt><trkpt lat="43.220016652872346" lon="12.259313825600632"><ele>593.0</ele><time>2026-03-29T08:01:59Z</time></trkpt><trkpt lat="43.220011347504496" lon="12.259202512291573"><ele>593.0</ele><time>2026-03-29T08:02:00Z</time></trkpt><trkpt lat="43.21999803720003" lon="12.2591164543296"><ele>593.0</ele><time>2026-03-29T08:02:01Z</time></trkpt><trkpt lat="43.219974540457486" lon="12.25898723868837"><ele>593.0</ele><time>2026-03-29T08:02:03Z</time></trkpt><trkpt lat="43.219913879242426" lon="12.258953611776512"><ele>593.0</ele><time>2026-03-29T08:02:05Z</time></trkpt><trkpt lat="43.219845082320944" lon="12.258913422398598"><ele>593.0</ele><time>2026-03-29T08:02:07Z</time></trkpt><trkpt lat="43.21985069895817" lon="12.25879211930663"><ele>596.1666666666666</ele><time>2026-03-29T08:02:11Z</time></trkpt><trkpt lat="43.21983431408002" lon="12.258704023603514"><ele>599.3333333333333</ele><time>2026-03-29T08:02:13Z</time></trkpt><trkpt lat="43.21990564620971" lon="12.258629515821378"><ele>602.5</ele><time>2026-03-29T08:02:15Z</time></trkpt><trkpt lat="43.21998589230907" lon="12.258602119417015"><ele>605.6666666666666</ele><time>2026-03-29T08:02:17Z</time></trkpt><trkpt lat="43.220040359463674" lon="12.258511052248338"><ele>608.8333333333334</ele><time>2026-03-29T08:02:19Z</time></trkpt><trkpt lat="43.22007658652662" lon="12.258427454242588"><ele>612.0</ele><time>2026-03-29T08:02:20Z</time></trkpt><trkpt lat="43.22013705648885" lon="12.25831529204636"><ele>612.0</ele><time>2026-03-29T08:02:22Z</time></trkpt><trkpt lat="43.22017690159024" lon="12.258205328734036"><ele>612.0</ele><time>2026-03-29T08:02:24Z</time></trkpt><trkpt lat="43.22015849331201" lon="12.258103856597176"><ele>612.0</ele><time>2026-03-29T08:02:27Z</time></trkpt><trkpt lat="43.22007672411814" lon="12.258129811270829"><ele>612.0</ele><time>2026-03-29T08:02:30Z</time></trkpt><trkpt lat="43.220076159453015" lon="12.25804298069907"><ele>612.0</ele><time>2026-03-29T08:02:33Z</time></trkpt><trkpt lat="43.220092274290955" lon="12.257883179306722"><ele>612.0</ele><time>2026-03-29T08:02:35Z</time></trkpt><trkpt lat="43.22011141766334" lon="12.257749553259794"><ele>616.4</ele><time>2026-03-29T08:02:38Z</time></trkpt><trkpt lat="43.22011289300069" lon="12.257583778023378"><ele>620.8000000000001</ele><time>2026-03-29T08:02:40Z</time></trkpt><trkpt lat="43.22015898186379" lon="12.25746967950219"><ele>625.2</ele><time>2026-03-29T08:02:42Z</time></trkpt><trkpt lat="43.22018051768639" lon="12.257388105953549"><ele>629.6</ele><time>2026-03-29T08:02:43Z</time></trkpt><trkpt lat="43.220187413608606" lon="12.257224971708876"><ele>634.0</ele><time>2026-03-29T08:02:45Z</time></trkpt><trkpt lat="43.22023813003831" lon="12.257074098559837"><ele>636.6666666666667</ele><time>2026-03-29T08:02:47Z</time></trkpt><trkpt lat="43.22028282117315" lon="12.256980687379063"><ele>639.3333333333334</ele><time>2026-03-29T08:02:48Z</time></trkpt><trkpt lat="43.22031931584655" lon="12.256895846856791"><ele>642.0</ele><time>2026-03-29T08:02:49Z</time></trkpt><trkpt lat="43.22033851502178" lon="12.256800343560682"><ele>644.6666666666666</ele><time>2026-03-29T08:02:50Z</time></trkpt><trkpt lat="43.22036024463769" lon="12.256716973538476"><ele>647.3333333333333</ele><time>2026-03-29T08:02:51Z</time></trkpt><trkpt lat="43.22041735733695" lon="12.256640982842516"><ele>650.0</ele><time>2026-03-29T08:02:52Z</time></trkpt><trkpt lat="43.2203816763521" lon="12.256507333447974"><ele>650.0</ele><time>2026-03-29T08:02:54Z</time></trkpt><trkpt lat="43.22032790057366" lon="12.256442866510342"><ele>650.0</ele><time>2026-03-29T08:02:56Z</time></trkpt><trkpt lat="43.220233091678494" lon="12.256524196989048"><ele>650.0</ele><time>2026-03-29T08:03:00Z</time></trkpt><trkpt lat="43.22008556346119" lon="12.25651489766313"><ele>650.0</ele><time>2026-03-29T08:03:04Z</time></trkpt><trkpt lat="43.219983550241274" lon="12.25653604341387"><ele>650.0</ele><time>2026-03-29T08:03:06Z</time></trkpt><trkpt lat="43.21962462624658" lon="12.25654010834296"><ele>649.0</ele><time>2026-03-29T08:03:08Z</time></trkpt><trkpt lat="43.21958063486894" lon="12.256476524656632"><ele>648.0</ele><time>2026-03-29T08:03:09Z</time></trkpt><trkpt lat="43.21952978000387" lon="12.25639625320363"><ele>647.0</ele><time>2026-03-29T08:03:10Z</time></trkpt><trkpt lat="43.219504603744" lon="12.256301946146547"><ele>646.0</ele><time>2026-03-29T08:03:11Z</time></trkpt><trkpt lat="43.21949600645438" lon="12.256174772072105"><ele>645.0</ele><time>2026-03-29T08:03:13Z</time></trkpt><trkpt lat="43.21955952372499" lon="12.256076957387576"><ele>644.0</ele><time>2026-03-29T08:03:15Z</time></trkpt><trkpt lat="43.21962008314765" lon="12.255964187661197"><ele>644.0</ele><time>2026-03-29T08:03:17Z</time></trkpt><trkpt lat="43.21966009968343" lon="12.25588831916512"><ele>644.0</ele><time>2026-03-29T08:03:19Z</time></trkpt><trkpt lat="43.21974014126896" lon="12.255929457287177"><ele>644.0</ele><time>2026-03-29T08:03:22Z</time></trkpt><trkpt lat="43.219795087018355" lon="12.256035104586019"><ele>644.0</ele><time>2026-03-29T08:03:24Z</time></trkpt><trkpt lat="43.219867670184826" lon="12.256133127659643"><ele>644.0</ele><time>2026-03-29T08:03:27Z</time></trkpt><trkpt lat="43.21993495867646" lon="12.256150568283388"><ele>644.0</ele><time>2026-03-29T08:03:28Z</time></trkpt><trkpt lat="43.22004858693717" lon="12.256156977837877"><ele>648.2</ele><time>2026-03-29T08:03:30Z</time></trkpt><trkpt lat="43.22016581114631" lon="12.256133762331169"><ele>652.4000000000001</ele><time>2026-03-29T08:03:32Z</time></trkpt><trkpt lat="43.22029619465259" lon="12.256075497939879"><ele>656.6</ele><time>2026-03-29T08:03:34Z</time></trkpt><trkpt lat="43.22036824632452" lon="12.256011346246966"><ele>660.8</ele><time>2026-03-29T08:03:35Z</time></trkpt><trkpt lat="43.22045557784229" lon="12.255936436139873"><ele>665.0</ele><time>2026-03-29T08:03:37Z</time></trkpt><trkpt lat="43.22054712280568" lon="12.255854120874897"><ele>665.0</ele><time>2026-03-29T08:03:39Z</time></trkpt><trkpt lat="43.22060096183538" lon="12.255801626251655"><ele>665.0</ele><time>2026-03-29T08:03:40Z</time></trkpt><trkpt lat="43.22064435158202" lon="12.255731936427969"><ele>665.0</ele><time>2026-03-29T08:03:41Z</time></trkpt><trkpt lat="43.22068947758247" lon="12.25566853939768"><ele>665.0</ele><time>2026-03-29T08:03:42Z</time></trkpt><trkpt lat="43.22077381390091" lon="12.255565430853258"><ele>665.0</ele><time>2026-03-29T08:03:44Z</time></trkpt><trkpt lat="43.22082309876244" lon="12.255500820211362"><ele>665.0</ele><time>2026-03-29T08:03:45Z</time></trkpt><trkpt lat="43.22090819477156" lon="12.255374131965164"><ele>664.0</ele><time>2026-03-29T08:03:47Z</time></trkpt><trkpt lat="43.2209712594176" lon="12.255341488840024"><ele>663.0</ele><time>2026-03-29T08:03:48Z</time></trkpt><trkpt lat="43.22105784072839" lon="12.2552452372714"><ele>662.0</ele><time>2026-03-29T08:03:50Z</time></trkpt><trkpt lat="43.22112406375143" lon="12.25510988376226"><ele>661.0</ele><time>2026-03-29T08:03:52Z</time></trkpt><trkpt lat="43.22113880810538" lon="12.255016703705593"><ele>660.0</ele><time>2026-03-29T08:03:53Z</time></trkpt><trkpt lat="43.2211691905525" lon="12.254859807447621"><ele>660.0</ele><time>2026-03-29T08:03:55Z</time></trkpt><trkpt lat="43.22121822094053" lon="12.254722117627024"><ele>660.0</ele><time>2026-03-29T08:03:57Z</time></trkpt><trkpt lat="43.22129730950023" lon="12.254611277485148"><ele>660.0</ele><time>2026-03-29T08:03:59Z</time></trkpt><trkpt lat="43.22134091748622" lon="12.254541191162174"><ele>660.0</ele><time>2026-03-29T08:04:00Z</time></trkpt><trkpt lat="43.22138446304735" lon="12.25446510801692"><ele>660.0</ele><time>2026-03-29T08:04:01Z</time></trkpt><trkpt lat="43.22148494685317" lon="12.254380408472734"><ele>660.0</ele><time>2026-03-29T08:04:03Z</time></trkpt><trkpt lat="43.221566216986204" lon="12.254370868673249"><ele>660.0</ele><time>2026-03-29T08:04:04Z</time></trkpt><trkpt lat="43.22164250873407" lon="12.25438042569891"><ele>660.0</ele><time>2026-03-29T08:04:05Z</time></trkpt><trkpt lat="43.221708562129166" lon="12.25443313491341"><ele>660.0</ele><time>2026-03-29T08:04:06Z</time></trkpt><trkpt lat="43.22176440186703" lon="12.254477279506704"><ele>660.0</ele><time>2026-03-29T08:04:07Z</time></trkpt><trkpt lat="43.22185638445489" lon="12.254500147791548"><ele>660.0</ele><time>2026-03-29T08:04:09Z</time></trkpt><trkpt lat="43.22192384162832" lon="12.25451983663051"><ele>660.0</ele><time>2026-03-29T08:04:11Z</time></trkpt><trkpt lat="43.222001709778134" lon="12.254631388747324"><ele>660.0</ele><time>2026-03-29T08:04:13Z</time></trkpt><trkpt lat="43.222135141097034" lon="12.25483813770213"><ele>660.0</ele><time>2026-03-29T08:04:15Z</time></trkpt><trkpt lat="43.22218960368762" lon="12.254896170965461"><ele>660.0</ele><time>2026-03-29T08:04:16Z</time></trkpt><trkpt lat="43.222240752439426" lon="12.254953630396091"><ele>660.0</ele><time>2026-03-29T08:04:17Z</time></trkpt><trkpt lat="43.222308288394956" lon="12.254950389874342"><ele>660.0</ele><time>2026-03-29T08:04:18Z</time></trkpt><trkpt lat="43.222433485103984" lon="12.25485780139093"><ele>660.0</ele><time>2026-03-29T08:04:20Z</time></trkpt><trkpt lat="43.22249912539441" lon="12.254796838946552"><ele>660.0</ele><time>2026-03-29T08:04:21Z</time></trkpt><trkpt lat="43.22257183676184" lon="12.254749507102828"><ele>660.0</ele><time>2026-03-29T08:04:22Z</time></trkpt><trkpt lat="43.22265627953534" lon="12.254738206392659"><ele>660.0</ele><time>2026-03-29T08:04:23Z</time></trkpt><trkpt lat="43.22272182950193" lon="12.254776461143448"><ele>655.1666666666666</ele><time>2026-03-29T08:04:24Z</time></trkpt><trkpt lat="43.22279371782027" lon="12.254817786994291"><ele>650.3333333333334</ele><time>2026-03-29T08:04:25Z</time></trkpt><trkpt lat="43.2228417584236" lon="12.254894833839339"><ele>645.5</ele><time>2026-03-29T08:04:26Z</time></trkpt><trkpt lat="43.222900334339386" lon="12.254970093440063"><ele>640.6666666666667</ele><time>2026-03-29T08:04:27Z</time></trkpt><trkpt lat="43.22297097949082" lon="12.255045780883856"><ele>635.8333333333334</ele><time>2026-03-29T08:04:28Z</time></trkpt><trkpt lat="43.22301907099888" lon="12.255127922338135"><ele>631.0</ele><time>2026-03-29T08:04:29Z</time></trkpt><trkpt lat="43.223073237968336" lon="12.255203118316029"><ele>631.0</ele><time>2026-03-29T08:04:30Z</time></trkpt><trkpt lat="43.22312527824417" lon="12.255286774161894"><ele>631.0</ele><time>2026-03-29T08:04:31Z</time></trkpt><trkpt lat="43.223215764003434" lon="12.255318050374008"><ele>631.0</ele><time>2026-03-29T08:04:33Z</time></trkpt><trkpt lat="43.22324270332071" lon="12.255234946440565"><ele>631.0</ele><time>2026-03-29T08:04:35Z</time></trkpt><trkpt lat="43.223324862003814" lon="12.25517280629481"><ele>631.0</ele><time>2026-03-29T08:04:37Z</time></trkpt><trkpt lat="43.22334673906566" lon="12.254937158416324"><ele>634.0</ele><time>2026-03-29T08:04:38Z</time></trkpt><trkpt lat="43.22347903515483" lon="12.254869529271671"><ele>637.0</ele><time>2026-03-29T08:04:44Z</time></trkpt><trkpt lat="43.22355309215906" lon="12.254835375971737"><ele>640.0</ele><time>2026-03-29T08:04:47Z</time></trkpt><trkpt lat="43.22361835068587" lon="12.254775444673104"><ele>643.0</ele><time>2026-03-29T08:04:50Z</time></trkpt><trkpt lat="43.22413199392294" lon="12.25427259754554"><ele>647.5999999999999</ele><time>2026-03-29T08:04:54Z</time></trkpt><trkpt lat="43.22423438001197" lon="12.254192364280696"><ele>652.1999999999999</ele><time>2026-03-29T08:04:55Z</time></trkpt><trkpt lat="43.224327114902316" lon="12.254106508585247"><ele>656.8</ele><time>2026-03-29T08:04:56Z</time></trkpt><trkpt lat="43.2244231635823" lon="12.254013102383201"><ele>661.4</ele><time>2026-03-29T08:04:57Z</time></trkpt><trkpt lat="43.224502792914386" lon="12.25392685076263"><ele>666.0</ele><time>2026-03-29T08:04:58Z</time></trkpt><trkpt lat="43.224576614928274" lon="12.253920774354222"><ele>666.0</ele><time>2026-03-29T08:04:59Z</time></trkpt><trkpt lat="43.22466311697006" lon="12.25396309757429"><ele>666.0</ele><time>2026-03-29T08:05:00Z</time></trkpt><trkpt lat="43.22476517765364" lon="12.253969868004402"><ele>666.0</ele><time>2026-03-29T08:05:01Z</time></trkpt><trkpt lat="43.22490170959338" lon="12.253981635665056"><ele>666.0</ele><time>2026-03-29T08:05:02Z</time></trkpt><trkpt lat="43.2250050431255" lon="12.254007006073717"><ele>666.0</ele><time>2026-03-29T08:05:03Z</time></trkpt><trkpt lat="43.22508478491666" lon="12.254052855226945"><ele>666.8</ele><time>2026-03-29T08:05:04Z</time></trkpt><trkpt lat="43.22520662437352" lon="12.254150650347848"><ele>667.5999999999999</ele><time>2026-03-29T08:05:05Z</time></trkpt><trkpt lat="43.22530207338099" lon="12.254165411552266"><ele>668.4</ele><time>2026-03-29T08:05:06Z</time></trkpt><trkpt lat="43.2253755522421" lon="12.254173438253936"><ele>669.2</ele><time>2026-03-29T08:05:07Z</time></trkpt><trkpt lat="43.22546294558964" lon="12.254183561890795"><ele>670.0</ele><time>2026-03-29T08:05:09Z</time></trkpt><trkpt lat="43.225600931979415" lon="12.2541997167384"><ele>671.0</ele><time>2026-03-29T08:05:11Z</time></trkpt><trkpt lat="43.22568110915756" lon="12.254197564634568"><ele>672.0</ele><time>2026-03-29T08:05:12Z</time></trkpt><trkpt lat="43.22579595955607" lon="12.254161600626635"><ele>673.0</ele><time>2026-03-29T08:05:14Z</time></trkpt><trkpt lat="43.22586846566156" lon="12.254141160843613"><ele>674.0</ele><time>2026-03-29T08:05:15Z</time></trkpt><trkpt lat="43.225917000218885" lon="12.25404549046663"><ele>675.0</ele><time>2026-03-29T08:05:16Z</time></trkpt><trkpt lat="43.22596236936978" lon="12.253974435310774"><ele>676.0</ele><time>2026-03-29T08:05:17Z</time></trkpt><trkpt lat="43.225976926690166" lon="12.253890119406934"><ele>679.8</ele><time>2026-03-29T08:05:18Z</time></trkpt><trkpt lat="43.226002182242766" lon="12.253790043770024"><ele>683.5999999999999</ele><time>2026-03-29T08:05:19Z</time></trkpt><trkpt lat="43.22603202341262" lon="12.253636541150815"><ele>687.4</ele><time>2026-03-29T08:05:21Z</time></trkpt><trkpt lat="43.226065214202684" lon="12.253473134246994"><ele>691.2</ele><time>2026-03-29T08:05:23Z</time></trkpt><trkpt lat="43.22608039741938" lon="12.253388909779945"><ele>695.0</ele><time>2026-03-29T08:05:24Z</time></trkpt><trkpt lat="43.226097813911345" lon="12.253293189406923"><ele>695.0</ele><time>2026-03-29T08:05:25Z</time></trkpt><trkpt lat="43.22611908094942" lon="12.253163481130505"><ele>695.0</ele><time>2026-03-29T08:05:26Z</time></trkpt><trkpt lat="43.22613939328163" lon="12.253031761898978"><ele>695.0</ele><time>2026-03-29T08:05:27Z</time></trkpt><trkpt lat="43.22615733447728" lon="12.252877825779295"><ele>695.0</ele><time>2026-03-29T08:05:28Z</time></trkpt><trkpt lat="43.22617320288438" lon="12.252729512390781"><ele>695.0</ele><time>2026-03-29T08:05:29Z</time></trkpt><trkpt lat="43.22619179629151" lon="12.25258693926415"><ele>697.8333333333333</ele><time>2026-03-29T08:05:30Z</time></trkpt><trkpt lat="43.22622252789705" lon="12.252486480255294"><ele>700.6666666666666</ele><time>2026-03-29T08:05:31Z</time></trkpt><trkpt lat="43.22621366570723" lon="12.252387147354094"><ele>703.5</ele><time>2026-03-29T08:05:32Z</time></trkpt><trkpt lat="43.22621675569851" lon="12.252288189947427"><ele>706.3333333333334</ele><time>2026-03-29T08:05:33Z</time></trkpt><trkpt lat="43.22625682686933" lon="12.252212626159361"><ele>709.1666666666667</ele><time>2026-03-29T08:05:34Z</time></trkpt><trkpt lat="43.22628857373995" lon="12.252137814159285"><ele>712.0</ele><time>2026-03-29T08:05:35Z</time></trkpt><trkpt lat="43.2263913832903" lon="12.252153745801348"><ele>714.0</ele><time>2026-03-29T08:05:37Z</time></trkpt><trkpt lat="43.22647669360409" lon="12.25214022740624"><ele>716.0</ele><time>2026-03-29T08:05:38Z</time></trkpt><trkpt lat="43.22656534392606" lon="12.252102250620698"><ele>718.0</ele><time>2026-03-29T08:05:39Z</time></trkpt><trkpt lat="43.22663122818568" lon="12.252075513708483"><ele>720.0</ele><time>2026-03-29T08:05:40Z</time></trkpt><trkpt lat="43.22673949179732" lon="12.252022654219488"><ele>722.0</ele><time>2026-03-29T08:05:41Z</time></trkpt><trkpt lat="43.226827487376696" lon="12.251975878688945"><ele>722.0</ele><time>2026-03-29T08:05:42Z</time></trkpt><trkpt lat="43.22690508727687" lon="12.251930101971489"><ele>722.0</ele><time>2026-03-29T08:05:43Z</time></trkpt><trkpt lat="43.22698208726226" lon="12.251877605081603"><ele>722.0</ele><time>2026-03-29T08:05:44Z</time></trkpt><trkpt lat="43.22706499305037" lon="12.251819121385758"><ele>722.0</ele><time>2026-03-29T08:05:45Z</time></trkpt><trkpt lat="43.22717028298959" lon="12.251733436792161"><ele>722.0</ele><time>2026-03-29T08:05:46Z</time></trkpt><trkpt lat="43.22726793689242" lon="12.251693872867305"><ele>722.0</ele><time>2026-03-29T08:05:47Z</time></trkpt><trkpt lat="43.22738961287547" lon="12.251624010320933"><ele>722.0</ele><time>2026-03-29T08:05:48Z</time></trkpt><trkpt lat="43.22747985185057" lon="12.251591693578732"><ele>722.0</ele><time>2026-03-29T08:05:49Z</time></trkpt><trkpt lat="43.227595767283454" lon="12.251619479695876"><ele>722.0</ele><time>2026-03-29T08:05:50Z</time></trkpt><trkpt lat="43.22768855574685" lon="12.251643734169265"><ele>722.0</ele><time>2026-03-29T08:05:51Z</time></trkpt><trkpt lat="43.22777693978172" lon="12.25166830968915"><ele>722.0</ele><time>2026-03-29T08:05:52Z</time></trkpt><trkpt lat="43.2278572073113" lon="12.25167271923087"><ele>722.0</ele><time>2026-03-29T08:05:53Z</time></trkpt><trkpt lat="43.22794317882364" lon="12.251696693803577"><ele>722.0</ele><time>2026-03-29T08:05:54Z</time></trkpt><trkpt lat="43.22803651646787" lon="12.251700655655927"><ele>722.0</ele><time>2026-03-29T08:05:55Z</time></trkpt><trkpt lat="43.22812567910155" lon="12.251707862490756"><ele>722.0</ele><time>2026-03-29T08:05:56Z</time></trkpt><trkpt lat="43.22822375636925" lon="12.251710392613075"><ele>722.0</ele><time>2026-03-29T08:05:57Z</time></trkpt><trkpt lat="43.22830426752013" lon="12.251711454623088"><ele>722.1666666666666</ele><time>2026-03-29T08:05:58Z</time></trkpt><trkpt lat="43.22839296787677" lon="12.251717880594253"><ele>722.3333333333333</ele><time>2026-03-29T08:05:59Z</time></trkpt><trkpt lat="43.22846403477992" lon="12.251752901470084"><ele>722.5</ele><time>2026-03-29T08:06:00Z</time></trkpt><trkpt lat="43.22854339705345" lon="12.251766123691683"><ele>722.6666666666666</ele><time>2026-03-29T08:06:01Z</time></trkpt><trkpt lat="43.228623397732825" lon="12.25175782476331"><ele>722.8333333333334</ele><time>2026-03-29T08:06:02Z</time></trkpt><trkpt lat="43.228700533537854" lon="12.251757743353947"><ele>723.0</ele><time>2026-03-29T08:06:03Z</time></trkpt><trkpt lat="43.22876878523264" lon="12.251709850241268"><ele>723.0</ele><time>2026-03-29T08:06:04Z</time></trkpt><trkpt lat="43.22880083422524" lon="12.25161203393688"><ele>723.0</ele><time>2026-03-29T08:06:05Z</time></trkpt><trkpt lat="43.22886556781687" lon="12.25149707914922"><ele>723.0</ele><time>2026-03-29T08:06:06Z</time></trkpt><trkpt lat="43.228946317909966" lon="12.251380908227329"><ele>723.0</ele><time>2026-03-29T08:06:07Z</time></trkpt><trkpt lat="43.22901526510799" lon="12.251285637416105"><ele>723.0</ele><time>2026-03-29T08:06:08Z</time></trkpt><trkpt lat="43.2290850594639" lon="12.251193043571652"><ele>724.8333333333334</ele><time>2026-03-29T08:06:09Z</time></trkpt><trkpt lat="43.229149511693855" lon="12.251137714776558"><ele>726.6666666666666</ele><time>2026-03-29T08:06:10Z</time></trkpt><trkpt lat="43.229213322932885" lon="12.25107878393356"><ele>728.5</ele><time>2026-03-29T08:06:11Z</time></trkpt><trkpt lat="43.22927370549099" lon="12.25102909551134"><ele>730.3333333333333</ele><time>2026-03-29T08:06:12Z</time></trkpt><trkpt lat="43.229388619934305" lon="12.250927670013656"><ele>732.1666666666666</ele><time>2026-03-29T08:06:14Z</time></trkpt><trkpt lat="43.229469337418024" lon="12.250904941524936"><ele>734.0</ele><time>2026-03-29T08:06:15Z</time></trkpt><trkpt lat="43.229522445834306" lon="12.250854324935768"><ele>734.0</ele><time>2026-03-29T08:06:16Z</time></trkpt><trkpt lat="43.22957291943786" lon="12.250766232941006"><ele>734.0</ele><time>2026-03-29T08:06:17Z</time></trkpt><trkpt lat="43.229612847834815" lon="12.250614525067595"><ele>734.0</ele><time>2026-03-29T08:06:19Z</time></trkpt><trkpt lat="43.229698360588756" lon="12.250480012459823"><ele>734.0</ele><time>2026-03-29T08:06:21Z</time></trkpt><trkpt lat="43.22978579912206" lon="12.250404202152144"><ele>734.0</ele><time>2026-03-29T08:06:23Z</time></trkpt><trkpt lat="43.22988241960584" lon="12.25044247574824"><ele>737.25</ele><time>2026-03-29T08:06:24Z</time></trkpt><trkpt lat="43.23003955998446" lon="12.250431869716081"><ele>740.5</ele><time>2026-03-29T08:06:26Z</time></trkpt><trkpt lat="43.230139298971146" lon="12.250449078155174"><ele>743.75</ele><time>2026-03-29T08:06:27Z</time></trkpt><trkpt lat="43.23023659455594" lon="12.250499375784367"><ele>747.0</ele><time>2026-03-29T08:06:28Z</time></trkpt><trkpt lat="43.23035869144064" lon="12.250557482863362"><ele>747.0</ele><time>2026-03-29T08:06:29Z</time></trkpt><trkpt lat="43.23045814248554" lon="12.250602143947967"><ele>747.0</ele><time>2026-03-29T08:06:30Z</time></trkpt><trkpt lat="43.230545931114406" lon="12.250611786341043"><ele>747.0</ele><time>2026-03-29T08:06:31Z</time></trkpt><trkpt lat="43.230634501880274" lon="12.250558249308511"><ele>747.0</ele><time>2026-03-29T08:06:32Z</time></trkpt><trkpt lat="43.23072091815719" lon="12.250529653856974"><ele>747.0</ele><time>2026-03-29T08:06:33Z</time></trkpt><trkpt lat="43.23081930841421" lon="12.250509472192746"><ele>745.5</ele><time>2026-03-29T08:06:34Z</time></trkpt><trkpt lat="43.23091053157145" lon="12.250469172864497"><ele>744.0</ele><time>2026-03-29T08:06:35Z</time></trkpt><trkpt lat="43.23098245344806" lon="12.250410551708077"><ele>742.5</ele><time>2026-03-29T08:06:36Z</time></trkpt><trkpt lat="43.23104992861256" lon="12.250358749321952"><ele>741.0</ele><time>2026-03-29T08:06:37Z</time></trkpt><trkpt lat="43.23110761418093" lon="12.250293037684234"><ele>739.5</ele><time>2026-03-29T08:06:38Z</time></trkpt><trkpt lat="43.2311816558908" lon="12.250244326744241"><ele>738.0</ele><time>2026-03-29T08:06:39Z</time></trkpt><trkpt lat="43.23125067349125" lon="12.250198591941803"><ele>738.0</ele><time>2026-03-29T08:06:40Z</time></trkpt><trkpt lat="43.23132541588629" lon="12.25016801010742"><ele>738.0</ele><time>2026-03-29T08:06:41Z</time></trkpt><trkpt lat="43.23139185450498" lon="12.250148246614685"><ele>738.0</ele><time>2026-03-29T08:06:42Z</time></trkpt><trkpt lat="43.23145960838592" lon="12.250142532078149"><ele>738.0</ele><time>2026-03-29T08:06:43Z</time></trkpt><trkpt lat="43.23153414635747" lon="12.250133660637344"><ele>738.0</ele><time>2026-03-29T08:06:44Z</time></trkpt><trkpt lat="43.23162042661692" lon="12.250136986946272"><ele>738.0</ele><time>2026-03-29T08:06:45Z</time></trkpt><trkpt lat="43.231693607105115" lon="12.250159500533124"><ele>736.1666666666666</ele><time>2026-03-29T08:06:46Z</time></trkpt><trkpt lat="43.23176603962405" lon="12.250203905710375"><ele>734.3333333333334</ele><time>2026-03-29T08:06:47Z</time></trkpt><trkpt lat="43.23188861475117" lon="12.250219084553105"><ele>732.5</ele><time>2026-03-29T08:06:49Z</time></trkpt><trkpt lat="43.231962341634386" lon="12.250186317066394"><ele>730.6666666666667</ele><time>2026-03-29T08:06:50Z</time></trkpt><trkpt lat="43.23202416862654" lon="12.250134411217221"><ele>728.8333333333334</ele><time>2026-03-29T08:06:51Z</time></trkpt><trkpt lat="43.232096099946844" lon="12.250091264155083"><ele>727.0</ele><time>2026-03-29T08:06:52Z</time></trkpt><trkpt lat="43.23217146969526" lon="12.250034012891678"><ele>727.0</ele><time>2026-03-29T08:06:53Z</time></trkpt><trkpt lat="43.23223712187186" lon="12.24998028922066"><ele>727.0</ele><time>2026-03-29T08:06:54Z</time></trkpt><trkpt lat="43.23234063153892" lon="12.249898112713554"><ele>727.0</ele><time>2026-03-29T08:06:56Z</time></trkpt><trkpt lat="43.23238564812363" lon="12.249827769769357"><ele>727.0</ele><time>2026-03-29T08:06:57Z</time></trkpt><trkpt lat="43.232444648766815" lon="12.249768973096211"><ele>727.0</ele><time>2026-03-29T08:06:58Z</time></trkpt><trkpt lat="43.232489960954105" lon="12.249671105579166"><ele>727.0</ele><time>2026-03-29T08:06:59Z</time></trkpt><trkpt lat="43.23254155257553" lon="12.249570215254662"><ele>727.8333333333334</ele><time>2026-03-29T08:07:00Z</time></trkpt><trkpt lat="43.23259844375318" lon="12.249478400377928"><ele>728.6666666666667</ele><time>2026-03-29T08:07:01Z</time></trkpt><trkpt lat="43.23266689550328" lon="12.249424993463826"><ele>729.5</ele><time>2026-03-29T08:07:02Z</time></trkpt><trkpt lat="43.23272891752398" lon="12.249390952973965"><ele>730.3333333333334</ele><time>2026-03-29T08:07:03Z</time></trkpt><trkpt lat="43.23281246514134" lon="12.24933276510888"><ele>731.1666666666666</ele><time>2026-03-29T08:07:04Z</time></trkpt><trkpt lat="43.23290265899242" lon="12.249297321870095"><ele>732.0</ele><time>2026-03-29T08:07:05Z</time></trkpt><trkpt lat="43.23299080819563" lon="12.249278093904389"><ele>732.0</ele><time>2026-03-29T08:07:06Z</time></trkpt><trkpt lat="43.233058470327755" lon="12.249253835301529"><ele>732.0</ele><time>2026-03-29T08:07:07Z</time></trkpt><trkpt lat="43.23313671589732" lon="12.24922794437222"><ele>732.0</ele><time>2026-03-29T08:07:08Z</time></trkpt><trkpt lat="43.233213458086034" lon="12.249203854932178"><ele>732.0</ele><time>2026-03-29T08:07:09Z</time></trkpt><trkpt lat="43.23327955291817" lon="12.249184200168918"><ele>732.0</ele><time>2026-03-29T08:07:10Z</time></trkpt><trkpt lat="43.23335087476277" lon="12.24916299096408"><ele>732.0</ele><time>2026-03-29T08:07:11Z</time></trkpt><trkpt lat="43.23342259271761" lon="12.249146021549631"><ele>732.0</ele><time>2026-03-29T08:07:12Z</time></trkpt><trkpt lat="43.2335000545822" lon="12.249127021475466"><ele>730.0</ele><time>2026-03-29T08:07:13Z</time></trkpt><trkpt lat="43.23358368750001" lon="12.24910937202725"><ele>728.0</ele><time>2026-03-29T08:07:14Z</time></trkpt><trkpt lat="43.2336678451685" lon="12.249093548259593"><ele>726.0</ele><time>2026-03-29T08:07:15Z</time></trkpt><trkpt lat="43.2337520233169" lon="12.249082436286685"><ele>724.0</ele><time>2026-03-29T08:07:16Z</time></trkpt><trkpt lat="43.23385283615991" lon="12.249076303396915"><ele>722.0</ele><time>2026-03-29T08:07:17Z</time></trkpt><trkpt lat="43.233942397789775" lon="12.249074744835642"><ele>720.0</ele><time>2026-03-29T08:07:18Z</time></trkpt><trkpt lat="43.23405324570167" lon="12.249095291678598"><ele>719.2</ele><time>2026-03-29T08:07:19Z</time></trkpt><trkpt lat="43.23416617940168" lon="12.24912749644465"><ele>718.4</ele><time>2026-03-29T08:07:20Z</time></trkpt><trkpt lat="43.2342599393348" lon="12.24916041187866"><ele>717.5999999999999</ele><time>2026-03-29T08:07:21Z</time></trkpt><trkpt lat="43.23435633226128" lon="12.249191595606964"><ele>716.8</ele><time>2026-03-29T08:07:22Z</time></trkpt><trkpt lat="43.23443903467063" lon="12.2492759732352"><ele>716.0</ele><time>2026-03-29T08:07:23Z</time></trkpt><trkpt lat="43.2345395608798" lon="12.249322118077757"><ele>716.0</ele><time>2026-03-29T08:07:24Z</time></trkpt><trkpt lat="43.234627846002546" lon="12.249336299863755"><ele>716.0</ele><time>2026-03-29T08:07:25Z</time></trkpt><trkpt lat="43.23469943031976" lon="12.249308380949811"><ele>716.0</ele><time>2026-03-29T08:07:26Z</time></trkpt><trkpt lat="43.234788602849804" lon="12.249230271246365"><ele>716.0</ele><time>2026-03-29T08:07:28Z</time></trkpt><trkpt lat="43.234834922599745" lon="12.249160427348523"><ele>716.0</ele><time>2026-03-29T08:07:29Z</time></trkpt><trkpt lat="43.23485265006516" lon="12.249073400565125"><ele>716.0</ele><time>2026-03-29T08:07:30Z</time></trkpt><trkpt lat="43.23487361169354" lon="12.248951799594598"><ele>717.5999999999999</ele><time>2026-03-29T08:07:31Z</time></trkpt><trkpt lat="43.23489065863428" lon="12.248849277449484"><ele>719.2</ele><time>2026-03-29T08:07:32Z</time></trkpt><trkpt lat="43.23491788934201" lon="12.248731042195725"><ele>720.8</ele><time>2026-03-29T08:07:33Z</time></trkpt><trkpt lat="43.23496877441402" lon="12.24859821069463"><ele>722.4000000000001</ele><time>2026-03-29T08:07:34Z</time></trkpt><trkpt lat="43.23502491780262" lon="12.248502842265355"><ele>724.0</ele><time>2026-03-29T08:07:35Z</time></trkpt><trkpt lat="43.23508437583377" lon="12.248419380472171"><ele>724.0</ele><time>2026-03-29T08:07:36Z</time></trkpt><trkpt lat="43.23515150333864" lon="12.248327245823496"><ele>724.0</ele><time>2026-03-29T08:07:37Z</time></trkpt><trkpt lat="43.23521790365302" lon="12.24823077437616"><ele>724.0</ele><time>2026-03-29T08:07:38Z</time></trkpt><trkpt lat="43.23527545776469" lon="12.248141084404326"><ele>724.0</ele><time>2026-03-29T08:07:39Z</time></trkpt><trkpt lat="43.235326854017806" lon="12.248060910517909"><ele>724.0</ele><time>2026-03-29T08:07:40Z</time></trkpt><trkpt lat="43.23538427566986" lon="12.247974406456207"><ele>724.0</ele><time>2026-03-29T08:07:41Z</time></trkpt><trkpt lat="43.23544260071875" lon="12.247899395892883"><ele>723.2</ele><time>2026-03-29T08:07:42Z</time></trkpt><trkpt lat="43.235523718398746" lon="12.247810239158978"><ele>722.4000000000001</ele><time>2026-03-29T08:07:44Z</time></trkpt><trkpt lat="43.235615594348204" lon="12.247699115451804"><ele>721.6</ele><time>2026-03-29T08:07:46Z</time></trkpt><trkpt lat="43.23568621261523" lon="12.24762769389415"><ele>720.8</ele><time>2026-03-29T08:07:47Z</time></trkpt><trkpt lat="43.235761683416584" lon="12.247568315556284"><ele>720.0</ele><time>2026-03-29T08:07:48Z</time></trkpt><trkpt lat="43.23581101372333" lon="12.247503022250937"><ele>720.0</ele><time>2026-03-29T08:07:49Z</time></trkpt><trkpt lat="43.23586693831401" lon="12.247411781901022"><ele>720.0</ele><time>2026-03-29T08:07:50Z</time></trkpt><trkpt lat="43.23592578000949" lon="12.247320155964843"><ele>720.0</ele><time>2026-03-29T08:07:51Z</time></trkpt><trkpt lat="43.235988989309575" lon="12.24721289780166"><ele>720.0</ele><time>2026-03-29T08:07:52Z</time></trkpt><trkpt lat="43.23606814386062" lon="12.247116190499904"><ele>720.0</ele><time>2026-03-29T08:07:53Z</time></trkpt><trkpt lat="43.23614463182299" lon="12.24705421022467"><ele>721.6666666666666</ele><time>2026-03-29T08:07:54Z</time></trkpt><trkpt lat="43.236218314850746" lon="12.2469843416911"><ele>723.3333333333334</ele><time>2026-03-29T08:07:55Z</time></trkpt><trkpt lat="43.23630901211444" lon="12.246939371210829"><ele>725.0</ele><time>2026-03-29T08:07:56Z</time></trkpt><trkpt lat="43.23638619073567" lon="12.24691626461439"><ele>726.6666666666667</ele><time>2026-03-29T08:07:57Z</time></trkpt><trkpt lat="43.23639843777081" lon="12.246827975382576"><ele>728.3333333333334</ele><time>2026-03-29T08:07:58Z</time></trkpt><trkpt lat="43.23640601397812" lon="12.246700139546062"><ele>730.0</ele><time>2026-03-29T08:08:00Z</time></trkpt><trkpt lat="43.23642979040807" lon="12.246606714998288"><ele>730.0</ele><time>2026-03-29T08:08:01Z</time></trkpt><trkpt lat="43.23646151539989" lon="12.246480849952558"><ele>730.0</ele><time>2026-03-29T08:08:02Z</time></trkpt><trkpt lat="43.23649576304455" lon="12.246344977141462"><ele>730.0</ele><time>2026-03-29T08:08:03Z</time></trkpt><trkpt lat="43.23652489355466" lon="12.246210531074665"><ele>730.0</ele><time>2026-03-29T08:08:04Z</time></trkpt><trkpt lat="43.236550773266906" lon="12.246063462181821"><ele>730.0</ele><time>2026-03-29T08:08:05Z</time></trkpt><trkpt lat="43.23657330641572" lon="12.245931003938937"><ele>729.2</ele><time>2026-03-29T08:08:06Z</time></trkpt><trkpt lat="43.23659403576927" lon="12.245815191048681"><ele>728.4</ele><time>2026-03-29T08:08:07Z</time></trkpt><trkpt lat="43.23660763004806" lon="12.245727927682607"><ele>727.5999999999999</ele><time>2026-03-29T08:08:08Z</time></trkpt><trkpt lat="43.236611455529435" lon="12.245618646699713"><ele>726.8</ele><time>2026-03-29T08:08:10Z</time></trkpt><trkpt lat="43.236596130567094" lon="12.245512990556785"><ele>726.0</ele><time>2026-03-29T08:08:13Z</time></trkpt><trkpt lat="43.23673508266898" lon="12.245428100355843"><ele>726.0</ele><time>2026-03-29T08:08:14Z</time></trkpt><trkpt lat="43.23677768122426" lon="12.245345821117155"><ele>726.0</ele><time>2026-03-29T08:08:15Z</time></trkpt><trkpt lat="43.23685001176831" lon="12.245261425581221"><ele>726.0</ele><time>2026-03-29T08:08:16Z</time></trkpt><trkpt lat="43.23694397389128" lon="12.24515990449026"><ele>726.0</ele><time>2026-03-29T08:08:17Z</time></trkpt><trkpt lat="43.23702382124814" lon="12.245089824576882"><ele>726.0</ele><time>2026-03-29T08:08:18Z</time></trkpt><trkpt lat="43.23710149702938" lon="12.245027697787533"><ele>726.0</ele><time>2026-03-29T08:08:19Z</time></trkpt><trkpt lat="43.23719588217888" lon="12.244953616156055"><ele>726.0</ele><time>2026-03-29T08:08:20Z</time></trkpt><trkpt lat="43.23729377056879" lon="12.244876028504587"><ele>726.0</ele><time>2026-03-29T08:08:21Z</time></trkpt><trkpt lat="43.23740400740446" lon="12.244788907005287"><ele>726.0</ele><time>2026-03-29T08:08:22Z</time></trkpt><trkpt lat="43.23750690511065" lon="12.244709705654826"><ele>723.8</ele><time>2026-03-29T08:08:23Z</time></trkpt><trkpt lat="43.23760440748413" lon="12.244635581187081"><ele>721.5999999999999</ele><time>2026-03-29T08:08:24Z</time></trkpt><trkpt lat="43.23769180865089" lon="12.244569665163434"><ele>719.4</ele><time>2026-03-29T08:08:25Z</time></trkpt><trkpt lat="43.23778249653667" lon="12.24450121241671"><ele>717.2</ele><time>2026-03-29T08:08:26Z</time></trkpt><trkpt lat="43.23786527351782" lon="12.244435952628063"><ele>715.0</ele><time>2026-03-29T08:08:27Z</time></trkpt><trkpt lat="43.23795485257415" lon="12.244365702401508"><ele>715.0</ele><time>2026-03-29T08:08:28Z</time></trkpt><trkpt lat="43.23805614344768" lon="12.24428702924328"><ele>715.0</ele><time>2026-03-29T08:08:29Z</time></trkpt><trkpt lat="43.23815716406824" lon="12.244214510909854"><ele>715.0</ele><time>2026-03-29T08:08:30Z</time></trkpt><trkpt lat="43.238255601961356" lon="12.24415700290267"><ele>715.0</ele><time>2026-03-29T08:08:31Z</time></trkpt><trkpt lat="43.238367351930634" lon="12.244110963406637"><ele>715.25</ele><time>2026-03-29T08:08:32Z</time></trkpt><trkpt lat="43.23848198591513" lon="12.244077544765315"><ele>715.5</ele><time>2026-03-29T08:08:33Z</time></trkpt><trkpt lat="43.23859947866179" lon="12.244057205444086"><ele>715.75</ele><time>2026-03-29T08:08:34Z</time></trkpt><trkpt lat="43.238711518908225" lon="12.244021739272595"><ele>716.0</ele><time>2026-03-29T08:08:35Z</time></trkpt><trkpt lat="43.238820621822775" lon="12.243961416396655"><ele>716.25</ele><time>2026-03-29T08:08:36Z</time></trkpt><trkpt lat="43.23892360185156" lon="12.243872216590404"><ele>716.5</ele><time>2026-03-29T08:08:37Z</time></trkpt><trkpt lat="43.23901165581753" lon="12.2437732706423"><ele>716.75</ele><time>2026-03-29T08:08:38Z</time></trkpt><trkpt lat="43.239093860557844" lon="12.243677096466124"><ele>717.0</ele><time>2026-03-29T08:08:39Z</time></trkpt><trkpt lat="43.23918400683459" lon="12.243571630955325"><ele>714.75</ele><time>2026-03-29T08:08:40Z</time></trkpt><trkpt lat="43.239276453289875" lon="12.24346347434343"><ele>712.5</ele><time>2026-03-29T08:08:41Z</time></trkpt><trkpt lat="43.23936490797497" lon="12.24336051085247"><ele>710.25</ele><time>2026-03-29T08:08:42Z</time></trkpt><trkpt lat="43.23946073804931" lon="12.243252984806798"><ele>708.0</ele><time>2026-03-29T08:08:43Z</time></trkpt><trkpt lat="43.23955417505499" lon="12.243158133923346"><ele>706.25</ele><time>2026-03-29T08:08:44Z</time></trkpt><trkpt lat="43.23965316251919" lon="12.243061263522087"><ele>704.5</ele><time>2026-03-29T08:08:45Z</time></trkpt><trkpt lat="43.23975213204699" lon="12.242965392011923"><ele>702.75</ele><time>2026-03-29T08:08:46Z</time></trkpt><trkpt lat="43.23984505919494" lon="12.242876612832315"><ele>701.0</ele><time>2026-03-29T08:08:47Z</time></trkpt><trkpt lat="43.239932985311626" lon="12.24279089489052"><ele>700.3333333333333</ele><time>2026-03-29T08:08:48Z</time></trkpt><trkpt lat="43.24001714996043" lon="12.242708844028417"><ele>699.6666666666666</ele><time>2026-03-29T08:08:49Z</time></trkpt><trkpt lat="43.24009639477333" lon="12.242631589403272"><ele>699.0</ele><time>2026-03-29T08:08:50Z</time></trkpt><trkpt lat="43.24016702669343" lon="12.24256489523535"><ele>698.3333333333334</ele><time>2026-03-29T08:08:51Z</time></trkpt><trkpt lat="43.240236529711076" lon="12.242504311151539"><ele>697.6666666666667</ele><time>2026-03-29T08:08:52Z</time></trkpt><trkpt lat="43.240305628115436" lon="12.24244867407343"><ele>697.0</ele><time>2026-03-29T08:08:53Z</time></trkpt><trkpt lat="43.240374312889585" lon="12.242397836039643"><ele>697.0</ele><time>2026-03-29T08:08:54Z</time></trkpt><trkpt lat="43.24043474783833" lon="12.24236372737163"><ele>697.0</ele><time>2026-03-29T08:08:55Z</time></trkpt><trkpt lat="43.24051116126955" lon="12.242333148198426"><ele>697.0</ele><time>2026-03-29T08:08:57Z</time></trkpt><trkpt lat="43.24054865341731" lon="12.24224822859305"><ele>697.0</ele><time>2026-03-29T08:08:58Z</time></trkpt><trkpt lat="43.24061951347789" lon="12.242170639191366"><ele>697.0</ele><time>2026-03-29T08:09:00Z</time></trkpt><trkpt lat="43.2406703855802" lon="12.242112717594697"><ele>697.0</ele><time>2026-03-29T08:09:01Z</time></trkpt><trkpt lat="43.24072998405486" lon="12.242041546419197"><ele>697.8</ele><time>2026-03-29T08:09:02Z</time></trkpt><trkpt lat="43.24080510963617" lon="12.241951094771727"><ele>698.6</ele><time>2026-03-29T08:09:03Z</time></trkpt><trkpt lat="43.24088585799729" lon="12.241849247005558"><ele>699.4</ele><time>2026-03-29T08:09:04Z</time></trkpt><trkpt lat="43.24096586842815" lon="12.241757864591417"><ele>700.1999999999999</ele><time>2026-03-29T08:09:05Z</time></trkpt><trkpt lat="43.2410564781983" lon="12.241705967374077"><ele>701.0</ele><time>2026-03-29T08:09:06Z</time></trkpt><trkpt lat="43.24115948924949" lon="12.241661012618762"><ele>701.0</ele><time>2026-03-29T08:09:07Z</time></trkpt><trkpt lat="43.24127115163427" lon="12.241610340661328"><ele>701.0</ele><time>2026-03-29T08:09:08Z</time></trkpt><trkpt lat="43.24138044322036" lon="12.241551171393404"><ele>701.0</ele><time>2026-03-29T08:09:09Z</time></trkpt><trkpt lat="43.24149457023892" lon="12.241478583255029"><ele>701.0</ele><time>2026-03-29T08:09:10Z</time></trkpt><trkpt lat="43.24159624259162" lon="12.241409743114897"><ele>702.4</ele><time>2026-03-29T08:09:11Z</time></trkpt><trkpt lat="43.241703185945646" lon="12.2413357352144"><ele>703.8</ele><time>2026-03-29T08:09:12Z</time></trkpt><trkpt lat="43.2417960809485" lon="12.241271071810665"><ele>705.1999999999999</ele><time>2026-03-29T08:09:13Z</time></trkpt><trkpt lat="43.24188157176551" lon="12.241216908693653"><ele>706.5999999999999</ele><time>2026-03-29T08:09:14Z</time></trkpt><trkpt lat="43.24196272932178" lon="12.241177453421235"><ele>708.0</ele><time>2026-03-29T08:09:15Z</time></trkpt><trkpt lat="43.2420337303969" lon="12.241144979234994"><ele>708.0</ele><time>2026-03-29T08:09:16Z</time></trkpt><trkpt lat="43.24210181996714" lon="12.241113052236779"><ele>708.0</ele><time>2026-03-29T08:09:17Z</time></trkpt><trkpt lat="43.24216223071655" lon="12.241072120247283"><ele>708.0</ele><time>2026-03-29T08:09:18Z</time></trkpt><trkpt lat="43.24225607901043" lon="12.241084287130661"><ele>708.0</ele><time>2026-03-29T08:09:20Z</time></trkpt><trkpt lat="43.242314199707174" lon="12.241181320886763"><ele>708.0</ele><time>2026-03-29T08:09:21Z</time></trkpt><trkpt lat="43.24239793397236" lon="12.241191816965479"><ele>708.0</ele><time>2026-03-29T08:09:22Z</time></trkpt><trkpt lat="43.242503306321645" lon="12.241205025379235"><ele>708.4</ele><time>2026-03-29T08:09:23Z</time></trkpt><trkpt lat="43.242608072995935" lon="12.24122132051003"><ele>708.8</ele><time>2026-03-29T08:09:24Z</time></trkpt><trkpt lat="43.24270221790778" lon="12.24123674278844"><ele>709.2</ele><time>2026-03-29T08:09:25Z</time></trkpt><trkpt lat="43.2428218935388" lon="12.241256529205577"><ele>709.6</ele><time>2026-03-29T08:09:26Z</time></trkpt><trkpt lat="43.242937212208346" lon="12.241277500286015"><ele>710.0</ele><time>2026-03-29T08:09:27Z</time></trkpt><trkpt lat="43.24303052478195" lon="12.241294469498108"><ele>708.75</ele><time>2026-03-29T08:09:28Z</time></trkpt><trkpt lat="43.24315434500812" lon="12.241321488127374"><ele>707.5</ele><time>2026-03-29T08:09:29Z</time></trkpt><trkpt lat="43.24326863474523" lon="12.241365704317332"><ele>706.25</ele><time>2026-03-29T08:09:30Z</time></trkpt><trkpt lat="43.24335180231348" lon="12.241423733199253"><ele>705.0</ele><time>2026-03-29T08:09:31Z</time></trkpt><trkpt lat="43.24345961822915" lon="12.241496561246297"><ele>708.0</ele><time>2026-03-29T08:09:33Z</time></trkpt><trkpt lat="43.243542450652484" lon="12.24154858892215"><ele>711.0</ele><time>2026-03-29T08:09:34Z</time></trkpt><trkpt lat="43.24363123353937" lon="12.241604020995457"><ele>714.0</ele><time>2026-03-29T08:09:35Z</time></trkpt><trkpt lat="43.243712961269985" lon="12.241657728953438"><ele>717.0</ele><time>2026-03-29T08:09:36Z</time></trkpt><trkpt lat="43.243783536087065" lon="12.241710676152154"><ele>720.0</ele><time>2026-03-29T08:09:37Z</time></trkpt><trkpt lat="43.24389663121969" lon="12.241816694362102"><ele>717.75</ele><time>2026-03-29T08:09:40Z</time></trkpt><trkpt lat="43.2439862617419" lon="12.241911665802217"><ele>715.5</ele><time>2026-03-29T08:09:41Z</time></trkpt><trkpt lat="43.244104083765905" lon="12.24204516714069"><ele>713.25</ele><time>2026-03-29T08:09:42Z</time></trkpt><trkpt lat="43.24423732341125" lon="12.242142579197871"><ele>711.0</ele><time>2026-03-29T08:09:43Z</time></trkpt><trkpt lat="43.24433562886775" lon="12.242207627505564"><ele>711.0</ele><time>2026-03-29T08:09:44Z</time></trkpt><trkpt lat="43.24442564124133" lon="12.242262022948045"><ele>711.0</ele><time>2026-03-29T08:09:45Z</time></trkpt><trkpt lat="43.24450042295923" lon="12.24230329964269"><ele>711.0</ele><time>2026-03-29T08:09:46Z</time></trkpt><trkpt lat="43.24457591986897" lon="12.24234305055119"><ele>711.0</ele><time>2026-03-29T08:09:47Z</time></trkpt><trkpt lat="43.24466000699261" lon="12.242386022150264"><ele>711.0</ele><time>2026-03-29T08:09:49Z</time></trkpt><trkpt lat="43.244782122719364" lon="12.242444256657851"><ele>712.1666666666666</ele><time>2026-03-29T08:09:51Z</time></trkpt><trkpt lat="43.244855937976624" lon="12.24247594688016"><ele>713.3333333333334</ele><time>2026-03-29T08:09:52Z</time></trkpt><trkpt lat="43.24493729685297" lon="12.242505117703898"><ele>714.5</ele><time>2026-03-29T08:09:53Z</time></trkpt><trkpt lat="43.24500967593008" lon="12.242525640060657"><ele>715.6666666666667</ele><time>2026-03-29T08:09:54Z</time></trkpt><trkpt lat="43.24509113965032" lon="12.242558849076921"><ele>716.8333333333334</ele><time>2026-03-29T08:09:55Z</time></trkpt><trkpt lat="43.24517505599752" lon="12.24260699923911"><ele>718.0</ele><time>2026-03-29T08:09:56Z</time></trkpt><trkpt lat="43.245281002131605" lon="12.242675260918551"><ele>718.0</ele><time>2026-03-29T08:09:57Z</time></trkpt><trkpt lat="43.24538145842145" lon="12.242768504231233"><ele>718.0</ele><time>2026-03-29T08:09:58Z</time></trkpt><trkpt lat="43.24549575176401" lon="12.242874238472824"><ele>718.0</ele><time>2026-03-29T08:09:59Z</time></trkpt><trkpt lat="43.24560718331172" lon="12.242968091624899"><ele>718.0</ele><time>2026-03-29T08:10:00Z</time></trkpt><trkpt lat="43.24571788060249" lon="12.243040852079263"><ele>719.6666666666667</ele><time>2026-03-29T08:10:01Z</time></trkpt><trkpt lat="43.24583472648687" lon="12.243148570323305"><ele>721.3333333333334</ele><time>2026-03-29T08:10:02Z</time></trkpt><trkpt lat="43.245973269551044" lon="12.243236113555534"><ele>723.0</ele><time>2026-03-29T08:10:03Z</time></trkpt><trkpt lat="43.246124486977" lon="12.243299863239422"><ele>723.0</ele><time>2026-03-29T08:10:04Z</time></trkpt><trkpt lat="43.24628958333126" lon="12.243332972976804"><ele>723.0</ele><time>2026-03-29T08:10:05Z</time></trkpt><trkpt lat="43.24645032989918" lon="12.24337625091929"><ele>723.0</ele><time>2026-03-29T08:10:06Z</time></trkpt><trkpt lat="43.24661092497015" lon="12.24341951861366"><ele>724.25</ele><time>2026-03-29T08:10:07Z</time></trkpt><trkpt lat="43.24675535348811" lon="12.243458513251197"><ele>725.5</ele><time>2026-03-29T08:10:08Z</time></trkpt><trkpt lat="43.24690775101559" lon="12.243499657703406"><ele>726.75</ele><time>2026-03-29T08:10:09Z</time></trkpt><trkpt lat="43.24703476597336" lon="12.243513195979348"><ele>728.0</ele><time>2026-03-29T08:10:10Z</time></trkpt><trkpt lat="43.24715836532925" lon="12.243539266736107"><ele>728.0</ele><time>2026-03-29T08:10:11Z</time></trkpt><trkpt lat="43.247282584868294" lon="12.24357210038405"><ele>728.0</ele><time>2026-03-29T08:10:12Z</time></trkpt><trkpt lat="43.24738330264349" lon="12.243640290290676"><ele>728.0</ele><time>2026-03-29T08:10:13Z</time></trkpt><trkpt lat="43.24747940341897" lon="12.243758074262361"><ele>728.0</ele><time>2026-03-29T08:10:14Z</time></trkpt><trkpt lat="43.247596009272854" lon="12.243882440554033"><ele>728.2</ele><time>2026-03-29T08:10:15Z</time></trkpt><trkpt lat="43.247694848959746" lon="12.244015110907268"><ele>728.4</ele><time>2026-03-29T08:10:16Z</time></trkpt><trkpt lat="43.2477823020684" lon="12.244077808940384"><ele>728.6</ele><time>2026-03-29T08:10:17Z</time></trkpt><trkpt lat="43.24785842084237" lon="12.244122860505092"><ele>728.8000000000001</ele><time>2026-03-29T08:10:18Z</time></trkpt><trkpt lat="43.247965607540095" lon="12.244040178926848"><ele>729.0</ele><time>2026-03-29T08:10:20Z</time></trkpt><trkpt lat="43.247997332926644" lon="12.243937184821899"><ele>729.8000000000001</ele><time>2026-03-29T08:10:21Z</time></trkpt><trkpt lat="43.24799322695003" lon="12.243807842674439"><ele>730.6</ele><time>2026-03-29T08:10:22Z</time></trkpt><trkpt lat="43.248001505186195" lon="12.24366359206802"><ele>731.4</ele><time>2026-03-29T08:10:23Z</time></trkpt><trkpt lat="43.24803158577483" lon="12.243522331139783"><ele>732.2</ele><time>2026-03-29T08:10:24Z</time></trkpt><trkpt lat="43.24810296834134" lon="12.2434014188508"><ele>733.0</ele><time>2026-03-29T08:10:25Z</time></trkpt><trkpt lat="43.24817799699455" lon="12.243283926219046"><ele>734.4</ele><time>2026-03-29T08:10:26Z</time></trkpt><trkpt lat="43.24825453971564" lon="12.243171903951309"><ele>735.8</ele><time>2026-03-29T08:10:27Z</time></trkpt><trkpt lat="43.248344926064" lon="12.243077186090463"><ele>737.2</ele><time>2026-03-29T08:10:28Z</time></trkpt><trkpt lat="43.2484068818815" lon="12.243009161060263"><ele>738.6</ele><time>2026-03-29T08:10:29Z</time></trkpt><trkpt lat="43.24847335709493" lon="12.242991831325531"><ele>740.0</ele><time>2026-03-29T08:10:30Z</time></trkpt><trkpt lat="43.24856754744407" lon="12.243009476680966"><ele>740.0</ele><time>2026-03-29T08:10:31Z</time></trkpt><trkpt lat="43.24865296639785" lon="12.243061618093556"><ele>740.0</ele><time>2026-03-29T08:10:32Z</time></trkpt><trkpt lat="43.24873905688531" lon="12.243109716518276"><ele>740.0</ele><time>2026-03-29T08:10:33Z</time></trkpt><trkpt lat="43.2488324993387" lon="12.243175734471862"><ele>740.0</ele><time>2026-03-29T08:10:34Z</time></trkpt><trkpt lat="43.24890190375034" lon="12.243225841850789"><ele>740.0</ele><time>2026-03-29T08:10:35Z</time></trkpt><trkpt lat="43.248954936998125" lon="12.243377474443664"><ele>743.8</ele><time>2026-03-29T08:10:36Z</time></trkpt><trkpt lat="43.24904140970393" lon="12.243406095691178"><ele>747.6</ele><time>2026-03-29T08:10:37Z</time></trkpt><trkpt lat="43.24913045717092" lon="12.243419570195723"><ele>751.4000000000001</ele><time>2026-03-29T08:10:38Z</time></trkpt><trkpt lat="43.24925025192531" lon="12.243422710075865"><ele>755.2</ele><time>2026-03-29T08:10:39Z</time></trkpt><trkpt lat="43.249395468475335" lon="12.243427295171252"><ele>759.0</ele><time>2026-03-29T08:10:40Z</time></trkpt><trkpt lat="43.24956281814447" lon="12.243426155715815"><ele>759.0</ele><time>2026-03-29T08:10:41Z</time></trkpt><trkpt lat="43.249761130374125" lon="12.243435311262486"><ele>759.0</ele><time>2026-03-29T08:10:42Z</time></trkpt><trkpt lat="43.24993327474573" lon="12.24343686554469"><ele>759.0</ele><time>2026-03-29T08:10:43Z</time></trkpt><trkpt lat="43.25011510781392" lon="12.243442271546312"><ele>759.5</ele><time>2026-03-29T08:10:44Z</time></trkpt><trkpt lat="43.2502411071101" lon="12.243450405866003"><ele>760.0</ele><time>2026-03-29T08:10:45Z</time></trkpt><trkpt lat="43.25037620328863" lon="12.243462679295845"><ele>760.5</ele><time>2026-03-29T08:10:46Z</time></trkpt><trkpt lat="43.25050463838268" lon="12.243488809185873"><ele>761.0</ele><time>2026-03-29T08:10:47Z</time></trkpt><trkpt lat="43.25061513284559" lon="12.243535351719292"><ele>762.0</ele><time>2026-03-29T08:10:48Z</time></trkpt><trkpt lat="43.250753555233814" lon="12.243595871244201"><ele>763.0</ele><time>2026-03-29T08:10:49Z</time></trkpt><trkpt lat="43.25082736220385" lon="12.243765060990649"><ele>764.0</ele><time>2026-03-29T08:10:50Z</time></trkpt><trkpt lat="43.2510474937701" lon="12.243963932374676"><ele>770.0</ele><time>2026-03-29T08:10:51Z</time></trkpt><trkpt lat="43.2512812783503" lon="12.244046253162692"><ele>776.0</ele><time>2026-03-29T08:10:52Z</time></trkpt><trkpt lat="43.251451073116975" lon="12.244081370504984"><ele>782.0</ele><time>2026-03-29T08:10:53Z</time></trkpt><trkpt lat="43.251664749622094" lon="12.244111710831241"><ele>784.0</ele><time>2026-03-29T08:10:54Z</time></trkpt><trkpt lat="43.251839661265855" lon="12.24412616724812"><ele>786.0</ele><time>2026-03-29T08:10:55Z</time></trkpt><trkpt lat="43.25203561635123" lon="12.244137638014093"><ele>788.0</ele><time>2026-03-29T08:10:56Z</time></trkpt><trkpt lat="43.252181757072584" lon="12.244144147336426"><ele>787.25</ele><time>2026-03-29T08:10:57Z</time></trkpt><trkpt lat="43.25231606232702" lon="12.244150129486622"><ele>786.5</ele><time>2026-03-29T08:10:58Z</time></trkpt><trkpt lat="43.25243897285822" lon="12.244155604102334"><ele>785.75</ele><time>2026-03-29T08:10:59Z</time></trkpt><trkpt lat="43.25259548933804" lon="12.244160437516829"><ele>785.0</ele><time>2026-03-29T08:11:00Z</time></trkpt><trkpt lat="43.25272890992234" lon="12.244161295324956"><ele>785.0</ele><time>2026-03-29T08:11:01Z</time></trkpt><trkpt lat="43.25286517765153" lon="12.244172408039091"><ele>785.0</ele><time>2026-03-29T08:11:02Z</time></trkpt><trkpt lat="43.252960218537936" lon="12.244207549777057"><ele>785.0</ele><time>2026-03-29T08:11:03Z</time></trkpt><trkpt lat="43.253044018257754" lon="12.24425710870205"><ele>785.0</ele><time>2026-03-29T08:11:04Z</time></trkpt><trkpt lat="43.25311281153538" lon="12.244312548589185"><ele>785.0</ele><time>2026-03-29T08:11:05Z</time></trkpt><trkpt lat="43.25322201508706" lon="12.244403839292563"><ele>782.0</ele><time>2026-03-29T08:11:06Z</time></trkpt><trkpt lat="43.25333338399635" lon="12.244501251451556"><ele>779.0</ele><time>2026-03-29T08:11:07Z</time></trkpt><trkpt lat="43.253451873405496" lon="12.24461297556429"><ele>776.0</ele><time>2026-03-29T08:11:08Z</time></trkpt><trkpt lat="43.25355404129083" lon="12.24471244558882"><ele>773.0</ele><time>2026-03-29T08:11:09Z</time></trkpt><trkpt lat="43.253635591190196" lon="12.244772483526521"><ele>772.5999999999999</ele><time>2026-03-29T08:11:10Z</time></trkpt><trkpt lat="43.25371330823755" lon="12.244803877157795"><ele>772.1999999999999</ele><time>2026-03-29T08:11:11Z</time></trkpt><trkpt lat="43.25377959913219" lon="12.244869484226987"><ele>771.8</ele><time>2026-03-29T08:11:13Z</time></trkpt><trkpt lat="43.253806967567385" lon="12.244994449697051"><ele>771.4</ele><time>2026-03-29T08:11:15Z</time></trkpt><trkpt lat="43.25388693109196" lon="12.245079780621959"><ele>771.0</ele><time>2026-03-29T08:11:16Z</time></trkpt><trkpt lat="43.25399592828983" lon="12.245179140751368"><ele>754.0</ele><time>2026-03-29T08:11:18Z</time></trkpt><trkpt lat="43.25461781261194" lon="12.244778459261806"><ele>754.0</ele><time>2026-03-29T08:11:19Z</time></trkpt><trkpt lat="43.254707689866144" lon="12.24474582951766"><ele>754.0</ele><time>2026-03-29T08:11:20Z</time></trkpt><trkpt lat="43.25478254914066" lon="12.244727626694921"><ele>754.0</ele><time>2026-03-29T08:11:21Z</time></trkpt><trkpt lat="43.25485753210542" lon="12.244737286965405"><ele>754.0</ele><time>2026-03-29T08:11:22Z</time></trkpt><trkpt lat="43.25495320138754" lon="12.244734271923335"><ele>754.0</ele><time>2026-03-29T08:11:23Z</time></trkpt><trkpt lat="43.25503121145039" lon="12.24473376320201"><ele>754.0</ele><time>2026-03-29T08:11:24Z</time></trkpt><trkpt lat="43.25511428242374" lon="12.244717830355395"><ele>754.4285714285713</ele><time>2026-03-29T08:11:25Z</time></trkpt><trkpt lat="43.25518290505294" lon="12.244719843534472"><ele>754.8571428571429</ele><time>2026-03-29T08:11:26Z</time></trkpt><trkpt lat="43.25525053249486" lon="12.244735138403628"><ele>755.2857142857142</ele><time>2026-03-29T08:11:27Z</time></trkpt><trkpt lat="43.25529935594906" lon="12.244791628212383"><ele>755.7142857142857</ele><time>2026-03-29T08:11:28Z</time></trkpt><trkpt lat="43.25536869653422" lon="12.244824449146462"><ele>756.1428571428571</ele><time>2026-03-29T08:11:29Z</time></trkpt><trkpt lat="43.25543987132494" lon="12.244856901872327"><ele>756.5714285714286</ele><time>2026-03-29T08:11:30Z</time></trkpt><trkpt lat="43.25552225698639" lon="12.244835467780527"><ele>757.0</ele><time>2026-03-29T08:11:31Z</time></trkpt><trkpt lat="43.2555913041971" lon="12.244766498034847"><ele>755.5</ele><time>2026-03-29T08:11:32Z</time></trkpt><trkpt lat="43.25565988986513" lon="12.244717817247942"><ele>754.0</ele><time>2026-03-29T08:11:33Z</time></trkpt><trkpt lat="43.25574306660679" lon="12.244694203896117"><ele>752.5</ele><time>2026-03-29T08:11:34Z</time></trkpt><trkpt lat="43.255818971286686" lon="12.244717385922458"><ele>751.0</ele><time>2026-03-29T08:11:35Z</time></trkpt><trkpt lat="43.255886171621256" lon="12.244762267803097"><ele>749.5</ele><time>2026-03-29T08:11:36Z</time></trkpt><trkpt lat="43.255964960493436" lon="12.244840319178318"><ele>748.0</ele><time>2026-03-29T08:11:37Z</time></trkpt><trkpt lat="43.25601378724312" lon="12.244950715802428"><ele>748.0</ele><time>2026-03-29T08:11:38Z</time></trkpt><trkpt lat="43.25607364032984" lon="12.245038392683243"><ele>748.0</ele><time>2026-03-29T08:11:39Z</time></trkpt><trkpt lat="43.256145066744295" lon="12.245130870457935"><ele>748.0</ele><time>2026-03-29T08:11:40Z</time></trkpt><trkpt lat="43.25618678234669" lon="12.245214082256416"><ele>748.0</ele><time>2026-03-29T08:11:41Z</time></trkpt><trkpt lat="43.25626415697253" lon="12.245298438835675"><ele>748.0</ele><time>2026-03-29T08:11:43Z</time></trkpt><trkpt lat="43.256310173831075" lon="12.245371538172932"><ele>748.0</ele><time>2026-03-29T08:11:45Z</time></trkpt><trkpt lat="43.25635881185982" lon="12.245283743251711"><ele>745.8333333333334</ele><time>2026-03-29T08:11:50Z</time></trkpt><trkpt lat="43.256454327110276" lon="12.24526026087896"><ele>743.6666666666667</ele><time>2026-03-29T08:11:52Z</time></trkpt><trkpt lat="43.25652702951851" lon="12.245201259028846"><ele>741.5</ele><time>2026-03-29T08:11:53Z</time></trkpt><trkpt lat="43.256587215182634" lon="12.245154804174794"><ele>739.3333333333334</ele><time>2026-03-29T08:11:54Z</time></trkpt><trkpt lat="43.25664874796445" lon="12.245103567693553"><ele>737.1666666666666</ele><time>2026-03-29T08:11:55Z</time></trkpt><trkpt lat="43.25671677062168" lon="12.24507440315598"><ele>735.0</ele><time>2026-03-29T08:11:56Z</time></trkpt><trkpt lat="43.256790389617684" lon="12.245030857245977"><ele>735.0</ele><time>2026-03-29T08:11:57Z</time></trkpt><trkpt lat="43.25688345184506" lon="12.244981704338596"><ele>735.0</ele><time>2026-03-29T08:11:58Z</time></trkpt><trkpt lat="43.256953102496865" lon="12.244888520410733"><ele>735.0</ele><time>2026-03-29T08:11:59Z</time></trkpt><trkpt lat="43.257062017386986" lon="12.244724842812127"><ele>735.0</ele><time>2026-03-29T08:12:01Z</time></trkpt><trkpt lat="43.25716453435541" lon="12.244650171880043"><ele>733.3333333333334</ele><time>2026-03-29T08:12:03Z</time></trkpt><trkpt lat="43.25723879630415" lon="12.244561055748242"><ele>731.6666666666666</ele><time>2026-03-29T08:12:04Z</time></trkpt><trkpt lat="43.257286814395364" lon="12.24448244906039"><ele>730.0</ele><time>2026-03-29T08:12:05Z</time></trkpt><trkpt lat="43.257382632965324" lon="12.244392804465917"><ele>728.3333333333333</ele><time>2026-03-29T08:12:07Z</time></trkpt><trkpt lat="43.25744350617144" lon="12.24434999575917"><ele>726.6666666666666</ele><time>2026-03-29T08:12:08Z</time></trkpt><trkpt lat="43.25749989170195" lon="12.244287445021957"><ele>725.0</ele><time>2026-03-29T08:12:09Z</time></trkpt><trkpt lat="43.25756385352411" lon="12.244234871341863"><ele>722.2857142857143</ele><time>2026-03-29T08:12:10Z</time></trkpt><trkpt lat="43.25761067999891" lon="12.244157460100784"><ele>719.5714285714287</ele><time>2026-03-29T08:12:11Z</time></trkpt><trkpt lat="43.25765499750099" lon="12.244085475672623"><ele>716.8571428571429</ele><time>2026-03-29T08:12:12Z</time></trkpt><trkpt lat="43.257708694535545" lon="12.244013612132157"><ele>714.1428571428571</ele><time>2026-03-29T08:12:13Z</time></trkpt><trkpt lat="43.257757898680275" lon="12.243943365233942"><ele>711.4285714285714</ele><time>2026-03-29T08:12:14Z</time></trkpt><trkpt lat="43.25781859449126" lon="12.243869405242123"><ele>708.7142857142857</ele><time>2026-03-29T08:12:15Z</time></trkpt><trkpt lat="43.25787242185758" lon="12.243824028104388"><ele>706.0</ele><time>2026-03-29T08:12:16Z</time></trkpt><trkpt lat="43.25798471636028" lon="12.243741602057503"><ele>704.8</ele><time>2026-03-29T08:12:18Z</time></trkpt><trkpt lat="43.25804996917315" lon="12.243680120224626"><ele>703.5999999999999</ele><time>2026-03-29T08:12:19Z</time></trkpt><trkpt lat="43.25815514364939" lon="12.24363066360092"><ele>702.4</ele><time>2026-03-29T08:12:21Z</time></trkpt><trkpt lat="43.25827017502493" lon="12.243679149672781"><ele>701.2</ele><time>2026-03-29T08:12:23Z</time></trkpt><trkpt lat="43.25833874576612" lon="12.24356802181476"><ele>700.0</ele><time>2026-03-29T08:12:26Z</time></trkpt><trkpt lat="43.25833585894764" lon="12.243476359738308"><ele>695.3333333333334</ele><time>2026-03-29T08:12:28Z</time></trkpt><trkpt lat="43.25828323211962" lon="12.243134262027235"><ele>690.6666666666666</ele><time>2026-03-29T08:12:31Z</time></trkpt><trkpt lat="43.25824524740547" lon="12.24300607474416"><ele>686.0</ele><time>2026-03-29T08:12:33Z</time></trkpt><trkpt lat="43.25823848083228" lon="12.242875315786344"><ele>685.0</ele><time>2026-03-29T08:12:35Z</time></trkpt><trkpt lat="43.25828349787071" lon="12.24271846618178"><ele>684.0</ele><time>2026-03-29T08:12:37Z</time></trkpt><trkpt lat="43.258327254198726" lon="12.242567329220112"><ele>683.0</ele><time>2026-03-29T08:12:39Z</time></trkpt><trkpt lat="43.25835758218399" lon="12.242477663758399"><ele>682.0</ele><time>2026-03-29T08:12:40Z</time></trkpt><trkpt lat="43.258370350378" lon="12.242369194236177"><ele>681.0</ele><time>2026-03-29T08:12:41Z</time></trkpt><trkpt lat="43.258384799534916" lon="12.242275503733755"><ele>679.0</ele><time>2026-03-29T08:12:42Z</time></trkpt><trkpt lat="43.25840263859809" lon="12.24219044942716"><ele>677.0</ele><time>2026-03-29T08:12:43Z</time></trkpt><trkpt lat="43.25842906402893" lon="12.242108868039631"><ele>675.0</ele><time>2026-03-29T08:12:44Z</time></trkpt><trkpt lat="43.258490182326234" lon="12.242005799115331"><ele>673.0</ele><time>2026-03-29T08:12:46Z</time></trkpt><trkpt lat="43.2586091444859" lon="12.241893485867333"><ele>671.0</ele><time>2026-03-29T08:12:48Z</time></trkpt><trkpt lat="43.258665604516466" lon="12.241820571262487"><ele>669.0</ele><time>2026-03-29T08:12:50Z</time></trkpt><trkpt lat="43.2587670683897" lon="12.241737760880662"><ele>669.0</ele><time>2026-03-29T08:12:52Z</time></trkpt><trkpt lat="43.25888501965371" lon="12.241740426441115"><ele>669.0</ele><time>2026-03-29T08:12:54Z</time></trkpt><trkpt lat="43.25897669597987" lon="12.241763816442731"><ele>669.0</ele><time>2026-03-29T08:12:55Z</time></trkpt><trkpt lat="43.259046779523025" lon="12.241796791489659"><ele>669.0</ele><time>2026-03-29T08:12:56Z</time></trkpt><trkpt lat="43.259119370479596" lon="12.241807112830225"><ele>669.0</ele><time>2026-03-29T08:12:57Z</time></trkpt><trkpt lat="43.25922218858281" lon="12.241876083832121"><ele>669.0</ele><time>2026-03-29T08:12:59Z</time></trkpt><trkpt lat="43.259318932822055" lon="12.241983853403038"><ele>669.0</ele><time>2026-03-29T08:13:01Z</time></trkpt><trkpt lat="43.259351493346294" lon="12.242133457320538"><ele>669.0</ele><time>2026-03-29T08:13:03Z</time></trkpt><trkpt lat="43.25939957097762" lon="12.242282733403574"><ele>669.0</ele><time>2026-03-29T08:13:05Z</time></trkpt><trkpt lat="43.25943785647175" lon="12.24238988153325"><ele>669.0</ele><time>2026-03-29T08:13:07Z</time></trkpt><trkpt lat="43.259494819621324" lon="12.242523239853817"><ele>669.0</ele><time>2026-03-29T08:13:09Z</time></trkpt><trkpt lat="43.25957407650678" lon="12.242640708111068"><ele>669.0</ele><time>2026-03-29T08:13:11Z</time></trkpt><trkpt lat="43.25963709512561" lon="12.242668564942152"><ele>669.0</ele><time>2026-03-29T08:13:13Z</time></trkpt><trkpt lat="43.25969979159322" lon="12.24274545515488"><ele>669.0</ele><time>2026-03-29T08:13:14Z</time></trkpt><trkpt lat="43.259768147919466" lon="12.24284319138869"><ele>669.0</ele><time>2026-03-29T08:13:15Z</time></trkpt><trkpt lat="43.259838933102465" lon="12.242894727153027"><ele>669.0</ele><time>2026-03-29T08:13:16Z</time></trkpt><trkpt lat="43.25989806079272" lon="12.242934470237726"><ele>666.0</ele><time>2026-03-29T08:13:17Z</time></trkpt><trkpt lat="43.26000739240724" lon="12.243011133330372"><ele>663.0</ele><time>2026-03-29T08:13:18Z</time></trkpt><trkpt lat="43.26007718480345" lon="12.243067637986574"><ele>660.0</ele><time>2026-03-29T08:13:19Z</time></trkpt><trkpt lat="43.26015300192614" lon="12.2431145292344"><ele>657.0</ele><time>2026-03-29T08:13:20Z</time></trkpt><trkpt lat="43.260227106384114" lon="12.243164001161155"><ele>654.0</ele><time>2026-03-29T08:13:21Z</time></trkpt><trkpt lat="43.260290547921386" lon="12.243223088306308"><ele>651.0</ele><time>2026-03-29T08:13:22Z</time></trkpt><trkpt lat="43.26034153938048" lon="12.243278799132854"><ele>650.8</ele><time>2026-03-29T08:13:23Z</time></trkpt><trkpt lat="43.260423706753116" lon="12.243307071562143"><ele>650.5999999999999</ele><time>2026-03-29T08:13:26Z</time></trkpt><trkpt lat="43.26052551247938" lon="12.243322780307615"><ele>650.4</ele><time>2026-03-29T08:13:28Z</time></trkpt><trkpt lat="43.260591730169665" lon="12.243313645005173"><ele>650.2</ele><time>2026-03-29T08:13:30Z</time></trkpt><trkpt lat="43.26064952971043" lon="12.2432726551398"><ele>650.0</ele><time>2026-03-29T08:13:32Z</time></trkpt><trkpt lat="43.260773488187354" lon="12.243335639080609"><ele>648.5</ele><time>2026-03-29T08:13:34Z</time></trkpt><trkpt lat="43.260860356548825" lon="12.243412984048794"><ele>647.0</ele><time>2026-03-29T08:13:36Z</time></trkpt><trkpt lat="43.26092285671259" lon="12.243472742547043"><ele>645.5</ele><time>2026-03-29T08:13:37Z</time></trkpt><trkpt lat="43.2610228978049" lon="12.243515748449578"><ele>644.0</ele><time>2026-03-29T08:13:38Z</time></trkpt><trkpt lat="43.26109214570664" lon="12.243517050585783"><ele>642.5</ele><time>2026-03-29T08:13:39Z</time></trkpt><trkpt lat="43.261165817405164" lon="12.24352539176036"><ele>641.0</ele><time>2026-03-29T08:13:40Z</time></trkpt><trkpt lat="43.26125446068625" lon="12.243506193395806"><ele>641.0</ele><time>2026-03-29T08:13:41Z</time></trkpt><trkpt lat="43.2613613047797" lon="12.243479531129896"><ele>641.0</ele><time>2026-03-29T08:13:42Z</time></trkpt><trkpt lat="43.261454328963055" lon="12.243461904457321"><ele>641.0</ele><time>2026-03-29T08:13:43Z</time></trkpt><trkpt lat="43.2615514314274" lon="12.243488322768231"><ele>641.0</ele><time>2026-03-29T08:13:44Z</time></trkpt><trkpt lat="43.261641807510316" lon="12.243505106213194"><ele>641.0</ele><time>2026-03-29T08:13:45Z</time></trkpt><trkpt lat="43.26174079259797" lon="12.243508489983428"><ele>638.8</ele><time>2026-03-29T08:13:46Z</time></trkpt><trkpt lat="43.26183671721388" lon="12.2435233371166"><ele>636.5999999999999</ele><time>2026-03-29T08:13:47Z</time></trkpt><trkpt lat="43.26191963513099" lon="12.24356507043309"><ele>634.4</ele><time>2026-03-29T08:13:48Z</time></trkpt><trkpt lat="43.26200186297027" lon="12.243606995100887"><ele>632.2</ele><time>2026-03-29T08:13:49Z</time></trkpt><trkpt lat="43.26207368280741" lon="12.243624854434279"><ele>630.0</ele><time>2026-03-29T08:13:50Z</time></trkpt><trkpt lat="43.262175597832375" lon="12.243655300939098"><ele>630.0</ele><time>2026-03-29T08:13:51Z</time></trkpt><trkpt lat="43.262260853401195" lon="12.243726917891992"><ele>630.0</ele><time>2026-03-29T08:13:52Z</time></trkpt><trkpt lat="43.26233542527933" lon="12.24379099974841"><ele>630.0</ele><time>2026-03-29T08:13:53Z</time></trkpt><trkpt lat="43.262407749765565" lon="12.24381913387768"><ele>630.0</ele><time>2026-03-29T08:13:54Z</time></trkpt><trkpt lat="43.26249018436491" lon="12.243895624172877"><ele>630.0</ele><time>2026-03-29T08:13:55Z</time></trkpt><trkpt lat="43.26258671476716" lon="12.243982375188205"><ele>628.0</ele><time>2026-03-29T08:13:56Z</time></trkpt><trkpt lat="43.26269677003741" lon="12.24406130294207"><ele>626.0</ele><time>2026-03-29T08:13:57Z</time></trkpt><trkpt lat="43.26275881944414" lon="12.244129988831894"><ele>624.0</ele><time>2026-03-29T08:13:58Z</time></trkpt><trkpt lat="43.26285331694784" lon="12.244164074083827"><ele>622.0</ele><time>2026-03-29T08:14:00Z</time></trkpt><trkpt lat="43.2629086739147" lon="12.24404780424906"><ele>620.0</ele><time>2026-03-29T08:14:02Z</time></trkpt><trkpt lat="43.262899221042225" lon="12.243961665925928"><ele>620.0</ele><time>2026-03-29T08:14:03Z</time></trkpt><trkpt lat="43.262926934829814" lon="12.24388212837595"><ele>620.0</ele><time>2026-03-29T08:14:04Z</time></trkpt><trkpt lat="43.26295614116605" lon="12.243803993412538"><ele>620.0</ele><time>2026-03-29T08:14:05Z</time></trkpt><trkpt lat="43.262946350535415" lon="12.24361661046439"><ele>620.0</ele><time>2026-03-29T08:14:07Z</time></trkpt><trkpt lat="43.26294308457946" lon="12.24351774889753"><ele>620.0</ele><time>2026-03-29T08:14:08Z</time></trkpt><trkpt lat="43.2629274705887" lon="12.243405806408669"><ele>620.0</ele><time>2026-03-29T08:14:09Z</time></trkpt><trkpt lat="43.26290720629781" lon="12.243288682035976"><ele>620.0</ele><time>2026-03-29T08:14:10Z</time></trkpt><trkpt lat="43.2628879867564" lon="12.243181500002898"><ele>620.0</ele><time>2026-03-29T08:14:11Z</time></trkpt><trkpt lat="43.26289425693829" lon="12.243069307104953"><ele>620.0</ele><time>2026-03-29T08:14:12Z</time></trkpt><trkpt lat="43.26290116423679" lon="12.242936995106898"><ele>620.0</ele><time>2026-03-29T08:14:13Z</time></trkpt><trkpt lat="43.262915083457834" lon="12.242822529996388"><ele>620.0</ele><time>2026-03-29T08:14:14Z</time></trkpt><trkpt lat="43.26289879816319" lon="12.242702722369481"><ele>620.0</ele><time>2026-03-29T08:14:15Z</time></trkpt><trkpt lat="43.26287658318769" lon="12.242584545260302"><ele>619.8333333333333</ele><time>2026-03-29T08:14:16Z</time></trkpt><trkpt lat="43.26286539120507" lon="12.242477170409485"><ele>619.6666666666666</ele><time>2026-03-29T08:14:17Z</time></trkpt><trkpt lat="43.26288227093284" lon="12.242374500068712"><ele>619.5</ele><time>2026-03-29T08:14:18Z</time></trkpt><trkpt lat="43.26290293339336" lon="12.242276079260042"><ele>619.3333333333334</ele><time>2026-03-29T08:14:19Z</time></trkpt><trkpt lat="43.262913329097124" lon="12.242185238028224"><ele>619.1666666666667</ele><time>2026-03-29T08:14:20Z</time></trkpt><trkpt lat="43.26296387961592" lon="12.242029501761962"><ele>619.0</ele><time>2026-03-29T08:14:22Z</time></trkpt><trkpt lat="43.26301094393431" lon="12.24195603530229"><ele>617.8333333333334</ele><time>2026-03-29T08:14:23Z</time></trkpt><trkpt lat="43.26305501611984" lon="12.241854129121013"><ele>616.6666666666667</ele><time>2026-03-29T08:14:24Z</time></trkpt><trkpt lat="43.26307698889003" lon="12.24176324644648"><ele>615.5</ele><time>2026-03-29T08:14:25Z</time></trkpt><trkpt lat="43.26308170656402" lon="12.241653003977468"><ele>614.3333333333334</ele><time>2026-03-29T08:14:26Z</time></trkpt><trkpt lat="43.26304891474237" lon="12.24153686172567"><ele>613.1666666666666</ele><time>2026-03-29T08:14:27Z</time></trkpt><trkpt lat="43.263003685646936" lon="12.241438900783606"><ele>612.0</ele><time>2026-03-29T08:14:28Z</time></trkpt><trkpt lat="43.262959742807865" lon="12.241354038710515"><ele>610.5</ele><time>2026-03-29T08:14:29Z</time></trkpt><trkpt lat="43.26290701619378" lon="12.24126246812629"><ele>609.0</ele><time>2026-03-29T08:14:30Z</time></trkpt><trkpt lat="43.26286318295847" lon="12.241181456767091"><ele>607.5</ele><time>2026-03-29T08:14:31Z</time></trkpt><trkpt lat="43.262841562721434" lon="12.24108709276991"><ele>606.0</ele><time>2026-03-29T08:14:32Z</time></trkpt><trkpt lat="43.26283001992587" lon="12.240981134839624"><ele>604.5</ele><time>2026-03-29T08:14:33Z</time></trkpt><trkpt lat="43.26277175834133" lon="12.240915328844515"><ele>603.0</ele><time>2026-03-29T08:14:34Z</time></trkpt><trkpt lat="43.26268146984028" lon="12.240899662923104"><ele>603.0</ele><time>2026-03-29T08:14:35Z</time></trkpt><trkpt lat="43.26259072432341" lon="12.240905614552917"><ele>603.0</ele><time>2026-03-29T08:14:36Z</time></trkpt><trkpt lat="43.26252658979321" lon="12.240911504966453"><ele>603.0</ele><time>2026-03-29T08:14:37Z</time></trkpt><trkpt lat="43.26244250068723" lon="12.240942840892671"><ele>603.0</ele><time>2026-03-29T08:14:38Z</time></trkpt><trkpt lat="43.26234161890272" lon="12.240999397172176"><ele>603.0</ele><time>2026-03-29T08:14:39Z</time></trkpt><trkpt lat="43.26224048601094" lon="12.240999581156418"><ele>602.5714285714286</ele><time>2026-03-29T08:14:41Z</time></trkpt><trkpt lat="43.26219267912979" lon="12.240906136868281"><ele>602.1428571428571</ele><time>2026-03-29T08:14:43Z</time></trkpt><trkpt lat="43.262204965206244" lon="12.240795937478225"><ele>601.7142857142857</ele><time>2026-03-29T08:14:44Z</time></trkpt><trkpt lat="43.26217301676048" lon="12.240697920757322"><ele>601.2857142857142</ele><time>2026-03-29T08:14:45Z</time></trkpt><trkpt lat="43.262143310077136" lon="12.240610886735826"><ele>600.8571428571429</ele><time>2026-03-29T08:14:46Z</time></trkpt><trkpt lat="43.262133943717465" lon="12.240521286657254"><ele>600.4285714285713</ele><time>2026-03-29T08:14:47Z</time></trkpt><trkpt lat="43.26214871456305" lon="12.240434183347952"><ele>600.0</ele><time>2026-03-29T08:14:48Z</time></trkpt><trkpt lat="43.26215718851684" lon="12.240328894666925"><ele>600.0</ele><time>2026-03-29T08:14:49Z</time></trkpt><trkpt lat="43.262128905927504" lon="12.240223556596975"><ele>600.0</ele><time>2026-03-29T08:14:50Z</time></trkpt><trkpt lat="43.26211056374664" lon="12.240129308646596"><ele>600.0</ele><time>2026-03-29T08:14:51Z</time></trkpt><trkpt lat="43.26211660579612" lon="12.240022863675936"><ele>600.0</ele><time>2026-03-29T08:14:52Z</time></trkpt><trkpt lat="43.26208086912339" lon="12.23994123889812"><ele>600.0</ele><time>2026-03-29T08:14:53Z</time></trkpt><trkpt lat="43.26206473267894" lon="12.23985626533391"><ele>600.0</ele><time>2026-03-29T08:14:54Z</time></trkpt><trkpt lat="43.261983578021805" lon="12.239792051141437"><ele>600.0</ele><time>2026-03-29T08:14:56Z</time></trkpt><trkpt lat="43.261907239194606" lon="12.239829348310518"><ele>600.0</ele><time>2026-03-29T08:14:57Z</time></trkpt><trkpt lat="43.2618240826935" lon="12.239848863522191"><ele>600.0</ele><time>2026-03-29T08:14:58Z</time></trkpt><trkpt lat="43.261734439001565" lon="12.239887230203442"><ele>600.0</ele><time>2026-03-29T08:14:59Z</time></trkpt><trkpt lat="43.26164540846359" lon="12.23994587884308"><ele>600.0</ele><time>2026-03-29T08:15:01Z</time></trkpt><trkpt lat="43.261657842639245" lon="12.23983401199199"><ele>600.0</ele><time>2026-03-29T08:15:07Z</time></trkpt><trkpt lat="43.26160838864201" lon="12.239755343784617"><ele>601.4</ele><time>2026-03-29T08:15:10Z</time></trkpt><trkpt lat="43.26154747522022" lon="12.23966660336013"><ele>602.8</ele><time>2026-03-29T08:15:12Z</time></trkpt><trkpt lat="43.261472638673" lon="12.239596115476282"><ele>604.2</ele><time>2026-03-29T08:15:13Z</time></trkpt><trkpt lat="43.26141944906363" lon="12.239529603383803"><ele>605.6</ele><time>2026-03-29T08:15:14Z</time></trkpt><trkpt lat="43.261363408252684" lon="12.239380515398318"><ele>607.0</ele><time>2026-03-29T08:15:15Z</time></trkpt><trkpt lat="43.26136596242347" lon="12.239268468241619"><ele>607.0</ele><time>2026-03-29T08:15:16Z</time></trkpt><trkpt lat="43.26138403047956" lon="12.239165679551277"><ele>607.0</ele><time>2026-03-29T08:15:17Z</time></trkpt><trkpt lat="43.26141285092631" lon="12.239075165723593"><ele>607.0</ele><time>2026-03-29T08:15:18Z</time></trkpt><trkpt lat="43.26142366492642" lon="12.238942144230382"><ele>607.0</ele><time>2026-03-29T08:15:20Z</time></trkpt><trkpt lat="43.261387411769796" lon="12.238841574942608"><ele>607.0</ele><time>2026-03-29T08:15:21Z</time></trkpt><trkpt lat="43.261346413273245" lon="12.238718306465845"><ele>607.0</ele><time>2026-03-29T08:15:22Z</time></trkpt><trkpt lat="43.26130083895536" lon="12.238586606526734"><ele>604.2</ele><time>2026-03-29T08:15:23Z</time></trkpt><trkpt lat="43.261245275405294" lon="12.238504545927228"><ele>601.4000000000001</ele><time>2026-03-29T08:15:24Z</time></trkpt><trkpt lat="43.26118047504233" lon="12.238449223239165"><ele>598.5999999999999</ele><time>2026-03-29T08:15:25Z</time></trkpt><trkpt lat="43.26107441498588" lon="12.238395721613806"><ele>595.8</ele><time>2026-03-29T08:15:26Z</time></trkpt><trkpt lat="43.26096566729506" lon="12.238320921371406"><ele>593.0</ele><time>2026-03-29T08:15:27Z</time></trkpt><trkpt lat="43.26088857689026" lon="12.238270355838138"><ele>593.0</ele><time>2026-03-29T08:15:28Z</time></trkpt><trkpt lat="43.260842473544436" lon="12.238168264545049"><ele>593.0</ele><time>2026-03-29T08:15:29Z</time></trkpt><trkpt lat="43.260777318267024" lon="12.238070212252524"><ele>593.0</ele><time>2026-03-29T08:15:30Z</time></trkpt><trkpt lat="43.26070937177269" lon="12.237997164339223"><ele>593.0</ele><time>2026-03-29T08:15:31Z</time></trkpt><trkpt lat="43.26063324371343" lon="12.23790861644559"><ele>593.0</ele><time>2026-03-29T08:15:32Z</time></trkpt><trkpt lat="43.2605634396824" lon="12.237847149304049"><ele>591.8</ele><time>2026-03-29T08:15:33Z</time></trkpt><trkpt lat="43.26046986929778" lon="12.237813567046691"><ele>590.5999999999999</ele><time>2026-03-29T08:15:34Z</time></trkpt><trkpt lat="43.26037322844155" lon="12.237776909364566"><ele>589.4000000000001</ele><time>2026-03-29T08:15:35Z</time></trkpt><trkpt lat="43.26028491386633" lon="12.237724864037952"><ele>588.2</ele><time>2026-03-29T08:15:36Z</time></trkpt><trkpt lat="43.260211717527426" lon="12.237683191535137"><ele>587.0</ele><time>2026-03-29T08:15:37Z</time></trkpt><trkpt lat="43.26012872200828" lon="12.237628463463787"><ele>587.0</ele><time>2026-03-29T08:15:38Z</time></trkpt><trkpt lat="43.26005510858196" lon="12.237561962480003"><ele>587.0</ele><time>2026-03-29T08:15:39Z</time></trkpt><trkpt lat="43.26002753980497" lon="12.237450795366732"><ele>587.0</ele><time>2026-03-29T08:15:40Z</time></trkpt><trkpt lat="43.2600289581261" lon="12.237331668479422"><ele>587.0</ele><time>2026-03-29T08:15:41Z</time></trkpt><trkpt lat="43.26001510785144" lon="12.237197535829072"><ele>587.0</ele><time>2026-03-29T08:15:42Z</time></trkpt><trkpt lat="43.25999663356725" lon="12.23710335967881"><ele>587.0</ele><time>2026-03-29T08:15:43Z</time></trkpt><trkpt lat="43.25998217058743" lon="12.23694769834247"><ele>585.0</ele><time>2026-03-29T08:15:45Z</time></trkpt><trkpt lat="43.25997308100594" lon="12.236838448680908"><ele>583.0</ele><time>2026-03-29T08:15:46Z</time></trkpt><trkpt lat="43.25996543676613" lon="12.23666752599471"><ele>581.0</ele><time>2026-03-29T08:15:48Z</time></trkpt><trkpt lat="43.2600066990323" lon="12.236584851715575"><ele>579.0</ele><time>2026-03-29T08:15:50Z</time></trkpt><trkpt lat="43.260060897929826" lon="12.236519010957041"><ele>577.0</ele><time>2026-03-29T08:15:51Z</time></trkpt><trkpt lat="43.260129114100344" lon="12.236479696671704"><ele>575.0</ele><time>2026-03-29T08:15:52Z</time></trkpt><trkpt lat="43.26024960781041" lon="12.236406167898123"><ele>572.6666666666666</ele><time>2026-03-29T08:15:54Z</time></trkpt><trkpt lat="43.26031539194876" lon="12.23638491918733"><ele>570.3333333333333</ele><time>2026-03-29T08:15:55Z</time></trkpt><trkpt lat="43.2603644066198" lon="12.236284841164013"><ele>568.0</ele><time>2026-03-29T08:15:57Z</time></trkpt><trkpt lat="43.26035877640356" lon="12.23616874518815"><ele>565.6666666666666</ele><time>2026-03-29T08:16:01Z</time></trkpt><trkpt lat="43.26029595525946" lon="12.236044207758125"><ele>563.3333333333334</ele><time>2026-03-29T08:16:04Z</time></trkpt><trkpt lat="43.260275570880935" lon="12.23594352368464"><ele>561.0</ele><time>2026-03-29T08:16:05Z</time></trkpt><trkpt lat="43.260176451424876" lon="12.235881875058446"><ele>561.0</ele><time>2026-03-29T08:16:07Z</time></trkpt><trkpt lat="43.260088523500166" lon="12.23576025608404"><ele>561.0</ele><time>2026-03-29T08:16:08Z</time></trkpt><trkpt lat="43.26003481126188" lon="12.235700460238133"><ele>561.0</ele><time>2026-03-29T08:16:10Z</time></trkpt><trkpt lat="43.259973781183184" lon="12.235675688576043"><ele>561.0</ele><time>2026-03-29T08:16:12Z</time></trkpt><trkpt lat="43.259864418296196" lon="12.235683596389892"><ele>561.0</ele><time>2026-03-29T08:16:14Z</time></trkpt><trkpt lat="43.25993186235767" lon="12.235564590238608"><ele>557.2</ele><time>2026-03-29T08:16:16Z</time></trkpt><trkpt lat="43.259956233081866" lon="12.235453572114164"><ele>553.4000000000001</ele><time>2026-03-29T08:16:18Z</time></trkpt><trkpt lat="43.259987064749716" lon="12.23537337530419"><ele>549.6</ele><time>2026-03-29T08:16:21Z</time></trkpt><trkpt lat="43.26003133232992" lon="12.235279938470917"><ele>545.8000000000001</ele><time>2026-03-29T08:16:23Z</time></trkpt><trkpt lat="43.25999658597236" lon="12.235156568419665"><ele>542.0</ele><time>2026-03-29T08:16:25Z</time></trkpt><trkpt lat="43.259882776379825" lon="12.235096015719328"><ele>542.0</ele><time>2026-03-29T08:16:27Z</time></trkpt><trkpt lat="43.25980064018227" lon="12.235069096651864"><ele>542.0</ele><time>2026-03-29T08:16:28Z</time></trkpt><trkpt lat="43.2596947009272" lon="12.235070862367442"><ele>542.0</ele><time>2026-03-29T08:16:29Z</time></trkpt><trkpt lat="43.259605655942096" lon="12.23516963508301"><ele>542.0</ele><time>2026-03-29T08:16:31Z</time></trkpt><trkpt lat="43.25945386790216" lon="12.235216391208867"><ele>541.8000000000001</ele><time>2026-03-29T08:16:33Z</time></trkpt><trkpt lat="43.259323712018904" lon="12.235312674896079"><ele>541.6</ele><time>2026-03-29T08:16:34Z</time></trkpt><trkpt lat="43.25923552340306" lon="12.23536406285926"><ele>541.4000000000001</ele><time>2026-03-29T08:16:35Z</time></trkpt><trkpt lat="43.25913949702695" lon="12.23542662850766"><ele>541.2</ele><time>2026-03-29T08:16:36Z</time></trkpt><trkpt lat="43.259077082298816" lon="12.235463538062186"><ele>541.0</ele><time>2026-03-29T08:16:37Z</time></trkpt><trkpt lat="43.25901627095215" lon="12.235437744579906"><ele>541.0</ele><time>2026-03-29T08:16:41Z</time></trkpt><trkpt lat="43.259013263507875" lon="12.23534739982245"><ele>541.0</ele><time>2026-03-29T08:16:44Z</time></trkpt><trkpt lat="43.258929501590636" lon="12.235329620446649"><ele>541.0</ele><time>2026-03-29T08:16:45Z</time></trkpt><trkpt lat="43.25896785705066" lon="12.234884505809092"><ele>540.2</ele><time>2026-03-29T08:16:47Z</time></trkpt><trkpt lat="43.258895912116174" lon="12.234786352784504"><ele>539.4000000000001</ele><time>2026-03-29T08:16:48Z</time></trkpt><trkpt lat="43.25879643594959" lon="12.23471932635694"><ele>538.6</ele><time>2026-03-29T08:16:49Z</time></trkpt><trkpt lat="43.25868430151077" lon="12.234715423245554"><ele>537.8000000000001</ele><time>2026-03-29T08:16:50Z</time></trkpt><trkpt lat="43.258585776500325" lon="12.234658968673019"><ele>537.0</ele><time>2026-03-29T08:16:51Z</time></trkpt><trkpt lat="43.258497313804675" lon="12.234628375697119"><ele>537.0</ele><time>2026-03-29T08:16:52Z</time></trkpt><trkpt lat="43.258402588359026" lon="12.23458846918922"><ele>537.0</ele><time>2026-03-29T08:16:53Z</time></trkpt><trkpt lat="43.2582795739308" lon="12.234591399583655"><ele>537.0</ele><time>2026-03-29T08:16:55Z</time></trkpt><trkpt lat="43.25820231882435" lon="12.234551341261266"><ele>537.0</ele><time>2026-03-29T08:16:56Z</time></trkpt><trkpt lat="43.258133494681985" lon="12.23450445517628"><ele>537.0</ele><time>2026-03-29T08:16:57Z</time></trkpt><trkpt lat="43.2580735779758" lon="12.234462370953473"><ele>537.0</ele><time>2026-03-29T08:16:58Z</time></trkpt><trkpt lat="43.25801847084289" lon="12.234420291718939"><ele>538.2</ele><time>2026-03-29T08:16:59Z</time></trkpt><trkpt lat="43.257957726363806" lon="12.234323862835092"><ele>539.4000000000001</ele><time>2026-03-29T08:17:00Z</time></trkpt><trkpt lat="43.257923926535774" lon="12.23417918011255"><ele>540.5999999999999</ele><time>2026-03-29T08:17:02Z</time></trkpt><trkpt lat="43.25785683570914" lon="12.234026596580666"><ele>541.8</ele><time>2026-03-29T08:17:04Z</time></trkpt><trkpt lat="43.257857056693354" lon="12.233936282721196"><ele>543.0</ele><time>2026-03-29T08:17:07Z</time></trkpt><trkpt lat="43.25769367752339" lon="12.233893535523945"><ele>543.0</ele><time>2026-03-29T08:17:12Z</time></trkpt><trkpt lat="43.257602388385216" lon="12.233828222737298"><ele>543.0</ele><time>2026-03-29T08:17:13Z</time></trkpt><trkpt lat="43.25753335161162" lon="12.233724678704162"><ele>543.0</ele><time>2026-03-29T08:17:14Z</time></trkpt><trkpt lat="43.25750179561683" lon="12.233586233476629"><ele>543.0</ele><time>2026-03-29T08:17:15Z</time></trkpt><trkpt lat="43.25746609654189" lon="12.233473487593864"><ele>543.0</ele><time>2026-03-29T08:17:16Z</time></trkpt><trkpt lat="43.2574419361967" lon="12.233378905786557"><ele>543.0</ele><time>2026-03-29T08:17:17Z</time></trkpt><trkpt lat="43.25741548454077" lon="12.233261979550052"><ele>543.0</ele><time>2026-03-29T08:17:18Z</time></trkpt><trkpt lat="43.2573466860652" lon="12.233197644354341"><ele>543.0</ele><time>2026-03-29T08:17:20Z</time></trkpt><trkpt lat="43.25731577130555" lon="12.23329002631222"><ele>543.0</ele><time>2026-03-29T08:17:23Z</time></trkpt><trkpt lat="43.25729680930534" lon="12.233392792468628"><ele>543.0</ele><time>2026-03-29T08:17:24Z</time></trkpt><trkpt lat="43.25725011917315" lon="12.233455184383306"><ele>543.0</ele><time>2026-03-29T08:17:25Z</time></trkpt><trkpt lat="43.25719641638248" lon="12.233511102173967"><ele>546.1999999999999</ele><time>2026-03-29T08:17:26Z</time></trkpt><trkpt lat="43.25711795176249" lon="12.233564692032708"><ele>549.4</ele><time>2026-03-29T08:17:27Z</time></trkpt><trkpt lat="43.257040024277515" lon="12.233686725383528"><ele>552.5999999999999</ele><time>2026-03-29T08:17:29Z</time></trkpt><trkpt lat="43.25695116823356" lon="12.233747429029943"><ele>555.8</ele><time>2026-03-29T08:17:31Z</time></trkpt><trkpt lat="43.25686951902331" lon="12.233767699773436"><ele>559.0</ele><time>2026-03-29T08:17:33Z</time></trkpt><trkpt lat="43.25678944582301" lon="12.233818639994734"><ele>559.0</ele><time>2026-03-29T08:17:35Z</time></trkpt><trkpt lat="43.25675650572688" lon="12.233908390569512"><ele>559.0</ele><time>2026-03-29T08:17:38Z</time></trkpt><trkpt lat="43.25670056621913" lon="12.233954874686134"><ele>559.0</ele><time>2026-03-29T08:17:39Z</time></trkpt><trkpt lat="43.25665446691776" lon="12.23404872612377"><ele>559.0</ele><time>2026-03-29T08:17:42Z</time></trkpt><trkpt lat="43.25658373829703" lon="12.23406032239131"><ele>559.0</ele><time>2026-03-29T08:17:44Z</time></trkpt><trkpt lat="43.25647391814238" lon="12.234209493619854"><ele>559.0</ele><time>2026-03-29T08:17:46Z</time></trkpt><trkpt lat="43.25644849986845" lon="12.234309773730136"><ele>560.7142857142858</ele><time>2026-03-29T08:17:47Z</time></trkpt><trkpt lat="43.25643838112143" lon="12.234404362824646"><ele>562.4285714285714</ele><time>2026-03-29T08:17:48Z</time></trkpt><trkpt lat="43.256466572785996" lon="12.234512174752952"><ele>564.1428571428571</ele><time>2026-03-29T08:17:49Z</time></trkpt><trkpt lat="43.2564337015289" lon="12.234588888668922"><ele>565.8571428571429</ele><time>2026-03-29T08:17:50Z</time></trkpt><trkpt lat="43.25646734667194" lon="12.23467916373064"><ele>567.5714285714286</ele><time>2026-03-29T08:17:51Z</time></trkpt><trkpt lat="43.25647387934482" lon="12.23479874345167"><ele>569.2857142857143</ele><time>2026-03-29T08:17:53Z</time></trkpt><trkpt lat="43.256426881447986" lon="12.234865141719192"><ele>571.0</ele><time>2026-03-29T08:17:56Z</time></trkpt><trkpt lat="43.25646144094888" lon="12.235026309847088"><ele>572.8333333333334</ele><time>2026-03-29T08:17:57.999Z</time></trkpt><trkpt lat="43.256495821421" lon="12.23512021777331"><ele>574.6666666666667</ele><time>2026-03-29T08:18:00Z</time></trkpt><trkpt lat="43.25646359469178" lon="12.2352075853708"><ele>576.5</ele><time>2026-03-29T08:18:03Z</time></trkpt><trkpt lat="43.25642226672772" lon="12.235344174757572"><ele>578.3333333333334</ele><time>2026-03-29T08:18:05Z</time></trkpt><trkpt lat="43.25639894272268" lon="12.235440900168792"><ele>580.1666666666666</ele><time>2026-03-29T08:18:06Z</time></trkpt><trkpt lat="43.25636782015975" lon="12.235561739412192"><ele>582.0</ele><time>2026-03-29T08:18:08Z</time></trkpt><trkpt lat="43.256309081411665" lon="12.235649776080347"><ele>588.0</ele><time>2026-03-29T08:18:11Z</time></trkpt><trkpt lat="43.256257063498765" lon="12.235886615379387"><ele>594.0</ele><time>2026-03-29T08:18:13Z</time></trkpt><trkpt lat="43.25624003160116" lon="12.235981628284716"><ele>600.0</ele><time>2026-03-29T08:18:14Z</time></trkpt><trkpt lat="43.25622908818747" lon="12.236140233432312"><ele>606.0</ele><time>2026-03-29T08:18:16Z</time></trkpt><trkpt lat="43.256188782924916" lon="12.236276956731755"><ele>606.0</ele><time>2026-03-29T08:18:18Z</time></trkpt><trkpt lat="43.256149503500154" lon="12.236449059062696"><ele>606.0</ele><time>2026-03-29T08:18:20Z</time></trkpt><trkpt lat="43.256100936464215" lon="12.23651589504141"><ele>606.0</ele><time>2026-03-29T08:18:21Z</time></trkpt><trkpt lat="43.256061620459924" lon="12.236603808238215"><ele>606.0</ele><time>2026-03-29T08:18:22Z</time></trkpt><trkpt lat="43.256015911142725" lon="12.236679242268734"><ele>606.0</ele><time>2026-03-29T08:18:23Z</time></trkpt><trkpt lat="43.255954389828815" lon="12.236735096285994"><ele>606.0</ele><time>2026-03-29T08:18:25Z</time></trkpt><trkpt lat="43.255866856968645" lon="12.236675006451058"><ele>609.5</ele><time>2026-03-29T08:18:28Z</time></trkpt><trkpt lat="43.25571631144565" lon="12.23662636904544"><ele>613.0</ele><time>2026-03-29T08:18:30Z</time></trkpt><trkpt lat="43.25556227970359" lon="12.236596687717599"><ele>616.5</ele><time>2026-03-29T08:18:31Z</time></trkpt><trkpt lat="43.25553305879592" lon="12.236718676636562"><ele>620.0</ele><time>2026-03-29T08:18:32Z</time></trkpt><trkpt lat="43.25553411070528" lon="12.236817023026177"><ele>621.0</ele><time>2026-03-29T08:18:33Z</time></trkpt><trkpt lat="43.255544281013805" lon="12.236951083782946"><ele>622.0</ele><time>2026-03-29T08:18:34Z</time></trkpt><trkpt lat="43.255583337677265" lon="12.237093184695112"><ele>623.0</ele><time>2026-03-29T08:18:35Z</time></trkpt><trkpt lat="43.25552533724752" lon="12.237220614073934"><ele>624.0</ele><time>2026-03-29T08:18:36Z</time></trkpt><trkpt lat="43.255488754061595" lon="12.237304878394951"><ele>625.0</ele><time>2026-03-29T08:18:37Z</time></trkpt><trkpt lat="43.25551986496261" lon="12.237468449669596"><ele>626.8</ele><time>2026-03-29T08:18:39Z</time></trkpt><trkpt lat="43.255488430257415" lon="12.23755828022896"><ele>628.6</ele><time>2026-03-29T08:18:40Z</time></trkpt><trkpt lat="43.255395703881284" lon="12.237700841504896"><ele>630.4</ele><time>2026-03-29T08:18:42Z</time></trkpt><trkpt lat="43.25530191856418" lon="12.237694652624286"><ele>632.2</ele><time>2026-03-29T08:18:44Z</time></trkpt><trkpt lat="43.25517616491881" lon="12.237669887072048"><ele>634.0</ele><time>2026-03-29T08:18:46Z</time></trkpt><trkpt lat="43.25506330127365" lon="12.23767352703679"><ele>634.0</ele><time>2026-03-29T08:18:47Z</time></trkpt><trkpt lat="43.254985173528674" lon="12.23775654304819"><ele>634.0</ele><time>2026-03-29T08:18:48Z</time></trkpt><trkpt lat="43.2549577607242" lon="12.23786010084407"><ele>634.0</ele><time>2026-03-29T08:18:49Z</time></trkpt><trkpt lat="43.254960973630894" lon="12.23797348187958"><ele>634.0</ele><time>2026-03-29T08:18:50Z</time></trkpt><trkpt lat="43.25493588801448" lon="12.238096575260352"><ele>634.0</ele><time>2026-03-29T08:18:51Z</time></trkpt><trkpt lat="43.25485285837016" lon="12.23810337704095"><ele>634.0</ele><time>2026-03-29T08:18:52Z</time></trkpt><trkpt lat="43.254741490556164" lon="12.23817572903486"><ele>633.6</ele><time>2026-03-29T08:18:54Z</time></trkpt><trkpt lat="43.254682409110394" lon="12.238293194846534"><ele>633.2</ele><time>2026-03-29T08:18:55Z</time></trkpt><trkpt lat="43.254680985892136" lon="12.238438294878708"><ele>632.8000000000001</ele><time>2026-03-29T08:18:56Z</time></trkpt><trkpt lat="43.254686369872" lon="12.238542333234602"><ele>632.4</ele><time>2026-03-29T08:18:57Z</time></trkpt><trkpt lat="43.254714410606006" lon="12.23866080913842"><ele>632.0</ele><time>2026-03-29T08:18:58Z</time></trkpt><trkpt lat="43.25468521000153" lon="12.238754563296308"><ele>632.0</ele><time>2026-03-29T08:18:59Z</time></trkpt><trkpt lat="43.25466496377205" lon="12.238912291670992"><ele>632.0</ele><time>2026-03-29T08:19:01Z</time></trkpt><trkpt lat="43.25463436466916" lon="12.238993559934952"><ele>632.0</ele><time>2026-03-29T08:19:02Z</time></trkpt><trkpt lat="43.254592256660096" lon="12.239095097880533"><ele>632.0</ele><time>2026-03-29T08:19:03Z</time></trkpt><trkpt lat="43.25456775886397" lon="12.239216645914915"><ele>632.0</ele><time>2026-03-29T08:19:04Z</time></trkpt><trkpt lat="43.25454713940861" lon="12.239324146721753"><ele>632.0</ele><time>2026-03-29T08:19:05Z</time></trkpt><trkpt lat="43.25455502441218" lon="12.23943401627783"><ele>633.4</ele><time>2026-03-29T08:19:07Z</time></trkpt><trkpt lat="43.25441796656447" lon="12.239599777971385"><ele>634.8000000000001</ele><time>2026-03-29T08:19:09Z</time></trkpt><trkpt lat="43.25431376725521" lon="12.239622766410385"><ele>636.2</ele><time>2026-03-29T08:19:11Z</time></trkpt><trkpt lat="43.254236014582666" lon="12.239609847225877"><ele>637.6</ele><time>2026-03-29T08:19:13Z</time></trkpt><trkpt lat="43.25415858292423" lon="12.23962422688665"><ele>639.0</ele><time>2026-03-29T08:19:18Z</time></trkpt><trkpt lat="43.254098879887245" lon="12.2395404813824"><ele>639.0</ele><time>2026-03-29T08:19:22Z</time></trkpt><trkpt lat="43.25403160236146" lon="12.239504636395356"><ele>639.0</ele><time>2026-03-29T08:19:24Z</time></trkpt><trkpt lat="43.25396575591807" lon="12.239507159434423"><ele>639.0</ele><time>2026-03-29T08:19:26Z</time></trkpt><trkpt lat="43.25389510940412" lon="12.239526472621156"><ele>639.0</ele><time>2026-03-29T08:19:28Z</time></trkpt><trkpt lat="43.2536098983549" lon="12.239484459067556"><ele>639.6</ele><time>2026-03-29T08:19:30Z</time></trkpt><trkpt lat="43.25379632245528" lon="12.239619354575167"><ele>640.2</ele><time>2026-03-29T08:19:31Z</time></trkpt><trkpt lat="43.25374524025926" lon="12.239680487119841"><ele>640.8000000000001</ele><time>2026-03-29T08:19:33Z</time></trkpt><trkpt lat="43.253671034134655" lon="12.239680905984756"><ele>641.4</ele><time>2026-03-29T08:19:35Z</time></trkpt><trkpt lat="43.253607356568644" lon="12.23967853727211"><ele>642.0</ele><time>2026-03-29T08:19:38Z</time></trkpt><trkpt lat="43.25352344574397" lon="12.239662407105538"><ele>640.0</ele><time>2026-03-29T08:19:40Z</time></trkpt><trkpt lat="43.25284315052939" lon="12.239695923738614"><ele>640.0</ele><time>2026-03-29T08:19:43Z</time></trkpt><trkpt lat="43.25276826639519" lon="12.239665555415604"><ele>640.0</ele><time>2026-03-29T08:19:43.999Z</time></trkpt><trkpt lat="43.25268356429998" lon="12.239591850858769"><ele>640.0</ele><time>2026-03-29T08:19:44.999Z</time></trkpt><trkpt lat="43.252553560833825" lon="12.23955418832023"><ele>640.0</ele><time>2026-03-29T08:19:45.999Z</time></trkpt><trkpt lat="43.2524280106764" lon="12.23954134593723"><ele>640.0</ele><time>2026-03-29T08:19:46.999Z</time></trkpt><trkpt lat="43.25227852170892" lon="12.239543659999628"><ele>641.6</ele><time>2026-03-29T08:19:47.999Z</time></trkpt><trkpt lat="43.2521846964112" lon="12.239531983658832"><ele>643.2</ele><time>2026-03-29T08:19:48.999Z</time></trkpt><trkpt lat="43.252086034332216" lon="12.239524664352684"><ele>644.8</ele><time>2026-03-29T08:19:49.999Z</time></trkpt><trkpt lat="43.25198353497131" lon="12.239514431875655"><ele>646.4</ele><time>2026-03-29T08:19:50.999Z</time></trkpt><trkpt lat="43.251890941551885" lon="12.239493272132878"><ele>648.0</ele><time>2026-03-29T08:19:51.999Z</time></trkpt><trkpt lat="43.251795668881115" lon="12.239472119729367"><ele>648.0</ele><time>2026-03-29T08:19:52.999Z</time></trkpt><trkpt lat="43.25170363842751" lon="12.239454030158175"><ele>648.0</ele><time>2026-03-29T08:19:53.999Z</time></trkpt><trkpt lat="43.251626435135975" lon="12.239424157828632"><ele>648.0</ele><time>2026-03-29T08:19:54.999Z</time></trkpt><trkpt lat="43.251573131484605" lon="12.239360203204015"><ele>648.0</ele><time>2026-03-29T08:19:55.999Z</time></trkpt><trkpt lat="43.251518479193514" lon="12.239284943270894"><ele>648.0</ele><time>2026-03-29T08:19:56.999Z</time></trkpt><trkpt lat="43.251463914162805" lon="12.239207765644288"><ele>648.0</ele><time>2026-03-29T08:19:57.999Z</time></trkpt><trkpt lat="43.25141037512411" lon="12.23911949456983"><ele>648.0</ele><time>2026-03-29T08:19:58.999Z</time></trkpt><trkpt lat="43.251752302710386" lon="12.239138198884945"><ele>648.0</ele><time>2026-03-29T08:20:00.999Z</time></trkpt><trkpt lat="43.2516842385758" lon="12.238992081784813"><ele>645.5</ele><time>2026-03-29T08:20:01.999Z</time></trkpt><trkpt lat="43.25163127719102" lon="12.238872443488678"><ele>643.0</ele><time>2026-03-29T08:20:02.999Z</time></trkpt><trkpt lat="43.25153059853285" lon="12.238759375859024"><ele>640.5</ele><time>2026-03-29T08:20:03.999Z</time></trkpt><trkpt lat="43.25166859593703" lon="12.238786925585515"><ele>638.0</ele><time>2026-03-29T08:20:04.999Z</time></trkpt><trkpt lat="43.25156239730562" lon="12.238741675266965"><ele>638.0</ele><time>2026-03-29T08:20:06Z</time></trkpt><trkpt lat="43.25146080420623" lon="12.238692266398406"><ele>638.0</ele><time>2026-03-29T08:20:07Z</time></trkpt><trkpt lat="43.25136240766236" lon="12.238672725451128"><ele>638.0</ele><time>2026-03-29T08:20:08Z</time></trkpt><trkpt lat="43.25126891810952" lon="12.238662653211362"><ele>638.0</ele><time>2026-03-29T08:20:09Z</time></trkpt><trkpt lat="43.251153926635915" lon="12.23866152279439"><ele>638.0</ele><time>2026-03-29T08:20:10Z</time></trkpt><trkpt lat="43.251043627586725" lon="12.238644646054343"><ele>640.0</ele><time>2026-03-29T08:20:11Z</time></trkpt><trkpt lat="43.250945924146244" lon="12.238649602197395"><ele>642.0</ele><time>2026-03-29T08:20:12Z</time></trkpt><trkpt lat="43.250848663601644" lon="12.238658204109742"><ele>644.0</ele><time>2026-03-29T08:20:13Z</time></trkpt><trkpt lat="43.25072580141767" lon="12.238661262338997"><ele>646.0</ele><time>2026-03-29T08:20:14Z</time></trkpt><trkpt lat="43.250607746159965" lon="12.238674086744037"><ele>648.0</ele><time>2026-03-29T08:20:15Z</time></trkpt><trkpt lat="43.250493226084046" lon="12.238679608381434"><ele>648.25</ele><time>2026-03-29T08:20:16Z</time></trkpt><trkpt lat="43.25036668243952" lon="12.238679265686594"><ele>648.5</ele><time>2026-03-29T08:20:17Z</time></trkpt><trkpt lat="43.25023347596608" lon="12.238477960374611"><ele>648.75</ele><time>2026-03-29T08:20:18Z</time></trkpt><trkpt lat="43.25011682141902" lon="12.238488637703988"><ele>649.0</ele><time>2026-03-29T08:20:19Z</time></trkpt><trkpt lat="43.25001325032071" lon="12.238511185788289"><ele>649.0</ele><time>2026-03-29T08:20:20Z</time></trkpt><trkpt lat="43.24990357905339" lon="12.238469704544018"><ele>649.0</ele><time>2026-03-29T08:20:21Z</time></trkpt><trkpt lat="43.24978839146629" lon="12.238433522642467"><ele>649.0</ele><time>2026-03-29T08:20:22Z</time></trkpt><trkpt lat="43.24967588706546" lon="12.238364374010967"><ele>649.0</ele><time>2026-03-29T08:20:23Z</time></trkpt><trkpt lat="43.24959900051635" lon="12.23825075218325"><ele>648.6</ele><time>2026-03-29T08:20:24Z</time></trkpt><trkpt lat="43.249530936328235" lon="12.238180508296741"><ele>648.2</ele><time>2026-03-29T08:20:25Z</time></trkpt><trkpt lat="43.24946411880852" lon="12.238145090276904"><ele>647.8000000000001</ele><time>2026-03-29T08:20:26Z</time></trkpt><trkpt lat="43.249348931825075" lon="12.238034058460068"><ele>647.4000000000001</ele><time>2026-03-29T08:20:27Z</time></trkpt><trkpt lat="43.249299042285486" lon="12.237883520004802"><ele>647.0</ele><time>2026-03-29T08:20:28Z</time></trkpt><trkpt lat="43.24926323994427" lon="12.23777668770685"><ele>647.0</ele><time>2026-03-29T08:20:29Z</time></trkpt><trkpt lat="43.2491894745273" lon="12.237642110979563"><ele>647.0</ele><time>2026-03-29T08:20:30Z</time></trkpt><trkpt lat="43.249118302512855" lon="12.237527497308857"><ele>647.0</ele><time>2026-03-29T08:20:31Z</time></trkpt><trkpt lat="43.249029601660865" lon="12.23735843549025"><ele>647.0</ele><time>2026-03-29T08:20:32Z</time></trkpt><trkpt lat="43.248981425627434" lon="12.237157732867697"><ele>648.2</ele><time>2026-03-29T08:20:33Z</time></trkpt><trkpt lat="43.248960909094954" lon="12.237003151770663"><ele>649.4000000000001</ele><time>2026-03-29T08:20:34Z</time></trkpt><trkpt lat="43.24895227775401" lon="12.236834363834037"><ele>650.5999999999999</ele><time>2026-03-29T08:20:35Z</time></trkpt><trkpt lat="43.24894792914348" lon="12.236712487342357"><ele>651.8</ele><time>2026-03-29T08:20:36Z</time></trkpt><trkpt lat="43.24893597000427" lon="12.236599885995778"><ele>653.0</ele><time>2026-03-29T08:20:37Z</time></trkpt><trkpt lat="43.248908467929844" lon="12.236487717147844"><ele>650.4</ele><time>2026-03-29T08:20:38Z</time></trkpt><trkpt lat="43.24885932942561" lon="12.23635600235009"><ele>647.8</ele><time>2026-03-29T08:20:39Z</time></trkpt><trkpt lat="43.248808652356125" lon="12.236233041504516"><ele>645.2</ele><time>2026-03-29T08:20:40Z</time></trkpt><trkpt lat="43.248760218905524" lon="12.23612374983424"><ele>642.6</ele><time>2026-03-29T08:20:41Z</time></trkpt><trkpt lat="43.24871331739184" lon="12.23602466032189"><ele>640.0</ele><time>2026-03-29T08:20:42Z</time></trkpt><trkpt lat="43.24865657289813" lon="12.235904387808922"><ele>640.0</ele><time>2026-03-29T08:20:43Z</time></trkpt><trkpt lat="43.24859803421298" lon="12.235844158937661"><ele>640.0</ele><time>2026-03-29T08:20:44Z</time></trkpt><trkpt lat="43.24852849126478" lon="12.235765059830147"><ele>640.0</ele><time>2026-03-29T08:20:45Z</time></trkpt><trkpt lat="43.24846822267328" lon="12.235694697078086"><ele>640.0</ele><time>2026-03-29T08:20:46Z</time></trkpt><trkpt lat="43.248412271477534" lon="12.235639735826988"><ele>640.0</ele><time>2026-03-29T08:20:47Z</time></trkpt><trkpt lat="43.248345160310926" lon="12.2355813911151"><ele>640.0</ele><time>2026-03-29T08:20:49Z</time></trkpt><trkpt lat="43.248232687113244" lon="12.235454767663095"><ele>637.25</ele><time>2026-03-29T08:20:53Z</time></trkpt><trkpt lat="43.24814098685809" lon="12.235321238729217"><ele>634.5</ele><time>2026-03-29T08:20:55Z</time></trkpt><trkpt lat="43.24826301832586" lon="12.235129551376659"><ele>631.75</ele><time>2026-03-29T08:20:56Z</time></trkpt><trkpt lat="43.248279085350596" lon="12.235030829228858"><ele>629.0</ele><time>2026-03-29T08:20:57Z</time></trkpt><trkpt lat="43.248387608623545" lon="12.234668583152576"><ele>628.5</ele><time>2026-03-29T08:20:58Z</time></trkpt><trkpt lat="43.24822431445743" lon="12.234493195131924"><ele>628.0</ele><time>2026-03-29T08:20:59Z</time></trkpt><trkpt lat="43.2481355362059" lon="12.234402442065196"><ele>627.5</ele><time>2026-03-29T08:21:00Z</time></trkpt><trkpt lat="43.24806050388459" lon="12.234324908095454"><ele>627.0</ele><time>2026-03-29T08:21:01Z</time></trkpt><trkpt lat="43.247982271388736" lon="12.234244070464907"><ele>627.0</ele><time>2026-03-29T08:21:02Z</time></trkpt><trkpt lat="43.24790625727221" lon="12.234165525090813"><ele>627.0</ele><time>2026-03-29T08:21:03Z</time></trkpt><trkpt lat="43.24766935551861" lon="12.23434881632647"><ele>627.0</ele><time>2026-03-29T08:21:04Z</time></trkpt><trkpt lat="43.24759441543096" lon="12.234230893293313"><ele>627.0</ele><time>2026-03-29T08:21:05Z</time></trkpt><trkpt lat="43.24753262021292" lon="12.23412204661387"><ele>627.0</ele><time>2026-03-29T08:21:06Z</time></trkpt><trkpt lat="43.247485706351576" lon="12.233987468281734"><ele>627.0</ele><time>2026-03-29T08:21:07Z</time></trkpt><trkpt lat="43.2474506695035" lon="12.23386085089773"><ele>627.0</ele><time>2026-03-29T08:21:08Z</time></trkpt><trkpt lat="43.24742086368586" lon="12.233706437513305"><ele>627.0</ele><time>2026-03-29T08:21:09Z</time></trkpt><trkpt lat="43.24738683516938" lon="12.233580353499942"><ele>628.0</ele><time>2026-03-29T08:21:10Z</time></trkpt><trkpt lat="43.24734198315645" lon="12.233460392975958"><ele>629.0</ele><time>2026-03-29T08:21:11Z</time></trkpt><trkpt lat="43.24731383657903" lon="12.233339392479884"><ele>630.0</ele><time>2026-03-29T08:21:12Z</time></trkpt><trkpt lat="43.247301287471196" lon="12.233233986462162"><ele>631.0</ele><time>2026-03-29T08:21:13Z</time></trkpt><trkpt lat="43.24727571866115" lon="12.233117833569331"><ele>632.0</ele><time>2026-03-29T08:21:14Z</time></trkpt><trkpt lat="43.24725389460964" lon="12.233017607614276"><ele>633.0</ele><time>2026-03-29T08:21:15Z</time></trkpt><trkpt lat="43.247216043031585" lon="12.232918626334415"><ele>630.1666666666666</ele><time>2026-03-29T08:21:16Z</time></trkpt><trkpt lat="43.24715912335021" lon="12.232817055049336"><ele>627.3333333333334</ele><time>2026-03-29T08:21:17Z</time></trkpt><trkpt lat="43.24709413003043" lon="12.232720078678982"><ele>624.5</ele><time>2026-03-29T08:21:18Z</time></trkpt><trkpt lat="43.24704472191844" lon="12.232630415788096"><ele>621.6666666666667</ele><time>2026-03-29T08:21:19Z</time></trkpt><trkpt lat="43.24699802297799" lon="12.232528255186944"><ele>618.8333333333334</ele><time>2026-03-29T08:21:20Z</time></trkpt><trkpt lat="43.24695689204564" lon="12.232423524387995"><ele>616.0</ele><time>2026-03-29T08:21:21Z</time></trkpt><trkpt lat="43.24691769191327" lon="12.2322901077611"><ele>616.0</ele><time>2026-03-29T08:21:22Z</time></trkpt><trkpt lat="43.246872515724746" lon="12.232155540774153"><ele>616.0</ele><time>2026-03-29T08:21:23Z</time></trkpt><trkpt lat="43.246838988346575" lon="12.232047662241502"><ele>616.0</ele><time>2026-03-29T08:21:24Z</time></trkpt><trkpt lat="43.24679706625376" lon="12.231936472913622"><ele>616.0</ele><time>2026-03-29T08:21:25Z</time></trkpt><trkpt lat="43.24676087719229" lon="12.231838331811387"><ele>616.0</ele><time>2026-03-29T08:21:26Z</time></trkpt><trkpt lat="43.246724894965915" lon="12.231732884146044"><ele>616.0</ele><time>2026-03-29T08:21:27Z</time></trkpt><trkpt lat="43.2466851117134" lon="12.23162795026925"><ele>616.0</ele><time>2026-03-29T08:21:28Z</time></trkpt><trkpt lat="43.246645662760734" lon="12.231524198196324"><ele>616.0</ele><time>2026-03-29T08:21:29Z</time></trkpt><trkpt lat="43.246610646898944" lon="12.231428312947491"><ele>616.0</ele><time>2026-03-29T08:21:30Z</time></trkpt><trkpt lat="43.24653419106088" lon="12.231338070177614"><ele>616.0</ele><time>2026-03-29T08:21:31Z</time></trkpt><trkpt lat="43.24644245248781" lon="12.231249778071584"><ele>616.0</ele><time>2026-03-29T08:21:31.999Z</time></trkpt><trkpt lat="43.24636396690063" lon="12.231179155606794"><ele>612.4</ele><time>2026-03-29T08:21:32.999Z</time></trkpt><trkpt lat="43.24619262157385" lon="12.231224335791994"><ele>608.8</ele><time>2026-03-29T08:21:33.999Z</time></trkpt><trkpt lat="43.246124626343125" lon="12.231142711868362"><ele>605.1999999999999</ele><time>2026-03-29T08:21:34.999Z</time></trkpt><trkpt lat="43.24605817683773" lon="12.231067778980977"><ele>601.6</ele><time>2026-03-29T08:21:35.999Z</time></trkpt><trkpt lat="43.24599199431521" lon="12.230995115262928"><ele>598.0</ele><time>2026-03-29T08:21:36.999Z</time></trkpt><trkpt lat="43.2459160916022" lon="12.230916307784593"><ele>598.0</ele><time>2026-03-29T08:21:37.999Z</time></trkpt><trkpt lat="43.245838715327515" lon="12.2308370112667"><ele>598.0</ele><time>2026-03-29T08:21:38.999Z</time></trkpt><trkpt lat="43.24575731726967" lon="12.230754522647887"><ele>598.0</ele><time>2026-03-29T08:21:39.999Z</time></trkpt><trkpt lat="43.24566256631082" lon="12.230658502171291"><ele>598.0</ele><time>2026-03-29T08:21:40.999Z</time></trkpt><trkpt lat="43.24556844204098" lon="12.23056311682686"><ele>598.0</ele><time>2026-03-29T08:21:41.999Z</time></trkpt><trkpt lat="43.24546634368288" lon="12.230457025962082"><ele>595.0</ele><time>2026-03-29T08:21:42.999Z</time></trkpt><trkpt lat="43.245363713576076" lon="12.23034568572399"><ele>592.0</ele><time>2026-03-29T08:21:43.999Z</time></trkpt><trkpt lat="43.24523372307001" lon="12.230209411543795"><ele>589.0</ele><time>2026-03-29T08:21:44.999Z</time></trkpt><trkpt lat="43.2450991948302" lon="12.230081050339091"><ele>589.0</ele><time>2026-03-29T08:21:45.999Z</time></trkpt><trkpt lat="43.24498373887106" lon="12.22994936238882"><ele>589.0</ele><time>2026-03-29T08:21:46.999Z</time></trkpt><trkpt lat="43.24487593057963" lon="12.229834717824744"><ele>589.0</ele><time>2026-03-29T08:21:47.999Z</time></trkpt><trkpt lat="43.24476528803863" lon="12.2297270842246"><ele>589.0</ele><time>2026-03-29T08:21:48.999Z</time></trkpt><trkpt lat="43.24464509693735" lon="12.22960452032514"><ele>586.25</ele><time>2026-03-29T08:21:49.999Z</time></trkpt><trkpt lat="43.24452671415946" lon="12.229480482363622"><ele>583.5</ele><time>2026-03-29T08:21:50.999Z</time></trkpt><trkpt lat="43.24440861333838" lon="12.229348083047606"><ele>580.75</ele><time>2026-03-29T08:21:51.999Z</time></trkpt><trkpt lat="43.244311166105824" lon="12.229211405571501"><ele>578.0</ele><time>2026-03-29T08:21:52.999Z</time></trkpt><trkpt lat="43.24425220226535" lon="12.229060814098979"><ele>576.75</ele><time>2026-03-29T08:21:53.999Z</time></trkpt><trkpt lat="43.24423379014254" lon="12.228907902268508"><ele>575.5</ele><time>2026-03-29T08:21:54.999Z</time></trkpt><trkpt lat="43.2442698251288" lon="12.228754576422775"><ele>574.25</ele><time>2026-03-29T08:21:55.999Z</time></trkpt><trkpt lat="43.24434993170113" lon="12.228611779835349"><ele>573.0</ele><time>2026-03-29T08:21:56.999Z</time></trkpt><trkpt lat="43.244426100293495" lon="12.22847926421692"><ele>573.0</ele><time>2026-03-29T08:21:57.999Z</time></trkpt><trkpt lat="43.24450392537649" lon="12.228347448757859"><ele>573.0</ele><time>2026-03-29T08:21:58.999Z</time></trkpt><trkpt lat="43.24457281039833" lon="12.228197785592055"><ele>573.0</ele><time>2026-03-29T08:21:59.999Z</time></trkpt><trkpt lat="43.2446395168199" lon="12.228067761284729"><ele>573.0</ele><time>2026-03-29T08:22:00.999Z</time></trkpt><trkpt lat="43.244683119822135" lon="12.227932517991272"><ele>572.25</ele><time>2026-03-29T08:22:01.999Z</time></trkpt><trkpt lat="43.24470986918918" lon="12.227773320002303"><ele>571.5</ele><time>2026-03-29T08:22:02.999Z</time></trkpt><trkpt lat="43.24470073582133" lon="12.22760907481211"><ele>570.75</ele><time>2026-03-29T08:22:03.999Z</time></trkpt><trkpt lat="43.24465553867064" lon="12.227459221593563"><ele>570.0</ele><time>2026-03-29T08:22:04.999Z</time></trkpt><trkpt lat="43.244599144211186" lon="12.227327812647882"><ele>570.75</ele><time>2026-03-29T08:22:05.999Z</time></trkpt><trkpt lat="43.24453400637706" lon="12.227201392850363"><ele>571.5</ele><time>2026-03-29T08:22:06.999Z</time></trkpt><trkpt lat="43.24445481784685" lon="12.22706746538078"><ele>572.25</ele><time>2026-03-29T08:22:07.999Z</time></trkpt><trkpt lat="43.24435262706744" lon="12.22694727901167"><ele>573.0</ele><time>2026-03-29T08:22:08.999Z</time></trkpt><trkpt lat="43.2442746608974" lon="12.226813490181485"><ele>573.0</ele><time>2026-03-29T08:22:09.999Z</time></trkpt><trkpt lat="43.24417826873331" lon="12.226642454692964"><ele>573.0</ele><time>2026-03-29T08:22:10.999Z</time></trkpt><trkpt lat="43.24409650486448" lon="12.22649520953811"><ele>573.0</ele><time>2026-03-29T08:22:12Z</time></trkpt><trkpt lat="43.24401948805978" lon="12.226350313094176"><ele>573.0</ele><time>2026-03-29T08:22:13Z</time></trkpt><trkpt lat="43.24394946147337" lon="12.226205321047502"><ele>574.8333333333334</ele><time>2026-03-29T08:22:14Z</time></trkpt><trkpt lat="43.24391044367755" lon="12.22608925011998"><ele>576.6666666666666</ele><time>2026-03-29T08:22:15Z</time></trkpt><trkpt lat="43.243892402211195" lon="12.225962856934283"><ele>578.5</ele><time>2026-03-29T08:22:16Z</time></trkpt><trkpt lat="43.24386201965442" lon="12.225849304137617"><ele>580.3333333333333</ele><time>2026-03-29T08:22:17Z</time></trkpt><trkpt lat="43.24378345111537" lon="12.225805032631829"><ele>582.1666666666666</ele><time>2026-03-29T08:22:18Z</time></trkpt><trkpt lat="43.243725643928485" lon="12.225756732484463"><ele>584.0</ele><time>2026-03-29T08:22:19Z</time></trkpt><trkpt lat="43.24365000686814" lon="12.225743328433555"><ele>584.0</ele><time>2026-03-29T08:22:20Z</time></trkpt><trkpt lat="43.24357514248394" lon="12.225736745082502"><ele>584.0</ele><time>2026-03-29T08:22:21Z</time></trkpt><trkpt lat="43.24348308469883" lon="12.225718913380383"><ele>584.0</ele><time>2026-03-29T08:22:22Z</time></trkpt><trkpt lat="43.24336869951836" lon="12.225700540193252"><ele>584.0</ele><time>2026-03-29T08:22:23Z</time></trkpt><trkpt lat="43.24325412152813" lon="12.225667870582459"><ele>584.0</ele><time>2026-03-29T08:22:24Z</time></trkpt><trkpt lat="43.24314848588607" lon="12.225627913934742"><ele>590.75</ele><time>2026-03-29T08:22:25Z</time></trkpt><trkpt lat="43.24304122921001" lon="12.225577567016066"><ele>597.5</ele><time>2026-03-29T08:22:26Z</time></trkpt><trkpt lat="43.24294952617387" lon="12.225525669094814"><ele>604.25</ele><time>2026-03-29T08:22:27Z</time></trkpt><trkpt lat="43.24282248120452" lon="12.225445018570113"><ele>611.0</ele><time>2026-03-29T08:22:28Z</time></trkpt><trkpt lat="43.24270234943631" lon="12.225354564257639"><ele>611.0</ele><time>2026-03-29T08:22:29Z</time></trkpt><trkpt lat="43.242609537124906" lon="12.225253170867099"><ele>611.0</ele><time>2026-03-29T08:22:30Z</time></trkpt><trkpt lat="43.24253175395401" lon="12.225198431512704"><ele>611.0</ele><time>2026-03-29T08:22:31Z</time></trkpt><trkpt lat="43.24246136574357" lon="12.225139972483127"><ele>611.0</ele><time>2026-03-29T08:22:32Z</time></trkpt><trkpt lat="43.242392752308206" lon="12.225090848102388"><ele>611.0</ele><time>2026-03-29T08:22:33Z</time></trkpt><trkpt lat="43.24229084067101" lon="12.225012959547914"><ele>611.4</ele><time>2026-03-29T08:22:35Z</time></trkpt><trkpt lat="43.24223469854617" lon="12.224863417117566"><ele>611.8</ele><time>2026-03-29T08:22:37Z</time></trkpt><trkpt lat="43.2421824006332" lon="12.224763114145471"><ele>612.1999999999999</ele><time>2026-03-29T08:22:39Z</time></trkpt><trkpt lat="43.24204933464392" lon="12.224705745119467"><ele>612.6</ele><time>2026-03-29T08:22:41Z</time></trkpt><trkpt lat="43.24198312091268" lon="12.224667106581798"><ele>613.0</ele><time>2026-03-29T08:22:42Z</time></trkpt><trkpt lat="43.24190951240986" lon="12.22460866405851"><ele>613.0</ele><time>2026-03-29T08:22:43Z</time></trkpt><trkpt lat="43.24183704884646" lon="12.224561689324386"><ele>613.0</ele><time>2026-03-29T08:22:44Z</time></trkpt><trkpt lat="43.24179817211299" lon="12.224491945943457"><ele>613.0</ele><time>2026-03-29T08:22:45Z</time></trkpt><trkpt lat="43.24180743719799" lon="12.22437368788668"><ele>613.0</ele><time>2026-03-29T08:22:46Z</time></trkpt><trkpt lat="43.2418275820031" lon="12.22420338460331"><ele>613.0</ele><time>2026-03-29T08:22:48Z</time></trkpt><trkpt lat="43.241850120235775" lon="12.224076841696343"><ele>615.4</ele><time>2026-03-29T08:22:49Z</time></trkpt><trkpt lat="43.241870477193935" lon="12.223979914822744"><ele>617.8</ele><time>2026-03-29T08:22:50Z</time></trkpt><trkpt lat="43.24189255145445" lon="12.223822387860489"><ele>620.2</ele><time>2026-03-29T08:22:52Z</time></trkpt><trkpt lat="43.24188044764423" lon="12.22368551479689"><ele>622.6</ele><time>2026-03-29T08:22:54Z</time></trkpt><trkpt lat="43.241861300956934" lon="12.223593051354312"><ele>625.0</ele><time>2026-03-29T08:22:55Z</time></trkpt><trkpt lat="43.241861300962114" lon="12.223446394683798"><ele>625.0</ele><time>2026-03-29T08:22:57Z</time></trkpt><trkpt lat="43.24183056386694" lon="12.223353516742929"><ele>625.0</ele><time>2026-03-29T08:22:59Z</time></trkpt><trkpt lat="43.24173090686808" lon="12.223227565766027"><ele>625.0</ele><time>2026-03-29T08:23:01Z</time></trkpt><trkpt lat="43.24167115746277" lon="12.223181491931001"><ele>625.0</ele><time>2026-03-29T08:23:02Z</time></trkpt><trkpt lat="43.241689524712804" lon="12.223063628826974"><ele>625.0</ele><time>2026-03-29T08:23:04Z</time></trkpt><trkpt lat="43.24166139107655" lon="12.222978559774049"><ele>625.0</ele><time>2026-03-29T08:23:06Z</time></trkpt><trkpt lat="43.241588806226886" lon="12.222970382280785"><ele>624.0</ele><time>2026-03-29T08:23:07Z</time></trkpt><trkpt lat="43.241522553204284" lon="12.22286821783496"><ele>623.0</ele><time>2026-03-29T08:23:09Z</time></trkpt><trkpt lat="43.24142495964852" lon="12.222839025450446"><ele>622.0</ele><time>2026-03-29T08:23:11Z</time></trkpt><trkpt lat="43.24132697195667" lon="12.22285448511117"><ele>621.0</ele><time>2026-03-29T08:23:13Z</time></trkpt><trkpt lat="43.24129735386721" lon="12.222650767693509"><ele>620.0</ele><time>2026-03-29T08:23:15Z</time></trkpt><trkpt lat="43.24130784317149" lon="12.222562347105187"><ele>617.4</ele><time>2026-03-29T08:23:16Z</time></trkpt><trkpt lat="43.24132070337044" lon="12.22242342344302"><ele>614.8</ele><time>2026-03-29T08:23:18Z</time></trkpt><trkpt lat="43.241293835386536" lon="12.222312681081057"><ele>612.2</ele><time>2026-03-29T08:23:21Z</time></trkpt><trkpt lat="43.24119901070221" lon="12.222296223343507"><ele>609.6</ele><time>2026-03-29T08:23:22Z</time></trkpt><trkpt lat="43.24109430250732" lon="12.222321512818013"><ele>607.0</ele><time>2026-03-29T08:23:23Z</time></trkpt><trkpt lat="43.24099783341656" lon="12.222352224755607"><ele>607.0</ele><time>2026-03-29T08:23:24Z</time></trkpt><trkpt lat="43.24088725073878" lon="12.22238451413935"><ele>607.0</ele><time>2026-03-29T08:23:25Z</time></trkpt><trkpt lat="43.240784427701044" lon="12.22242962388767"><ele>607.0</ele><time>2026-03-29T08:23:25.999Z</time></trkpt><trkpt lat="43.240684038681465" lon="12.222480275029342"><ele>607.0</ele><time>2026-03-29T08:23:26.999Z</time></trkpt><trkpt lat="43.2405809092578" lon="12.222539727110643"><ele>607.0</ele><time>2026-03-29T08:23:27.999Z</time></trkpt><trkpt lat="43.24048211316221" lon="12.222595286459102"><ele>605.2</ele><time>2026-03-29T08:23:28.999Z</time></trkpt><trkpt lat="43.24038238689246" lon="12.222625961124566"><ele>603.4000000000001</ele><time>2026-03-29T08:23:29.999Z</time></trkpt><trkpt lat="43.2402804076206" lon="12.22263657243593"><ele>601.5999999999999</ele><time>2026-03-29T08:23:30.999Z</time></trkpt><trkpt lat="43.240179089233614" lon="12.222632381499194"><ele>599.8</ele><time>2026-03-29T08:23:31.999Z</time></trkpt><trkpt lat="43.2400792974376" lon="12.222611937646239"><ele>598.0</ele><time>2026-03-29T08:23:32.999Z</time></trkpt><trkpt lat="43.23995360188086" lon="12.22258426088946"><ele>598.0</ele><time>2026-03-29T08:23:33.999Z</time></trkpt><trkpt lat="43.239852637081064" lon="12.22250615491967"><ele>598.0</ele><time>2026-03-29T08:23:34.999Z</time></trkpt><trkpt lat="43.23971743076824" lon="12.222442653685691"><ele>598.0</ele><time>2026-03-29T08:23:35.999Z</time></trkpt><trkpt lat="43.23957550638698" lon="12.222342712237207"><ele>598.0</ele><time>2026-03-29T08:23:36.999Z</time></trkpt><trkpt lat="43.23944785117958" lon="12.222231786511681"><ele>597.0</ele><time>2026-03-29T08:23:37.999Z</time></trkpt><trkpt lat="43.23934273450918" lon="12.222168586222237"><ele>596.0</ele><time>2026-03-29T08:23:38.999Z</time></trkpt><trkpt lat="43.23923185839549" lon="12.222094856457767"><ele>595.0</ele><time>2026-03-29T08:23:39.999Z</time></trkpt><trkpt lat="43.23910981239056" lon="12.22201453472844"><ele>594.0</ele><time>2026-03-29T08:23:40.999Z</time></trkpt><trkpt lat="43.238991845124595" lon="12.221948026139064"><ele>596.5</ele><time>2026-03-29T08:23:41.999Z</time></trkpt><trkpt lat="43.23885335399314" lon="12.22188442256099"><ele>599.0</ele><time>2026-03-29T08:23:42.999Z</time></trkpt><trkpt lat="43.23872836125985" lon="12.221811850743643"><ele>601.5</ele><time>2026-03-29T08:23:43.999Z</time></trkpt><trkpt lat="43.23860829349606" lon="12.221742108265863"><ele>604.0</ele><time>2026-03-29T08:23:44.999Z</time></trkpt><trkpt lat="43.23848651384053" lon="12.221670196387208"><ele>604.0</ele><time>2026-03-29T08:23:45.999Z</time></trkpt><trkpt lat="43.23836248890875" lon="12.221592966622605"><ele>604.0</ele><time>2026-03-29T08:23:46.999Z</time></trkpt><trkpt lat="43.23823789711426" lon="12.221508876278904"><ele>604.0</ele><time>2026-03-29T08:23:47.999Z</time></trkpt><trkpt lat="43.23812343374597" lon="12.221427936378168"><ele>604.0</ele><time>2026-03-29T08:23:48.999Z</time></trkpt><trkpt lat="43.23801426584349" lon="12.221348124009038"><ele>600.5</ele><time>2026-03-29T08:23:49.999Z</time></trkpt><trkpt lat="43.237909937121856" lon="12.22126327117702"><ele>597.0</ele><time>2026-03-29T08:23:50.999Z</time></trkpt><trkpt lat="43.237792163483846" lon="12.221217537286364"><ele>593.5</ele><time>2026-03-29T08:23:51.999Z</time></trkpt><trkpt lat="43.23766566766554" lon="12.221185071754157"><ele>590.0</ele><time>2026-03-29T08:23:52.999Z</time></trkpt><trkpt lat="43.2375419422536" lon="12.221161494201846"><ele>590.0</ele><time>2026-03-29T08:23:53.999Z</time></trkpt><trkpt lat="43.237420882258675" lon="12.221145515336463"><ele>590.0</ele><time>2026-03-29T08:23:54.999Z</time></trkpt><trkpt lat="43.23729942226308" lon="12.221127111445876"><ele>590.0</ele><time>2026-03-29T08:23:55.999Z</time></trkpt><trkpt lat="43.23717944360549" lon="12.221109591655253"><ele>590.0</ele><time>2026-03-29T08:23:56.999Z</time></trkpt><trkpt lat="43.237054741032146" lon="12.221092226448109"><ele>588.25</ele><time>2026-03-29T08:23:57.999Z</time></trkpt><trkpt lat="43.236929433979014" lon="12.22106957516253"><ele>586.5</ele><time>2026-03-29T08:23:58.999Z</time></trkpt><trkpt lat="43.23680813721995" lon="12.221040422071239"><ele>584.75</ele><time>2026-03-29T08:23:59.999Z</time></trkpt><trkpt lat="43.23668958192061" lon="12.22099528451662"><ele>583.0</ele><time>2026-03-29T08:24:00.999Z</time></trkpt><trkpt lat="43.23658302370207" lon="12.22092147517454"><ele>583.0</ele><time>2026-03-29T08:24:01.999Z</time></trkpt><trkpt lat="43.236492542588906" lon="12.220833577599066"><ele>583.0</ele><time>2026-03-29T08:24:02.999Z</time></trkpt><trkpt lat="43.23641700145313" lon="12.22070799310753"><ele>583.0</ele><time>2026-03-29T08:24:03.999Z</time></trkpt><trkpt lat="43.23635713861074" lon="12.220546307829403"><ele>583.0</ele><time>2026-03-29T08:24:04.999Z</time></trkpt><trkpt lat="43.23631439865831" lon="12.220381512965922"><ele>579.0</ele><time>2026-03-29T08:24:05.999Z</time></trkpt><trkpt lat="43.23627471811466" lon="12.220225327038767"><ele>575.0</ele><time>2026-03-29T08:24:06.999Z</time></trkpt><trkpt lat="43.23622586814601" lon="12.220080466508348"><ele>571.0</ele><time>2026-03-29T08:24:07.999Z</time></trkpt><trkpt lat="43.23620611722409" lon="12.21992160723755"><ele>567.0</ele><time>2026-03-29T08:24:08.999Z</time></trkpt><trkpt lat="43.236174639998715" lon="12.21978478084096"><ele>567.0</ele><time>2026-03-29T08:24:09.999Z</time></trkpt><trkpt lat="43.23614961406322" lon="12.219653572189866"><ele>567.0</ele><time>2026-03-29T08:24:10.999Z</time></trkpt><trkpt lat="43.236130227711335" lon="12.219526359358605"><ele>567.0</ele><time>2026-03-29T08:24:11.999Z</time></trkpt><trkpt lat="43.23611280035617" lon="12.219392866629386"><ele>567.0</ele><time>2026-03-29T08:24:12.999Z</time></trkpt><trkpt lat="43.23609467198519" lon="12.219269995385131"><ele>567.0</ele><time>2026-03-29T08:24:13.999Z</time></trkpt><trkpt lat="43.23607674518863" lon="12.219157174478967"><ele>567.0</ele><time>2026-03-29T08:24:14.999Z</time></trkpt><trkpt lat="43.236057498266184" lon="12.219045753626341"><ele>567.0</ele><time>2026-03-29T08:24:15.999Z</time></trkpt><trkpt lat="43.236025886979135" lon="12.218937360293568"><ele>567.0</ele><time>2026-03-29T08:24:16.999Z</time></trkpt><trkpt lat="43.2359753159425" lon="12.218830287989924"><ele>567.0</ele><time>2026-03-29T08:24:18Z</time></trkpt><trkpt lat="43.23591094603059" lon="12.21872869116559"><ele>567.0</ele><time>2026-03-29T08:24:19Z</time></trkpt><trkpt lat="43.235841286938246" lon="12.21863573696057"><ele>567.25</ele><time>2026-03-29T08:24:20Z</time></trkpt><trkpt lat="43.235757183048" lon="12.218544527881443"><ele>567.5</ele><time>2026-03-29T08:24:21Z</time></trkpt><trkpt lat="43.235654409544296" lon="12.218456848310923"><ele>567.75</ele><time>2026-03-29T08:24:22Z</time></trkpt><trkpt lat="43.23555061381165" lon="12.218377612147194"><ele>568.0</ele><time>2026-03-29T08:24:23Z</time></trkpt><trkpt lat="43.23543468756754" lon="12.218313169594659"><ele>567.0</ele><time>2026-03-29T08:24:24Z</time></trkpt><trkpt lat="43.23531795215343" lon="12.218251384810113"><ele>566.0</ele><time>2026-03-29T08:24:25Z</time></trkpt><trkpt lat="43.235208608788035" lon="12.218197071701576"><ele>565.0</ele><time>2026-03-29T08:24:26Z</time></trkpt><trkpt lat="43.2351128506394" lon="12.218126013486941"><ele>564.0</ele><time>2026-03-29T08:24:27Z</time></trkpt><trkpt lat="43.23498758462884" lon="12.218029636238247"><ele>564.0</ele><time>2026-03-29T08:24:28Z</time></trkpt><trkpt lat="43.23486451341603" lon="12.217927276881415"><ele>564.0</ele><time>2026-03-29T08:24:29Z</time></trkpt><trkpt lat="43.23476210206432" lon="12.217820109061398"><ele>564.0</ele><time>2026-03-29T08:24:30Z</time></trkpt><trkpt lat="43.234666232768355" lon="12.217708864693584"><ele>564.0</ele><time>2026-03-29T08:24:31Z</time></trkpt><trkpt lat="43.23458787848859" lon="12.21758446574797"><ele>562.4</ele><time>2026-03-29T08:24:32Z</time></trkpt><trkpt lat="43.23451222704126" lon="12.217457365785084"><ele>560.8</ele><time>2026-03-29T08:24:33Z</time></trkpt><trkpt lat="43.234448294542744" lon="12.217334584282636"><ele>559.2</ele><time>2026-03-29T08:24:34Z</time></trkpt><trkpt lat="43.23439166122823" lon="12.217207542568007"><ele>557.6</ele><time>2026-03-29T08:24:35Z</time></trkpt><trkpt lat="43.23434265055046" lon="12.21707189978009"><ele>556.0</ele><time>2026-03-29T08:24:36Z</time></trkpt><trkpt lat="43.23431100892314" lon="12.216925236800915"><ele>556.0</ele><time>2026-03-29T08:24:37Z</time></trkpt><trkpt lat="43.23427426425002" lon="12.21678003957855"><ele>556.0</ele><time>2026-03-29T08:24:38Z</time></trkpt><trkpt lat="43.23424602006773" lon="12.216638434825269"><ele>556.0</ele><time>2026-03-29T08:24:39Z</time></trkpt><trkpt lat="43.234219390233044" lon="12.216498712174891"><ele>556.0</ele><time>2026-03-29T08:24:40Z</time></trkpt><trkpt lat="43.23419688428215" lon="12.216340431886694"><ele>556.0</ele><time>2026-03-29T08:24:41Z</time></trkpt><trkpt lat="43.23416818116363" lon="12.216198760300362"><ele>555.4</ele><time>2026-03-29T08:24:42Z</time></trkpt><trkpt lat="43.2341262224747" lon="12.216075031997116"><ele>554.8</ele><time>2026-03-29T08:24:43Z</time></trkpt><trkpt lat="43.23407384637785" lon="12.215966417106593"><ele>554.1999999999999</ele><time>2026-03-29T08:24:44Z</time></trkpt><trkpt lat="43.23400873671868" lon="12.215884370140138"><ele>553.6</ele><time>2026-03-29T08:24:45Z</time></trkpt><trkpt lat="43.2339373004261" lon="12.2158103242666"><ele>553.0</ele><time>2026-03-29T08:24:46Z</time></trkpt><trkpt lat="43.23385729359901" lon="12.215735293012381"><ele>551.0</ele><time>2026-03-29T08:24:47Z</time></trkpt><trkpt lat="43.2337640445573" lon="12.21565640471719"><ele>549.0</ele><time>2026-03-29T08:24:48Z</time></trkpt><trkpt lat="43.23367190091226" lon="12.215537432217518"><ele>547.0</ele><time>2026-03-29T08:24:49Z</time></trkpt><trkpt lat="43.23360037775489" lon="12.215404487019654"><ele>545.0</ele><time>2026-03-29T08:24:50Z</time></trkpt><trkpt lat="43.23356097918694" lon="12.21526954629331"><ele>545.0</ele><time>2026-03-29T08:24:51Z</time></trkpt><trkpt lat="43.233553434349666" lon="12.215133710778735"><ele>545.0</ele><time>2026-03-29T08:24:52Z</time></trkpt><trkpt lat="43.233575422818305" lon="12.214996957234606"><ele>545.0</ele><time>2026-03-29T08:24:53Z</time></trkpt><trkpt lat="43.233620880186386" lon="12.21487767255082"><ele>545.0</ele><time>2026-03-29T08:24:54Z</time></trkpt><trkpt lat="43.23370503605657" lon="12.214794705349043"><ele>545.0</ele><time>2026-03-29T08:24:55Z</time></trkpt><trkpt lat="43.233789175689324" lon="12.214695753611869"><ele>544.6</ele><time>2026-03-29T08:24:56Z</time></trkpt><trkpt lat="43.23386752039421" lon="12.214609389130294"><ele>544.2</ele><time>2026-03-29T08:24:57Z</time></trkpt><trkpt lat="43.2339558444864" lon="12.214537669866091"><ele>543.8</ele><time>2026-03-29T08:24:58Z</time></trkpt><trkpt lat="43.23404405993294" lon="12.21452080698839"><ele>543.4</ele><time>2026-03-29T08:24:59Z</time></trkpt><trkpt lat="43.234143869294606" lon="12.214503505781932"><ele>543.0</ele><time>2026-03-29T08:25:00Z</time></trkpt><trkpt lat="43.23428631707208" lon="12.214481638211858"><ele>543.0</ele><time>2026-03-29T08:25:01Z</time></trkpt><trkpt lat="43.23441971359702" lon="12.214460236448897"><ele>543.0</ele><time>2026-03-29T08:25:02Z</time></trkpt><trkpt lat="43.23452904001439" lon="12.214454973571494"><ele>543.0</ele><time>2026-03-29T08:25:03Z</time></trkpt><trkpt lat="43.23461493746203" lon="12.2144793713846"><ele>543.0</ele><time>2026-03-29T08:25:04Z</time></trkpt><trkpt lat="43.23468014365019" lon="12.214518111047632"><ele>543.0</ele><time>2026-03-29T08:25:05Z</time></trkpt><trkpt lat="43.234714104460416" lon="12.214611691831616"><ele>543.0</ele><time>2026-03-29T08:25:06Z</time></trkpt><trkpt lat="43.2347525963341" lon="12.214743461568853"><ele>543.0</ele><time>2026-03-29T08:25:07Z</time></trkpt><trkpt lat="43.23480298461656" lon="12.214898758461805"><ele>543.0</ele><time>2026-03-29T08:25:08Z</time></trkpt><trkpt lat="43.23485851444011" lon="12.215066333410716"><ele>543.0</ele><time>2026-03-29T08:25:09Z</time></trkpt><trkpt lat="43.23490802464553" lon="12.215221026389214"><ele>542.6</ele><time>2026-03-29T08:25:10Z</time></trkpt><trkpt lat="43.23496702119244" lon="12.215350061636908"><ele>542.1999999999999</ele><time>2026-03-29T08:25:11Z</time></trkpt><trkpt lat="43.235027788374616" lon="12.215442896448799"><ele>541.8</ele><time>2026-03-29T08:25:12Z</time></trkpt><trkpt lat="43.235122424408566" lon="12.21549090000118"><ele>541.4</ele><time>2026-03-29T08:25:13Z</time></trkpt><trkpt lat="43.235220339125576" lon="12.215457234113938"><ele>541.0</ele><time>2026-03-29T08:25:14Z</time></trkpt><trkpt lat="43.23529507437946" lon="12.215381523064025"><ele>541.0</ele><time>2026-03-29T08:25:15Z</time></trkpt><trkpt lat="43.23533645613184" lon="12.215267531992758"><ele>541.0</ele><time>2026-03-29T08:25:16Z</time></trkpt><trkpt lat="43.23534214900954" lon="12.215153613280046"><ele>541.0</ele><time>2026-03-29T08:25:17Z</time></trkpt><trkpt lat="43.235337609103226" lon="12.215052694447019"><ele>541.0</ele><time>2026-03-29T08:25:18Z</time></trkpt><trkpt lat="43.235272241512" lon="12.214942751459555"><ele>541.0</ele><time>2026-03-29T08:25:18.999Z</time></trkpt><trkpt lat="43.235221560696424" lon="12.214835038049449"><ele>541.0</ele><time>2026-03-29T08:25:19.999Z</time></trkpt><trkpt lat="43.23516099048036" lon="12.214655613102758"><ele>538.3333333333334</ele><time>2026-03-29T08:25:20.999Z</time></trkpt><trkpt lat="43.235105277817254" lon="12.214372553922455"><ele>535.6666666666666</ele><time>2026-03-29T08:25:21.999Z</time></trkpt><trkpt lat="43.23507198280063" lon="12.214165345184691"><ele>533.0</ele><time>2026-03-29T08:25:22.999Z</time></trkpt><trkpt lat="43.2350289162604" lon="12.21395036850374"><ele>526.6666666666666</ele><time>2026-03-29T08:25:23.999Z</time></trkpt><trkpt lat="43.23497777963946" lon="12.213730148597415"><ele>520.3333333333334</ele><time>2026-03-29T08:25:24.999Z</time></trkpt><trkpt lat="43.23493130764189" lon="12.213520590991626"><ele>514.0</ele><time>2026-03-29T08:25:25.999Z</time></trkpt><trkpt lat="43.23490105530903" lon="12.213337690864984"><ele>511.79999999999995</ele><time>2026-03-29T08:25:26.999Z</time></trkpt><trkpt lat="43.23488765456112" lon="12.213148693403387"><ele>509.59999999999997</ele><time>2026-03-29T08:25:27.999Z</time></trkpt><trkpt lat="43.23487051139442" lon="12.213039145856214"><ele>507.4</ele><time>2026-03-29T08:25:28.999Z</time></trkpt><trkpt lat="43.23495838390716" lon="12.212989071772919"><ele>505.2</ele><time>2026-03-29T08:25:29.999Z</time></trkpt><trkpt lat="43.2350445542931" lon="12.212974494632464"><ele>503.0</ele><time>2026-03-29T08:25:31.999Z</time></trkpt><trkpt lat="43.235104553325" lon="12.212946906532203"><ele>503.0</ele><time>2026-03-29T08:25:32.999Z</time></trkpt><trkpt lat="43.23520292579035" lon="12.212900341160678"><ele>502.99999999999994</ele><time>2026-03-29T08:25:33.999Z</time></trkpt><trkpt lat="43.235330347416394" lon="12.212840025203175"><ele>502.99999999999994</ele><time>2026-03-29T08:25:34.999Z</time></trkpt><trkpt lat="43.23545178667121" lon="12.212778278520096"><ele>503.0</ele><time>2026-03-29T08:25:35.999Z</time></trkpt><trkpt lat="43.235514668194725" lon="12.212737440536623"><ele>503.0</ele><time>2026-03-29T08:25:36.999Z</time></trkpt><trkpt lat="43.23559991296205" lon="12.212649910100797"><ele>503.0</ele><time>2026-03-29T08:25:37.999Z</time></trkpt><trkpt lat="43.235614797718235" lon="12.212562453539217"><ele>502.99999999999994</ele><time>2026-03-29T08:25:38.999Z</time></trkpt><trkpt lat="43.23561338909105" lon="12.212392549312773"><ele>502.99999999999994</ele><time>2026-03-29T08:25:40.999Z</time></trkpt><trkpt lat="43.23555531140028" lon="12.212301948376865"><ele>503.0</ele><time>2026-03-29T08:25:41.999Z</time></trkpt><trkpt lat="43.2354764968854" lon="12.212233786605257"><ele>503.0</ele><time>2026-03-29T08:25:42.999Z</time></trkpt><trkpt lat="43.235385905393365" lon="12.212250452469577"><ele>503.0</ele><time>2026-03-29T08:25:43.999Z</time></trkpt><trkpt lat="43.235298651654446" lon="12.21229396097886"><ele>503.0</ele><time>2026-03-29T08:25:44.999Z</time></trkpt><trkpt lat="43.2351795982675" lon="12.212345235113606"><ele>503.0</ele><time>2026-03-29T08:25:45.999Z</time></trkpt><trkpt lat="43.23504068093761" lon="12.212392896669874"><ele>503.0</ele><time>2026-03-29T08:25:46.999Z</time></trkpt><trkpt lat="43.234900336242134" lon="12.212464472334721"><ele>502.75</ele><time>2026-03-29T08:25:47.999Z</time></trkpt><trkpt lat="43.23475135456077" lon="12.212538929078157"><ele>502.5</ele><time>2026-03-29T08:25:48.999Z</time></trkpt><trkpt lat="43.23461675531185" lon="12.212610080157727"><ele>502.25</ele><time>2026-03-29T08:25:49.999Z</time></trkpt><trkpt lat="43.234504580560525" lon="12.212668758368578"><ele>502.0</ele><time>2026-03-29T08:25:50.999Z</time></trkpt><trkpt lat="43.23439786345049" lon="12.212704530529974"><ele>502.0</ele><time>2026-03-29T08:25:51.999Z</time></trkpt><trkpt lat="43.234291627134134" lon="12.212695918475614"><ele>502.00000000000006</ele><time>2026-03-29T08:25:52.999Z</time></trkpt><trkpt lat="43.23419260032544" lon="12.212667428129464"><ele>502.00000000000006</ele><time>2026-03-29T08:25:53.999Z</time></trkpt><trkpt lat="43.234184359544365" lon="12.21247316914654"><ele>502.0</ele><time>2026-03-29T08:25:54.999Z</time></trkpt><trkpt lat="43.234123306539686" lon="12.212368443240669"><ele>502.0</ele><time>2026-03-29T08:25:55.999Z</time></trkpt><trkpt lat="43.234055978016265" lon="12.212293230991856"><ele>501.0</ele><time>2026-03-29T08:25:56.999Z</time></trkpt><trkpt lat="43.23397288809405" lon="12.21223517294442"><ele>500.00000000000006</ele><time>2026-03-29T08:25:57.999Z</time></trkpt><trkpt lat="43.23387953800757" lon="12.212206872181124"><ele>499.00000000000006</ele><time>2026-03-29T08:25:58.999Z</time></trkpt><trkpt lat="43.23378822849707" lon="12.212214213316617"><ele>498.0</ele><time>2026-03-29T08:25:59.999Z</time></trkpt><trkpt lat="43.233698863795375" lon="12.21225611491691"><ele>497.0</ele><time>2026-03-29T08:26:00.999Z</time></trkpt><trkpt lat="43.23358933528734" lon="12.212345268827363"><ele>497.0</ele><time>2026-03-29T08:26:01.999Z</time></trkpt><trkpt lat="43.233477828186835" lon="12.212452121678021"><ele>497.0</ele><time>2026-03-29T08:26:02.999Z</time></trkpt><trkpt lat="43.233382535385985" lon="12.212552795159276"><ele>497.0</ele><time>2026-03-29T08:26:03.999Z</time></trkpt><trkpt lat="43.233302161392075" lon="12.212665920850828"><ele>497.0</ele><time>2026-03-29T08:26:04.999Z</time></trkpt><trkpt lat="43.23321338577146" lon="12.212699585158749"><ele>497.0</ele><time>2026-03-29T08:26:05.999Z</time></trkpt><trkpt lat="43.233135120171916" lon="12.212706181173044"><ele>497.00000000000006</ele><time>2026-03-29T08:26:06.999Z</time></trkpt><trkpt lat="43.233108552697445" lon="12.212617269448561"><ele>497.00000000000006</ele><time>2026-03-29T08:26:07.999Z</time></trkpt><trkpt lat="43.23306808397416" lon="12.212474416147538"><ele>497.0</ele><time>2026-03-29T08:26:09.999Z</time></trkpt><trkpt lat="43.2330021638333" lon="12.212367239020526"><ele>497.0</ele><time>2026-03-29T08:26:10.999Z</time></trkpt><trkpt lat="43.23290184744196" lon="12.212240783091696"><ele>491.0</ele><time>2026-03-29T08:26:11.999Z</time></trkpt><trkpt lat="43.232751448113135" lon="12.212200396047985"><ele>485.0</ele><time>2026-03-29T08:26:12.999Z</time></trkpt><trkpt lat="43.23264987955613" lon="12.21222069377595"><ele>479.0</ele><time>2026-03-29T08:26:13.999Z</time></trkpt><trkpt lat="43.23253837778327" lon="12.212285484423651"><ele>473.0</ele><time>2026-03-29T08:26:14.999Z</time></trkpt><trkpt lat="43.232430953735985" lon="12.212315724253871"><ele>473.16666666666663</ele><time>2026-03-29T08:26:15.999Z</time></trkpt><trkpt lat="43.232349289876446" lon="12.212340266561718"><ele>473.3333333333333</ele><time>2026-03-29T08:26:16.999Z</time></trkpt><trkpt lat="43.232264660138846" lon="12.212328728912183"><ele>473.5</ele><time>2026-03-29T08:26:17.999Z</time></trkpt><trkpt lat="43.23219072734127" lon="12.212284513784732"><ele>473.66666666666663</ele><time>2026-03-29T08:26:18.999Z</time></trkpt><trkpt lat="43.23212340647787" lon="12.212190179240457"><ele>473.8333333333333</ele><time>2026-03-29T08:26:19.999Z</time></trkpt><trkpt lat="43.23208587456466" lon="12.212078834064254"><ele>474.0</ele><time>2026-03-29T08:26:20.999Z</time></trkpt><trkpt lat="43.232040269971954" lon="12.211992478808547"><ele>474.0</ele><time>2026-03-29T08:26:21.999Z</time></trkpt><trkpt lat="43.23197018366501" lon="12.211919107292491"><ele>474.0</ele><time>2026-03-29T08:26:22.999Z</time></trkpt><trkpt lat="43.23186510181642" lon="12.211926772829315"><ele>474.0</ele><time>2026-03-29T08:26:24Z</time></trkpt><trkpt lat="43.23173455623569" lon="12.211950692693904"><ele>474.0</ele><time>2026-03-29T08:26:24.999Z</time></trkpt><trkpt lat="43.23161485848916" lon="12.211964163466721"><ele>474.0</ele><time>2026-03-29T08:26:25.999Z</time></trkpt><trkpt lat="43.23149415846161" lon="12.211984818189201"><ele>473.2</ele><time>2026-03-29T08:26:27Z</time></trkpt><trkpt lat="43.23137970840346" lon="12.212016696468599"><ele>472.4</ele><time>2026-03-29T08:26:28Z</time></trkpt><trkpt lat="43.23127387114983" lon="12.21204565089498"><ele>471.6</ele><time>2026-03-29T08:26:29Z</time></trkpt><trkpt lat="43.23117176493406" lon="12.21200983370381"><ele>470.8</ele><time>2026-03-29T08:26:30Z</time></trkpt><trkpt lat="43.23107279880437" lon="12.21196238079702"><ele>470.0</ele><time>2026-03-29T08:26:31Z</time></trkpt><trkpt lat="43.23099189320736" lon="12.211911096316626"><ele>470.0</ele><time>2026-03-29T08:26:32Z</time></trkpt><trkpt lat="43.230922864152866" lon="12.21181042818156"><ele>470.0</ele><time>2026-03-29T08:26:33Z</time></trkpt><trkpt lat="43.23084946244308" lon="12.21172869590319"><ele>470.0</ele><time>2026-03-29T08:26:34Z</time></trkpt><trkpt lat="43.23077625036669" lon="12.211634780855894"><ele>470.0</ele><time>2026-03-29T08:26:35Z</time></trkpt><trkpt lat="43.2307065201895" lon="12.21152914636254"><ele>470.0</ele><time>2026-03-29T08:26:36Z</time></trkpt><trkpt lat="43.230654618206074" lon="12.211409502374993"><ele>467.25</ele><time>2026-03-29T08:26:37Z</time></trkpt><trkpt lat="43.23063642011041" lon="12.2112634989182"><ele>464.5</ele><time>2026-03-29T08:26:38Z</time></trkpt><trkpt lat="43.230632746676" lon="12.211119284781097"><ele>461.75</ele><time>2026-03-29T08:26:39Z</time></trkpt><trkpt lat="43.23066380044238" lon="12.210973480309795"><ele>459.0</ele><time>2026-03-29T08:26:40Z</time></trkpt><trkpt lat="43.2307159748456" lon="12.210809642492322"><ele>456.66666666666663</ele><time>2026-03-29T08:26:41Z</time></trkpt><trkpt lat="43.23076827785532" lon="12.210634819568853"><ele>454.3333333333333</ele><time>2026-03-29T08:26:42Z</time></trkpt><trkpt lat="43.23082653140353" lon="12.210408039826161"><ele>452.0</ele><time>2026-03-29T08:26:43Z</time></trkpt><trkpt lat="43.230878924730085" lon="12.210185169116317"><ele>452.0</ele><time>2026-03-29T08:26:44Z</time></trkpt><trkpt lat="43.23093739710764" lon="12.209971784012163"><ele>452.0</ele><time>2026-03-29T08:26:45Z</time></trkpt><trkpt lat="43.230995367832456" lon="12.209739016702061"><ele>452.0</ele><time>2026-03-29T08:26:46Z</time></trkpt><trkpt lat="43.23104884892484" lon="12.209526283134316"><ele>452.0</ele><time>2026-03-29T08:26:47Z</time></trkpt><trkpt lat="43.231099112970085" lon="12.2093467137364"><ele>452.0</ele><time>2026-03-29T08:26:48Z</time></trkpt><trkpt lat="43.23114830609758" lon="12.209155632240867"><ele>452.0</ele><time>2026-03-29T08:26:49Z</time></trkpt><trkpt lat="43.2311925211556" lon="12.208971471239183"><ele>452.0</ele><time>2026-03-29T08:26:50Z</time></trkpt><trkpt lat="43.231242524273085" lon="12.20878684122927"><ele>450.75</ele><time>2026-03-29T08:26:51Z</time></trkpt><trkpt lat="43.23125324998435" lon="12.208591107735343"><ele>449.5</ele><time>2026-03-29T08:26:52Z</time></trkpt><trkpt lat="43.2312741908248" lon="12.208384840610439"><ele>448.25</ele><time>2026-03-29T08:26:53Z</time></trkpt><trkpt lat="43.231291133331844" lon="12.20820082282284"><ele>447.0</ele><time>2026-03-29T08:26:54Z</time></trkpt><trkpt lat="43.23130509576086" lon="12.208055866557254"><ele>447.0</ele><time>2026-03-29T08:26:55Z</time></trkpt><trkpt lat="43.23132930893646" lon="12.207895035902284"><ele>447.00000000000006</ele><time>2026-03-29T08:26:56Z</time></trkpt><trkpt lat="43.231367161391205" lon="12.207752919911234"><ele>447.00000000000006</ele><time>2026-03-29T08:26:57Z</time></trkpt><trkpt lat="43.23138407220801" lon="12.207642792716427"><ele>447.0</ele><time>2026-03-29T08:26:58Z</time></trkpt><trkpt lat="43.23139989111826" lon="12.207555733222982"><ele>447.0</ele><time>2026-03-29T08:26:59Z</time></trkpt><trkpt lat="43.23142861121583" lon="12.207408260534827"><ele>447.20000000000005</ele><time>2026-03-29T08:27:01Z</time></trkpt><trkpt lat="43.231449448889244" lon="12.20732265967161"><ele>447.40000000000003</ele><time>2026-03-29T08:27:01.999Z</time></trkpt><trkpt lat="43.23147797362669" lon="12.207222032423582"><ele>447.59999999999997</ele><time>2026-03-29T08:27:02.999Z</time></trkpt><trkpt lat="43.23150834782631" lon="12.2071461264793"><ele>447.79999999999995</ele><time>2026-03-29T08:27:03.999Z</time></trkpt><trkpt lat="43.23152949290692" lon="12.20703726979413"><ele>448.0</ele><time>2026-03-29T08:27:05.999Z</time></trkpt><trkpt lat="43.231270555564656" lon="12.20683096346996"><ele>449.2</ele><time>2026-03-29T08:27:06.999Z</time></trkpt><trkpt lat="43.23120386924485" lon="12.206815850450187"><ele>450.4</ele><time>2026-03-29T08:27:07.999Z</time></trkpt><trkpt lat="43.231104522134615" lon="12.20684565196637"><ele>451.59999999999997</ele><time>2026-03-29T08:27:09.999Z</time></trkpt><trkpt lat="43.231007919889315" lon="12.206900621165685"><ele>452.79999999999995</ele><time>2026-03-29T08:27:11.999Z</time></trkpt><trkpt lat="43.23091508590141" lon="12.20697469657953"><ele>454.0</ele><time>2026-03-29T08:27:13.999Z</time></trkpt><trkpt lat="43.23082321090837" lon="12.207038278522342"><ele>454.00000000000006</ele><time>2026-03-29T08:27:15.999Z</time></trkpt><trkpt lat="43.23070897411809" lon="12.207109822866435"><ele>454.0</ele><time>2026-03-29T08:27:17.999Z</time></trkpt><trkpt lat="43.23064451305942" lon="12.207159756696523"><ele>454.0</ele><time>2026-03-29T08:27:18.999Z</time></trkpt><trkpt lat="43.23058106462105" lon="12.207218498126462"><ele>454.0</ele><time>2026-03-29T08:27:19.999Z</time></trkpt><trkpt lat="43.23051271203835" lon="12.207264937406357"><ele>454.00000000000006</ele><time>2026-03-29T08:27:20.999Z</time></trkpt><trkpt lat="43.230453206630884" lon="12.207308599647632"><ele>454.0</ele><time>2026-03-29T08:27:21.999Z</time></trkpt><trkpt lat="43.23039018772891" lon="12.207336152909587"><ele>452.83333333333337</ele><time>2026-03-29T08:27:22.999Z</time></trkpt><trkpt lat="43.230323127942846" lon="12.207376633490224"><ele>451.6666666666667</ele><time>2026-03-29T08:27:23.999Z</time></trkpt><trkpt lat="43.23026423481886" lon="12.20742729205648"><ele>450.5</ele><time>2026-03-29T08:27:24.999Z</time></trkpt><trkpt lat="43.2301629889872" lon="12.207503899420466"><ele>449.33333333333337</ele><time>2026-03-29T08:27:26.999Z</time></trkpt><trkpt lat="43.23005919318542" lon="12.207568713343226"><ele>448.1666666666667</ele><time>2026-03-29T08:27:28.999Z</time></trkpt><trkpt lat="43.22998991826521" lon="12.207594214109015"><ele>447.0</ele><time>2026-03-29T08:27:30.999Z</time></trkpt><trkpt lat="43.22992705210925" lon="12.207620016580465"><ele>447.0</ele><time>2026-03-29T08:27:32.999Z</time></trkpt><trkpt lat="43.22981746670246" lon="12.2077359948963"><ele>447.0</ele><time>2026-03-29T08:27:34.999Z</time></trkpt><trkpt lat="43.22946977021638" lon="12.207934900429674"><ele>446.6</ele><time>2026-03-29T08:27:38.999Z</time></trkpt><trkpt lat="43.22938206777364" lon="12.20795318235808"><ele>446.20000000000005</ele><time>2026-03-29T08:27:39.999Z</time></trkpt><trkpt lat="43.2293155186466" lon="12.207963119274721"><ele>445.8</ele><time>2026-03-29T08:27:40.999Z</time></trkpt><trkpt lat="43.229195901018265" lon="12.207938609735287"><ele>445.4</ele><time>2026-03-29T08:27:42.999Z</time></trkpt><trkpt lat="43.22910042582415" lon="12.207929839647493"><ele>445.0</ele><time>2026-03-29T08:27:44.999Z</time></trkpt><trkpt lat="43.22904110909975" lon="12.207857498694421"><ele>444.2</ele><time>2026-03-29T08:27:45.999Z</time></trkpt><trkpt lat="43.22893294795843" lon="12.207850710030446"><ele>443.4</ele><time>2026-03-29T08:27:47.999Z</time></trkpt><trkpt lat="43.2288090494603" lon="12.207865065432225"><ele>442.6</ele><time>2026-03-29T08:27:49.999Z</time></trkpt><trkpt lat="43.22873635139754" lon="12.207874694558281"><ele>441.8</ele><time>2026-03-29T08:27:50.999Z</time></trkpt><trkpt lat="43.22866248623321" lon="12.207897792482997"><ele>441.0</ele><time>2026-03-29T08:27:51.999Z</time></trkpt><trkpt lat="43.22858970727797" lon="12.207921700820151"><ele>441.0</ele><time>2026-03-29T08:27:52.999Z</time></trkpt><trkpt lat="43.22852246393608" lon="12.207951709444743"><ele>441.0</ele><time>2026-03-29T08:27:53.999Z</time></trkpt><trkpt lat="43.22844972985634" lon="12.207986203601198"><ele>441.0</ele><time>2026-03-29T08:27:54.999Z</time></trkpt><trkpt lat="43.22838429911202" lon="12.207993019324396"><ele>441.0</ele><time>2026-03-29T08:27:55.999Z</time></trkpt><trkpt lat="43.22845184067475" lon="12.207973595818157"><ele>441.0</ele><time>2026-03-29T08:27:56.999Z</time></trkpt><trkpt lat="43.228381679248386" lon="12.207936885637974"><ele>441.0</ele><time>2026-03-29T08:28:00.999Z</time></trkpt><trkpt lat="43.22843607067009" lon="12.207982904214838"><ele>441.0</ele><time>2026-03-29T08:28:11.999Z</time></trkpt><trkpt lat="43.228537770292455" lon="12.20803930807447"><ele>436.20000000000005</ele><time>2026-03-29T08:28:14.999Z</time></trkpt><trkpt lat="43.22854780982984" lon="12.208184731048169"><ele>431.40000000000003</ele><time>2026-03-29T08:28:15.999Z</time></trkpt><trkpt lat="43.2286666352" lon="12.20826040494248"><ele>426.6</ele><time>2026-03-29T08:28:17.999Z</time></trkpt><trkpt lat="43.22872191286294" lon="12.208302364191008"><ele>421.8</ele><time>2026-03-29T08:28:18.999Z</time></trkpt><trkpt lat="43.22876701589552" lon="12.208365555648266"><ele>417.0</ele><time>2026-03-29T08:28:19.999Z</time></trkpt><trkpt lat="43.22876618550948" lon="12.208509917140033"><ele>417.0</ele><time>2026-03-29T08:28:21.999Z</time></trkpt><trkpt lat="43.22856660578273" lon="12.208658029206703"><ele>417.0</ele><time>2026-03-29T08:28:22.999Z</time></trkpt><trkpt lat="43.22843306058376" lon="12.208687727826318"><ele>417.0</ele><time>2026-03-29T08:28:24.999Z</time></trkpt><trkpt lat="43.22834439272324" lon="12.20866821359394"><ele>417.0</ele><time>2026-03-29T08:28:26.999Z</time></trkpt><trkpt lat="43.22826594623721" lon="12.208661731620055"><ele>417.0</ele><time>2026-03-29T08:28:29Z</time></trkpt><trkpt lat="43.2281773384055" lon="12.208652721041828"><ele>417.0</ele><time>2026-03-29T08:28:31Z</time></trkpt><trkpt lat="43.228186550400714" lon="12.208780606663009"><ele>417.0</ele><time>2026-03-29T08:28:33Z</time></trkpt><trkpt lat="43.22812249827281" lon="12.208794124131028"><ele>417.0</ele><time>2026-03-29T08:28:35Z</time></trkpt><trkpt lat="43.22805181979376" lon="12.208831884089406"><ele>417.0</ele><time>2026-03-29T08:28:36Z</time></trkpt><trkpt lat="43.22798883642536" lon="12.20891193419601"><ele>417.5</ele><time>2026-03-29T08:28:40Z</time></trkpt><trkpt lat="43.22791824829955" lon="12.208937423500132"><ele>418.0</ele><time>2026-03-29T08:28:42Z</time></trkpt><trkpt lat="43.2278554079609" lon="12.208980164439145"><ele>418.5</ele><time>2026-03-29T08:28:45Z</time></trkpt><trkpt lat="43.227799960167125" lon="12.209032509392207"><ele>419.0</ele><time>2026-03-29T08:28:48Z</time></trkpt><trkpt lat="43.22737927846287" lon="12.209086779898534"><ele>412.0</ele><time>2026-03-29T08:28:51Z</time></trkpt><trkpt lat="43.227262699329735" lon="12.209085889539395"><ele>405.0</ele><time>2026-03-29T08:28:52Z</time></trkpt><trkpt lat="43.22712212407198" lon="12.209090331197494"><ele>398.0</ele><time>2026-03-29T08:28:53Z</time></trkpt><trkpt lat="43.226999091074795" lon="12.209071098330345"><ele>391.0</ele><time>2026-03-29T08:28:54Z</time></trkpt><trkpt lat="43.22690225371142" lon="12.209027675892191"><ele>391.0</ele><time>2026-03-29T08:28:55Z</time></trkpt><trkpt lat="43.22680552707987" lon="12.208995553689068"><ele>391.0</ele><time>2026-03-29T08:28:56Z</time></trkpt><trkpt lat="43.226712294298196" lon="12.208980946368726"><ele>391.0</ele><time>2026-03-29T08:28:57Z</time></trkpt><trkpt lat="43.22662004517558" lon="12.208977974735163"><ele>391.0</ele><time>2026-03-29T08:28:58Z</time></trkpt><trkpt lat="43.226532468902185" lon="12.20901468792283"><ele>391.0</ele><time>2026-03-29T08:28:59Z</time></trkpt><trkpt lat="43.2264607215918" lon="12.209061400326105"><ele>393.8</ele><time>2026-03-29T08:29:00Z</time></trkpt><trkpt lat="43.226389696100085" lon="12.209079654867324"><ele>396.6</ele><time>2026-03-29T08:29:01Z</time></trkpt><trkpt lat="43.2262800698996" lon="12.209101513066024"><ele>399.4</ele><time>2026-03-29T08:29:03Z</time></trkpt><trkpt lat="43.22621682092539" lon="12.209324360824976"><ele>402.2</ele><time>2026-03-29T08:29:05Z</time></trkpt><trkpt lat="43.22617995575425" lon="12.209433455171151"><ele>405.0</ele><time>2026-03-29T08:29:06Z</time></trkpt><trkpt lat="43.22613489779681" lon="12.209544524192879"><ele>405.0</ele><time>2026-03-29T08:29:07Z</time></trkpt><trkpt lat="43.226086204503964" lon="12.209643183696857"><ele>405.0</ele><time>2026-03-29T08:29:08Z</time></trkpt><trkpt lat="43.226036424275954" lon="12.209727860192203"><ele>405.0</ele><time>2026-03-29T08:29:08.999Z</time></trkpt><trkpt lat="43.22599166901627" lon="12.20979992360616"><ele>405.0</ele><time>2026-03-29T08:29:09.999Z</time></trkpt><trkpt lat="43.22593610541675" lon="12.209866425730347"><ele>405.0</ele><time>2026-03-29T08:29:10.999Z</time></trkpt><trkpt lat="43.22588345442669" lon="12.209924696911074"><ele>405.0</ele><time>2026-03-29T08:29:11.999Z</time></trkpt><trkpt lat="43.22582079639986" lon="12.210038813145774"><ele>399.6666666666667</ele><time>2026-03-29T08:29:13.999Z</time></trkpt><trkpt lat="43.22573725780857" lon="12.210143139077912"><ele>394.3333333333333</ele><time>2026-03-29T08:29:15.999Z</time></trkpt><trkpt lat="43.22567671806099" lon="12.2101807037899"><ele>389.0</ele><time>2026-03-29T08:29:16.999Z</time></trkpt><trkpt lat="43.22561178076226" lon="12.210228675413376"><ele>383.66666666666663</ele><time>2026-03-29T08:29:17.999Z</time></trkpt><trkpt lat="43.22554928925062" lon="12.210264402426661"><ele>378.3333333333333</ele><time>2026-03-29T08:29:18.999Z</time></trkpt><trkpt lat="43.22543880745507" lon="12.210333195337562"><ele>373.0</ele><time>2026-03-29T08:29:20.999Z</time></trkpt><trkpt lat="43.22533476568766" lon="12.210414669825399"><ele>372.79999999999995</ele><time>2026-03-29T08:29:22.999Z</time></trkpt><trkpt lat="43.22522693495145" lon="12.210492415132535"><ele>372.6</ele><time>2026-03-29T08:29:24.999Z</time></trkpt><trkpt lat="43.22512601809551" lon="12.2105477354512"><ele>372.4</ele><time>2026-03-29T08:29:26.999Z</time></trkpt><trkpt lat="43.22504148903514" lon="12.210611508764257"><ele>372.20000000000005</ele><time>2026-03-29T08:29:28.999Z</time></trkpt><trkpt lat="43.224958393791226" lon="12.210572170582072"><ele>372.0</ele><time>2026-03-29T08:29:30.999Z</time></trkpt><trkpt lat="43.224858436864864" lon="12.210604684333724"><ele>370.0</ele><time>2026-03-29T08:29:32.999Z</time></trkpt><trkpt lat="43.224754526912456" lon="12.210637726803487"><ele>368.0</ele><time>2026-03-29T08:29:34.999Z</time></trkpt><trkpt lat="43.224632989657444" lon="12.21061448801787"><ele>366.0</ele><time>2026-03-29T08:29:36.999Z</time></trkpt><trkpt lat="43.22456029840183" lon="12.210635501044491"><ele>364.0</ele><time>2026-03-29T08:29:37.999Z</time></trkpt><trkpt lat="43.22445364192373" lon="12.210634978604372"><ele>362.0</ele><time>2026-03-29T08:29:39.999Z</time></trkpt><trkpt lat="43.22438646894105" lon="12.210638781880018"><ele>362.0</ele><time>2026-03-29T08:29:40.999Z</time></trkpt><trkpt lat="43.224307654395176" lon="12.21059165211922"><ele>362.0</ele><time>2026-03-29T08:29:42.999Z</time></trkpt><trkpt lat="43.224217746088996" lon="12.210493153207326"><ele>362.0</ele><time>2026-03-29T08:29:44.999Z</time></trkpt><trkpt lat="43.22415001224305" lon="12.210462615195024"><ele>362.0</ele><time>2026-03-29T08:29:45.999Z</time></trkpt><trkpt lat="43.22407071497077" lon="12.21045532492341"><ele>362.0</ele><time>2026-03-29T08:29:46.999Z</time></trkpt><trkpt lat="43.223996334322926" lon="12.210450519309202"><ele>362.0</ele><time>2026-03-29T08:29:47.999Z</time></trkpt><trkpt lat="43.22388080171461" lon="12.210384662141626"><ele>358.5</ele><time>2026-03-29T08:29:49.999Z</time></trkpt><trkpt lat="43.223806280208336" lon="12.21035304202739"><ele>355.0</ele><time>2026-03-29T08:29:50.999Z</time></trkpt><trkpt lat="43.223743058351566" lon="12.210304306080845"><ele>351.5</ele><time>2026-03-29T08:29:51.999Z</time></trkpt><trkpt lat="43.22367995948674" lon="12.21024036683454"><ele>348.0</ele><time>2026-03-29T08:29:52.999Z</time></trkpt><trkpt lat="43.22363266258557" lon="12.210164389473036"><ele>344.5</ele><time>2026-03-29T08:29:53.999Z</time></trkpt><trkpt lat="43.22358765860591" lon="12.210093381190113"><ele>341.0</ele><time>2026-03-29T08:29:54.999Z</time></trkpt><trkpt lat="43.223500773471635" lon="12.209991288164465"><ele>341.0</ele><time>2026-03-29T08:29:56.999Z</time></trkpt><trkpt lat="43.22342843006905" lon="12.20990944803851"><ele>341.0</ele><time>2026-03-29T08:29:57.999Z</time></trkpt><trkpt lat="43.22335165974764" lon="12.209830442349174"><ele>341.0</ele><time>2026-03-29T08:29:58.999Z</time></trkpt><trkpt lat="43.22329553625964" lon="12.209746880935771"><ele>341.0</ele><time>2026-03-29T08:29:59.999Z</time></trkpt><trkpt lat="43.223228116154594" lon="12.209695704030167"><ele>341.0</ele><time>2026-03-29T08:30:00.999Z</time></trkpt><trkpt lat="43.22313153686165" lon="12.209635483626176"><ele>340.5</ele><time>2026-03-29T08:30:01.999Z</time></trkpt><trkpt lat="43.22303172500015" lon="12.209580488977686"><ele>340.0</ele><time>2026-03-29T08:30:02.999Z</time></trkpt><trkpt lat="43.22295417597464" lon="12.20951744547372"><ele>339.5</ele><time>2026-03-29T08:30:03.999Z</time></trkpt><trkpt lat="43.22287064179091" lon="12.209474266986884"><ele>339.0</ele><time>2026-03-29T08:30:04.999Z</time></trkpt><trkpt lat="43.22279404235453" lon="12.209425936364918"><ele>338.5</ele><time>2026-03-29T08:30:05.999Z</time></trkpt><trkpt lat="43.222731282375584" lon="12.209362923109422"><ele>338.0</ele><time>2026-03-29T08:30:06.999Z</time></trkpt><trkpt lat="43.2226692162229" lon="12.20927753165009"><ele>338.0</ele><time>2026-03-29T08:30:07.999Z</time></trkpt><trkpt lat="43.22259036556295" lon="12.209172657983757"><ele>338.0</ele><time>2026-03-29T08:30:08.999Z</time></trkpt><trkpt lat="43.22251418092686" lon="12.209107590479297"><ele>338.0</ele><time>2026-03-29T08:30:09.999Z</time></trkpt><trkpt lat="43.222438215701324" lon="12.209034191892863"><ele>338.0</ele><time>2026-03-29T08:30:10.999Z</time></trkpt><trkpt lat="43.22236111360629" lon="12.208938306617826"><ele>338.0</ele><time>2026-03-29T08:30:11.999Z</time></trkpt><trkpt lat="43.222290706770295" lon="12.208830572258476"><ele>336.79999999999995</ele><time>2026-03-29T08:30:12.999Z</time></trkpt><trkpt lat="43.22222560008663" lon="12.208734845297839"><ele>335.6</ele><time>2026-03-29T08:30:13.999Z</time></trkpt><trkpt lat="43.22215416505179" lon="12.208664804571223"><ele>334.4</ele><time>2026-03-29T08:30:14.999Z</time></trkpt><trkpt lat="43.222071596484916" lon="12.20858257271464"><ele>333.20000000000005</ele><time>2026-03-29T08:30:15.999Z</time></trkpt><trkpt lat="43.222001751914235" lon="12.208492180974108"><ele>332.0</ele><time>2026-03-29T08:30:16.999Z</time></trkpt><trkpt lat="43.221925082711294" lon="12.208407630454976"><ele>332.0</ele><time>2026-03-29T08:30:17.999Z</time></trkpt><trkpt lat="43.221854202908176" lon="12.20832820693613"><ele>332.0</ele><time>2026-03-29T08:30:18.999Z</time></trkpt><trkpt lat="43.22177655793973" lon="12.208244691940655"><ele>332.0</ele><time>2026-03-29T08:30:19.999Z</time></trkpt><trkpt lat="43.221670679996976" lon="12.208149001806957"><ele>332.0</ele><time>2026-03-29T08:30:20.999Z</time></trkpt><trkpt lat="43.221573745971774" lon="12.208060090063842"><ele>332.0</ele><time>2026-03-29T08:30:21.999Z</time></trkpt><trkpt lat="43.22146561324806" lon="12.207989836135585"><ele>332.6666666666667</ele><time>2026-03-29T08:30:22.999Z</time></trkpt><trkpt lat="43.22137520146082" lon="12.207933544196798"><ele>333.33333333333337</ele><time>2026-03-29T08:30:23.999Z</time></trkpt><trkpt lat="43.221278665016875" lon="12.207899890474815"><ele>334.0</ele><time>2026-03-29T08:30:24.999Z</time></trkpt><trkpt lat="43.221182359185974" lon="12.207871934267654"><ele>334.6666666666667</ele><time>2026-03-29T08:30:25.999Z</time></trkpt><trkpt lat="43.22110376043305" lon="12.207868169981314"><ele>335.3333333333333</ele><time>2026-03-29T08:30:26.999Z</time></trkpt><trkpt lat="43.22103022832691" lon="12.207868526427973"><ele>336.0</ele><time>2026-03-29T08:30:27.999Z</time></trkpt><trkpt lat="43.220960495140886" lon="12.207853736915494"><ele>336.0</ele><time>2026-03-29T08:30:28.999Z</time></trkpt><trkpt lat="43.22086219029564" lon="12.207848839774316"><ele>336.0</ele><time>2026-03-29T08:30:29.999Z</time></trkpt><trkpt lat="43.22076609539282" lon="12.207839852361321"><ele>336.0</ele><time>2026-03-29T08:30:30.999Z</time></trkpt><trkpt lat="43.22067455272612" lon="12.207813668588258"><ele>336.0</ele><time>2026-03-29T08:30:31.999Z</time></trkpt><trkpt lat="43.2205718492172" lon="12.207826750391021"><ele>336.0</ele><time>2026-03-29T08:30:32.999Z</time></trkpt><trkpt lat="43.22047364617762" lon="12.207861596264259"><ele>333.6</ele><time>2026-03-29T08:30:33.999Z</time></trkpt><trkpt lat="43.22037849710049" lon="12.207898659773027"><ele>331.20000000000005</ele><time>2026-03-29T08:30:35Z</time></trkpt><trkpt lat="43.22026713314545" lon="12.20792754814429"><ele>328.79999999999995</ele><time>2026-03-29T08:30:36Z</time></trkpt><trkpt lat="43.22016570277817" lon="12.207936737593846"><ele>326.4</ele><time>2026-03-29T08:30:37Z</time></trkpt><trkpt lat="43.220080763067024" lon="12.20790211933125"><ele>324.0</ele><time>2026-03-29T08:30:38Z</time></trkpt><trkpt lat="43.22001059750193" lon="12.207822107998998"><ele>324.0</ele><time>2026-03-29T08:30:39Z</time></trkpt><trkpt lat="43.21996410622557" lon="12.207684036399407"><ele>324.0</ele><time>2026-03-29T08:30:40Z</time></trkpt><trkpt lat="43.21991672925798" lon="12.207521486617678"><ele>324.0</ele><time>2026-03-29T08:30:41Z</time></trkpt><trkpt lat="43.21986201753431" lon="12.207328387415066"><ele>324.0</ele><time>2026-03-29T08:30:42Z</time></trkpt><trkpt lat="43.21980145532487" lon="12.207126675714607"><ele>323.0</ele><time>2026-03-29T08:30:43Z</time></trkpt><trkpt lat="43.219729708508176" lon="12.206925492563105"><ele>322.0</ele><time>2026-03-29T08:30:44Z</time></trkpt><trkpt lat="43.21964740647056" lon="12.20672323231924"><ele>321.0</ele><time>2026-03-29T08:30:45Z</time></trkpt><trkpt lat="43.21957252485563" lon="12.206521490138632"><ele>320.5</ele><time>2026-03-29T08:30:46Z</time></trkpt><trkpt lat="43.21950346434328" lon="12.206329939223703"><ele>320.0</ele><time>2026-03-29T08:30:47Z</time></trkpt><trkpt lat="43.21944170995716" lon="12.206151946803075"><ele>319.5</ele><time>2026-03-29T08:30:48Z</time></trkpt><trkpt lat="43.21938607304338" lon="12.20596865130243"><ele>319.0</ele><time>2026-03-29T08:30:49Z</time></trkpt><trkpt lat="43.219336347790076" lon="12.205771359576906"><ele>319.25</ele><time>2026-03-29T08:30:50Z</time></trkpt><trkpt lat="43.21928685828901" lon="12.205563197767843"><ele>319.5</ele><time>2026-03-29T08:30:51Z</time></trkpt><trkpt lat="43.219243769446734" lon="12.205379731684737"><ele>319.75</ele><time>2026-03-29T08:30:52Z</time></trkpt><trkpt lat="43.219218933197254" lon="12.20518212384929"><ele>320.0</ele><time>2026-03-29T08:30:53Z</time></trkpt><trkpt lat="43.21920903998823" lon="12.204996797571615"><ele>320.25</ele><time>2026-03-29T08:30:54Z</time></trkpt><trkpt lat="43.21920804741461" lon="12.204813771466483"><ele>320.5</ele><time>2026-03-29T08:30:55Z</time></trkpt><trkpt lat="43.21921529817755" lon="12.204641320659816"><ele>320.75</ele><time>2026-03-29T08:30:56Z</time></trkpt><trkpt lat="43.21924303445859" lon="12.204480782526922"><ele>321.0</ele><time>2026-03-29T08:30:57Z</time></trkpt><trkpt lat="43.219288471578466" lon="12.204354598292275"><ele>321.0</ele><time>2026-03-29T08:30:58Z</time></trkpt><trkpt lat="43.21934045380928" lon="12.204237592891129"><ele>321.0</ele><time>2026-03-29T08:30:59Z</time></trkpt><trkpt lat="43.21939218425621" lon="12.204116415789455"><ele>321.0</ele><time>2026-03-29T08:31:00Z</time></trkpt><trkpt lat="43.219430428604944" lon="12.203989753749378"><ele>321.0</ele><time>2026-03-29T08:31:01Z</time></trkpt><trkpt lat="43.21944667665502" lon="12.203837006368541"><ele>321.0</ele><time>2026-03-29T08:31:02Z</time></trkpt><trkpt lat="43.219457321707594" lon="12.203690412541595"><ele>320.25</ele><time>2026-03-29T08:31:03Z</time></trkpt><trkpt lat="43.219479362900685" lon="12.20355195026896"><ele>319.5</ele><time>2026-03-29T08:31:04Z</time></trkpt><trkpt lat="43.21951363326228" lon="12.203403967013138"><ele>318.75</ele><time>2026-03-29T08:31:05Z</time></trkpt><trkpt lat="43.21956942333776" lon="12.203245486998552"><ele>318.0</ele><time>2026-03-29T08:31:06Z</time></trkpt><trkpt lat="43.21963302994903" lon="12.203080799974218"><ele>318.0</ele><time>2026-03-29T08:31:07Z</time></trkpt><trkpt lat="43.21970494239737" lon="12.20292564081358"><ele>318.0</ele><time>2026-03-29T08:31:08Z</time></trkpt><trkpt lat="43.21978296132815" lon="12.202760477905"><ele>318.0</ele><time>2026-03-29T08:31:09Z</time></trkpt><trkpt lat="43.21986154912104" lon="12.202590466543187"><ele>318.0</ele><time>2026-03-29T08:31:10Z</time></trkpt><trkpt lat="43.21992607415564" lon="12.202410700479575"><ele>318.0</ele><time>2026-03-29T08:31:11Z</time></trkpt><trkpt lat="43.21997840511149" lon="12.202246885327318"><ele>318.0</ele><time>2026-03-29T08:31:12Z</time></trkpt><trkpt lat="43.21999818372199" lon="12.202092199661537"><ele>318.0</ele><time>2026-03-29T08:31:12.999Z</time></trkpt><trkpt lat="43.21999223652816" lon="12.201987714073539"><ele>318.0</ele><time>2026-03-29T08:31:13.999Z</time></trkpt><trkpt lat="43.21992727983003" lon="12.201850836004787"><ele>318.0</ele><time>2026-03-29T08:31:15.999Z</time></trkpt><trkpt lat="43.219812386281845" lon="12.201766056934275"><ele>317.5</ele><time>2026-03-29T08:31:17.999Z</time></trkpt><trkpt lat="43.21975687357621" lon="12.201712344011426"><ele>317.0</ele><time>2026-03-29T08:31:18.999Z</time></trkpt><trkpt lat="43.21970759033111" lon="12.201626652429827"><ele>316.5</ele><time>2026-03-29T08:31:20.999Z</time></trkpt><trkpt lat="43.21962938970678" lon="12.20153448067801"><ele>316.0</ele><time>2026-03-29T08:31:22.999Z</time></trkpt><trkpt lat="43.21954389856238" lon="12.201507059901015"><ele>315.5</ele><time>2026-03-29T08:31:23.999Z</time></trkpt><trkpt lat="43.21944408635578" lon="12.20152685952741"><ele>315.0</ele><time>2026-03-29T08:31:24.999Z</time></trkpt><trkpt lat="43.219346866218565" lon="12.201606805296688"><ele>315.0</ele><time>2026-03-29T08:31:25.999Z</time></trkpt><trkpt lat="43.219236565520966" lon="12.201710535793874"><ele>315.0</ele><time>2026-03-29T08:31:26.999Z</time></trkpt><trkpt lat="43.21912564284583" lon="12.201804596819272"><ele>315.0</ele><time>2026-03-29T08:31:27.999Z</time></trkpt><trkpt lat="43.21902387527521" lon="12.201875365551675"><ele>315.0</ele><time>2026-03-29T08:31:28.999Z</time></trkpt><trkpt lat="43.2189402561132" lon="12.201929651489461"><ele>314.8</ele><time>2026-03-29T08:31:29.999Z</time></trkpt><trkpt lat="43.21887340786104" lon="12.201979743666708"><ele>314.6</ele><time>2026-03-29T08:31:30.999Z</time></trkpt><trkpt lat="43.21877007400951" lon="12.202026068046466"><ele>314.4</ele><time>2026-03-29T08:31:32.999Z</time></trkpt><trkpt lat="43.21870295461599" lon="12.201977494678541"><ele>314.2</ele><time>2026-03-29T08:31:34.999Z</time></trkpt><trkpt lat="43.218660701941666" lon="12.201824621767985"><ele>314.0</ele><time>2026-03-29T08:31:36.999Z</time></trkpt><trkpt lat="43.21863069218923" lon="12.201712090864012"><ele>314.0</ele><time>2026-03-29T08:31:37.999Z</time></trkpt><trkpt lat="43.218597221722035" lon="12.201606491023734"><ele>314.0</ele><time>2026-03-29T08:31:38.999Z</time></trkpt><trkpt lat="43.218565692070044" lon="12.201501375929093"><ele>314.0</ele><time>2026-03-29T08:31:39.999Z</time></trkpt><trkpt lat="43.21853009744595" lon="12.201385588778509"><ele>314.0</ele><time>2026-03-29T08:31:40.999Z</time></trkpt><trkpt lat="43.21848582585552" lon="12.201262942667135"><ele>314.0</ele><time>2026-03-29T08:31:41.999Z</time></trkpt><trkpt lat="43.218430976416016" lon="12.201118261600291"><ele>313.5</ele><time>2026-03-29T08:31:42.999Z</time></trkpt><trkpt lat="43.21836988675458" lon="12.200957309528464"><ele>313.0</ele><time>2026-03-29T08:31:43.999Z</time></trkpt><trkpt lat="43.218306631499246" lon="12.200792708787914"><ele>312.5</ele><time>2026-03-29T08:31:44.999Z</time></trkpt><trkpt lat="43.21824499855346" lon="12.200620777258822"><ele>312.0</ele><time>2026-03-29T08:31:45.999Z</time></trkpt><trkpt lat="43.218182775313444" lon="12.20045640440576"><ele>311.6666666666667</ele><time>2026-03-29T08:31:46.999Z</time></trkpt><trkpt lat="43.21811038890347" lon="12.200278872087612"><ele>311.33333333333337</ele><time>2026-03-29T08:31:47.999Z</time></trkpt><trkpt lat="43.21802783471774" lon="12.200092817058401"><ele>311.0</ele><time>2026-03-29T08:31:48.999Z</time></trkpt><trkpt lat="43.21795085250585" lon="12.199911242322164"><ele>310.75</ele><time>2026-03-29T08:31:49.999Z</time></trkpt><trkpt lat="43.217884558407306" lon="12.19973290392512"><ele>310.5</ele><time>2026-03-29T08:31:50.999Z</time></trkpt><trkpt lat="43.21782390661803" lon="12.199562742489917"><ele>310.25</ele><time>2026-03-29T08:31:51.999Z</time></trkpt><trkpt lat="43.21775636608905" lon="12.199385663232015"><ele>310.0</ele><time>2026-03-29T08:31:52.999Z</time></trkpt><trkpt lat="43.21768622102898" lon="12.199204448231525"><ele>310.0</ele><time>2026-03-29T08:31:53.999Z</time></trkpt><trkpt lat="43.21760572966949" lon="12.199016490929445"><ele>310.0</ele><time>2026-03-29T08:31:54.999Z</time></trkpt><trkpt lat="43.21752879128532" lon="12.198840650839884"><ele>310.0</ele><time>2026-03-29T08:31:55.999Z</time></trkpt><trkpt lat="43.217459286738496" lon="12.198674651527357"><ele>310.0</ele><time>2026-03-29T08:31:56.999Z</time></trkpt><trkpt lat="43.217397169299964" lon="12.198497283718899"><ele>310.0</ele><time>2026-03-29T08:31:57.999Z</time></trkpt><trkpt lat="43.217352321967766" lon="12.198305005668521"><ele>310.0</ele><time>2026-03-29T08:31:58.999Z</time></trkpt><trkpt lat="43.21732069797134" lon="12.198096775187954"><ele>310.0</ele><time>2026-03-29T08:31:59.999Z</time></trkpt><trkpt lat="43.21730373561857" lon="12.197868300692086"><ele>310.25</ele><time>2026-03-29T08:32:00.999Z</time></trkpt><trkpt lat="43.21728989998844" lon="12.197667039861187"><ele>310.5</ele><time>2026-03-29T08:32:01.999Z</time></trkpt><trkpt lat="43.217269098685" lon="12.197473604446836"><ele>310.75</ele><time>2026-03-29T08:32:02.999Z</time></trkpt><trkpt lat="43.217249208736646" lon="12.197305960453443"><ele>311.0</ele><time>2026-03-29T08:32:03.999Z</time></trkpt><trkpt lat="43.217226611642346" lon="12.1971508897226"><ele>311.0</ele><time>2026-03-29T08:32:04.999Z</time></trkpt><trkpt lat="43.217201861282874" lon="12.196988987292858"><ele>311.0</ele><time>2026-03-29T08:32:05.999Z</time></trkpt><trkpt lat="43.21717917668046" lon="12.196829025770803"><ele>311.0</ele><time>2026-03-29T08:32:06.999Z</time></trkpt><trkpt lat="43.217161754219426" lon="12.196671648072895"><ele>311.0</ele><time>2026-03-29T08:32:07.999Z</time></trkpt><trkpt lat="43.21714829456" lon="12.196499339403841"><ele>311.25</ele><time>2026-03-29T08:32:08.999Z</time></trkpt><trkpt lat="43.21714520833011" lon="12.196322448087315"><ele>311.5</ele><time>2026-03-29T08:32:09.999Z</time></trkpt><trkpt lat="43.21716332724368" lon="12.196151132472899"><ele>311.75</ele><time>2026-03-29T08:32:10.999Z</time></trkpt><trkpt lat="43.217187768177716" lon="12.1959816910021"><ele>312.0</ele><time>2026-03-29T08:32:11.999Z</time></trkpt><trkpt lat="43.21722610143302" lon="12.195804199630432"><ele>312.0</ele><time>2026-03-29T08:32:12.999Z</time></trkpt><trkpt lat="43.217273112533434" lon="12.195619043972547"><ele>312.0</ele><time>2026-03-29T08:32:13.999Z</time></trkpt><trkpt lat="43.217323736854574" lon="12.195433577847998"><ele>312.0</ele><time>2026-03-29T08:32:14.999Z</time></trkpt><trkpt lat="43.217368196487115" lon="12.195244453718043"><ele>312.0</ele><time>2026-03-29T08:32:16Z</time></trkpt><trkpt lat="43.2174075912701" lon="12.19506386117874"><ele>312.0</ele><time>2026-03-29T08:32:17Z</time></trkpt><trkpt lat="43.21744313189502" lon="12.194919953048965"><ele>312.0</ele><time>2026-03-29T08:32:18Z</time></trkpt><trkpt lat="43.21745999791449" lon="12.194798236464948"><ele>312.0</ele><time>2026-03-29T08:32:19Z</time></trkpt><trkpt lat="43.21747054985621" lon="12.194690043324997"><ele>312.0</ele><time>2026-03-29T08:32:20Z</time></trkpt><trkpt lat="43.21745488040478" lon="12.19457919399031"><ele>312.0</ele><time>2026-03-29T08:32:21Z</time></trkpt><trkpt lat="43.21741839427299" lon="12.194464659227808"><ele>312.0</ele><time>2026-03-29T08:32:22Z</time></trkpt><trkpt lat="43.21736792550891" lon="12.194359570052663"><ele>312.0</ele><time>2026-03-29T08:32:23Z</time></trkpt><trkpt lat="43.21731512460385" lon="12.194266140122313"><ele>312.0</ele><time>2026-03-29T08:32:24Z</time></trkpt><trkpt lat="43.21725025629275" lon="12.194143547181863"><ele>312.0</ele><time>2026-03-29T08:32:25Z</time></trkpt><trkpt lat="43.21718723628784" lon="12.19401392432765"><ele>312.0</ele><time>2026-03-29T08:32:26Z</time></trkpt><trkpt lat="43.217125322054486" lon="12.1938771253928"><ele>312.5</ele><time>2026-03-29T08:32:27Z</time></trkpt><trkpt lat="43.217064479585474" lon="12.193706327914148"><ele>313.0</ele><time>2026-03-29T08:32:28Z</time></trkpt><trkpt lat="43.21699988361055" lon="12.193535305705176"><ele>313.5</ele><time>2026-03-29T08:32:29Z</time></trkpt><trkpt lat="43.21693994091232" lon="12.193364648904065"><ele>314.0</ele><time>2026-03-29T08:32:30Z</time></trkpt><trkpt lat="43.216869264439104" lon="12.193211479123898"><ele>313.75</ele><time>2026-03-29T08:32:31Z</time></trkpt><trkpt lat="43.21681723239552" lon="12.193072464880716"><ele>313.5</ele><time>2026-03-29T08:32:32Z</time></trkpt><trkpt lat="43.216764845317584" lon="12.192929521742824"><ele>313.25</ele><time>2026-03-29T08:32:33Z</time></trkpt><trkpt lat="43.21669787845074" lon="12.192774707024602"><ele>313.0</ele><time>2026-03-29T08:32:34Z</time></trkpt><trkpt lat="43.21662679305409" lon="12.192610520703031"><ele>313.0</ele><time>2026-03-29T08:32:35Z</time></trkpt><trkpt lat="43.21656507528286" lon="12.192454852418393"><ele>313.0</ele><time>2026-03-29T08:32:36Z</time></trkpt><trkpt lat="43.21652152908338" lon="12.192309747714352"><ele>313.0</ele><time>2026-03-29T08:32:37Z</time></trkpt><trkpt lat="43.216478654156454" lon="12.192149655817657"><ele>313.0</ele><time>2026-03-29T08:32:38Z</time></trkpt><trkpt lat="43.21646174297055" lon="12.192007433046399"><ele>313.0</ele><time>2026-03-29T08:32:39Z</time></trkpt><trkpt lat="43.21645431055311" lon="12.191905980193168"><ele>313.0</ele><time>2026-03-29T08:32:40Z</time></trkpt><trkpt lat="43.2164798594865" lon="12.191793775167834"><ele>313.0</ele><time>2026-03-29T08:32:42.001Z</time></trkpt><trkpt lat="43.21651834371276" lon="12.191714046721112"><ele>313.0</ele><time>2026-03-29T08:32:44.001Z</time></trkpt><trkpt lat="43.21666283061074" lon="12.191691400906766"><ele>313.0</ele><time>2026-03-29T08:32:46.001Z</time></trkpt><trkpt lat="43.21674937861085" lon="12.191689741230677"><ele>313.0</ele><time>2026-03-29T08:32:47.001Z</time></trkpt><trkpt lat="43.2168956409421" lon="12.191695437934406"><ele>313.0</ele><time>2026-03-29T08:32:48.001Z</time></trkpt><trkpt lat="43.21700677676818" lon="12.19168807759616"><ele>313.0</ele><time>2026-03-29T08:32:49.001Z</time></trkpt><trkpt lat="43.21711145532036" lon="12.191674977841757"><ele>313.0</ele><time>2026-03-29T08:32:50.001Z</time></trkpt><trkpt lat="43.217230790871" lon="12.191674194580132"><ele>312.75</ele><time>2026-03-29T08:32:51.001Z</time></trkpt><trkpt lat="43.21735741382728" lon="12.191670792498718"><ele>312.5</ele><time>2026-03-29T08:32:52.001Z</time></trkpt><trkpt lat="43.21751961396212" lon="12.191657911493223"><ele>312.25</ele><time>2026-03-29T08:32:53.001Z</time></trkpt><trkpt lat="43.2176764707191" lon="12.191630625199997"><ele>312.0</ele><time>2026-03-29T08:32:54.001Z</time></trkpt><trkpt lat="43.217856640263825" lon="12.191607050684299"><ele>312.0</ele><time>2026-03-29T08:32:55.001Z</time></trkpt><trkpt lat="43.21804286898887" lon="12.191595233046613"><ele>312.0</ele><time>2026-03-29T08:32:56.001Z</time></trkpt><trkpt lat="43.21824511956226" lon="12.191590727805329"><ele>312.0</ele><time>2026-03-29T08:32:57.001Z</time></trkpt><trkpt lat="43.218398297491284" lon="12.191570359717277"><ele>312.0</ele><time>2026-03-29T08:32:58.001Z</time></trkpt><trkpt lat="43.2185076850629" lon="12.191535460574476"><ele>312.0</ele><time>2026-03-29T08:32:59.001Z</time></trkpt><trkpt lat="43.218612303844196" lon="12.191509288368893"><ele>312.0</ele><time>2026-03-29T08:33:00.001Z</time></trkpt><trkpt lat="43.21874588356172" lon="12.191492617690537"><ele>312.0</ele><time>2026-03-29T08:33:01.001Z</time></trkpt><trkpt lat="43.21887474475995" lon="12.19145580982549"><ele>312.8</ele><time>2026-03-29T08:33:02.001Z</time></trkpt><trkpt lat="43.218993783772156" lon="12.191426772247949"><ele>313.6</ele><time>2026-03-29T08:33:03.001Z</time></trkpt><trkpt lat="43.21907792215951" lon="12.191380851253134"><ele>314.40000000000003</ele><time>2026-03-29T08:33:04.001Z</time></trkpt><trkpt lat="43.21915442192338" lon="12.191341228971838"><ele>315.2</ele><time>2026-03-29T08:33:05.001Z</time></trkpt><trkpt lat="43.21921417410034" lon="12.191265989077781"><ele>316.0</ele><time>2026-03-29T08:33:06.001Z</time></trkpt><trkpt lat="43.21927989564375" lon="12.191163593717052"><ele>316.0</ele><time>2026-03-29T08:33:07.001Z</time></trkpt><trkpt lat="43.2193361535975" lon="12.191064201189624"><ele>316.0</ele><time>2026-03-29T08:33:08.001Z</time></trkpt><trkpt lat="43.2194013037845" lon="12.190972571277648"><ele>316.0</ele><time>2026-03-29T08:33:09.001Z</time></trkpt><trkpt lat="43.21946631513899" lon="12.190880422515642"><ele>316.0</ele><time>2026-03-29T08:33:10.001Z</time></trkpt><trkpt lat="43.21953205797765" lon="12.19076948647719"><ele>316.0</ele><time>2026-03-29T08:33:11.001Z</time></trkpt><trkpt lat="43.21959956412197" lon="12.190648603409636"><ele>315.75</ele><time>2026-03-29T08:33:12Z</time></trkpt><trkpt lat="43.21967405277953" lon="12.190520975208473"><ele>315.5</ele><time>2026-03-29T08:33:13Z</time></trkpt><trkpt lat="43.219752854489734" lon="12.190386248952173"><ele>315.25</ele><time>2026-03-29T08:33:14Z</time></trkpt><trkpt lat="43.21981870037838" lon="12.190263323178394"><ele>315.0</ele><time>2026-03-29T08:33:15Z</time></trkpt><trkpt lat="43.21988166836998" lon="12.190144588975022"><ele>315.5</ele><time>2026-03-29T08:33:16Z</time></trkpt><trkpt lat="43.21994942601689" lon="12.190022072706455"><ele>316.0</ele><time>2026-03-29T08:33:17Z</time></trkpt><trkpt lat="43.22002996062511" lon="12.189886705854034"><ele>316.5</ele><time>2026-03-29T08:33:18Z</time></trkpt><trkpt lat="43.22012245278299" lon="12.189739649721318"><ele>317.0</ele><time>2026-03-29T08:33:19Z</time></trkpt><trkpt lat="43.220206996006134" lon="12.189598306570028"><ele>317.0</ele><time>2026-03-29T08:33:20Z</time></trkpt><trkpt lat="43.220298492456436" lon="12.189465559017863"><ele>317.0</ele><time>2026-03-29T08:33:21Z</time></trkpt><trkpt lat="43.22037735089893" lon="12.189336789642587"><ele>317.0</ele><time>2026-03-29T08:33:22Z</time></trkpt><trkpt lat="43.220461311539836" lon="12.18920401084636"><ele>317.0</ele><time>2026-03-29T08:33:23Z</time></trkpt><trkpt lat="43.220532890982966" lon="12.189083923132053"><ele>316.75</ele><time>2026-03-29T08:33:24Z</time></trkpt><trkpt lat="43.22059594150529" lon="12.188971383293046"><ele>316.5</ele><time>2026-03-29T08:33:25Z</time></trkpt><trkpt lat="43.220660662581906" lon="12.188844076612423"><ele>316.25</ele><time>2026-03-29T08:33:26Z</time></trkpt><trkpt lat="43.220723009862" lon="12.188707992510656"><ele>316.0</ele><time>2026-03-29T08:33:27Z</time></trkpt><trkpt lat="43.22080295910742" lon="12.188558100245304"><ele>316.0</ele><time>2026-03-29T08:33:28Z</time></trkpt><trkpt lat="43.22088392676182" lon="12.188407895522106"><ele>316.0</ele><time>2026-03-29T08:33:29Z</time></trkpt><trkpt lat="43.22093378269615" lon="12.188264208296932"><ele>316.0</ele><time>2026-03-29T08:33:30Z</time></trkpt><trkpt lat="43.22098399673491" lon="12.188120296397042"><ele>316.0</ele><time>2026-03-29T08:33:31Z</time></trkpt><trkpt lat="43.22102556739475" lon="12.187976269342021"><ele>317.0</ele><time>2026-03-29T08:33:32Z</time></trkpt><trkpt lat="43.221031283280404" lon="12.187795056113307"><ele>318.0</ele><time>2026-03-29T08:33:33Z</time></trkpt><trkpt lat="43.22101962039384" lon="12.187601501542776"><ele>319.0</ele><time>2026-03-29T08:33:34Z</time></trkpt><trkpt lat="43.221000729682196" lon="12.187401889055499"><ele>320.0</ele><time>2026-03-29T08:33:35Z</time></trkpt><trkpt lat="43.22100348574724" lon="12.187207929950377"><ele>320.8</ele><time>2026-03-29T08:33:36Z</time></trkpt><trkpt lat="43.221004720887066" lon="12.187032322686795"><ele>321.6</ele><time>2026-03-29T08:33:37Z</time></trkpt><trkpt lat="43.22101253275868" lon="12.186907187337725"><ele>322.4</ele><time>2026-03-29T08:33:38Z</time></trkpt><trkpt lat="43.22101039385246" lon="12.186786623249784"><ele>323.2</ele><time>2026-03-29T08:33:39Z</time></trkpt><trkpt lat="43.221010836468594" lon="12.186690716089778"><ele>324.0</ele><time>2026-03-29T08:33:40Z</time></trkpt><trkpt lat="43.22101522514026" lon="12.186587731057683"><ele>323.79999999999995</ele><time>2026-03-29T08:33:41Z</time></trkpt><trkpt lat="43.22104273476845" lon="12.18647319474104"><ele>323.59999999999997</ele><time>2026-03-29T08:33:42Z</time></trkpt><trkpt lat="43.221084886816605" lon="12.186358939932905"><ele>323.4</ele><time>2026-03-29T08:33:43Z</time></trkpt><trkpt lat="43.22112772888597" lon="12.186241965742429"><ele>323.2</ele><time>2026-03-29T08:33:44Z</time></trkpt><trkpt lat="43.22116705969518" lon="12.186135076181028"><ele>323.0</ele><time>2026-03-29T08:33:45Z</time></trkpt><trkpt lat="43.22122791662683" lon="12.186023253797051"><ele>323.0</ele><time>2026-03-29T08:33:46Z</time></trkpt><trkpt lat="43.2212988376052" lon="12.185926384138195"><ele>323.0</ele><time>2026-03-29T08:33:47Z</time></trkpt><trkpt lat="43.22138730085942" lon="12.185838364425386"><ele>323.0</ele><time>2026-03-29T08:33:48Z</time></trkpt><trkpt lat="43.22146575091127" lon="12.185758530186527"><ele>323.0</ele><time>2026-03-29T08:33:49Z</time></trkpt><trkpt lat="43.22154328201219" lon="12.185680024411424"><ele>323.0</ele><time>2026-03-29T08:33:50Z</time></trkpt><trkpt lat="43.22162475083831" lon="12.185606287770838"><ele>324.6666666666667</ele><time>2026-03-29T08:33:51Z</time></trkpt><trkpt lat="43.221700148952046" lon="12.185530721801136"><ele>326.33333333333337</ele><time>2026-03-29T08:33:52Z</time></trkpt><trkpt lat="43.221771309668235" lon="12.18545653571953"><ele>328.0</ele><time>2026-03-29T08:33:53Z</time></trkpt><trkpt lat="43.22184077791493" lon="12.185391167264333"><ele>329.6666666666667</ele><time>2026-03-29T08:33:54Z</time></trkpt><trkpt lat="43.221905538440254" lon="12.18535240087068"><ele>331.3333333333333</ele><time>2026-03-29T08:33:55Z</time></trkpt><trkpt lat="43.221969694271245" lon="12.185338528051075"><ele>333.0</ele><time>2026-03-29T08:33:56Z</time></trkpt><trkpt lat="43.222086645812006" lon="12.18542877320229"><ele>333.0</ele><time>2026-03-29T08:33:58Z</time></trkpt><trkpt lat="43.22215242608607" lon="12.185519035302164"><ele>333.0</ele><time>2026-03-29T08:33:59Z</time></trkpt><trkpt lat="43.22221834157248" lon="12.185610217773629"><ele>333.0</ele><time>2026-03-29T08:34:00Z</time></trkpt><trkpt lat="43.222281365170296" lon="12.1856969628838"><ele>333.0</ele><time>2026-03-29T08:34:01Z</time></trkpt><trkpt lat="43.22234586130875" lon="12.185782105598877"><ele>333.0</ele><time>2026-03-29T08:34:02Z</time></trkpt><trkpt lat="43.222408502163034" lon="12.185883711107184"><ele>336.4</ele><time>2026-03-29T08:34:03Z</time></trkpt><trkpt lat="43.222470385567696" lon="12.185997800814972"><ele>339.79999999999995</ele><time>2026-03-29T08:34:04Z</time></trkpt><trkpt lat="43.22253079611772" lon="12.186123407452506"><ele>343.2</ele><time>2026-03-29T08:34:05Z</time></trkpt><trkpt lat="43.22257193483281" lon="12.186259634270408"><ele>346.6</ele><time>2026-03-29T08:34:06Z</time></trkpt><trkpt lat="43.22260829739864" lon="12.186397547705587"><ele>350.0</ele><time>2026-03-29T08:34:07Z</time></trkpt><trkpt lat="43.222643103001715" lon="12.186505020456378"><ele>350.0</ele><time>2026-03-29T08:34:08Z</time></trkpt><trkpt lat="43.222680014516285" lon="12.186584734543397"><ele>350.0</ele><time>2026-03-29T08:34:09Z</time></trkpt><trkpt lat="43.22274482613335" lon="12.186636718588785"><ele>350.0</ele><time>2026-03-29T08:34:10Z</time></trkpt><trkpt lat="43.22282713349979" lon="12.186664114894118"><ele>350.0</ele><time>2026-03-29T08:34:11Z</time></trkpt><trkpt lat="43.22292102929906" lon="12.186692134497536"><ele>350.0</ele><time>2026-03-29T08:34:12Z</time></trkpt><trkpt lat="43.22302489152487" lon="12.18671976295355"><ele>350.0</ele><time>2026-03-29T08:34:13Z</time></trkpt><trkpt lat="43.223099944569" lon="12.186752160740495"><ele>352.5</ele><time>2026-03-29T08:34:14Z</time></trkpt><trkpt lat="43.22318260928233" lon="12.186785213096714"><ele>355.0</ele><time>2026-03-29T08:34:15Z</time></trkpt><trkpt lat="43.223259249987905" lon="12.186811469236515"><ele>357.5</ele><time>2026-03-29T08:34:16Z</time></trkpt><trkpt lat="43.223324683886965" lon="12.186825299060692"><ele>360.0</ele><time>2026-03-29T08:34:17Z</time></trkpt><trkpt lat="43.223457971384434" lon="12.186782588880616"><ele>362.5</ele><time>2026-03-29T08:34:19Z</time></trkpt><trkpt lat="43.22353013664425" lon="12.186761693911574"><ele>365.0</ele><time>2026-03-29T08:34:20Z</time></trkpt><trkpt lat="43.223617170908526" lon="12.186725864848501"><ele>365.0</ele><time>2026-03-29T08:34:21Z</time></trkpt><trkpt lat="43.223712875130545" lon="12.186688927251353"><ele>365.0</ele><time>2026-03-29T08:34:22Z</time></trkpt><trkpt lat="43.2238022887409" lon="12.18665384284701"><ele>365.0</ele><time>2026-03-29T08:34:23Z</time></trkpt><trkpt lat="43.223898422964794" lon="12.186621597860396"><ele>365.0</ele><time>2026-03-29T08:34:24Z</time></trkpt><trkpt lat="43.22398527567109" lon="12.186576513663162"><ele>365.0</ele><time>2026-03-29T08:34:25Z</time></trkpt><trkpt lat="43.22407200937861" lon="12.186518811277535"><ele>367.2</ele><time>2026-03-29T08:34:26Z</time></trkpt><trkpt lat="43.22415372689685" lon="12.186462472984452"><ele>369.4</ele><time>2026-03-29T08:34:27Z</time></trkpt><trkpt lat="43.224241485928864" lon="12.186409401126921"><ele>371.6</ele><time>2026-03-29T08:34:28Z</time></trkpt><trkpt lat="43.22433567611336" lon="12.186354381266053"><ele>373.8</ele><time>2026-03-29T08:34:29Z</time></trkpt><trkpt lat="43.22442185422681" lon="12.186306912558177"><ele>376.0</ele><time>2026-03-29T08:34:30Z</time></trkpt><trkpt lat="43.22450086105569" lon="12.186253511318432"><ele>376.0</ele><time>2026-03-29T08:34:31Z</time></trkpt><trkpt lat="43.22457324996012" lon="12.18621414276203"><ele>376.0</ele><time>2026-03-29T08:34:32Z</time></trkpt><trkpt lat="43.224654371483986" lon="12.186085059560437"><ele>376.0</ele><time>2026-03-29T08:34:34Z</time></trkpt><trkpt lat="43.224677851193306" lon="12.185987779302456"><ele>376.0</ele><time>2026-03-29T08:34:36Z</time></trkpt><trkpt lat="43.22465899009505" lon="12.185881772707202"><ele>376.0</ele><time>2026-03-29T08:34:38Z</time></trkpt><trkpt lat="43.224604828256346" lon="12.185743894436012"><ele>375.66666666666663</ele><time>2026-03-29T08:34:39Z</time></trkpt><trkpt lat="43.224508081076195" lon="12.185626550148202"><ele>375.3333333333333</ele><time>2026-03-29T08:34:40Z</time></trkpt><trkpt lat="43.22444839720198" lon="12.185546307761705"><ele>375.0</ele><time>2026-03-29T08:34:41Z</time></trkpt><trkpt lat="43.22440757192637" lon="12.185478338947462"><ele>374.6666666666667</ele><time>2026-03-29T08:34:42Z</time></trkpt><trkpt lat="43.22436883754937" lon="12.185394665471303"><ele>374.33333333333337</ele><time>2026-03-29T08:34:43Z</time></trkpt><trkpt lat="43.22436061422156" lon="12.185281896897862"><ele>374.0</ele><time>2026-03-29T08:34:44Z</time></trkpt><trkpt lat="43.22432863777317" lon="12.185141580570333"><ele>374.0</ele><time>2026-03-29T08:34:45Z</time></trkpt><trkpt lat="43.22431019432997" lon="12.184976167334362"><ele>374.0</ele><time>2026-03-29T08:34:46.001Z</time></trkpt><trkpt lat="43.22432563381638" lon="12.184804450728736"><ele>374.0</ele><time>2026-03-29T08:34:47.001Z</time></trkpt><trkpt lat="43.22435721390663" lon="12.184620652674136"><ele>374.0</ele><time>2026-03-29T08:34:48.001Z</time></trkpt><trkpt lat="43.224349625785926" lon="12.184444412760458"><ele>373.83333333333337</ele><time>2026-03-29T08:34:49.001Z</time></trkpt><trkpt lat="43.22435643955558" lon="12.184303176589362"><ele>373.6666666666667</ele><time>2026-03-29T08:34:50.001Z</time></trkpt><trkpt lat="43.22435201068652" lon="12.184160709121292"><ele>373.5</ele><time>2026-03-29T08:34:51.001Z</time></trkpt><trkpt lat="43.22433584129642" lon="12.184050787744262"><ele>373.3333333333333</ele><time>2026-03-29T08:34:52.001Z</time></trkpt><trkpt lat="43.224318318370756" lon="12.183961633243063"><ele>373.16666666666663</ele><time>2026-03-29T08:34:53.001Z</time></trkpt><trkpt lat="43.22430133488662" lon="12.183856547638221"><ele>373.0</ele><time>2026-03-29T08:34:54.001Z</time></trkpt><trkpt lat="43.22429128728806" lon="12.183726309908774"><ele>373.59999999999997</ele><time>2026-03-29T08:34:55.001Z</time></trkpt><trkpt lat="43.22428262022759" lon="12.183582557620436"><ele>374.2</ele><time>2026-03-29T08:34:56.001Z</time></trkpt><trkpt lat="43.224271328826624" lon="12.183442026304176"><ele>374.8</ele><time>2026-03-29T08:34:57.001Z</time></trkpt><trkpt lat="43.22426961178732" lon="12.183302537571612"><ele>375.4</ele><time>2026-03-29T08:34:58.001Z</time></trkpt><trkpt lat="43.2242344116789" lon="12.183191705548063"><ele>376.0</ele><time>2026-03-29T08:34:59.001Z</time></trkpt><trkpt lat="43.2241868693828" lon="12.183074456369853"><ele>377.0</ele><time>2026-03-29T08:35:00.001Z</time></trkpt><trkpt lat="43.22409568407426" lon="12.183054544620154"><ele>378.0</ele><time>2026-03-29T08:35:01.001Z</time></trkpt><trkpt lat="43.2240377208223" lon="12.182988834468663"><ele>379.0</ele><time>2026-03-29T08:35:02.001Z</time></trkpt><trkpt lat="43.22397278567906" lon="12.18291522039146"><ele>380.0</ele><time>2026-03-29T08:35:03.001Z</time></trkpt><trkpt lat="43.22389121669969" lon="12.182828953317072"><ele>381.0</ele><time>2026-03-29T08:35:04Z</time></trkpt><trkpt lat="43.223810179697146" lon="12.18276329349206"><ele>382.0</ele><time>2026-03-29T08:35:05Z</time></trkpt><trkpt lat="43.22374020660007" lon="12.182715489268764"><ele>382.0</ele><time>2026-03-29T08:35:06Z</time></trkpt><trkpt lat="43.22365996407298" lon="12.182667160963824"><ele>382.0</ele><time>2026-03-29T08:35:07Z</time></trkpt><trkpt lat="43.22357994054067" lon="12.182622129743285"><ele>382.0</ele><time>2026-03-29T08:35:08Z</time></trkpt><trkpt lat="43.223490469279554" lon="12.182576202675893"><ele>382.0</ele><time>2026-03-29T08:35:09Z</time></trkpt><trkpt lat="43.223404049440596" lon="12.182500900684154"><ele>382.0</ele><time>2026-03-29T08:35:10Z</time></trkpt><trkpt lat="43.22336436051518" lon="12.182404285590936"><ele>382.6</ele><time>2026-03-29T08:35:11Z</time></trkpt><trkpt lat="43.2233294900961" lon="12.182320355880416"><ele>383.20000000000005</ele><time>2026-03-29T08:35:12Z</time></trkpt><trkpt lat="43.223287944072865" lon="12.182217580434394"><ele>383.8</ele><time>2026-03-29T08:35:13Z</time></trkpt><trkpt lat="43.223240552423334" lon="12.18210034421839"><ele>384.4</ele><time>2026-03-29T08:35:14Z</time></trkpt><trkpt lat="43.22319208331034" lon="12.181964070922257"><ele>385.0</ele><time>2026-03-29T08:35:15Z</time></trkpt><trkpt lat="43.223144789580445" lon="12.181844450786325"><ele>385.0</ele><time>2026-03-29T08:35:16Z</time></trkpt><trkpt lat="43.223075964566334" lon="12.18175416808508"><ele>385.0</ele><time>2026-03-29T08:35:17Z</time></trkpt><trkpt lat="43.22299215617037" lon="12.18166794181663"><ele>385.0</ele><time>2026-03-29T08:35:18Z</time></trkpt><trkpt lat="43.222913463949176" lon="12.181584727056705"><ele>385.0</ele><time>2026-03-29T08:35:19Z</time></trkpt><trkpt lat="43.22284571081961" lon="12.181492110581573"><ele>385.0</ele><time>2026-03-29T08:35:20Z</time></trkpt><trkpt lat="43.22278107263351" lon="12.181383219466733"><ele>386.33333333333337</ele><time>2026-03-29T08:35:21Z</time></trkpt><trkpt lat="43.22272599905783" lon="12.181252377304787"><ele>387.6666666666667</ele><time>2026-03-29T08:35:22Z</time></trkpt><trkpt lat="43.22271391481515" lon="12.181141062604278"><ele>389.0</ele><time>2026-03-29T08:35:23Z</time></trkpt><trkpt lat="43.22268768908921" lon="12.181055368297773"><ele>390.33333333333337</ele><time>2026-03-29T08:35:26Z</time></trkpt><trkpt lat="43.222761465630455" lon="12.18095373842722"><ele>391.6666666666667</ele><time>2026-03-29T08:35:30Z</time></trkpt><trkpt lat="43.22279169043882" lon="12.180877394698488"><ele>393.0</ele><time>2026-03-29T08:35:32Z</time></trkpt><trkpt lat="43.22283775163181" lon="12.180801050415479"><ele>393.0</ele><time>2026-03-29T08:35:34Z</time></trkpt><trkpt lat="43.22288670098876" lon="12.180880663781195"><ele>393.0</ele><time>2026-03-29T08:35:35Z</time></trkpt><trkpt lat="43.22295543746005" lon="12.180896858844253"><ele>393.0</ele><time>2026-03-29T08:35:37Z</time></trkpt><trkpt lat="43.223043565848066" lon="12.180990929993166"><ele>393.0</ele><time>2026-03-29T08:35:39Z</time></trkpt><trkpt lat="43.2230681855852" lon="12.181090909153404"><ele>393.0</ele><time>2026-03-29T08:35:40Z</time></trkpt><trkpt lat="43.223137151695745" lon="12.181131172579693"><ele>393.0</ele><time>2026-03-29T08:35:41Z</time></trkpt><trkpt lat="43.223250150904114" lon="12.181066021856497"><ele>395.8333333333333</ele><time>2026-03-29T08:35:42Z</time></trkpt><trkpt lat="43.223316725941395" lon="12.18105699970766"><ele>398.66666666666663</ele><time>2026-03-29T08:35:43Z</time></trkpt><trkpt lat="43.2233840553686" lon="12.181063216036925"><ele>401.5</ele><time>2026-03-29T08:35:44Z</time></trkpt><trkpt lat="43.22348787281891" lon="12.181070559019673"><ele>404.3333333333333</ele><time>2026-03-29T08:35:45Z</time></trkpt><trkpt lat="43.22358115921966" lon="12.181066632818492"><ele>407.16666666666663</ele><time>2026-03-29T08:35:46Z</time></trkpt><trkpt lat="43.223654665310136" lon="12.181086817664243"><ele>410.0</ele><time>2026-03-29T08:35:47Z</time></trkpt><trkpt lat="43.223727605840516" lon="12.181165583156407"><ele>410.0</ele><time>2026-03-29T08:35:48Z</time></trkpt><trkpt lat="43.223823254991096" lon="12.181219644108713"><ele>410.0</ele><time>2026-03-29T08:35:49Z</time></trkpt><trkpt lat="43.223954002125886" lon="12.181247137328997"><ele>410.0</ele><time>2026-03-29T08:35:50Z</time></trkpt><trkpt lat="43.22405599799027" lon="12.18123277665262"><ele>410.0</ele><time>2026-03-29T08:35:51Z</time></trkpt><trkpt lat="43.224148701216166" lon="12.181219377007057"><ele>410.0</ele><time>2026-03-29T08:35:52Z</time></trkpt><trkpt lat="43.224243858395994" lon="12.181208942421076"><ele>412.3333333333333</ele><time>2026-03-29T08:35:53Z</time></trkpt><trkpt lat="43.22435169086532" lon="12.181184064308747"><ele>414.66666666666663</ele><time>2026-03-29T08:35:54Z</time></trkpt><trkpt lat="43.22443791351768" lon="12.181127266102045"><ele>417.0</ele><time>2026-03-29T08:35:55Z</time></trkpt><trkpt lat="43.22449827350382" lon="12.181092848280112"><ele>419.33333333333337</ele><time>2026-03-29T08:35:56Z</time></trkpt><trkpt lat="43.2245638233522" lon="12.181050216284788"><ele>421.6666666666667</ele><time>2026-03-29T08:35:57Z</time></trkpt><trkpt lat="43.22463991439667" lon="12.181012083329632"><ele>424.0</ele><time>2026-03-29T08:35:58Z</time></trkpt><trkpt lat="43.22474022199472" lon="12.181046521045943"><ele>424.0</ele><time>2026-03-29T08:35:59Z</time></trkpt><trkpt lat="43.22481151744299" lon="12.18104215351606"><ele>424.0</ele><time>2026-03-29T08:36:00Z</time></trkpt><trkpt lat="43.22493999551131" lon="12.181036271696259"><ele>424.0</ele><time>2026-03-29T08:36:02Z</time></trkpt><trkpt lat="43.225023501556876" lon="12.181054004052179"><ele>424.0</ele><time>2026-03-29T08:36:03Z</time></trkpt><trkpt lat="43.225107743613044" lon="12.181076558883928"><ele>424.0</ele><time>2026-03-29T08:36:04Z</time></trkpt><trkpt lat="43.225189310901754" lon="12.181079158919157"><ele>425.33333333333337</ele><time>2026-03-29T08:36:05Z</time></trkpt><trkpt lat="43.22528880884374" lon="12.181074013953"><ele>426.6666666666667</ele><time>2026-03-29T08:36:06Z</time></trkpt><trkpt lat="43.22536559759072" lon="12.181076796899031"><ele>428.0</ele><time>2026-03-29T08:36:07Z</time></trkpt><trkpt lat="43.22544785601959" lon="12.181038019622026"><ele>429.33333333333337</ele><time>2026-03-29T08:36:09Z</time></trkpt><trkpt lat="43.225442316152616" lon="12.180893923325897"><ele>430.6666666666667</ele><time>2026-03-29T08:36:11Z</time></trkpt><trkpt lat="43.2254515351655" lon="12.180803413642685"><ele>432.0</ele><time>2026-03-29T08:36:12Z</time></trkpt><trkpt lat="43.22538302596688" lon="12.180672814639692"><ele>434.1666666666667</ele><time>2026-03-29T08:36:13Z</time></trkpt><trkpt lat="43.225330232690496" lon="12.18055812178104"><ele>436.33333333333337</ele><time>2026-03-29T08:36:14Z</time></trkpt><trkpt lat="43.22525779444282" lon="12.180473255750961"><ele>438.5</ele><time>2026-03-29T08:36:15Z</time></trkpt><trkpt lat="43.22518519063932" lon="12.180402053804947"><ele>440.6666666666667</ele><time>2026-03-29T08:36:16Z</time></trkpt><trkpt lat="43.22512631431324" lon="12.180342186592414"><ele>442.83333333333337</ele><time>2026-03-29T08:36:17Z</time></trkpt><trkpt lat="43.22506622879081" lon="12.180269532384429"><ele>445.0</ele><time>2026-03-29T08:36:18Z</time></trkpt><trkpt lat="43.22499891997093" lon="12.180224557936059"><ele>445.00000000000006</ele><time>2026-03-29T08:36:19Z</time></trkpt><trkpt lat="43.22491870467456" lon="12.180223319418799"><ele>445.0</ele><time>2026-03-29T08:36:20Z</time></trkpt><trkpt lat="43.22484846585858" lon="12.180196521676447"><ele>445.0</ele><time>2026-03-29T08:36:21Z</time></trkpt><trkpt lat="43.22481590301434" lon="12.180074713489036"><ele>445.0</ele><time>2026-03-29T08:36:23Z</time></trkpt><trkpt lat="43.22488016231555" lon="12.17993940494031"><ele>445.00000000000006</ele><time>2026-03-29T08:36:25Z</time></trkpt><trkpt lat="43.22489719312053" lon="12.179842567024835"><ele>445.0</ele><time>2026-03-29T08:36:26Z</time></trkpt><trkpt lat="43.22492031388996" lon="12.179707695932365"><ele>444.8</ele><time>2026-03-29T08:36:28Z</time></trkpt><trkpt lat="43.224993031479976" lon="12.179632338381495"><ele>444.6</ele><time>2026-03-29T08:36:30Z</time></trkpt><trkpt lat="43.22510157701919" lon="12.179586294896495"><ele>444.4</ele><time>2026-03-29T08:36:32Z</time></trkpt><trkpt lat="43.225182243346595" lon="12.179548885166913"><ele>444.2</ele><time>2026-03-29T08:36:33Z</time></trkpt><trkpt lat="43.22526982515352" lon="12.179512574332724"><ele>444.0</ele><time>2026-03-29T08:36:34Z</time></trkpt><trkpt lat="43.225343482471466" lon="12.179450064623012"><ele>444.0</ele><time>2026-03-29T08:36:35Z</time></trkpt><trkpt lat="43.22541102713743" lon="12.179384186377556"><ele>444.0</ele><time>2026-03-29T08:36:36Z</time></trkpt><trkpt lat="43.22546294173038" lon="12.179315538938216"><ele>444.0</ele><time>2026-03-29T08:36:37Z</time></trkpt><trkpt lat="43.22549393285631" lon="12.179223275036172"><ele>444.0</ele><time>2026-03-29T08:36:38Z</time></trkpt><trkpt lat="43.22552540344481" lon="12.179140586986241"><ele>444.0</ele><time>2026-03-29T08:36:39Z</time></trkpt><trkpt lat="43.22557970675918" lon="12.179069582726134"><ele>444.0</ele><time>2026-03-29T08:36:40Z</time></trkpt><trkpt lat="43.22565164600066" lon="12.178980780635607"><ele>446.3333333333333</ele><time>2026-03-29T08:36:42Z</time></trkpt><trkpt lat="43.225655425507675" lon="12.178885830616244"><ele>448.66666666666663</ele><time>2026-03-29T08:36:44Z</time></trkpt><trkpt lat="43.22565833944898" lon="12.178777146438216"><ele>451.0</ele><time>2026-03-29T08:36:46Z</time></trkpt><trkpt lat="43.2256992486763" lon="12.178631500965334"><ele>453.3333333333333</ele><time>2026-03-29T08:36:49Z</time></trkpt><trkpt lat="43.22574968289421" lon="12.178535057900843"><ele>455.66666666666663</ele><time>2026-03-29T08:36:51Z</time></trkpt><trkpt lat="43.22578912448988" lon="12.178451701204754"><ele>458.0</ele><time>2026-03-29T08:36:52Z</time></trkpt><trkpt lat="43.22589547699814" lon="12.178282643787218"><ele>458.59999999999997</ele><time>2026-03-29T08:36:54Z</time></trkpt><trkpt lat="43.22593064423634" lon="12.178101732527194"><ele>459.19999999999993</ele><time>2026-03-29T08:36:56Z</time></trkpt><trkpt lat="43.225956983295944" lon="12.17799604198448"><ele>459.8</ele><time>2026-03-29T08:36:57Z</time></trkpt><trkpt lat="43.22597025747314" lon="12.177892865567253"><ele>460.4</ele><time>2026-03-29T08:36:58Z</time></trkpt><trkpt lat="43.225970624645285" lon="12.177776791024984"><ele>461.0</ele><time>2026-03-29T08:36:59Z</time></trkpt><trkpt lat="43.22595842712705" lon="12.177655339435956"><ele>461.0</ele><time>2026-03-29T08:37:00Z</time></trkpt><trkpt lat="43.22594537590316" lon="12.177518346986938"><ele>461.0</ele><time>2026-03-29T08:37:01Z</time></trkpt><trkpt lat="43.22593476946122" lon="12.177379591725447"><ele>461.0</ele><time>2026-03-29T08:37:02Z</time></trkpt><trkpt lat="43.225923216233085" lon="12.177238552848639"><ele>461.0</ele><time>2026-03-29T08:37:03Z</time></trkpt><trkpt lat="43.22592527954899" lon="12.177074022752436"><ele>461.0</ele><time>2026-03-29T08:37:04Z</time></trkpt><trkpt lat="43.22593430597425" lon="12.176917257329631"><ele>461.8</ele><time>2026-03-29T08:37:05Z</time></trkpt><trkpt lat="43.22593965135922" lon="12.176770804259636"><ele>462.6</ele><time>2026-03-29T08:37:06Z</time></trkpt><trkpt lat="43.225955111205785" lon="12.17665432984383"><ele>463.4</ele><time>2026-03-29T08:37:07Z</time></trkpt><trkpt lat="43.226002384693246" lon="12.176579334422778"><ele>464.2</ele><time>2026-03-29T08:37:08Z</time></trkpt><trkpt lat="43.22610118134813" lon="12.17642546028851"><ele>465.0</ele><time>2026-03-29T08:37:10Z</time></trkpt><trkpt lat="43.22613835397884" lon="12.176343009202215"><ele>466.6</ele><time>2026-03-29T08:37:11Z</time></trkpt><trkpt lat="43.2261855506115" lon="12.176261479941212"><ele>468.2</ele><time>2026-03-29T08:37:12Z</time></trkpt><trkpt lat="43.22618308932989" lon="12.176135516153375"><ele>469.79999999999995</ele><time>2026-03-29T08:37:13Z</time></trkpt><trkpt lat="43.226219803939905" lon="12.17600224619691"><ele>471.4</ele><time>2026-03-29T08:37:15Z</time></trkpt><trkpt lat="43.22622570433381" lon="12.175880310660006"><ele>473.0</ele><time>2026-03-29T08:37:17Z</time></trkpt><trkpt lat="43.22624085989255" lon="12.175702291420402"><ele>475.16666666666663</ele><time>2026-03-29T08:37:19Z</time></trkpt><trkpt lat="43.22626482357789" lon="12.17560374109442"><ele>477.3333333333333</ele><time>2026-03-29T08:37:20Z</time></trkpt><trkpt lat="43.2262926144369" lon="12.175516105248919"><ele>479.5</ele><time>2026-03-29T08:37:21Z</time></trkpt><trkpt lat="43.22630857352703" lon="12.175375144996526"><ele>481.66666666666663</ele><time>2026-03-29T08:37:23Z</time></trkpt><trkpt lat="43.226286977678" lon="12.175272629439599"><ele>483.8333333333333</ele><time>2026-03-29T08:37:25Z</time></trkpt><trkpt lat="43.22631376315441" lon="12.175177065905018"><ele>486.0</ele><time>2026-03-29T08:37:31Z</time></trkpt><trkpt lat="43.22632762906781" lon="12.175091772782766"><ele>486.0</ele><time>2026-03-29T08:37:34Z</time></trkpt><trkpt lat="43.226272770149606" lon="12.175007280396642"><ele>486.0</ele><time>2026-03-29T08:37:37Z</time></trkpt><trkpt lat="43.226235467680105" lon="12.174917224938671"><ele>486.0</ele><time>2026-03-29T08:37:39Z</time></trkpt><trkpt lat="43.22620495037193" lon="12.174810173236361"><ele>486.0</ele><time>2026-03-29T08:37:42Z</time></trkpt><trkpt lat="43.22615986267414" lon="12.174722924122136"><ele>486.0</ele><time>2026-03-29T08:37:43Z</time></trkpt><trkpt lat="43.226118641944105" lon="12.174649389272892"><ele>486.0</ele><time>2026-03-29T08:37:44Z</time></trkpt><trkpt lat="43.2260474081269" lon="12.174516994499847"><ele>488.0</ele><time>2026-03-29T08:37:46Z</time></trkpt><trkpt lat="43.22601426309267" lon="12.174394701031039"><ele>490.0</ele><time>2026-03-29T08:37:48Z</time></trkpt><trkpt lat="43.226073027275774" lon="12.174332344006551"><ele>492.0</ele><time>2026-03-29T08:37:50Z</time></trkpt><trkpt lat="43.22616042455649" lon="12.174285569127388"><ele>494.0</ele><time>2026-03-29T08:37:52Z</time></trkpt><trkpt lat="43.22624413379705" lon="12.174241006169186"><ele>496.0</ele><time>2026-03-29T08:37:54Z</time></trkpt><trkpt lat="43.2263027960434" lon="12.17419942125363"><ele>498.0</ele><time>2026-03-29T08:37:56Z</time></trkpt><trkpt lat="43.226394169247946" lon="12.174179725939911"><ele>498.0</ele><time>2026-03-29T08:37:59Z</time></trkpt><trkpt lat="43.22644934368244" lon="12.174125610917354"><ele>497.99999999999994</ele><time>2026-03-29T08:38:01Z</time></trkpt><trkpt lat="43.22654242635254" lon="12.174085791877392"><ele>497.99999999999994</ele><time>2026-03-29T08:38:03Z</time></trkpt><trkpt lat="43.22665343229152" lon="12.174064453689155"><ele>498.0</ele><time>2026-03-29T08:38:05Z</time></trkpt><trkpt lat="43.22674855714504" lon="12.174002705609583"><ele>498.0</ele><time>2026-03-29T08:38:07Z</time></trkpt><trkpt lat="43.22685809131493" lon="12.17397776673339"><ele>502.1666666666667</ele><time>2026-03-29T08:38:09Z</time></trkpt><trkpt lat="43.226973714333226" lon="12.17394719180963"><ele>506.33333333333337</ele><time>2026-03-29T08:38:11Z</time></trkpt><trkpt lat="43.22701941955841" lon="12.173887715792892"><ele>510.5</ele><time>2026-03-29T08:38:12Z</time></trkpt><trkpt lat="43.22703110761005" lon="12.17378976218802"><ele>514.6666666666667</ele><time>2026-03-29T08:38:14Z</time></trkpt><trkpt lat="43.22696873129085" lon="12.173807005653233"><ele>518.8333333333334</ele><time>2026-03-29T08:38:16Z</time></trkpt><trkpt lat="43.226923248401256" lon="12.173727043531812"><ele>523.0</ele><time>2026-03-29T08:38:18Z</time></trkpt><trkpt lat="43.226902051516596" lon="12.173626428114584"><ele>523.0</ele><time>2026-03-29T08:38:19Z</time></trkpt><trkpt lat="43.22685742320205" lon="12.17356198227821"><ele>523.0</ele><time>2026-03-29T08:38:20Z</time></trkpt><trkpt lat="43.22680062969687" lon="12.173457154404394"><ele>523.0</ele><time>2026-03-29T08:38:22Z</time></trkpt><trkpt lat="43.22677598271857" lon="12.17329284644165"><ele>523.0</ele><time>2026-03-29T08:38:24Z</time></trkpt><trkpt lat="43.22682354144596" lon="12.173164683085718"><ele>523.0</ele><time>2026-03-29T08:38:26Z</time></trkpt><trkpt lat="43.22693224187699" lon="12.173113942787392"><ele>526.0</ele><time>2026-03-29T08:38:28Z</time></trkpt><trkpt lat="43.22700195494224" lon="12.17303290675452"><ele>529.0</ele><time>2026-03-29T08:38:30Z</time></trkpt><trkpt lat="43.22693043487817" lon="12.172958972856714"><ele>532.0</ele><time>2026-03-29T08:38:32Z</time></trkpt><trkpt lat="43.226952044014006" lon="12.172672317480174"><ele>535.0</ele><time>2026-03-29T08:38:35Z</time></trkpt><trkpt lat="43.226960049723985" lon="12.172585157474668"><ele>535.0</ele><time>2026-03-29T08:38:36Z</time></trkpt><trkpt lat="43.226975834768076" lon="12.17249533311701"><ele>535.0</ele><time>2026-03-29T08:38:37Z</time></trkpt><trkpt lat="43.22700175423647" lon="12.172365593172493"><ele>535.0</ele><time>2026-03-29T08:38:39Z</time></trkpt><trkpt lat="43.22701506584071" lon="12.172243400811597"><ele>535.0</ele><time>2026-03-29T08:38:41Z</time></trkpt><trkpt lat="43.227030827979625" lon="12.172140823597955"><ele>535.0</ele><time>2026-03-29T08:38:43Z</time></trkpt><trkpt lat="43.226998797877854" lon="12.172002771487715"><ele>535.0</ele><time>2026-03-29T08:38:45Z</time></trkpt><trkpt lat="43.226950739750926" lon="12.17187480051466"><ele>538.75</ele><time>2026-03-29T08:38:47Z</time></trkpt><trkpt lat="43.22686923380053" lon="12.17175564344315"><ele>542.5</ele><time>2026-03-29T08:38:49Z</time></trkpt><trkpt lat="43.22669202038449" lon="12.171642520552778"><ele>546.25</ele><time>2026-03-29T08:38:51Z</time></trkpt><trkpt lat="43.22668463655672" lon="12.171536608154376"><ele>550.0</ele><time>2026-03-29T08:38:53Z</time></trkpt><trkpt lat="43.22676530896596" lon="12.171438990510373"><ele>552.5</ele><time>2026-03-29T08:38:55Z</time></trkpt><trkpt lat="43.226894401706105" lon="12.17141110665844"><ele>555.0</ele><time>2026-03-29T08:38:57Z</time></trkpt><trkpt lat="43.227004294648346" lon="12.171429495662398"><ele>557.5</ele><time>2026-03-29T08:38:58Z</time></trkpt><trkpt lat="43.22711405731935" lon="12.171370824237384"><ele>560.0</ele><time>2026-03-29T08:39:00Z</time></trkpt><trkpt lat="43.22709994748962" lon="12.171221325733049"><ele>560.0</ele><time>2026-03-29T08:39:02Z</time></trkpt><trkpt lat="43.227044477248135" lon="12.171145056556155"><ele>560.0</ele><time>2026-03-29T08:39:03Z</time></trkpt><trkpt lat="43.226990935057486" lon="12.171076430346453"><ele>560.0</ele><time>2026-03-29T08:39:04Z</time></trkpt><trkpt lat="43.226941224001074" lon="12.171019482787731"><ele>560.0</ele><time>2026-03-29T08:39:05Z</time></trkpt><trkpt lat="43.22687772822409" lon="12.170975625311717"><ele>560.0</ele><time>2026-03-29T08:39:06Z</time></trkpt><trkpt lat="43.22681305287733" lon="12.170930169068653"><ele>560.0</ele><time>2026-03-29T08:39:07Z</time></trkpt><trkpt lat="43.226783250685564" lon="12.17076633413533"><ele>561.0</ele><time>2026-03-29T08:39:09Z</time></trkpt><trkpt lat="43.22680076869486" lon="12.170659494689218"><ele>562.0</ele><time>2026-03-29T08:39:10Z</time></trkpt><trkpt lat="43.22680743440642" lon="12.170506518615442"><ele>563.0</ele><time>2026-03-29T08:39:12Z</time></trkpt><trkpt lat="43.22692684357966" lon="12.170500204413964"><ele>564.0</ele><time>2026-03-29T08:39:14Z</time></trkpt><trkpt lat="43.22700878112516" lon="12.170562078529711"><ele>565.0</ele><time>2026-03-29T08:39:15Z</time></trkpt><trkpt lat="43.22709729330291" lon="12.17061602191172"><ele>565.0</ele><time>2026-03-29T08:39:16Z</time></trkpt><trkpt lat="43.22720203189477" lon="12.170663570222215"><ele>565.0</ele><time>2026-03-29T08:39:17Z</time></trkpt><trkpt lat="43.22730457856364" lon="12.170688900393813"><ele>565.0</ele><time>2026-03-29T08:39:18Z</time></trkpt><trkpt lat="43.22738173370404" lon="12.17069927093515"><ele>565.0</ele><time>2026-03-29T08:39:19Z</time></trkpt><trkpt lat="43.22746427318427" lon="12.170654905947996"><ele>565.0</ele><time>2026-03-29T08:39:21Z</time></trkpt><trkpt lat="43.227539720118315" lon="12.170703813834646"><ele>566.25</ele><time>2026-03-29T08:39:25Z</time></trkpt><trkpt lat="43.2277613554374" lon="12.170790810249418"><ele>567.5</ele><time>2026-03-29T08:39:27Z</time></trkpt><trkpt lat="43.227874949165276" lon="12.170863756551677"><ele>568.75</ele><time>2026-03-29T08:39:29Z</time></trkpt><trkpt lat="43.22793999355738" lon="12.170879384630172"><ele>570.0</ele><time>2026-03-29T08:39:30Z</time></trkpt><trkpt lat="43.22801302046905" lon="12.170865857353515"><ele>570.0</ele><time>2026-03-29T08:39:31Z</time></trkpt><trkpt lat="43.22809769029961" lon="12.170825823507068"><ele>570.0</ele><time>2026-03-29T08:39:32Z</time></trkpt><trkpt lat="43.22818816864681" lon="12.170791557927803"><ele>570.0</ele><time>2026-03-29T08:39:33Z</time></trkpt><trkpt lat="43.22825645753286" lon="12.170776084802448"><ele>570.0</ele><time>2026-03-29T08:39:34Z</time></trkpt><trkpt lat="43.22832063399681" lon="12.170837904900901"><ele>570.0</ele><time>2026-03-29T08:39:35Z</time></trkpt><trkpt lat="43.22838901289656" lon="12.170917158873161"><ele>570.0</ele><time>2026-03-29T08:39:36Z</time></trkpt><trkpt lat="43.22845933639149" lon="12.171016784905115"><ele>570.4</ele><time>2026-03-29T08:39:37Z</time></trkpt><trkpt lat="43.22849508225887" lon="12.17110202864008"><ele>570.8</ele><time>2026-03-29T08:39:38Z</time></trkpt><trkpt lat="43.22857326517401" lon="12.17117537021574"><ele>571.2</ele><time>2026-03-29T08:39:40Z</time></trkpt><trkpt lat="43.22864118063712" lon="12.171202520269855"><ele>571.6</ele><time>2026-03-29T08:39:41Z</time></trkpt><trkpt lat="43.228749494827504" lon="12.171245723708294"><ele>572.0</ele><time>2026-03-29T08:39:42Z</time></trkpt><trkpt lat="43.22883876949884" lon="12.171310134017357"><ele>572.0</ele><time>2026-03-29T08:39:43Z</time></trkpt><trkpt lat="43.22892619588904" lon="12.171367377044756"><ele>572.0</ele><time>2026-03-29T08:39:44Z</time></trkpt><trkpt lat="43.22899699651652" lon="12.171406136096802"><ele>572.0</ele><time>2026-03-29T08:39:45Z</time></trkpt><trkpt lat="43.22907365968155" lon="12.171428848001687"><ele>572.0</ele><time>2026-03-29T08:39:46Z</time></trkpt><trkpt lat="43.22916878825554" lon="12.171467602528605"><ele>572.0</ele><time>2026-03-29T08:39:47Z</time></trkpt><trkpt lat="43.229256611426784" lon="12.171551165769875"><ele>569.2</ele><time>2026-03-29T08:39:48Z</time></trkpt><trkpt lat="43.22935701243415" lon="12.171658386843099"><ele>566.4000000000001</ele><time>2026-03-29T08:39:49Z</time></trkpt><trkpt lat="43.22944663327279" lon="12.171741735080044"><ele>563.5999999999999</ele><time>2026-03-29T08:39:50Z</time></trkpt><trkpt lat="43.22951580229426" lon="12.171825449268079"><ele>560.8</ele><time>2026-03-29T08:39:51Z</time></trkpt><trkpt lat="43.229578667680464" lon="12.171901912569494"><ele>558.0</ele><time>2026-03-29T08:39:52Z</time></trkpt><trkpt lat="43.22964859315818" lon="12.171994353581454"><ele>558.0</ele><time>2026-03-29T08:39:53Z</time></trkpt><trkpt lat="43.229714013259006" lon="12.172045844685728"><ele>558.0</ele><time>2026-03-29T08:39:54Z</time></trkpt><trkpt lat="43.22981172832755" lon="12.172065454466003"><ele>558.0</ele><time>2026-03-29T08:39:55Z</time></trkpt><trkpt lat="43.229918706839165" lon="12.172099748764353"><ele>558.0</ele><time>2026-03-29T08:39:56Z</time></trkpt><trkpt lat="43.23001268136647" lon="12.172133073342243"><ele>558.0</ele><time>2026-03-29T08:39:57Z</time></trkpt><trkpt lat="43.23011086109676" lon="12.172145470948797"><ele>559.1666666666666</ele><time>2026-03-29T08:39:58Z</time></trkpt><trkpt lat="43.23018609581099" lon="12.172162943298828"><ele>560.3333333333334</ele><time>2026-03-29T08:39:59Z</time></trkpt><trkpt lat="43.23026822693002" lon="12.172134644778284"><ele>561.5</ele><time>2026-03-29T08:40:00Z</time></trkpt><trkpt lat="43.23034613728662" lon="12.172080878970753"><ele>562.6666666666667</ele><time>2026-03-29T08:40:01Z</time></trkpt><trkpt lat="43.230431404272814" lon="12.172024852907755"><ele>563.8333333333334</ele><time>2026-03-29T08:40:02Z</time></trkpt><trkpt lat="43.23051967637065" lon="12.171981086504829"><ele>565.0</ele><time>2026-03-29T08:40:03Z</time></trkpt><trkpt lat="43.230607461678986" lon="12.171924777293516"><ele>563.5</ele><time>2026-03-29T08:40:04Z</time></trkpt><trkpt lat="43.23067444495152" lon="12.171857510824866"><ele>562.0</ele><time>2026-03-29T08:40:05Z</time></trkpt><trkpt lat="43.230741180959" lon="12.171784972525947"><ele>560.5</ele><time>2026-03-29T08:40:06Z</time></trkpt><trkpt lat="43.23078910888641" lon="12.17169851720327"><ele>559.0</ele><time>2026-03-29T08:40:07Z</time></trkpt><trkpt lat="43.23082006198231" lon="12.171601542547926"><ele>557.5</ele><time>2026-03-29T08:40:08Z</time></trkpt><trkpt lat="43.230855681212205" lon="12.171509543854983"><ele>556.0</ele><time>2026-03-29T08:40:09Z</time></trkpt><trkpt lat="43.23087465053843" lon="12.171388319075598"><ele>556.0</ele><time>2026-03-29T08:40:10Z</time></trkpt><trkpt lat="43.23093001472946" lon="12.171280286325091"><ele>556.0</ele><time>2026-03-29T08:40:11Z</time></trkpt><trkpt lat="43.23098107062083" lon="12.171183006387245"><ele>556.0</ele><time>2026-03-29T08:40:12Z</time></trkpt><trkpt lat="43.231017932976194" lon="12.171098386781093"><ele>556.0</ele><time>2026-03-29T08:40:13Z</time></trkpt><trkpt lat="43.231044154820715" lon="12.171000908311248"><ele>556.0</ele><time>2026-03-29T08:40:14Z</time></trkpt><trkpt lat="43.23107262429742" lon="12.170908831687807"><ele>556.0</ele><time>2026-03-29T08:40:15Z</time></trkpt><trkpt lat="43.231154221732574" lon="12.170785959032399"><ele>556.0</ele><time>2026-03-29T08:40:17Z</time></trkpt><trkpt lat="43.23121838379829" lon="12.170767807310392"><ele>556.0</ele><time>2026-03-29T08:40:18Z</time></trkpt><trkpt lat="43.231372482257704" lon="12.170675833958402"><ele>556.0</ele><time>2026-03-29T08:40:20Z</time></trkpt><trkpt lat="43.23143268922479" lon="12.17056643888249"><ele>556.0</ele><time>2026-03-29T08:40:21Z</time></trkpt><trkpt lat="43.23145990433061" lon="12.170467185452393"><ele>556.0</ele><time>2026-03-29T08:40:22Z</time></trkpt><trkpt lat="43.23146988368581" lon="12.170372808694351"><ele>556.8333333333334</ele><time>2026-03-29T08:40:23Z</time></trkpt><trkpt lat="43.23149186022998" lon="12.170277879013147"><ele>557.6666666666667</ele><time>2026-03-29T08:40:24Z</time></trkpt><trkpt lat="43.231523968633844" lon="12.170203458022579"><ele>558.5</ele><time>2026-03-29T08:40:25Z</time></trkpt><trkpt lat="43.231614535747504" lon="12.170172554210128"><ele>559.3333333333334</ele><time>2026-03-29T08:40:26Z</time></trkpt><trkpt lat="43.231713291385574" lon="12.170104910585904"><ele>560.1666666666666</ele><time>2026-03-29T08:40:27Z</time></trkpt><trkpt lat="43.23181665023832" lon="12.170060890579807"><ele>561.0</ele><time>2026-03-29T08:40:28Z</time></trkpt><trkpt lat="43.231923549652485" lon="12.170036585136987"><ele>561.0</ele><time>2026-03-29T08:40:29Z</time></trkpt><trkpt lat="43.23200858207332" lon="12.169967437691417"><ele>561.0</ele><time>2026-03-29T08:40:30Z</time></trkpt><trkpt lat="43.232097154523956" lon="12.169916600130751"><ele>561.0</ele><time>2026-03-29T08:40:31Z</time></trkpt><trkpt lat="43.23218282797223" lon="12.169867222731376"><ele>561.0</ele><time>2026-03-29T08:40:32Z</time></trkpt><trkpt lat="43.232261823664345" lon="12.169801994004212"><ele>561.0</ele><time>2026-03-29T08:40:33Z</time></trkpt><trkpt lat="43.2323287557774" lon="12.169689531041357"><ele>562.2</ele><time>2026-03-29T08:40:34Z</time></trkpt><trkpt lat="43.232390505495786" lon="12.169572146514179"><ele>563.4000000000001</ele><time>2026-03-29T08:40:35Z</time></trkpt><trkpt lat="43.232450882049385" lon="12.169458892102488"><ele>564.6</ele><time>2026-03-29T08:40:36Z</time></trkpt><trkpt lat="43.232498992430564" lon="12.169372313306768"><ele>565.8000000000001</ele><time>2026-03-29T08:40:37Z</time></trkpt><trkpt lat="43.232557393418425" lon="12.169292182691118"><ele>567.0</ele><time>2026-03-29T08:40:38Z</time></trkpt><trkpt lat="43.23263112665445" lon="12.16921845840999"><ele>567.0</ele><time>2026-03-29T08:40:39Z</time></trkpt><trkpt lat="43.232697719799276" lon="12.169144832254725"><ele>567.0</ele><time>2026-03-29T08:40:40Z</time></trkpt><trkpt lat="43.2327778143103" lon="12.169066780037385"><ele>567.0</ele><time>2026-03-29T08:40:41Z</time></trkpt><trkpt lat="43.232848343478175" lon="12.168968399072789"><ele>567.0</ele><time>2026-03-29T08:40:42Z</time></trkpt><trkpt lat="43.23292958519027" lon="12.168868297578657"><ele>567.0</ele><time>2026-03-29T08:40:43Z</time></trkpt><trkpt lat="43.233033320441315" lon="12.168799098289805"><ele>568.8000000000001</ele><time>2026-03-29T08:40:44Z</time></trkpt><trkpt lat="43.23313118978266" lon="12.168737683735502"><ele>570.6</ele><time>2026-03-29T08:40:45Z</time></trkpt><trkpt lat="43.23322528384388" lon="12.168720313818604"><ele>572.4000000000001</ele><time>2026-03-29T08:40:46Z</time></trkpt><trkpt lat="43.23331715219902" lon="12.168715055700403"><ele>574.2</ele><time>2026-03-29T08:40:47Z</time></trkpt><trkpt lat="43.23342572730484" lon="12.168741279689453"><ele>576.0</ele><time>2026-03-29T08:40:48Z</time></trkpt><trkpt lat="43.23352348229332" lon="12.168755567820481"><ele>576.0</ele><time>2026-03-29T08:40:49Z</time></trkpt><trkpt lat="43.23359542304898" lon="12.168764448909702"><ele>576.0</ele><time>2026-03-29T08:40:50Z</time></trkpt><trkpt lat="43.23364939384007" lon="12.168663365170874"><ele>576.0</ele><time>2026-03-29T08:40:52Z</time></trkpt><trkpt lat="43.233578328178446" lon="12.168583001294602"><ele>576.0</ele><time>2026-03-29T08:40:54Z</time></trkpt><trkpt lat="43.2335026941663" lon="12.168551735698403"><ele>576.0</ele><time>2026-03-29T08:40:55Z</time></trkpt><trkpt lat="43.23347277097078" lon="12.168467391915438"><ele>576.0</ele><time>2026-03-29T08:40:58Z</time></trkpt><trkpt lat="43.23353598184745" lon="12.168303343897701"><ele>576.0</ele><time>2026-03-29T08:41:00Z</time></trkpt><trkpt lat="43.23355543454489" lon="12.168194377585861"><ele>576.0</ele><time>2026-03-29T08:41:01Z</time></trkpt><trkpt lat="43.23358755576702" lon="12.168074423942818"><ele>576.0</ele><time>2026-03-29T08:41:02Z</time></trkpt><trkpt lat="43.23358767489465" lon="12.167958182319037"><ele>576.0</ele><time>2026-03-29T08:41:03Z</time></trkpt><trkpt lat="43.23356158440635" lon="12.16784380921159"><ele>576.0</ele><time>2026-03-29T08:41:04Z</time></trkpt><trkpt lat="43.233537997558756" lon="12.167734423300983"><ele>576.0</ele><time>2026-03-29T08:41:05Z</time></trkpt><trkpt lat="43.23351304866329" lon="12.167592560852759"><ele>577.0</ele><time>2026-03-29T08:41:06Z</time></trkpt><trkpt lat="43.233473357830896" lon="12.167438679005926"><ele>578.0</ele><time>2026-03-29T08:41:07Z</time></trkpt><trkpt lat="43.23347233697312" lon="12.167328845034156"><ele>579.0</ele><time>2026-03-29T08:41:08Z</time></trkpt><trkpt lat="43.23346472903871" lon="12.167202596607721"><ele>580.0</ele><time>2026-03-29T08:41:09Z</time></trkpt><trkpt lat="43.23346680016132" lon="12.167074556888453"><ele>581.0</ele><time>2026-03-29T08:41:10Z</time></trkpt><trkpt lat="43.233534168618625" lon="12.166967522485576"><ele>581.3333333333333</ele><time>2026-03-29T08:41:11Z</time></trkpt><trkpt lat="43.23353378398569" lon="12.166848018507412"><ele>581.6666666666666</ele><time>2026-03-29T08:41:12Z</time></trkpt><trkpt lat="43.233539241159114" lon="12.16675861680531"><ele>582.0</ele><time>2026-03-29T08:41:13Z</time></trkpt><trkpt lat="43.233534639486635" lon="12.16661304104407"><ele>582.3333333333334</ele><time>2026-03-29T08:41:15Z</time></trkpt><trkpt lat="43.23360920047173" lon="12.166518963818445"><ele>582.6666666666667</ele><time>2026-03-29T08:41:17Z</time></trkpt><trkpt lat="43.233679247682495" lon="12.166515538697055"><ele>583.0</ele><time>2026-03-29T08:41:18Z</time></trkpt><trkpt lat="43.23378888171998" lon="12.166556019348493"><ele>583.0</ele><time>2026-03-29T08:41:19Z</time></trkpt><trkpt lat="43.23390607173017" lon="12.16655316932412"><ele>583.0</ele><time>2026-03-29T08:41:21Z</time></trkpt><trkpt lat="43.233990480980324" lon="12.166522834263219"><ele>583.0</ele><time>2026-03-29T08:41:22Z</time></trkpt><trkpt lat="43.234120138794744" lon="12.166471263851138"><ele>583.0</ele><time>2026-03-29T08:41:23Z</time></trkpt><trkpt lat="43.234179503592905" lon="12.16639327022752"><ele>583.0</ele><time>2026-03-29T08:41:24Z</time></trkpt><trkpt lat="43.23425739234736" lon="12.166336693691427"><ele>582.5</ele><time>2026-03-29T08:41:25Z</time></trkpt><trkpt lat="43.234336527210786" lon="12.166301672465831"><ele>582.0</ele><time>2026-03-29T08:41:26Z</time></trkpt><trkpt lat="43.23442222362694" lon="12.166317826708287"><ele>581.5</ele><time>2026-03-29T08:41:28Z</time></trkpt><trkpt lat="43.234502150419" lon="12.16637827939754"><ele>581.0</ele><time>2026-03-29T08:41:30Z</time></trkpt><trkpt lat="43.23457519579007" lon="12.166394206283908"><ele>580.5</ele><time>2026-03-29T08:41:31Z</time></trkpt><trkpt lat="43.234648483037866" lon="12.166395335983754"><ele>580.0</ele><time>2026-03-29T08:41:32Z</time></trkpt><trkpt lat="43.23472467787382" lon="12.166415319269802"><ele>581.4</ele><time>2026-03-29T08:41:33Z</time></trkpt><trkpt lat="43.23484101635119" lon="12.166458754264449"><ele>582.8</ele><time>2026-03-29T08:41:35Z</time></trkpt><trkpt lat="43.23491214525656" lon="12.166478023319323"><ele>584.2</ele><time>2026-03-29T08:41:36Z</time></trkpt><trkpt lat="43.234991740093115" lon="12.166514479013717"><ele>585.6</ele><time>2026-03-29T08:41:37Z</time></trkpt><trkpt lat="43.23507681726279" lon="12.166590560546114"><ele>587.0</ele><time>2026-03-29T08:41:38Z</time></trkpt><trkpt lat="43.23514680215528" lon="12.166619484514134"><ele>583.1666666666666</ele><time>2026-03-29T08:41:39Z</time></trkpt><trkpt lat="43.23521871784486" lon="12.16668094316728"><ele>579.3333333333333</ele><time>2026-03-29T08:41:40Z</time></trkpt><trkpt lat="43.2352775570781" lon="12.16675901122921"><ele>575.5</ele><time>2026-03-29T08:41:41Z</time></trkpt><trkpt lat="43.235333576325424" lon="12.16683480273991"><ele>571.6666666666666</ele><time>2026-03-29T08:41:42Z</time></trkpt><trkpt lat="43.23539038275445" lon="12.166909597633865"><ele>567.8333333333334</ele><time>2026-03-29T08:41:43Z</time></trkpt><trkpt lat="43.235448359754564" lon="12.166973225825904"><ele>564.0</ele><time>2026-03-29T08:41:44Z</time></trkpt><trkpt lat="43.235515025894856" lon="12.167028551175283"><ele>564.8</ele><time>2026-03-29T08:41:45Z</time></trkpt><trkpt lat="43.23564247424315" lon="12.167115036142377"><ele>565.5999999999999</ele><time>2026-03-29T08:41:47Z</time></trkpt><trkpt lat="43.23571440747139" lon="12.167201343618817"><ele>566.4</ele><time>2026-03-29T08:41:48Z</time></trkpt><trkpt lat="43.23575888813996" lon="12.167277911480348"><ele>567.1999999999999</ele><time>2026-03-29T08:41:49Z</time></trkpt><trkpt lat="43.23582566043822" lon="12.167387065272317"><ele>568.0</ele><time>2026-03-29T08:41:51Z</time></trkpt><trkpt lat="43.235915624322864" lon="12.16744266260016"><ele>568.0</ele><time>2026-03-29T08:41:53Z</time></trkpt><trkpt lat="43.23596682477955" lon="12.167381517590064"><ele>568.0</ele><time>2026-03-29T08:41:54Z</time></trkpt><trkpt lat="43.23601336019584" lon="12.167313524797091"><ele>568.0</ele><time>2026-03-29T08:41:55Z</time></trkpt><trkpt lat="43.23607298118918" lon="12.167218669405324"><ele>568.0</ele><time>2026-03-29T08:41:56Z</time></trkpt><trkpt lat="43.236115939857655" lon="12.16712665127929"><ele>568.0</ele><time>2026-03-29T08:41:57Z</time></trkpt><trkpt lat="43.23615665965973" lon="12.167043868996949"><ele>568.0</ele><time>2026-03-29T08:41:58Z</time></trkpt><trkpt lat="43.23618175682629" lon="12.166927419349605"><ele>568.0</ele><time>2026-03-29T08:41:59Z</time></trkpt><trkpt lat="43.23626061990325" lon="12.166850785128913"><ele>568.0</ele><time>2026-03-29T08:42:00Z</time></trkpt><trkpt lat="43.23633602480545" lon="12.166751381619676"><ele>568.0</ele><time>2026-03-29T08:42:02Z</time></trkpt><trkpt lat="43.23639888853055" lon="12.166801137851499"><ele>568.0</ele><time>2026-03-29T08:42:05Z</time></trkpt><trkpt lat="43.23647414306243" lon="12.166813260792082"><ele>568.0</ele><time>2026-03-29T08:42:07Z</time></trkpt><trkpt lat="43.23654555916122" lon="12.166879221410747"><ele>568.0</ele><time>2026-03-29T08:42:09Z</time></trkpt><trkpt lat="43.236957171662795" lon="12.167089428630433"><ele>565.0</ele><time>2026-03-29T08:42:11Z</time></trkpt><trkpt lat="43.23701594871514" lon="12.16712476613927"><ele>562.0</ele><time>2026-03-29T08:42:12Z</time></trkpt><trkpt lat="43.23712464594853" lon="12.167119327284626"><ele>559.0</ele><time>2026-03-29T08:42:14Z</time></trkpt><trkpt lat="43.23725348729074" lon="12.167120877416039"><ele>556.0</ele><time>2026-03-29T08:42:16Z</time></trkpt><trkpt lat="43.237336744009056" lon="12.167121369798984"><ele>553.0</ele><time>2026-03-29T08:42:17Z</time></trkpt><trkpt lat="43.2374193086269" lon="12.167117876323001"><ele>551.6666666666667</ele><time>2026-03-29T08:42:18Z</time></trkpt><trkpt lat="43.23749822116623" lon="12.167079075522997"><ele>550.3333333333334</ele><time>2026-03-29T08:42:19Z</time></trkpt><trkpt lat="43.237569774569096" lon="12.16706780105288"><ele>549.0</ele><time>2026-03-29T08:42:20Z</time></trkpt><trkpt lat="43.237650928267946" lon="12.167064910895068"><ele>547.6666666666666</ele><time>2026-03-29T08:42:21Z</time></trkpt><trkpt lat="43.237739196250594" lon="12.167081944358857"><ele>546.3333333333333</ele><time>2026-03-29T08:42:22Z</time></trkpt><trkpt lat="43.237827787077" lon="12.167100266890428"><ele>545.0</ele><time>2026-03-29T08:42:23Z</time></trkpt><trkpt lat="43.23791374864401" lon="12.167116924940903"><ele>545.0</ele><time>2026-03-29T08:42:24Z</time></trkpt><trkpt lat="43.23799918693666" lon="12.167132951209558"><ele>545.0</ele><time>2026-03-29T08:42:25Z</time></trkpt><trkpt lat="43.23809418938613" lon="12.167122511841297"><ele>545.0</ele><time>2026-03-29T08:42:26Z</time></trkpt><trkpt lat="43.23819054510377" lon="12.167105165383068"><ele>545.0</ele><time>2026-03-29T08:42:27Z</time></trkpt><trkpt lat="43.238296683307794" lon="12.167063276286962"><ele>545.0</ele><time>2026-03-29T08:42:28Z</time></trkpt><trkpt lat="43.23837804311372" lon="12.16702493564253"><ele>541.6</ele><time>2026-03-29T08:42:29Z</time></trkpt><trkpt lat="43.23848017634458" lon="12.167016999256502"><ele>538.2</ele><time>2026-03-29T08:42:30Z</time></trkpt><trkpt lat="43.23860942949864" lon="12.167087723473172"><ele>534.8</ele><time>2026-03-29T08:42:31Z</time></trkpt><trkpt lat="43.23868783051717" lon="12.167118308927932"><ele>531.4</ele><time>2026-03-29T08:42:32Z</time></trkpt><trkpt lat="43.23873106905654" lon="12.167034854752176"><ele>528.0</ele><time>2026-03-29T08:42:38Z</time></trkpt><trkpt lat="43.238787856568344" lon="12.166960115578396"><ele>528.0</ele><time>2026-03-29T08:42:42Z</time></trkpt><trkpt lat="43.23878599503138" lon="12.166821320366596"><ele>528.0</ele><time>2026-03-29T08:42:44Z</time></trkpt><trkpt lat="43.238761040335675" lon="12.166733590020288"><ele>528.0</ele><time>2026-03-29T08:42:47Z</time></trkpt><trkpt lat="43.238779039009586" lon="12.166646701426675"><ele>528.0</ele><time>2026-03-29T08:42:48Z</time></trkpt><trkpt lat="43.23875768125485" lon="12.166523568096496"><ele>528.0</ele><time>2026-03-29T08:42:49Z</time></trkpt><trkpt lat="43.23870054262276" lon="12.166269295522898"><ele>529.3333333333334</ele><time>2026-03-29T08:42:50Z</time></trkpt><trkpt lat="43.238598470235225" lon="12.165994880295107"><ele>530.6666666666667</ele><time>2026-03-29T08:42:51Z</time></trkpt><trkpt lat="43.238467842715934" lon="12.165766812600689"><ele>532.0</ele><time>2026-03-29T08:42:52Z</time></trkpt><trkpt lat="43.238403035928535" lon="12.165568736626346"><ele>532.25</ele><time>2026-03-29T08:42:53Z</time></trkpt><trkpt lat="43.23836912945825" lon="12.165387884456427"><ele>532.5</ele><time>2026-03-29T08:42:54Z</time></trkpt><trkpt lat="43.23836959585327" lon="12.16518586917331"><ele>532.75</ele><time>2026-03-29T08:42:55Z</time></trkpt><trkpt lat="43.238378424911836" lon="12.165008284866495"><ele>533.0</ele><time>2026-03-29T08:42:56Z</time></trkpt><trkpt lat="43.23831647787252" lon="12.16487416882206"><ele>532.6666666666666</ele><time>2026-03-29T08:42:57Z</time></trkpt><trkpt lat="43.23825067498162" lon="12.164707245094936"><ele>532.3333333333334</ele><time>2026-03-29T08:42:58Z</time></trkpt><trkpt lat="43.238214436281325" lon="12.164455650302965"><ele>532.0</ele><time>2026-03-29T08:42:59Z</time></trkpt><trkpt lat="43.23816468665148" lon="12.164239722767155"><ele>531.3333333333334</ele><time>2026-03-29T08:43:00Z</time></trkpt><trkpt lat="43.23821117513784" lon="12.1639922975085"><ele>530.6666666666666</ele><time>2026-03-29T08:43:01Z</time></trkpt><trkpt lat="43.238156887101056" lon="12.163837548317165"><ele>530.0</ele><time>2026-03-29T08:43:02Z</time></trkpt><trkpt lat="43.238055827972495" lon="12.163571004006917"><ele>534.5</ele><time>2026-03-29T08:43:03Z</time></trkpt><trkpt lat="43.237915955924414" lon="12.163393193304062"><ele>539.0</ele><time>2026-03-29T08:43:04Z</time></trkpt><trkpt lat="43.23776101389812" lon="12.163314229856189"><ele>543.5</ele><time>2026-03-29T08:43:05Z</time></trkpt><trkpt lat="43.23770050820319" lon="12.163224009774222"><ele>548.0</ele><time>2026-03-29T08:43:06Z</time></trkpt><trkpt lat="43.237654890934486" lon="12.163068253271332"><ele>548.0</ele><time>2026-03-29T08:43:07Z</time></trkpt><trkpt lat="43.23755742947835" lon="12.16290000200297"><ele>548.0</ele><time>2026-03-29T08:43:08Z</time></trkpt><trkpt lat="43.23749280127568" lon="12.162760669159377"><ele>548.0</ele><time>2026-03-29T08:43:09Z</time></trkpt><trkpt lat="43.237403695848705" lon="12.16263692786044"><ele>548.0</ele><time>2026-03-29T08:43:10Z</time></trkpt><trkpt lat="43.23730687044905" lon="12.162524325229787"><ele>552.4</ele><time>2026-03-29T08:43:11Z</time></trkpt><trkpt lat="43.23722688456779" lon="12.162454041387013"><ele>556.8</ele><time>2026-03-29T08:43:12Z</time></trkpt><trkpt lat="43.237143086918536" lon="12.162397214728877"><ele>561.2</ele><time>2026-03-29T08:43:14Z</time></trkpt><trkpt lat="43.23710382121192" lon="12.162295263882623"><ele>565.6</ele><time>2026-03-29T08:43:15Z</time></trkpt><trkpt lat="43.237050823734776" lon="12.162173634171396"><ele>570.0</ele><time>2026-03-29T08:43:16Z</time></trkpt><trkpt lat="43.236989302591304" lon="12.16200581732067"><ele>570.0</ele><time>2026-03-29T08:43:17Z</time></trkpt><trkpt lat="43.236953001808146" lon="12.161886500173894"><ele>570.0</ele><time>2026-03-29T08:43:18Z</time></trkpt><trkpt lat="43.23689619093006" lon="12.161838595488506"><ele>570.0</ele><time>2026-03-29T08:43:19Z</time></trkpt><trkpt lat="43.236759739289596" lon="12.161720614877558"><ele>570.0</ele><time>2026-03-29T08:43:20Z</time></trkpt><trkpt lat="43.236619007742846" lon="12.161675950414743"><ele>570.0</ele><time>2026-03-29T08:43:21Z</time></trkpt><trkpt lat="43.23653296381064" lon="12.161660654593343"><ele>570.0</ele><time>2026-03-29T08:43:22Z</time></trkpt><trkpt lat="43.236448201803185" lon="12.161632882175482"><ele>570.0</ele><time>2026-03-29T08:43:23Z</time></trkpt><trkpt lat="43.236378925502706" lon="12.16155008770063"><ele>570.0</ele><time>2026-03-29T08:43:24Z</time></trkpt><trkpt lat="43.23636825185312" lon="12.161458588821747"><ele>570.0</ele><time>2026-03-29T08:43:25Z</time></trkpt><trkpt lat="43.23643702047134" lon="12.161340371143385"><ele>570.0</ele><time>2026-03-29T08:43:26Z</time></trkpt><trkpt lat="43.23649634492998" lon="12.161166037994585"><ele>568.75</ele><time>2026-03-29T08:43:27Z</time></trkpt><trkpt lat="43.236542027961924" lon="12.161032872531704"><ele>567.5</ele><time>2026-03-29T08:43:28Z</time></trkpt><trkpt lat="43.236577013214344" lon="12.160854514020489"><ele>566.25</ele><time>2026-03-29T08:43:29Z</time></trkpt><trkpt lat="43.23656169741231" lon="12.160646906292225"><ele>565.0</ele><time>2026-03-29T08:43:30Z</time></trkpt><trkpt lat="43.23653588117689" lon="12.160461512364874"><ele>564.4</ele><time>2026-03-29T08:43:31Z</time></trkpt><trkpt lat="43.236513674831194" lon="12.160262698510824"><ele>563.8</ele><time>2026-03-29T08:43:32Z</time></trkpt><trkpt lat="43.236476856094576" lon="12.160071693784776"><ele>563.2</ele><time>2026-03-29T08:43:33Z</time></trkpt><trkpt lat="43.236448634879814" lon="12.159951792569062"><ele>562.6</ele><time>2026-03-29T08:43:34Z</time></trkpt><trkpt lat="43.23640986855206" lon="12.159880822025524"><ele>562.0</ele><time>2026-03-29T08:43:35Z</time></trkpt><trkpt lat="43.236339389755045" lon="12.15980808420598"><ele>563.8000000000001</ele><time>2026-03-29T08:43:37Z</time></trkpt><trkpt lat="43.23630227505646" lon="12.159728786552776"><ele>565.6</ele><time>2026-03-29T08:43:39Z</time></trkpt><trkpt lat="43.23625615530277" lon="12.159638328892214"><ele>567.4000000000001</ele><time>2026-03-29T08:43:41Z</time></trkpt><trkpt lat="43.23623160786635" lon="12.159543564686023"><ele>569.2</ele><time>2026-03-29T08:43:43Z</time></trkpt><trkpt lat="43.23625350707893" lon="12.159312107425626"><ele>571.0</ele><time>2026-03-29T08:43:44Z</time></trkpt><trkpt lat="43.23627825098264" lon="12.159197029444398"><ele>571.0</ele><time>2026-03-29T08:43:45Z</time></trkpt><trkpt lat="43.236342542031785" lon="12.159097519038523"><ele>571.0</ele><time>2026-03-29T08:43:46Z</time></trkpt><trkpt lat="43.23639841082299" lon="12.159007214135947"><ele>571.0</ele><time>2026-03-29T08:43:47Z</time></trkpt><trkpt lat="43.23644536557824" lon="12.158923420096011"><ele>571.0</ele><time>2026-03-29T08:43:48Z</time></trkpt><trkpt lat="43.23647843331806" lon="12.158844552280176"><ele>571.0</ele><time>2026-03-29T08:43:49Z</time></trkpt><trkpt lat="43.23655707526671" lon="12.158773023386733"><ele>571.0</ele><time>2026-03-29T08:43:51Z</time></trkpt><trkpt lat="43.23665771552909" lon="12.158777934340854"><ele>566.0</ele><time>2026-03-29T08:43:53Z</time></trkpt><trkpt lat="43.23677849234154" lon="12.158800157948628"><ele>561.0</ele><time>2026-03-29T08:43:55Z</time></trkpt><trkpt lat="43.23684801848658" lon="12.158791204575737"><ele>556.0</ele><time>2026-03-29T08:43:57Z</time></trkpt><trkpt lat="43.23692304716458" lon="12.158772746139508"><ele>551.0</ele><time>2026-03-29T08:43:58Z</time></trkpt><trkpt lat="43.236984556198934" lon="12.158736245919652"><ele>546.0</ele><time>2026-03-29T08:43:59Z</time></trkpt><trkpt lat="43.237063695863434" lon="12.158699145458227"><ele>541.0</ele><time>2026-03-29T08:44:00Z</time></trkpt><trkpt lat="43.237119490457914" lon="12.158644692402122"><ele>541.0</ele><time>2026-03-29T08:44:01Z</time></trkpt><trkpt lat="43.23717549848201" lon="12.158583049022187"><ele>541.0</ele><time>2026-03-29T08:44:02Z</time></trkpt><trkpt lat="43.23722061888331" lon="12.158510645155001"><ele>541.0</ele><time>2026-03-29T08:44:03Z</time></trkpt><trkpt lat="43.23725935538102" lon="12.158350906916564"><ele>541.0</ele><time>2026-03-29T08:44:05Z</time></trkpt><trkpt lat="43.2373637027985" lon="12.158239786952826"><ele>541.0</ele><time>2026-03-29T08:44:07Z</time></trkpt><trkpt lat="43.237443486747345" lon="12.158165879957815"><ele>536.0</ele><time>2026-03-29T08:44:09Z</time></trkpt><trkpt lat="43.23745971808271" lon="12.158001098170176"><ele>531.0</ele><time>2026-03-29T08:44:11Z</time></trkpt><trkpt lat="43.237470252805345" lon="12.157890888287705"><ele>526.0</ele><time>2026-03-29T08:44:12Z</time></trkpt><trkpt lat="43.237480576091926" lon="12.157788941837156"><ele>521.0</ele><time>2026-03-29T08:44:13Z</time></trkpt><trkpt lat="43.23747859449708" lon="12.157697420496737"><ele>516.0</ele><time>2026-03-29T08:44:14Z</time></trkpt><trkpt lat="43.23747561520437" lon="12.157531756973901"><ele>516.0</ele><time>2026-03-29T08:44:16Z</time></trkpt><trkpt lat="43.23751664660252" lon="12.157436502109068"><ele>516.0</ele><time>2026-03-29T08:44:17Z</time></trkpt><trkpt lat="43.23755296760687" lon="12.157321554978195"><ele>516.0</ele><time>2026-03-29T08:44:18Z</time></trkpt><trkpt lat="43.237564997343014" lon="12.157224513758774"><ele>516.0</ele><time>2026-03-29T08:44:19Z</time></trkpt><trkpt lat="43.237560000543176" lon="12.157135540146687"><ele>516.0</ele><time>2026-03-29T08:44:20Z</time></trkpt><trkpt lat="43.23754379462012" lon="12.157038693559349"><ele>516.0</ele><time>2026-03-29T08:44:21Z</time></trkpt><trkpt lat="43.23753816230321" lon="12.156941380117887"><ele>512.5</ele><time>2026-03-29T08:44:22Z</time></trkpt><trkpt lat="43.23749135441398" lon="12.156807376710043"><ele>509.0</ele><time>2026-03-29T08:44:24Z</time></trkpt><trkpt lat="43.2374083200312" lon="12.156710852418911"><ele>505.5</ele><time>2026-03-29T08:44:26Z</time></trkpt><trkpt lat="43.23733363560232" lon="12.156613211303416"><ele>502.0</ele><time>2026-03-29T08:44:28Z</time></trkpt><trkpt lat="43.23742251459307" lon="12.156480691725395"><ele>499.1666666666667</ele><time>2026-03-29T08:44:30Z</time></trkpt><trkpt lat="43.23749284127241" lon="12.156394211903088"><ele>496.33333333333337</ele><time>2026-03-29T08:44:31Z</time></trkpt><trkpt lat="43.23755806162431" lon="12.15631935067393"><ele>493.5</ele><time>2026-03-29T08:44:32Z</time></trkpt><trkpt lat="43.23762411507918" lon="12.156258483648426"><ele>490.66666666666663</ele><time>2026-03-29T08:44:33Z</time></trkpt><trkpt lat="43.23768949160328" lon="12.156202775460061"><ele>487.8333333333333</ele><time>2026-03-29T08:44:34Z</time></trkpt><trkpt lat="43.237740932479205" lon="12.15613338650982"><ele>485.0</ele><time>2026-03-29T08:44:35Z</time></trkpt><trkpt lat="43.237782306313285" lon="12.15606219052053"><ele>485.0</ele><time>2026-03-29T08:44:36Z</time></trkpt><trkpt lat="43.23784123252031" lon="12.155962110590282"><ele>485.0</ele><time>2026-03-29T08:44:38Z</time></trkpt><trkpt lat="43.237860627809475" lon="12.155878297315542"><ele>485.0</ele><time>2026-03-29T08:44:41Z</time></trkpt><trkpt lat="43.23772386208728" lon="12.15583552969401"><ele>485.0</ele><time>2026-03-29T08:44:44Z</time></trkpt><trkpt lat="43.2376335868086" lon="12.155835622991448"><ele>485.0</ele><time>2026-03-29T08:44:45Z</time></trkpt><trkpt lat="43.23754092215896" lon="12.155804293825277"><ele>485.0</ele><time>2026-03-29T08:44:46Z</time></trkpt><trkpt lat="43.237444740676246" lon="12.15574249526704"><ele>485.0</ele><time>2026-03-29T08:44:47Z</time></trkpt><trkpt lat="43.2373434379432" lon="12.15570571612139"><ele>485.0</ele><time>2026-03-29T08:44:48Z</time></trkpt><trkpt lat="43.23724225625745" lon="12.155691088956369"><ele>485.0</ele><time>2026-03-29T08:44:49Z</time></trkpt><trkpt lat="43.23715766097772" lon="12.155688900284403"><ele>485.0</ele><time>2026-03-29T08:44:50Z</time></trkpt><trkpt lat="43.23707147115009" lon="12.155634808701967"><ele>483.99999999999994</ele><time>2026-03-29T08:44:51Z</time></trkpt><trkpt lat="43.23698364865181" lon="12.15554755233109"><ele>483.0</ele><time>2026-03-29T08:44:52Z</time></trkpt><trkpt lat="43.23692902015215" lon="12.155493703181657"><ele>482.0</ele><time>2026-03-29T08:44:53Z</time></trkpt><trkpt lat="43.23685970819156" lon="12.155483507408508"><ele>481.0</ele><time>2026-03-29T08:44:54Z</time></trkpt><trkpt lat="43.23673713107485" lon="12.155537947561632"><ele>479.99999999999994</ele><time>2026-03-29T08:44:56Z</time></trkpt><trkpt lat="43.23666975197668" lon="12.155545012208611"><ele>479.0</ele><time>2026-03-29T08:44:57Z</time></trkpt><trkpt lat="43.23658049684283" lon="12.155538108834488"><ele>479.0</ele><time>2026-03-29T08:44:58Z</time></trkpt><trkpt lat="43.236478405979135" lon="12.15548692095805"><ele>479.0</ele><time>2026-03-29T08:44:59Z</time></trkpt><trkpt lat="43.23639073403827" lon="12.15541084339566"><ele>479.0</ele><time>2026-03-29T08:45:00Z</time></trkpt><trkpt lat="43.23631434807" lon="12.15536912910294"><ele>479.0</ele><time>2026-03-29T08:45:01Z</time></trkpt><trkpt lat="43.23624904421189" lon="12.155382939646746"><ele>479.0</ele><time>2026-03-29T08:45:02Z</time></trkpt><trkpt lat="43.23613001043434" lon="12.155343485224407"><ele>482.57142857142856</ele><time>2026-03-29T08:45:04Z</time></trkpt><trkpt lat="43.236053322702396" lon="12.155322276246942"><ele>486.14285714285717</ele><time>2026-03-29T08:45:05Z</time></trkpt><trkpt lat="43.235991981643295" lon="12.155353833749368"><ele>489.7142857142857</ele><time>2026-03-29T08:45:07Z</time></trkpt><trkpt lat="43.235952394070516" lon="12.155277634942259"><ele>493.2857142857143</ele><time>2026-03-29T08:45:09Z</time></trkpt><trkpt lat="43.235903728394" lon="12.155194582208305"><ele>496.8571428571429</ele><time>2026-03-29T08:45:11Z</time></trkpt><trkpt lat="43.23586864806432" lon="12.155266595669787"><ele>500.42857142857144</ele><time>2026-03-29T08:45:14Z</time></trkpt><trkpt lat="43.23582290895106" lon="12.155330965517535"><ele>504.0</ele><time>2026-03-29T08:45:15Z</time></trkpt><trkpt lat="43.235738159573735" lon="12.155439676471527"><ele>504.0</ele><time>2026-03-29T08:45:17Z</time></trkpt><trkpt lat="43.23566106618811" lon="12.155557915559571"><ele>504.0</ele><time>2026-03-29T08:45:19Z</time></trkpt><trkpt lat="43.235601769642436" lon="12.155696149637583"><ele>504.0</ele><time>2026-03-29T08:45:21Z</time></trkpt><trkpt lat="43.23550982466204" lon="12.15579842288755"><ele>504.0</ele><time>2026-03-29T08:45:24Z</time></trkpt><trkpt lat="43.23544036980796" lon="12.155810401645796"><ele>504.0</ele><time>2026-03-29T08:45:27Z</time></trkpt><trkpt lat="43.235382578334935" lon="12.155721237434443"><ele>512.3333333333334</ele><time>2026-03-29T08:45:30Z</time></trkpt><trkpt lat="43.235416939102564" lon="12.155624619535647"><ele>520.6666666666666</ele><time>2026-03-29T08:45:32Z</time></trkpt><trkpt lat="43.235432538851114" lon="12.155497261158766"><ele>529.0</ele><time>2026-03-29T08:45:33Z</time></trkpt><trkpt lat="43.23543398914509" lon="12.15539852003306"><ele>537.3333333333333</ele><time>2026-03-29T08:45:34Z</time></trkpt><trkpt lat="43.2354509576139" lon="12.15529171448838"><ele>545.6666666666666</ele><time>2026-03-29T08:45:35Z</time></trkpt><trkpt lat="43.23543994253466" lon="12.155198800720974"><ele>554.0</ele><time>2026-03-29T08:45:36Z</time></trkpt><trkpt lat="43.23542196357424" lon="12.155087433223168"><ele>554.0</ele><time>2026-03-29T08:45:37Z</time></trkpt><trkpt lat="43.235403448700275" lon="12.15497300342183"><ele>554.0</ele><time>2026-03-29T08:45:38Z</time></trkpt><trkpt lat="43.23535089070618" lon="12.154879916661764"><ele>554.0</ele><time>2026-03-29T08:45:39Z</time></trkpt><trkpt lat="43.23530412740851" lon="12.1548021571038"><ele>554.0</ele><time>2026-03-29T08:45:40Z</time></trkpt><trkpt lat="43.2352469642724" lon="12.154751652484904"><ele>554.0</ele><time>2026-03-29T08:45:41Z</time></trkpt><trkpt lat="43.2351792631401" lon="12.154671362211857"><ele>554.0</ele><time>2026-03-29T08:45:42Z</time></trkpt><trkpt lat="43.2351347553639" lon="12.154594796390747"><ele>554.1666666666666</ele><time>2026-03-29T08:45:43Z</time></trkpt><trkpt lat="43.23509719026851" lon="12.154489961257426"><ele>554.3333333333333</ele><time>2026-03-29T08:45:44Z</time></trkpt><trkpt lat="43.2350591220395" lon="12.154383863472653"><ele>554.5</ele><time>2026-03-29T08:45:45Z</time></trkpt><trkpt lat="43.23499694118216" lon="12.154322586519218"><ele>554.6666666666666</ele><time>2026-03-29T08:45:46Z</time></trkpt><trkpt lat="43.23492751412213" lon="12.154299295497843"><ele>554.8333333333334</ele><time>2026-03-29T08:45:47Z</time></trkpt><trkpt lat="43.23485516840157" lon="12.154298437704291"><ele>555.0</ele><time>2026-03-29T08:45:48Z</time></trkpt><trkpt lat="43.234768212636276" lon="12.154294024881088"><ele>559.6666666666666</ele><time>2026-03-29T08:45:49Z</time></trkpt><trkpt lat="43.234681371566936" lon="12.154309535142838"><ele>564.3333333333334</ele><time>2026-03-29T08:45:50Z</time></trkpt><trkpt lat="43.234591115885706" lon="12.154333389431262"><ele>569.0</ele><time>2026-03-29T08:45:51Z</time></trkpt><trkpt lat="43.23452270027055" lon="12.154320381970312"><ele>573.6666666666667</ele><time>2026-03-29T08:45:52Z</time></trkpt><trkpt lat="43.23444709199177" lon="12.154268108031552"><ele>578.3333333333334</ele><time>2026-03-29T08:45:53Z</time></trkpt><trkpt lat="43.23439235871697" lon="12.154193526324029"><ele>583.0</ele><time>2026-03-29T08:45:54Z</time></trkpt><trkpt lat="43.23427066503645" lon="12.154139835807126"><ele>583.0</ele><time>2026-03-29T08:45:56Z</time></trkpt><trkpt lat="43.23420541119641" lon="12.154181924084542"><ele>583.0</ele><time>2026-03-29T08:45:57Z</time></trkpt><trkpt lat="43.23415632893104" lon="12.15425778268881"><ele>583.0</ele><time>2026-03-29T08:45:58Z</time></trkpt><trkpt lat="43.23413329245055" lon="12.154362338943713"><ele>583.0</ele><time>2026-03-29T08:45:59Z</time></trkpt><trkpt lat="43.23409062087413" lon="12.154466085370213"><ele>583.0</ele><time>2026-03-29T08:46:00Z</time></trkpt><trkpt lat="43.23407625087367" lon="12.154568389020836"><ele>583.0</ele><time>2026-03-29T08:46:01Z</time></trkpt><trkpt lat="43.234078956093434" lon="12.154696306679384"><ele>584.0</ele><time>2026-03-29T08:46:02Z</time></trkpt><trkpt lat="43.2341648224579" lon="12.154880316748839"><ele>585.0</ele><time>2026-03-29T08:46:04Z</time></trkpt><trkpt lat="43.23419805108901" lon="12.155009005013323"><ele>586.0</ele><time>2026-03-29T08:46:05Z</time></trkpt><trkpt lat="43.23419149659488" lon="12.1551378925868"><ele>587.0</ele><time>2026-03-29T08:46:06Z</time></trkpt><trkpt lat="43.23416543068128" lon="12.155243943317554"><ele>588.0</ele><time>2026-03-29T08:46:07Z</time></trkpt><trkpt lat="43.23403818931871" lon="12.15532031552198"><ele>592.5</ele><time>2026-03-29T08:46:09Z</time></trkpt><trkpt lat="43.23392419186572" lon="12.155339090384786"><ele>597.0</ele><time>2026-03-29T08:46:10Z</time></trkpt><trkpt lat="43.233827729906395" lon="12.155372554042367"><ele>601.5</ele><time>2026-03-29T08:46:11Z</time></trkpt><trkpt lat="43.23374917384865" lon="12.155355260368216"><ele>606.0</ele><time>2026-03-29T08:46:12Z</time></trkpt><trkpt lat="43.23367897483712" lon="12.155319669539026"><ele>610.5</ele><time>2026-03-29T08:46:14Z</time></trkpt><trkpt lat="43.23360782821964" lon="12.155273972675753"><ele>615.0</ele><time>2026-03-29T08:46:15Z</time></trkpt><trkpt lat="43.233550436339115" lon="12.15523316816229"><ele>615.0</ele><time>2026-03-29T08:46:16Z</time></trkpt><trkpt lat="43.23348568171264" lon="12.155207169798214"><ele>615.0</ele><time>2026-03-29T08:46:17Z</time></trkpt><trkpt lat="43.23340894015134" lon="12.155194171291743"><ele>615.0</ele><time>2026-03-29T08:46:18Z</time></trkpt><trkpt lat="43.23330794877205" lon="12.155255757420852"><ele>615.0</ele><time>2026-03-29T08:46:20Z</time></trkpt><trkpt lat="43.2332277474008" lon="12.155246480810161"><ele>615.0</ele><time>2026-03-29T08:46:21Z</time></trkpt><trkpt lat="43.233156892536165" lon="12.155191181804293"><ele>615.0</ele><time>2026-03-29T08:46:22Z</time></trkpt><trkpt lat="43.233088715115635" lon="12.155153003904886"><ele>620.25</ele><time>2026-03-29T08:46:23Z</time></trkpt><trkpt lat="43.23296476817247" lon="12.155153786808189"><ele>625.5</ele><time>2026-03-29T08:46:24Z</time></trkpt><trkpt lat="43.232832333198346" lon="12.155118293159784"><ele>630.75</ele><time>2026-03-29T08:46:25Z</time></trkpt><trkpt lat="43.232714109336314" lon="12.15506810052029"><ele>636.0</ele><time>2026-03-29T08:46:26Z</time></trkpt><trkpt lat="43.232574856357985" lon="12.155058948799013"><ele>636.0</ele><time>2026-03-29T08:46:27Z</time></trkpt><trkpt lat="43.23246121775434" lon="12.155032630851858"><ele>636.0</ele><time>2026-03-29T08:46:28Z</time></trkpt><trkpt lat="43.23234482497341" lon="12.155055964018077"><ele>636.0</ele><time>2026-03-29T08:46:29Z</time></trkpt><trkpt lat="43.232278256598825" lon="12.155092201234632"><ele>636.0</ele><time>2026-03-29T08:46:30Z</time></trkpt><trkpt lat="43.23222684646821" lon="12.155160964440876"><ele>636.0</ele><time>2026-03-29T08:46:31Z</time></trkpt><trkpt lat="43.23222962979803" lon="12.155324890992471"><ele>637.0</ele><time>2026-03-29T08:46:33Z</time></trkpt><trkpt lat="43.23226249196647" lon="12.15544754658552"><ele>638.0</ele><time>2026-03-29T08:46:34Z</time></trkpt><trkpt lat="43.232245359254534" lon="12.155610714342448"><ele>639.0</ele><time>2026-03-29T08:46:35Z</time></trkpt><trkpt lat="43.232232780515254" lon="12.155764264411221"><ele>640.0</ele><time>2026-03-29T08:46:36Z</time></trkpt><trkpt lat="43.23220561737763" lon="12.155875649551623"><ele>641.0</ele><time>2026-03-29T08:46:37Z</time></trkpt><trkpt lat="43.232147376562374" lon="12.15596893375387"><ele>641.0</ele><time>2026-03-29T08:46:38Z</time></trkpt><trkpt lat="43.2320268198499" lon="12.155992619895208"><ele>641.0</ele><time>2026-03-29T08:46:40Z</time></trkpt><trkpt lat="43.23195682540091" lon="12.155943089995679"><ele>641.0</ele><time>2026-03-29T08:46:41Z</time></trkpt><trkpt lat="43.231845275454816" lon="12.155902892311142"><ele>641.0</ele><time>2026-03-29T08:46:42Z</time></trkpt><trkpt lat="43.231718301891036" lon="12.155812801376014"><ele>641.0</ele><time>2026-03-29T08:46:43Z</time></trkpt><trkpt lat="43.231598098117715" lon="12.15574680153696"><ele>641.0</ele><time>2026-03-29T08:46:44Z</time></trkpt><trkpt lat="43.23145063321662" lon="12.155662272553547"><ele>641.0</ele><time>2026-03-29T08:46:45Z</time></trkpt><trkpt lat="43.23137036480582" lon="12.155620325872365"><ele>641.0</ele><time>2026-03-29T08:46:46Z</time></trkpt><trkpt lat="43.231286048266924" lon="12.155634234527785"><ele>642.6666666666666</ele><time>2026-03-29T08:46:47Z</time></trkpt><trkpt lat="43.231236620571494" lon="12.155699224233128"><ele>644.3333333333333</ele><time>2026-03-29T08:46:48Z</time></trkpt><trkpt lat="43.23120772143849" lon="12.155790691314975"><ele>646.0</ele><time>2026-03-29T08:46:49Z</time></trkpt><trkpt lat="43.231185958161596" lon="12.15587675516006"><ele>647.6666666666666</ele><time>2026-03-29T08:46:50Z</time></trkpt><trkpt lat="43.23116857035603" lon="12.155985195939188"><ele>649.3333333333334</ele><time>2026-03-29T08:46:51Z</time></trkpt><trkpt lat="43.231197540971806" lon="12.156121629828089"><ele>651.0</ele><time>2026-03-29T08:46:52Z</time></trkpt><trkpt lat="43.23117570726707" lon="12.156243501974123"><ele>651.0</ele><time>2026-03-29T08:46:53Z</time></trkpt><trkpt lat="43.23119218264884" lon="12.156442132734295"><ele>651.0</ele><time>2026-03-29T08:46:54Z</time></trkpt><trkpt lat="43.23119267627789" lon="12.15660504822836"><ele>651.0</ele><time>2026-03-29T08:46:55Z</time></trkpt><trkpt lat="43.23112430566968" lon="12.156749214873848"><ele>651.0</ele><time>2026-03-29T08:46:56Z</time></trkpt><trkpt lat="43.2310892737685" lon="12.156862775293906"><ele>650.5999999999999</ele><time>2026-03-29T08:46:57Z</time></trkpt><trkpt lat="43.231050137600704" lon="12.15694692534358"><ele>650.2</ele><time>2026-03-29T08:46:58Z</time></trkpt><trkpt lat="43.23102680234134" lon="12.157039492372878"><ele>649.8</ele><time>2026-03-29T08:46:59Z</time></trkpt><trkpt lat="43.230947209946265" lon="12.157182980628175"><ele>649.4000000000001</ele><time>2026-03-29T08:47:00Z</time></trkpt><trkpt lat="43.23087841848882" lon="12.1573472756378"><ele>649.0</ele><time>2026-03-29T08:47:01Z</time></trkpt><trkpt lat="43.23081835466201" lon="12.15751893941436"><ele>648.0</ele><time>2026-03-29T08:47:02Z</time></trkpt><trkpt lat="43.23068743229463" lon="12.15765912556905"><ele>647.0</ele><time>2026-03-29T08:47:03Z</time></trkpt><trkpt lat="43.23054314751068" lon="12.157764330051215"><ele>646.0</ele><time>2026-03-29T08:47:04Z</time></trkpt><trkpt lat="43.23044118295815" lon="12.157837960746429"><ele>645.0</ele><time>2026-03-29T08:47:05Z</time></trkpt><trkpt lat="43.23037208786584" lon="12.157868485450408"><ele>645.0</ele><time>2026-03-29T08:47:06Z</time></trkpt><trkpt lat="43.230315276371684" lon="12.157821937805844"><ele>645.0</ele><time>2026-03-29T08:47:07Z</time></trkpt><trkpt lat="43.23024589031013" lon="12.157782363136363"><ele>645.0</ele><time>2026-03-29T08:47:08Z</time></trkpt><trkpt lat="43.23018009255532" lon="12.157777712494626"><ele>645.0</ele><time>2026-03-29T08:47:09Z</time></trkpt><trkpt lat="43.23015877344552" lon="12.157628312404485"><ele>645.0</ele><time>2026-03-29T08:47:11Z</time></trkpt><trkpt lat="43.23012924423797" lon="12.15747519013173"><ele>645.0</ele><time>2026-03-29T08:47:13Z</time></trkpt><trkpt lat="43.23013050647102" lon="12.15737772901316"><ele>647.4</ele><time>2026-03-29T08:47:14Z</time></trkpt><trkpt lat="43.23018482612203" lon="12.157167467264186"><ele>649.8</ele><time>2026-03-29T08:47:15Z</time></trkpt><trkpt lat="43.23018985571766" lon="12.157057948714293"><ele>652.2</ele><time>2026-03-29T08:47:16Z</time></trkpt><trkpt lat="43.230169547256104" lon="12.156942655817465"><ele>654.6</ele><time>2026-03-29T08:47:17Z</time></trkpt><trkpt lat="43.23017691144366" lon="12.156821498091553"><ele>657.0</ele><time>2026-03-29T08:47:18Z</time></trkpt><trkpt lat="43.23018302769567" lon="12.156702297843657"><ele>657.0</ele><time>2026-03-29T08:47:19Z</time></trkpt><trkpt lat="43.23016767562264" lon="12.156602958409119"><ele>657.0</ele><time>2026-03-29T08:47:20Z</time></trkpt><trkpt lat="43.230166530588065" lon="12.15650190158397"><ele>657.0</ele><time>2026-03-29T08:47:21Z</time></trkpt><trkpt lat="43.230183368027774" lon="12.15639717773305"><ele>657.0</ele><time>2026-03-29T08:47:22Z</time></trkpt><trkpt lat="43.23022600561801" lon="12.156281216221755"><ele>657.0</ele><time>2026-03-29T08:47:23Z</time></trkpt><trkpt lat="43.2302562081647" lon="12.156143417589554"><ele>657.0</ele><time>2026-03-29T08:47:24Z</time></trkpt><trkpt lat="43.230273274644034" lon="12.155998096426103"><ele>656.75</ele><time>2026-03-29T08:47:25Z</time></trkpt><trkpt lat="43.23029182775984" lon="12.15583279758736"><ele>656.5</ele><time>2026-03-29T08:47:26Z</time></trkpt><trkpt lat="43.23031136362432" lon="12.155670605108497"><ele>656.25</ele><time>2026-03-29T08:47:27Z</time></trkpt><trkpt lat="43.23033737506015" lon="12.155521289202847"><ele>656.0</ele><time>2026-03-29T08:47:28Z</time></trkpt><trkpt lat="43.2303666974923" lon="12.155362683307056"><ele>656.5999999999999</ele><time>2026-03-29T08:47:29Z</time></trkpt><trkpt lat="43.230391133091494" lon="12.155219418658463"><ele>657.2</ele><time>2026-03-29T08:47:30Z</time></trkpt><trkpt lat="43.23041233984928" lon="12.155089461186048"><ele>657.8</ele><time>2026-03-29T08:47:31Z</time></trkpt><trkpt lat="43.230425129713716" lon="12.154985182061106"><ele>658.4000000000001</ele><time>2026-03-29T08:47:32Z</time></trkpt><trkpt lat="43.23049462365655" lon="12.154852708316842"><ele>659.0</ele><time>2026-03-29T08:47:34Z</time></trkpt><trkpt lat="43.23058597672279" lon="12.154832312805882"><ele>660.0</ele><time>2026-03-29T08:47:35Z</time></trkpt><trkpt lat="43.23069839855646" lon="12.154801237808357"><ele>661.0</ele><time>2026-03-29T08:47:36Z</time></trkpt><trkpt lat="43.23079182788833" lon="12.154778766512548"><ele>662.0</ele><time>2026-03-29T08:47:37Z</time></trkpt><trkpt lat="43.230884564757744" lon="12.154775595949847"><ele>663.0</ele><time>2026-03-29T08:47:38Z</time></trkpt><trkpt lat="43.23100673191603" lon="12.154807392149458"><ele>664.0</ele><time>2026-03-29T08:47:39Z</time></trkpt><trkpt lat="43.2311286898139" lon="12.154841601003529"><ele>664.0</ele><time>2026-03-29T08:47:40Z</time></trkpt><trkpt lat="43.23122893723382" lon="12.154861172197299"><ele>664.0</ele><time>2026-03-29T08:47:41Z</time></trkpt><trkpt lat="43.23132946622599" lon="12.154876139162324"><ele>664.0</ele><time>2026-03-29T08:47:42Z</time></trkpt><trkpt lat="43.23142762877541" lon="12.154875254679506"><ele>664.0</ele><time>2026-03-29T08:47:43Z</time></trkpt><trkpt lat="43.2315033085253" lon="12.15483240469372"><ele>664.0</ele><time>2026-03-29T08:47:44Z</time></trkpt><trkpt lat="43.231562658812535" lon="12.154778004541772"><ele>662.6666666666667</ele><time>2026-03-29T08:47:45Z</time></trkpt><trkpt lat="43.231615899009206" lon="12.154707793250317"><ele>661.3333333333334</ele><time>2026-03-29T08:47:46Z</time></trkpt><trkpt lat="43.23164500460412" lon="12.15459805426878"><ele>660.0</ele><time>2026-03-29T08:47:47Z</time></trkpt><trkpt lat="43.23167984899001" lon="12.154453007079256"><ele>658.6666666666666</ele><time>2026-03-29T08:47:48Z</time></trkpt><trkpt lat="43.23171215477543" lon="12.154365919898208"><ele>657.3333333333333</ele><time>2026-03-29T08:47:49Z</time></trkpt><trkpt lat="43.231805665152564" lon="12.154301882955915"><ele>656.0</ele><time>2026-03-29T08:47:51Z</time></trkpt><trkpt lat="43.23185559222778" lon="12.154237305389987"><ele>656.0</ele><time>2026-03-29T08:47:53Z</time></trkpt><trkpt lat="43.23178640959391" lon="12.154127143522473"><ele>656.0</ele><time>2026-03-29T08:47:55Z</time></trkpt><trkpt lat="43.231749543956184" lon="12.153971545659976"><ele>656.0</ele><time>2026-03-29T08:47:57Z</time></trkpt><trkpt lat="43.23176867392425" lon="12.15382256081781"><ele>656.0</ele><time>2026-03-29T08:47:59Z</time></trkpt><trkpt lat="43.231758469054" lon="12.153725826057876"><ele>656.0</ele><time>2026-03-29T08:48:00Z</time></trkpt><trkpt lat="43.231739204048445" lon="12.153632082869613"><ele>655.6666666666666</ele><time>2026-03-29T08:48:01Z</time></trkpt><trkpt lat="43.231713409713294" lon="12.15351621251556"><ele>655.3333333333333</ele><time>2026-03-29T08:48:02Z</time></trkpt><trkpt lat="43.231684178631355" lon="12.15338575798115"><ele>655.0</ele><time>2026-03-29T08:48:03Z</time></trkpt><trkpt lat="43.231651773515374" lon="12.153284972902807"><ele>654.6666666666666</ele><time>2026-03-29T08:48:04Z</time></trkpt><trkpt lat="43.231635454465525" lon="12.153184978312417"><ele>654.3333333333334</ele><time>2026-03-29T08:48:05Z</time></trkpt><trkpt lat="43.231622560761096" lon="12.153099163952897"><ele>654.0</ele><time>2026-03-29T08:48:06Z</time></trkpt><trkpt lat="43.23167090980484" lon="12.152957256619047"><ele>654.0</ele><time>2026-03-29T08:48:08Z</time></trkpt><trkpt lat="43.23170421278282" lon="12.15287284272269"><ele>654.0</ele><time>2026-03-29T08:48:09Z</time></trkpt><trkpt lat="43.23173711540565" lon="12.152771909788555"><ele>654.0</ele><time>2026-03-29T08:48:10Z</time></trkpt><trkpt lat="43.23176152990377" lon="12.152642346898606"><ele>654.0</ele><time>2026-03-29T08:48:12Z</time></trkpt><trkpt lat="43.231860788247786" lon="12.152537606189238"><ele>654.0</ele><time>2026-03-29T08:48:14Z</time></trkpt><trkpt lat="43.23194886687004" lon="12.152562498859949"><ele>654.0</ele><time>2026-03-29T08:48:15Z</time></trkpt><trkpt lat="43.23204220211248" lon="12.152493332790756"><ele>654.0</ele><time>2026-03-29T08:48:17Z</time></trkpt><trkpt lat="43.23209117094329" lon="12.152426027268396"><ele>654.0</ele><time>2026-03-29T08:48:18Z</time></trkpt><trkpt lat="43.23216528954247" lon="12.152347145455547"><ele>654.0</ele><time>2026-03-29T08:48:19Z</time></trkpt><trkpt lat="43.2322399444972" lon="12.152251249144369"><ele>654.0</ele><time>2026-03-29T08:48:20Z</time></trkpt><trkpt lat="43.23231270146352" lon="12.152181629344506"><ele>651.6666666666666</ele><time>2026-03-29T08:48:21Z</time></trkpt><trkpt lat="43.23237756969182" lon="12.152104473891654"><ele>649.3333333333334</ele><time>2026-03-29T08:48:22Z</time></trkpt><trkpt lat="43.23243349142402" lon="12.152030656698866"><ele>647.0</ele><time>2026-03-29T08:48:23Z</time></trkpt><trkpt lat="43.232467097919276" lon="12.151943471975262"><ele>644.6666666666667</ele><time>2026-03-29T08:48:24Z</time></trkpt><trkpt lat="43.23249048341933" lon="12.151845949584306"><ele>642.3333333333334</ele><time>2026-03-29T08:48:25Z</time></trkpt><trkpt lat="43.23249552794012" lon="12.151720532194505"><ele>640.0</ele><time>2026-03-29T08:48:26Z</time></trkpt><trkpt lat="43.23248499444688" lon="12.15159417192119"><ele>641.0</ele><time>2026-03-29T08:48:27Z</time></trkpt><trkpt lat="43.23246506288688" lon="12.15145786868279"><ele>642.0</ele><time>2026-03-29T08:48:28Z</time></trkpt><trkpt lat="43.232435625762385" lon="12.151363099208336"><ele>643.0</ele><time>2026-03-29T08:48:29Z</time></trkpt><trkpt lat="43.232375006741215" lon="12.15124589843011"><ele>644.0</ele><time>2026-03-29T08:48:31Z</time></trkpt><trkpt lat="43.23239855547487" lon="12.151131345830962"><ele>645.0</ele><time>2026-03-29T08:48:33Z</time></trkpt><trkpt lat="43.232455915949615" lon="12.151090826344898"><ele>646.0</ele><time>2026-03-29T08:48:34Z</time></trkpt><trkpt lat="43.232596320578075" lon="12.151013931781687"><ele>646.0</ele><time>2026-03-29T08:48:36Z</time></trkpt><trkpt lat="43.232660911935675" lon="12.150913030340183"><ele>646.0</ele><time>2026-03-29T08:48:38Z</time></trkpt><trkpt lat="43.232738945312285" lon="12.150788269210182"><ele>646.0</ele><time>2026-03-29T08:48:40Z</time></trkpt><trkpt lat="43.23285748601028" lon="12.150708531933846"><ele>646.0</ele><time>2026-03-29T08:48:42Z</time></trkpt><trkpt lat="43.23292246402149" lon="12.150727300434855"><ele>646.0</ele><time>2026-03-29T08:48:43Z</time></trkpt><trkpt lat="43.23300788572617" lon="12.150736584553124"><ele>647.0</ele><time>2026-03-29T08:48:44Z</time></trkpt><trkpt lat="43.233069429188525" lon="12.150695476436214"><ele>648.0</ele><time>2026-03-29T08:48:45Z</time></trkpt><trkpt lat="43.23309792011843" lon="12.150599558356067"><ele>649.0</ele><time>2026-03-29T08:48:46Z</time></trkpt><trkpt lat="43.23310322556498" lon="12.15049439562458"><ele>650.0</ele><time>2026-03-29T08:48:47Z</time></trkpt><trkpt lat="43.23314371662083" lon="12.150376606753362"><ele>651.0</ele><time>2026-03-29T08:48:48Z</time></trkpt><trkpt lat="43.23323231051645" lon="12.150265444634867"><ele>652.0</ele><time>2026-03-29T08:48:49Z</time></trkpt><trkpt lat="43.233339067849904" lon="12.150181507001392"><ele>647.0</ele><time>2026-03-29T08:48:50Z</time></trkpt><trkpt lat="43.2334515174126" lon="12.150106247828015"><ele>642.0</ele><time>2026-03-29T08:48:51Z</time></trkpt><trkpt lat="43.23354252502245" lon="12.15003033836511"><ele>637.0</ele><time>2026-03-29T08:48:52Z</time></trkpt><trkpt lat="43.233598791541375" lon="12.149952373645798"><ele>632.0</ele><time>2026-03-29T08:48:53Z</time></trkpt><trkpt lat="43.233641372113645" lon="12.14986424597389"><ele>627.0</ele><time>2026-03-29T08:48:54Z</time></trkpt><trkpt lat="43.233669177361115" lon="12.149782785241499"><ele>626.2</ele><time>2026-03-29T08:48:55Z</time></trkpt><trkpt lat="43.233702881319275" lon="12.149709762417208"><ele>625.4000000000001</ele><time>2026-03-29T08:48:56Z</time></trkpt><trkpt lat="43.23378009961033" lon="12.14964984323323"><ele>624.5999999999999</ele><time>2026-03-29T08:48:57Z</time></trkpt><trkpt lat="43.233867996636555" lon="12.149606172466761"><ele>623.8</ele><time>2026-03-29T08:48:58Z</time></trkpt><trkpt lat="43.233983857015666" lon="12.149593299736711"><ele>623.0</ele><time>2026-03-29T08:48:59Z</time></trkpt><trkpt lat="43.23411383097402" lon="12.14958134788148"><ele>620.4</ele><time>2026-03-29T08:49:00Z</time></trkpt><trkpt lat="43.23422730653487" lon="12.14956617533193"><ele>617.8</ele><time>2026-03-29T08:49:01Z</time></trkpt><trkpt lat="43.23432334858782" lon="12.149539583255251"><ele>615.2</ele><time>2026-03-29T08:49:02Z</time></trkpt><trkpt lat="43.23441477316866" lon="12.149528696372712"><ele>612.6</ele><time>2026-03-29T08:49:03Z</time></trkpt><trkpt lat="43.2344981690642" lon="12.149571682142177"><ele>610.0</ele><time>2026-03-29T08:49:04Z</time></trkpt><trkpt lat="43.23459244817013" lon="12.149629254696455"><ele>610.0</ele><time>2026-03-29T08:49:05Z</time></trkpt><trkpt lat="43.234693315345936" lon="12.149658322909035"><ele>610.0</ele><time>2026-03-29T08:49:06Z</time></trkpt><trkpt lat="43.23479290771718" lon="12.149656934618"><ele>610.0</ele><time>2026-03-29T08:49:07Z</time></trkpt><trkpt lat="43.23487988682527" lon="12.149676266274431"><ele>610.0</ele><time>2026-03-29T08:49:08Z</time></trkpt><trkpt lat="43.23496090211013" lon="12.149709238256397"><ele>610.0</ele><time>2026-03-29T08:49:09Z</time></trkpt><trkpt lat="43.23503037481449" lon="12.149765556372401"><ele>609.3333333333334</ele><time>2026-03-29T08:49:10Z</time></trkpt><trkpt lat="43.235086448674245" lon="12.149840357745997"><ele>608.6666666666667</ele><time>2026-03-29T08:49:11Z</time></trkpt><trkpt lat="43.235159681764564" lon="12.14992221896086"><ele>608.0</ele><time>2026-03-29T08:49:12Z</time></trkpt><trkpt lat="43.23523863530595" lon="12.149977920010597"><ele>607.3333333333334</ele><time>2026-03-29T08:49:13Z</time></trkpt><trkpt lat="43.2353291124109" lon="12.14998547439884"><ele>606.6666666666666</ele><time>2026-03-29T08:49:14Z</time></trkpt><trkpt lat="43.23539650105075" lon="12.14999353282614"><ele>606.0</ele><time>2026-03-29T08:49:15Z</time></trkpt><trkpt lat="43.23546070302538" lon="12.149974795980297"><ele>606.0</ele><time>2026-03-29T08:49:19Z</time></trkpt><trkpt lat="43.23550783621669" lon="12.150069536096636"><ele>606.0</ele><time>2026-03-29T08:49:21Z</time></trkpt><trkpt lat="43.235536675182" lon="12.149983992431993"><ele>606.0</ele><time>2026-03-29T08:49:29Z</time></trkpt><trkpt lat="43.23546890923975" lon="12.149951836768512"><ele>606.0</ele><time>2026-03-29T08:49:31Z</time></trkpt><trkpt lat="43.235443251408356" lon="12.150061191625719"><ele>606.0</ele><time>2026-03-29T08:49:35Z</time></trkpt><trkpt lat="43.23546815795886" lon="12.15019618760026"><ele>606.0</ele><time>2026-03-29T08:49:37Z</time></trkpt><trkpt lat="43.2355237246318" lon="12.150265847784132"><ele>606.0</ele><time>2026-03-29T08:49:38Z</time></trkpt><trkpt lat="43.23558655115869" lon="12.15030967895361"><ele>606.0</ele><time>2026-03-29T08:49:39Z</time></trkpt><trkpt lat="43.235677134560916" lon="12.150340474198355"><ele>606.0</ele><time>2026-03-29T08:49:41Z</time></trkpt><trkpt lat="43.23576933681374" lon="12.150338312460047"><ele>606.0</ele><time>2026-03-29T08:49:42Z</time></trkpt><trkpt lat="43.23585400179304" lon="12.150390152472873"><ele>606.0</ele><time>2026-03-29T08:49:43Z</time></trkpt><trkpt lat="43.23592527954555" lon="12.150459709329724"><ele>606.0</ele><time>2026-03-29T08:49:44Z</time></trkpt><trkpt lat="43.23599480121873" lon="12.150486941405893"><ele>602.0</ele><time>2026-03-29T08:49:45Z</time></trkpt><trkpt lat="43.23608733440425" lon="12.150403036285931"><ele>598.0</ele><time>2026-03-29T08:49:47Z</time></trkpt><trkpt lat="43.236138455759985" lon="12.150346632692406"><ele>594.0</ele><time>2026-03-29T08:49:48Z</time></trkpt><trkpt lat="43.23621031827319" lon="12.150353477672155"><ele>590.0</ele><time>2026-03-29T08:49:49Z</time></trkpt><trkpt lat="43.23630131703608" lon="12.15037474429396"><ele>586.0</ele><time>2026-03-29T08:49:50Z</time></trkpt><trkpt lat="43.23640067792013" lon="12.150367960361637"><ele>582.0</ele><time>2026-03-29T08:49:51Z</time></trkpt><trkpt lat="43.23648889186042" lon="12.15039490767616"><ele>577.2</ele><time>2026-03-29T08:49:52Z</time></trkpt><trkpt lat="43.236553000418965" lon="12.150430438222457"><ele>572.4000000000001</ele><time>2026-03-29T08:49:53Z</time></trkpt><trkpt lat="43.23661710416488" lon="12.150472576338167"><ele>567.5999999999999</ele><time>2026-03-29T08:49:54Z</time></trkpt><trkpt lat="43.23672819506837" lon="12.150522527858394"><ele>562.8</ele><time>2026-03-29T08:49:56Z</time></trkpt><trkpt lat="43.23685469817719" lon="12.150527475575318"><ele>558.0</ele><time>2026-03-29T08:49:58Z</time></trkpt><trkpt lat="43.236961086314466" lon="12.15047869169113"><ele>558.0</ele><time>2026-03-29T08:50:00Z</time></trkpt><trkpt lat="43.23706649684214" lon="12.150443222859938"><ele>558.0</ele><time>2026-03-29T08:50:02Z</time></trkpt><trkpt lat="43.23714962708029" lon="12.150435478363342"><ele>558.0</ele><time>2026-03-29T08:50:04Z</time></trkpt><trkpt lat="43.237235387124" lon="12.150403626237043"><ele>558.0</ele><time>2026-03-29T08:50:07Z</time></trkpt><trkpt lat="43.237334702463734" lon="12.150374519069729"><ele>558.0</ele><time>2026-03-29T08:50:10Z</time></trkpt><trkpt lat="43.237771647003505" lon="12.150370278421986"><ele>553.8333333333334</ele><time>2026-03-29T08:50:13Z</time></trkpt><trkpt lat="43.23784739315755" lon="12.150404647011284"><ele>549.6666666666666</ele><time>2026-03-29T08:50:14Z</time></trkpt><trkpt lat="43.237915155664005" lon="12.150407342610842"><ele>545.5</ele><time>2026-03-29T08:50:15Z</time></trkpt><trkpt lat="43.23798905706725" lon="12.150402473776658"><ele>541.3333333333333</ele><time>2026-03-29T08:50:16Z</time></trkpt><trkpt lat="43.23806958246267" lon="12.150398961710831"><ele>537.1666666666666</ele><time>2026-03-29T08:50:17Z</time></trkpt><trkpt lat="43.23815421170267" lon="12.150392048726241"><ele>533.0</ele><time>2026-03-29T08:50:18Z</time></trkpt><trkpt lat="43.23822930295472" lon="12.150388602914449"><ele>529.6</ele><time>2026-03-29T08:50:19Z</time></trkpt><trkpt lat="43.238348203811654" lon="12.150350679598908"><ele>526.1999999999999</ele><time>2026-03-29T08:50:21Z</time></trkpt><trkpt lat="43.2384570001741" lon="12.150323869333295"><ele>522.8</ele><time>2026-03-29T08:50:23Z</time></trkpt><trkpt lat="43.23852300745132" lon="12.150318122340543"><ele>519.4</ele><time>2026-03-29T08:50:24Z</time></trkpt><trkpt lat="43.238630302572204" lon="12.15030013155914"><ele>516.0</ele><time>2026-03-29T08:50:26Z</time></trkpt><trkpt lat="43.23873174531485" lon="12.15027166870839"><ele>516.0</ele><time>2026-03-29T08:50:28Z</time></trkpt><trkpt lat="43.23882810953202" lon="12.150222271893977"><ele>516.0</ele><time>2026-03-29T08:50:30Z</time></trkpt><trkpt lat="43.2389058861469" lon="12.150148094176757"><ele>516.0</ele><time>2026-03-29T08:50:32Z</time></trkpt><trkpt lat="43.2389575933719" lon="12.150064235607465"><ele>516.0</ele><time>2026-03-29T08:50:34Z</time></trkpt><trkpt lat="43.23897521266853" lon="12.14997594271259"><ele>516.0</ele><time>2026-03-29T08:50:36Z</time></trkpt><trkpt lat="43.23902585977048" lon="12.149890383455414"><ele>516.0</ele><time>2026-03-29T08:50:38Z</time></trkpt><trkpt lat="43.23910048272749" lon="12.149865025068003"><ele>510.25</ele><time>2026-03-29T08:50:40Z</time></trkpt><trkpt lat="43.23931918975341" lon="12.149754513912061"><ele>504.5</ele><time>2026-03-29T08:50:43Z</time></trkpt><trkpt lat="43.23940231623974" lon="12.149694394711924"><ele>498.75</ele><time>2026-03-29T08:50:44Z</time></trkpt><trkpt lat="43.23949251308022" lon="12.149625232774413"><ele>493.0</ele><time>2026-03-29T08:50:45Z</time></trkpt><trkpt lat="43.23957076316703" lon="12.14955982937037"><ele>493.0</ele><time>2026-03-29T08:50:46Z</time></trkpt><trkpt lat="43.23964400391782" lon="12.149483960332185"><ele>492.99999999999994</ele><time>2026-03-29T08:50:47Z</time></trkpt><trkpt lat="43.239718518924015" lon="12.149384906073774"><ele>492.99999999999994</ele><time>2026-03-29T08:50:48Z</time></trkpt><trkpt lat="43.239799438432215" lon="12.1492858491339"><ele>493.0</ele><time>2026-03-29T08:50:49Z</time></trkpt><trkpt lat="43.23988321013962" lon="12.149176801505606"><ele>493.0</ele><time>2026-03-29T08:50:50Z</time></trkpt><trkpt lat="43.23996505798015" lon="12.149068237767272"><ele>489.59999999999997</ele><time>2026-03-29T08:50:51Z</time></trkpt><trkpt lat="43.240043423549444" lon="12.14896404691168"><ele>486.19999999999993</ele><time>2026-03-29T08:50:52Z</time></trkpt><trkpt lat="43.24011437747302" lon="12.148870662640313"><ele>482.8</ele><time>2026-03-29T08:50:53Z</time></trkpt><trkpt lat="43.24016791281728" lon="12.148805123127959"><ele>479.4</ele><time>2026-03-29T08:50:54Z</time></trkpt><trkpt lat="43.240042256137414" lon="12.148748505402907"><ele>476.0</ele><time>2026-03-29T08:50:58Z</time></trkpt><trkpt lat="43.239934418412254" lon="12.148738705015976"><ele>476.0</ele><time>2026-03-29T08:50:59Z</time></trkpt><trkpt lat="43.2398093877026" lon="12.1487434597415"><ele>476.0</ele><time>2026-03-29T08:51:00Z</time></trkpt><trkpt lat="43.239700073454024" lon="12.14875130248041"><ele>476.0</ele><time>2026-03-29T08:51:01Z</time></trkpt><trkpt lat="43.23956790389975" lon="12.148735344778977"><ele>476.0</ele><time>2026-03-29T08:51:02Z</time></trkpt><trkpt lat="43.23950163415052" lon="12.148715402376439"><ele>476.0</ele><time>2026-03-29T08:51:03Z</time></trkpt><trkpt lat="43.239465760571974" lon="12.148630286601378"><ele>476.4</ele><time>2026-03-29T08:51:05Z</time></trkpt><trkpt lat="43.23946112402945" lon="12.14844602457231"><ele>476.8</ele><time>2026-03-29T08:51:07Z</time></trkpt><trkpt lat="43.23946711833264" lon="12.148304530662159"><ele>477.19999999999993</ele><time>2026-03-29T08:51:08Z</time></trkpt><trkpt lat="43.23946224327257" lon="12.148173030158864"><ele>477.59999999999997</ele><time>2026-03-29T08:51:09Z</time></trkpt><trkpt lat="43.23943111286952" lon="12.148061527551153"><ele>478.0</ele><time>2026-03-29T08:51:10Z</time></trkpt><trkpt lat="43.239384056596435" lon="12.147930565276488"><ele>475.4</ele><time>2026-03-29T08:51:12Z</time></trkpt><trkpt lat="43.23939362374597" lon="12.147745762221584"><ele>472.79999999999995</ele><time>2026-03-29T08:51:14Z</time></trkpt><trkpt lat="43.2393539320781" lon="12.147598351020177"><ele>470.2</ele><time>2026-03-29T08:51:16Z</time></trkpt><trkpt lat="43.23927846043372" lon="12.147608455013948"><ele>467.6</ele><time>2026-03-29T08:51:17Z</time></trkpt><trkpt lat="43.239211850652374" lon="12.147583665881774"><ele>465.0</ele><time>2026-03-29T08:51:18Z</time></trkpt><trkpt lat="43.23917806138458" lon="12.147500667279264"><ele>465.0</ele><time>2026-03-29T08:51:18.999Z</time></trkpt><trkpt lat="43.23912464955009" lon="12.147438429786398"><ele>465.0</ele><time>2026-03-29T08:51:19.999Z</time></trkpt><trkpt lat="43.23908727627612" lon="12.147355238234915"><ele>465.0</ele><time>2026-03-29T08:51:20.999Z</time></trkpt><trkpt lat="43.239076944302724" lon="12.147263963676515"><ele>465.0</ele><time>2026-03-29T08:51:21.999Z</time></trkpt><trkpt lat="43.23902983542209" lon="12.147192085230728"><ele>465.0</ele><time>2026-03-29T08:51:22.999Z</time></trkpt><trkpt lat="43.239009642073206" lon="12.147064834483363"><ele>465.0</ele><time>2026-03-29T08:51:24.999Z</time></trkpt><trkpt lat="43.23894915030851" lon="12.146897125026477"><ele>465.6666666666667</ele><time>2026-03-29T08:51:26.999Z</time></trkpt><trkpt lat="43.23891276438048" lon="12.14680832820861"><ele>466.33333333333337</ele><time>2026-03-29T08:51:27.999Z</time></trkpt><trkpt lat="43.23887916406043" lon="12.146720253454529"><ele>467.0</ele><time>2026-03-29T08:51:28.999Z</time></trkpt><trkpt lat="43.238843503786285" lon="12.146618109449877"><ele>467.6666666666667</ele><time>2026-03-29T08:51:29.999Z</time></trkpt><trkpt lat="43.23878524552227" lon="12.146517648213523"><ele>468.33333333333337</ele><time>2026-03-29T08:51:30.999Z</time></trkpt><trkpt lat="43.23875270091797" lon="12.14644029872446"><ele>469.0</ele><time>2026-03-29T08:51:31.999Z</time></trkpt><trkpt lat="43.238721938925345" lon="12.146256758677312"><ele>467.0</ele><time>2026-03-29T08:51:34Z</time></trkpt><trkpt lat="43.23866166644452" lon="12.146083108151963"><ele>465.0</ele><time>2026-03-29T08:51:36Z</time></trkpt><trkpt lat="43.238628329337665" lon="12.145970849784687"><ele>463.0</ele><time>2026-03-29T08:51:37Z</time></trkpt><trkpt lat="43.23860545593507" lon="12.145884546386323"><ele>461.0</ele><time>2026-03-29T08:51:38Z</time></trkpt><trkpt lat="43.238589692905165" lon="12.1457728753561"><ele>459.0</ele><time>2026-03-29T08:51:40Z</time></trkpt><trkpt lat="43.23850102342533" lon="12.14565213773211"><ele>457.5</ele><time>2026-03-29T08:51:42Z</time></trkpt><trkpt lat="43.2384516616392" lon="12.145574434614694"><ele>456.0</ele><time>2026-03-29T08:51:43Z</time></trkpt><trkpt lat="43.238385262143396" lon="12.145463511875308"><ele>454.5</ele><time>2026-03-29T08:51:44Z</time></trkpt><trkpt lat="43.23835717327482" lon="12.14533557339999"><ele>453.0</ele><time>2026-03-29T08:51:45Z</time></trkpt><trkpt lat="43.238325178860265" lon="12.14524887994455"><ele>451.5</ele><time>2026-03-29T08:51:46Z</time></trkpt><trkpt lat="43.23827839636926" lon="12.145159816225183"><ele>450.0</ele><time>2026-03-29T08:51:47Z</time></trkpt><trkpt lat="43.238297544421364" lon="12.144990918694957"><ele>449.8333333333333</ele><time>2026-03-29T08:51:49Z</time></trkpt><trkpt lat="43.238343394592896" lon="12.144869340759998"><ele>449.66666666666663</ele><time>2026-03-29T08:51:50Z</time></trkpt><trkpt lat="43.238395737874555" lon="12.14476723667368"><ele>449.5</ele><time>2026-03-29T08:51:51Z</time></trkpt><trkpt lat="43.238413425260426" lon="12.144676134710897"><ele>449.3333333333333</ele><time>2026-03-29T08:51:52Z</time></trkpt><trkpt lat="43.23842450964327" lon="12.144580368735062"><ele>449.16666666666663</ele><time>2026-03-29T08:51:53Z</time></trkpt><trkpt lat="43.23843630997687" lon="12.144482740752323"><ele>449.0</ele><time>2026-03-29T08:51:54Z</time></trkpt><trkpt lat="43.23844382845898" lon="12.144394809831324"><ele>448.99999999999994</ele><time>2026-03-29T08:51:55Z</time></trkpt><trkpt lat="43.23852969494166" lon="12.144299619493678"><ele>449.0</ele><time>2026-03-29T08:51:57Z</time></trkpt><trkpt lat="43.23862264174464" lon="12.14423522302054"><ele>449.0</ele><time>2026-03-29T08:51:59Z</time></trkpt><trkpt lat="43.23867372298304" lon="12.144182497670183"><ele>449.0</ele><time>2026-03-29T08:52:01Z</time></trkpt><trkpt lat="43.238743509287545" lon="12.144124547735624"><ele>448.99999999999994</ele><time>2026-03-29T08:52:03Z</time></trkpt><trkpt lat="43.238817755712624" lon="12.144100726097914"><ele>449.0</ele><time>2026-03-29T08:52:05Z</time></trkpt><trkpt lat="43.23888928028823" lon="12.144130190723274"><ele>443.5</ele><time>2026-03-29T08:52:07Z</time></trkpt><trkpt lat="43.23899543974434" lon="12.144043660887888"><ele>438.0</ele><time>2026-03-29T08:52:09Z</time></trkpt><trkpt lat="43.23910096073864" lon="12.143917942660426"><ele>432.5</ele><time>2026-03-29T08:52:10Z</time></trkpt><trkpt lat="43.239160650383134" lon="12.14376877973199"><ele>427.0</ele><time>2026-03-29T08:52:11Z</time></trkpt><trkpt lat="43.23922277716366" lon="12.143686182094825"><ele>427.0</ele><time>2026-03-29T08:52:12Z</time></trkpt><trkpt lat="43.239286738774204" lon="12.143652978037771"><ele>427.00000000000006</ele><time>2026-03-29T08:52:13Z</time></trkpt><trkpt lat="43.239387439889796" lon="12.143629184932902"><ele>427.00000000000006</ele><time>2026-03-29T08:52:14Z</time></trkpt><trkpt lat="43.23950672533127" lon="12.143581272036403"><ele>427.0</ele><time>2026-03-29T08:52:15Z</time></trkpt><trkpt lat="43.2396053345046" lon="12.143613842495572"><ele>427.0</ele><time>2026-03-29T08:52:16Z</time></trkpt><trkpt lat="43.23971988851183" lon="12.143632196542903"><ele>421.40000000000003</ele><time>2026-03-29T08:52:17Z</time></trkpt><trkpt lat="43.23982962785578" lon="12.143665754379981"><ele>415.80000000000007</ele><time>2026-03-29T08:52:18Z</time></trkpt><trkpt lat="43.2399498353078" lon="12.14366753936632"><ele>410.2</ele><time>2026-03-29T08:52:19Z</time></trkpt><trkpt lat="43.240035627878385" lon="12.143626796670297"><ele>404.6</ele><time>2026-03-29T08:52:20Z</time></trkpt><trkpt lat="43.240126861976854" lon="12.143618788774655"><ele>399.0</ele><time>2026-03-29T08:52:21Z</time></trkpt><trkpt lat="43.240225450310795" lon="12.14359519242018"><ele>399.0</ele><time>2026-03-29T08:52:22Z</time></trkpt><trkpt lat="43.240336534244676" lon="12.143597956278175"><ele>399.0</ele><time>2026-03-29T08:52:24Z</time></trkpt><trkpt lat="43.24033865455815" lon="12.143495132906967"><ele>399.0</ele><time>2026-03-29T08:52:26Z</time></trkpt><trkpt lat="43.24033301831685" lon="12.143406891319707"><ele>399.0</ele><time>2026-03-29T08:52:27Z</time></trkpt><trkpt lat="43.24033940053358" lon="12.143300527149094"><ele>399.0</ele><time>2026-03-29T08:52:28Z</time></trkpt><trkpt lat="43.24040713737583" lon="12.143193407987315"><ele>399.0</ele><time>2026-03-29T08:52:30Z</time></trkpt><trkpt lat="43.240467113205156" lon="12.14315445327163"><ele>397.2</ele><time>2026-03-29T08:52:31Z</time></trkpt><trkpt lat="43.24055500737204" lon="12.143057291422416"><ele>395.4</ele><time>2026-03-29T08:52:33Z</time></trkpt><trkpt lat="43.24053970168734" lon="12.142936106713154"><ele>393.6</ele><time>2026-03-29T08:52:35Z</time></trkpt><trkpt lat="43.24043879047951" lon="12.142847066254058"><ele>391.8</ele><time>2026-03-29T08:52:37Z</time></trkpt><trkpt lat="43.24036904275035" lon="12.142827104082572"><ele>390.0</ele><time>2026-03-29T08:52:38Z</time></trkpt><trkpt lat="43.240343236791084" lon="12.14270839357639"><ele>390.0</ele><time>2026-03-29T08:52:40Z</time></trkpt><trkpt lat="43.24037712931917" lon="12.142631094172181"><ele>390.0</ele><time>2026-03-29T08:52:41Z</time></trkpt><trkpt lat="43.24044030853203" lon="12.142550398026712"><ele>390.0</ele><time>2026-03-29T08:52:42Z</time></trkpt><trkpt lat="43.24052039363865" lon="12.142459689545424"><ele>390.0</ele><time>2026-03-29T08:52:43Z</time></trkpt><trkpt lat="43.24059177468888" lon="12.142374193759549"><ele>390.0</ele><time>2026-03-29T08:52:44Z</time></trkpt><trkpt lat="43.240668534529064" lon="12.142323121382805"><ele>390.0</ele><time>2026-03-29T08:52:45Z</time></trkpt><trkpt lat="43.24077954265561" lon="12.142416851328202"><ele>384.5</ele><time>2026-03-29T08:52:47Z</time></trkpt><trkpt lat="43.24082076162192" lon="12.142492361341262"><ele>379.0</ele><time>2026-03-29T08:52:48Z</time></trkpt><trkpt lat="43.24080465764161" lon="12.14266653217675"><ele>373.5</ele><time>2026-03-29T08:52:49Z</time></trkpt><trkpt lat="43.24096079040106" lon="12.142649292157998"><ele>368.0</ele><time>2026-03-29T08:52:50Z</time></trkpt><trkpt lat="43.24106079765246" lon="12.142634728667948"><ele>368.0</ele><time>2026-03-29T08:52:51Z</time></trkpt><trkpt lat="43.241131759887566" lon="12.142620189622605"><ele>368.0</ele><time>2026-03-29T08:52:52Z</time></trkpt><trkpt lat="43.241212426713844" lon="12.142633036759232"><ele>368.0</ele><time>2026-03-29T08:52:53Z</time></trkpt><trkpt lat="43.24129157000105" lon="12.142761557573591"><ele>368.0</ele><time>2026-03-29T08:52:55Z</time></trkpt><trkpt lat="43.2413812038346" lon="12.142911884369171"><ele>368.0</ele><time>2026-03-29T08:52:57Z</time></trkpt><trkpt lat="43.241479635139385" lon="12.142967131492762"><ele>367.0</ele><time>2026-03-29T08:52:58Z</time></trkpt><trkpt lat="43.24159358238236" lon="12.142920254145517"><ele>366.0</ele><time>2026-03-29T08:52:59Z</time></trkpt><trkpt lat="43.24169668600499" lon="12.142865382827972"><ele>365.0</ele><time>2026-03-29T08:53:00Z</time></trkpt><trkpt lat="43.24177780422178" lon="12.142816188901453"><ele>364.0</ele><time>2026-03-29T08:53:01Z</time></trkpt><trkpt lat="43.24185451204366" lon="12.142760411266682"><ele>363.0</ele><time>2026-03-29T08:53:02Z</time></trkpt><trkpt lat="43.2419257228435" lon="12.142705647173337"><ele>363.0</ele><time>2026-03-29T08:53:03Z</time></trkpt><trkpt lat="43.24202573134197" lon="12.142626520896455"><ele>363.0</ele><time>2026-03-29T08:53:04Z</time></trkpt><trkpt lat="43.24214095829204" lon="12.142534635966527"><ele>363.0</ele><time>2026-03-29T08:53:05Z</time></trkpt><trkpt lat="43.24223797732185" lon="12.142457270503392"><ele>363.0</ele><time>2026-03-29T08:53:06Z</time></trkpt><trkpt lat="43.242348207392666" lon="12.14237980428658"><ele>362.2</ele><time>2026-03-29T08:53:07Z</time></trkpt><trkpt lat="43.2424461431742" lon="12.142323162476263"><ele>361.4</ele><time>2026-03-29T08:53:08Z</time></trkpt><trkpt lat="43.24250313764801" lon="12.142204214492148"><ele>360.59999999999997</ele><time>2026-03-29T08:53:09Z</time></trkpt><trkpt lat="43.24258873259548" lon="12.142135803520508"><ele>359.79999999999995</ele><time>2026-03-29T08:53:09.999Z</time></trkpt><trkpt lat="43.24269870488605" lon="12.14218324233572"><ele>359.0</ele><time>2026-03-29T08:53:10.999Z</time></trkpt><trkpt lat="43.242833782329036" lon="12.142205507189491"><ele>359.0</ele><time>2026-03-29T08:53:11.999Z</time></trkpt><trkpt lat="43.24297517979477" lon="12.1422101340628"><ele>359.0</ele><time>2026-03-29T08:53:12.999Z</time></trkpt><trkpt lat="43.2430864633493" lon="12.142198237033845"><ele>359.0</ele><time>2026-03-29T08:53:13.999Z</time></trkpt><trkpt lat="43.243202690235954" lon="12.142209747811455"><ele>359.0</ele><time>2026-03-29T08:53:14.999Z</time></trkpt><trkpt lat="43.243343442368705" lon="12.142213117818494"><ele>356.25</ele><time>2026-03-29T08:53:15.999Z</time></trkpt><trkpt lat="43.24348072578987" lon="12.14220255176168"><ele>353.5</ele><time>2026-03-29T08:53:16.999Z</time></trkpt><trkpt lat="43.24362132995275" lon="12.142188538855198"><ele>350.75</ele><time>2026-03-29T08:53:17.999Z</time></trkpt><trkpt lat="43.24374840802657" lon="12.142175873980767"><ele>348.0</ele><time>2026-03-29T08:53:18.999Z</time></trkpt><trkpt lat="43.243877300967156" lon="12.142164341207897"><ele>344.75</ele><time>2026-03-29T08:53:19.999Z</time></trkpt><trkpt lat="43.244004013131956" lon="12.142163043558195"><ele>341.5</ele><time>2026-03-29T08:53:20.999Z</time></trkpt><trkpt lat="43.24411493862257" lon="12.142171738758487"><ele>338.25</ele><time>2026-03-29T08:53:21.999Z</time></trkpt><trkpt lat="43.24422826653464" lon="12.14219818403711"><ele>335.0</ele><time>2026-03-29T08:53:22.999Z</time></trkpt><trkpt lat="43.24433304787215" lon="12.142231792124532"><ele>335.0</ele><time>2026-03-29T08:53:23.999Z</time></trkpt><trkpt lat="43.24443225927161" lon="12.142276544035823"><ele>335.0</ele><time>2026-03-29T08:53:24.999Z</time></trkpt><trkpt lat="43.24453962191246" lon="12.142338442667777"><ele>335.0</ele><time>2026-03-29T08:53:25.999Z</time></trkpt><trkpt lat="43.2446584675316" lon="12.142415224516725"><ele>335.0</ele><time>2026-03-29T08:53:26.999Z</time></trkpt><trkpt lat="43.244768283130625" lon="12.142492009070724"><ele>332.5</ele><time>2026-03-29T08:53:27.999Z</time></trkpt><trkpt lat="43.24487626254855" lon="12.142568423620833"><ele>330.0</ele><time>2026-03-29T08:53:28.999Z</time></trkpt><trkpt lat="43.24498660256186" lon="12.14265305526702"><ele>327.5</ele><time>2026-03-29T08:53:29.999Z</time></trkpt><trkpt lat="43.24510827705415" lon="12.142737903477297"><ele>325.0</ele><time>2026-03-29T08:53:30.999Z</time></trkpt><trkpt lat="43.24525441436953" lon="12.142788690585538"><ele>325.0</ele><time>2026-03-29T08:53:31.999Z</time></trkpt><trkpt lat="43.24541453944926" lon="12.142811114206676"><ele>325.0</ele><time>2026-03-29T08:53:32.999Z</time></trkpt><trkpt lat="43.24557214857966" lon="12.142840829635904"><ele>325.0</ele><time>2026-03-29T08:53:33.999Z</time></trkpt><trkpt lat="43.245708819263754" lon="12.142870620665166"><ele>323.8</ele><time>2026-03-29T08:53:34.999Z</time></trkpt><trkpt lat="43.245829874033284" lon="12.142899064455685"><ele>322.6</ele><time>2026-03-29T08:53:35.999Z</time></trkpt><trkpt lat="43.24593052602486" lon="12.142924647075542"><ele>321.4</ele><time>2026-03-29T08:53:36.999Z</time></trkpt><trkpt lat="43.24602906082918" lon="12.142952314002395"><ele>320.2</ele><time>2026-03-29T08:53:37.999Z</time></trkpt><trkpt lat="43.246127981640115" lon="12.14299736401649"><ele>319.0</ele><time>2026-03-29T08:53:39Z</time></trkpt><trkpt lat="43.24621116707668" lon="12.143064912004641"><ele>319.0</ele><time>2026-03-29T08:53:40Z</time></trkpt><trkpt lat="43.24628047297394" lon="12.14314057315864"><ele>319.0</ele><time>2026-03-29T08:53:41Z</time></trkpt><trkpt lat="43.246351417415504" lon="12.143273366501111"><ele>319.0</ele><time>2026-03-29T08:53:43Z</time></trkpt><trkpt lat="43.24638058798504" lon="12.143385855591756"><ele>319.0</ele><time>2026-03-29T08:53:45Z</time></trkpt><trkpt lat="43.24628656942584" lon="12.143481010206331"><ele>319.0</ele><time>2026-03-29T08:53:47Z</time></trkpt><trkpt lat="43.24623660186387" lon="12.143582768404322"><ele>319.0</ele><time>2026-03-29T08:53:48Z</time></trkpt><trkpt lat="43.24618793516231" lon="12.143673254412938"><ele>319.0</ele><time>2026-03-29T08:53:49Z</time></trkpt><trkpt lat="43.2461489179933" lon="12.143745156652189"><ele>319.0</ele><time>2026-03-29T08:53:50Z</time></trkpt><trkpt lat="43.246081562909474" lon="12.143869853041785"><ele>319.0</ele><time>2026-03-29T08:53:52Z</time></trkpt><trkpt lat="43.24605781022274" lon="12.143951874363994"><ele>319.0</ele><time>2026-03-29T08:53:54Z</time></trkpt><trkpt lat="43.24615298417837" lon="12.144192362548464"><ele>319.14285714285717</ele><time>2026-03-29T08:53:55Z</time></trkpt><trkpt lat="43.246203783142185" lon="12.144255100753464"><ele>319.2857142857143</ele><time>2026-03-29T08:53:56Z</time></trkpt><trkpt lat="43.246261866101555" lon="12.144322436050494"><ele>319.42857142857144</ele><time>2026-03-29T08:53:57Z</time></trkpt><trkpt lat="43.246317089788796" lon="12.144383551348252"><ele>319.57142857142856</ele><time>2026-03-29T08:53:58Z</time></trkpt><trkpt lat="43.24637306222901" lon="12.144440600941866"><ele>319.7142857142857</ele><time>2026-03-29T08:53:59Z</time></trkpt><trkpt lat="43.246443454002495" lon="12.144509130555331"><ele>319.85714285714283</ele><time>2026-03-29T08:54:01Z</time></trkpt><trkpt lat="43.24649968469552" lon="12.144560093155661"><ele>320.0</ele><time>2026-03-29T08:54:03Z</time></trkpt><trkpt lat="43.24656556104004" lon="12.144619399312901"><ele>318.2857142857143</ele><time>2026-03-29T08:54:06Z</time></trkpt><trkpt lat="43.24660947906456" lon="12.144551215860456"><ele>316.57142857142856</ele><time>2026-03-29T08:56:19Z</time></trkpt><trkpt lat="43.246673185126724" lon="12.144528685678049"><ele>314.8571428571429</ele><time>2026-03-29T08:56:27Z</time></trkpt><trkpt lat="43.24674362620702" lon="12.144449099226133"><ele>313.1428571428571</ele><time>2026-03-29T08:57:15.999Z</time></trkpt><trkpt lat="43.24671771144364" lon="12.14452880137374"><ele>311.42857142857144</ele><time>2026-03-29T09:04:15Z</time></trkpt><trkpt lat="43.246675932655194" lon="12.144604309999421"><ele>309.7142857142857</ele><time>2026-03-29T09:04:33.999Z</time></trkpt><trkpt lat="43.246611205768275" lon="12.144615075583662"><ele>308.0</ele><time>2026-03-29T09:04:48.999Z</time></trkpt><trkpt lat="43.24666198789992" lon="12.144678420581444"><ele>308.0</ele><time>2026-03-29T09:07:04Z</time></trkpt><trkpt lat="43.2467393120751" lon="12.144741572084243"><ele>308.0</ele><time>2026-03-29T09:07:07Z</time></trkpt><trkpt lat="43.246806938958" lon="12.144788020316092"><ele>308.0</ele><time>2026-03-29T09:07:09Z</time></trkpt><trkpt lat="43.246875092684284" lon="12.144852857748658"><ele>308.0</ele><time>2026-03-29T09:07:12Z</time></trkpt><trkpt lat="43.246938798911934" lon="12.144891161417425"><ele>308.0</ele><time>2026-03-29T09:07:14Z</time></trkpt><trkpt lat="43.24700408943815" lon="12.14493169894699"><ele>308.0</ele><time>2026-03-29T09:07:16Z</time></trkpt><trkpt lat="43.247090858714344" lon="12.144940952762061"><ele>307.4</ele><time>2026-03-29T09:07:19Z</time></trkpt><trkpt lat="43.24717862704112" lon="12.144912765991915"><ele>306.8</ele><time>2026-03-29T09:07:21Z</time></trkpt><trkpt lat="43.24729172369195" lon="12.144887758177978"><ele>306.2</ele><time>2026-03-29T09:07:23Z</time></trkpt><trkpt lat="43.247408131593176" lon="12.144841776442483"><ele>305.6</ele><time>2026-03-29T09:07:25Z</time></trkpt><trkpt lat="43.2474888868849" lon="12.14484904670143"><ele>305.0</ele><time>2026-03-29T09:07:27Z</time></trkpt><trkpt lat="43.24745784532308" lon="12.144718793669226"><ele>304.5</ele><time>2026-03-29T09:07:28Z</time></trkpt><trkpt lat="43.247445692788" lon="12.144590074726528"><ele>304.0</ele><time>2026-03-29T09:07:30Z</time></trkpt><trkpt lat="43.24744135435622" lon="12.144489591488888"><ele>303.5</ele><time>2026-03-29T09:07:32Z</time></trkpt><trkpt lat="43.24743699693531" lon="12.14435482110329"><ele>303.0</ele><time>2026-03-29T09:07:34Z</time></trkpt><trkpt lat="43.24744755932701" lon="12.144251543288371"><ele>302.5</ele><time>2026-03-29T09:07:35Z</time></trkpt><trkpt lat="43.247456422549575" lon="12.144144048210423"><ele>302.0</ele><time>2026-03-29T09:07:36Z</time></trkpt><trkpt lat="43.24746031017345" lon="12.144021222646732"><ele>302.0</ele><time>2026-03-29T09:07:37Z</time></trkpt><trkpt lat="43.24745222336696" lon="12.143891520922981"><ele>302.0</ele><time>2026-03-29T09:07:38Z</time></trkpt><trkpt lat="43.24744669635195" lon="12.143745044942495"><ele>302.0</ele><time>2026-03-29T09:07:39Z</time></trkpt><trkpt lat="43.24744606143741" lon="12.143595142984006"><ele>302.0</ele><time>2026-03-29T09:07:40Z</time></trkpt><trkpt lat="43.24744645512696" lon="12.143460530337018"><ele>302.0</ele><time>2026-03-29T09:07:41Z</time></trkpt><trkpt lat="43.247441716814365" lon="12.143334139344967"><ele>302.6</ele><time>2026-03-29T09:07:42Z</time></trkpt><trkpt lat="43.24743303906898" lon="12.143193490668258"><ele>303.2</ele><time>2026-03-29T09:07:43Z</time></trkpt><trkpt lat="43.24741295415077" lon="12.143062144624032"><ele>303.8</ele><time>2026-03-29T09:07:44Z</time></trkpt><trkpt lat="43.247374301916665" lon="12.142935563787288"><ele>304.4</ele><time>2026-03-29T09:07:45Z</time></trkpt><trkpt lat="43.247336700776486" lon="12.142814281587938"><ele>305.0</ele><time>2026-03-29T09:07:46Z</time></trkpt><trkpt lat="43.24730318820038" lon="12.142694426075952"><ele>306.33333333333337</ele><time>2026-03-29T09:07:47Z</time></trkpt><trkpt lat="43.247278622281804" lon="12.142565549973282"><ele>307.6666666666667</ele><time>2026-03-29T09:07:48Z</time></trkpt><trkpt lat="43.24724731767277" lon="12.14244996998627"><ele>309.0</ele><time>2026-03-29T09:07:49Z</time></trkpt><trkpt lat="43.24721607605234" lon="12.142355485134438"><ele>310.3333333333333</ele><time>2026-03-29T09:07:50Z</time></trkpt><trkpt lat="43.2471990512699" lon="12.142264139445487"><ele>311.66666666666663</ele><time>2026-03-29T09:07:51Z</time></trkpt><trkpt lat="43.24720240194246" lon="12.142150594524036"><ele>313.0</ele><time>2026-03-29T09:07:53Z</time></trkpt><trkpt lat="43.24721816313142" lon="12.142058451408493"><ele>313.0</ele><time>2026-03-29T09:07:55Z</time></trkpt><trkpt lat="43.2472375242098" lon="12.141930492196543"><ele>313.0</ele><time>2026-03-29T09:07:57Z</time></trkpt><trkpt lat="43.24727515815996" lon="12.141798300166498"><ele>313.0</ele><time>2026-03-29T09:07:59Z</time></trkpt><trkpt lat="43.24731189242276" lon="12.141724142312233"><ele>313.0</ele><time>2026-03-29T09:08:00Z</time></trkpt><trkpt lat="43.24736616997771" lon="12.141653062158698"><ele>313.0</ele><time>2026-03-29T09:08:01Z</time></trkpt><trkpt lat="43.24744435566672" lon="12.141572324918851"><ele>313.0</ele><time>2026-03-29T09:08:02Z</time></trkpt><trkpt lat="43.247522628471096" lon="12.141469812188342"><ele>313.0</ele><time>2026-03-29T09:08:03Z</time></trkpt><trkpt lat="43.247606837935365" lon="12.141351153711872"><ele>313.0</ele><time>2026-03-29T09:08:04Z</time></trkpt><trkpt lat="43.24769433226531" lon="12.141242504835763"><ele>313.0</ele><time>2026-03-29T09:08:05Z</time></trkpt><trkpt lat="43.247774537766524" lon="12.141139156924181"><ele>313.0</ele><time>2026-03-29T09:08:06Z</time></trkpt><trkpt lat="43.247854961577985" lon="12.14103801999723"><ele>313.0</ele><time>2026-03-29T09:08:07Z</time></trkpt><trkpt lat="43.247935899811985" lon="12.140938543823857"><ele>313.0</ele><time>2026-03-29T09:08:08Z</time></trkpt><trkpt lat="43.24801782591108" lon="12.140838295915433"><ele>313.0</ele><time>2026-03-29T09:08:09Z</time></trkpt><trkpt lat="43.248096546663" lon="12.140738272081041"><ele>313.0</ele><time>2026-03-29T09:08:10Z</time></trkpt><trkpt lat="43.24817234007898" lon="12.140636769543907"><ele>313.0</ele><time>2026-03-29T09:08:11Z</time></trkpt><trkpt lat="43.248243745054616" lon="12.140542263007907"><ele>312.0</ele><time>2026-03-29T09:08:12Z</time></trkpt><trkpt lat="43.248309462727335" lon="12.140456149125594"><ele>311.0</ele><time>2026-03-29T09:08:13Z</time></trkpt><trkpt lat="43.24838423908752" lon="12.140366570848808"><ele>310.0</ele><time>2026-03-29T09:08:14Z</time></trkpt><trkpt lat="43.24845775355626" lon="12.140268335812994"><ele>309.0</ele><time>2026-03-29T09:08:15Z</time></trkpt><trkpt lat="43.24854205287888" lon="12.140167896287009"><ele>308.0</ele><time>2026-03-29T09:08:16Z</time></trkpt><trkpt lat="43.2486196273754" lon="12.140074992370083"><ele>308.0</ele><time>2026-03-29T09:08:17Z</time></trkpt><trkpt lat="43.24868997507353" lon="12.13998271413656"><ele>308.0</ele><time>2026-03-29T09:08:18Z</time></trkpt><trkpt lat="43.24876465972153" lon="12.13988822283388"><ele>308.0</ele><time>2026-03-29T09:08:19Z</time></trkpt><trkpt lat="43.24883092681231" lon="12.13979781734289"><ele>308.0</ele><time>2026-03-29T09:08:20Z</time></trkpt><trkpt lat="43.24890594367068" lon="12.139705473869826"><ele>308.0</ele><time>2026-03-29T09:08:21Z</time></trkpt><trkpt lat="43.248975531428755" lon="12.13961493347774"><ele>307.8</ele><time>2026-03-29T09:08:22Z</time></trkpt><trkpt lat="43.24904583573769" lon="12.13952230089662"><ele>307.6</ele><time>2026-03-29T09:08:23Z</time></trkpt><trkpt lat="43.249116598843806" lon="12.139431923399568"><ele>307.4</ele><time>2026-03-29T09:08:24Z</time></trkpt><trkpt lat="43.24918749823865" lon="12.139342535998287"><ele>307.2</ele><time>2026-03-29T09:08:25Z</time></trkpt><trkpt lat="43.24925764136704" lon="12.13925538887894"><ele>307.0</ele><time>2026-03-29T09:08:26Z</time></trkpt><trkpt lat="43.249323875858096" lon="12.139164652076573"><ele>307.0</ele><time>2026-03-29T09:08:27Z</time></trkpt><trkpt lat="43.24939067895404" lon="12.13907311526457"><ele>307.0</ele><time>2026-03-29T09:08:28Z</time></trkpt><trkpt lat="43.24946126413981" lon="12.1389950909979"><ele>307.0</ele><time>2026-03-29T09:08:29Z</time></trkpt><trkpt lat="43.249536562870915" lon="12.138931556856294"><ele>307.0</ele><time>2026-03-29T09:08:30Z</time></trkpt><trkpt lat="43.24961499365838" lon="12.138889029359913"><ele>307.0</ele><time>2026-03-29T09:08:31Z</time></trkpt><trkpt lat="43.24968390374905" lon="12.13884369647201"><ele>307.0</ele><time>2026-03-29T09:08:32Z</time></trkpt><trkpt lat="43.249737187493515" lon="12.138790937102305"><ele>305.6</ele><time>2026-03-29T09:08:33Z</time></trkpt><trkpt lat="43.24987748616932" lon="12.138889212570056"><ele>304.2</ele><time>2026-03-29T09:08:34Z</time></trkpt><trkpt lat="43.249967973628515" lon="12.138909010152195"><ele>302.8</ele><time>2026-03-29T09:08:35Z</time></trkpt><trkpt lat="43.25005060872262" lon="12.13892140598537"><ele>301.4</ele><time>2026-03-29T09:08:36Z</time></trkpt><trkpt lat="43.25012540296942" lon="12.138930535337655"><ele>300.0</ele><time>2026-03-29T09:08:37Z</time></trkpt><trkpt lat="43.25021083169422" lon="12.138943374452719"><ele>300.0</ele><time>2026-03-29T09:08:38Z</time></trkpt><trkpt lat="43.25030244709524" lon="12.138960086902644"><ele>300.0</ele><time>2026-03-29T09:08:39Z</time></trkpt><trkpt lat="43.250397759797266" lon="12.138968503815638"><ele>300.0</ele><time>2026-03-29T09:08:40Z</time></trkpt><trkpt lat="43.25049882949345" lon="12.138978825541818"><ele>300.0</ele><time>2026-03-29T09:08:41Z</time></trkpt><trkpt lat="43.250604466955735" lon="12.138992445977953"><ele>300.0</ele><time>2026-03-29T09:08:42Z</time></trkpt><trkpt lat="43.25071373583877" lon="12.139009106644343"><ele>299.5</ele><time>2026-03-29T09:08:43Z</time></trkpt><trkpt lat="43.25082987314208" lon="12.13902245988554"><ele>299.0</ele><time>2026-03-29T09:08:44Z</time></trkpt><trkpt lat="43.25095081295342" lon="12.13903354850178"><ele>298.5</ele><time>2026-03-29T09:08:45Z</time></trkpt><trkpt lat="43.25107429933354" lon="12.139047772776426"><ele>298.0</ele><time>2026-03-29T09:08:46Z</time></trkpt><trkpt lat="43.25120311659372" lon="12.139060572361958"><ele>298.0</ele><time>2026-03-29T09:08:47Z</time></trkpt><trkpt lat="43.251327061927235" lon="12.13907501742681"><ele>298.0</ele><time>2026-03-29T09:08:48Z</time></trkpt><trkpt lat="43.251464590271844" lon="12.139093416617575"><ele>298.0</ele><time>2026-03-29T09:08:49Z</time></trkpt><trkpt lat="43.25160579188681" lon="12.139113031601463"><ele>298.0</ele><time>2026-03-29T09:08:50Z</time></trkpt><trkpt lat="43.25174531660463" lon="12.139126997374369"><ele>298.25</ele><time>2026-03-29T09:08:51Z</time></trkpt><trkpt lat="43.251885262633515" lon="12.13914342973655"><ele>298.5</ele><time>2026-03-29T09:08:52Z</time></trkpt><trkpt lat="43.252021138991964" lon="12.13915886777471"><ele>298.75</ele><time>2026-03-29T09:08:53Z</time></trkpt><trkpt lat="43.252155009188236" lon="12.139174207661181"><ele>299.0</ele><time>2026-03-29T09:08:54Z</time></trkpt><trkpt lat="43.25228761994442" lon="12.139188347975239"><ele>299.25</ele><time>2026-03-29T09:08:55Z</time></trkpt><trkpt lat="43.25242223580367" lon="12.139203100681584"><ele>299.5</ele><time>2026-03-29T09:08:56Z</time></trkpt><trkpt lat="43.25255440479695" lon="12.139223378186202"><ele>299.75</ele><time>2026-03-29T09:08:57Z</time></trkpt><trkpt lat="43.25268896867439" lon="12.139239533197781"><ele>300.0</ele><time>2026-03-29T09:08:58Z</time></trkpt><trkpt lat="43.25282576119527" lon="12.139252100208095"><ele>300.0</ele><time>2026-03-29T09:08:59Z</time></trkpt><trkpt lat="43.252964822886774" lon="12.139267954475907"><ele>300.0</ele><time>2026-03-29T09:09:00Z</time></trkpt><trkpt lat="43.25311884946736" lon="12.13928690834769"><ele>300.0</ele><time>2026-03-29T09:09:01Z</time></trkpt><trkpt lat="43.253264483151916" lon="12.139300576621029"><ele>300.0</ele><time>2026-03-29T09:09:02Z</time></trkpt><trkpt lat="43.2533893611629" lon="12.139316889276747"><ele>300.4</ele><time>2026-03-29T09:09:03Z</time></trkpt><trkpt lat="43.25350964029303" lon="12.139332421394746"><ele>300.8</ele><time>2026-03-29T09:09:04Z</time></trkpt><trkpt lat="43.25361443157135" lon="12.139347193424367"><ele>301.2</ele><time>2026-03-29T09:09:05Z</time></trkpt><trkpt lat="43.25370420627835" lon="12.139359798824641"><ele>301.6</ele><time>2026-03-29T09:09:06Z</time></trkpt><trkpt lat="43.253783429279096" lon="12.139370456790353"><ele>302.0</ele><time>2026-03-29T09:09:07Z</time></trkpt><trkpt lat="43.253847320194716" lon="12.139377964993095"><ele>302.0</ele><time>2026-03-29T09:09:08Z</time></trkpt><trkpt lat="43.253933577036584" lon="12.139411972089404"><ele>302.0</ele><time>2026-03-29T09:09:10Z</time></trkpt><trkpt lat="43.25388761605428" lon="12.139534281838717"><ele>302.0</ele><time>2026-03-29T09:09:13Z</time></trkpt><trkpt lat="43.25393723852777" lon="12.13959514144546"><ele>302.0</ele><time>2026-03-29T09:10:33Z</time></trkpt><trkpt lat="43.25400234068509" lon="12.139565943638274"><ele>302.0</ele><time>2026-03-29T09:17:05Z</time></trkpt><trkpt lat="43.25406436004031" lon="12.139531453949713"><ele>302.0</ele><time>2026-03-29T09:19:29Z</time></trkpt><trkpt lat="43.254007788931276" lon="12.13957481286552"><ele>302.00000000000006</ele><time>2026-03-29T09:19:54Z</time></trkpt><trkpt lat="43.254068831308" lon="12.1394975421315"><ele>302.0</ele><time>2026-03-29T09:21:33Z</time></trkpt><trkpt lat="43.254025645762454" lon="12.139411789403454"><ele>302.0</ele><time>2026-03-29T09:25:40.999Z</time></trkpt><trkpt lat="43.25394172183189" lon="12.139410505867493"><ele>302.0</ele><time>2026-03-29T09:25:42.999Z</time></trkpt><trkpt lat="43.25388516442581" lon="12.139458361732087"><ele>302.0</ele><time>2026-03-29T09:25:55.999Z</time></trkpt><trkpt lat="43.25384814235394" lon="12.139375731742419"><ele>302.00000000000006</ele><time>2026-03-29T09:25:58.999Z</time></trkpt><trkpt lat="43.253784393104674" lon="12.139338205865815"><ele>302.0</ele><time>2026-03-29T09:25:59.999Z</time></trkpt><trkpt lat="43.25369769119491" lon="12.139320597964671"><ele>302.0</ele><time>2026-03-29T09:26:00.999Z</time></trkpt><trkpt lat="43.253604329952424" lon="12.1393117498164"><ele>302.0</ele><time>2026-03-29T09:26:01.999Z</time></trkpt><trkpt lat="43.25351323497434" lon="12.139304849880316"><ele>302.0</ele><time>2026-03-29T09:26:02.999Z</time></trkpt><trkpt lat="43.25342610623639" lon="12.139295662094499"><ele>302.0</ele><time>2026-03-29T09:26:03.999Z</time></trkpt><trkpt lat="43.25335021547821" lon="12.139274326021612"><ele>302.0</ele><time>2026-03-29T09:26:04.999Z</time></trkpt><trkpt lat="43.25326506818465" lon="12.139248570489391"><ele>302.0</ele><time>2026-03-29T09:26:05.999Z</time></trkpt><trkpt lat="43.25317046962888" lon="12.139254877595755"><ele>301.6</ele><time>2026-03-29T09:26:06.999Z</time></trkpt><trkpt lat="43.253089665674395" lon="12.13924603093465"><ele>301.2</ele><time>2026-03-29T09:26:07.999Z</time></trkpt><trkpt lat="43.2529913651659" lon="12.139242547321185"><ele>300.8</ele><time>2026-03-29T09:26:08.999Z</time></trkpt><trkpt lat="43.25290400235541" lon="12.1392327066683"><ele>300.4</ele><time>2026-03-29T09:26:09.999Z</time></trkpt><trkpt lat="43.25281491313492" lon="12.13922097022813"><ele>300.0</ele><time>2026-03-29T09:26:10.999Z</time></trkpt><trkpt lat="43.25272236948901" lon="12.13920755999572"><ele>300.0</ele><time>2026-03-29T09:26:11.999Z</time></trkpt><trkpt lat="43.25262673083323" lon="12.139196787764623"><ele>300.0</ele><time>2026-03-29T09:26:12.999Z</time></trkpt><trkpt lat="43.25253077108956" lon="12.139183017609067"><ele>300.0</ele><time>2026-03-29T09:26:13.999Z</time></trkpt><trkpt lat="43.25243701523929" lon="12.13916723375887"><ele>300.0</ele><time>2026-03-29T09:26:14.999Z</time></trkpt><trkpt lat="43.25233710256605" lon="12.139147638970467"><ele>300.0</ele><time>2026-03-29T09:26:15.999Z</time></trkpt><trkpt lat="43.25223665965635" lon="12.139136199770258"><ele>299.8</ele><time>2026-03-29T09:26:16.999Z</time></trkpt><trkpt lat="43.25213930519652" lon="12.139125040359762"><ele>299.6</ele><time>2026-03-29T09:26:17.999Z</time></trkpt><trkpt lat="43.25204056989091" lon="12.13911317773583"><ele>299.4</ele><time>2026-03-29T09:26:18.999Z</time></trkpt><trkpt lat="43.2519432746276" lon="12.13910361955014"><ele>299.2</ele><time>2026-03-29T09:26:19.999Z</time></trkpt><trkpt lat="43.2518430405038" lon="12.139089060296078"><ele>299.0</ele><time>2026-03-29T09:26:20.999Z</time></trkpt><trkpt lat="43.25174359882144" lon="12.13907517031087"><ele>299.0</ele><time>2026-03-29T09:26:21.999Z</time></trkpt><trkpt lat="43.25163982622086" lon="12.139061908767335"><ele>299.0</ele><time>2026-03-29T09:26:22.999Z</time></trkpt><trkpt lat="43.25153430667182" lon="12.139049162326755"><ele>299.0</ele><time>2026-03-29T09:26:23.999Z</time></trkpt><trkpt lat="43.251427881790164" lon="12.13903422560671"><ele>299.0</ele><time>2026-03-29T09:26:24.999Z</time></trkpt><trkpt lat="43.251319468462334" lon="12.139021845799641"><ele>299.0</ele><time>2026-03-29T09:26:25.999Z</time></trkpt><trkpt lat="43.251208112162985" lon="12.139008594818478"><ele>298.8</ele><time>2026-03-29T09:26:26.999Z</time></trkpt><trkpt lat="43.25110055351473" lon="12.138995624585146"><ele>298.59999999999997</ele><time>2026-03-29T09:26:27.999Z</time></trkpt><trkpt lat="43.250994786834916" lon="12.138984505678815"><ele>298.4</ele><time>2026-03-29T09:26:28.999Z</time></trkpt><trkpt lat="43.25088645927443" lon="12.138974862760834"><ele>298.2</ele><time>2026-03-29T09:26:29.999Z</time></trkpt><trkpt lat="43.250776736298455" lon="12.138965066733789"><ele>298.0</ele><time>2026-03-29T09:26:30.999Z</time></trkpt><trkpt lat="43.25066575871167" lon="12.138951706517283"><ele>298.5</ele><time>2026-03-29T09:26:31.999Z</time></trkpt><trkpt lat="43.25053312278193" lon="12.138935979893745"><ele>299.0</ele><time>2026-03-29T09:26:32.999Z</time></trkpt><trkpt lat="43.2504053598089" lon="12.138917809889124"><ele>299.5</ele><time>2026-03-29T09:26:33.999Z</time></trkpt><trkpt lat="43.25025586721954" lon="12.138900654282526"><ele>300.0</ele><time>2026-03-29T09:26:34.999Z</time></trkpt><trkpt lat="43.2501076878358" lon="12.138883140758628"><ele>300.0</ele><time>2026-03-29T09:26:35.999Z</time></trkpt><trkpt lat="43.24997945026105" lon="12.138870698943544"><ele>300.0</ele><time>2026-03-29T09:26:36.999Z</time></trkpt><trkpt lat="43.249868144617984" lon="12.13885648573334"><ele>300.0</ele><time>2026-03-29T09:26:37.999Z</time></trkpt><trkpt lat="43.249773802101664" lon="12.138827833558143"><ele>300.0</ele><time>2026-03-29T09:26:38.999Z</time></trkpt><trkpt lat="43.249699696691174" lon="12.138763857850003"><ele>300.0</ele><time>2026-03-29T09:26:39.999Z</time></trkpt><trkpt lat="43.24965840982336" lon="12.13866461098373"><ele>301.25</ele><time>2026-03-29T09:26:40.999Z</time></trkpt><trkpt lat="43.24965985579093" lon="12.138541133776117"><ele>302.5</ele><time>2026-03-29T09:26:41.999Z</time></trkpt><trkpt lat="43.24970333955247" lon="12.138402065120761"><ele>303.75</ele><time>2026-03-29T09:26:42.999Z</time></trkpt><trkpt lat="43.249757819267934" lon="12.138249960141184"><ele>305.0</ele><time>2026-03-29T09:26:43.999Z</time></trkpt><trkpt lat="43.24981513618495" lon="12.138075865521511"><ele>305.0</ele><time>2026-03-29T09:26:44.999Z</time></trkpt><trkpt lat="43.24987093798683" lon="12.137903197431923"><ele>305.0</ele><time>2026-03-29T09:26:45.999Z</time></trkpt><trkpt lat="43.249918818729945" lon="12.137741086742937"><ele>305.0</ele><time>2026-03-29T09:26:46.999Z</time></trkpt><trkpt lat="43.24996486752623" lon="12.137571737991832"><ele>305.0</ele><time>2026-03-29T09:26:47.999Z</time></trkpt><trkpt lat="43.25001451398602" lon="12.137390090952131"><ele>306.6666666666667</ele><time>2026-03-29T09:26:48.999Z</time></trkpt><trkpt lat="43.2500830676077" lon="12.137199476346323"><ele>308.3333333333333</ele><time>2026-03-29T09:26:49.999Z</time></trkpt><trkpt lat="43.250175104442796" lon="12.137008024658076"><ele>310.0</ele><time>2026-03-29T09:26:50.999Z</time></trkpt><trkpt lat="43.250278401063554" lon="12.136830885299377"><ele>310.0</ele><time>2026-03-29T09:26:51.999Z</time></trkpt><trkpt lat="43.250375235912074" lon="12.136677865834724"><ele>310.0</ele><time>2026-03-29T09:26:52.999Z</time></trkpt><trkpt lat="43.250463714843384" lon="12.136530619145054"><ele>310.0</ele><time>2026-03-29T09:26:53.999Z</time></trkpt><trkpt lat="43.25054860439271" lon="12.136369264755182"><ele>310.0</ele><time>2026-03-29T09:26:54.999Z</time></trkpt><trkpt lat="43.250629654625136" lon="12.136179892852832"><ele>308.66666666666663</ele><time>2026-03-29T09:26:55.999Z</time></trkpt><trkpt lat="43.25070526369874" lon="12.135959494412562"><ele>307.3333333333333</ele><time>2026-03-29T09:26:56.999Z</time></trkpt><trkpt lat="43.250784331758084" lon="12.135712537204594"><ele>306.0</ele><time>2026-03-29T09:26:57.999Z</time></trkpt><trkpt lat="43.25085887874277" lon="12.135481354679444"><ele>308.75</ele><time>2026-03-29T09:26:58.999Z</time></trkpt><trkpt lat="43.250925167982075" lon="12.135288293345898"><ele>311.5</ele><time>2026-03-29T09:26:59.999Z</time></trkpt><trkpt lat="43.250981472678724" lon="12.135129924911089"><ele>314.25</ele><time>2026-03-29T09:27:00.999Z</time></trkpt><trkpt lat="43.251032273656655" lon="12.134979032911163"><ele>317.0</ele><time>2026-03-29T09:27:01.999Z</time></trkpt><trkpt lat="43.25108626668865" lon="12.1348108434989"><ele>315.5</ele><time>2026-03-29T09:27:02.999Z</time></trkpt><trkpt lat="43.25115278563433" lon="12.134630396461276"><ele>314.0</ele><time>2026-03-29T09:27:03.999Z</time></trkpt><trkpt lat="43.251242942132556" lon="12.134478069219016"><ele>312.5</ele><time>2026-03-29T09:27:04.999Z</time></trkpt><trkpt lat="43.25136100414874" lon="12.134368812283023"><ele>311.0</ele><time>2026-03-29T09:27:05.999Z</time></trkpt><trkpt lat="43.251481530390855" lon="12.134262609358542"><ele>311.0</ele><time>2026-03-29T09:27:06.999Z</time></trkpt><trkpt lat="43.25158655905888" lon="12.13413384051091"><ele>311.0</ele><time>2026-03-29T09:27:07.999Z</time></trkpt><trkpt lat="43.25167409231375" lon="12.133970671777432"><ele>311.0</ele><time>2026-03-29T09:27:08.999Z</time></trkpt><trkpt lat="43.25175150643005" lon="12.133773660338287"><ele>316.33333333333337</ele><time>2026-03-29T09:27:09.999Z</time></trkpt><trkpt lat="43.251847455703405" lon="12.133561585191703"><ele>321.6666666666667</ele><time>2026-03-29T09:27:10.999Z</time></trkpt><trkpt lat="43.251968470868" lon="12.133365665527739"><ele>327.0</ele><time>2026-03-29T09:27:11.999Z</time></trkpt><trkpt lat="43.25208323078716" lon="12.13322286325885"><ele>328.5</ele><time>2026-03-29T09:27:12.999Z</time></trkpt><trkpt lat="43.25219437368143" lon="12.133088618158688"><ele>330.0</ele><time>2026-03-29T09:27:13.999Z</time></trkpt><trkpt lat="43.252290185016285" lon="12.13296204055047"><ele>331.5</ele><time>2026-03-29T09:27:14.999Z</time></trkpt><trkpt lat="43.25235206465427" lon="12.132835634014008"><ele>333.0</ele><time>2026-03-29T09:27:15.999Z</time></trkpt><trkpt lat="43.25238435508027" lon="12.132701784211962"><ele>331.0</ele><time>2026-03-29T09:27:16.999Z</time></trkpt><trkpt lat="43.25237566911277" lon="12.132556368649494"><ele>329.0</ele><time>2026-03-29T09:27:17.999Z</time></trkpt><trkpt lat="43.25233297226221" lon="12.132400454807255"><ele>327.0</ele><time>2026-03-29T09:27:18.999Z</time></trkpt><trkpt lat="43.25229022051451" lon="12.132238160903592"><ele>325.0</ele><time>2026-03-29T09:27:19.999Z</time></trkpt><trkpt lat="43.25225836659622" lon="12.132104681938628"><ele>325.0</ele><time>2026-03-29T09:27:20.999Z</time></trkpt><trkpt lat="43.25222881819074" lon="12.131982375852049"><ele>325.0</ele><time>2026-03-29T09:27:21.999Z</time></trkpt><trkpt lat="43.25219799517331" lon="12.131881931967795"><ele>325.0</ele><time>2026-03-29T09:27:22.999Z</time></trkpt><trkpt lat="43.25215203393934" lon="12.131810161149826"><ele>325.0</ele><time>2026-03-29T09:27:23.999Z</time></trkpt><trkpt lat="43.25208971606176" lon="12.131761186504987"><ele>325.0</ele><time>2026-03-29T09:27:24.999Z</time></trkpt><trkpt lat="43.25202462023506" lon="12.131743991950199"><ele>325.0</ele><time>2026-03-29T09:27:25.999Z</time></trkpt><trkpt lat="43.251953203094054" lon="12.131742148057066"><ele>325.0</ele><time>2026-03-29T09:27:26.999Z</time></trkpt><trkpt lat="43.25186323681611" lon="12.131726574847407"><ele>325.0</ele><time>2026-03-29T09:27:28.999Z</time></trkpt><trkpt lat="43.251799988754385" lon="12.131715078585406"><ele>325.0</ele><time>2026-03-29T09:27:31.999Z</time></trkpt><trkpt lat="43.25172871182593" lon="12.131702122979052"><ele>325.0</ele><time>2026-03-29T09:27:32.999Z</time></trkpt><trkpt lat="43.25163690538068" lon="12.131720017966515"><ele>325.0</ele><time>2026-03-29T09:27:34.999Z</time></trkpt><trkpt lat="43.25147167233359" lon="12.132242207078079"><ele>328.75</ele><time>2026-03-29T09:27:36.999Z</time></trkpt><trkpt lat="43.25140882141402" lon="12.132382779190957"><ele>332.5</ele><time>2026-03-29T09:27:37.999Z</time></trkpt><trkpt lat="43.25132371994156" lon="12.132513764637993"><ele>336.25</ele><time>2026-03-29T09:27:39Z</time></trkpt><trkpt lat="43.25134610146278" lon="12.132744709554897"><ele>340.0</ele><time>2026-03-29T09:27:40Z</time></trkpt><trkpt lat="43.25135368286103" lon="12.132896671712507"><ele>342.5</ele><time>2026-03-29T09:27:41Z</time></trkpt><trkpt lat="43.251307044214734" lon="12.13297957012108"><ele>345.0</ele><time>2026-03-29T09:27:43Z</time></trkpt><trkpt lat="43.25123838280947" lon="12.133001625645873"><ele>347.5</ele><time>2026-03-29T09:27:44Z</time></trkpt><trkpt lat="43.251127654189375" lon="12.133057381141953"><ele>350.0</ele><time>2026-03-29T09:27:46Z</time></trkpt><trkpt lat="43.25108872672939" lon="12.13297563179407"><ele>352.5</ele><time>2026-03-29T09:27:48Z</time></trkpt><trkpt lat="43.25101893765654" lon="12.132972644557668"><ele>355.0</ele><time>2026-03-29T09:27:49Z</time></trkpt><trkpt lat="43.25094608512494" lon="12.132944995131357"><ele>355.0</ele><time>2026-03-29T09:27:51Z</time></trkpt><trkpt lat="43.250885234042876" lon="12.133028476259797"><ele>355.0</ele><time>2026-03-29T09:27:57Z</time></trkpt><trkpt lat="43.25078365779463" lon="12.13296654624973"><ele>355.0</ele><time>2026-03-29T09:28:00Z</time></trkpt><trkpt lat="43.250680437697326" lon="12.132895356241544"><ele>355.0</ele><time>2026-03-29T09:28:02Z</time></trkpt><trkpt lat="43.25061570811575" lon="12.132857227547156"><ele>355.0</ele><time>2026-03-29T09:28:03Z</time></trkpt><trkpt lat="43.250491244936725" lon="12.13286174001713"><ele>356.66666666666663</ele><time>2026-03-29T09:28:05Z</time></trkpt><trkpt lat="43.250412989871144" lon="12.132846092089679"><ele>358.3333333333333</ele><time>2026-03-29T09:28:06Z</time></trkpt><trkpt lat="43.250327845154644" lon="12.132851620355755"><ele>360.0</ele><time>2026-03-29T09:28:07Z</time></trkpt><trkpt lat="43.25022297502066" lon="12.13287600782472"><ele>361.6666666666667</ele><time>2026-03-29T09:28:08Z</time></trkpt><trkpt lat="43.25014598068569" lon="12.132890335241598"><ele>363.33333333333337</ele><time>2026-03-29T09:28:09Z</time></trkpt><trkpt lat="43.250077766414435" lon="12.132875497896947"><ele>365.0</ele><time>2026-03-29T09:28:10Z</time></trkpt><trkpt lat="43.24995988435935" lon="12.132877059600068"><ele>365.0</ele><time>2026-03-29T09:28:12Z</time></trkpt><trkpt lat="43.24988766909476" lon="12.132911187301099"><ele>365.0</ele><time>2026-03-29T09:28:13Z</time></trkpt><trkpt lat="43.249812037690724" lon="12.13294023753051"><ele>365.0</ele><time>2026-03-29T09:28:14Z</time></trkpt><trkpt lat="43.249738666608636" lon="12.132942481090774"><ele>365.0</ele><time>2026-03-29T09:28:15Z</time></trkpt><trkpt lat="43.249661090272824" lon="12.132933597165895"><ele>365.0</ele><time>2026-03-29T09:28:16Z</time></trkpt><trkpt lat="43.249539200689355" lon="12.132947678414004"><ele>365.0</ele><time>2026-03-29T09:28:18Z</time></trkpt><trkpt lat="43.24946490918472" lon="12.132984951707789"><ele>366.33333333333337</ele><time>2026-03-29T09:28:19Z</time></trkpt><trkpt lat="43.24939349210834" lon="12.133046002150554"><ele>367.6666666666667</ele><time>2026-03-29T09:28:20Z</time></trkpt><trkpt lat="43.24931550673978" lon="12.133111641194903"><ele>369.0</ele><time>2026-03-29T09:28:21Z</time></trkpt><trkpt lat="43.24921987033338" lon="12.133167824723056"><ele>370.3333333333333</ele><time>2026-03-29T09:28:22Z</time></trkpt><trkpt lat="43.24913901727791" lon="12.133213662502198"><ele>371.66666666666663</ele><time>2026-03-29T09:28:23Z</time></trkpt><trkpt lat="43.24906508391196" lon="12.133234116003711"><ele>373.0</ele><time>2026-03-29T09:28:24Z</time></trkpt><trkpt lat="43.24898670069568" lon="12.133241387397934"><ele>376.5</ele><time>2026-03-29T09:28:25Z</time></trkpt><trkpt lat="43.24890566369643" lon="12.133236524560942"><ele>380.0</ele><time>2026-03-29T09:28:26Z</time></trkpt><trkpt lat="43.24882490835661" lon="12.133261035001427"><ele>383.5</ele><time>2026-03-29T09:28:27Z</time></trkpt><trkpt lat="43.248709363118536" lon="12.13334123960411"><ele>387.0</ele><time>2026-03-29T09:28:29Z</time></trkpt><trkpt lat="43.248636178376486" lon="12.13335550742496"><ele>390.50000000000006</ele><time>2026-03-29T09:28:30Z</time></trkpt><trkpt lat="43.248563711560095" lon="12.133368196586195"><ele>394.0</ele><time>2026-03-29T09:28:31Z</time></trkpt><trkpt lat="43.248472541051925" lon="12.13336207093437"><ele>394.00000000000006</ele><time>2026-03-29T09:28:32Z</time></trkpt><trkpt lat="43.248395822666765" lon="12.133391544582837"><ele>394.0</ele><time>2026-03-29T09:28:33Z</time></trkpt><trkpt lat="43.24833017612664" lon="12.133395483503195"><ele>394.0</ele><time>2026-03-29T09:28:34Z</time></trkpt><trkpt lat="43.24825135827277" lon="12.133379684382113"><ele>394.0</ele><time>2026-03-29T09:28:35Z</time></trkpt><trkpt lat="43.24816299380357" lon="12.133362068259476"><ele>394.00000000000006</ele><time>2026-03-29T09:28:36Z</time></trkpt><trkpt lat="43.24806254301644" lon="12.133350232340566"><ele>394.0</ele><time>2026-03-29T09:28:37Z</time></trkpt><trkpt lat="43.24796494764071" lon="12.133316989755043"><ele>394.4</ele><time>2026-03-29T09:28:38Z</time></trkpt><trkpt lat="43.24787705709038" lon="12.133272101849482"><ele>394.79999999999995</ele><time>2026-03-29T09:28:39Z</time></trkpt><trkpt lat="43.24777964048246" lon="12.133239294865623"><ele>395.20000000000005</ele><time>2026-03-29T09:28:40Z</time></trkpt><trkpt lat="43.24767441334758" lon="12.133191343324087"><ele>395.6</ele><time>2026-03-29T09:28:41Z</time></trkpt><trkpt lat="43.24758790783608" lon="12.133096384685407"><ele>396.0</ele><time>2026-03-29T09:28:42Z</time></trkpt><trkpt lat="43.2474916215276" lon="12.133017085129692"><ele>396.0</ele><time>2026-03-29T09:28:43Z</time></trkpt><trkpt lat="43.2473960862206" lon="12.1329241179805"><ele>396.0</ele><time>2026-03-29T09:28:44Z</time></trkpt><trkpt lat="43.24731451114776" lon="12.132825705990635"><ele>396.0</ele><time>2026-03-29T09:28:45Z</time></trkpt><trkpt lat="43.247265545787215" lon="12.132731676579736"><ele>396.0</ele><time>2026-03-29T09:28:46Z</time></trkpt><trkpt lat="43.24718911499355" lon="12.132652656534026"><ele>396.0</ele><time>2026-03-29T09:28:49Z</time></trkpt><trkpt lat="43.24711898333821" lon="12.132620740292644"><ele>399.5</ele><time>2026-03-29T09:28:50Z</time></trkpt><trkpt lat="43.24705410249458" lon="12.132698311725688"><ele>403.0</ele><time>2026-03-29T09:28:53Z</time></trkpt><trkpt lat="43.24699053097929" lon="12.132771848584126"><ele>406.5</ele><time>2026-03-29T09:28:55Z</time></trkpt><trkpt lat="43.246916866830716" lon="12.132802163656747"><ele>410.0</ele><time>2026-03-29T09:28:56Z</time></trkpt><trkpt lat="43.24668035833906" lon="12.132901236312714"><ele>410.0</ele><time>2026-03-29T09:29:00Z</time></trkpt><trkpt lat="43.24666299722738" lon="12.133031261428819"><ele>410.0</ele><time>2026-03-29T09:29:02Z</time></trkpt><trkpt lat="43.24669298392802" lon="12.133180134381442"><ele>410.0</ele><time>2026-03-29T09:29:04Z</time></trkpt><trkpt lat="43.24671259113876" lon="12.133272398716553"><ele>410.0</ele><time>2026-03-29T09:29:06Z</time></trkpt><trkpt lat="43.24674001833699" lon="12.133406740921762"><ele>410.0</ele><time>2026-03-29T09:29:08Z</time></trkpt><trkpt lat="43.2467401525455" lon="12.13350694898519"><ele>412.8333333333333</ele><time>2026-03-29T09:29:09Z</time></trkpt><trkpt lat="43.2467331493625" lon="12.133614497631264"><ele>415.66666666666663</ele><time>2026-03-29T09:29:10Z</time></trkpt><trkpt lat="43.24673428336854" lon="12.13371904067935"><ele>418.5</ele><time>2026-03-29T09:29:11Z</time></trkpt><trkpt lat="43.24674020360749" lon="12.13382048147555"><ele>421.33333333333337</ele><time>2026-03-29T09:29:12Z</time></trkpt><trkpt lat="43.24671562534118" lon="12.133966124068314"><ele>424.1666666666667</ele><time>2026-03-29T09:29:14Z</time></trkpt><trkpt lat="43.246664141323244" lon="12.134100135614855"><ele>427.0</ele><time>2026-03-29T09:29:16Z</time></trkpt><trkpt lat="43.246561763814256" lon="12.134218486012443"><ele>429.40000000000003</ele><time>2026-03-29T09:29:17Z</time></trkpt><trkpt lat="43.24646176145239" lon="12.13427850753005"><ele>431.80000000000007</ele><time>2026-03-29T09:29:19Z</time></trkpt><trkpt lat="43.24649965951107" lon="12.134428109743059"><ele>434.2</ele><time>2026-03-29T09:29:21Z</time></trkpt><trkpt lat="43.24638569589191" lon="12.134333166583374"><ele>436.6</ele><time>2026-03-29T09:29:22Z</time></trkpt><trkpt lat="43.24644035509736" lon="12.134381430389615"><ele>439.0</ele><time>2026-03-29T09:29:23Z</time></trkpt><trkpt lat="43.24640747667957" lon="12.134589508794992"><ele>443.4</ele><time>2026-03-29T09:29:25Z</time></trkpt><trkpt lat="43.24633712220286" lon="12.134591166869532"><ele>447.79999999999995</ele><time>2026-03-29T09:29:28Z</time></trkpt><trkpt lat="43.246268045116075" lon="12.13458978868305"><ele>452.20000000000005</ele><time>2026-03-29T09:29:30Z</time></trkpt><trkpt lat="43.24616827125608" lon="12.134602436035308"><ele>456.6</ele><time>2026-03-29T09:29:31Z</time></trkpt><trkpt lat="43.24603525389665" lon="12.1345619247841"><ele>461.0</ele><time>2026-03-29T09:29:32Z</time></trkpt><trkpt lat="43.24589949957749" lon="12.134572186265913"><ele>461.0</ele><time>2026-03-29T09:29:33Z</time></trkpt><trkpt lat="43.24576545699486" lon="12.134567463895237"><ele>461.0</ele><time>2026-03-29T09:29:34Z</time></trkpt><trkpt lat="43.24566259998019" lon="12.13455185125204"><ele>461.0</ele><time>2026-03-29T09:29:35Z</time></trkpt><trkpt lat="43.24557469894181" lon="12.134523984862751"><ele>461.0</ele><time>2026-03-29T09:29:36Z</time></trkpt><trkpt lat="43.24551617782521" lon="12.134487521285584"><ele>461.0</ele><time>2026-03-29T09:29:37Z</time></trkpt><trkpt lat="43.245444065078416" lon="12.134468359448062"><ele>464.66666666666663</ele><time>2026-03-29T09:29:38Z</time></trkpt><trkpt lat="43.245362388295945" lon="12.134494218850728"><ele>468.3333333333333</ele><time>2026-03-29T09:29:39Z</time></trkpt><trkpt lat="43.24526827814169" lon="12.13453846316949"><ele>472.0</ele><time>2026-03-29T09:29:40Z</time></trkpt><trkpt lat="43.24518255282782" lon="12.134561506691856"><ele>475.66666666666663</ele><time>2026-03-29T09:29:41Z</time></trkpt><trkpt lat="43.24509894531575" lon="12.134557509984715"><ele>479.3333333333333</ele><time>2026-03-29T09:29:42Z</time></trkpt><trkpt lat="43.24502538716507" lon="12.134557120544203"><ele>483.0</ele><time>2026-03-29T09:29:43Z</time></trkpt><trkpt lat="43.24495996544859" lon="12.13457524364042"><ele>483.0</ele><time>2026-03-29T09:29:44Z</time></trkpt><trkpt lat="43.24485899724837" lon="12.134622073371906"><ele>482.99999999999994</ele><time>2026-03-29T09:29:46Z</time></trkpt><trkpt lat="43.24478801596737" lon="12.13462736760235"><ele>482.99999999999994</ele><time>2026-03-29T09:29:47Z</time></trkpt><trkpt lat="43.244721095114535" lon="12.134641585772748"><ele>483.0</ele><time>2026-03-29T09:29:48Z</time></trkpt><trkpt lat="43.24459450561915" lon="12.134654785993998"><ele>483.0</ele><time>2026-03-29T09:29:50Z</time></trkpt><trkpt lat="43.244473666696464" lon="12.134680069303661"><ele>488.75</ele><time>2026-03-29T09:29:52Z</time></trkpt><trkpt lat="43.24439245369769" lon="12.134671445094508"><ele>494.5</ele><time>2026-03-29T09:29:53Z</time></trkpt><trkpt lat="43.244276647161385" lon="12.134654109027931"><ele>500.25</ele><time>2026-03-29T09:29:54Z</time></trkpt><trkpt lat="43.2441543217964" lon="12.134639744246268"><ele>506.0</ele><time>2026-03-29T09:29:55Z</time></trkpt><trkpt lat="43.24401101617687" lon="12.13462808602024"><ele>513.5</ele><time>2026-03-29T09:29:56Z</time></trkpt><trkpt lat="43.24387953276051" lon="12.134651780423832"><ele>521.0</ele><time>2026-03-29T09:29:57Z</time></trkpt><trkpt lat="43.24374059937562" lon="12.134656670916074"><ele>528.5</ele><time>2026-03-29T09:29:58Z</time></trkpt><trkpt lat="43.243637964590114" lon="12.134647347603181"><ele>536.0</ele><time>2026-03-29T09:29:59Z</time></trkpt><trkpt lat="43.243551520661356" lon="12.134649011115485"><ele>536.0</ele><time>2026-03-29T09:30:00Z</time></trkpt><trkpt lat="43.243468190983236" lon="12.134644887153401"><ele>536.0</ele><time>2026-03-29T09:30:01Z</time></trkpt><trkpt lat="43.2433917058248" lon="12.134643334916847"><ele>536.0</ele><time>2026-03-29T09:30:02Z</time></trkpt><trkpt lat="43.24331341015753" lon="12.134634147597056"><ele>536.0</ele><time>2026-03-29T09:30:03Z</time></trkpt><trkpt lat="43.243214945074804" lon="12.13458512444561"><ele>536.0</ele><time>2026-03-29T09:30:05Z</time></trkpt><trkpt lat="43.2432836467661" lon="12.134588524844386"><ele>536.0</ele><time>2026-03-29T09:30:55Z</time></trkpt><trkpt lat="43.243377038524734" lon="12.134617214664976"><ele>536.0</ele><time>2026-03-29T09:30:58Z</time></trkpt><trkpt lat="43.24345574225757" lon="12.134650403633959"><ele>536.0</ele><time>2026-03-29T09:31:02Z</time></trkpt><trkpt lat="43.243528690706725" lon="12.13462872571822"><ele>536.0</ele><time>2026-03-29T09:31:04Z</time></trkpt><trkpt lat="43.24346750348218" lon="12.134655979176129"><ele>536.0</ele><time>2026-03-29T09:31:09Z</time></trkpt><trkpt lat="43.24334705115839" lon="12.134627407473252"><ele>536.0</ele><time>2026-03-29T09:31:11Z</time></trkpt><trkpt lat="43.24326086640668" lon="12.134585972789289"><ele>536.0</ele><time>2026-03-29T09:31:13Z</time></trkpt><trkpt lat="43.24319954581207" lon="12.134562739204313"><ele>539.8333333333333</ele><time>2026-03-29T09:31:15Z</time></trkpt><trkpt lat="43.24312623555775" lon="12.134506575581916"><ele>543.6666666666666</ele><time>2026-03-29T09:31:20Z</time></trkpt><trkpt lat="43.243065134926425" lon="12.134474833336517"><ele>547.5</ele><time>2026-03-29T09:31:23Z</time></trkpt><trkpt lat="43.24299035708768" lon="12.134425052196033"><ele>551.3333333333334</ele><time>2026-03-29T09:31:26Z</time></trkpt><trkpt lat="43.24293050491403" lon="12.134376937884804"><ele>555.1666666666667</ele><time>2026-03-29T09:31:30Z</time></trkpt><trkpt lat="43.24286006403678" lon="12.134327382680663"><ele>559.0</ele><time>2026-03-29T09:31:32Z</time></trkpt><trkpt lat="43.24273324845553" lon="12.13427607620612"><ele>559.0</ele><time>2026-03-29T09:31:34Z</time></trkpt><trkpt lat="43.242651911902364" lon="12.134251864115127"><ele>559.0</ele><time>2026-03-29T09:31:35Z</time></trkpt><trkpt lat="43.242562656293316" lon="12.134214467352328"><ele>559.0</ele><time>2026-03-29T09:31:36Z</time></trkpt><trkpt lat="43.24248444842748" lon="12.134160383665117"><ele>559.0</ele><time>2026-03-29T09:31:37Z</time></trkpt><trkpt lat="43.242414018077945" lon="12.134112104451217"><ele>559.0</ele><time>2026-03-29T09:31:38Z</time></trkpt><trkpt lat="43.242351473669096" lon="12.1340717847534"><ele>559.0</ele><time>2026-03-29T09:31:39Z</time></trkpt><trkpt lat="43.24227205467977" lon="12.134051745911295"><ele>562.2</ele><time>2026-03-29T09:31:40Z</time></trkpt><trkpt lat="43.24218037168073" lon="12.13402825692085"><ele>565.4</ele><time>2026-03-29T09:31:41Z</time></trkpt><trkpt lat="43.24209381311136" lon="12.133980678788722"><ele>568.6</ele><time>2026-03-29T09:31:42Z</time></trkpt><trkpt lat="43.24200370022066" lon="12.13392307364821"><ele>571.8</ele><time>2026-03-29T09:31:43Z</time></trkpt><trkpt lat="43.24190604822375" lon="12.13385814743081"><ele>575.0</ele><time>2026-03-29T09:31:44Z</time></trkpt><trkpt lat="43.24181733290233" lon="12.13380992916217"><ele>575.0</ele><time>2026-03-29T09:31:45Z</time></trkpt><trkpt lat="43.24173191823689" lon="12.13378289407904"><ele>575.0</ele><time>2026-03-29T09:31:46Z</time></trkpt><trkpt lat="43.241632824399474" lon="12.133747510201562"><ele>575.0</ele><time>2026-03-29T09:31:47Z</time></trkpt><trkpt lat="43.241535527858126" lon="12.133700058298166"><ele>575.0</ele><time>2026-03-29T09:31:48Z</time></trkpt><trkpt lat="43.24145029952759" lon="12.133669446898717"><ele>575.0</ele><time>2026-03-29T09:31:49Z</time></trkpt><trkpt lat="43.24135742391703" lon="12.133641548177831"><ele>578.8571428571429</ele><time>2026-03-29T09:31:50Z</time></trkpt><trkpt lat="43.24128380642104" lon="12.133614581434927"><ele>582.7142857142857</ele><time>2026-03-29T09:31:51Z</time></trkpt><trkpt lat="43.24121877614491" lon="12.133625008891165"><ele>586.5714285714286</ele><time>2026-03-29T09:31:52Z</time></trkpt><trkpt lat="43.241148309439055" lon="12.133629683393174"><ele>590.4285714285714</ele><time>2026-03-29T09:31:53Z</time></trkpt><trkpt lat="43.24106479609303" lon="12.133643209489716"><ele>594.2857142857142</ele><time>2026-03-29T09:31:54Z</time></trkpt><trkpt lat="43.240993181015284" lon="12.133659923881837"><ele>598.1428571428571</ele><time>2026-03-29T09:31:55Z</time></trkpt><trkpt lat="43.24091981565288" lon="12.133675618127839"><ele>602.0</ele><time>2026-03-29T09:31:56Z</time></trkpt><trkpt lat="43.24079117023537" lon="12.133647180807165"><ele>602.0</ele><time>2026-03-29T09:31:58Z</time></trkpt><trkpt lat="43.2406653516588" lon="12.133587890179598"><ele>602.0</ele><time>2026-03-29T09:32:00Z</time></trkpt><trkpt lat="43.240594073715336" lon="12.133546120568708"><ele>602.0</ele><time>2026-03-29T09:32:01Z</time></trkpt><trkpt lat="43.240521943295704" lon="12.133527582949887"><ele>602.0</ele><time>2026-03-29T09:32:02Z</time></trkpt><trkpt lat="43.240435900231844" lon="12.133494576182668"><ele>602.0</ele><time>2026-03-29T09:32:03Z</time></trkpt><trkpt lat="43.240365170616904" lon="12.133461147101443"><ele>602.0</ele><time>2026-03-29T09:32:04Z</time></trkpt><trkpt lat="43.24027975525772" lon="12.133436631812115"><ele>606.3333333333333</ele><time>2026-03-29T09:32:05Z</time></trkpt><trkpt lat="43.24018707840007" lon="12.133422430236575"><ele>610.6666666666666</ele><time>2026-03-29T09:32:06Z</time></trkpt><trkpt lat="43.24009965335314" lon="12.13340343442904"><ele>615.0</ele><time>2026-03-29T09:32:07Z</time></trkpt><trkpt lat="43.24002579420097" lon="12.133380276480901"><ele>619.3333333333334</ele><time>2026-03-29T09:32:09Z</time></trkpt><trkpt lat="43.23996642182262" lon="12.13331985012879"><ele>623.6666666666667</ele><time>2026-03-29T09:32:53Z</time></trkpt><trkpt lat="43.23990137272573" lon="12.133305168935264"><ele>628.0</ele><time>2026-03-29T09:32:55Z</time></trkpt><trkpt lat="43.239833565590466" lon="12.133298038749585"><ele>631.3333333333334</ele><time>2026-03-29T09:32:56Z</time></trkpt><trkpt lat="43.23977796764797" lon="12.133234338491324"><ele>634.6666666666667</ele><time>2026-03-29T09:32:59Z</time></trkpt><trkpt lat="43.23970150808018" lon="12.133213683247696"><ele>638.0</ele><time>2026-03-29T09:33:04Z</time></trkpt><trkpt lat="43.23962947546499" lon="12.133140306356719"><ele>641.3333333333334</ele><time>2026-03-29T09:33:06Z</time></trkpt><trkpt lat="43.239571472019804" lon="12.133085363195317"><ele>644.6666666666666</ele><time>2026-03-29T09:33:08Z</time></trkpt><trkpt lat="43.23946249226539" lon="12.133012915747328"><ele>648.0</ele><time>2026-03-29T09:33:10Z</time></trkpt><trkpt lat="43.23939451157896" lon="12.133018453875156"><ele>648.5</ele><time>2026-03-29T09:33:11Z</time></trkpt><trkpt lat="43.23931358927681" lon="12.133072916297595"><ele>649.0</ele><time>2026-03-29T09:33:12Z</time></trkpt><trkpt lat="43.239251282642336" lon="12.133108078926828"><ele>649.5</ele><time>2026-03-29T09:33:13Z</time></trkpt><trkpt lat="43.239175899975834" lon="12.133105105956313"><ele>650.0</ele><time>2026-03-29T09:33:14Z</time></trkpt><trkpt lat="43.23906928804935" lon="12.13310128034914"><ele>650.5</ele><time>2026-03-29T09:33:15Z</time></trkpt><trkpt lat="43.238996351306085" lon="12.133091160483316"><ele>651.0</ele><time>2026-03-29T09:33:16Z</time></trkpt><trkpt lat="43.238938577888995" lon="12.132952874902545"><ele>651.8333333333334</ele><time>2026-03-29T09:33:18Z</time></trkpt><trkpt lat="43.23894419015769" lon="12.132857966389173"><ele>652.6666666666666</ele><time>2026-03-29T09:33:19Z</time></trkpt><trkpt lat="43.23889322138811" lon="12.132690451206425"><ele>653.5</ele><time>2026-03-29T09:33:21Z</time></trkpt><trkpt lat="43.23884630769723" lon="12.13260588957966"><ele>654.3333333333333</ele><time>2026-03-29T09:33:22Z</time></trkpt><trkpt lat="43.238786113909384" lon="12.132539495799818"><ele>655.1666666666666</ele><time>2026-03-29T09:33:23Z</time></trkpt><trkpt lat="43.238717414847486" lon="12.132492815274999"><ele>656.0</ele><time>2026-03-29T09:33:24Z</time></trkpt><trkpt lat="43.23861017073569" lon="12.132426100491347"><ele>659.8</ele><time>2026-03-29T09:33:25Z</time></trkpt><trkpt lat="43.23850965177544" lon="12.132368324849779"><ele>663.5999999999999</ele><time>2026-03-29T09:33:26Z</time></trkpt><trkpt lat="43.23842438668769" lon="12.132300362377428"><ele>667.4</ele><time>2026-03-29T09:33:27Z</time></trkpt><trkpt lat="43.23834319351444" lon="12.13224751873042"><ele>671.2</ele><time>2026-03-29T09:33:28Z</time></trkpt><trkpt lat="43.23825350197123" lon="12.132233143178832"><ele>675.0</ele><time>2026-03-29T09:33:29Z</time></trkpt><trkpt lat="43.23815088619804" lon="12.13223210018062"><ele>675.8</ele><time>2026-03-29T09:33:30Z</time></trkpt><trkpt lat="43.23803878706545" lon="12.1322293513169"><ele>676.6</ele><time>2026-03-29T09:33:31Z</time></trkpt><trkpt lat="43.23791714005235" lon="12.132243515940528"><ele>677.4000000000001</ele><time>2026-03-29T09:33:32Z</time></trkpt><trkpt lat="43.237809366893735" lon="12.132233191031668"><ele>678.2</ele><time>2026-03-29T09:33:33Z</time></trkpt><trkpt lat="43.23770698196974" lon="12.132236550992891"><ele>679.0</ele><time>2026-03-29T09:33:34Z</time></trkpt><trkpt lat="43.237594104901675" lon="12.132252819010933"><ele>679.0</ele><time>2026-03-29T09:33:35Z</time></trkpt><trkpt lat="43.23745919467468" lon="12.132299933860917"><ele>679.0</ele><time>2026-03-29T09:33:36Z</time></trkpt><trkpt lat="43.23730200205414" lon="12.132389883459958"><ele>679.0</ele><time>2026-03-29T09:33:37Z</time></trkpt><trkpt lat="43.23716974060929" lon="12.13248182594183"><ele>674.8000000000001</ele><time>2026-03-29T09:33:38Z</time></trkpt><trkpt lat="43.23705319441155" lon="12.132572560520911"><ele>670.6</ele><time>2026-03-29T09:33:39Z</time></trkpt><trkpt lat="43.23699689354069" lon="12.132692782786172"><ele>666.4</ele><time>2026-03-29T09:33:40Z</time></trkpt><trkpt lat="43.236928368386394" lon="12.132742392953803"><ele>662.2</ele><time>2026-03-29T09:33:41Z</time></trkpt><trkpt lat="43.236829679005496" lon="12.132726856301234"><ele>658.0</ele><time>2026-03-29T09:33:42Z</time></trkpt><trkpt lat="43.23674398853136" lon="12.132643201560231"><ele>658.0</ele><time>2026-03-29T09:33:43Z</time></trkpt><trkpt lat="43.23666768294983" lon="12.13258196706551"><ele>658.0</ele><time>2026-03-29T09:33:44Z</time></trkpt><trkpt lat="43.236613769986484" lon="12.132280650509056"><ele>658.0</ele><time>2026-03-29T09:33:45Z</time></trkpt><trkpt lat="43.23648062531281" lon="12.13216668502676"><ele>665.3333333333334</ele><time>2026-03-29T09:33:46Z</time></trkpt><trkpt lat="43.23633948142324" lon="12.132098559872212"><ele>672.6666666666666</ele><time>2026-03-29T09:33:47Z</time></trkpt><trkpt lat="43.23619209781192" lon="12.132013479229967"><ele>680.0</ele><time>2026-03-29T09:33:48Z</time></trkpt><trkpt lat="43.23605968978788" lon="12.131909334931722"><ele>680.0</ele><time>2026-03-29T09:33:49Z</time></trkpt><trkpt lat="43.23594764146002" lon="12.131812260067667"><ele>680.0</ele><time>2026-03-29T09:33:50Z</time></trkpt><trkpt lat="43.23585164131109" lon="12.131774639334886"><ele>680.0</ele><time>2026-03-29T09:33:51Z</time></trkpt><trkpt lat="43.235751819455444" lon="12.131808685338646"><ele>680.0</ele><time>2026-03-29T09:33:52Z</time></trkpt><trkpt lat="43.23568507651561" lon="12.131848859063403"><ele>680.0</ele><time>2026-03-29T09:33:53Z</time></trkpt><trkpt lat="43.23559636214451" lon="12.131852153677114"><ele>684.4</ele><time>2026-03-29T09:33:54Z</time></trkpt><trkpt lat="43.23550196173747" lon="12.131859080908715"><ele>688.8</ele><time>2026-03-29T09:33:55Z</time></trkpt><trkpt lat="43.23540318643068" lon="12.131900442438946"><ele>693.2</ele><time>2026-03-29T09:33:56Z</time></trkpt><trkpt lat="43.235299874215" lon="12.131977765561732"><ele>697.6</ele><time>2026-03-29T09:33:57Z</time></trkpt><trkpt lat="43.23521870713155" lon="12.132021747661327"><ele>702.0</ele><time>2026-03-29T09:33:58Z</time></trkpt><trkpt lat="43.23511401993158" lon="12.132024960415134"><ele>702.0</ele><time>2026-03-29T09:33:59Z</time></trkpt><trkpt lat="43.23497466242005" lon="12.132005332931488"><ele>702.0</ele><time>2026-03-29T09:34:00Z</time></trkpt><trkpt lat="43.23480252114055" lon="12.13200969622917"><ele>702.0</ele><time>2026-03-29T09:34:01Z</time></trkpt><trkpt lat="43.23458137583372" lon="12.132036421554906"><ele>704.75</ele><time>2026-03-29T09:34:02Z</time></trkpt><trkpt lat="43.234380086723206" lon="12.13210459983663"><ele>707.5</ele><time>2026-03-29T09:34:03Z</time></trkpt><trkpt lat="43.23425788026406" lon="12.132148613087773"><ele>710.25</ele><time>2026-03-29T09:34:04Z</time></trkpt><trkpt lat="43.23417895757033" lon="12.132152354787065"><ele>713.0</ele><time>2026-03-29T09:34:05Z</time></trkpt><trkpt lat="43.23410678575411" lon="12.132109202939583"><ele>713.0</ele><time>2026-03-29T09:34:06Z</time></trkpt><trkpt lat="43.23404534167153" lon="12.132027295333922"><ele>713.0</ele><time>2026-03-29T09:34:07Z</time></trkpt><trkpt lat="43.233939321899356" lon="12.131921245112567"><ele>713.0</ele><time>2026-03-29T09:34:08Z</time></trkpt><trkpt lat="43.23376180237487" lon="12.131776356097838"><ele>713.0</ele><time>2026-03-29T09:34:09Z</time></trkpt><trkpt lat="43.23362966277577" lon="12.13167345416181"><ele>713.8</ele><time>2026-03-29T09:34:10Z</time></trkpt><trkpt lat="43.23354248219107" lon="12.131602417645421"><ele>714.5999999999999</ele><time>2026-03-29T09:34:11Z</time></trkpt><trkpt lat="43.23346402632689" lon="12.131576363510604"><ele>715.4000000000001</ele><time>2026-03-29T09:34:12Z</time></trkpt><trkpt lat="43.23339535496104" lon="12.131612698696047"><ele>716.2</ele><time>2026-03-29T09:34:13Z</time></trkpt><trkpt lat="43.23337031857308" lon="12.131719381407171"><ele>717.0</ele><time>2026-03-29T09:34:14Z</time></trkpt><trkpt lat="43.23333625312837" lon="12.131867357918775"><ele>717.0</ele><time>2026-03-29T09:34:15Z</time></trkpt><trkpt lat="43.233290254655" lon="12.1320258271527"><ele>717.0</ele><time>2026-03-29T09:34:16Z</time></trkpt><trkpt lat="43.233231489193706" lon="12.132149819006932"><ele>717.0</ele><time>2026-03-29T09:34:17Z</time></trkpt><trkpt lat="43.23316169270691" lon="12.132230401532379"><ele>717.0</ele><time>2026-03-29T09:34:18Z</time></trkpt><trkpt lat="43.2330776035484" lon="12.13227819562716"><ele>717.0</ele><time>2026-03-29T09:34:19Z</time></trkpt><trkpt lat="43.23298131737658" lon="12.132317875163288"><ele>719.75</ele><time>2026-03-29T09:34:20Z</time></trkpt><trkpt lat="43.23285352306659" lon="12.132299065490473"><ele>722.5</ele><time>2026-03-29T09:34:21Z</time></trkpt><trkpt lat="43.23268762270838" lon="12.132284544372379"><ele>725.25</ele><time>2026-03-29T09:34:22Z</time></trkpt><trkpt lat="43.23256757485555" lon="12.132315353657235"><ele>728.0</ele><time>2026-03-29T09:34:23Z</time></trkpt><trkpt lat="43.23246172812355" lon="12.13237530041724"><ele>726.3333333333333</ele><time>2026-03-29T09:34:24Z</time></trkpt><trkpt lat="43.232277177984585" lon="12.132426863039367"><ele>724.6666666666666</ele><time>2026-03-29T09:34:25Z</time></trkpt><trkpt lat="43.23210681438502" lon="12.132537622492922"><ele>723.0</ele><time>2026-03-29T09:34:26Z</time></trkpt><trkpt lat="43.23194254826338" lon="12.132635327906835"><ele>723.0</ele><time>2026-03-29T09:34:27Z</time></trkpt><trkpt lat="43.23183970635263" lon="12.132683234555147"><ele>723.0</ele><time>2026-03-29T09:34:28Z</time></trkpt><trkpt lat="43.23172777228892" lon="12.132685802011194"><ele>723.0</ele><time>2026-03-29T09:34:29Z</time></trkpt><trkpt lat="43.23160905902144" lon="12.132640150498183"><ele>723.0</ele><time>2026-03-29T09:34:30Z</time></trkpt><trkpt lat="43.23150241303764" lon="12.132556510237704"><ele>723.1666666666666</ele><time>2026-03-29T09:34:31Z</time></trkpt><trkpt lat="43.23140565727449" lon="12.132480256404236"><ele>723.3333333333334</ele><time>2026-03-29T09:34:32Z</time></trkpt><trkpt lat="43.23130192430254" lon="12.1324387174891"><ele>723.5</ele><time>2026-03-29T09:34:33Z</time></trkpt><trkpt lat="43.231219147163195" lon="12.13244521262183"><ele>723.6666666666667</ele><time>2026-03-29T09:34:34Z</time></trkpt><trkpt lat="43.231148345095974" lon="12.132453462974182"><ele>723.8333333333334</ele><time>2026-03-29T09:34:35Z</time></trkpt><trkpt lat="43.23109022453175" lon="12.132519829121339"><ele>724.0</ele><time>2026-03-29T09:34:52Z</time></trkpt><trkpt lat="43.23104874832919" lon="12.132586804023903"><ele>724.0</ele><time>2026-03-29T09:34:54Z</time></trkpt><trkpt lat="43.23101815692306" lon="12.132672178680808"><ele>724.0</ele><time>2026-03-29T09:34:56Z</time></trkpt><trkpt lat="43.23098303196129" lon="12.132769490835742"><ele>724.0</ele><time>2026-03-29T09:34:57Z</time></trkpt><trkpt lat="43.23095129445653" lon="12.132856555469887"><ele>724.0</ele><time>2026-03-29T09:34:58Z</time></trkpt><trkpt lat="43.23093319553773" lon="12.13298352760324"><ele>724.0</ele><time>2026-03-29T09:34:59Z</time></trkpt><trkpt lat="43.230962077917155" lon="12.13324348071537"><ele>724.2</ele><time>2026-03-29T09:35:00Z</time></trkpt><trkpt lat="43.23095952974152" lon="12.13337132819501"><ele>724.4000000000001</ele><time>2026-03-29T09:35:01Z</time></trkpt><trkpt lat="43.23097775927477" lon="12.133515844085737"><ele>724.6</ele><time>2026-03-29T09:35:02Z</time></trkpt><trkpt lat="43.23098867952012" lon="12.133674919378358"><ele>724.8</ele><time>2026-03-29T09:35:03Z</time></trkpt><trkpt lat="43.231010456607734" lon="12.133850110253869"><ele>725.0</ele><time>2026-03-29T09:35:04Z</time></trkpt><trkpt lat="43.231031445386364" lon="12.133982310513197"><ele>725.3333333333333</ele><time>2026-03-29T09:35:05Z</time></trkpt><trkpt lat="43.23105908812727" lon="12.134104606808407"><ele>725.6666666666666</ele><time>2026-03-29T09:35:06Z</time></trkpt><trkpt lat="43.23107508623875" lon="12.134227329614477"><ele>726.0</ele><time>2026-03-29T09:35:07Z</time></trkpt><trkpt lat="43.23109112444037" lon="12.134338366344117"><ele>726.3333333333334</ele><time>2026-03-29T09:35:08Z</time></trkpt><trkpt lat="43.23109797608088" lon="12.134443169364744"><ele>726.6666666666667</ele><time>2026-03-29T09:35:09Z</time></trkpt><trkpt lat="43.23109981835774" lon="12.134547754111681"><ele>727.0</ele><time>2026-03-29T09:35:10Z</time></trkpt><trkpt lat="43.231068874875184" lon="12.134707654754889"><ele>727.0</ele><time>2026-03-29T09:35:11Z</time></trkpt><trkpt lat="43.23108121513459" lon="12.13483928516401"><ele>727.0</ele><time>2026-03-29T09:35:12Z</time></trkpt><trkpt lat="43.23107384587178" lon="12.13498758673285"><ele>727.0</ele><time>2026-03-29T09:35:13Z</time></trkpt><trkpt lat="43.23106441029514" lon="12.135146532319538"><ele>727.0</ele><time>2026-03-29T09:35:14Z</time></trkpt><trkpt lat="43.23104841891964" lon="12.135264128143946"><ele>727.0</ele><time>2026-03-29T09:35:15Z</time></trkpt><trkpt lat="43.23104062985238" lon="12.135391824000205"><ele>725.25</ele><time>2026-03-29T09:35:16Z</time></trkpt><trkpt lat="43.23096581566688" lon="12.135506061339505"><ele>723.5</ele><time>2026-03-29T09:35:17Z</time></trkpt><trkpt lat="43.23086067118358" lon="12.135604525234578"><ele>721.75</ele><time>2026-03-29T09:35:18Z</time></trkpt><trkpt lat="43.23074064377672" lon="12.135626499455425"><ele>720.0</ele><time>2026-03-29T09:35:19Z</time></trkpt><trkpt lat="43.23062351596598" lon="12.135667073186518"><ele>718.5</ele><time>2026-03-29T09:35:20Z</time></trkpt><trkpt lat="43.23051861755046" lon="12.135721910393432"><ele>717.0</ele><time>2026-03-29T09:35:21Z</time></trkpt><trkpt lat="43.230408805933095" lon="12.1357762369855"><ele>715.5</ele><time>2026-03-29T09:35:22Z</time></trkpt><trkpt lat="43.230282388637086" lon="12.135838496984444"><ele>714.0</ele><time>2026-03-29T09:35:23Z</time></trkpt><trkpt lat="43.2301708818057" lon="12.135902406822696"><ele>714.0</ele><time>2026-03-29T09:35:24Z</time></trkpt><trkpt lat="43.2300740999953" lon="12.135971613002813"><ele>714.0</ele><time>2026-03-29T09:35:25Z</time></trkpt><trkpt lat="43.22997090711215" lon="12.136084125859298"><ele>714.0</ele><time>2026-03-29T09:35:26Z</time></trkpt><trkpt lat="43.22988370092488" lon="12.136177475151511"><ele>714.0</ele><time>2026-03-29T09:35:27Z</time></trkpt><trkpt lat="43.22981129640074" lon="12.136261389811072"><ele>714.0</ele><time>2026-03-29T09:35:28Z</time></trkpt><trkpt lat="43.22973001212712" lon="12.136399467659833"><ele>716.5</ele><time>2026-03-29T09:35:29Z</time></trkpt><trkpt lat="43.229668274842936" lon="12.136553756199406"><ele>719.0</ele><time>2026-03-29T09:35:30Z</time></trkpt><trkpt lat="43.22964792889869" lon="12.136721253875717"><ele>721.5</ele><time>2026-03-29T09:35:31Z</time></trkpt><trkpt lat="43.229605883222476" lon="12.136864688344508"><ele>724.0</ele><time>2026-03-29T09:35:32Z</time></trkpt><trkpt lat="43.22958349783365" lon="12.136993494332831"><ele>724.0</ele><time>2026-03-29T09:35:33Z</time></trkpt><trkpt lat="43.22958621783809" lon="12.13708784269839"><ele>724.0</ele><time>2026-03-29T09:35:34Z</time></trkpt><trkpt lat="43.22959488194142" lon="12.137222144124879"><ele>724.0</ele><time>2026-03-29T09:35:35Z</time></trkpt><trkpt lat="43.229566554999856" lon="12.137341309949194"><ele>724.0</ele><time>2026-03-29T09:35:36Z</time></trkpt><trkpt lat="43.229525594834115" lon="12.137499427436895"><ele>724.0</ele><time>2026-03-29T09:35:37Z</time></trkpt><trkpt lat="43.22948600835024" lon="12.1375982729886"><ele>721.2</ele><time>2026-03-29T09:35:38Z</time></trkpt><trkpt lat="43.22945999915333" lon="12.137759153671375"><ele>718.4000000000001</ele><time>2026-03-29T09:35:39Z</time></trkpt><trkpt lat="43.22943776126165" lon="12.137909108835824"><ele>715.6</ele><time>2026-03-29T09:35:40Z</time></trkpt><trkpt lat="43.22943370736592" lon="12.138045926218807"><ele>712.8</ele><time>2026-03-29T09:35:41Z</time></trkpt><trkpt lat="43.22941817715035" lon="12.13818440822604"><ele>710.0</ele><time>2026-03-29T09:35:42Z</time></trkpt><trkpt lat="43.22943336690305" lon="12.138312272789383"><ele>709.3333333333333</ele><time>2026-03-29T09:35:43Z</time></trkpt><trkpt lat="43.22942455169545" lon="12.138404518354067"><ele>708.6666666666666</ele><time>2026-03-29T09:35:44Z</time></trkpt><trkpt lat="43.22945971296304" lon="12.138525492463621"><ele>708.0</ele><time>2026-03-29T09:35:46Z</time></trkpt><trkpt lat="43.229489810462404" lon="12.138609923440281"><ele>707.3333333333334</ele><time>2026-03-29T09:35:47Z</time></trkpt><trkpt lat="43.22953256636046" lon="12.138694058677375"><ele>706.6666666666667</ele><time>2026-03-29T09:35:48Z</time></trkpt><trkpt lat="43.22957140723673" lon="12.138795377204435"><ele>706.0</ele><time>2026-03-29T09:35:49Z</time></trkpt><trkpt lat="43.229608294183706" lon="12.138907089568464"><ele>706.0</ele><time>2026-03-29T09:35:51Z</time></trkpt><trkpt lat="43.22963634392986" lon="12.139015118951722"><ele>706.0</ele><time>2026-03-29T09:36:01Z</time></trkpt><trkpt lat="43.22970028021959" lon="12.13915319767437"><ele>706.0</ele><time>2026-03-29T09:36:03Z</time></trkpt><trkpt lat="43.22978560501185" lon="12.139247851811831"><ele>706.0</ele><time>2026-03-29T09:36:05Z</time></trkpt><trkpt lat="43.229855296733206" lon="12.139309021035931"><ele>706.0</ele><time>2026-03-29T09:36:07Z</time></trkpt><trkpt lat="43.229900300272874" lon="12.139384991455612"><ele>706.4</ele><time>2026-03-29T09:36:08Z</time></trkpt><trkpt lat="43.22995404971489" lon="12.139520006735701"><ele>706.8</ele><time>2026-03-29T09:36:09Z</time></trkpt><trkpt lat="43.23001214128878" lon="12.139622413535141"><ele>707.1999999999999</ele><time>2026-03-29T09:36:10Z</time></trkpt><trkpt lat="43.230060035999934" lon="12.139739919916188"><ele>707.5999999999999</ele><time>2026-03-29T09:36:11Z</time></trkpt><trkpt lat="43.23009619562523" lon="12.139814140499725"><ele>708.0</ele><time>2026-03-29T09:36:12Z</time></trkpt><trkpt lat="43.23015521014795" lon="12.139922225336793"><ele>708.2</ele><time>2026-03-29T09:36:14Z</time></trkpt><trkpt lat="43.23021517758964" lon="12.140040315820283"><ele>708.4</ele><time>2026-03-29T09:36:16Z</time></trkpt><trkpt lat="43.23027388022668" lon="12.14015688048866"><ele>708.6</ele><time>2026-03-29T09:36:18Z</time></trkpt><trkpt lat="43.230326429304476" lon="12.14028616692021"><ele>708.8000000000001</ele><time>2026-03-29T09:36:20Z</time></trkpt><trkpt lat="43.230373993059395" lon="12.140422004099563"><ele>709.0</ele><time>2026-03-29T09:36:22Z</time></trkpt><trkpt lat="43.2303981274562" lon="12.14059037740437"><ele>705.6</ele><time>2026-03-29T09:36:24Z</time></trkpt><trkpt lat="43.23038702483843" lon="12.140727739727575"><ele>702.2</ele><time>2026-03-29T09:36:26Z</time></trkpt><trkpt lat="43.230362364797585" lon="12.140845915801325"><ele>698.8000000000001</ele><time>2026-03-29T09:36:28Z</time></trkpt><trkpt lat="43.23030985075548" lon="12.141053023721533"><ele>695.4000000000001</ele><time>2026-03-29T09:36:31Z</time></trkpt><trkpt lat="43.230281050892884" lon="12.14114300966483"><ele>692.0</ele><time>2026-03-29T09:36:32Z</time></trkpt><trkpt lat="43.230236984177665" lon="12.1412494907579"><ele>692.0</ele><time>2026-03-29T09:36:33Z</time></trkpt><trkpt lat="43.230234172301756" lon="12.141408274554179"><ele>692.0</ele><time>2026-03-29T09:36:34Z</time></trkpt><trkpt lat="43.23020427571296" lon="12.14154401122964"><ele>692.0</ele><time>2026-03-29T09:36:35Z</time></trkpt><trkpt lat="43.23017777749798" lon="12.141682127579134"><ele>692.0</ele><time>2026-03-29T09:36:36Z</time></trkpt><trkpt lat="43.2301550450681" lon="12.14181043272785"><ele>692.0</ele><time>2026-03-29T09:36:37Z</time></trkpt><trkpt lat="43.230130897452085" lon="12.141937315467448"><ele>690.2</ele><time>2026-03-29T09:36:38Z</time></trkpt><trkpt lat="43.23010728339264" lon="12.142054297479376"><ele>688.4000000000001</ele><time>2026-03-29T09:36:39Z</time></trkpt><trkpt lat="43.230079622936515" lon="12.142170808117768"><ele>686.5999999999999</ele><time>2026-03-29T09:36:40Z</time></trkpt><trkpt lat="43.23003441329519" lon="12.142272961148867"><ele>684.8</ele><time>2026-03-29T09:36:41Z</time></trkpt><trkpt lat="43.22997467047608" lon="12.142385667011125"><ele>683.0</ele><time>2026-03-29T09:36:42Z</time></trkpt><trkpt lat="43.229927841984484" lon="12.142497481491151"><ele>681.5999999999999</ele><time>2026-03-29T09:36:43Z</time></trkpt><trkpt lat="43.22990036634793" lon="12.142623904009096"><ele>680.1999999999999</ele><time>2026-03-29T09:36:44Z</time></trkpt><trkpt lat="43.22988239363665" lon="12.142763860282324"><ele>678.8</ele><time>2026-03-29T09:36:45Z</time></trkpt><trkpt lat="43.229863086108686" lon="12.142902576585756"><ele>677.4</ele><time>2026-03-29T09:36:46Z</time></trkpt><trkpt lat="43.229830241950296" lon="12.143040712592157"><ele>676.0</ele><time>2026-03-29T09:36:47Z</time></trkpt><trkpt lat="43.22977444801811" lon="12.143176618415522"><ele>675.25</ele><time>2026-03-29T09:36:48Z</time></trkpt><trkpt lat="43.22970420422096" lon="12.143314259468365"><ele>674.5</ele><time>2026-03-29T09:36:49Z</time></trkpt><trkpt lat="43.22958381230959" lon="12.143479879032512"><ele>673.75</ele><time>2026-03-29T09:36:50Z</time></trkpt><trkpt lat="43.229541806737515" lon="12.143649602070791"><ele>673.0</ele><time>2026-03-29T09:36:51Z</time></trkpt><trkpt lat="43.229513481943066" lon="12.14379687775776"><ele>673.0</ele><time>2026-03-29T09:36:52Z</time></trkpt><trkpt lat="43.2294663311944" lon="12.143889715342318"><ele>673.0</ele><time>2026-03-29T09:36:53Z</time></trkpt><trkpt lat="43.229439058375995" lon="12.144021798837361"><ele>673.0</ele><time>2026-03-29T09:36:55Z</time></trkpt><trkpt lat="43.22946921062259" lon="12.14411153551554"><ele>673.0</ele><time>2026-03-29T09:36:56Z</time></trkpt><trkpt lat="43.22954453140375" lon="12.144229983588383"><ele>673.0</ele><time>2026-03-29T09:36:58Z</time></trkpt><trkpt lat="43.22958465251925" lon="12.144375586690117"><ele>674.5</ele><time>2026-03-29T09:37:00Z</time></trkpt><trkpt lat="43.229530295548834" lon="12.144533223886897"><ele>676.0</ele><time>2026-03-29T09:37:02Z</time></trkpt><trkpt lat="43.229511319592966" lon="12.144640286412775"><ele>677.5</ele><time>2026-03-29T09:37:03Z</time></trkpt><trkpt lat="43.22949236690934" lon="12.144742308512605"><ele>679.0</ele><time>2026-03-29T09:37:04Z</time></trkpt><trkpt lat="43.229474609998256" lon="12.144850172186246"><ele>680.5</ele><time>2026-03-29T09:37:05Z</time></trkpt><trkpt lat="43.22946517147907" lon="12.14495116771374"><ele>682.0</ele><time>2026-03-29T09:37:06Z</time></trkpt><trkpt lat="43.22949295359526" lon="12.145043504796078"><ele>684.4000000000001</ele><time>2026-03-29T09:37:07Z</time></trkpt><trkpt lat="43.22954346113907" lon="12.145137794447468"><ele>686.8000000000001</ele><time>2026-03-29T09:37:08Z</time></trkpt><trkpt lat="43.22957243920594" lon="12.145235652750578"><ele>689.2</ele><time>2026-03-29T09:37:09Z</time></trkpt><trkpt lat="43.22956714498167" lon="12.145324729679762"><ele>691.6</ele><time>2026-03-29T09:37:10Z</time></trkpt><trkpt lat="43.2295623977925" lon="12.145508689532647"><ele>694.0</ele><time>2026-03-29T09:37:12Z</time></trkpt><trkpt lat="43.22956634894751" lon="12.145637842799344"><ele>694.5</ele><time>2026-03-29T09:37:13Z</time></trkpt><trkpt lat="43.22958214113698" lon="12.14581315101152"><ele>695.0</ele><time>2026-03-29T09:37:14Z</time></trkpt><trkpt lat="43.229590425956886" lon="12.145992321681204"><ele>695.5</ele><time>2026-03-29T09:37:15Z</time></trkpt><trkpt lat="43.229593879409904" lon="12.146170597953109"><ele>696.0</ele><time>2026-03-29T09:37:16Z</time></trkpt><trkpt lat="43.22961896890828" lon="12.146332147328753"><ele>696.0</ele><time>2026-03-29T09:37:17Z</time></trkpt><trkpt lat="43.229643611441496" lon="12.146495967697241"><ele>696.0</ele><time>2026-03-29T09:37:18Z</time></trkpt><trkpt lat="43.229684380690806" lon="12.146634469462597"><ele>696.0</ele><time>2026-03-29T09:37:19Z</time></trkpt><trkpt lat="43.229730732056936" lon="12.146745872296583"><ele>696.0</ele><time>2026-03-29T09:37:20Z</time></trkpt><trkpt lat="43.229747662409565" lon="12.146848329370652"><ele>696.0</ele><time>2026-03-29T09:37:21Z</time></trkpt><trkpt lat="43.229753233778375" lon="12.146968830171803"><ele>695.8</ele><time>2026-03-29T09:37:22Z</time></trkpt><trkpt lat="43.22973830061495" lon="12.147085849896479"><ele>695.5999999999999</ele><time>2026-03-29T09:37:23Z</time></trkpt><trkpt lat="43.22975169301433" lon="12.147201851773477"><ele>695.4</ele><time>2026-03-29T09:37:24Z</time></trkpt><trkpt lat="43.22979638585454" lon="12.147323551065476"><ele>695.2</ele><time>2026-03-29T09:37:25Z</time></trkpt><trkpt lat="43.22983071867502" lon="12.147440276228645"><ele>695.0</ele><time>2026-03-29T09:37:26Z</time></trkpt><trkpt lat="43.22986061359993" lon="12.147558772448582"><ele>695.0</ele><time>2026-03-29T09:37:27Z</time></trkpt><trkpt lat="43.229885148126684" lon="12.147685690517282"><ele>695.0</ele><time>2026-03-29T09:37:28Z</time></trkpt><trkpt lat="43.22992741448192" lon="12.147809941819672"><ele>695.0</ele><time>2026-03-29T09:37:29Z</time></trkpt><trkpt lat="43.229983135404744" lon="12.147928454796963"><ele>695.0</ele><time>2026-03-29T09:37:30Z</time></trkpt><trkpt lat="43.2300168128148" lon="12.148081165593569"><ele>695.0</ele><time>2026-03-29T09:37:31Z</time></trkpt><trkpt lat="43.23005005324123" lon="12.148245479833198"><ele>694.0</ele><time>2026-03-29T09:37:32Z</time></trkpt><trkpt lat="43.2301734042734" lon="12.148369133520815"><ele>693.0</ele><time>2026-03-29T09:37:33Z</time></trkpt><trkpt lat="43.230226581764356" lon="12.148542369038898"><ele>692.0</ele><time>2026-03-29T09:37:34Z</time></trkpt><trkpt lat="43.23030133877241" lon="12.148721035707034"><ele>691.0</ele><time>2026-03-29T09:37:35Z</time></trkpt><trkpt lat="43.23037222315419" lon="12.148889560760717"><ele>692.3333333333334</ele><time>2026-03-29T09:37:36Z</time></trkpt><trkpt lat="43.23044333858183" lon="12.149082805518264"><ele>693.6666666666666</ele><time>2026-03-29T09:37:37Z</time></trkpt><trkpt lat="43.23051752800017" lon="12.149285272170392"><ele>695.0</ele><time>2026-03-29T09:37:38Z</time></trkpt><trkpt lat="43.23061192464567" lon="12.149486902286052"><ele>694.3333333333333</ele><time>2026-03-29T09:37:39Z</time></trkpt><trkpt lat="43.230708360924524" lon="12.149676038385842"><ele>693.6666666666666</ele><time>2026-03-29T09:37:40Z</time></trkpt><trkpt lat="43.230804666554526" lon="12.149864867890498"><ele>693.0</ele><time>2026-03-29T09:37:41Z</time></trkpt><trkpt lat="43.23086613132292" lon="12.150027195061018"><ele>693.0</ele><time>2026-03-29T09:37:42Z</time></trkpt><trkpt lat="43.230923609799085" lon="12.150174683999825"><ele>693.0</ele><time>2026-03-29T09:37:43Z</time></trkpt><trkpt lat="43.23100501480319" lon="12.150302324247182"><ele>693.0</ele><time>2026-03-29T09:37:44Z</time></trkpt><trkpt lat="43.23107322728844" lon="12.150404264730716"><ele>693.0</ele><time>2026-03-29T09:37:45Z</time></trkpt><trkpt lat="43.23113314364832" lon="12.150516457773007"><ele>693.0</ele><time>2026-03-29T09:37:46Z</time></trkpt><trkpt lat="43.231178757353334" lon="12.15064471010999"><ele>692.2</ele><time>2026-03-29T09:37:47Z</time></trkpt><trkpt lat="43.231195643406835" lon="12.150777494525398"><ele>691.4</ele><time>2026-03-29T09:37:48Z</time></trkpt><trkpt lat="43.23116162984334" lon="12.15091152936661"><ele>690.6</ele><time>2026-03-29T09:37:49Z</time></trkpt><trkpt lat="43.23108453461043" lon="12.15101125273435"><ele>689.8000000000001</ele><time>2026-03-29T09:37:50Z</time></trkpt><trkpt lat="43.23097751041852" lon="12.151067427104957"><ele>689.0</ele><time>2026-03-29T09:37:51Z</time></trkpt><trkpt lat="43.23086653696071" lon="12.151107039084788"><ele>689.0</ele><time>2026-03-29T09:37:52Z</time></trkpt><trkpt lat="43.230773596023916" lon="12.151137724893927"><ele>689.0</ele><time>2026-03-29T09:37:53Z</time></trkpt><trkpt lat="43.230692320692555" lon="12.151146708383948"><ele>689.0</ele><time>2026-03-29T09:37:54Z</time></trkpt><trkpt lat="43.23061915557371" lon="12.15117266593283"><ele>689.0</ele><time>2026-03-29T09:37:55Z</time></trkpt><trkpt lat="43.23056018539886" lon="12.151214592953227"><ele>689.0</ele><time>2026-03-29T09:37:56Z</time></trkpt><trkpt lat="43.23053270301507" lon="12.151299334371148"><ele>689.0</ele><time>2026-03-29T09:37:57Z</time></trkpt><trkpt lat="43.23054486440729" lon="12.151402502115365"><ele>686.8000000000001</ele><time>2026-03-29T09:37:58Z</time></trkpt><trkpt lat="43.230579870210356" lon="12.151515895020319"><ele>684.6</ele><time>2026-03-29T09:37:59Z</time></trkpt><trkpt lat="43.230615693341015" lon="12.151646138361697"><ele>682.4</ele><time>2026-03-29T09:38:00Z</time></trkpt><trkpt lat="43.230621424524976" lon="12.151781549155452"><ele>680.2</ele><time>2026-03-29T09:38:01Z</time></trkpt><trkpt lat="43.23060797630498" lon="12.151937573509136"><ele>678.0</ele><time>2026-03-29T09:38:02Z</time></trkpt><trkpt lat="43.23057273325621" lon="12.152083256606758"><ele>675.75</ele><time>2026-03-29T09:38:03Z</time></trkpt><trkpt lat="43.23055173142062" lon="12.152256897079962"><ele>673.5</ele><time>2026-03-29T09:38:04Z</time></trkpt><trkpt lat="43.23056102084794" lon="12.152445776112483"><ele>671.25</ele><time>2026-03-29T09:38:05Z</time></trkpt><trkpt lat="43.230581458471846" lon="12.15264954169181"><ele>669.0</ele><time>2026-03-29T09:38:06Z</time></trkpt><trkpt lat="43.230601709006535" lon="12.152847318377905"><ele>669.0</ele><time>2026-03-29T09:38:07Z</time></trkpt><trkpt lat="43.230620857364336" lon="12.153051564306072"><ele>669.0</ele><time>2026-03-29T09:38:08Z</time></trkpt><trkpt lat="43.23064274960965" lon="12.153244505626198"><ele>669.0</ele><time>2026-03-29T09:38:09Z</time></trkpt><trkpt lat="43.23067253327253" lon="12.153425106730818"><ele>669.0</ele><time>2026-03-29T09:38:10Z</time></trkpt><trkpt lat="43.23068317797308" lon="12.153604513767041"><ele>668.4000000000001</ele><time>2026-03-29T09:38:11Z</time></trkpt><trkpt lat="43.23069634865533" lon="12.153767736448591"><ele>667.8</ele><time>2026-03-29T09:38:12Z</time></trkpt><trkpt lat="43.23071219240933" lon="12.15391087114382"><ele>667.2</ele><time>2026-03-29T09:38:13Z</time></trkpt><trkpt lat="43.230724121993305" lon="12.154031316796903"><ele>666.5999999999999</ele><time>2026-03-29T09:38:14Z</time></trkpt><trkpt lat="43.23072536069313" lon="12.154136342795148"><ele>666.0</ele><time>2026-03-29T09:38:15Z</time></trkpt><trkpt lat="43.230698922775" lon="12.154246339462734"><ele>664.25</ele><time>2026-03-29T09:38:16Z</time></trkpt><trkpt lat="43.23063904862056" lon="12.154366717580965"><ele>662.5</ele><time>2026-03-29T09:38:17Z</time></trkpt><trkpt lat="43.230548702457305" lon="12.154522963953196"><ele>660.75</ele><time>2026-03-29T09:38:18Z</time></trkpt><trkpt lat="43.23045507226731" lon="12.154656212358317"><ele>659.0</ele><time>2026-03-29T09:38:19Z</time></trkpt><trkpt lat="43.230377851131585" lon="12.154773102186406"><ele>656.6666666666666</ele><time>2026-03-29T09:38:20Z</time></trkpt><trkpt lat="43.23032378504412" lon="12.154940511896577"><ele>654.3333333333334</ele><time>2026-03-29T09:38:21Z</time></trkpt><trkpt lat="43.23028391704709" lon="12.155149028703958"><ele>652.0</ele><time>2026-03-29T09:38:22Z</time></trkpt><trkpt lat="43.23023512482611" lon="12.155386802537736"><ele>652.0</ele><time>2026-03-29T09:38:23Z</time></trkpt><trkpt lat="43.230174338362474" lon="12.155601348893065"><ele>652.0</ele><time>2026-03-29T09:38:24Z</time></trkpt><trkpt lat="43.23008476108874" lon="12.155796839714112"><ele>652.0</ele><time>2026-03-29T09:38:25Z</time></trkpt><trkpt lat="43.230028733986245" lon="12.155996678418637"><ele>653.0</ele><time>2026-03-29T09:38:26Z</time></trkpt><trkpt lat="43.22997799970375" lon="12.156179728712456"><ele>654.0</ele><time>2026-03-29T09:38:27Z</time></trkpt><trkpt lat="43.22993113440894" lon="12.156349771354103"><ele>655.0</ele><time>2026-03-29T09:38:28Z</time></trkpt><trkpt lat="43.22989799687992" lon="12.156513903226191"><ele>656.0</ele><time>2026-03-29T09:38:29Z</time></trkpt><trkpt lat="43.22983235241161" lon="12.15663395148165"><ele>656.1999999999999</ele><time>2026-03-29T09:38:30Z</time></trkpt><trkpt lat="43.22978916023613" lon="12.156770496633737"><ele>656.4</ele><time>2026-03-29T09:38:31Z</time></trkpt><trkpt lat="43.22977908364722" lon="12.156920763911055"><ele>656.6</ele><time>2026-03-29T09:38:32Z</time></trkpt><trkpt lat="43.22978026595578" lon="12.15705966096326"><ele>656.8</ele><time>2026-03-29T09:38:33Z</time></trkpt><trkpt lat="43.229793435547904" lon="12.157193503971973"><ele>657.0</ele><time>2026-03-29T09:38:34Z</time></trkpt><trkpt lat="43.22982222181488" lon="12.157320204271766"><ele>655.0</ele><time>2026-03-29T09:38:35Z</time></trkpt><trkpt lat="43.22985237086414" lon="12.157428331434811"><ele>653.0</ele><time>2026-03-29T09:38:36Z</time></trkpt><trkpt lat="43.22988205617657" lon="12.157528586995134"><ele>651.0</ele><time>2026-03-29T09:38:37Z</time></trkpt><trkpt lat="43.22990939736349" lon="12.157621781219712"><ele>649.0</ele><time>2026-03-29T09:38:38Z</time></trkpt><trkpt lat="43.229929720258944" lon="12.15771637117545"><ele>647.0</ele><time>2026-03-29T09:38:39Z</time></trkpt><trkpt lat="43.22992762192098" lon="12.157807559145887"><ele>645.0</ele><time>2026-03-29T09:38:40Z</time></trkpt><trkpt lat="43.229910931447066" lon="12.157942995351261"><ele>645.0</ele><time>2026-03-29T09:38:42Z</time></trkpt><trkpt lat="43.22987408429292" lon="12.158074946445062"><ele>645.0</ele><time>2026-03-29T09:38:44Z</time></trkpt><trkpt lat="43.22985759634091" lon="12.158189275613877"><ele>645.0</ele><time>2026-03-29T09:38:45Z</time></trkpt><trkpt lat="43.229803059472154" lon="12.158307024917777"><ele>645.0</ele><time>2026-03-29T09:38:46Z</time></trkpt><trkpt lat="43.22976625826828" lon="12.158404848778957"><ele>645.0</ele><time>2026-03-29T09:38:47Z</time></trkpt><trkpt lat="43.22973341032669" lon="12.158479541701078"><ele>645.0</ele><time>2026-03-29T09:38:48Z</time></trkpt><trkpt lat="43.229663507481256" lon="12.158578772513076"><ele>643.1666666666666</ele><time>2026-03-29T09:38:50Z</time></trkpt><trkpt lat="43.22957840679811" lon="12.15866313134842"><ele>641.3333333333334</ele><time>2026-03-29T09:38:52Z</time></trkpt><trkpt lat="43.22955904535378" lon="12.158746339009927"><ele>639.5</ele><time>2026-03-29T09:38:55Z</time></trkpt><trkpt lat="43.229499129183395" lon="12.158806110601303"><ele>637.6666666666667</ele><time>2026-03-29T09:39:02Z</time></trkpt><trkpt lat="43.22943602105286" lon="12.158847791816"><ele>635.8333333333334</ele><time>2026-03-29T09:39:03Z</time></trkpt><trkpt lat="43.229357676567645" lon="12.158883732825032"><ele>634.0</ele><time>2026-03-29T09:39:04Z</time></trkpt><trkpt lat="43.22927980706645" lon="12.158962536416785"><ele>635.4</ele><time>2026-03-29T09:39:05Z</time></trkpt><trkpt lat="43.22922163357928" lon="12.159077830738433"><ele>636.8</ele><time>2026-03-29T09:39:06Z</time></trkpt><trkpt lat="43.229194468801765" lon="12.15919376571766"><ele>638.1999999999999</ele><time>2026-03-29T09:39:07Z</time></trkpt><trkpt lat="43.22918483655608" lon="12.159362650592572"><ele>639.5999999999999</ele><time>2026-03-29T09:39:08Z</time></trkpt><trkpt lat="43.22917104721144" lon="12.159523050534025"><ele>641.0</ele><time>2026-03-29T09:39:09Z</time></trkpt><trkpt lat="43.22915619046331" lon="12.159660663977766"><ele>641.0</ele><time>2026-03-29T09:39:10Z</time></trkpt><trkpt lat="43.22911738748424" lon="12.159837795877557"><ele>641.0</ele><time>2026-03-29T09:39:11Z</time></trkpt><trkpt lat="43.2290714000118" lon="12.159969029792533"><ele>641.0</ele><time>2026-03-29T09:39:12Z</time></trkpt><trkpt lat="43.22900723871701" lon="12.160096145666376"><ele>641.0</ele><time>2026-03-29T09:39:13Z</time></trkpt><trkpt lat="43.22892295011715" lon="12.160203135786544"><ele>639.5</ele><time>2026-03-29T09:39:14Z</time></trkpt><trkpt lat="43.22881578018843" lon="12.160252969986518"><ele>638.0</ele><time>2026-03-29T09:39:15Z</time></trkpt><trkpt lat="43.22870091325523" lon="12.160333007689605"><ele>636.5</ele><time>2026-03-29T09:39:16Z</time></trkpt><trkpt lat="43.228600670380104" lon="12.1604345234952"><ele>635.0</ele><time>2026-03-29T09:39:17Z</time></trkpt><trkpt lat="43.22851486554056" lon="12.160546835357504"><ele>635.0</ele><time>2026-03-29T09:39:18Z</time></trkpt><trkpt lat="43.22845332952629" lon="12.160671194582209"><ele>635.0</ele><time>2026-03-29T09:39:19Z</time></trkpt><trkpt lat="43.22842947989812" lon="12.160816945478155"><ele>635.0</ele><time>2026-03-29T09:39:20Z</time></trkpt><trkpt lat="43.228412555280855" lon="12.160957707836635"><ele>635.0</ele><time>2026-03-29T09:39:21Z</time></trkpt><trkpt lat="43.228412042431145" lon="12.161113988704116"><ele>635.0</ele><time>2026-03-29T09:39:22Z</time></trkpt><trkpt lat="43.22842281584852" lon="12.1612953518289"><ele>637.2</ele><time>2026-03-29T09:39:23Z</time></trkpt><trkpt lat="43.22842694961147" lon="12.161484772085734"><ele>639.4</ele><time>2026-03-29T09:39:24Z</time></trkpt><trkpt lat="43.22842466391047" lon="12.161639522136657"><ele>641.5999999999999</ele><time>2026-03-29T09:39:25Z</time></trkpt><trkpt lat="43.22841961076024" lon="12.161776496208455"><ele>643.8</ele><time>2026-03-29T09:39:26Z</time></trkpt><trkpt lat="43.22840935972089" lon="12.161905378929339"><ele>646.0</ele><time>2026-03-29T09:39:27Z</time></trkpt><trkpt lat="43.22836183112084" lon="12.162007437771118"><ele>645.8</ele><time>2026-03-29T09:39:28Z</time></trkpt><trkpt lat="43.22827222362088" lon="12.162045723271467"><ele>645.5999999999999</ele><time>2026-03-29T09:39:29Z</time></trkpt><trkpt lat="43.2281846871074" lon="12.162087996513739"><ele>645.4</ele><time>2026-03-29T09:39:30Z</time></trkpt><trkpt lat="43.22808149513343" lon="12.162164371969338"><ele>645.2</ele><time>2026-03-29T09:39:31Z</time></trkpt><trkpt lat="43.22796427032168" lon="12.162251133595209"><ele>645.0</ele><time>2026-03-29T09:39:32Z</time></trkpt><trkpt lat="43.227843268433155" lon="12.162362373045822"><ele>645.25</ele><time>2026-03-29T09:39:33Z</time></trkpt><trkpt lat="43.22771614436904" lon="12.162464850504502"><ele>645.5</ele><time>2026-03-29T09:39:34Z</time></trkpt><trkpt lat="43.22758225235822" lon="12.16253105583928"><ele>645.75</ele><time>2026-03-29T09:39:35Z</time></trkpt><trkpt lat="43.22746254065035" lon="12.162606064965235"><ele>646.0</ele><time>2026-03-29T09:39:36Z</time></trkpt><trkpt lat="43.227355159967196" lon="12.162695491694402"><ele>643.8</ele><time>2026-03-29T09:39:37Z</time></trkpt><trkpt lat="43.22725317885008" lon="12.162753352976353"><ele>641.5999999999999</ele><time>2026-03-29T09:39:38Z</time></trkpt><trkpt lat="43.22714791382305" lon="12.162811876750695"><ele>639.4</ele><time>2026-03-29T09:39:39Z</time></trkpt><trkpt lat="43.22704030228749" lon="12.162864878566701"><ele>637.2</ele><time>2026-03-29T09:39:40Z</time></trkpt><trkpt lat="43.226937113835305" lon="12.162863595069128"><ele>635.0</ele><time>2026-03-29T09:39:41Z</time></trkpt><trkpt lat="43.22684559379523" lon="12.162830826522542"><ele>635.0</ele><time>2026-03-29T09:39:42Z</time></trkpt><trkpt lat="43.226733869507456" lon="12.162794578068068"><ele>635.0</ele><time>2026-03-29T09:39:43Z</time></trkpt><trkpt lat="43.22661546269583" lon="12.162751686482764"><ele>635.0</ele><time>2026-03-29T09:39:44Z</time></trkpt><trkpt lat="43.22647993008763" lon="12.162698955719929"><ele>635.0</ele><time>2026-03-29T09:39:45Z</time></trkpt><trkpt lat="43.226324995926525" lon="12.162634974123417"><ele>632.75</ele><time>2026-03-29T09:39:46Z</time></trkpt><trkpt lat="43.226182201947935" lon="12.162576486897452"><ele>630.5</ele><time>2026-03-29T09:39:47Z</time></trkpt><trkpt lat="43.22604074597266" lon="12.162523002833748"><ele>628.25</ele><time>2026-03-29T09:39:48Z</time></trkpt><trkpt lat="43.22590069071305" lon="12.162488607107434"><ele>626.0</ele><time>2026-03-29T09:39:49Z</time></trkpt><trkpt lat="43.22575936022782" lon="12.162419631432327"><ele>624.0</ele><time>2026-03-29T09:39:50Z</time></trkpt><trkpt lat="43.22561467115011" lon="12.162369763408142"><ele>622.0</ele><time>2026-03-29T09:39:51Z</time></trkpt><trkpt lat="43.225468881906025" lon="12.162321535292396"><ele>620.0</ele><time>2026-03-29T09:39:52Z</time></trkpt><trkpt lat="43.22532478550692" lon="12.162293461148144"><ele>618.0</ele><time>2026-03-29T09:39:53Z</time></trkpt><trkpt lat="43.22520284274412" lon="12.162245908294793"><ele>616.75</ele><time>2026-03-29T09:39:54Z</time></trkpt><trkpt lat="43.22507790220626" lon="12.162243495928621"><ele>615.5</ele><time>2026-03-29T09:39:55Z</time></trkpt><trkpt lat="43.22496405355671" lon="12.162244049377602"><ele>614.25</ele><time>2026-03-29T09:39:56Z</time></trkpt><trkpt lat="43.22484752476861" lon="12.162236292694477"><ele>613.0</ele><time>2026-03-29T09:39:57Z</time></trkpt><trkpt lat="43.22473768710531" lon="12.162235185950394"><ele>611.4</ele><time>2026-03-29T09:39:58Z</time></trkpt><trkpt lat="43.224630072276675" lon="12.16222543293409"><ele>609.8</ele><time>2026-03-29T09:39:59Z</time></trkpt><trkpt lat="43.2245197657928" lon="12.162209214070517"><ele>608.2</ele><time>2026-03-29T09:40:00Z</time></trkpt><trkpt lat="43.22441368371152" lon="12.162187058405264"><ele>606.6</ele><time>2026-03-29T09:40:01Z</time></trkpt><trkpt lat="43.22430026930248" lon="12.162170708909171"><ele>605.0</ele><time>2026-03-29T09:40:02Z</time></trkpt><trkpt lat="43.22418715605873" lon="12.162170739127106"><ele>605.0</ele><time>2026-03-29T09:40:03Z</time></trkpt><trkpt lat="43.224064401620694" lon="12.162205946367655"><ele>605.0</ele><time>2026-03-29T09:40:04Z</time></trkpt><trkpt lat="43.22393651102614" lon="12.162227463204594"><ele>605.0</ele><time>2026-03-29T09:40:05Z</time></trkpt><trkpt lat="43.223814234006895" lon="12.162249287585643"><ele>605.0</ele><time>2026-03-29T09:40:06Z</time></trkpt><trkpt lat="43.22369791576915" lon="12.16226839931663"><ele>602.5</ele><time>2026-03-29T09:40:07Z</time></trkpt><trkpt lat="43.22357365103731" lon="12.162288311818175"><ele>600.0</ele><time>2026-03-29T09:40:08Z</time></trkpt><trkpt lat="43.22345208364319" lon="12.162306545470338"><ele>597.5</ele><time>2026-03-29T09:40:09Z</time></trkpt><trkpt lat="43.22332935710845" lon="12.162323640041198"><ele>595.0</ele><time>2026-03-29T09:40:10Z</time></trkpt><trkpt lat="43.22319348574587" lon="12.162350734669067"><ele>594.25</ele><time>2026-03-29T09:40:11Z</time></trkpt><trkpt lat="43.223064117677595" lon="12.162346882022135"><ele>593.5</ele><time>2026-03-29T09:40:12Z</time></trkpt><trkpt lat="43.222940556319344" lon="12.162367522686834"><ele>592.75</ele><time>2026-03-29T09:40:13Z</time></trkpt><trkpt lat="43.22281498678552" lon="12.162394585395495"><ele>592.0</ele><time>2026-03-29T09:40:14Z</time></trkpt><trkpt lat="43.22268517145363" lon="12.162437965475442"><ele>592.0</ele><time>2026-03-29T09:40:15Z</time></trkpt><trkpt lat="43.222575132814036" lon="12.162475645748941"><ele>592.0</ele><time>2026-03-29T09:40:16Z</time></trkpt><trkpt lat="43.222467234120735" lon="12.162502698887424"><ele>592.0</ele><time>2026-03-29T09:40:17Z</time></trkpt><trkpt lat="43.22236636660537" lon="12.162533306379814"><ele>592.0</ele><time>2026-03-29T09:40:18Z</time></trkpt><trkpt lat="43.2222953447165" lon="12.162561351465763"><ele>592.0</ele><time>2026-03-29T09:40:19Z</time></trkpt><trkpt lat="43.222232400627846" lon="12.162586433859781"><ele>590.6</ele><time>2026-03-29T09:40:20Z</time></trkpt><trkpt lat="43.222164474076614" lon="12.162572964763225"><ele>589.2</ele><time>2026-03-29T09:40:21Z</time></trkpt><trkpt lat="43.222054213069356" lon="12.162526745788815"><ele>587.8</ele><time>2026-03-29T09:40:23Z</time></trkpt><trkpt lat="43.22197690061697" lon="12.162509055760088"><ele>586.4</ele><time>2026-03-29T09:40:24Z</time></trkpt><trkpt lat="43.22186795653036" lon="12.162715598378856"><ele>585.0</ele><time>2026-03-29T09:40:25Z</time></trkpt><trkpt lat="43.221764246287556" lon="12.162745376746278"><ele>585.0</ele><time>2026-03-29T09:40:26Z</time></trkpt><trkpt lat="43.22163507243388" lon="12.162747502258028"><ele>585.0</ele><time>2026-03-29T09:40:27Z</time></trkpt><trkpt lat="43.22151626070466" lon="12.162760441613749"><ele>585.0</ele><time>2026-03-29T09:40:28Z</time></trkpt><trkpt lat="43.22140512169545" lon="12.162807138332742"><ele>585.0</ele><time>2026-03-29T09:40:29Z</time></trkpt><trkpt lat="43.22128912493604" lon="12.162846771587725"><ele>583.2</ele><time>2026-03-29T09:40:30Z</time></trkpt><trkpt lat="43.22117660493729" lon="12.162880394053925"><ele>581.4</ele><time>2026-03-29T09:40:31Z</time></trkpt><trkpt lat="43.22106773281891" lon="12.162922009118306"><ele>579.6</ele><time>2026-03-29T09:40:32Z</time></trkpt><trkpt lat="43.22095929186469" lon="12.162961356342159"><ele>577.8</ele><time>2026-03-29T09:40:33Z</time></trkpt><trkpt lat="43.2208583979048" lon="12.163007101524638"><ele>576.0</ele><time>2026-03-29T09:40:34Z</time></trkpt><trkpt lat="43.220776585980815" lon="12.163087937763287"><ele>576.0</ele><time>2026-03-29T09:40:35Z</time></trkpt><trkpt lat="43.2207171493878" lon="12.16318949056122"><ele>576.0</ele><time>2026-03-29T09:40:36Z</time></trkpt><trkpt lat="43.220690479257144" lon="12.163279899781937"><ele>576.0</ele><time>2026-03-29T09:40:37Z</time></trkpt><trkpt lat="43.220685982203406" lon="12.163379886333171"><ele>576.0</ele><time>2026-03-29T09:40:38Z</time></trkpt><trkpt lat="43.22065879034378" lon="12.16348301307742"><ele>576.0</ele><time>2026-03-29T09:40:39Z</time></trkpt><trkpt lat="43.220666015150684" lon="12.163612979140046"><ele>576.0</ele><time>2026-03-29T09:40:40Z</time></trkpt><trkpt lat="43.220699465461294" lon="12.163745945534574"><ele>576.8</ele><time>2026-03-29T09:40:41Z</time></trkpt><trkpt lat="43.22073302535356" lon="12.163867377645964"><ele>577.6</ele><time>2026-03-29T09:40:42Z</time></trkpt><trkpt lat="43.22076951101427" lon="12.163977575208374"><ele>578.4</ele><time>2026-03-29T09:40:43Z</time></trkpt><trkpt lat="43.2208336067587" lon="12.164091853004908"><ele>579.2</ele><time>2026-03-29T09:40:44Z</time></trkpt><trkpt lat="43.220903574658" lon="12.164185360189089"><ele>580.0</ele><time>2026-03-29T09:40:45Z</time></trkpt><trkpt lat="43.220987896738954" lon="12.164248577247056"><ele>578.6666666666667</ele><time>2026-03-29T09:40:46Z</time></trkpt><trkpt lat="43.22107029874329" lon="12.164327633132366"><ele>577.3333333333334</ele><time>2026-03-29T09:40:47Z</time></trkpt><trkpt lat="43.22113055301031" lon="12.164415037157791"><ele>576.0</ele><time>2026-03-29T09:40:48Z</time></trkpt><trkpt lat="43.22118930794648" lon="12.164507656704236"><ele>574.6666666666666</ele><time>2026-03-29T09:40:49Z</time></trkpt><trkpt lat="43.22124367790837" lon="12.164601100803342"><ele>573.3333333333333</ele><time>2026-03-29T09:40:50Z</time></trkpt><trkpt lat="43.221301871285156" lon="12.164676668535543"><ele>572.0</ele><time>2026-03-29T09:40:51Z</time></trkpt><trkpt lat="43.22136030795969" lon="12.164752566439692"><ele>572.0</ele><time>2026-03-29T09:40:52Z</time></trkpt><trkpt lat="43.22140429655768" lon="12.164815519040474"><ele>572.0</ele><time>2026-03-29T09:40:53Z</time></trkpt><trkpt lat="43.221469585544405" lon="12.164905777687464"><ele>572.0</ele><time>2026-03-29T09:40:55Z</time></trkpt><trkpt lat="43.22141932499994" lon="12.164994424376856"><ele>572.0</ele><time>2026-03-29T09:40:57Z</time></trkpt><trkpt lat="43.221350734694774" lon="12.16499975657738"><ele>572.0</ele><time>2026-03-29T09:40:58Z</time></trkpt><trkpt lat="43.22124003989649" lon="12.164987341694191"><ele>572.0</ele><time>2026-03-29T09:41:00Z</time></trkpt><trkpt lat="43.22121286094681" lon="12.165078888735998"><ele>570.6666666666666</ele><time>2026-03-29T09:41:03Z</time></trkpt><trkpt lat="43.22131292211206" lon="12.165158960557314"><ele>569.3333333333333</ele><time>2026-03-29T09:41:05Z</time></trkpt><trkpt lat="43.22136221491958" lon="12.165212980964382"><ele>568.0</ele><time>2026-03-29T09:41:06Z</time></trkpt><trkpt lat="43.22143474877621" lon="12.16523436576342"><ele>566.6666666666666</ele><time>2026-03-29T09:41:07Z</time></trkpt><trkpt lat="43.221496784260495" lon="12.165349545763375"><ele>565.3333333333334</ele><time>2026-03-29T09:41:09Z</time></trkpt><trkpt lat="43.22147602749015" lon="12.165448847458338"><ele>564.0</ele><time>2026-03-29T09:41:10Z</time></trkpt><trkpt lat="43.2214124887124" lon="12.165536966352642"><ele>562.2857142857143</ele><time>2026-03-29T09:41:11Z</time></trkpt><trkpt lat="43.221346474664095" lon="12.165595925132896"><ele>560.5714285714286</ele><time>2026-03-29T09:41:12Z</time></trkpt><trkpt lat="43.22127896410505" lon="12.165634577670762"><ele>558.8571428571429</ele><time>2026-03-29T09:41:13Z</time></trkpt><trkpt lat="43.22122040803917" lon="12.165668768094429"><ele>557.1428571428571</ele><time>2026-03-29T09:41:14Z</time></trkpt><trkpt lat="43.22115934958354" lon="12.165692445557696"><ele>555.4285714285714</ele><time>2026-03-29T09:41:15Z</time></trkpt><trkpt lat="43.22106748450148" lon="12.165716748717355"><ele>553.7142857142858</ele><time>2026-03-29T09:41:17Z</time></trkpt><trkpt lat="43.221006847418124" lon="12.165775503276116"><ele>552.0</ele><time>2026-03-29T09:41:19Z</time></trkpt><trkpt lat="43.22101862992518" lon="12.165861888108635"><ele>547.3333333333334</ele><time>2026-03-29T09:41:21Z</time></trkpt><trkpt lat="43.221003670626175" lon="12.165959277456823"><ele>542.6666666666667</ele><time>2026-03-29T09:41:23Z</time></trkpt><trkpt lat="43.220926152350714" lon="12.166374056258142"><ele>538.0</ele><time>2026-03-29T09:41:26Z</time></trkpt><trkpt lat="43.22092371957693" lon="12.166486049823774"><ele>535.6666666666667</ele><time>2026-03-29T09:41:27Z</time></trkpt><trkpt lat="43.220926072555606" lon="12.166604392861354"><ele>533.3333333333334</ele><time>2026-03-29T09:41:28Z</time></trkpt><trkpt lat="43.220924780119724" lon="12.166721063598974"><ele>531.0</ele><time>2026-03-29T09:41:29Z</time></trkpt><trkpt lat="43.22093569079658" lon="12.166826285274528"><ele>528.6666666666666</ele><time>2026-03-29T09:41:30Z</time></trkpt><trkpt lat="43.2209762071717" lon="12.166895288598878"><ele>526.3333333333333</ele><time>2026-03-29T09:41:31Z</time></trkpt><trkpt lat="43.221040483267764" lon="12.166923674525924"><ele>524.0</ele><time>2026-03-29T09:41:32Z</time></trkpt><trkpt lat="43.221103785065914" lon="12.166983803754357"><ele>524.0</ele><time>2026-03-29T09:41:33Z</time></trkpt><trkpt lat="43.22114498742315" lon="12.167051752479967"><ele>524.0</ele><time>2026-03-29T09:41:34Z</time></trkpt><trkpt lat="43.221169938951085" lon="12.16713964205646"><ele>524.0</ele><time>2026-03-29T09:41:35Z</time></trkpt><trkpt lat="43.2211369822469" lon="12.167304480723676"><ele>524.0</ele><time>2026-03-29T09:41:37Z</time></trkpt><trkpt lat="43.221076171254964" lon="12.167368589600361"><ele>524.0</ele><time>2026-03-29T09:41:38Z</time></trkpt><trkpt lat="43.22101252055351" lon="12.167435748438425"><ele>524.0</ele><time>2026-03-29T09:41:39Z</time></trkpt><trkpt lat="43.22096565884393" lon="12.167506177333362"><ele>521.0</ele><time>2026-03-29T09:41:40Z</time></trkpt><trkpt lat="43.22098185734195" lon="12.167638004612478"><ele>518.0</ele><time>2026-03-29T09:41:42Z</time></trkpt><trkpt lat="43.22104086839272" lon="12.167752350234686"><ele>515.0</ele><time>2026-03-29T09:41:44Z</time></trkpt><trkpt lat="43.22103682814253" lon="12.16791618968444"><ele>512.0</ele><time>2026-03-29T09:41:46Z</time></trkpt><trkpt lat="43.220942632525606" lon="12.167993929844732"><ele>509.0</ele><time>2026-03-29T09:41:48Z</time></trkpt><trkpt lat="43.22087998417536" lon="12.168032981765881"><ele>509.0</ele><time>2026-03-29T09:41:49Z</time></trkpt><trkpt lat="43.22077295713403" lon="12.168082657435521"><ele>509.0</ele><time>2026-03-29T09:41:51Z</time></trkpt><trkpt lat="43.22068792957212" lon="12.168098190090214"><ele>509.0</ele><time>2026-03-29T09:41:54Z</time></trkpt><trkpt lat="43.22060899119508" lon="12.168148225991304"><ele>509.0</ele><time>2026-03-29T09:41:56Z</time></trkpt><trkpt lat="43.22058825630359" lon="12.168281953547993"><ele>509.0</ele><time>2026-03-29T09:41:59Z</time></trkpt><trkpt lat="43.22059744035172" lon="12.168401332308113"><ele>503.79999999999995</ele><time>2026-03-29T09:42:01Z</time></trkpt><trkpt lat="43.220623018728475" lon="12.168529205296046"><ele>498.59999999999997</ele><time>2026-03-29T09:42:03Z</time></trkpt><trkpt lat="43.22060623255406" lon="12.168664143299448"><ele>493.4</ele><time>2026-03-29T09:42:05Z</time></trkpt><trkpt lat="43.22054838540747" lon="12.168725998812453"><ele>488.2</ele><time>2026-03-29T09:42:06Z</time></trkpt><trkpt lat="43.22046280235989" lon="12.168777500914342"><ele>483.0</ele><time>2026-03-29T09:42:07Z</time></trkpt><trkpt lat="43.22037157548749" lon="12.168840518331642"><ele>483.0</ele><time>2026-03-29T09:42:08Z</time></trkpt><trkpt lat="43.22027701345059" lon="12.168895938629412"><ele>482.99999999999994</ele><time>2026-03-29T09:42:09Z</time></trkpt><trkpt lat="43.220206505917915" lon="12.168967768132537"><ele>482.99999999999994</ele><time>2026-03-29T09:42:10Z</time></trkpt><trkpt lat="43.2201611615432" lon="12.169043624249767"><ele>483.0</ele><time>2026-03-29T09:42:11Z</time></trkpt><trkpt lat="43.220100037449754" lon="12.169094777872495"><ele>483.0</ele><time>2026-03-29T09:42:12Z</time></trkpt><trkpt lat="43.22000090672473" lon="12.169216583568536"><ele>480.79999999999995</ele><time>2026-03-29T09:42:14Z</time></trkpt><trkpt lat="43.21994348261448" lon="12.169323379154442"><ele>478.59999999999997</ele><time>2026-03-29T09:42:15Z</time></trkpt><trkpt lat="43.21985398202226" lon="12.169435390259563"><ele>476.40000000000003</ele><time>2026-03-29T09:42:17Z</time></trkpt><trkpt lat="43.219753969815194" lon="12.169482341541343"><ele>474.20000000000005</ele><time>2026-03-29T09:42:19Z</time></trkpt><trkpt lat="43.21965397522097" lon="12.169519797241017"><ele>472.0</ele><time>2026-03-29T09:42:21Z</time></trkpt><trkpt lat="43.219575351115104" lon="12.169519289154698"><ele>469.20000000000005</ele><time>2026-03-29T09:42:23Z</time></trkpt><trkpt lat="43.21946495947359" lon="12.169509645047391"><ele>466.40000000000003</ele><time>2026-03-29T09:42:25Z</time></trkpt><trkpt lat="43.219382135293735" lon="12.169585852329286"><ele>463.59999999999997</ele><time>2026-03-29T09:42:28Z</time></trkpt><trkpt lat="43.219334709066" lon="12.16967030608486"><ele>460.79999999999995</ele><time>2026-03-29T09:42:31Z</time></trkpt><trkpt lat="43.219273478229965" lon="12.16977563502977"><ele>458.0</ele><time>2026-03-29T09:42:33Z</time></trkpt><trkpt lat="43.21923275296381" lon="12.169894344067265"><ele>457.4</ele><time>2026-03-29T09:42:34Z</time></trkpt><trkpt lat="43.219151939085855" lon="12.169998525031565"><ele>456.79999999999995</ele><time>2026-03-29T09:42:35Z</time></trkpt><trkpt lat="43.2191276410285" lon="12.170119407893337"><ele>456.2</ele><time>2026-03-29T09:42:36Z</time></trkpt><trkpt lat="43.21917357274177" lon="12.170241278086703"><ele>455.6</ele><time>2026-03-29T09:42:38Z</time></trkpt><trkpt lat="43.21921745364658" lon="12.170323814683204"><ele>455.0</ele><time>2026-03-29T09:42:41Z</time></trkpt><trkpt lat="43.21928709940198" lon="12.170353431071597"><ele>455.0</ele><time>2026-03-29T09:42:44Z</time></trkpt><trkpt lat="43.219543623738524" lon="12.170604891893072"><ele>455.0</ele><time>2026-03-29T09:42:47Z</time></trkpt><trkpt lat="43.21962103627144" lon="12.170593881761956"><ele>455.0</ele><time>2026-03-29T09:42:48Z</time></trkpt><trkpt lat="43.21968218834606" lon="12.17056003312365"><ele>454.99999999999994</ele><time>2026-03-29T09:42:49Z</time></trkpt><trkpt lat="43.21973347226364" lon="12.170507359474746"><ele>455.0</ele><time>2026-03-29T09:42:50Z</time></trkpt><trkpt lat="43.219873609913456" lon="12.170444954874954"><ele>455.0</ele><time>2026-03-29T09:42:52Z</time></trkpt><trkpt lat="43.21993888059704" lon="12.170406930245692"><ele>455.0</ele><time>2026-03-29T09:42:53Z</time></trkpt><trkpt lat="43.22000785630809" lon="12.170368208902604"><ele>454.99999999999994</ele><time>2026-03-29T09:42:54Z</time></trkpt><trkpt lat="43.220088193703035" lon="12.170326964643994"><ele>455.0</ele><time>2026-03-29T09:42:55Z</time></trkpt><trkpt lat="43.220167730366256" lon="12.17026777415866"><ele>455.8333333333333</ele><time>2026-03-29T09:42:56Z</time></trkpt><trkpt lat="43.220241727698244" lon="12.170198811885271"><ele>456.66666666666663</ele><time>2026-03-29T09:42:57Z</time></trkpt><trkpt lat="43.220310483170785" lon="12.170137064072245"><ele>457.5</ele><time>2026-03-29T09:42:58Z</time></trkpt><trkpt lat="43.22037629040534" lon="12.17007505153279"><ele>458.33333333333337</ele><time>2026-03-29T09:42:59Z</time></trkpt><trkpt lat="43.220436582903915" lon="12.170023383028326"><ele>459.1666666666667</ele><time>2026-03-29T09:43:00Z</time></trkpt><trkpt lat="43.220492103086045" lon="12.169978960792795"><ele>460.0</ele><time>2026-03-29T09:43:01Z</time></trkpt><trkpt lat="43.220592054538166" lon="12.169926307954148"><ele>457.4</ele><time>2026-03-29T09:43:03Z</time></trkpt><trkpt lat="43.22066262208911" lon="12.169916673762524"><ele>454.8</ele><time>2026-03-29T09:43:04Z</time></trkpt><trkpt lat="43.220774219515235" lon="12.169931325788266"><ele>452.20000000000005</ele><time>2026-03-29T09:43:05Z</time></trkpt><trkpt lat="43.220875590269976" lon="12.169873099873717"><ele>449.6</ele><time>2026-03-29T09:43:06Z</time></trkpt><trkpt lat="43.220977197317325" lon="12.169820184453053"><ele>447.0</ele><time>2026-03-29T09:43:07Z</time></trkpt><trkpt lat="43.22107325748824" lon="12.169751007506388"><ele>452.40000000000003</ele><time>2026-03-29T09:43:08Z</time></trkpt><trkpt lat="43.221150144365126" lon="12.169633283188617"><ele>457.80000000000007</ele><time>2026-03-29T09:43:09Z</time></trkpt><trkpt lat="43.221227696531585" lon="12.169538397230971"><ele>463.2</ele><time>2026-03-29T09:43:10Z</time></trkpt><trkpt lat="43.22127821259996" lon="12.169472498088803"><ele>468.6</ele><time>2026-03-29T09:43:11Z</time></trkpt><trkpt lat="43.221341183449844" lon="12.169307807048105"><ele>474.0</ele><time>2026-03-29T09:43:13Z</time></trkpt><trkpt lat="43.22142429373264" lon="12.169202156658015"><ele>474.0</ele><time>2026-03-29T09:43:14Z</time></trkpt><trkpt lat="43.22149316686816" lon="12.169104762128741"><ele>474.0</ele><time>2026-03-29T09:43:15Z</time></trkpt><trkpt lat="43.221551546863665" lon="12.169026234384845"><ele>474.0</ele><time>2026-03-29T09:43:16Z</time></trkpt><trkpt lat="43.221605003853185" lon="12.168918146257369"><ele>474.0</ele><time>2026-03-29T09:43:17Z</time></trkpt><trkpt lat="43.221641091575755" lon="12.168824527988606"><ele>474.0</ele><time>2026-03-29T09:43:18Z</time></trkpt><trkpt lat="43.22168999103785" lon="12.168767525797"><ele>474.0</ele><time>2026-03-29T09:43:19Z</time></trkpt><trkpt lat="43.221774382855834" lon="12.168685401047545"><ele>474.0</ele><time>2026-03-29T09:43:20Z</time></trkpt><trkpt lat="43.22184843711856" lon="12.168604094831055"><ele>474.0</ele><time>2026-03-29T09:43:22Z</time></trkpt><trkpt lat="43.221945436142725" lon="12.16862096458335"><ele>474.0</ele><time>2026-03-29T09:43:24Z</time></trkpt><trkpt lat="43.221993821162016" lon="12.16868250992498"><ele>474.0</ele><time>2026-03-29T09:43:25Z</time></trkpt><trkpt lat="43.22201923181688" lon="12.168840960184738"><ele>474.0</ele><time>2026-03-29T09:43:27Z</time></trkpt><trkpt lat="43.22210066828923" lon="12.168942245828386"><ele>470.8333333333333</ele><time>2026-03-29T09:43:29Z</time></trkpt><trkpt lat="43.22215095648236" lon="12.169051144859601"><ele>467.66666666666663</ele><time>2026-03-29T09:43:31Z</time></trkpt><trkpt lat="43.22214559711106" lon="12.169144957476117"><ele>464.5</ele><time>2026-03-29T09:43:33Z</time></trkpt><trkpt lat="43.22214523888844" lon="12.169248661616583"><ele>461.3333333333333</ele><time>2026-03-29T09:43:36Z</time></trkpt><trkpt lat="43.22222532128124" lon="12.169286087264144"><ele>458.16666666666663</ele><time>2026-03-29T09:43:38Z</time></trkpt><trkpt lat="43.22226533604433" lon="12.169384529062235"><ele>455.0</ele><time>2026-03-29T09:43:42Z</time></trkpt><trkpt lat="43.22224836198379" lon="12.169476106748311"><ele>455.0</ele><time>2026-03-29T09:43:43Z</time></trkpt><trkpt lat="43.22223156338759" lon="12.169615476856091"><ele>455.0</ele><time>2026-03-29T09:43:45Z</time></trkpt><trkpt lat="43.22223849094749" lon="12.169778764953021"><ele>455.0</ele><time>2026-03-29T09:43:46Z</time></trkpt><trkpt lat="43.222222695867146" lon="12.169891427327672"><ele>455.0</ele><time>2026-03-29T09:43:47Z</time></trkpt><trkpt lat="43.22220602484638" lon="12.170002680833479"><ele>455.0</ele><time>2026-03-29T09:43:48Z</time></trkpt><trkpt lat="43.22219664701406" lon="12.170102278392747"><ele>452.3333333333333</ele><time>2026-03-29T09:43:49Z</time></trkpt><trkpt lat="43.2222020373531" lon="12.170202143589957"><ele>449.66666666666663</ele><time>2026-03-29T09:43:50Z</time></trkpt><trkpt lat="43.22221576882177" lon="12.170308513689527"><ele>447.0</ele><time>2026-03-29T09:43:51Z</time></trkpt><trkpt lat="43.22223851985683" lon="12.170406798350067"><ele>444.33333333333337</ele><time>2026-03-29T09:43:52Z</time></trkpt><trkpt lat="43.222272160539326" lon="12.170543991784589"><ele>441.6666666666667</ele><time>2026-03-29T09:43:54Z</time></trkpt><trkpt lat="43.22231898171555" lon="12.170611728414977"><ele>439.0</ele><time>2026-03-29T09:43:56Z</time></trkpt><trkpt lat="43.22233534880877" lon="12.170697674466814"><ele>436.6</ele><time>2026-03-29T09:43:57Z</time></trkpt><trkpt lat="43.22239760327516" lon="12.170789084869119"><ele>434.2</ele><time>2026-03-29T09:43:59Z</time></trkpt><trkpt lat="43.222496684803275" lon="12.170887704834028"><ele>431.80000000000007</ele><time>2026-03-29T09:44:01Z</time></trkpt><trkpt lat="43.22258275066848" lon="12.17099931822837"><ele>429.40000000000003</ele><time>2026-03-29T09:44:03Z</time></trkpt><trkpt lat="43.222621535307525" lon="12.17107657664521"><ele>427.0</ele><time>2026-03-29T09:44:04Z</time></trkpt><trkpt lat="43.222665076655915" lon="12.17136540356579"><ele>427.0</ele><time>2026-03-29T09:44:06Z</time></trkpt><trkpt lat="43.222676807094615" lon="12.171483765746236"><ele>427.0</ele><time>2026-03-29T09:44:07Z</time></trkpt><trkpt lat="43.22264628625092" lon="12.17159575269648"><ele>427.0</ele><time>2026-03-29T09:44:08Z</time></trkpt><trkpt lat="43.22261371021705" lon="12.1717455623814"><ele>427.0</ele><time>2026-03-29T09:44:09Z</time></trkpt><trkpt lat="43.222527435153864" lon="12.17194089683986"><ele>426.6</ele><time>2026-03-29T09:44:10Z</time></trkpt><trkpt lat="43.22247501024666" lon="12.172134417377181"><ele>426.20000000000005</ele><time>2026-03-29T09:44:11Z</time></trkpt><trkpt lat="43.222452828919074" lon="12.172300749223947"><ele>425.8</ele><time>2026-03-29T09:44:12Z</time></trkpt><trkpt lat="43.22244281958225" lon="12.172418726063858"><ele>425.4</ele><time>2026-03-29T09:44:13Z</time></trkpt><trkpt lat="43.22244006246189" lon="12.172512011689838"><ele>425.0</ele><time>2026-03-29T09:44:14Z</time></trkpt><trkpt lat="43.22238812172325" lon="12.172709955872664"><ele>421.0</ele><time>2026-03-29T09:44:15Z</time></trkpt><trkpt lat="43.22231084410278" lon="12.172936965469749"><ele>417.0</ele><time>2026-03-29T09:44:16Z</time></trkpt><trkpt lat="43.22223926373883" lon="12.1730970375506"><ele>413.0</ele><time>2026-03-29T09:44:17Z</time></trkpt><trkpt lat="43.222178027904825" lon="12.173204005950092"><ele>409.0</ele><time>2026-03-29T09:44:18Z</time></trkpt><trkpt lat="43.222106429596096" lon="12.17322702671535"><ele>409.0</ele><time>2026-03-29T09:44:19Z</time></trkpt><trkpt lat="43.221999120907554" lon="12.173231179304011"><ele>409.0</ele><time>2026-03-29T09:44:20Z</time></trkpt><trkpt lat="43.22189196763091" lon="12.173241814071655"><ele>409.0</ele><time>2026-03-29T09:44:21Z</time></trkpt><trkpt lat="43.221849787712905" lon="12.173387913651176"><ele>409.0</ele><time>2026-03-29T09:44:23Z</time></trkpt><trkpt lat="43.221874943662506" lon="12.17359799073243"><ele>409.0</ele><time>2026-03-29T09:44:25Z</time></trkpt><trkpt lat="43.22189933210518" lon="12.173785829124219"><ele>409.0</ele><time>2026-03-29T09:44:26Z</time></trkpt><trkpt lat="43.22194023193518" lon="12.173995826764877"><ele>409.0</ele><time>2026-03-29T09:44:27Z</time></trkpt><trkpt lat="43.22198870427375" lon="12.174228744769648"><ele>407.75</ele><time>2026-03-29T09:44:28Z</time></trkpt><trkpt lat="43.22201377477239" lon="12.17443440810305"><ele>406.5</ele><time>2026-03-29T09:44:29Z</time></trkpt><trkpt lat="43.22204244803858" lon="12.174595421158607"><ele>405.25</ele><time>2026-03-29T09:44:30Z</time></trkpt><trkpt lat="43.22207833009053" lon="12.174746130032364"><ele>404.0</ele><time>2026-03-29T09:44:31Z</time></trkpt><trkpt lat="43.222126054142635" lon="12.174871392775499"><ele>404.0</ele><time>2026-03-29T09:44:32Z</time></trkpt><trkpt lat="43.22224531076209" lon="12.174873115729573"><ele>404.0</ele><time>2026-03-29T09:44:34Z</time></trkpt><trkpt lat="43.222310116995814" lon="12.17484310474965"><ele>404.0</ele><time>2026-03-29T09:44:35Z</time></trkpt><trkpt lat="43.22237399255167" lon="12.17484187780769"><ele>404.0</ele><time>2026-03-29T09:44:36Z</time></trkpt><trkpt lat="43.222441717081225" lon="12.174864980659516"><ele>404.0</ele><time>2026-03-29T09:44:37Z</time></trkpt><trkpt lat="43.22257228948203" lon="12.174861661754923"><ele>404.75</ele><time>2026-03-29T09:44:38Z</time></trkpt><trkpt lat="43.222691371314404" lon="12.17487699003239"><ele>405.5</ele><time>2026-03-29T09:44:39Z</time></trkpt><trkpt lat="43.222852847948374" lon="12.174883432116518"><ele>406.25</ele><time>2026-03-29T09:44:40Z</time></trkpt><trkpt lat="43.22299872625229" lon="12.174961544397924"><ele>407.0</ele><time>2026-03-29T09:44:41Z</time></trkpt><trkpt lat="43.22313556254396" lon="12.175034884050707"><ele>407.0</ele><time>2026-03-29T09:44:42Z</time></trkpt><trkpt lat="43.22323296995947" lon="12.17512287665284"><ele>407.0</ele><time>2026-03-29T09:44:43Z</time></trkpt><trkpt lat="43.22329192620562" lon="12.175196169721403"><ele>407.0</ele><time>2026-03-29T09:44:44Z</time></trkpt><trkpt lat="43.22321994495011" lon="12.175306283405915"><ele>407.0</ele><time>2026-03-29T09:44:45Z</time></trkpt><trkpt lat="43.223140983167305" lon="12.175447089596368"><ele>407.0</ele><time>2026-03-29T09:44:47Z</time></trkpt><trkpt lat="43.223045857503244" lon="12.17557206808476"><ele>407.0</ele><time>2026-03-29T09:44:49Z</time></trkpt><trkpt lat="43.222919032250985" lon="12.175668723877225"><ele>407.0</ele><time>2026-03-29T09:44:50Z</time></trkpt><trkpt lat="43.2228257664342" lon="12.17578333487475"><ele>407.0</ele><time>2026-03-29T09:44:51Z</time></trkpt><trkpt lat="43.222717577859065" lon="12.175791436188677"><ele>407.0</ele><time>2026-03-29T09:44:52Z</time></trkpt><trkpt lat="43.22265074791649" lon="12.175868018730613"><ele>404.3333333333333</ele><time>2026-03-29T09:44:53Z</time></trkpt><trkpt lat="43.22253964401639" lon="12.175930216259797"><ele>401.66666666666663</ele><time>2026-03-29T09:44:54Z</time></trkpt><trkpt lat="43.22241484331674" lon="12.176062880025512"><ele>399.0</ele><time>2026-03-29T09:44:55Z</time></trkpt><trkpt lat="43.22227808697014" lon="12.17621343383189"><ele>396.6</ele><time>2026-03-29T09:44:56Z</time></trkpt><trkpt lat="43.222153033022444" lon="12.176357508067499"><ele>394.2</ele><time>2026-03-29T09:44:57Z</time></trkpt><trkpt lat="43.22208736707992" lon="12.176458647910588"><ele>391.8</ele><time>2026-03-29T09:44:58Z</time></trkpt><trkpt lat="43.222004844713624" lon="12.1765398901883"><ele>389.40000000000003</ele><time>2026-03-29T09:44:59Z</time></trkpt><trkpt lat="43.22193117945464" lon="12.176545399318709"><ele>387.0</ele><time>2026-03-29T09:45:00Z</time></trkpt><trkpt lat="43.221815926042325" lon="12.176543845452834"><ele>387.0</ele><time>2026-03-29T09:45:01Z</time></trkpt><trkpt lat="43.22169413398871" lon="12.176526173871274"><ele>387.0</ele><time>2026-03-29T09:45:02Z</time></trkpt><trkpt lat="43.221614667981946" lon="12.17649718348481"><ele>387.0</ele><time>2026-03-29T09:45:03Z</time></trkpt><trkpt lat="43.221534538887724" lon="12.176434850477591"><ele>387.0</ele><time>2026-03-29T09:45:04Z</time></trkpt><trkpt lat="43.22141358166623" lon="12.176395323521708"><ele>387.0</ele><time>2026-03-29T09:45:05Z</time></trkpt><trkpt lat="43.22129866627645" lon="12.176364038217564"><ele>384.5</ele><time>2026-03-29T09:45:06Z</time></trkpt><trkpt lat="43.22117653355541" lon="12.176303841302998"><ele>382.0</ele><time>2026-03-29T09:45:07Z</time></trkpt><trkpt lat="43.22105818190721" lon="12.176255858767055"><ele>379.5</ele><time>2026-03-29T09:45:08Z</time></trkpt><trkpt lat="43.220946849892485" lon="12.176241867710036"><ele>377.0</ele><time>2026-03-29T09:45:09Z</time></trkpt><trkpt lat="43.22085802458442" lon="12.176227281419465"><ele>377.0</ele><time>2026-03-29T09:45:10Z</time></trkpt><trkpt lat="43.2207895377813" lon="12.17624666017299"><ele>377.0</ele><time>2026-03-29T09:45:11Z</time></trkpt><trkpt lat="43.22071678889261" lon="12.1762944483534"><ele>377.0</ele><time>2026-03-29T09:45:12Z</time></trkpt><trkpt lat="43.22066821449693" lon="12.176401988475641"><ele>377.0</ele><time>2026-03-29T09:45:13Z</time></trkpt><trkpt lat="43.220550923647345" lon="12.176536821154466"><ele>377.0</ele><time>2026-03-29T09:45:14Z</time></trkpt><trkpt lat="43.220442540640235" lon="12.17661697824733"><ele>371.6666666666667</ele><time>2026-03-29T09:45:15Z</time></trkpt><trkpt lat="43.22031281439287" lon="12.176671498065673"><ele>366.3333333333333</ele><time>2026-03-29T09:45:16Z</time></trkpt><trkpt lat="43.22015974863359" lon="12.17673695440669"><ele>361.0</ele><time>2026-03-29T09:45:17Z</time></trkpt><trkpt lat="43.220003567106644" lon="12.176803105281703"><ele>361.0</ele><time>2026-03-29T09:45:18Z</time></trkpt><trkpt lat="43.21985038130747" lon="12.176865337726827"><ele>361.0</ele><time>2026-03-29T09:45:19Z</time></trkpt><trkpt lat="43.21971136491166" lon="12.176942607650917"><ele>361.0</ele><time>2026-03-29T09:45:20Z</time></trkpt><trkpt lat="43.21955471559598" lon="12.177027021134746"><ele>357.66666666666663</ele><time>2026-03-29T09:45:21Z</time></trkpt><trkpt lat="43.21939601621978" lon="12.177118276264151"><ele>354.3333333333333</ele><time>2026-03-29T09:45:22Z</time></trkpt><trkpt lat="43.21925200295224" lon="12.177215176990591"><ele>351.0</ele><time>2026-03-29T09:45:23Z</time></trkpt><trkpt lat="43.219114017971386" lon="12.177335570665146"><ele>347.3333333333333</ele><time>2026-03-29T09:45:24Z</time></trkpt><trkpt lat="43.21897113226181" lon="12.177487985987769"><ele>343.66666666666663</ele><time>2026-03-29T09:45:25Z</time></trkpt><trkpt lat="43.218823695159735" lon="12.177641999295735"><ele>340.0</ele><time>2026-03-29T09:45:26Z</time></trkpt><trkpt lat="43.21868287297204" lon="12.177769605385521"><ele>340.0</ele><time>2026-03-29T09:45:27Z</time></trkpt><trkpt lat="43.21855173633959" lon="12.17788246333126"><ele>340.0</ele><time>2026-03-29T09:45:28Z</time></trkpt><trkpt lat="43.21843111242589" lon="12.178008433229474"><ele>340.0</ele><time>2026-03-29T09:45:29Z</time></trkpt><trkpt lat="43.21830982346368" lon="12.178142923152713"><ele>339.3333333333333</ele><time>2026-03-29T09:45:30Z</time></trkpt><trkpt lat="43.21817204050803" lon="12.178255853999417"><ele>338.6666666666667</ele><time>2026-03-29T09:45:31Z</time></trkpt><trkpt lat="43.21801945803127" lon="12.178342317577826"><ele>338.0</ele><time>2026-03-29T09:45:32Z</time></trkpt><trkpt lat="43.21788704191864" lon="12.178424852698104"><ele>337.59999999999997</ele><time>2026-03-29T09:45:33Z</time></trkpt><trkpt lat="43.21776948658023" lon="12.17849027080673"><ele>337.2</ele><time>2026-03-29T09:45:34Z</time></trkpt><trkpt lat="43.217664747799084" lon="12.17853711311193"><ele>336.8</ele><time>2026-03-29T09:45:35Z</time></trkpt><trkpt lat="43.217573563843416" lon="12.178552174124365"><ele>336.4</ele><time>2026-03-29T09:45:36Z</time></trkpt><trkpt lat="43.21749347104378" lon="12.178545816149569"><ele>336.0</ele><time>2026-03-29T09:45:37Z</time></trkpt><trkpt lat="43.21741376354521" lon="12.178552127324643"><ele>336.0</ele><time>2026-03-29T09:45:39Z</time></trkpt><trkpt lat="43.21732157722838" lon="12.178617764538092"><ele>336.0</ele><time>2026-03-29T09:45:42Z</time></trkpt><trkpt lat="43.21718744725702" lon="12.178748636775598"><ele>336.0</ele><time>2026-03-29T09:45:44Z</time></trkpt><trkpt lat="43.21708827420336" lon="12.178843838185507"><ele>336.0</ele><time>2026-03-29T09:45:45Z</time></trkpt><trkpt lat="43.21698004725738" lon="12.178936320298995"><ele>334.25</ele><time>2026-03-29T09:45:46Z</time></trkpt><trkpt lat="43.21687168437676" lon="12.179035892097405"><ele>332.5</ele><time>2026-03-29T09:45:47Z</time></trkpt><trkpt lat="43.2167628879521" lon="12.179130177793134"><ele>330.75</ele><time>2026-03-29T09:45:47.999Z</time></trkpt><trkpt lat="43.21665608243627" lon="12.179221735727744"><ele>329.0</ele><time>2026-03-29T09:45:48.999Z</time></trkpt><trkpt lat="43.216528346328694" lon="12.179319425839669"><ele>326.33333333333337</ele><time>2026-03-29T09:45:49.999Z</time></trkpt><trkpt lat="43.216393115679864" lon="12.179435062726364"><ele>323.6666666666667</ele><time>2026-03-29T09:45:50.999Z</time></trkpt><trkpt lat="43.216254782182325" lon="12.179525022424546"><ele>321.0</ele><time>2026-03-29T09:45:51.999Z</time></trkpt><trkpt lat="43.21612736969615" lon="12.179637458994373"><ele>321.0</ele><time>2026-03-29T09:45:52.999Z</time></trkpt><trkpt lat="43.21600612856755" lon="12.179754441388605"><ele>321.0</ele><time>2026-03-29T09:45:53.999Z</time></trkpt><trkpt lat="43.21590172210903" lon="12.1798663695147"><ele>321.0</ele><time>2026-03-29T09:45:54.999Z</time></trkpt><trkpt lat="43.215824023256204" lon="12.179999616495502"><ele>321.0</ele><time>2026-03-29T09:45:55.999Z</time></trkpt><trkpt lat="43.215825065798455" lon="12.180165006696209"><ele>320.6</ele><time>2026-03-29T09:45:56.999Z</time></trkpt><trkpt lat="43.215817344826824" lon="12.180307733313585"><ele>320.20000000000005</ele><time>2026-03-29T09:45:57.999Z</time></trkpt><trkpt lat="43.215879054891246" lon="12.180420466009982"><ele>319.79999999999995</ele><time>2026-03-29T09:45:58.999Z</time></trkpt><trkpt lat="43.21594082484608" lon="12.180520358088183"><ele>319.4</ele><time>2026-03-29T09:45:59.999Z</time></trkpt><trkpt lat="43.216001633120314" lon="12.18062981303581"><ele>319.0</ele><time>2026-03-29T09:46:00.999Z</time></trkpt><trkpt lat="43.21609849046791" lon="12.180743386169112"><ele>318.75</ele><time>2026-03-29T09:46:01.999Z</time></trkpt><trkpt lat="43.21616620681336" lon="12.180833759862905"><ele>318.5</ele><time>2026-03-29T09:46:02.999Z</time></trkpt><trkpt lat="43.216239139061244" lon="12.180922957493847"><ele>318.25</ele><time>2026-03-29T09:46:03.999Z</time></trkpt><trkpt lat="43.216364445567834" lon="12.180984181613836"><ele>318.0</ele><time>2026-03-29T09:46:05Z</time></trkpt><trkpt lat="43.21651887662041" lon="12.1811504768748"><ele>318.3333333333333</ele><time>2026-03-29T09:46:06Z</time></trkpt><trkpt lat="43.21667931892356" lon="12.1813831714786"><ele>318.66666666666663</ele><time>2026-03-29T09:46:07Z</time></trkpt><trkpt lat="43.216802552591645" lon="12.181563134198496"><ele>319.0</ele><time>2026-03-29T09:46:08Z</time></trkpt><trkpt lat="43.21693124517014" lon="12.181750932648619"><ele>319.0</ele><time>2026-03-29T09:46:09Z</time></trkpt><trkpt lat="43.217053073223944" lon="12.181930849473448"><ele>319.0</ele><time>2026-03-29T09:46:10Z</time></trkpt><trkpt lat="43.21719124954006" lon="12.182137815598448"><ele>319.0</ele><time>2026-03-29T09:46:11Z</time></trkpt><trkpt lat="43.21730503150041" lon="12.18232070719269"><ele>320.3333333333333</ele><time>2026-03-29T09:46:12Z</time></trkpt><trkpt lat="43.21741729185595" lon="12.182478073617428"><ele>321.6666666666667</ele><time>2026-03-29T09:46:13Z</time></trkpt><trkpt lat="43.21753486070325" lon="12.18263626358808"><ele>323.0</ele><time>2026-03-29T09:46:14Z</time></trkpt><trkpt lat="43.217648414306964" lon="12.18279798065417"><ele>323.0</ele><time>2026-03-29T09:46:15Z</time></trkpt><trkpt lat="43.217761132837936" lon="12.182966080074797"><ele>323.0</ele><time>2026-03-29T09:46:16Z</time></trkpt><trkpt lat="43.21787869933334" lon="12.183137340759378"><ele>323.0</ele><time>2026-03-29T09:46:17Z</time></trkpt><trkpt lat="43.21800590569721" lon="12.183329344962278"><ele>323.33333333333337</ele><time>2026-03-29T09:46:18Z</time></trkpt><trkpt lat="43.218124967092635" lon="12.183510286925332"><ele>323.6666666666667</ele><time>2026-03-29T09:46:19Z</time></trkpt><trkpt lat="43.21825362207764" lon="12.18370075452203"><ele>324.0</ele><time>2026-03-29T09:46:20Z</time></trkpt><trkpt lat="43.21837977813675" lon="12.183889818855599"><ele>324.3333333333333</ele><time>2026-03-29T09:46:21Z</time></trkpt><trkpt lat="43.21848803492963" lon="12.184050150698296"><ele>324.66666666666663</ele><time>2026-03-29T09:46:22Z</time></trkpt><trkpt lat="43.21858994728767" lon="12.184197616861422"><ele>325.0</ele><time>2026-03-29T09:46:23Z</time></trkpt><trkpt lat="43.218693795077655" lon="12.184353377150968"><ele>325.0</ele><time>2026-03-29T09:46:24Z</time></trkpt><trkpt lat="43.218803299067886" lon="12.184515842802675"><ele>325.0</ele><time>2026-03-29T09:46:25Z</time></trkpt><trkpt lat="43.21891403524585" lon="12.184681146992979"><ele>325.0</ele><time>2026-03-29T09:46:26Z</time></trkpt><trkpt lat="43.219046072714164" lon="12.184812712239571"><ele>325.75</ele><time>2026-03-29T09:46:27Z</time></trkpt><trkpt lat="43.21915680094516" lon="12.184936536745264"><ele>326.5</ele><time>2026-03-29T09:46:28Z</time></trkpt><trkpt lat="43.219259092378046" lon="12.185043384007786"><ele>327.25</ele><time>2026-03-29T09:46:29Z</time></trkpt><trkpt lat="43.2193414765805" lon="12.18514769363553"><ele>328.0</ele><time>2026-03-29T09:46:30Z</time></trkpt><trkpt lat="43.219437916197975" lon="12.185254471127402"><ele>328.0</ele><time>2026-03-29T09:46:31Z</time></trkpt><trkpt lat="43.2195349287096" lon="12.185357094138586"><ele>328.0</ele><time>2026-03-29T09:46:32Z</time></trkpt><trkpt lat="43.21963655771055" lon="12.185462610276875"><ele>328.0</ele><time>2026-03-29T09:46:33Z</time></trkpt><trkpt lat="43.21975180854231" lon="12.185581529227091"><ele>328.0</ele><time>2026-03-29T09:46:34Z</time></trkpt><trkpt lat="43.21986512308733" lon="12.18569383273111"><ele>326.0</ele><time>2026-03-29T09:46:35Z</time></trkpt><trkpt lat="43.21998195392458" lon="12.185799775867167"><ele>324.0</ele><time>2026-03-29T09:46:36Z</time></trkpt><trkpt lat="43.220097183778165" lon="12.185902494765468"><ele>322.0</ele><time>2026-03-29T09:46:37Z</time></trkpt><trkpt lat="43.22022081980253" lon="12.186019609275156"><ele>320.0</ele><time>2026-03-29T09:46:38Z</time></trkpt><trkpt lat="43.22033670582155" lon="12.186122621840259"><ele>320.0</ele><time>2026-03-29T09:46:39Z</time></trkpt><trkpt lat="43.220448312814845" lon="12.186217086087515"><ele>320.0</ele><time>2026-03-29T09:46:40Z</time></trkpt><trkpt lat="43.22054537283292" lon="12.18630703318527"><ele>320.0</ele><time>2026-03-29T09:46:41Z</time></trkpt><trkpt lat="43.220629357763144" lon="12.186387965225052"><ele>320.0</ele><time>2026-03-29T09:46:42Z</time></trkpt><trkpt lat="43.22070539679365" lon="12.186454548317691"><ele>320.0</ele><time>2026-03-29T09:46:43Z</time></trkpt><trkpt lat="43.2207797271916" lon="12.186522587624854"><ele>320.8</ele><time>2026-03-29T09:46:44Z</time></trkpt><trkpt lat="43.22083393879608" lon="12.18657500788651"><ele>321.6</ele><time>2026-03-29T09:46:45Z</time></trkpt><trkpt lat="43.22091708688809" lon="12.186670615733588"><ele>322.4</ele><time>2026-03-29T09:46:47Z</time></trkpt><trkpt lat="43.22089621005409" lon="12.186812882156627"><ele>323.2</ele><time>2026-03-29T09:46:51Z</time></trkpt><trkpt lat="43.22088723711957" lon="12.186938162104193"><ele>324.0</ele><time>2026-03-29T09:46:52Z</time></trkpt><trkpt lat="43.22087748116008" lon="12.187074374639266"><ele>324.0</ele><time>2026-03-29T09:46:53Z</time></trkpt><trkpt lat="43.220864683824175" lon="12.187253050985555"><ele>324.0</ele><time>2026-03-29T09:46:54Z</time></trkpt><trkpt lat="43.22084884884088" lon="12.187464684365874"><ele>324.0</ele><time>2026-03-29T09:46:55Z</time></trkpt><trkpt lat="43.220831353241934" lon="12.187659007607188"><ele>324.0</ele><time>2026-03-29T09:46:56Z</time></trkpt><trkpt lat="43.22081474459653" lon="12.187837706209912"><ele>323.0</ele><time>2026-03-29T09:46:57Z</time></trkpt><trkpt lat="43.220799035259944" lon="12.188005905899837"><ele>322.0</ele><time>2026-03-29T09:46:58Z</time></trkpt><trkpt lat="43.22078285861486" lon="12.188158425389355"><ele>321.0</ele><time>2026-03-29T09:46:59Z</time></trkpt><trkpt lat="43.220762122432696" lon="12.188305023341933"><ele>320.0</ele><time>2026-03-29T09:47:00Z</time></trkpt><trkpt lat="43.220734124692235" lon="12.188446621540278"><ele>319.4</ele><time>2026-03-29T09:47:01Z</time></trkpt><trkpt lat="43.22070233997552" lon="12.188590089935714"><ele>318.8</ele><time>2026-03-29T09:47:02Z</time></trkpt><trkpt lat="43.22067006873952" lon="12.188712325445993"><ele>318.2</ele><time>2026-03-29T09:47:03Z</time></trkpt><trkpt lat="43.22063374903379" lon="12.18882959806064"><ele>317.6</ele><time>2026-03-29T09:47:04Z</time></trkpt><trkpt lat="43.22059044387253" lon="12.188931591282806"><ele>317.0</ele><time>2026-03-29T09:47:05Z</time></trkpt><trkpt lat="43.2205273087166" lon="12.189053587037495"><ele>317.0</ele><time>2026-03-29T09:47:06Z</time></trkpt><trkpt lat="43.22045513951283" lon="12.18916820057532"><ele>317.0</ele><time>2026-03-29T09:47:07Z</time></trkpt><trkpt lat="43.220370214002244" lon="12.18929470983075"><ele>317.0</ele><time>2026-03-29T09:47:08Z</time></trkpt><trkpt lat="43.220265647712225" lon="12.189450476985455"><ele>317.0</ele><time>2026-03-29T09:47:09Z</time></trkpt><trkpt lat="43.22018515871378" lon="12.189572615290595"><ele>317.0</ele><time>2026-03-29T09:47:10Z</time></trkpt><trkpt lat="43.22009560608755" lon="12.189710273634372"><ele>317.0</ele><time>2026-03-29T09:47:11Z</time></trkpt><trkpt lat="43.22001314037098" lon="12.189871067781063"><ele>317.0</ele><time>2026-03-29T09:47:12Z</time></trkpt><trkpt lat="43.2199201099223" lon="12.18998981048532"><ele>317.0</ele><time>2026-03-29T09:47:13Z</time></trkpt><trkpt lat="43.21984583107724" lon="12.190106846281601"><ele>316.5</ele><time>2026-03-29T09:47:14Z</time></trkpt><trkpt lat="43.21977208344397" lon="12.190236546853969"><ele>316.0</ele><time>2026-03-29T09:47:15Z</time></trkpt><trkpt lat="43.21968846029418" lon="12.190380430231505"><ele>315.5</ele><time>2026-03-29T09:47:16Z</time></trkpt><trkpt lat="43.219597242100754" lon="12.19052430350599"><ele>315.0</ele><time>2026-03-29T09:47:17Z</time></trkpt><trkpt lat="43.219509779123754" lon="12.190653413893674"><ele>315.2</ele><time>2026-03-29T09:47:18Z</time></trkpt><trkpt lat="43.21943342715848" lon="12.190775236968767"><ele>315.4</ele><time>2026-03-29T09:47:19Z</time></trkpt><trkpt lat="43.21936301679455" lon="12.190886760678694"><ele>315.6</ele><time>2026-03-29T09:47:20Z</time></trkpt><trkpt lat="43.21929455026434" lon="12.190991908449444"><ele>315.8</ele><time>2026-03-29T09:47:21Z</time></trkpt><trkpt lat="43.21923781824047" lon="12.191083090506925"><ele>316.0</ele><time>2026-03-29T09:47:22Z</time></trkpt><trkpt lat="43.219188765474684" lon="12.191172522039688"><ele>316.0</ele><time>2026-03-29T09:47:22.999Z</time></trkpt><trkpt lat="43.21914413274156" lon="12.191262199592028"><ele>316.0</ele><time>2026-03-29T09:47:23.999Z</time></trkpt><trkpt lat="43.219101270155896" lon="12.191341634561459"><ele>316.0</ele><time>2026-03-29T09:47:24.999Z</time></trkpt><trkpt lat="43.21906180823624" lon="12.191439851280386"><ele>316.0</ele><time>2026-03-29T09:47:25.999Z</time></trkpt><trkpt lat="43.21893535637814" lon="12.191481062362165"><ele>316.0</ele><time>2026-03-29T09:47:26.999Z</time></trkpt><trkpt lat="43.21881991582877" lon="12.191528408936641"><ele>315.0</ele><time>2026-03-29T09:47:27.999Z</time></trkpt><trkpt lat="43.21870790708425" lon="12.191573872584947"><ele>314.0</ele><time>2026-03-29T09:47:28.999Z</time></trkpt><trkpt lat="43.218586990028484" lon="12.191611013219276"><ele>313.0</ele><time>2026-03-29T09:47:29.999Z</time></trkpt><trkpt lat="43.218457691645966" lon="12.1916450233934"><ele>312.0</ele><time>2026-03-29T09:47:30.999Z</time></trkpt><trkpt lat="43.218326886118774" lon="12.191663961143316"><ele>312.0</ele><time>2026-03-29T09:47:31.999Z</time></trkpt><trkpt lat="43.21820088764558" lon="12.191675681410453"><ele>312.0</ele><time>2026-03-29T09:47:32.999Z</time></trkpt><trkpt lat="43.218075296015755" lon="12.191687948462166"><ele>312.0</ele><time>2026-03-29T09:47:33.999Z</time></trkpt><trkpt lat="43.2179566250051" lon="12.19170301327532"><ele>312.0</ele><time>2026-03-29T09:47:34.999Z</time></trkpt><trkpt lat="43.217839112039975" lon="12.191720394764834"><ele>312.0</ele><time>2026-03-29T09:47:35.999Z</time></trkpt><trkpt lat="43.21771997675837" lon="12.191729872190285"><ele>312.0</ele><time>2026-03-29T09:47:36.999Z</time></trkpt><trkpt lat="43.217590545202285" lon="12.191734213722775"><ele>312.0</ele><time>2026-03-29T09:47:37.999Z</time></trkpt><trkpt lat="43.217457893745134" lon="12.191746131002791"><ele>312.0</ele><time>2026-03-29T09:47:38.999Z</time></trkpt><trkpt lat="43.217314635751904" lon="12.191762758183394"><ele>312.25</ele><time>2026-03-29T09:47:39.999Z</time></trkpt><trkpt lat="43.21716740592622" lon="12.19177741268448"><ele>312.5</ele><time>2026-03-29T09:47:40.999Z</time></trkpt><trkpt lat="43.217031877933" lon="12.191788839368806"><ele>312.75</ele><time>2026-03-29T09:47:42Z</time></trkpt><trkpt lat="43.21690661964033" lon="12.191787741037217"><ele>313.0</ele><time>2026-03-29T09:47:43Z</time></trkpt><trkpt lat="43.2167868391757" lon="12.191798597883468"><ele>313.0</ele><time>2026-03-29T09:47:44Z</time></trkpt><trkpt lat="43.216688033265974" lon="12.191808935563595"><ele>313.0</ele><time>2026-03-29T09:47:45Z</time></trkpt><trkpt lat="43.21660860835503" lon="12.191814053239678"><ele>313.0</ele><time>2026-03-29T09:47:46Z</time></trkpt><trkpt lat="43.21653709875031" lon="12.191819992782166"><ele>313.0</ele><time>2026-03-29T09:47:47Z</time></trkpt><trkpt lat="43.216432484960706" lon="12.191825452607407"><ele>313.0</ele><time>2026-03-29T09:47:49Z</time></trkpt><trkpt lat="43.216443304051346" lon="12.192085125353199"><ele>313.0</ele><time>2026-03-29T09:47:51Z</time></trkpt><trkpt lat="43.216465500696884" lon="12.192230947453956"><ele>313.0</ele><time>2026-03-29T09:47:52Z</time></trkpt><trkpt lat="43.216489942870425" lon="12.192397527194359"><ele>313.0</ele><time>2026-03-29T09:47:53Z</time></trkpt><trkpt lat="43.21653970647795" lon="12.192577457945035"><ele>313.0</ele><time>2026-03-29T09:47:54Z</time></trkpt><trkpt lat="43.216614499386296" lon="12.192759567151631"><ele>313.0</ele><time>2026-03-29T09:47:55Z</time></trkpt><trkpt lat="43.216699274563425" lon="12.19293210470592"><ele>313.0</ele><time>2026-03-29T09:47:56Z</time></trkpt><trkpt lat="43.21677633910365" lon="12.193095050442853"><ele>313.0</ele><time>2026-03-29T09:47:57Z</time></trkpt><trkpt lat="43.216840767042804" lon="12.193257159262522"><ele>313.0</ele><time>2026-03-29T09:47:58Z</time></trkpt><trkpt lat="43.2168986813383" lon="12.193408568857862"><ele>313.0</ele><time>2026-03-29T09:47:59Z</time></trkpt><trkpt lat="43.216964741681686" lon="12.19356792053487"><ele>313.0</ele><time>2026-03-29T09:48:00Z</time></trkpt><trkpt lat="43.21703142289839" lon="12.193719632716103"><ele>313.0</ele><time>2026-03-29T09:48:01Z</time></trkpt><trkpt lat="43.217103491762366" lon="12.193878844916185"><ele>313.0</ele><time>2026-03-29T09:48:02Z</time></trkpt><trkpt lat="43.21717290060383" lon="12.194042710621899"><ele>313.0</ele><time>2026-03-29T09:48:03Z</time></trkpt><trkpt lat="43.21724385240466" lon="12.19420942665324"><ele>313.0</ele><time>2026-03-29T09:48:04Z</time></trkpt><trkpt lat="43.21731949415636" lon="12.19437354345908"><ele>313.0</ele><time>2026-03-29T09:48:05Z</time></trkpt><trkpt lat="43.217392476484086" lon="12.19452622894275"><ele>313.0</ele><time>2026-03-29T09:48:06Z</time></trkpt><trkpt lat="43.217455941714604" lon="12.194666804505474"><ele>312.8</ele><time>2026-03-29T09:48:07Z</time></trkpt><trkpt lat="43.21749621709189" lon="12.194803921054909"><ele>312.6</ele><time>2026-03-29T09:48:08Z</time></trkpt><trkpt lat="43.21749365617001" lon="12.194939231008657"><ele>312.4</ele><time>2026-03-29T09:48:09Z</time></trkpt><trkpt lat="43.217457502193234" lon="12.195085630466624"><ele>312.2</ele><time>2026-03-29T09:48:10Z</time></trkpt><trkpt lat="43.217412097561045" lon="12.195245245848655"><ele>312.0</ele><time>2026-03-29T09:48:11.001Z</time></trkpt><trkpt lat="43.21736563459475" lon="12.195418146374188"><ele>312.0</ele><time>2026-03-29T09:48:12.001Z</time></trkpt><trkpt lat="43.21733350623143" lon="12.195584145331543"><ele>312.0</ele><time>2026-03-29T09:48:13.001Z</time></trkpt><trkpt lat="43.217282744159604" lon="12.195773737402748"><ele>312.0</ele><time>2026-03-29T09:48:14.001Z</time></trkpt><trkpt lat="43.21723199762441" lon="12.195960394515481"><ele>312.0</ele><time>2026-03-29T09:48:15.001Z</time></trkpt><trkpt lat="43.217183913075736" lon="12.196154844571987"><ele>312.0</ele><time>2026-03-29T09:48:16.001Z</time></trkpt><trkpt lat="43.21715690626767" lon="12.196361464867648"><ele>312.0</ele><time>2026-03-29T09:48:17.001Z</time></trkpt><trkpt lat="43.21716138027267" lon="12.196576692747152"><ele>312.0</ele><time>2026-03-29T09:48:18.001Z</time></trkpt><trkpt lat="43.21717576677441" lon="12.19679065330451"><ele>311.6666666666667</ele><time>2026-03-29T09:48:19.001Z</time></trkpt><trkpt lat="43.21719604182446" lon="12.197001966091976"><ele>311.33333333333337</ele><time>2026-03-29T09:48:20.001Z</time></trkpt><trkpt lat="43.21722663065981" lon="12.19722114132048"><ele>311.0</ele><time>2026-03-29T09:48:21.001Z</time></trkpt><trkpt lat="43.21725972022424" lon="12.197432135844869"><ele>311.0</ele><time>2026-03-29T09:48:22.001Z</time></trkpt><trkpt lat="43.21728494068446" lon="12.197641185445926"><ele>311.0</ele><time>2026-03-29T09:48:23.001Z</time></trkpt><trkpt lat="43.217306229166226" lon="12.197833758277335"><ele>311.0</ele><time>2026-03-29T09:48:24.001Z</time></trkpt><trkpt lat="43.21732585685873" lon="12.198037618257109"><ele>311.0</ele><time>2026-03-29T09:48:25.001Z</time></trkpt><trkpt lat="43.21734626720236" lon="12.198241864703366"><ele>310.6666666666667</ele><time>2026-03-29T09:48:26.001Z</time></trkpt><trkpt lat="43.21738065762274" lon="12.19844287275636"><ele>310.3333333333333</ele><time>2026-03-29T09:48:27.001Z</time></trkpt><trkpt lat="43.21743762774267" lon="12.198630160395501"><ele>310.0</ele><time>2026-03-29T09:48:28.001Z</time></trkpt><trkpt lat="43.217514014817645" lon="12.198835821896193"><ele>310.0</ele><time>2026-03-29T09:48:29.001Z</time></trkpt><trkpt lat="43.21759647450292" lon="12.199040234254692"><ele>310.0</ele><time>2026-03-29T09:48:30.001Z</time></trkpt><trkpt lat="43.21767482908363" lon="12.199220451230628"><ele>310.0</ele><time>2026-03-29T09:48:31.001Z</time></trkpt><trkpt lat="43.21775300057034" lon="12.19939701938166"><ele>310.0</ele><time>2026-03-29T09:48:32.001Z</time></trkpt><trkpt lat="43.2178365150199" lon="12.1995897491678"><ele>310.0</ele><time>2026-03-29T09:48:33.001Z</time></trkpt><trkpt lat="43.21791486587994" lon="12.199786309501743"><ele>310.0</ele><time>2026-03-29T09:48:34.001Z</time></trkpt><trkpt lat="43.217989561419785" lon="12.199986023804188"><ele>310.0</ele><time>2026-03-29T09:48:35.001Z</time></trkpt><trkpt lat="43.21807012272639" lon="12.200193778750517"><ele>310.0</ele><time>2026-03-29T09:48:36.001Z</time></trkpt><trkpt lat="43.21815645243935" lon="12.200400652999571"><ele>310.0</ele><time>2026-03-29T09:48:37.001Z</time></trkpt><trkpt lat="43.21824372214538" lon="12.200602535812259"><ele>310.66666666666663</ele><time>2026-03-29T09:48:38.001Z</time></trkpt><trkpt lat="43.21831803536226" lon="12.200796245765696"><ele>311.3333333333333</ele><time>2026-03-29T09:48:39.001Z</time></trkpt><trkpt lat="43.21839537986275" lon="12.201004023321143"><ele>312.0</ele><time>2026-03-29T09:48:40.001Z</time></trkpt><trkpt lat="43.21846510237694" lon="12.201190533178567"><ele>312.0</ele><time>2026-03-29T09:48:41.001Z</time></trkpt><trkpt lat="43.218525492226696" lon="12.201354749357465"><ele>312.0</ele><time>2026-03-29T09:48:42.001Z</time></trkpt><trkpt lat="43.21858278673891" lon="12.201500387836488"><ele>312.0</ele><time>2026-03-29T09:48:43.001Z</time></trkpt><trkpt lat="43.21863228736165" lon="12.201632374414427"><ele>312.0</ele><time>2026-03-29T09:48:44.001Z</time></trkpt><trkpt lat="43.218675788480724" lon="12.201757468145681"><ele>312.3333333333333</ele><time>2026-03-29T09:48:45.001Z</time></trkpt><trkpt lat="43.21871739083197" lon="12.201871735367591"><ele>312.6666666666667</ele><time>2026-03-29T09:48:46.001Z</time></trkpt><trkpt lat="43.21873860688117" lon="12.201970760316208"><ele>313.0</ele><time>2026-03-29T09:48:47.001Z</time></trkpt><trkpt lat="43.21873315718606" lon="12.20205905376768"><ele>313.33333333333337</ele><time>2026-03-29T09:48:48.001Z</time></trkpt><trkpt lat="43.218640199233526" lon="12.202157407699135"><ele>313.6666666666667</ele><time>2026-03-29T09:48:50.001Z</time></trkpt><trkpt lat="43.218554667458044" lon="12.20216406263015"><ele>314.0</ele><time>2026-03-29T09:48:51.001Z</time></trkpt><trkpt lat="43.21844922681666" lon="12.20215020580659"><ele>314.0</ele><time>2026-03-29T09:48:52.001Z</time></trkpt><trkpt lat="43.21831811151438" lon="12.202154246641891"><ele>314.0</ele><time>2026-03-29T09:48:53.001Z</time></trkpt><trkpt lat="43.218157271626026" lon="12.202169649022887"><ele>314.0</ele><time>2026-03-29T09:48:54.001Z</time></trkpt><trkpt lat="43.217999013588376" lon="12.202197154348825"><ele>314.0</ele><time>2026-03-29T09:48:55.001Z</time></trkpt><trkpt lat="43.21786016388948" lon="12.202211750426487"><ele>314.0</ele><time>2026-03-29T09:48:56.001Z</time></trkpt><trkpt lat="43.217703480048904" lon="12.202230265868014"><ele>314.0</ele><time>2026-03-29T09:48:57.001Z</time></trkpt><trkpt lat="43.21754032717895" lon="12.202251300938231"><ele>314.0</ele><time>2026-03-29T09:48:58.001Z</time></trkpt><trkpt lat="43.21738876152216" lon="12.202269686214974"><ele>314.0</ele><time>2026-03-29T09:48:59.001Z</time></trkpt><trkpt lat="43.2172445529765" lon="12.2022902711282"><ele>314.0</ele><time>2026-03-29T09:49:00.001Z</time></trkpt><trkpt lat="43.21712088699029" lon="12.202329261210238"><ele>314.0</ele><time>2026-03-29T09:49:01.001Z</time></trkpt><trkpt lat="43.217018940790666" lon="12.20239455789121"><ele>314.0</ele><time>2026-03-29T09:49:02.001Z</time></trkpt><trkpt lat="43.21693731336044" lon="12.202479756562907"><ele>314.0</ele><time>2026-03-29T09:49:03.001Z</time></trkpt><trkpt lat="43.21687465970712" lon="12.202571899716117"><ele>314.0</ele><time>2026-03-29T09:49:04Z</time></trkpt><trkpt lat="43.21682332626893" lon="12.202657004818214"><ele>314.0</ele><time>2026-03-29T09:49:05Z</time></trkpt><trkpt lat="43.21677336063077" lon="12.20274482997916"><ele>314.0</ele><time>2026-03-29T09:49:06Z</time></trkpt><trkpt lat="43.21672224707106" lon="12.202837373524947"><ele>314.0</ele><time>2026-03-29T09:49:07Z</time></trkpt><trkpt lat="43.21665548121718" lon="12.202941546766665"><ele>314.0</ele><time>2026-03-29T09:49:08Z</time></trkpt><trkpt lat="43.216580781805575" lon="12.203062277970512"><ele>314.0</ele><time>2026-03-29T09:49:09Z</time></trkpt><trkpt lat="43.21649843805041" lon="12.203188815157068"><ele>314.0</ele><time>2026-03-29T09:49:10Z</time></trkpt><trkpt lat="43.216420433125286" lon="12.203302387221257"><ele>314.0</ele><time>2026-03-29T09:49:11Z</time></trkpt><trkpt lat="43.21633472150781" lon="12.203428475512778"><ele>315.5</ele><time>2026-03-29T09:49:12Z</time></trkpt><trkpt lat="43.216247210843655" lon="12.20355607471076"><ele>317.0</ele><time>2026-03-29T09:49:13Z</time></trkpt><trkpt lat="43.216167899000006" lon="12.203680906185728"><ele>318.5</ele><time>2026-03-29T09:49:14Z</time></trkpt><trkpt lat="43.216105754006065" lon="12.203811670246616"><ele>320.0</ele><time>2026-03-29T09:49:15Z</time></trkpt><trkpt lat="43.21604617757613" lon="12.203954135126752"><ele>320.6</ele><time>2026-03-29T09:49:16Z</time></trkpt><trkpt lat="43.21598651900161" lon="12.20407895888845"><ele>321.2</ele><time>2026-03-29T09:49:17Z</time></trkpt><trkpt lat="43.21592112800816" lon="12.204175834391442"><ele>321.79999999999995</ele><time>2026-03-29T09:49:18Z</time></trkpt><trkpt lat="43.21584652975293" lon="12.204276348612062"><ele>322.4</ele><time>2026-03-29T09:49:19Z</time></trkpt><trkpt lat="43.215772142702036" lon="12.204362065178504"><ele>323.0</ele><time>2026-03-29T09:49:20Z</time></trkpt><trkpt lat="43.21568966015324" lon="12.204420297735457"><ele>323.4</ele><time>2026-03-29T09:49:21Z</time></trkpt><trkpt lat="43.21559810800922" lon="12.204478785000974"><ele>323.79999999999995</ele><time>2026-03-29T09:49:22Z</time></trkpt><trkpt lat="43.21552644900532" lon="12.204542708178291"><ele>324.2</ele><time>2026-03-29T09:49:23Z</time></trkpt><trkpt lat="43.21546076135966" lon="12.20461424594119"><ele>324.6</ele><time>2026-03-29T09:49:24Z</time></trkpt><trkpt lat="43.21538672778689" lon="12.204704615916304"><ele>325.0</ele><time>2026-03-29T09:49:25Z</time></trkpt><trkpt lat="43.21531023229123" lon="12.204807701114103"><ele>325.75</ele><time>2026-03-29T09:49:26Z</time></trkpt><trkpt lat="43.21521354420179" lon="12.204929707242178"><ele>326.5</ele><time>2026-03-29T09:49:27Z</time></trkpt><trkpt lat="43.215108941604264" lon="12.205040421186412"><ele>327.25</ele><time>2026-03-29T09:49:28Z</time></trkpt><trkpt lat="43.2150083010216" lon="12.205152150673044"><ele>328.0</ele><time>2026-03-29T09:49:29Z</time></trkpt><trkpt lat="43.2149127606038" lon="12.20525038651121"><ele>328.0</ele><time>2026-03-29T09:49:30Z</time></trkpt><trkpt lat="43.214810575137406" lon="12.205322538809234"><ele>328.0</ele><time>2026-03-29T09:49:31Z</time></trkpt><trkpt lat="43.2147153622378" lon="12.20535452715985"><ele>328.0</ele><time>2026-03-29T09:49:32Z</time></trkpt><trkpt lat="43.214639789522906" lon="12.205413853209503"><ele>328.0</ele><time>2026-03-29T09:49:33Z</time></trkpt><trkpt lat="43.21456499742337" lon="12.205508195130728"><ele>328.0</ele><time>2026-03-29T09:49:34Z</time></trkpt><trkpt lat="43.21449514446141" lon="12.205606563692207"><ele>328.2</ele><time>2026-03-29T09:49:35Z</time></trkpt><trkpt lat="43.214428840148315" lon="12.205729479813952"><ele>328.4</ele><time>2026-03-29T09:49:36Z</time></trkpt><trkpt lat="43.214366835714294" lon="12.205869674493098"><ele>328.59999999999997</ele><time>2026-03-29T09:49:37Z</time></trkpt><trkpt lat="43.2143063993192" lon="12.206003414564748"><ele>328.79999999999995</ele><time>2026-03-29T09:49:38Z</time></trkpt><trkpt lat="43.21425597056461" lon="12.20611086877202"><ele>329.0</ele><time>2026-03-29T09:49:39Z</time></trkpt><trkpt lat="43.21421687945889" lon="12.206213755762247"><ele>329.0</ele><time>2026-03-29T09:49:40Z</time></trkpt><trkpt lat="43.214194095467775" lon="12.206334794642366"><ele>329.0</ele><time>2026-03-29T09:49:41Z</time></trkpt><trkpt lat="43.214176857835426" lon="12.206466722038241"><ele>329.0</ele><time>2026-03-29T09:49:42Z</time></trkpt><trkpt lat="43.21413862880222" lon="12.206604816749497"><ele>329.0</ele><time>2026-03-29T09:49:43Z</time></trkpt><trkpt lat="43.21410699013436" lon="12.206739692595368"><ele>329.0</ele><time>2026-03-29T09:49:44Z</time></trkpt><trkpt lat="43.21408208166138" lon="12.206852682958312"><ele>329.5</ele><time>2026-03-29T09:49:45Z</time></trkpt><trkpt lat="43.21406346532558" lon="12.206963213108395"><ele>330.0</ele><time>2026-03-29T09:49:46Z</time></trkpt><trkpt lat="43.214056403907485" lon="12.207070082413653"><ele>330.5</ele><time>2026-03-29T09:49:47Z</time></trkpt><trkpt lat="43.214057046810055" lon="12.207162012045199"><ele>331.0</ele><time>2026-03-29T09:49:48Z</time></trkpt><trkpt lat="43.21407243452788" lon="12.207279050603013"><ele>331.5</ele><time>2026-03-29T09:49:51Z</time></trkpt><trkpt lat="43.214066801181716" lon="12.207366235629149"><ele>332.0</ele><time>2026-03-29T09:49:53Z</time></trkpt><trkpt lat="43.21394056643785" lon="12.2075251383513"><ele>332.83333333333337</ele><time>2026-03-29T09:49:55Z</time></trkpt><trkpt lat="43.2138619050066" lon="12.207623001734103"><ele>333.6666666666667</ele><time>2026-03-29T09:49:56Z</time></trkpt><trkpt lat="43.21379560388114" lon="12.207716478629113"><ele>334.5</ele><time>2026-03-29T09:49:57Z</time></trkpt><trkpt lat="43.21374845008511" lon="12.207806258603906"><ele>335.3333333333333</ele><time>2026-03-29T09:49:58Z</time></trkpt><trkpt lat="43.21367762278691" lon="12.207876090538845"><ele>336.16666666666663</ele><time>2026-03-29T09:49:59Z</time></trkpt><trkpt lat="43.21361946167531" lon="12.207926385986964"><ele>337.0</ele><time>2026-03-29T09:50:00Z</time></trkpt><trkpt lat="43.2135647324018" lon="12.207979029251915"><ele>337.0</ele><time>2026-03-29T09:50:01Z</time></trkpt><trkpt lat="43.213509827489105" lon="12.208028071645458"><ele>337.0</ele><time>2026-03-29T09:50:02Z</time></trkpt><trkpt lat="43.21342811202003" lon="12.208060149934331"><ele>337.0</ele><time>2026-03-29T09:50:03Z</time></trkpt><trkpt lat="43.21333012559712" lon="12.208043383566343"><ele>337.0</ele><time>2026-03-29T09:50:04Z</time></trkpt><trkpt lat="43.21324380904296" lon="12.208039941624705"><ele>337.0</ele><time>2026-03-29T09:50:05Z</time></trkpt><trkpt lat="43.21315747576801" lon="12.208073684812492"><ele>337.0</ele><time>2026-03-29T09:50:06Z</time></trkpt><trkpt lat="43.213063846985484" lon="12.208117008468552"><ele>338.0</ele><time>2026-03-29T09:50:07Z</time></trkpt><trkpt lat="43.21296542984326" lon="12.208162931126884"><ele>339.0</ele><time>2026-03-29T09:50:08Z</time></trkpt><trkpt lat="43.212869157993985" lon="12.208212935185964"><ele>340.0</ele><time>2026-03-29T09:50:09Z</time></trkpt><trkpt lat="43.21278349586699" lon="12.208246773026021"><ele>341.0</ele><time>2026-03-29T09:50:10Z</time></trkpt><trkpt lat="43.21269396987045" lon="12.208271787200845"><ele>342.0</ele><time>2026-03-29T09:50:11Z</time></trkpt><trkpt lat="43.21261487095818" lon="12.208312881552118"><ele>342.0</ele><time>2026-03-29T09:50:12Z</time></trkpt><trkpt lat="43.21254418044053" lon="12.208371956328204"><ele>342.0</ele><time>2026-03-29T09:50:13Z</time></trkpt><trkpt lat="43.21247194876324" lon="12.208436696049047"><ele>342.0</ele><time>2026-03-29T09:50:14Z</time></trkpt><trkpt lat="43.212388418536726" lon="12.20849459766889"><ele>342.0</ele><time>2026-03-29T09:50:15Z</time></trkpt><trkpt lat="43.212314266767066" lon="12.208533160120318"><ele>342.0</ele><time>2026-03-29T09:50:16Z</time></trkpt><trkpt lat="43.212248505715344" lon="12.208596997956935"><ele>342.0</ele><time>2026-03-29T09:50:17.001Z</time></trkpt><trkpt lat="43.21218321743174" lon="12.20868164079063"><ele>342.6666666666667</ele><time>2026-03-29T09:50:18.001Z</time></trkpt><trkpt lat="43.21212225357065" lon="12.20875852620778"><ele>343.3333333333333</ele><time>2026-03-29T09:50:19.001Z</time></trkpt><trkpt lat="43.21206885771056" lon="12.2088323401717"><ele>344.0</ele><time>2026-03-29T09:50:20.001Z</time></trkpt><trkpt lat="43.21201456409204" lon="12.208895286167632"><ele>344.66666666666663</ele><time>2026-03-29T09:50:21.001Z</time></trkpt><trkpt lat="43.2119141261647" lon="12.208976088939046"><ele>345.3333333333333</ele><time>2026-03-29T09:50:23.001Z</time></trkpt><trkpt lat="43.211852765445734" lon="12.209029638380656"><ele>346.0</ele><time>2026-03-29T09:50:24.001Z</time></trkpt><trkpt lat="43.21188928332622" lon="12.209211056292759"><ele>346.0</ele><time>2026-03-29T09:50:26.001Z</time></trkpt><trkpt lat="43.211923584268476" lon="12.20933487806058"><ele>346.0</ele><time>2026-03-29T09:50:27.001Z</time></trkpt><trkpt lat="43.211955893692306" lon="12.209459826949969"><ele>346.0</ele><time>2026-03-29T09:50:28.001Z</time></trkpt><trkpt lat="43.21199391323728" lon="12.209580250218844"><ele>346.0</ele><time>2026-03-29T09:50:29.001Z</time></trkpt><trkpt lat="43.21200512327101" lon="12.209684201275131"><ele>346.0</ele><time>2026-03-29T09:50:30.001Z</time></trkpt><trkpt lat="43.21195115914811" lon="12.209799062636344"><ele>346.8333333333333</ele><time>2026-03-29T09:50:32.001Z</time></trkpt><trkpt lat="43.211958417539634" lon="12.209915577718462"><ele>347.66666666666663</ele><time>2026-03-29T09:50:34.001Z</time></trkpt><trkpt lat="43.21198232475939" lon="12.210026501452683"><ele>348.5</ele><time>2026-03-29T09:50:35.001Z</time></trkpt><trkpt lat="43.212001137735534" lon="12.210158986624617"><ele>349.3333333333333</ele><time>2026-03-29T09:50:36.001Z</time></trkpt><trkpt lat="43.21198498574844" lon="12.210275742662452"><ele>350.1666666666667</ele><time>2026-03-29T09:50:37.001Z</time></trkpt><trkpt lat="43.21195603192685" lon="12.210391611166951"><ele>351.0</ele><time>2026-03-29T09:50:38.001Z</time></trkpt><trkpt lat="43.21194017012956" lon="12.210510242663588"><ele>351.0</ele><time>2026-03-29T09:50:39.001Z</time></trkpt><trkpt lat="43.21194049864392" lon="12.210607738973389"><ele>351.0</ele><time>2026-03-29T09:50:40.001Z</time></trkpt><trkpt lat="43.21189652830655" lon="12.210689685656646"><ele>351.0</ele><time>2026-03-29T09:50:42.001Z</time></trkpt><trkpt lat="43.21180987265477" lon="12.21071956834698"><ele>351.0</ele><time>2026-03-29T09:50:44.001Z</time></trkpt><trkpt lat="43.211729152752184" lon="12.210738412344698"><ele>351.0</ele><time>2026-03-29T09:50:47Z</time></trkpt><trkpt lat="43.211728342166644" lon="12.210648918600631"><ele>351.0</ele><time>2026-03-29T09:50:49Z</time></trkpt><trkpt lat="43.21175869219901" lon="12.210540300980261"><ele>351.0</ele><time>2026-03-29T09:50:50Z</time></trkpt><trkpt lat="43.211742902363426" lon="12.210405403184698"><ele>351.0</ele><time>2026-03-29T09:50:52Z</time></trkpt><trkpt lat="43.211708129880975" lon="12.210323289677405"><ele>351.0</ele><time>2026-03-29T09:50:53Z</time></trkpt><trkpt lat="43.21169170579293" lon="12.210163462504353"><ele>351.0</ele><time>2026-03-29T09:50:55Z</time></trkpt><trkpt lat="43.21166779875385" lon="12.210059322033809"><ele>351.0</ele><time>2026-03-29T09:50:56Z</time></trkpt><trkpt lat="43.2116349465713" lon="12.209917548310438"><ele>350.1666666666667</ele><time>2026-03-29T09:50:58Z</time></trkpt><trkpt lat="43.21159487312662" lon="12.209803109145652"><ele>349.3333333333333</ele><time>2026-03-29T09:51:00Z</time></trkpt><trkpt lat="43.21154008281172" lon="12.209694714717962"><ele>348.5</ele><time>2026-03-29T09:51:03Z</time></trkpt><trkpt lat="43.21148406938528" lon="12.209620952113728"><ele>347.66666666666663</ele><time>2026-03-29T09:51:06Z</time></trkpt><trkpt lat="43.21141541019638" lon="12.209567954589472"><ele>346.8333333333333</ele><time>2026-03-29T09:51:09Z</time></trkpt><trkpt lat="43.21134108684885" lon="12.2095938949083"><ele>346.0</ele><time>2026-03-29T09:51:12Z</time></trkpt><trkpt lat="43.21129331838402" lon="12.209678345474533"><ele>347.6</ele><time>2026-03-29T09:51:15Z</time></trkpt><trkpt lat="43.21119628460867" lon="12.209728289885843"><ele>349.20000000000005</ele><time>2026-03-29T09:51:18Z</time></trkpt><trkpt lat="43.211078310072025" lon="12.209773763530546"><ele>350.79999999999995</ele><time>2026-03-29T09:51:20Z</time></trkpt><trkpt lat="43.21100761750681" lon="12.209813168637247"><ele>352.4</ele><time>2026-03-29T09:51:21Z</time></trkpt><trkpt lat="43.21094250680951" lon="12.209843058592885"><ele>354.0</ele><time>2026-03-29T09:51:22Z</time></trkpt><trkpt lat="43.210853593978584" lon="12.20987430343632"><ele>354.0</ele><time>2026-03-29T09:51:24Z</time></trkpt><trkpt lat="43.21077585584535" lon="12.209903089073919"><ele>354.0</ele><time>2026-03-29T09:51:26Z</time></trkpt><trkpt lat="43.210689504604915" lon="12.209973197885228"><ele>354.0</ele><time>2026-03-29T09:51:28Z</time></trkpt><trkpt lat="43.21064805146156" lon="12.210039905315025"><ele>354.0</ele><time>2026-03-29T09:51:30Z</time></trkpt><trkpt lat="43.21058621181917" lon="12.21008736446524"><ele>354.0</ele><time>2026-03-29T09:51:32Z</time></trkpt><trkpt lat="43.21050329268862" lon="12.210156709971335"><ele>354.0</ele><time>2026-03-29T09:51:35Z</time></trkpt><trkpt lat="43.21043997682794" lon="12.21019864605611"><ele>357.0</ele><time>2026-03-29T09:51:37Z</time></trkpt><trkpt lat="43.210372500589685" lon="12.210225821208198"><ele>360.0</ele><time>2026-03-29T09:51:40Z</time></trkpt><trkpt lat="43.210282936136196" lon="12.210314749615923"><ele>363.0</ele><time>2026-03-29T09:51:43Z</time></trkpt><trkpt lat="43.21025255851509" lon="12.210408272281423"><ele>366.0</ele><time>2026-03-29T09:51:45Z</time></trkpt><trkpt lat="43.210204707075" lon="12.210495235569269"><ele>369.0</ele><time>2026-03-29T09:51:46Z</time></trkpt><trkpt lat="43.210159250064535" lon="12.210583815724894"><ele>372.0</ele><time>2026-03-29T09:51:47Z</time></trkpt><trkpt lat="43.210107340012875" lon="12.210650780207333"><ele>372.8333333333333</ele><time>2026-03-29T09:51:48Z</time></trkpt><trkpt lat="43.21001743060928" lon="12.21070833080573"><ele>373.6666666666667</ele><time>2026-03-29T09:51:50Z</time></trkpt><trkpt lat="43.2099510648837" lon="12.210739092581091"><ele>374.5</ele><time>2026-03-29T09:51:51Z</time></trkpt><trkpt lat="43.20987603259848" lon="12.210770479494164"><ele>375.33333333333337</ele><time>2026-03-29T09:51:54Z</time></trkpt><trkpt lat="43.20981982870092" lon="12.210814555301065"><ele>376.1666666666667</ele><time>2026-03-29T09:51:57Z</time></trkpt><trkpt lat="43.209729311564644" lon="12.21081189621729"><ele>377.0</ele><time>2026-03-29T09:51:59Z</time></trkpt><trkpt lat="43.209648074997226" lon="12.210850370684657"><ele>377.0</ele><time>2026-03-29T09:52:01Z</time></trkpt><trkpt lat="43.20958651979848" lon="12.21088449091654"><ele>377.0</ele><time>2026-03-29T09:52:03Z</time></trkpt><trkpt lat="43.20951950315912" lon="12.210952679381192"><ele>377.0</ele><time>2026-03-29T09:52:06Z</time></trkpt><trkpt lat="43.20943850443706" lon="12.211020305927903"><ele>377.0</ele><time>2026-03-29T09:52:09Z</time></trkpt><trkpt lat="43.209379105967066" lon="12.211067567815673"><ele>377.0</ele><time>2026-03-29T09:52:12Z</time></trkpt><trkpt lat="43.20934191264749" lon="12.211163505721009"><ele>377.0</ele><time>2026-03-29T09:52:14Z</time></trkpt><trkpt lat="43.20930446736199" lon="12.211251296857123"><ele>376.99999999999994</ele><time>2026-03-29T09:52:16Z</time></trkpt><trkpt lat="43.20931171616472" lon="12.211337096904783"><ele>377.0</ele><time>2026-03-29T09:52:19Z</time></trkpt><trkpt lat="43.20925878007092" lon="12.21140751100019"><ele>377.0</ele><time>2026-03-29T09:52:21Z</time></trkpt><trkpt lat="43.20922814791424" lon="12.21148789044926"><ele>377.0</ele><time>2026-03-29T09:52:24.001Z</time></trkpt><trkpt lat="43.209227082802386" lon="12.211585765820095"><ele>377.0</ele><time>2026-03-29T09:52:49Z</time></trkpt><trkpt lat="43.20922944231954" lon="12.21167906858108"><ele>376.99999999999994</ele><time>2026-03-29T09:54:38Z</time></trkpt><trkpt lat="43.209239022231415" lon="12.211768785084685"><ele>377.0</ele><time>2026-03-29T09:55:54Z</time></trkpt><trkpt lat="43.20916840778875" lon="12.211775020978592"><ele>376.33333333333337</ele><time>2026-03-29T09:56:23Z</time></trkpt><trkpt lat="43.20923995061304" lon="12.21182292877062"><ele>375.6666666666667</ele><time>2026-03-29T09:57:21Z</time></trkpt><trkpt lat="43.209295187881445" lon="12.21190112730577"><ele>375.0</ele><time>2026-03-29T09:57:50Z</time></trkpt><trkpt lat="43.20935362779994" lon="12.211951836173077"><ele>374.3333333333333</ele><time>2026-03-29T09:57:55Z</time></trkpt><trkpt lat="43.209335054951254" lon="12.21185635738344"><ele>373.66666666666663</ele><time>2026-03-29T09:58:28Z</time></trkpt><trkpt lat="43.20938966970661" lon="12.211929000421003"><ele>373.0</ele><time>2026-03-29T10:01:56Z</time></trkpt><trkpt lat="43.20943102932802" lon="12.212091519323558"><ele>373.0</ele><time>2026-03-29T10:01:58Z</time></trkpt><trkpt lat="43.20947722937807" lon="12.212236313040213"><ele>373.0</ele><time>2026-03-29T10:02:00Z</time></trkpt><trkpt lat="43.209476889380525" lon="12.212407238689446"><ele>373.0</ele><time>2026-03-29T10:02:03Z</time></trkpt><trkpt lat="43.20944283837496" lon="12.212501349737671"><ele>373.0</ele><time>2026-03-29T10:02:32Z</time></trkpt><trkpt lat="43.20943753569205" lon="12.21264013983033"><ele>373.0</ele><time>2026-03-29T10:02:35Z</time></trkpt><trkpt lat="43.20947981823726" lon="12.212732379495533"><ele>374.5</ele><time>2026-03-29T10:02:36Z</time></trkpt><trkpt lat="43.2095209002511" lon="12.212818004044008"><ele>376.0</ele><time>2026-03-29T10:02:37Z</time></trkpt><trkpt lat="43.209533497896935" lon="12.212902952831978"><ele>377.5</ele><time>2026-03-29T10:02:38Z</time></trkpt><trkpt lat="43.209547670637306" lon="12.21300037276703"><ele>379.0</ele><time>2026-03-29T10:02:40Z</time></trkpt><trkpt lat="43.20955158035053" lon="12.213089398840687"><ele>380.5</ele><time>2026-03-29T10:02:47Z</time></trkpt><trkpt lat="43.209495602332886" lon="12.213231644459126"><ele>382.0</ele><time>2026-03-29T10:02:49Z</time></trkpt><trkpt lat="43.20944209014399" lon="12.213311188074785"><ele>385.20000000000005</ele><time>2026-03-29T10:02:50Z</time></trkpt><trkpt lat="43.20941524349288" lon="12.213389580919152"><ele>388.4</ele><time>2026-03-29T10:02:51Z</time></trkpt><trkpt lat="43.209398143843316" lon="12.213480003748133"><ele>391.6</ele><time>2026-03-29T10:02:52Z</time></trkpt><trkpt lat="43.2093381932137" lon="12.213612433485416"><ele>394.79999999999995</ele><time>2026-03-29T10:02:54Z</time></trkpt><trkpt lat="43.20930055964204" lon="12.213791759468599"><ele>398.0</ele><time>2026-03-29T10:02:56Z</time></trkpt><trkpt lat="43.2092753192335" lon="12.213881012340133"><ele>397.99999999999994</ele><time>2026-03-29T10:02:57Z</time></trkpt><trkpt lat="43.20925474778514" lon="12.21397365203787"><ele>398.0</ele><time>2026-03-29T10:02:58Z</time></trkpt><trkpt lat="43.20922308800616" lon="12.214086249838408"><ele>398.0</ele><time>2026-03-29T10:03:00Z</time></trkpt><trkpt lat="43.209194698475294" lon="12.214215002057205"><ele>398.0</ele><time>2026-03-29T10:03:02Z</time></trkpt><trkpt lat="43.20920540215398" lon="12.214350110594296"><ele>397.99999999999994</ele><time>2026-03-29T10:03:04Z</time></trkpt><trkpt lat="43.209202701164045" lon="12.21446704586171"><ele>398.0</ele><time>2026-03-29T10:03:06Z</time></trkpt><trkpt lat="43.209148118906235" lon="12.214554906117096"><ele>397.59999999999997</ele><time>2026-03-29T10:03:08Z</time></trkpt><trkpt lat="43.20907630760778" lon="12.21461125265173"><ele>397.2</ele><time>2026-03-29T10:03:10Z</time></trkpt><trkpt lat="43.209027770009776" lon="12.214670958569005"><ele>396.8</ele><time>2026-03-29T10:03:12Z</time></trkpt><trkpt lat="43.208969629909056" lon="12.214792773611844"><ele>396.4</ele><time>2026-03-29T10:03:17Z</time></trkpt><trkpt lat="43.20891904810983" lon="12.21495227121476"><ele>396.0</ele><time>2026-03-29T10:03:20Z</time></trkpt><trkpt lat="43.20889844461193" lon="12.215054014783473"><ele>400.0</ele><time>2026-03-29T10:03:21Z</time></trkpt><trkpt lat="43.208851986244746" lon="12.215191611572884"><ele>404.0</ele><time>2026-03-29T10:03:23Z</time></trkpt><trkpt lat="43.20882684436843" lon="12.215341195751474"><ele>408.0</ele><time>2026-03-29T10:03:25Z</time></trkpt><trkpt lat="43.208729474746" lon="12.215594922907664"><ele>412.0</ele><time>2026-03-29T10:03:29Z</time></trkpt><trkpt lat="43.20870953534249" lon="12.215722143470206"><ele>414.8</ele><time>2026-03-29T10:03:30Z</time></trkpt><trkpt lat="43.20867144505819" lon="12.215927984311856"><ele>417.6</ele><time>2026-03-29T10:03:31Z</time></trkpt><trkpt lat="43.208653668590415" lon="12.216078710500838"><ele>420.40000000000003</ele><time>2026-03-29T10:03:32Z</time></trkpt><trkpt lat="43.20868142102682" lon="12.216188950033901"><ele>423.20000000000005</ele><time>2026-03-29T10:03:33Z</time></trkpt><trkpt lat="43.2087462507494" lon="12.2162543278112"><ele>426.0</ele><time>2026-03-29T10:03:34Z</time></trkpt><trkpt lat="43.208807092853135" lon="12.216350084275868"><ele>426.0</ele><time>2026-03-29T10:03:35Z</time></trkpt><trkpt lat="43.2089131132581" lon="12.216448995534794"><ele>426.0</ele><time>2026-03-29T10:03:36Z</time></trkpt><trkpt lat="43.20902908223663" lon="12.216510215408185"><ele>426.0</ele><time>2026-03-29T10:03:37Z</time></trkpt><trkpt lat="43.20914892818167" lon="12.216571218164818"><ele>426.0</ele><time>2026-03-29T10:03:38Z</time></trkpt><trkpt lat="43.20926546567229" lon="12.216631719950968"><ele>431.5</ele><time>2026-03-29T10:03:39Z</time></trkpt><trkpt lat="43.20940503014646" lon="12.216723043614026"><ele>437.0</ele><time>2026-03-29T10:03:40Z</time></trkpt><trkpt lat="43.20953379104183" lon="12.216830227430915"><ele>442.5</ele><time>2026-03-29T10:03:41Z</time></trkpt><trkpt lat="43.20965970942924" lon="12.216920295545457"><ele>448.0</ele><time>2026-03-29T10:03:42Z</time></trkpt><trkpt lat="43.20977347150468" lon="12.217014005900747"><ele>447.59999999999997</ele><time>2026-03-29T10:03:43Z</time></trkpt><trkpt lat="43.20988691119232" lon="12.217120864745603"><ele>447.19999999999993</ele><time>2026-03-29T10:03:44Z</time></trkpt><trkpt lat="43.20999082596126" lon="12.217234118652598"><ele>446.8</ele><time>2026-03-29T10:03:45Z</time></trkpt><trkpt lat="43.21005089361235" lon="12.217306569865535"><ele>446.4</ele><time>2026-03-29T10:03:46Z</time></trkpt><trkpt lat="43.210110043039656" lon="12.217353034496533"><ele>446.0</ele><time>2026-03-29T10:03:47Z</time></trkpt><trkpt lat="43.210202448094506" lon="12.217334127797152"><ele>449.8</ele><time>2026-03-29T10:03:48Z</time></trkpt><trkpt lat="43.21028214588192" lon="12.21734666866517"><ele>453.6</ele><time>2026-03-29T10:03:49Z</time></trkpt><trkpt lat="43.210415416300194" lon="12.217368707810563"><ele>457.4</ele><time>2026-03-29T10:03:50Z</time></trkpt><trkpt lat="43.21054064948856" lon="12.217388149026258"><ele>461.2</ele><time>2026-03-29T10:03:51Z</time></trkpt><trkpt lat="43.210581831015986" lon="12.217480862057227"><ele>465.0</ele><time>2026-03-29T10:03:52Z</time></trkpt><trkpt lat="43.210605464670785" lon="12.217592892866096"><ele>465.0</ele><time>2026-03-29T10:03:53Z</time></trkpt><trkpt lat="43.210570688890606" lon="12.21768779122965"><ele>465.0</ele><time>2026-03-29T10:03:54Z</time></trkpt><trkpt lat="43.210507119832" lon="12.217790063576674"><ele>465.0</ele><time>2026-03-29T10:03:55Z</time></trkpt><trkpt lat="43.210439486626946" lon="12.21788393086338"><ele>465.0</ele><time>2026-03-29T10:03:56Z</time></trkpt><trkpt lat="43.21032560150884" lon="12.218002388922669"><ele>465.0</ele><time>2026-03-29T10:03:57Z</time></trkpt><trkpt lat="43.21021812552304" lon="12.218151169409854"><ele>468.0</ele><time>2026-03-29T10:03:58Z</time></trkpt><trkpt lat="43.21012323515903" lon="12.218350672982277"><ele>471.0</ele><time>2026-03-29T10:03:59Z</time></trkpt><trkpt lat="43.21006232076749" lon="12.218516277130519"><ele>474.0</ele><time>2026-03-29T10:04:00Z</time></trkpt><trkpt lat="43.209955614043494" lon="12.21869607431457"><ele>474.0</ele><time>2026-03-29T10:04:01Z</time></trkpt><trkpt lat="43.20986363545168" lon="12.21886966433705"><ele>474.0</ele><time>2026-03-29T10:04:02Z</time></trkpt><trkpt lat="43.20975862772511" lon="12.219055116353955"><ele>474.0</ele><time>2026-03-29T10:04:03Z</time></trkpt><trkpt lat="43.20967705477589" lon="12.219195550337323"><ele>477.4</ele><time>2026-03-29T10:04:04Z</time></trkpt><trkpt lat="43.20960140682142" lon="12.21935069169122"><ele>480.79999999999995</ele><time>2026-03-29T10:04:05Z</time></trkpt><trkpt lat="43.20952589436586" lon="12.219470938132776"><ele>484.20000000000005</ele><time>2026-03-29T10:04:06Z</time></trkpt><trkpt lat="43.2094393974428" lon="12.219535479858083"><ele>487.6</ele><time>2026-03-29T10:04:07Z</time></trkpt><trkpt lat="43.20935106213125" lon="12.21952905279335"><ele>491.0</ele><time>2026-03-29T10:04:08Z</time></trkpt><trkpt lat="43.20926293448406" lon="12.219460935322259"><ele>491.0</ele><time>2026-03-29T10:04:09Z</time></trkpt><trkpt lat="43.20916952630114" lon="12.219361905888569"><ele>491.0</ele><time>2026-03-29T10:04:10Z</time></trkpt><trkpt lat="43.20904892332757" lon="12.219252360832877"><ele>491.0</ele><time>2026-03-29T10:04:11Z</time></trkpt><trkpt lat="43.20896884353181" lon="12.219184630820598"><ele>491.0</ele><time>2026-03-29T10:04:12Z</time></trkpt><trkpt lat="43.20888630639084" lon="12.219104636935672"><ele>490.3333333333333</ele><time>2026-03-29T10:04:13Z</time></trkpt><trkpt lat="43.20880092569433" lon="12.219026389958918"><ele>489.66666666666663</ele><time>2026-03-29T10:04:14Z</time></trkpt><trkpt lat="43.20872981160619" lon="12.218978690097288"><ele>489.0</ele><time>2026-03-29T10:04:15Z</time></trkpt><trkpt lat="43.20866165454403" lon="12.218975898891873"><ele>488.33333333333337</ele><time>2026-03-29T10:04:16Z</time></trkpt><trkpt lat="43.20859800440329" lon="12.218992169124583"><ele>487.6666666666667</ele><time>2026-03-29T10:04:17Z</time></trkpt><trkpt lat="43.2085032783333" lon="12.219111929239306"><ele>487.0</ele><time>2026-03-29T10:04:19Z</time></trkpt><trkpt lat="43.20844447513289" lon="12.219210406525274"><ele>487.0</ele><time>2026-03-29T10:04:20Z</time></trkpt><trkpt lat="43.208382857185796" lon="12.219311596875128"><ele>487.0</ele><time>2026-03-29T10:04:21Z</time></trkpt><trkpt lat="43.208300690582384" lon="12.219430195786044"><ele>487.0</ele><time>2026-03-29T10:04:22Z</time></trkpt><trkpt lat="43.208219971186736" lon="12.219556325330858"><ele>487.0</ele><time>2026-03-29T10:04:23Z</time></trkpt><trkpt lat="43.208132290412465" lon="12.219690418021058"><ele>492.5</ele><time>2026-03-29T10:04:24Z</time></trkpt><trkpt lat="43.208047005373935" lon="12.219832935166151"><ele>498.0</ele><time>2026-03-29T10:04:25Z</time></trkpt><trkpt lat="43.207964746236954" lon="12.219976715405567"><ele>503.5</ele><time>2026-03-29T10:04:26Z</time></trkpt><trkpt lat="43.207888425025274" lon="12.22008490622259"><ele>509.0</ele><time>2026-03-29T10:04:27Z</time></trkpt><trkpt lat="43.20779956222076" lon="12.220178481066062"><ele>509.0</ele><time>2026-03-29T10:04:28Z</time></trkpt><trkpt lat="43.207684282077096" lon="12.220192629617403"><ele>509.0</ele><time>2026-03-29T10:04:30Z</time></trkpt><trkpt lat="43.207610613565976" lon="12.220060547199376"><ele>509.0</ele><time>2026-03-29T10:04:32Z</time></trkpt><trkpt lat="43.20757381068815" lon="12.219984460371547"><ele>509.0</ele><time>2026-03-29T10:04:33Z</time></trkpt><trkpt lat="43.207503803543695" lon="12.219906225674388"><ele>509.0</ele><time>2026-03-29T10:04:34Z</time></trkpt><trkpt lat="43.20741092039024" lon="12.219862854185907"><ele>509.0</ele><time>2026-03-29T10:04:35Z</time></trkpt><trkpt lat="43.20734058641542" lon="12.219880745369426"><ele>509.0</ele><time>2026-03-29T10:04:36Z</time></trkpt><trkpt lat="43.207272831846204" lon="12.21993757364514"><ele>509.0</ele><time>2026-03-29T10:04:37Z</time></trkpt><trkpt lat="43.20719177165492" lon="12.220022672218317"><ele>509.0</ele><time>2026-03-29T10:04:38Z</time></trkpt><trkpt lat="43.20710207424848" lon="12.220139154513962"><ele>509.0</ele><time>2026-03-29T10:04:39Z</time></trkpt><trkpt lat="43.20700022882434" lon="12.220251669527828"><ele>510.25</ele><time>2026-03-29T10:04:40Z</time></trkpt><trkpt lat="43.206884134864005" lon="12.220320785267639"><ele>511.5</ele><time>2026-03-29T10:04:41Z</time></trkpt><trkpt lat="43.20677034884721" lon="12.220387764132015"><ele>512.75</ele><time>2026-03-29T10:04:42Z</time></trkpt><trkpt lat="43.20666984760274" lon="12.220450221100672"><ele>514.0</ele><time>2026-03-29T10:04:43Z</time></trkpt><trkpt lat="43.206572353109785" lon="12.220513146711136"><ele>515.0</ele><time>2026-03-29T10:04:44Z</time></trkpt><trkpt lat="43.20645399880972" lon="12.22055939185048"><ele>516.0</ele><time>2026-03-29T10:04:45Z</time></trkpt><trkpt lat="43.206357228442535" lon="12.22060379944155"><ele>517.0</ele><time>2026-03-29T10:04:46Z</time></trkpt><trkpt lat="43.206245479393395" lon="12.220629785702068"><ele>518.0</ele><time>2026-03-29T10:04:48Z</time></trkpt><trkpt lat="43.20618066624488" lon="12.220604844871882"><ele>519.0</ele><time>2026-03-29T10:04:49Z</time></trkpt><trkpt lat="43.20611859402402" lon="12.220584399189798"><ele>519.0</ele><time>2026-03-29T10:04:50Z</time></trkpt><trkpt lat="43.206016728677" lon="12.220541398420252"><ele>519.0</ele><time>2026-03-29T10:04:51Z</time></trkpt><trkpt lat="43.205907445732606" lon="12.220522929154592"><ele>519.0</ele><time>2026-03-29T10:04:52Z</time></trkpt><trkpt lat="43.20580961008269" lon="12.220549465841325"><ele>519.0</ele><time>2026-03-29T10:04:53Z</time></trkpt><trkpt lat="43.20570335837071" lon="12.220588086576829"><ele>519.0</ele><time>2026-03-29T10:04:54Z</time></trkpt><trkpt lat="43.20558666815561" lon="12.220624550921329"><ele>525.5</ele><time>2026-03-29T10:04:55Z</time></trkpt><trkpt lat="43.20545566412587" lon="12.220689645422416"><ele>532.0</ele><time>2026-03-29T10:04:56Z</time></trkpt><trkpt lat="43.20532985194483" lon="12.220758463212958"><ele>538.5</ele><time>2026-03-29T10:04:57Z</time></trkpt><trkpt lat="43.20520591454024" lon="12.220817162285924"><ele>545.0</ele><time>2026-03-29T10:04:58Z</time></trkpt><trkpt lat="43.205094787585224" lon="12.220872629849481"><ele>545.0</ele><time>2026-03-29T10:04:59Z</time></trkpt><trkpt lat="43.20502389631828" lon="12.220953388745293"><ele>545.0</ele><time>2026-03-29T10:05:00Z</time></trkpt><trkpt lat="43.204953474439634" lon="12.221061320340171"><ele>545.0</ele><time>2026-03-29T10:05:01Z</time></trkpt><trkpt lat="43.204913294800626" lon="12.22116328505605"><ele>545.0</ele><time>2026-03-29T10:05:02Z</time></trkpt><trkpt lat="43.20492399996679" lon="12.221315892382012"><ele>545.0</ele><time>2026-03-29T10:05:04Z</time></trkpt><trkpt lat="43.20504527552938" lon="12.221402171658877"><ele>545.0</ele><time>2026-03-29T10:05:06Z</time></trkpt><trkpt lat="43.2051365170752" lon="12.221417701290553"><ele>545.0</ele><time>2026-03-29T10:05:07Z</time></trkpt><trkpt lat="43.20519323330077" lon="12.221467736398688"><ele>545.0</ele><time>2026-03-29T10:05:08Z</time></trkpt><trkpt lat="43.205215822965535" lon="12.221597025049945"><ele>545.0</ele><time>2026-03-29T10:05:10Z</time></trkpt><trkpt lat="43.20516931288595" lon="12.221668899833716"><ele>545.0</ele><time>2026-03-29T10:05:11Z</time></trkpt><trkpt lat="43.20507350731219" lon="12.221749121910348"><ele>545.0</ele><time>2026-03-29T10:05:12Z</time></trkpt><trkpt lat="43.20500731128541" lon="12.221866566374255"><ele>548.5</ele><time>2026-03-29T10:05:13Z</time></trkpt><trkpt lat="43.20488665543191" lon="12.222013598442237"><ele>552.0</ele><time>2026-03-29T10:05:14Z</time></trkpt><trkpt lat="43.20481773368801" lon="12.222151420480872"><ele>555.5</ele><time>2026-03-29T10:05:15Z</time></trkpt><trkpt lat="43.204702335420826" lon="12.222225470148963"><ele>559.0</ele><time>2026-03-29T10:05:16Z</time></trkpt><trkpt lat="43.204592073446726" lon="12.22227846696177"><ele>562.6</ele><time>2026-03-29T10:05:17Z</time></trkpt><trkpt lat="43.204484332001584" lon="12.222340001523282"><ele>566.2</ele><time>2026-03-29T10:05:18Z</time></trkpt><trkpt lat="43.204392078887174" lon="12.222385213541155"><ele>569.8000000000001</ele><time>2026-03-29T10:05:19Z</time></trkpt><trkpt lat="43.20430947483233" lon="12.222446715382073"><ele>573.4</ele><time>2026-03-29T10:05:20Z</time></trkpt><trkpt lat="43.20420538130389" lon="12.222535512066058"><ele>577.0</ele><time>2026-03-29T10:05:21Z</time></trkpt><trkpt lat="43.20405398566443" lon="12.222622747457928"><ele>577.5</ele><time>2026-03-29T10:05:22Z</time></trkpt><trkpt lat="43.203911701584566" lon="12.222707948868392"><ele>578.0</ele><time>2026-03-29T10:05:23Z</time></trkpt><trkpt lat="43.203824913323515" lon="12.222787143986777"><ele>578.5</ele><time>2026-03-29T10:05:24Z</time></trkpt><trkpt lat="43.20374090169518" lon="12.222863605508733"><ele>579.0</ele><time>2026-03-29T10:05:25Z</time></trkpt><trkpt lat="43.20362756115041" lon="12.222939997031988"><ele>579.0</ele><time>2026-03-29T10:05:26Z</time></trkpt><trkpt lat="43.20352726629031" lon="12.223054510786348"><ele>579.0</ele><time>2026-03-29T10:05:27Z</time></trkpt><trkpt lat="43.20345798686362" lon="12.22312112168868"><ele>579.0</ele><time>2026-03-29T10:05:28Z</time></trkpt><trkpt lat="43.203357893083925" lon="12.223174093701928"><ele>579.0</ele><time>2026-03-29T10:05:29Z</time></trkpt><trkpt lat="43.20324059487079" lon="12.223233412252707"><ele>579.0</ele><time>2026-03-29T10:05:30Z</time></trkpt><trkpt lat="43.20311956535752" lon="12.22328885428545"><ele>583.2</ele><time>2026-03-29T10:05:31Z</time></trkpt><trkpt lat="43.20300366930344" lon="12.223345575303703"><ele>587.4</ele><time>2026-03-29T10:05:32Z</time></trkpt><trkpt lat="43.20289981554409" lon="12.223359966725711"><ele>591.6</ele><time>2026-03-29T10:05:33Z</time></trkpt><trkpt lat="43.20279342143295" lon="12.223314818232067"><ele>595.8</ele><time>2026-03-29T10:05:34Z</time></trkpt><trkpt lat="43.202703819187334" lon="12.223265667664833"><ele>600.0</ele><time>2026-03-29T10:05:35Z</time></trkpt><trkpt lat="43.202615288828014" lon="12.223280828248575"><ele>600.0</ele><time>2026-03-29T10:05:36Z</time></trkpt><trkpt lat="43.202531756938086" lon="12.22335046683021"><ele>600.0</ele><time>2026-03-29T10:05:37Z</time></trkpt><trkpt lat="43.20245438652777" lon="12.223453543955834"><ele>600.0</ele><time>2026-03-29T10:05:38Z</time></trkpt><trkpt lat="43.20242798363415" lon="12.223574188641305"><ele>600.0</ele><time>2026-03-29T10:05:39Z</time></trkpt><trkpt lat="43.202407956037575" lon="12.223696497165161"><ele>600.0</ele><time>2026-03-29T10:05:40Z</time></trkpt><trkpt lat="43.20234827522522" lon="12.2237651927443"><ele>601.6</ele><time>2026-03-29T10:05:41Z</time></trkpt><trkpt lat="43.20226566469616" lon="12.223779979646867"><ele>603.2</ele><time>2026-03-29T10:05:42Z</time></trkpt><trkpt lat="43.202186789361356" lon="12.223788356660682"><ele>604.8</ele><time>2026-03-29T10:05:43Z</time></trkpt><trkpt lat="43.20209710388592" lon="12.22382219758889"><ele>606.4</ele><time>2026-03-29T10:05:44Z</time></trkpt><trkpt lat="43.20206937626932" lon="12.223987460519814"><ele>608.0</ele><time>2026-03-29T10:05:46Z</time></trkpt><trkpt lat="43.20205874221221" lon="12.224144209818716"><ele>612.4</ele><time>2026-03-29T10:05:47Z</time></trkpt><trkpt lat="43.20202351092907" lon="12.22423813326016"><ele>616.8</ele><time>2026-03-29T10:05:48Z</time></trkpt><trkpt lat="43.20193493223315" lon="12.224302723508142"><ele>621.2</ele><time>2026-03-29T10:05:50Z</time></trkpt><trkpt lat="43.20185304067508" lon="12.224348104311398"><ele>625.6</ele><time>2026-03-29T10:05:51Z</time></trkpt><trkpt lat="43.20175501143543" lon="12.224443968475583"><ele>630.0</ele><time>2026-03-29T10:05:52Z</time></trkpt><trkpt lat="43.201655689777795" lon="12.224519633983293"><ele>630.0</ele><time>2026-03-29T10:05:53Z</time></trkpt><trkpt lat="43.20156156249277" lon="12.224622853619545"><ele>630.0</ele><time>2026-03-29T10:05:54Z</time></trkpt><trkpt lat="43.20150428795588" lon="12.224684432252982"><ele>630.0</ele><time>2026-03-29T10:05:55Z</time></trkpt><trkpt lat="43.20141967359655" lon="12.224718688338825"><ele>630.0</ele><time>2026-03-29T10:05:56Z</time></trkpt><trkpt lat="43.20130300492698" lon="12.224767538426246"><ele>630.0</ele><time>2026-03-29T10:05:57Z</time></trkpt><trkpt lat="43.20122091290225" lon="12.2248234701356"><ele>634.8</ele><time>2026-03-29T10:05:58Z</time></trkpt><trkpt lat="43.20114823381709" lon="12.224872444415356"><ele>639.6</ele><time>2026-03-29T10:05:59Z</time></trkpt><trkpt lat="43.20105897210036" lon="12.224885148153758"><ele>644.4000000000001</ele><time>2026-03-29T10:06:00Z</time></trkpt><trkpt lat="43.200978505634644" lon="12.224910911671781"><ele>649.2</ele><time>2026-03-29T10:06:01Z</time></trkpt><trkpt lat="43.20087447506869" lon="12.224901235258116"><ele>654.0</ele><time>2026-03-29T10:06:02Z</time></trkpt><trkpt lat="43.200761357357685" lon="12.224877273381214"><ele>654.2</ele><time>2026-03-29T10:06:03Z</time></trkpt><trkpt lat="43.200645997873195" lon="12.224872180203748"><ele>654.4000000000001</ele><time>2026-03-29T10:06:04Z</time></trkpt><trkpt lat="43.200523807572985" lon="12.224833988968516"><ele>654.6</ele><time>2026-03-29T10:06:05Z</time></trkpt><trkpt lat="43.20042466850335" lon="12.224812210864545"><ele>654.8</ele><time>2026-03-29T10:06:06Z</time></trkpt><trkpt lat="43.20032703183203" lon="12.224782860382273"><ele>655.0</ele><time>2026-03-29T10:06:07Z</time></trkpt><trkpt lat="43.20024728010072" lon="12.22476363775236"><ele>655.0</ele><time>2026-03-29T10:06:08Z</time></trkpt><trkpt lat="43.20018268789949" lon="12.224750252648736"><ele>655.0</ele><time>2026-03-29T10:06:09Z</time></trkpt><trkpt lat="43.20011700181791" lon="12.224717570636223"><ele>655.0</ele><time>2026-03-29T10:06:10Z</time></trkpt><trkpt lat="43.200029280506634" lon="12.224685591263043"><ele>655.0</ele><time>2026-03-29T10:06:12Z</time></trkpt><trkpt lat="43.199970577237686" lon="12.22476688969012"><ele>655.0</ele><time>2026-03-29T10:06:15Z</time></trkpt><trkpt lat="43.1999598262382" lon="12.224885589385444"><ele>655.0</ele><time>2026-03-29T10:06:17Z</time></trkpt><trkpt lat="43.19999980585618" lon="12.224979882647748"><ele>655.0</ele><time>2026-03-29T10:06:18Z</time></trkpt><trkpt lat="43.20002256431703" lon="12.22507652459579"><ele>655.0</ele><time>2026-03-29T10:06:21Z</time></trkpt><trkpt lat="43.20006571997286" lon="12.225143972435811"><ele>655.0</ele><time>2026-03-29T10:06:25Z</time></trkpt><trkpt lat="43.20011884035019" lon="12.225267184649706"><ele>655.0</ele><time>2026-03-29T10:06:27Z</time></trkpt><trkpt lat="43.2001652967169" lon="12.225362898183455"><ele>655.0</ele><time>2026-03-29T10:06:28Z</time></trkpt><trkpt lat="43.2001960020883" lon="12.225463210532903"><ele>655.0</ele><time>2026-03-29T10:06:29Z</time></trkpt><trkpt lat="43.20020770842943" lon="12.225561458240765"><ele>654.5</ele><time>2026-03-29T10:06:30Z</time></trkpt><trkpt lat="43.20021469700033" lon="12.22568687668259"><ele>654.0</ele><time>2026-03-29T10:06:31Z</time></trkpt><trkpt lat="43.20023736178469" lon="12.22581665532162"><ele>653.5</ele><time>2026-03-29T10:06:32Z</time></trkpt><trkpt lat="43.200261167563" lon="12.225996505741666"><ele>653.0</ele><time>2026-03-29T10:06:33Z</time></trkpt><trkpt lat="43.20027976880035" lon="12.226200696139582"><ele>653.0</ele><time>2026-03-29T10:06:34Z</time></trkpt><trkpt lat="43.20028687108737" lon="12.226388329059526"><ele>653.0</ele><time>2026-03-29T10:06:35Z</time></trkpt><trkpt lat="43.200301901048455" lon="12.226571954321557"><ele>653.0</ele><time>2026-03-29T10:06:36Z</time></trkpt><trkpt lat="43.20030808904846" lon="12.226773536287578"><ele>653.0</ele><time>2026-03-29T10:06:37Z</time></trkpt><trkpt lat="43.200324602087306" lon="12.226956928002444"><ele>653.5</ele><time>2026-03-29T10:06:38Z</time></trkpt><trkpt lat="43.20034407262496" lon="12.227133352914308"><ele>654.0</ele><time>2026-03-29T10:06:39Z</time></trkpt><trkpt lat="43.20035148330616" lon="12.227299450789662"><ele>654.5</ele><time>2026-03-29T10:06:40Z</time></trkpt><trkpt lat="43.20037863384303" lon="12.227456109805653"><ele>655.0</ele><time>2026-03-29T10:06:41Z</time></trkpt><trkpt lat="43.20039174731695" lon="12.227573043589805"><ele>655.8</ele><time>2026-03-29T10:06:42Z</time></trkpt><trkpt lat="43.20040034793931" lon="12.227709309016975"><ele>656.6</ele><time>2026-03-29T10:06:43Z</time></trkpt><trkpt lat="43.20044313732157" lon="12.227847644356066"><ele>657.4000000000001</ele><time>2026-03-29T10:06:44Z</time></trkpt><trkpt lat="43.200495721197626" lon="12.2279823431097"><ele>658.2</ele><time>2026-03-29T10:06:45Z</time></trkpt><trkpt lat="43.20055492813448" lon="12.228112754741533"><ele>659.0</ele><time>2026-03-29T10:06:46Z</time></trkpt><trkpt lat="43.20062580097144" lon="12.228246750141196"><ele>661.75</ele><time>2026-03-29T10:06:47Z</time></trkpt><trkpt lat="43.200706163346126" lon="12.228379984675739"><ele>664.5</ele><time>2026-03-29T10:06:48Z</time></trkpt><trkpt lat="43.200778019864764" lon="12.228526255078409"><ele>667.25</ele><time>2026-03-29T10:06:49Z</time></trkpt><trkpt lat="43.2008290259842" lon="12.22867672250098"><ele>670.0</ele><time>2026-03-29T10:06:50Z</time></trkpt><trkpt lat="43.200844549497305" lon="12.22884569477997"><ele>670.6</ele><time>2026-03-29T10:06:51Z</time></trkpt><trkpt lat="43.20083969732641" lon="12.229000721422617"><ele>671.2</ele><time>2026-03-29T10:06:52Z</time></trkpt><trkpt lat="43.20081420802497" lon="12.229148769055975"><ele>671.8</ele><time>2026-03-29T10:06:53Z</time></trkpt><trkpt lat="43.200778656568936" lon="12.229286582565637"><ele>672.4</ele><time>2026-03-29T10:06:54Z</time></trkpt><trkpt lat="43.20071762897422" lon="12.229360572764644"><ele>673.0</ele><time>2026-03-29T10:06:55Z</time></trkpt><trkpt lat="43.20063162356673" lon="12.229445521033874"><ele>668.75</ele><time>2026-03-29T10:06:56Z</time></trkpt><trkpt lat="43.20052951201357" lon="12.229501779158559"><ele>664.5</ele><time>2026-03-29T10:06:57Z</time></trkpt><trkpt lat="43.20040295955602" lon="12.22953228734856"><ele>660.25</ele><time>2026-03-29T10:06:58Z</time></trkpt><trkpt lat="43.20026635926519" lon="12.229570723828804"><ele>656.0</ele><time>2026-03-29T10:06:59Z</time></trkpt><trkpt lat="43.20010355833815" lon="12.229587195111653"><ele>656.0</ele><time>2026-03-29T10:07:00Z</time></trkpt><trkpt lat="43.19998050522314" lon="12.229629020774517"><ele>656.0</ele><time>2026-03-29T10:07:01Z</time></trkpt><trkpt lat="43.19987587470129" lon="12.229683236959655"><ele>656.0</ele><time>2026-03-29T10:07:02Z</time></trkpt><trkpt lat="43.19978033041576" lon="12.229767072323142"><ele>656.0</ele><time>2026-03-29T10:07:03Z</time></trkpt><trkpt lat="43.19969027419692" lon="12.22989392388923"><ele>655.75</ele><time>2026-03-29T10:07:04Z</time></trkpt><trkpt lat="43.199657848965565" lon="12.23003402594156"><ele>655.5</ele><time>2026-03-29T10:07:05Z</time></trkpt><trkpt lat="43.19965512134215" lon="12.230174338992386"><ele>655.25</ele><time>2026-03-29T10:07:06Z</time></trkpt><trkpt lat="43.19973399674157" lon="12.230322481923036"><ele>655.0</ele><time>2026-03-29T10:07:07Z</time></trkpt><trkpt lat="43.1998176240531" lon="12.230459187837335"><ele>655.6666666666667</ele><time>2026-03-29T10:07:08Z</time></trkpt><trkpt lat="43.19992430716101" lon="12.230608231723961"><ele>656.3333333333334</ele><time>2026-03-29T10:07:09Z</time></trkpt><trkpt lat="43.200029413562625" lon="12.230772612952293"><ele>657.0</ele><time>2026-03-29T10:07:10Z</time></trkpt><trkpt lat="43.20015022948271" lon="12.23092600917922"><ele>657.0</ele><time>2026-03-29T10:07:11Z</time></trkpt><trkpt lat="43.20027161675556" lon="12.231060986037868"><ele>657.0</ele><time>2026-03-29T10:07:12Z</time></trkpt><trkpt lat="43.20038833661953" lon="12.231106321531154"><ele>657.0</ele><time>2026-03-29T10:07:13Z</time></trkpt><trkpt lat="43.200530299468305" lon="12.231191385885465"><ele>657.0</ele><time>2026-03-29T10:07:14Z</time></trkpt><trkpt lat="43.200680028663456" lon="12.231240699063932"><ele>658.25</ele><time>2026-03-29T10:07:15Z</time></trkpt><trkpt lat="43.20082826467454" lon="12.231270940103052"><ele>659.5</ele><time>2026-03-29T10:07:16Z</time></trkpt><trkpt lat="43.200963981422504" lon="12.231287604823262"><ele>660.75</ele><time>2026-03-29T10:07:17Z</time></trkpt><trkpt lat="43.20108298791765" lon="12.231306506352915"><ele>662.0</ele><time>2026-03-29T10:07:18Z</time></trkpt><trkpt lat="43.20123702920283" lon="12.231395881327519"><ele>656.25</ele><time>2026-03-29T10:07:19Z</time></trkpt><trkpt lat="43.20133294458154" lon="12.231479789603105"><ele>650.5</ele><time>2026-03-29T10:07:20Z</time></trkpt><trkpt lat="43.201402888890605" lon="12.23165061238263"><ele>644.75</ele><time>2026-03-29T10:07:21Z</time></trkpt><trkpt lat="43.201453457652974" lon="12.231806990873544"><ele>639.0</ele><time>2026-03-29T10:07:22Z</time></trkpt><trkpt lat="43.201407806950044" lon="12.23195092705567"><ele>639.0</ele><time>2026-03-29T10:07:23Z</time></trkpt><trkpt lat="43.201393095383025" lon="12.232046109346056"><ele>639.0</ele><time>2026-03-29T10:07:24Z</time></trkpt><trkpt lat="43.20136032121035" lon="12.232237462540905"><ele>639.0</ele><time>2026-03-29T10:07:25Z</time></trkpt><trkpt lat="43.20133255195342" lon="12.232445473583164"><ele>639.0</ele><time>2026-03-29T10:07:26Z</time></trkpt><trkpt lat="43.201311880182594" lon="12.232663700795975"><ele>634.3333333333334</ele><time>2026-03-29T10:07:27Z</time></trkpt><trkpt lat="43.20131024190195" lon="12.232903948358162"><ele>629.6666666666667</ele><time>2026-03-29T10:07:28Z</time></trkpt><trkpt lat="43.201335808139625" lon="12.233130868081593"><ele>625.0</ele><time>2026-03-29T10:07:29Z</time></trkpt><trkpt lat="43.201361911201786" lon="12.233347244395373"><ele>625.0</ele><time>2026-03-29T10:07:30Z</time></trkpt><trkpt lat="43.201393850572316" lon="12.233563099836488"><ele>625.0</ele><time>2026-03-29T10:07:31Z</time></trkpt><trkpt lat="43.20143964684412" lon="12.233786564081111"><ele>625.0</ele><time>2026-03-29T10:07:32Z</time></trkpt><trkpt lat="43.201484711462356" lon="12.234018893380203"><ele>630.3333333333334</ele><time>2026-03-29T10:07:33Z</time></trkpt><trkpt lat="43.20153332162552" lon="12.2342514797014"><ele>635.6666666666666</ele><time>2026-03-29T10:07:34Z</time></trkpt><trkpt lat="43.20157925962271" lon="12.234496674870984"><ele>641.0</ele><time>2026-03-29T10:07:35Z</time></trkpt><trkpt lat="43.201623893253924" lon="12.234756678870204"><ele>641.6666666666666</ele><time>2026-03-29T10:07:36Z</time></trkpt><trkpt lat="43.201652358755055" lon="12.235012273711014"><ele>642.3333333333334</ele><time>2026-03-29T10:07:37Z</time></trkpt><trkpt lat="43.20169455318485" lon="12.23527911287286"><ele>643.0</ele><time>2026-03-29T10:07:38Z</time></trkpt><trkpt lat="43.20174359408019" lon="12.235573154274299"><ele>642.5</ele><time>2026-03-29T10:07:39Z</time></trkpt><trkpt lat="43.201802502433814" lon="12.235882107880434"><ele>642.0</ele><time>2026-03-29T10:07:40Z</time></trkpt><trkpt lat="43.20188983628173" lon="12.236198889904166"><ele>642.0</ele><time>2026-03-29T10:07:41Z</time></trkpt><trkpt lat="43.201963682798755" lon="12.23644782873505"><ele>642.0</ele><time>2026-03-29T10:07:42Z</time></trkpt><trkpt lat="43.202040381064016" lon="12.23669389867959"><ele>642.0</ele><time>2026-03-29T10:07:43Z</time></trkpt><trkpt lat="43.20212739374452" lon="12.237013392930141"><ele>641.0</ele><time>2026-03-29T10:07:44Z</time></trkpt><trkpt lat="43.20217952704287" lon="12.23724791142145"><ele>640.0</ele><time>2026-03-29T10:07:45Z</time></trkpt><trkpt lat="43.2022224359913" lon="12.23748307248047"><ele>639.0</ele><time>2026-03-29T10:07:46Z</time></trkpt><trkpt lat="43.202236888106974" lon="12.237696572394515"><ele>638.6666666666666</ele><time>2026-03-29T10:07:47Z</time></trkpt><trkpt lat="43.20227652411784" lon="12.237923353898111"><ele>638.3333333333333</ele><time>2026-03-29T10:07:48Z</time></trkpt><trkpt lat="43.202316566728896" lon="12.238154908665162"><ele>638.0</ele><time>2026-03-29T10:07:49Z</time></trkpt><trkpt lat="43.20235960193836" lon="12.238388855832596"><ele>642.6666666666666</ele><time>2026-03-29T10:07:50Z</time></trkpt><trkpt lat="43.20240766512057" lon="12.23862484826555"><ele>647.3333333333334</ele><time>2026-03-29T10:07:51Z</time></trkpt><trkpt lat="43.202475339534914" lon="12.238849436163886"><ele>652.0</ele><time>2026-03-29T10:07:52Z</time></trkpt><trkpt lat="43.20255412407908" lon="12.239039895443799"><ele>652.0</ele><time>2026-03-29T10:07:53Z</time></trkpt><trkpt lat="43.20263143941076" lon="12.239217217980558"><ele>652.0</ele><time>2026-03-29T10:07:54Z</time></trkpt><trkpt lat="43.20268965719386" lon="12.23936168960027"><ele>652.0</ele><time>2026-03-29T10:07:55Z</time></trkpt><trkpt lat="43.20273079967467" lon="12.239476389696716"><ele>652.0</ele><time>2026-03-29T10:07:56Z</time></trkpt><trkpt lat="43.20275693346837" lon="12.239561439756931"><ele>652.0</ele><time>2026-03-29T10:07:57Z</time></trkpt><trkpt lat="43.20277937744685" lon="12.239680080963414"><ele>652.0</ele><time>2026-03-29T10:07:59Z</time></trkpt><trkpt lat="43.20263911028045" lon="12.239795735787757"><ele>652.0</ele><time>2026-03-29T10:08:00Z</time></trkpt><trkpt lat="43.20257358912994" lon="12.239925638596072"><ele>652.0</ele><time>2026-03-29T10:08:01Z</time></trkpt><trkpt lat="43.20249628160939" lon="12.240077369926425"><ele>652.0</ele><time>2026-03-29T10:08:02Z</time></trkpt><trkpt lat="43.20242875671251" lon="12.240198165604186"><ele>652.1666666666667</ele><time>2026-03-29T10:08:03Z</time></trkpt><trkpt lat="43.2023614316324" lon="12.240302696670767"><ele>652.3333333333334</ele><time>2026-03-29T10:08:04Z</time></trkpt><trkpt lat="43.20230352355209" lon="12.240397627179902"><ele>652.5</ele><time>2026-03-29T10:08:05Z</time></trkpt><trkpt lat="43.202263448298886" lon="12.240473672635382"><ele>652.6666666666666</ele><time>2026-03-29T10:08:06Z</time></trkpt><trkpt lat="43.202258280162" lon="12.240572086848509"><ele>652.8333333333333</ele><time>2026-03-29T10:08:07Z</time></trkpt><trkpt lat="43.20226874359635" lon="12.240700338382448"><ele>653.0</ele><time>2026-03-29T10:08:08Z</time></trkpt><trkpt lat="43.202322152535686" lon="12.240829970859359"><ele>652.5</ele><time>2026-03-29T10:08:09Z</time></trkpt><trkpt lat="43.20239603929832" lon="12.240959725932926"><ele>652.0</ele><time>2026-03-29T10:08:10Z</time></trkpt><trkpt lat="43.202492087289954" lon="12.241031108736697"><ele>651.5</ele><time>2026-03-29T10:08:11Z</time></trkpt><trkpt lat="43.202584769529054" lon="12.241120254874696"><ele>651.0</ele><time>2026-03-29T10:08:12Z</time></trkpt><trkpt lat="43.20269113792409" lon="12.241202840487356"><ele>651.0</ele><time>2026-03-29T10:08:13Z</time></trkpt><trkpt lat="43.20281648693665" lon="12.241288092241762"><ele>651.0</ele><time>2026-03-29T10:08:14Z</time></trkpt><trkpt lat="43.20292866636694" lon="12.241365321966432"><ele>651.0</ele><time>2026-03-29T10:08:15Z</time></trkpt><trkpt lat="43.203033251012364" lon="12.241462028770147"><ele>651.0</ele><time>2026-03-29T10:08:16Z</time></trkpt><trkpt lat="43.203131314452726" lon="12.241592729779624"><ele>649.0</ele><time>2026-03-29T10:08:17Z</time></trkpt><trkpt lat="43.20325113509609" lon="12.241687592566956"><ele>647.0</ele><time>2026-03-29T10:08:18Z</time></trkpt><trkpt lat="43.203361075275964" lon="12.241794442436067"><ele>645.0</ele><time>2026-03-29T10:08:19Z</time></trkpt><trkpt lat="43.203465505699064" lon="12.241889300734982"><ele>643.0</ele><time>2026-03-29T10:08:20Z</time></trkpt><trkpt lat="43.203563864609144" lon="12.24196282087161"><ele>643.0</ele><time>2026-03-29T10:08:21Z</time></trkpt><trkpt lat="43.20365805510144" lon="12.242019549004173"><ele>643.0</ele><time>2026-03-29T10:08:22Z</time></trkpt><trkpt lat="43.20371838847125" lon="12.242114641264392"><ele>643.0</ele><time>2026-03-29T10:08:23Z</time></trkpt><trkpt lat="43.20374354483057" lon="12.242271062232637"><ele>643.0</ele><time>2026-03-29T10:08:24Z</time></trkpt><trkpt lat="43.20379612737779" lon="12.2424377644829"><ele>643.0</ele><time>2026-03-29T10:08:25Z</time></trkpt><trkpt lat="43.203804863852724" lon="12.242586655129328"><ele>638.8</ele><time>2026-03-29T10:08:26Z</time></trkpt><trkpt lat="43.203800412246686" lon="12.24270588456093"><ele>634.5999999999999</ele><time>2026-03-29T10:08:27Z</time></trkpt><trkpt lat="43.20377297464056" lon="12.242805003684099"><ele>630.4000000000001</ele><time>2026-03-29T10:08:28Z</time></trkpt><trkpt lat="43.20371623920086" lon="12.24289412699292"><ele>626.2</ele><time>2026-03-29T10:08:29Z</time></trkpt><trkpt lat="43.203614782789245" lon="12.24286881192099"><ele>622.0</ele><time>2026-03-29T10:08:30Z</time></trkpt><trkpt lat="43.203517860669386" lon="12.242916627548334"><ele>622.0</ele><time>2026-03-29T10:08:31Z</time></trkpt><trkpt lat="43.20340195882173" lon="12.242973806707521"><ele>622.0</ele><time>2026-03-29T10:08:32Z</time></trkpt><trkpt lat="43.20328164951932" lon="12.243032932956242"><ele>622.0</ele><time>2026-03-29T10:08:33Z</time></trkpt><trkpt lat="43.2031751149184" lon="12.243085365010636"><ele>622.0</ele><time>2026-03-29T10:08:34Z</time></trkpt><trkpt lat="43.20307572978231" lon="12.243127400075355"><ele>618.25</ele><time>2026-03-29T10:08:35Z</time></trkpt><trkpt lat="43.20297326796095" lon="12.243175419764862"><ele>614.5</ele><time>2026-03-29T10:08:36Z</time></trkpt><trkpt lat="43.20287208286693" lon="12.243237942875936"><ele>610.75</ele><time>2026-03-29T10:08:37Z</time></trkpt><trkpt lat="43.20277304240514" lon="12.2433444877468"><ele>607.0</ele><time>2026-03-29T10:08:38Z</time></trkpt><trkpt lat="43.20269365496363" lon="12.243464832521259"><ele>607.0</ele><time>2026-03-29T10:08:39Z</time></trkpt><trkpt lat="43.20263952040748" lon="12.243577727830091"><ele>607.0</ele><time>2026-03-29T10:08:40Z</time></trkpt><trkpt lat="43.20259369785577" lon="12.24364963873151"><ele>607.0</ele><time>2026-03-29T10:08:41Z</time></trkpt><trkpt lat="43.20247665373546" lon="12.24368448456666"><ele>607.0</ele><time>2026-03-29T10:08:43Z</time></trkpt><trkpt lat="43.20236850139152" lon="12.243682639947151"><ele>607.0</ele><time>2026-03-29T10:08:44Z</time></trkpt><trkpt lat="43.20224141080711" lon="12.243713609042732"><ele>604.0</ele><time>2026-03-29T10:08:45Z</time></trkpt><trkpt lat="43.20216572515744" lon="12.24377821794453"><ele>601.0</ele><time>2026-03-29T10:08:46Z</time></trkpt><trkpt lat="43.20207924493539" lon="12.243876485990647"><ele>598.0</ele><time>2026-03-29T10:08:47Z</time></trkpt><trkpt lat="43.20198790215125" lon="12.244000549333006"><ele>595.0</ele><time>2026-03-29T10:08:48Z</time></trkpt><trkpt lat="43.20188929681912" lon="12.244165612642792"><ele>595.0</ele><time>2026-03-29T10:08:49Z</time></trkpt><trkpt lat="43.201813282294765" lon="12.244314852257409"><ele>595.0</ele><time>2026-03-29T10:08:50Z</time></trkpt><trkpt lat="43.2017529512419" lon="12.244477138169525"><ele>595.0</ele><time>2026-03-29T10:08:51Z</time></trkpt><trkpt lat="43.201701344208296" lon="12.244615121357807"><ele>595.0</ele><time>2026-03-29T10:08:52Z</time></trkpt><trkpt lat="43.20167204180264" lon="12.244740979740678"><ele>595.3333333333334</ele><time>2026-03-29T10:08:53Z</time></trkpt><trkpt lat="43.201675649362954" lon="12.244880675822264"><ele>595.6666666666667</ele><time>2026-03-29T10:08:54Z</time></trkpt><trkpt lat="43.20175378446195" lon="12.24497740525978"><ele>596.0</ele><time>2026-03-29T10:08:55Z</time></trkpt><trkpt lat="43.20183932304504" lon="12.245014119477318"><ele>596.3333333333334</ele><time>2026-03-29T10:08:56Z</time></trkpt><trkpt lat="43.20187791397988" lon="12.245102339114025"><ele>596.6666666666666</ele><time>2026-03-29T10:08:57Z</time></trkpt><trkpt lat="43.20188543097043" lon="12.24519843010428"><ele>597.0</ele><time>2026-03-29T10:08:58Z</time></trkpt><trkpt lat="43.201903159511595" lon="12.245319502146732"><ele>597.0</ele><time>2026-03-29T10:08:59Z</time></trkpt><trkpt lat="43.201911810467266" lon="12.245447984657323"><ele>597.0</ele><time>2026-03-29T10:09:00Z</time></trkpt><trkpt lat="43.2019199769648" lon="12.2455974239184"><ele>597.0</ele><time>2026-03-29T10:09:01Z</time></trkpt><trkpt lat="43.20194290176786" lon="12.245755626986284"><ele>597.0</ele><time>2026-03-29T10:09:02Z</time></trkpt><trkpt lat="43.201978878923214" lon="12.24588117503017"><ele>597.0</ele><time>2026-03-29T10:09:03Z</time></trkpt><trkpt lat="43.20199716925881" lon="12.246001767437246"><ele>594.5</ele><time>2026-03-29T10:09:04Z</time></trkpt><trkpt lat="43.20199971833572" lon="12.246134214964334"><ele>592.0</ele><time>2026-03-29T10:09:05Z</time></trkpt><trkpt lat="43.201962915257276" lon="12.24628012214338"><ele>589.5</ele><time>2026-03-29T10:09:06Z</time></trkpt><trkpt lat="43.20188876125027" lon="12.246435304980746"><ele>587.0</ele><time>2026-03-29T10:09:07Z</time></trkpt><trkpt lat="43.20181421509681" lon="12.246620920553653"><ele>587.0</ele><time>2026-03-29T10:09:08Z</time></trkpt><trkpt lat="43.201772831072105" lon="12.246783671985948"><ele>587.0</ele><time>2026-03-29T10:09:09Z</time></trkpt><trkpt lat="43.20176408452599" lon="12.246938850344712"><ele>587.0</ele><time>2026-03-29T10:09:10Z</time></trkpt><trkpt lat="43.20176740387668" lon="12.247094433760807"><ele>587.0</ele><time>2026-03-29T10:09:11Z</time></trkpt><trkpt lat="43.20178436745574" lon="12.247233803544647"><ele>588.8000000000001</ele><time>2026-03-29T10:09:12Z</time></trkpt><trkpt lat="43.20183247585568" lon="12.247365805017225"><ele>590.6</ele><time>2026-03-29T10:09:13Z</time></trkpt><trkpt lat="43.201862611292626" lon="12.247447348701016"><ele>592.4000000000001</ele><time>2026-03-29T10:09:14Z</time></trkpt><trkpt lat="43.20190047522992" lon="12.247578908534733"><ele>594.2</ele><time>2026-03-29T10:09:16Z</time></trkpt><trkpt lat="43.20190457805438" lon="12.247699018735442"><ele>596.0</ele><time>2026-03-29T10:09:18Z</time></trkpt><trkpt lat="43.201806615995125" lon="12.247798353243185"><ele>596.0</ele><time>2026-03-29T10:09:20Z</time></trkpt><trkpt lat="43.20175344688716" lon="12.247918968771694"><ele>596.0</ele><time>2026-03-29T10:09:21Z</time></trkpt><trkpt lat="43.201723764026156" lon="12.248023900360913"><ele>596.0</ele><time>2026-03-29T10:09:22Z</time></trkpt><trkpt lat="43.20169648563465" lon="12.248141567428858"><ele>596.0</ele><time>2026-03-29T10:09:23Z</time></trkpt><trkpt lat="43.20169866399639" lon="12.248285953137861"><ele>596.0</ele><time>2026-03-29T10:09:24Z</time></trkpt><trkpt lat="43.20169076453997" lon="12.248433511243489"><ele>595.2</ele><time>2026-03-29T10:09:25Z</time></trkpt><trkpt lat="43.201678716046196" lon="12.24861623921942"><ele>594.4000000000001</ele><time>2026-03-29T10:09:26Z</time></trkpt><trkpt lat="43.201664443427354" lon="12.24878029191701"><ele>593.6</ele><time>2026-03-29T10:09:27Z</time></trkpt><trkpt lat="43.2016492904677" lon="12.248933131422946"><ele>592.8000000000001</ele><time>2026-03-29T10:09:28Z</time></trkpt><trkpt lat="43.20164985217079" lon="12.249046533959444"><ele>592.0</ele><time>2026-03-29T10:09:29Z</time></trkpt><trkpt lat="43.201669536285074" lon="12.249129519463585"><ele>588.8000000000001</ele><time>2026-03-29T10:09:30Z</time></trkpt><trkpt lat="43.201733895556195" lon="12.249193926108195"><ele>585.6</ele><time>2026-03-29T10:09:31Z</time></trkpt><trkpt lat="43.201818869558565" lon="12.249266179917258"><ele>582.4000000000001</ele><time>2026-03-29T10:09:32Z</time></trkpt><trkpt lat="43.20193324117125" lon="12.249343747142783"><ele>579.2</ele><time>2026-03-29T10:09:33Z</time></trkpt><trkpt lat="43.20203377837156" lon="12.249442033463913"><ele>576.0</ele><time>2026-03-29T10:09:34Z</time></trkpt><trkpt lat="43.20214632133443" lon="12.24954097484313"><ele>576.0</ele><time>2026-03-29T10:09:35Z</time></trkpt><trkpt lat="43.20225809394368" lon="12.249609840377692"><ele>576.0</ele><time>2026-03-29T10:09:36Z</time></trkpt><trkpt lat="43.202356537863864" lon="12.249660655909263"><ele>576.0</ele><time>2026-03-29T10:09:37Z</time></trkpt><trkpt lat="43.20242461547327" lon="12.249720166322502"><ele>576.0</ele><time>2026-03-29T10:09:38Z</time></trkpt><trkpt lat="43.20245378617967" lon="12.249825366960478"><ele>576.0</ele><time>2026-03-29T10:09:39Z</time></trkpt><trkpt lat="43.20244552740657" lon="12.249965623436676"><ele>575.0</ele><time>2026-03-29T10:09:40Z</time></trkpt><trkpt lat="43.202417817824276" lon="12.250117704454752"><ele>574.0</ele><time>2026-03-29T10:09:41Z</time></trkpt><trkpt lat="43.20236891039908" lon="12.250229871054799"><ele>573.0</ele><time>2026-03-29T10:09:42Z</time></trkpt><trkpt lat="43.20231760569367" lon="12.250338744160425"><ele>572.0</ele><time>2026-03-29T10:09:43Z</time></trkpt><trkpt lat="43.202268081219756" lon="12.250417475979704"><ele>571.0</ele><time>2026-03-29T10:09:44Z</time></trkpt><trkpt lat="43.20218784186081" lon="12.250425540346361"><ele>568.6</ele><time>2026-03-29T10:09:45Z</time></trkpt><trkpt lat="43.202117259778035" lon="12.250374695467057"><ele>566.2</ele><time>2026-03-29T10:09:46Z</time></trkpt><trkpt lat="43.20201061752651" lon="12.250352170772675"><ele>563.8</ele><time>2026-03-29T10:09:47Z</time></trkpt><trkpt lat="43.20189194428292" lon="12.250329134181861"><ele>561.4</ele><time>2026-03-29T10:09:48Z</time></trkpt><trkpt lat="43.20179332956848" lon="12.250306738781365"><ele>559.0</ele><time>2026-03-29T10:09:49Z</time></trkpt><trkpt lat="43.20171269339569" lon="12.250295266034875"><ele>559.0</ele><time>2026-03-29T10:09:50Z</time></trkpt><trkpt lat="43.20163395703609" lon="12.250349991342087"><ele>559.0</ele><time>2026-03-29T10:09:51Z</time></trkpt><trkpt lat="43.20156065415376" lon="12.250402405699104"><ele>559.0</ele><time>2026-03-29T10:09:52Z</time></trkpt><trkpt lat="43.20149491400264" lon="12.250490778392289"><ele>559.0</ele><time>2026-03-29T10:09:53Z</time></trkpt><trkpt lat="43.20146564481133" lon="12.250612163135154"><ele>559.0</ele><time>2026-03-29T10:09:54Z</time></trkpt><trkpt lat="43.20143762657759" lon="12.25071718202315"><ele>559.0</ele><time>2026-03-29T10:09:55Z</time></trkpt><trkpt lat="43.20148746978261" lon="12.250828823481813"><ele>557.8</ele><time>2026-03-29T10:09:56Z</time></trkpt><trkpt lat="43.20150170756007" lon="12.25094780231614"><ele>556.5999999999999</ele><time>2026-03-29T10:09:57Z</time></trkpt><trkpt lat="43.201517249264704" lon="12.251045482870582"><ele>555.4</ele><time>2026-03-29T10:09:58Z</time></trkpt><trkpt lat="43.20150609777593" lon="12.251169670486354"><ele>554.1999999999999</ele><time>2026-03-29T10:09:59Z</time></trkpt><trkpt lat="43.20138668538075" lon="12.251277073437443"><ele>553.0</ele><time>2026-03-29T10:10:00Z</time></trkpt><trkpt lat="43.20129958354664" lon="12.251393555127388"><ele>548.0</ele><time>2026-03-29T10:10:01Z</time></trkpt><trkpt lat="43.20121127965167" lon="12.251531447123616"><ele>543.0</ele><time>2026-03-29T10:10:02Z</time></trkpt><trkpt lat="43.20112331361534" lon="12.251690187470661"><ele>538.0</ele><time>2026-03-29T10:10:03Z</time></trkpt><trkpt lat="43.201031980178136" lon="12.251846034065393"><ele>533.0</ele><time>2026-03-29T10:10:04Z</time></trkpt><trkpt lat="43.20094993697643" lon="12.25203394811017"><ele>533.0</ele><time>2026-03-29T10:10:05Z</time></trkpt><trkpt lat="43.200877243080384" lon="12.252207033109787"><ele>533.0</ele><time>2026-03-29T10:10:06Z</time></trkpt><trkpt lat="43.200806252353196" lon="12.252374783312561"><ele>533.0</ele><time>2026-03-29T10:10:07Z</time></trkpt><trkpt lat="43.20072596342572" lon="12.252537686498783"><ele>533.0</ele><time>2026-03-29T10:10:08Z</time></trkpt><trkpt lat="43.20064550226922" lon="12.252707783682565"><ele>533.0</ele><time>2026-03-29T10:10:09Z</time></trkpt><trkpt lat="43.20057576402378" lon="12.252883206134308"><ele>533.0</ele><time>2026-03-29T10:10:10Z</time></trkpt><trkpt lat="43.20050683379107" lon="12.253049740274799"><ele>533.0</ele><time>2026-03-29T10:10:11Z</time></trkpt><trkpt lat="43.20040909549781" lon="12.253181050191381"><ele>533.0</ele><time>2026-03-29T10:10:12Z</time></trkpt><trkpt lat="43.20030969596231" lon="12.253294340774053"><ele>533.0</ele><time>2026-03-29T10:10:13Z</time></trkpt><trkpt lat="43.20019118202071" lon="12.253357254713906"><ele>533.0</ele><time>2026-03-29T10:10:14Z</time></trkpt><trkpt lat="43.20006170790638" lon="12.253396941731028"><ele>533.0</ele><time>2026-03-29T10:10:15Z</time></trkpt><trkpt lat="43.199932338491834" lon="12.253413793479595"><ele>533.0</ele><time>2026-03-29T10:10:16Z</time></trkpt><trkpt lat="43.199803474661444" lon="12.25343347939594"><ele>531.5</ele><time>2026-03-29T10:10:17Z</time></trkpt><trkpt lat="43.199670840762195" lon="12.253465151134872"><ele>530.0</ele><time>2026-03-29T10:10:18Z</time></trkpt><trkpt lat="43.19954360736513" lon="12.253539814789923"><ele>528.5</ele><time>2026-03-29T10:10:19Z</time></trkpt><trkpt lat="43.19940557412759" lon="12.253602996026268"><ele>527.0</ele><time>2026-03-29T10:10:20Z</time></trkpt><trkpt lat="43.199272934930676" lon="12.253696830709018"><ele>527.0</ele><time>2026-03-29T10:10:21Z</time></trkpt><trkpt lat="43.19912683933953" lon="12.253754865088727"><ele>527.0</ele><time>2026-03-29T10:10:22Z</time></trkpt><trkpt lat="43.19900398902732" lon="12.253838509730162"><ele>527.0</ele><time>2026-03-29T10:10:23Z</time></trkpt><trkpt lat="43.19891141733942" lon="12.253942627090474"><ele>527.0</ele><time>2026-03-29T10:10:24Z</time></trkpt><trkpt lat="43.19885271224615" lon="12.254068525612816"><ele>527.75</ele><time>2026-03-29T10:10:25Z</time></trkpt><trkpt lat="43.198789117714306" lon="12.25417022531912"><ele>528.5</ele><time>2026-03-29T10:10:26Z</time></trkpt><trkpt lat="43.19869174653167" lon="12.254202932187061"><ele>529.25</ele><time>2026-03-29T10:10:27Z</time></trkpt><trkpt lat="43.198569058007166" lon="12.254244547283399"><ele>530.0</ele><time>2026-03-29T10:10:28Z</time></trkpt><trkpt lat="43.198426536113125" lon="12.25428792201735"><ele>530.0</ele><time>2026-03-29T10:10:29Z</time></trkpt><trkpt lat="43.19830190738861" lon="12.254322295811695"><ele>530.0</ele><time>2026-03-29T10:10:30Z</time></trkpt><trkpt lat="43.19816333839707" lon="12.254356476423109"><ele>530.0</ele><time>2026-03-29T10:10:31Z</time></trkpt><trkpt lat="43.198025481851126" lon="12.254383371172043"><ele>530.0</ele><time>2026-03-29T10:10:32Z</time></trkpt><trkpt lat="43.19789011496861" lon="12.254403850364614"><ele>526.75</ele><time>2026-03-29T10:10:33Z</time></trkpt><trkpt lat="43.19776005946041" lon="12.25445884712091"><ele>523.5</ele><time>2026-03-29T10:10:34Z</time></trkpt><trkpt lat="43.19764054563366" lon="12.254489193037667"><ele>520.25</ele><time>2026-03-29T10:10:35Z</time></trkpt><trkpt lat="43.19754518620534" lon="12.254560588074122"><ele>517.0</ele><time>2026-03-29T10:10:36Z</time></trkpt><trkpt lat="43.19746303618293" lon="12.254662092994211"><ele>517.0</ele><time>2026-03-29T10:10:37Z</time></trkpt><trkpt lat="43.19738903319711" lon="12.254769000968956"><ele>517.0</ele><time>2026-03-29T10:10:38Z</time></trkpt><trkpt lat="43.19732861943995" lon="12.25487770016032"><ele>517.0</ele><time>2026-03-29T10:10:39Z</time></trkpt><trkpt lat="43.197281616029166" lon="12.254989768399534"><ele>517.0</ele><time>2026-03-29T10:10:40Z</time></trkpt><trkpt lat="43.197261403456444" lon="12.255094085001728"><ele>517.0</ele><time>2026-03-29T10:10:41Z</time></trkpt><trkpt lat="43.19731593326297" lon="12.255195339724079"><ele>516.5</ele><time>2026-03-29T10:10:42Z</time></trkpt><trkpt lat="43.1973374558296" lon="12.255314139423332"><ele>516.0</ele><time>2026-03-29T10:10:43Z</time></trkpt><trkpt lat="43.19735164844096" lon="12.255436027756295"><ele>515.5</ele><time>2026-03-29T10:10:44Z</time></trkpt><trkpt lat="43.197358807491376" lon="12.255526397903848"><ele>515.0</ele><time>2026-03-29T10:10:45Z</time></trkpt><trkpt lat="43.19725214548433" lon="12.25557028695299"><ele>514.5</ele><time>2026-03-29T10:10:47Z</time></trkpt><trkpt lat="43.197171170299235" lon="12.255591592847054"><ele>514.0</ele><time>2026-03-29T10:10:48Z</time></trkpt><trkpt lat="43.19707982168136" lon="12.255687603116591"><ele>510.25</ele><time>2026-03-29T10:10:49Z</time></trkpt><trkpt lat="43.19697321668538" lon="12.255793299066026"><ele>506.5</ele><time>2026-03-29T10:10:50Z</time></trkpt><trkpt lat="43.19686470411995" lon="12.255917975459496"><ele>502.75</ele><time>2026-03-29T10:10:51Z</time></trkpt><trkpt lat="43.19673671832487" lon="12.255998362366936"><ele>499.0</ele><time>2026-03-29T10:10:52Z</time></trkpt><trkpt lat="43.1966276292297" lon="12.255995473478816"><ele>496.6666666666667</ele><time>2026-03-29T10:10:53Z</time></trkpt><trkpt lat="43.19649089334637" lon="12.255998559688562"><ele>494.33333333333337</ele><time>2026-03-29T10:10:54Z</time></trkpt><trkpt lat="43.19633073381169" lon="12.255999445242171"><ele>492.0</ele><time>2026-03-29T10:10:55Z</time></trkpt><trkpt lat="43.196158807294445" lon="12.256011571248758"><ele>492.0</ele><time>2026-03-29T10:10:56Z</time></trkpt><trkpt lat="43.196002978365456" lon="12.25606666391012"><ele>492.0</ele><time>2026-03-29T10:10:57Z</time></trkpt><trkpt lat="43.19586351269975" lon="12.256116627004378"><ele>492.0</ele><time>2026-03-29T10:10:58Z</time></trkpt><trkpt lat="43.195758694971126" lon="12.25613334643378"><ele>492.0</ele><time>2026-03-29T10:10:59Z</time></trkpt><trkpt lat="43.19569453543377" lon="12.256130941486497"><ele>492.0</ele><time>2026-03-29T10:11:00Z</time></trkpt><trkpt lat="43.195672401501255" lon="12.255970809783364"><ele>492.0</ele><time>2026-03-29T10:11:03Z</time></trkpt><trkpt lat="43.19561602278343" lon="12.255868787870964"><ele>492.0</ele><time>2026-03-29T10:11:04Z</time></trkpt><trkpt lat="43.19553699601627" lon="12.255758876214013"><ele>492.0</ele><time>2026-03-29T10:11:05Z</time></trkpt><trkpt lat="43.195396219369464" lon="12.25558029945297"><ele>489.5</ele><time>2026-03-29T10:11:06Z</time></trkpt><trkpt lat="43.19528846492917" lon="12.255449593931656"><ele>487.0</ele><time>2026-03-29T10:11:07Z</time></trkpt><trkpt lat="43.19520749912165" lon="12.255312192132443"><ele>484.5</ele><time>2026-03-29T10:11:08Z</time></trkpt><trkpt lat="43.195136419321365" lon="12.255178620384573"><ele>482.0</ele><time>2026-03-29T10:11:09Z</time></trkpt><trkpt lat="43.19506664112619" lon="12.255092821205116"><ele>482.0</ele><time>2026-03-29T10:11:11Z</time></trkpt><trkpt lat="43.19498682256248" lon="12.254994676376866"><ele>482.0</ele><time>2026-03-29T10:11:13Z</time></trkpt><trkpt lat="43.194863086240424" lon="12.255077860411543"><ele>482.0</ele><time>2026-03-29T10:11:14Z</time></trkpt><trkpt lat="43.194822976551166" lon="12.255287467285093"><ele>482.0</ele><time>2026-03-29T10:11:17Z</time></trkpt><trkpt lat="43.1947483983266" lon="12.255338454028992"><ele>480.20000000000005</ele><time>2026-03-29T10:11:19Z</time></trkpt><trkpt lat="43.19466752137595" lon="12.255310196001142"><ele>478.40000000000003</ele><time>2026-03-29T10:11:20Z</time></trkpt><trkpt lat="43.19457601102191" lon="12.255265764807842"><ele>476.59999999999997</ele><time>2026-03-29T10:11:21Z</time></trkpt><trkpt lat="43.19446712124016" lon="12.25524936634048"><ele>474.79999999999995</ele><time>2026-03-29T10:11:22Z</time></trkpt><trkpt lat="43.19432002712402" lon="12.255298061177939"><ele>473.0</ele><time>2026-03-29T10:11:23Z</time></trkpt><trkpt lat="43.194158689111546" lon="12.25538307243405"><ele>473.0</ele><time>2026-03-29T10:11:24Z</time></trkpt><trkpt lat="43.194014132697674" lon="12.255447742149391"><ele>473.0</ele><time>2026-03-29T10:11:25Z</time></trkpt><trkpt lat="43.19388755358087" lon="12.255495593924328"><ele>473.0</ele><time>2026-03-29T10:11:26Z</time></trkpt><trkpt lat="43.19376255593117" lon="12.25555758965299"><ele>473.0</ele><time>2026-03-29T10:11:27Z</time></trkpt><trkpt lat="43.19364603019904" lon="12.255633882313795"><ele>473.5</ele><time>2026-03-29T10:11:28Z</time></trkpt><trkpt lat="43.19353860856187" lon="12.255717781755244"><ele>474.0</ele><time>2026-03-29T10:11:29Z</time></trkpt><trkpt lat="43.19342491146736" lon="12.255807416837161"><ele>474.5</ele><time>2026-03-29T10:11:30Z</time></trkpt><trkpt lat="43.19333295151291" lon="12.255877863553167"><ele>475.0</ele><time>2026-03-29T10:11:31Z</time></trkpt><trkpt lat="43.19324002448446" lon="12.255957720465858"><ele>475.8</ele><time>2026-03-29T10:11:32Z</time></trkpt><trkpt lat="43.193149935761284" lon="12.2560165577483"><ele>476.6</ele><time>2026-03-29T10:11:33Z</time></trkpt><trkpt lat="43.19306677369252" lon="12.256037697447274"><ele>477.4</ele><time>2026-03-29T10:11:34Z</time></trkpt><trkpt lat="43.192988691740354" lon="12.255992140110012"><ele>478.2</ele><time>2026-03-29T10:11:35Z</time></trkpt><trkpt lat="43.192909622964166" lon="12.255863688464135"><ele>479.0</ele><time>2026-03-29T10:11:36Z</time></trkpt><trkpt lat="43.192802115405726" lon="12.255771321155486"><ele>479.0</ele><time>2026-03-29T10:11:37Z</time></trkpt><trkpt lat="43.192709339039695" lon="12.255729402704958"><ele>479.0</ele><time>2026-03-29T10:11:38Z</time></trkpt><trkpt lat="43.19262024254718" lon="12.255693568071392"><ele>479.0</ele><time>2026-03-29T10:11:39Z</time></trkpt><trkpt lat="43.19253154556029" lon="12.25568015390231"><ele>479.0</ele><time>2026-03-29T10:11:40Z</time></trkpt><trkpt lat="43.19242415630026" lon="12.255707946788345"><ele>479.0</ele><time>2026-03-29T10:11:41Z</time></trkpt><trkpt lat="43.192306025264486" lon="12.255754097866298"><ele>477.2</ele><time>2026-03-29T10:11:42Z</time></trkpt><trkpt lat="43.19219274746496" lon="12.255810301702368"><ele>475.4</ele><time>2026-03-29T10:11:43Z</time></trkpt><trkpt lat="43.192093544904004" lon="12.255849095419457"><ele>473.6</ele><time>2026-03-29T10:11:44Z</time></trkpt><trkpt lat="43.191998627598444" lon="12.25584904429863"><ele>471.8</ele><time>2026-03-29T10:11:46Z</time></trkpt><trkpt lat="43.19193970354368" lon="12.255691925951732"><ele>470.0</ele><time>2026-03-29T10:11:48Z</time></trkpt><trkpt lat="43.191937998035776" lon="12.25556117474762"><ele>467.0</ele><time>2026-03-29T10:11:49Z</time></trkpt><trkpt lat="43.191976711530955" lon="12.255398132792033"><ele>464.0</ele><time>2026-03-29T10:11:51Z</time></trkpt><trkpt lat="43.19199753774091" lon="12.255280870872028"><ele>461.0</ele><time>2026-03-29T10:11:52Z</time></trkpt><trkpt lat="43.191977329752305" lon="12.255176490532346"><ele>458.0</ele><time>2026-03-29T10:11:53Z</time></trkpt><trkpt lat="43.19193031732892" lon="12.255057470764854"><ele>455.0</ele><time>2026-03-29T10:11:54Z</time></trkpt><trkpt lat="43.19190053104305" lon="12.254920728052491"><ele>455.0</ele><time>2026-03-29T10:11:55Z</time></trkpt><trkpt lat="43.19185366120344" lon="12.254820455686135"><ele>455.0</ele><time>2026-03-29T10:11:56Z</time></trkpt><trkpt lat="43.191794625172584" lon="12.254733957269519"><ele>455.0</ele><time>2026-03-29T10:11:57Z</time></trkpt><trkpt lat="43.191774208817414" lon="12.254606281270233"><ele>455.0</ele><time>2026-03-29T10:11:59Z</time></trkpt><trkpt lat="43.1918096543407" lon="12.25450835424383"><ele>455.0</ele><time>2026-03-29T10:12:01Z</time></trkpt><trkpt lat="43.191992134788705" lon="12.254465296352548"><ele>455.2</ele><time>2026-03-29T10:12:05Z</time></trkpt><trkpt lat="43.19208827226097" lon="12.25444345283563"><ele>455.4</ele><time>2026-03-29T10:12:06Z</time></trkpt><trkpt lat="43.192195617252324" lon="12.2544268118703"><ele>455.6</ele><time>2026-03-29T10:12:07Z</time></trkpt><trkpt lat="43.192311704283675" lon="12.25440381580593"><ele>455.8</ele><time>2026-03-29T10:12:08Z</time></trkpt><trkpt lat="43.192429002842346" lon="12.254368268245283"><ele>456.0</ele><time>2026-03-29T10:12:09Z</time></trkpt><trkpt lat="43.19252149296752" lon="12.25434424689815"><ele>456.0</ele><time>2026-03-29T10:12:10Z</time></trkpt><trkpt lat="43.19264525132535" lon="12.25437694634118"><ele>456.0</ele><time>2026-03-29T10:12:11Z</time></trkpt><trkpt lat="43.19273238155847" lon="12.254448461493059"><ele>456.0</ele><time>2026-03-29T10:12:12Z</time></trkpt><trkpt lat="43.192814403250544" lon="12.254460594638667"><ele>456.0</ele><time>2026-03-29T10:12:13Z</time></trkpt><trkpt lat="43.19288572272588" lon="12.254421745851916"><ele>456.0</ele><time>2026-03-29T10:12:14Z</time></trkpt><trkpt lat="43.19284767624638" lon="12.254276731360585"><ele>456.0</ele><time>2026-03-29T10:12:16Z</time></trkpt><trkpt lat="43.19278026828312" lon="12.254226213413602"><ele>456.0</ele><time>2026-03-29T10:12:17Z</time></trkpt><trkpt lat="43.192718678271554" lon="12.254182212889086"><ele>456.0</ele><time>2026-03-29T10:12:18Z</time></trkpt><trkpt lat="43.192634372475744" lon="12.254128468817372"><ele>456.0</ele><time>2026-03-29T10:12:19Z</time></trkpt><trkpt lat="43.19256562742452" lon="12.254104335138928"><ele>456.0</ele><time>2026-03-29T10:12:20Z</time></trkpt><trkpt lat="43.19249497108714" lon="12.25406169188661"><ele>456.0</ele><time>2026-03-29T10:12:21Z</time></trkpt><trkpt lat="43.192422694793564" lon="12.254013872408416"><ele>456.0</ele><time>2026-03-29T10:12:22Z</time></trkpt><trkpt lat="43.1923435203981" lon="12.253996004938987"><ele>456.0</ele><time>2026-03-29T10:12:23Z</time></trkpt><trkpt lat="43.1922513200105" lon="12.253961501468114"><ele>456.0</ele><time>2026-03-29T10:12:24Z</time></trkpt><trkpt lat="43.1921644387132" lon="12.253933176297977"><ele>456.0</ele><time>2026-03-29T10:12:25Z</time></trkpt><trkpt lat="43.19209715905331" lon="12.25395126140599"><ele>456.0</ele><time>2026-03-29T10:12:26Z</time></trkpt><trkpt lat="43.192012744588" lon="12.25393434903404"><ele>456.0</ele><time>2026-03-29T10:12:27Z</time></trkpt><trkpt lat="43.191931224635404" lon="12.253910017874155"><ele>451.4285714285714</ele><time>2026-03-29T10:12:28Z</time></trkpt><trkpt lat="43.191839288282345" lon="12.253892565827982"><ele>446.8571428571428</ele><time>2026-03-29T10:12:29Z</time></trkpt><trkpt lat="43.19176045275946" lon="12.2538778858899"><ele>442.2857142857143</ele><time>2026-03-29T10:12:30Z</time></trkpt><trkpt lat="43.19169437252021" lon="12.253840670228483"><ele>437.71428571428567</ele><time>2026-03-29T10:12:31Z</time></trkpt><trkpt lat="43.19163184435945" lon="12.253815502043224"><ele>433.1428571428571</ele><time>2026-03-29T10:12:32Z</time></trkpt><trkpt lat="43.19156707975877" lon="12.253779286706317"><ele>428.57142857142856</ele><time>2026-03-29T10:12:33Z</time></trkpt><trkpt lat="43.191505836259296" lon="12.253751488532348"><ele>424.0</ele><time>2026-03-29T10:12:34Z</time></trkpt><trkpt lat="43.19144143331232" lon="12.253745760179234"><ele>421.0</ele><time>2026-03-29T10:12:35Z</time></trkpt><trkpt lat="43.191375675917435" lon="12.253734199753845"><ele>418.0</ele><time>2026-03-29T10:12:36Z</time></trkpt><trkpt lat="43.191257609584284" lon="12.253693112827452"><ele>415.0</ele><time>2026-03-29T10:12:38Z</time></trkpt><trkpt lat="43.191145667294926" lon="12.253592204732886"><ele>412.0</ele><time>2026-03-29T10:12:40Z</time></trkpt><trkpt lat="43.191051643552505" lon="12.253679929216103"><ele>409.0</ele><time>2026-03-29T10:12:42Z</time></trkpt><trkpt lat="43.1910515970304" lon="12.253840737493142"><ele>409.0</ele><time>2026-03-29T10:12:44Z</time></trkpt><trkpt lat="43.190968694633845" lon="12.253948320464017"><ele>409.0</ele><time>2026-03-29T10:12:46Z</time></trkpt><trkpt lat="43.19095558531327" lon="12.254081057742038"><ele>409.0</ele><time>2026-03-29T10:12:49Z</time></trkpt><trkpt lat="43.19088708682672" lon="12.25422418003139"><ele>409.0</ele><time>2026-03-29T10:12:51Z</time></trkpt><trkpt lat="43.190852393602114" lon="12.254370316527588"><ele>409.0</ele><time>2026-03-29T10:12:53Z</time></trkpt><trkpt lat="43.19082545466493" lon="12.254534046906608"><ele>407.50000000000006</ele><time>2026-03-29T10:12:55Z</time></trkpt><trkpt lat="43.19088759330007" lon="12.254699185809626"><ele>406.0</ele><time>2026-03-29T10:12:56Z</time></trkpt><trkpt lat="43.1908737906962" lon="12.254791408172972"><ele>404.5</ele><time>2026-03-29T10:12:58Z</time></trkpt><trkpt lat="43.190813125951635" lon="12.254701704098416"><ele>403.0</ele><time>2026-03-29T10:13:00Z</time></trkpt><trkpt lat="43.19074507215905" lon="12.25466472096187"><ele>401.50000000000006</ele><time>2026-03-29T10:13:01Z</time></trkpt><trkpt lat="43.19067149972114" lon="12.254657373051362"><ele>400.0</ele><time>2026-03-29T10:13:02Z</time></trkpt><trkpt lat="43.190603547871795" lon="12.254707689341426"><ele>400.0</ele><time>2026-03-29T10:13:03Z</time></trkpt><trkpt lat="43.190535253723624" lon="12.254768358525203"><ele>400.0</ele><time>2026-03-29T10:13:04Z</time></trkpt><trkpt lat="43.19047109938633" lon="12.254837542834965"><ele>400.0</ele><time>2026-03-29T10:13:06Z</time></trkpt><trkpt lat="43.19001321523852" lon="12.255376942446258"><ele>402.5</ele><time>2026-03-29T10:13:08Z</time></trkpt><trkpt lat="43.18987421979391" lon="12.255223015285477"><ele>405.0</ele><time>2026-03-29T10:13:10Z</time></trkpt><trkpt lat="43.18978847349505" lon="12.255151377756219"><ele>407.5</ele><time>2026-03-29T10:13:11Z</time></trkpt><trkpt lat="43.18969110079568" lon="12.255067368778558"><ele>410.0</ele><time>2026-03-29T10:13:12Z</time></trkpt><trkpt lat="43.18962778679526" lon="12.25516034824054"><ele>410.0</ele><time>2026-03-29T10:13:13Z</time></trkpt><trkpt lat="43.1895343053658" lon="12.255133631276294"><ele>410.0</ele><time>2026-03-29T10:13:14Z</time></trkpt><trkpt lat="43.189448952477846" lon="12.255124158255464"><ele>410.0</ele><time>2026-03-29T10:13:15Z</time></trkpt><trkpt lat="43.18936539212922" lon="12.255162476159379"><ele>410.0</ele><time>2026-03-29T10:13:16Z</time></trkpt><trkpt lat="43.18925898106835" lon="12.25518087612563"><ele>410.0</ele><time>2026-03-29T10:13:17Z</time></trkpt><trkpt lat="43.189173409040954" lon="12.255110003421258"><ele>410.0</ele><time>2026-03-29T10:13:18Z</time></trkpt><trkpt lat="43.18908854374876" lon="12.255016639550375"><ele>410.0</ele><time>2026-03-29T10:13:19Z</time></trkpt><trkpt lat="43.18900192602467" lon="12.254992755292987"><ele>410.0</ele><time>2026-03-29T10:13:20Z</time></trkpt><trkpt lat="43.188938822792544" lon="12.254932083065276"><ele>410.0</ele><time>2026-03-29T10:13:21Z</time></trkpt><trkpt lat="43.188812218734135" lon="12.254925694739777"><ele>410.0</ele><time>2026-03-29T10:13:23Z</time></trkpt><trkpt lat="43.18873898328068" lon="12.254932884723946"><ele>409.6</ele><time>2026-03-29T10:13:24Z</time></trkpt><trkpt lat="43.18866032033608" lon="12.254952377060901"><ele>409.2</ele><time>2026-03-29T10:13:25Z</time></trkpt><trkpt lat="43.18856810230542" lon="12.254959149850608"><ele>408.79999999999995</ele><time>2026-03-29T10:13:26Z</time></trkpt><trkpt lat="43.188479060658814" lon="12.254923781019338"><ele>408.4</ele><time>2026-03-29T10:13:27Z</time></trkpt><trkpt lat="43.18838553020655" lon="12.254881637483837"><ele>408.0</ele><time>2026-03-29T10:13:28Z</time></trkpt><trkpt lat="43.18830848634299" lon="12.254818046496993"><ele>405.0</ele><time>2026-03-29T10:13:29Z</time></trkpt><trkpt lat="43.18823089767283" lon="12.254737149911813"><ele>402.0</ele><time>2026-03-29T10:13:30Z</time></trkpt><trkpt lat="43.188173662849564" lon="12.254671433567163"><ele>399.0</ele><time>2026-03-29T10:13:31Z</time></trkpt><trkpt lat="43.18810734371641" lon="12.254588631097533"><ele>396.0</ele><time>2026-03-29T10:13:32Z</time></trkpt><trkpt lat="43.188030948927725" lon="12.254535264509354"><ele>393.0</ele><time>2026-03-29T10:13:33Z</time></trkpt><trkpt lat="43.18794069020489" lon="12.254503167212441"><ele>390.0</ele><time>2026-03-29T10:13:34Z</time></trkpt><trkpt lat="43.18785485631965" lon="12.254498530412986"><ele>390.0</ele><time>2026-03-29T10:13:35Z</time></trkpt><trkpt lat="43.18777333671666" lon="12.254491248478681"><ele>390.0</ele><time>2026-03-29T10:13:36Z</time></trkpt><trkpt lat="43.18772561216791" lon="12.25442405775218"><ele>390.0</ele><time>2026-03-29T10:13:37Z</time></trkpt><trkpt lat="43.1876046126968" lon="12.254389411108495"><ele>390.0</ele><time>2026-03-29T10:13:39Z</time></trkpt><trkpt lat="43.18745230360491" lon="12.254398529494164"><ele>390.0</ele><time>2026-03-29T10:13:41Z</time></trkpt><trkpt lat="43.187341205657084" lon="12.254377241392639"><ele>388.2</ele><time>2026-03-29T10:13:42Z</time></trkpt><trkpt lat="43.187246851643074" lon="12.254374240960166"><ele>386.4</ele><time>2026-03-29T10:13:43Z</time></trkpt><trkpt lat="43.18715365498922" lon="12.254374349817878"><ele>384.6</ele><time>2026-03-29T10:13:44Z</time></trkpt><trkpt lat="43.18707185091678" lon="12.25442903677182"><ele>382.8</ele><time>2026-03-29T10:13:45Z</time></trkpt><trkpt lat="43.186973151205095" lon="12.254497187126098"><ele>381.0</ele><time>2026-03-29T10:13:46Z</time></trkpt><trkpt lat="43.18689270500332" lon="12.254577603740158"><ele>381.0</ele><time>2026-03-29T10:13:47Z</time></trkpt><trkpt lat="43.18681897156461" lon="12.254624373858436"><ele>381.0</ele><time>2026-03-29T10:13:48Z</time></trkpt><trkpt lat="43.18671869216554" lon="12.254656192858734"><ele>381.0</ele><time>2026-03-29T10:13:49Z</time></trkpt><trkpt lat="43.18660651593976" lon="12.25466086690409"><ele>381.0</ele><time>2026-03-29T10:13:50Z</time></trkpt><trkpt lat="43.18650240620756" lon="12.254679912519139"><ele>381.0</ele><time>2026-03-29T10:13:51Z</time></trkpt><trkpt lat="43.186416469184636" lon="12.254714469716234"><ele>378.20000000000005</ele><time>2026-03-29T10:13:52Z</time></trkpt><trkpt lat="43.186327131780196" lon="12.254745048000613"><ele>375.40000000000003</ele><time>2026-03-29T10:13:53Z</time></trkpt><trkpt lat="43.186239915339286" lon="12.254736060713698"><ele>372.6</ele><time>2026-03-29T10:13:54Z</time></trkpt><trkpt lat="43.18612997283363" lon="12.254701041031685"><ele>369.8</ele><time>2026-03-29T10:13:55Z</time></trkpt><trkpt lat="43.18602929376317" lon="12.254683669145036"><ele>367.0</ele><time>2026-03-29T10:13:56Z</time></trkpt><trkpt lat="43.18595350482774" lon="12.254724400659148"><ele>367.0</ele><time>2026-03-29T10:13:57Z</time></trkpt><trkpt lat="43.185867336885686" lon="12.254756867525119"><ele>367.0</ele><time>2026-03-29T10:13:58Z</time></trkpt><trkpt lat="43.18575615049995" lon="12.25484270834301"><ele>367.0</ele><time>2026-03-29T10:14:00Z</time></trkpt><trkpt lat="43.18568910263678" lon="12.254882448324032"><ele>367.0</ele><time>2026-03-29T10:14:01Z</time></trkpt><trkpt lat="43.18562443745834" lon="12.25493771623357"><ele>367.0</ele><time>2026-03-29T10:14:02Z</time></trkpt><trkpt lat="43.185546493449955" lon="12.254968058725355"><ele>367.0</ele><time>2026-03-29T10:14:03Z</time></trkpt><trkpt lat="43.1854723278515" lon="12.254987815292026"><ele>369.6</ele><time>2026-03-29T10:14:04Z</time></trkpt><trkpt lat="43.18540200995575" lon="12.254962208014001"><ele>372.20000000000005</ele><time>2026-03-29T10:14:05Z</time></trkpt><trkpt lat="43.18531171542515" lon="12.254912634644759"><ele>374.8</ele><time>2026-03-29T10:14:06Z</time></trkpt><trkpt lat="43.18519327388023" lon="12.254895430167256"><ele>377.4</ele><time>2026-03-29T10:14:07Z</time></trkpt><trkpt lat="43.18507540324801" lon="12.254871130224817"><ele>380.0</ele><time>2026-03-29T10:14:08Z</time></trkpt><trkpt lat="43.18498215615762" lon="12.254834504657513"><ele>380.0</ele><time>2026-03-29T10:14:09Z</time></trkpt><trkpt lat="43.18490486864133" lon="12.254813975338859"><ele>380.0</ele><time>2026-03-29T10:14:10Z</time></trkpt><trkpt lat="43.18483718821092" lon="12.254808605212947"><ele>380.0</ele><time>2026-03-29T10:14:11Z</time></trkpt><trkpt lat="43.18475284782776" lon="12.254815561597063"><ele>380.0</ele><time>2026-03-29T10:14:12Z</time></trkpt><trkpt lat="43.184686336512215" lon="12.254861544171483"><ele>380.0</ele><time>2026-03-29T10:14:13Z</time></trkpt><trkpt lat="43.18462756937522" lon="12.254929935747954"><ele>380.0</ele><time>2026-03-29T10:14:14Z</time></trkpt><trkpt lat="43.184583509776246" lon="12.255024028940715"><ele>376.6</ele><time>2026-03-29T10:14:15Z</time></trkpt><trkpt lat="43.18449470859747" lon="12.255144191783105"><ele>373.2</ele><time>2026-03-29T10:14:16Z</time></trkpt><trkpt lat="43.18441479971011" lon="12.255210013082014"><ele>369.79999999999995</ele><time>2026-03-29T10:14:17Z</time></trkpt><trkpt lat="43.184326305661585" lon="12.255252168058172"><ele>366.4</ele><time>2026-03-29T10:14:18Z</time></trkpt><trkpt lat="43.18426630854178" lon="12.255312178255503"><ele>363.0</ele><time>2026-03-29T10:14:19Z</time></trkpt><trkpt lat="43.184185363109734" lon="12.255420784135747"><ele>363.0</ele><time>2026-03-29T10:14:20Z</time></trkpt><trkpt lat="43.18410979361275" lon="12.255528580048269"><ele>363.0</ele><time>2026-03-29T10:14:21Z</time></trkpt><trkpt lat="43.18406329781244" lon="12.255612825880277"><ele>363.0</ele><time>2026-03-29T10:14:22Z</time></trkpt><trkpt lat="43.18402636878485" lon="12.255781988066087"><ele>363.0</ele><time>2026-03-29T10:14:24Z</time></trkpt><trkpt lat="43.18403027774526" lon="12.255939607759851"><ele>363.0</ele><time>2026-03-29T10:14:25Z</time></trkpt><trkpt lat="43.1840623508025" lon="12.256094620333842"><ele>360.2</ele><time>2026-03-29T10:14:26Z</time></trkpt><trkpt lat="43.184112097723336" lon="12.2562329799486"><ele>357.4</ele><time>2026-03-29T10:14:28Z</time></trkpt><trkpt lat="43.1840482815878" lon="12.256253868211518"><ele>354.59999999999997</ele><time>2026-03-29T10:14:29Z</time></trkpt><trkpt lat="43.184015495140066" lon="12.256175911937174"><ele>351.79999999999995</ele><time>2026-03-29T10:14:31Z</time></trkpt><trkpt lat="43.18388685085956" lon="12.25604474516528"><ele>349.0</ele><time>2026-03-29T10:14:33Z</time></trkpt><trkpt lat="43.18382760409089" lon="12.255973960193161"><ele>349.0</ele><time>2026-03-29T10:14:34Z</time></trkpt><trkpt lat="43.18376426829947" lon="12.25591693512759"><ele>349.0</ele><time>2026-03-29T10:14:35Z</time></trkpt><trkpt lat="43.18367835917131" lon="12.255812631821309"><ele>349.0</ele><time>2026-03-29T10:14:37Z</time></trkpt><trkpt lat="43.18363574797254" lon="12.25569980282111"><ele>349.0</ele><time>2026-03-29T10:14:38Z</time></trkpt><trkpt lat="43.18357694520733" lon="12.255645488392524"><ele>349.0</ele><time>2026-03-29T10:14:39Z</time></trkpt><trkpt lat="43.183508666037554" lon="12.255520646795604"><ele>348.4</ele><time>2026-03-29T10:14:41Z</time></trkpt><trkpt lat="43.183460740312555" lon="12.255462125529"><ele>347.79999999999995</ele><time>2026-03-29T10:14:42Z</time></trkpt><trkpt lat="43.183412270625716" lon="12.255396855260694"><ele>347.20000000000005</ele><time>2026-03-29T10:14:43Z</time></trkpt><trkpt lat="43.18328526249178" lon="12.25536467238005"><ele>346.6</ele><time>2026-03-29T10:14:45Z</time></trkpt><trkpt lat="43.18320349637306" lon="12.25532927901346"><ele>346.0</ele><time>2026-03-29T10:14:47Z</time></trkpt><trkpt lat="43.183147975278835" lon="12.25520888608908"><ele>341.8</ele><time>2026-03-29T10:14:51Z</time></trkpt><trkpt lat="43.183126857175" lon="12.255104237295571"><ele>337.6</ele><time>2026-03-29T10:14:52Z</time></trkpt><trkpt lat="43.18311251919554" lon="12.254998065127962"><ele>333.4</ele><time>2026-03-29T10:14:53Z</time></trkpt><trkpt lat="43.18308539317374" lon="12.254919261651217"><ele>329.2</ele><time>2026-03-29T10:14:54Z</time></trkpt><trkpt lat="43.182978156791286" lon="12.25487292199627"><ele>325.0</ele><time>2026-03-29T10:14:56Z</time></trkpt><trkpt lat="43.182882028659634" lon="12.25501251438718"><ele>325.0</ele><time>2026-03-29T10:14:58Z</time></trkpt><trkpt lat="43.18285799783462" lon="12.255117831116351"><ele>325.0</ele><time>2026-03-29T10:14:59Z</time></trkpt><trkpt lat="43.18287234233818" lon="12.255248886472897"><ele>325.0</ele><time>2026-03-29T10:15:00Z</time></trkpt><trkpt lat="43.18290462007006" lon="12.255387259384108"><ele>325.0</ele><time>2026-03-29T10:15:01Z</time></trkpt><trkpt lat="43.182926535487624" lon="12.25551288009803"><ele>325.0</ele><time>2026-03-29T10:15:02Z</time></trkpt><trkpt lat="43.18295591444053" lon="12.25563369789111"><ele>324.0</ele><time>2026-03-29T10:15:03Z</time></trkpt><trkpt lat="43.182984868101975" lon="12.255751902694097"><ele>323.0</ele><time>2026-03-29T10:15:04Z</time></trkpt><trkpt lat="43.18301626208686" lon="12.25585545059639"><ele>322.0</ele><time>2026-03-29T10:15:05Z</time></trkpt><trkpt lat="43.183060288142805" lon="12.255968632849232"><ele>321.0</ele><time>2026-03-29T10:15:06Z</time></trkpt><trkpt lat="43.18309785023785" lon="12.256082092153909"><ele>320.0</ele><time>2026-03-29T10:15:07Z</time></trkpt><trkpt lat="43.18313330132581" lon="12.256185180190366"><ele>319.0</ele><time>2026-03-29T10:15:08Z</time></trkpt><trkpt lat="43.18316908810253" lon="12.256293391598895"><ele>323.2</ele><time>2026-03-29T10:15:09Z</time></trkpt><trkpt lat="43.18319042963014" lon="12.256422943816714"><ele>327.4</ele><time>2026-03-29T10:15:10Z</time></trkpt><trkpt lat="43.183198001853626" lon="12.256560567390279"><ele>331.6</ele><time>2026-03-29T10:15:11Z</time></trkpt><trkpt lat="43.18321835719701" lon="12.256707075397662"><ele>335.8</ele><time>2026-03-29T10:15:12Z</time></trkpt><trkpt lat="43.183240808075254" lon="12.25680462699513"><ele>340.0</ele><time>2026-03-29T10:15:13Z</time></trkpt><trkpt lat="43.183269790487486" lon="12.256931196029182"><ele>340.0</ele><time>2026-03-29T10:15:14Z</time></trkpt><trkpt lat="43.18330592639448" lon="12.257066272313489"><ele>340.0</ele><time>2026-03-29T10:15:15Z</time></trkpt><trkpt lat="43.18333170607113" lon="12.257208280553275"><ele>340.0</ele><time>2026-03-29T10:15:16Z</time></trkpt><trkpt lat="43.18335542085704" lon="12.257346909913737"><ele>340.0</ele><time>2026-03-29T10:15:17Z</time></trkpt><trkpt lat="43.18338161062591" lon="12.257470135499121"><ele>340.0</ele><time>2026-03-29T10:15:18Z</time></trkpt><trkpt lat="43.18340057283976" lon="12.257585468547823"><ele>337.8333333333333</ele><time>2026-03-29T10:15:19Z</time></trkpt><trkpt lat="43.18342232116252" lon="12.257682400438577"><ele>335.66666666666663</ele><time>2026-03-29T10:15:20Z</time></trkpt><trkpt lat="43.183444397476244" lon="12.257765693177308"><ele>333.5</ele><time>2026-03-29T10:15:21Z</time></trkpt><trkpt lat="43.1834211040328" lon="12.257899480340939"><ele>331.3333333333333</ele><time>2026-03-29T10:15:23Z</time></trkpt><trkpt lat="43.183349077855084" lon="12.257879378684235"><ele>329.1666666666667</ele><time>2026-03-29T10:15:26Z</time></trkpt><trkpt lat="43.183275727462444" lon="12.257854280689317"><ele>327.0</ele><time>2026-03-29T10:15:28Z</time></trkpt><trkpt lat="43.183194451244155" lon="12.257840872817141"><ele>327.0</ele><time>2026-03-29T10:15:30Z</time></trkpt><trkpt lat="43.183176491397546" lon="12.25759132731217"><ele>327.0</ele><time>2026-03-29T10:16:30Z</time></trkpt><trkpt lat="43.183210421459165" lon="12.257459041618608"><ele>327.0</ele><time>2026-03-29T10:16:31Z</time></trkpt><trkpt lat="43.18322638185469" lon="12.257297371596763"><ele>327.0</ele><time>2026-03-29T10:16:32Z</time></trkpt><trkpt lat="43.18321114263958" lon="12.25714034150766"><ele>329.6</ele><time>2026-03-29T10:16:33Z</time></trkpt><trkpt lat="43.183190192830175" lon="12.25705036297581"><ele>332.20000000000005</ele><time>2026-03-29T10:16:34Z</time></trkpt><trkpt lat="43.18315606127602" lon="12.256937123083128"><ele>334.8</ele><time>2026-03-29T10:16:35Z</time></trkpt><trkpt lat="43.18311270091727" lon="12.256774159103479"><ele>337.4</ele><time>2026-03-29T10:16:36Z</time></trkpt><trkpt lat="43.18307423337958" lon="12.256609295486516"><ele>340.0</ele><time>2026-03-29T10:16:37Z</time></trkpt><trkpt lat="43.18301138996451" lon="12.256493748954767"><ele>335.8</ele><time>2026-03-29T10:16:38Z</time></trkpt><trkpt lat="43.182966021611165" lon="12.25639489573616"><ele>331.6</ele><time>2026-03-29T10:16:39Z</time></trkpt><trkpt lat="43.182935574321306" lon="12.2562968356675"><ele>327.4</ele><time>2026-03-29T10:16:40Z</time></trkpt><trkpt lat="43.182925667493414" lon="12.256095915269354"><ele>323.2</ele><time>2026-03-29T10:16:42Z</time></trkpt><trkpt lat="43.18294690925476" lon="12.256003749987336"><ele>319.0</ele><time>2026-03-29T10:16:43Z</time></trkpt><trkpt lat="43.18295292188518" lon="12.255908624518018"><ele>319.0</ele><time>2026-03-29T10:16:44Z</time></trkpt><trkpt lat="43.18292277375544" lon="12.255825299562359"><ele>319.0</ele><time>2026-03-29T10:16:45Z</time></trkpt><trkpt lat="43.18288851270016" lon="12.255743326400177"><ele>319.0</ele><time>2026-03-29T10:16:46Z</time></trkpt><trkpt lat="43.18285814111612" lon="12.255666024317192"><ele>319.0</ele><time>2026-03-29T10:16:47Z</time></trkpt><trkpt lat="43.18281767463054" lon="12.255587197291712"><ele>319.0</ele><time>2026-03-29T10:16:50Z</time></trkpt><trkpt lat="43.18274488062796" lon="12.255523704698067"><ele>319.0</ele><time>2026-03-29T10:16:53Z</time></trkpt><trkpt lat="43.18267952628762" lon="12.255458162749946"><ele>319.0</ele><time>2026-03-29T10:16:55Z</time></trkpt><trkpt lat="43.18261621621706" lon="12.255414510821513"><ele>320.2</ele><time>2026-03-29T10:16:57Z</time></trkpt><trkpt lat="43.18253137371725" lon="12.255290370042578"><ele>321.4</ele><time>2026-03-29T10:16:59Z</time></trkpt><trkpt lat="43.18248938512485" lon="12.255201504891547"><ele>322.6</ele><time>2026-03-29T10:17:00Z</time></trkpt><trkpt lat="43.18243827562495" lon="12.255106184637494"><ele>323.8</ele><time>2026-03-29T10:17:01Z</time></trkpt><trkpt lat="43.18237563417155" lon="12.255003119773555"><ele>325.0</ele><time>2026-03-29T10:17:02Z</time></trkpt><trkpt lat="43.182292359161714" lon="12.25489436729577"><ele>321.25</ele><time>2026-03-29T10:17:03Z</time></trkpt><trkpt lat="43.182200983490375" lon="12.254793180493769"><ele>317.5</ele><time>2026-03-29T10:17:04Z</time></trkpt><trkpt lat="43.18212072177518" lon="12.254672282995758"><ele>313.75</ele><time>2026-03-29T10:17:05Z</time></trkpt><trkpt lat="43.18204682900824" lon="12.254553132332108"><ele>310.0</ele><time>2026-03-29T10:17:06Z</time></trkpt><trkpt lat="43.18198190949539" lon="12.254431117951823"><ele>309.66666666666663</ele><time>2026-03-29T10:17:07Z</time></trkpt><trkpt lat="43.181934485837324" lon="12.25433958685997"><ele>309.3333333333333</ele><time>2026-03-29T10:17:08Z</time></trkpt><trkpt lat="43.18188736533274" lon="12.254264643446215"><ele>309.0</ele><time>2026-03-29T10:17:09Z</time></trkpt><trkpt lat="43.181834748784425" lon="12.254208067643228"><ele>308.6666666666667</ele><time>2026-03-29T10:17:10Z</time></trkpt><trkpt lat="43.18176275349818" lon="12.254189700607022"><ele>308.33333333333337</ele><time>2026-03-29T10:17:11Z</time></trkpt><trkpt lat="43.1816757829807" lon="12.254183422962294"><ele>308.0</ele><time>2026-03-29T10:17:12Z</time></trkpt><trkpt lat="43.18159351333432" lon="12.254167877749989"><ele>308.0</ele><time>2026-03-29T10:17:13Z</time></trkpt><trkpt lat="43.181502915531304" lon="12.254162342151025"><ele>308.0</ele><time>2026-03-29T10:17:14Z</time></trkpt><trkpt lat="43.1814156579396" lon="12.254115002687616"><ele>308.0</ele><time>2026-03-29T10:17:15Z</time></trkpt><trkpt lat="43.181326834387875" lon="12.254079925873786"><ele>308.0</ele><time>2026-03-29T10:17:16Z</time></trkpt><trkpt lat="43.181253080044314" lon="12.25403748292638"><ele>308.0</ele><time>2026-03-29T10:17:17Z</time></trkpt><trkpt lat="43.18122978419916" lon="12.253926656596178"><ele>308.0</ele><time>2026-03-29T10:17:18Z</time></trkpt><trkpt lat="43.181198029840345" lon="12.253800724545497"><ele>308.0</ele><time>2026-03-29T10:17:19Z</time></trkpt><trkpt lat="43.181165857524206" lon="12.253691226444541"><ele>308.0</ele><time>2026-03-29T10:17:20Z</time></trkpt><trkpt lat="43.18110507916836" lon="12.25363290241755"><ele>308.0</ele><time>2026-03-29T10:17:21Z</time></trkpt><trkpt lat="43.181042000738344" lon="12.253632119464896"><ele>308.0</ele><time>2026-03-29T10:17:22Z</time></trkpt><trkpt lat="43.1809686178841" lon="12.25366148032031"><ele>308.0</ele><time>2026-03-29T10:17:23Z</time></trkpt><trkpt lat="43.18087788359088" lon="12.253648290503426"><ele>308.0</ele><time>2026-03-29T10:17:24Z</time></trkpt><trkpt lat="43.18077522509176" lon="12.253629561724603"><ele>310.0</ele><time>2026-03-29T10:17:25Z</time></trkpt><trkpt lat="43.18065322751865" lon="12.25358704638648"><ele>312.0</ele><time>2026-03-29T10:17:26Z</time></trkpt><trkpt lat="43.180521998567016" lon="12.25350643593318"><ele>314.0</ele><time>2026-03-29T10:17:27Z</time></trkpt><trkpt lat="43.18041492235" lon="12.253457228663393"><ele>316.0</ele><time>2026-03-29T10:17:28Z</time></trkpt><trkpt lat="43.18031945570767" lon="12.25339791830831"><ele>316.0</ele><time>2026-03-29T10:17:29Z</time></trkpt><trkpt lat="43.180223214972656" lon="12.25330077291836"><ele>316.0</ele><time>2026-03-29T10:17:30Z</time></trkpt><trkpt lat="43.18014052593581" lon="12.253170429747087"><ele>316.0</ele><time>2026-03-29T10:17:31Z</time></trkpt><trkpt lat="43.18010183409567" lon="12.253064898544675"><ele>316.0</ele><time>2026-03-29T10:17:32Z</time></trkpt><trkpt lat="43.180061254126535" lon="12.25295521980463"><ele>316.0</ele><time>2026-03-29T10:17:34Z</time></trkpt><trkpt lat="43.18000684432995" lon="12.252887291500208"><ele>314.5</ele><time>2026-03-29T10:17:35Z</time></trkpt><trkpt lat="43.17992359535116" lon="12.252874644106015"><ele>313.0</ele><time>2026-03-29T10:18:08Z</time></trkpt><trkpt lat="43.17985180508336" lon="12.252912702130018"><ele>311.5</ele><time>2026-03-29T10:18:11Z</time></trkpt><trkpt lat="43.17980764949714" lon="12.253008739711207"><ele>310.0</ele><time>2026-03-29T10:18:13Z</time></trkpt><trkpt lat="43.17974432033616" lon="12.253079871658455"><ele>308.5</ele><time>2026-03-29T10:18:27Z</time></trkpt><trkpt lat="43.17969281160176" lon="12.253149889235385"><ele>307.0</ele><time>2026-03-29T10:18:29Z</time></trkpt><trkpt lat="43.17964729241823" lon="12.253218887133023"><ele>313.8</ele><time>2026-03-29T10:18:30Z</time></trkpt><trkpt lat="43.179590976654374" lon="12.253306642273243"><ele>320.6</ele><time>2026-03-29T10:18:31Z</time></trkpt><trkpt lat="43.17954815867022" lon="12.253412397341473"><ele>327.40000000000003</ele><time>2026-03-29T10:18:32Z</time></trkpt><trkpt lat="43.179470016931845" lon="12.253541780246628"><ele>334.2</ele><time>2026-03-29T10:18:34Z</time></trkpt><trkpt lat="43.17937544613372" lon="12.253629375539969"><ele>341.0</ele><time>2026-03-29T10:18:36Z</time></trkpt><trkpt lat="43.17934701356415" lon="12.25372145837677"><ele>341.0</ele><time>2026-03-29T10:18:37Z</time></trkpt><trkpt lat="43.179303352102636" lon="12.253807386222803"><ele>341.0</ele><time>2026-03-29T10:18:39Z</time></trkpt><trkpt lat="43.179237887955125" lon="12.253882108252544"><ele>341.0</ele><time>2026-03-29T10:18:42Z</time></trkpt><trkpt lat="43.17920291647423" lon="12.254008319104717"><ele>341.0</ele><time>2026-03-29T10:18:46Z</time></trkpt><trkpt lat="43.179164076121936" lon="12.25412237039949"><ele>341.0</ele><time>2026-03-29T10:18:48Z</time></trkpt><trkpt lat="43.17910827571043" lon="12.254169308621407"><ele>341.0</ele><time>2026-03-29T10:18:51Z</time></trkpt><trkpt lat="43.17908264492395" lon="12.254269802366801"><ele>345.83333333333337</ele><time>2026-03-29T10:18:53Z</time></trkpt><trkpt lat="43.17901278398295" lon="12.254367925065932"><ele>350.6666666666667</ele><time>2026-03-29T10:18:56Z</time></trkpt><trkpt lat="43.17898550775794" lon="12.254451885958199"><ele>355.5</ele><time>2026-03-29T10:18:58Z</time></trkpt><trkpt lat="43.178967223761326" lon="12.254553579532702"><ele>360.3333333333333</ele><time>2026-03-29T10:19:03Z</time></trkpt><trkpt lat="43.178893627898496" lon="12.254488526856106"><ele>365.16666666666663</ele><time>2026-03-29T10:19:04Z</time></trkpt><trkpt lat="43.17892887375194" lon="12.254563767797535"><ele>370.0</ele><time>2026-03-29T10:19:08Z</time></trkpt><trkpt lat="43.178884803116695" lon="12.254625635401304"><ele>370.0</ele><time>2026-03-29T10:19:13Z</time></trkpt><trkpt lat="43.178892019139106" lon="12.254483542488355"><ele>370.0</ele><time>2026-03-29T10:19:23Z</time></trkpt><trkpt lat="43.178897917108216" lon="12.254372516948276"><ele>370.0</ele><time>2026-03-29T10:19:24Z</time></trkpt><trkpt lat="43.17886465498699" lon="12.254239808826833"><ele>370.0</ele><time>2026-03-29T10:19:25Z</time></trkpt><trkpt lat="43.17883938853764" lon="12.254154642807316"><ele>370.0</ele><time>2026-03-29T10:19:26Z</time></trkpt><trkpt lat="43.17878221006129" lon="12.25408995594581"><ele>370.0</ele><time>2026-03-29T10:19:27Z</time></trkpt><trkpt lat="43.17867163076841" lon="12.25402464394572"><ele>370.0</ele><time>2026-03-29T10:19:28Z</time></trkpt><trkpt lat="43.17859374741432" lon="12.253984710098944"><ele>370.0</ele><time>2026-03-29T10:19:30Z</time></trkpt><trkpt lat="43.1785303931519" lon="12.253998362612242"><ele>370.0</ele><time>2026-03-29T10:19:32Z</time></trkpt><trkpt lat="43.178459510292456" lon="12.25392326951581"><ele>370.0</ele><time>2026-03-29T10:19:35Z</time></trkpt><trkpt lat="43.17840595522822" lon="12.253858200204489"><ele>370.0</ele><time>2026-03-29T10:19:37Z</time></trkpt><trkpt lat="43.17837785122862" lon="12.25375547283933"><ele>370.0</ele><time>2026-03-29T10:19:38.999Z</time></trkpt><trkpt lat="43.17838548229943" lon="12.253633981538545"><ele>368.8</ele><time>2026-03-29T10:19:40.999Z</time></trkpt><trkpt lat="43.17841264679958" lon="12.253528528303436"><ele>367.6</ele><time>2026-03-29T10:19:41.999Z</time></trkpt><trkpt lat="43.17843354727931" lon="12.253434233788685"><ele>366.4</ele><time>2026-03-29T10:19:42.999Z</time></trkpt><trkpt lat="43.17844271905821" lon="12.253259090824145"><ele>365.2</ele><time>2026-03-29T10:19:43.999Z</time></trkpt><trkpt lat="43.178440182809865" lon="12.253074058709581"><ele>364.0</ele><time>2026-03-29T10:19:44.999Z</time></trkpt><trkpt lat="43.178451443764665" lon="12.252912287135711"><ele>362.79999999999995</ele><time>2026-03-29T10:19:45.999Z</time></trkpt><trkpt lat="43.17844330382985" lon="12.25276304384077"><ele>361.59999999999997</ele><time>2026-03-29T10:19:46.999Z</time></trkpt><trkpt lat="43.178440450347416" lon="12.252651009426863"><ele>360.4</ele><time>2026-03-29T10:19:47.999Z</time></trkpt><trkpt lat="43.17839364451047" lon="12.252549473300114"><ele>359.2</ele><time>2026-03-29T10:19:48.999Z</time></trkpt><trkpt lat="43.17834541629317" lon="12.25244857837723"><ele>358.0</ele><time>2026-03-29T10:19:49.999Z</time></trkpt><trkpt lat="43.17832287970022" lon="12.252289502483942"><ele>355.5</ele><time>2026-03-29T10:19:50.999Z</time></trkpt><trkpt lat="43.17833079995884" lon="12.2521789703922"><ele>353.0</ele><time>2026-03-29T10:19:51.999Z</time></trkpt><trkpt lat="43.178336099466016" lon="12.25203219839733"><ele>350.5</ele><time>2026-03-29T10:19:52.999Z</time></trkpt><trkpt lat="43.178287826505596" lon="12.251950313754916"><ele>348.0</ele><time>2026-03-29T10:19:53.999Z</time></trkpt><trkpt lat="43.178207064338665" lon="12.251945724445164"><ele>345.5</ele><time>2026-03-29T10:19:58Z</time></trkpt><trkpt lat="43.17815684208543" lon="12.252063541645782"><ele>343.0</ele><time>2026-03-29T10:20:01Z</time></trkpt><trkpt lat="43.17810694233802" lon="12.252132643640534"><ele>343.8333333333333</ele><time>2026-03-29T10:20:06Z</time></trkpt><trkpt lat="43.178040429618086" lon="12.252236914267161"><ele>344.66666666666663</ele><time>2026-03-29T10:20:09Z</time></trkpt><trkpt lat="43.17801134062636" lon="12.252345038163005"><ele>345.5</ele><time>2026-03-29T10:20:12Z</time></trkpt><trkpt lat="43.177956232776225" lon="12.25242642209142"><ele>346.3333333333333</ele><time>2026-03-29T10:20:15Z</time></trkpt><trkpt lat="43.17794951521253" lon="12.252515625547927"><ele>347.1666666666667</ele><time>2026-03-29T10:20:17Z</time></trkpt><trkpt lat="43.17793516686752" lon="12.252670358580787"><ele>348.0</ele><time>2026-03-29T10:20:20Z</time></trkpt><trkpt lat="43.177928600996616" lon="12.252759886812036"><ele>360.0</ele><time>2026-03-29T10:20:23Z</time></trkpt><trkpt lat="43.17788149461693" lon="12.25355355111613"><ele>360.0</ele><time>2026-03-29T10:20:25Z</time></trkpt><trkpt lat="43.1778967728828" lon="12.253674306974935"><ele>360.0</ele><time>2026-03-29T10:20:27Z</time></trkpt><trkpt lat="43.17787816847121" lon="12.253858034979867"><ele>360.0</ele><time>2026-03-29T10:20:28.999Z</time></trkpt><trkpt lat="43.17786066231621" lon="12.253979920277224"><ele>360.0</ele><time>2026-03-29T10:20:29.999Z</time></trkpt><trkpt lat="43.17785275417175" lon="12.25408717346642"><ele>360.0</ele><time>2026-03-29T10:20:30.999Z</time></trkpt><trkpt lat="43.17782542327598" lon="12.254212797679408"><ele>362.3333333333333</ele><time>2026-03-29T10:20:31.999Z</time></trkpt><trkpt lat="43.17780343395124" lon="12.254332820424992"><ele>364.6666666666667</ele><time>2026-03-29T10:20:32.999Z</time></trkpt><trkpt lat="43.17778898997958" lon="12.254488140228366"><ele>367.0</ele><time>2026-03-29T10:20:33.999Z</time></trkpt><trkpt lat="43.17782085336067" lon="12.254582912770397"><ele>369.33333333333337</ele><time>2026-03-29T10:20:34.999Z</time></trkpt><trkpt lat="43.17782461523755" lon="12.254687661242304"><ele>371.6666666666667</ele><time>2026-03-29T10:20:35.999Z</time></trkpt><trkpt lat="43.177845936773124" lon="12.254803590786754"><ele>374.0</ele><time>2026-03-29T10:20:36.999Z</time></trkpt><trkpt lat="43.17787664225224" lon="12.254900233850497"><ele>377.6</ele><time>2026-03-29T10:20:37.999Z</time></trkpt><trkpt lat="43.17791576632873" lon="12.254993516979958"><ele>381.2</ele><time>2026-03-29T10:20:38.999Z</time></trkpt><trkpt lat="43.177960373297964" lon="12.255096425042368"><ele>384.8</ele><time>2026-03-29T10:20:39.999Z</time></trkpt><trkpt lat="43.17800861350184" lon="12.255202945198214"><ele>388.40000000000003</ele><time>2026-03-29T10:20:40.999Z</time></trkpt><trkpt lat="43.17808358839518" lon="12.255323298310929"><ele>392.0</ele><time>2026-03-29T10:20:42.999Z</time></trkpt><trkpt lat="43.17811894917102" lon="12.255419850696374"><ele>392.0</ele><time>2026-03-29T10:20:43.999Z</time></trkpt><trkpt lat="43.17813061286201" lon="12.255506735761692"><ele>392.0</ele><time>2026-03-29T10:20:44.999Z</time></trkpt><trkpt lat="43.17816148025174" lon="12.255649773075938"><ele>392.0</ele><time>2026-03-29T10:20:45.999Z</time></trkpt><trkpt lat="43.178228283949146" lon="12.255577047124756"><ele>392.0</ele><time>2026-03-29T10:20:46.999Z</time></trkpt><trkpt lat="43.178225158081034" lon="12.255709128000063"><ele>392.0</ele><time>2026-03-29T10:20:47.999Z</time></trkpt><trkpt lat="43.17822253677311" lon="12.255869319318954"><ele>391.40000000000003</ele><time>2026-03-29T10:20:48.999Z</time></trkpt><trkpt lat="43.17819972280519" lon="12.256025850383432"><ele>390.8</ele><time>2026-03-29T10:20:49.999Z</time></trkpt><trkpt lat="43.17815485189123" lon="12.256198897052345"><ele>390.2</ele><time>2026-03-29T10:20:50.999Z</time></trkpt><trkpt lat="43.178142791634215" lon="12.256311832884197"><ele>389.6</ele><time>2026-03-29T10:20:51.999Z</time></trkpt><trkpt lat="43.178172739269975" lon="12.256424173969489"><ele>389.0</ele><time>2026-03-29T10:20:52.999Z</time></trkpt><trkpt lat="43.178217872384245" lon="12.256514033765011"><ele>391.16666666666663</ele><time>2026-03-29T10:20:53.999Z</time></trkpt><trkpt lat="43.178276058245046" lon="12.256556398253428"><ele>393.3333333333333</ele><time>2026-03-29T10:20:54.999Z</time></trkpt><trkpt lat="43.17834557549096" lon="12.256564549823183"><ele>395.5</ele><time>2026-03-29T10:20:55.999Z</time></trkpt><trkpt lat="43.17840084983195" lon="12.256631561628083"><ele>397.66666666666663</ele><time>2026-03-29T10:20:57.999Z</time></trkpt><trkpt lat="43.178476741986834" lon="12.256591995934057"><ele>399.8333333333333</ele><time>2026-03-29T10:20:58.999Z</time></trkpt><trkpt lat="43.17860788482676" lon="12.256496879226935"><ele>402.0</ele><time>2026-03-29T10:20:59.999Z</time></trkpt><trkpt lat="43.17873820963231" lon="12.256455023483612"><ele>402.0</ele><time>2026-03-29T10:21:00.999Z</time></trkpt><trkpt lat="43.178847150710794" lon="12.25642212607137"><ele>402.0</ele><time>2026-03-29T10:21:01.999Z</time></trkpt><trkpt lat="43.1790088928117" lon="12.256519461941783"><ele>402.0</ele><time>2026-03-29T10:21:05.999Z</time></trkpt><trkpt lat="43.178931100755506" lon="12.25660049550888"><ele>402.0</ele><time>2026-03-29T10:21:08.999Z</time></trkpt><trkpt lat="43.178854594279706" lon="12.256655014226604"><ele>402.0</ele><time>2026-03-29T10:21:11.999Z</time></trkpt><trkpt lat="43.1788199553306" lon="12.256787626835342"><ele>402.0</ele><time>2026-03-29T10:21:13.999Z</time></trkpt><trkpt lat="43.17876965220449" lon="12.256864091673298"><ele>402.0</ele><time>2026-03-29T10:21:14.999Z</time></trkpt><trkpt lat="43.178707027057065" lon="12.257015076920919"><ele>402.0</ele><time>2026-03-29T10:21:15.999Z</time></trkpt><trkpt lat="43.17866074181565" lon="12.257103890485828"><ele>402.0</ele><time>2026-03-29T10:21:16.999Z</time></trkpt><trkpt lat="43.178647199065956" lon="12.257197367560181"><ele>403.8</ele><time>2026-03-29T10:21:17.999Z</time></trkpt><trkpt lat="43.17860323551633" lon="12.257304148549244"><ele>405.6</ele><time>2026-03-29T10:21:18.999Z</time></trkpt><trkpt lat="43.17847657276693" lon="12.257355761601739"><ele>407.40000000000003</ele><time>2026-03-29T10:21:19.999Z</time></trkpt><trkpt lat="43.1783915566205" lon="12.257391562646621"><ele>409.20000000000005</ele><time>2026-03-29T10:21:20.999Z</time></trkpt><trkpt lat="43.17834611890024" lon="12.257464846826082"><ele>411.0</ele><time>2026-03-29T10:21:22.999Z</time></trkpt><trkpt lat="43.17828005742745" lon="12.25739941495421"><ele>411.0</ele><time>2026-03-29T10:21:25.999Z</time></trkpt><trkpt lat="43.178212346546616" lon="12.257466012212493"><ele>411.0</ele><time>2026-03-29T10:21:30.999Z</time></trkpt><trkpt lat="43.178243377208595" lon="12.257739431221058"><ele>411.0</ele><time>2026-03-29T10:21:39.999Z</time></trkpt><trkpt lat="43.1782475356401" lon="12.257843004542787"><ele>411.0</ele><time>2026-03-29T10:21:40.999Z</time></trkpt><trkpt lat="43.1782452618397" lon="12.257951674746586"><ele>411.0</ele><time>2026-03-29T10:21:41.999Z</time></trkpt><trkpt lat="43.17820062070361" lon="12.258065236506466"><ele>416.0</ele><time>2026-03-29T10:21:42.999Z</time></trkpt><trkpt lat="43.17816315756643" lon="12.258173707521488"><ele>421.0</ele><time>2026-03-29T10:21:43.999Z</time></trkpt><trkpt lat="43.178124287676" lon="12.258299302258461"><ele>426.0</ele><time>2026-03-29T10:21:44.999Z</time></trkpt><trkpt lat="43.17809999174143" lon="12.258431613339742"><ele>431.0</ele><time>2026-03-29T10:21:45.999Z</time></trkpt><trkpt lat="43.178084524859266" lon="12.258553218969594"><ele>436.0</ele><time>2026-03-29T10:21:46.999Z</time></trkpt><trkpt lat="43.17807534239116" lon="12.258668850165268"><ele>436.00000000000006</ele><time>2026-03-29T10:21:47.999Z</time></trkpt><trkpt lat="43.178041810861515" lon="12.258806108675818"><ele>436.0</ele><time>2026-03-29T10:21:49.999Z</time></trkpt><trkpt lat="43.17801695717739" lon="12.25889537871414"><ele>436.0</ele><time>2026-03-29T10:21:50.999Z</time></trkpt><trkpt lat="43.17797251959091" lon="12.258969776995894"><ele>436.0</ele><time>2026-03-29T10:21:51.999Z</time></trkpt><trkpt lat="43.17794329411945" lon="12.259076655165545"><ele>436.00000000000006</ele><time>2026-03-29T10:21:52.999Z</time></trkpt><trkpt lat="43.17792187204332" lon="12.259193440836349"><ele>436.0</ele><time>2026-03-29T10:21:53.999Z</time></trkpt><trkpt lat="43.17790989880355" lon="12.25932718675679"><ele>435.00000000000006</ele><time>2026-03-29T10:21:55.999Z</time></trkpt><trkpt lat="43.177996511259224" lon="12.259376839077513"><ele>434.0</ele><time>2026-03-29T10:21:58.999Z</time></trkpt><trkpt lat="43.17806406328749" lon="12.259424139760068"><ele>433.0</ele><time>2026-03-29T10:21:59.999Z</time></trkpt><trkpt lat="43.178111390259744" lon="12.259499937773505"><ele>432.0</ele><time>2026-03-29T10:22:01.999Z</time></trkpt><trkpt lat="43.17814988372086" lon="12.25961963489741"><ele>431.00000000000006</ele><time>2026-03-29T10:22:04.999Z</time></trkpt><trkpt lat="43.17819069518845" lon="12.259694613249227"><ele>430.0</ele><time>2026-03-29T10:22:05.999Z</time></trkpt><trkpt lat="43.17820446454346" lon="12.259846846806708"><ele>426.83333333333337</ele><time>2026-03-29T10:22:07.999Z</time></trkpt><trkpt lat="43.178325705596485" lon="12.25988087637196"><ele>423.6666666666667</ele><time>2026-03-29T10:22:08.999Z</time></trkpt><trkpt lat="43.178394834677476" lon="12.2598998711121"><ele>420.5</ele><time>2026-03-29T10:22:09.999Z</time></trkpt><trkpt lat="43.17842951626982" lon="12.26002311766152"><ele>417.33333333333337</ele><time>2026-03-29T10:22:11.999Z</time></trkpt><trkpt lat="43.17848236591619" lon="12.260108068703193"><ele>414.1666666666667</ele><time>2026-03-29T10:22:13.999Z</time></trkpt><trkpt lat="43.17852255655298" lon="12.260196605607495"><ele>411.0</ele><time>2026-03-29T10:22:14.999Z</time></trkpt><trkpt lat="43.17853629336353" lon="12.26029111887635"><ele>411.0</ele><time>2026-03-29T10:22:15.999Z</time></trkpt><trkpt lat="43.17856963733445" lon="12.260378407224662"><ele>411.0</ele><time>2026-03-29T10:22:16.999Z</time></trkpt><trkpt lat="43.17860670318156" lon="12.2604726834135"><ele>411.0</ele><time>2026-03-29T10:22:17.999Z</time></trkpt><trkpt lat="43.17865160322563" lon="12.260562088766504"><ele>411.0</ele><time>2026-03-29T10:22:18.999Z</time></trkpt><trkpt lat="43.1787093363682" lon="12.260600314928867"><ele>411.0</ele><time>2026-03-29T10:22:19.999Z</time></trkpt><trkpt lat="43.17880096952994" lon="12.260555274709947"><ele>411.0</ele><time>2026-03-29T10:22:22.999Z</time></trkpt><trkpt lat="43.178938076830015" lon="12.260532696776647"><ele>411.0</ele><time>2026-03-29T10:22:25.999Z</time></trkpt><trkpt lat="43.17901594483728" lon="12.260516374717628"><ele>411.0</ele><time>2026-03-29T10:22:27.999Z</time></trkpt><trkpt lat="43.179361240522915" lon="12.260573980771145"><ele>411.0</ele><time>2026-03-29T10:22:34.999Z</time></trkpt><trkpt lat="43.1794496971303" lon="12.26063202907716"><ele>412.0</ele><time>2026-03-29T10:22:35.999Z</time></trkpt><trkpt lat="43.179540003110795" lon="12.260627323930446"><ele>413.0</ele><time>2026-03-29T10:22:36.999Z</time></trkpt><trkpt lat="43.179634034720806" lon="12.260600523268103"><ele>414.0</ele><time>2026-03-29T10:22:37.999Z</time></trkpt><trkpt lat="43.17990888729611" lon="12.260571160183122"><ele>414.75</ele><time>2026-03-29T10:22:40.999Z</time></trkpt><trkpt lat="43.180004010252304" lon="12.260570113279893"><ele>415.5</ele><time>2026-03-29T10:22:41.999Z</time></trkpt><trkpt lat="43.18006205886567" lon="12.26060922871474"><ele>416.25</ele><time>2026-03-29T10:22:42.999Z</time></trkpt><trkpt lat="43.18011648905948" lon="12.260726214346272"><ele>417.0</ele><time>2026-03-29T10:22:44.999Z</time></trkpt><trkpt lat="43.18059236623699" lon="12.260949695189922"><ele>417.0</ele><time>2026-03-29T10:22:47.999Z</time></trkpt><trkpt lat="43.180551129145655" lon="12.261025906753469"><ele>417.0</ele><time>2026-03-29T10:22:49.999Z</time></trkpt><trkpt lat="43.18030395240712" lon="12.261095789547946"><ele>417.0</ele><time>2026-03-29T10:22:52.999Z</time></trkpt><trkpt lat="43.180224252646205" lon="12.261175919469997"><ele>417.0</ele><time>2026-03-29T10:22:53.999Z</time></trkpt><trkpt lat="43.180129751995565" lon="12.26123272135515"><ele>417.0</ele><time>2026-03-29T10:22:54.999Z</time></trkpt><trkpt lat="43.180013548609345" lon="12.261293742560353"><ele>417.0</ele><time>2026-03-29T10:22:55.999Z</time></trkpt><trkpt lat="43.17992788608903" lon="12.26134234158161"><ele>417.0</ele><time>2026-03-29T10:22:56.999Z</time></trkpt><trkpt lat="43.179851824913726" lon="12.261389038413675"><ele>417.0</ele><time>2026-03-29T10:22:57.999Z</time></trkpt><trkpt lat="43.17976647115576" lon="12.261455379716953"><ele>417.0</ele><time>2026-03-29T10:22:58.999Z</time></trkpt><trkpt lat="43.17966819353837" lon="12.261511432807922"><ele>422.25</ele><time>2026-03-29T10:22:59.999Z</time></trkpt><trkpt lat="43.179552598852034" lon="12.261596110596443"><ele>427.5</ele><time>2026-03-29T10:23:00.999Z</time></trkpt><trkpt lat="43.179448945737384" lon="12.261670363277965"><ele>432.75</ele><time>2026-03-29T10:23:01.999Z</time></trkpt><trkpt lat="43.17935113540282" lon="12.26172923836957"><ele>438.0</ele><time>2026-03-29T10:23:02.999Z</time></trkpt><trkpt lat="43.179238519976245" lon="12.261827781626247"><ele>438.0</ele><time>2026-03-29T10:23:03.999Z</time></trkpt><trkpt lat="43.179104720231855" lon="12.26193315498763"><ele>438.0</ele><time>2026-03-29T10:23:04.999Z</time></trkpt><trkpt lat="43.178994064760275" lon="12.2620195002533"><ele>438.0</ele><time>2026-03-29T10:23:05.999Z</time></trkpt><trkpt lat="43.17889011387117" lon="12.26211241667811"><ele>438.0</ele><time>2026-03-29T10:23:06.999Z</time></trkpt><trkpt lat="43.17879773078272" lon="12.262187906808649"><ele>438.5</ele><time>2026-03-29T10:23:07.999Z</time></trkpt><trkpt lat="43.1787032753805" lon="12.26223495798625"><ele>439.0</ele><time>2026-03-29T10:23:08.999Z</time></trkpt><trkpt lat="43.1786288087068" lon="12.262252816299949"><ele>439.5</ele><time>2026-03-29T10:23:09.999Z</time></trkpt><trkpt lat="43.17856995958818" lon="12.262284760265747"><ele>440.0</ele><time>2026-03-29T10:23:10.999Z</time></trkpt><trkpt lat="43.17850038206426" lon="12.262342628791558"><ele>440.5</ele><time>2026-03-29T10:23:11.999Z</time></trkpt><trkpt lat="43.17841668085729" lon="12.262322619412043"><ele>441.0</ele><time>2026-03-29T10:23:13.999Z</time></trkpt><trkpt lat="43.17835518243731" lon="12.262301228588141"><ele>441.0</ele><time>2026-03-29T10:23:14.999Z</time></trkpt><trkpt lat="43.17828675180378" lon="12.262300430976756"><ele>441.0</ele><time>2026-03-29T10:23:15.999Z</time></trkpt><trkpt lat="43.178216501078815" lon="12.26228062506992"><ele>441.0</ele><time>2026-03-29T10:23:16.999Z</time></trkpt><trkpt lat="43.17813714792906" lon="12.262289986860683"><ele>441.0</ele><time>2026-03-29T10:23:17.999Z</time></trkpt><trkpt lat="43.1780556845883" lon="12.262278091250568"><ele>441.0</ele><time>2026-03-29T10:23:18.999Z</time></trkpt><trkpt lat="43.17797749916669" lon="12.262285264418006"><ele>441.0</ele><time>2026-03-29T10:23:19.999Z</time></trkpt><trkpt lat="43.17787598359908" lon="12.262280035127212"><ele>443.75</ele><time>2026-03-29T10:23:20.999Z</time></trkpt><trkpt lat="43.17777652204435" lon="12.262220957678016"><ele>446.5</ele><time>2026-03-29T10:23:21.999Z</time></trkpt><trkpt lat="43.17768346843856" lon="12.262160105326943"><ele>449.25</ele><time>2026-03-29T10:23:22.999Z</time></trkpt><trkpt lat="43.17757906385778" lon="12.262070392898664"><ele>452.0</ele><time>2026-03-29T10:23:23.999Z</time></trkpt><trkpt lat="43.17746640003685" lon="12.261979016957161"><ele>453.0</ele><time>2026-03-29T10:23:24.999Z</time></trkpt><trkpt lat="43.177342515229746" lon="12.261893691019859"><ele>454.0</ele><time>2026-03-29T10:23:25.999Z</time></trkpt><trkpt lat="43.17722968237532" lon="12.261835273929892"><ele>455.0</ele><time>2026-03-29T10:23:26.999Z</time></trkpt><trkpt lat="43.17711777519347" lon="12.261784185622801"><ele>456.0</ele><time>2026-03-29T10:23:27.999Z</time></trkpt><trkpt lat="43.17700607677187" lon="12.261752879507206"><ele>456.0</ele><time>2026-03-29T10:23:28.999Z</time></trkpt><trkpt lat="43.17691321343007" lon="12.261734471182614"><ele>456.0</ele><time>2026-03-29T10:23:29.999Z</time></trkpt><trkpt lat="43.17680875031218" lon="12.261710158939284"><ele>456.0</ele><time>2026-03-29T10:23:30.999Z</time></trkpt><trkpt lat="43.176708066459966" lon="12.261688917279182"><ele>456.0</ele><time>2026-03-29T10:23:31.999Z</time></trkpt><trkpt lat="43.176610150101226" lon="12.261654879978186"><ele>456.0</ele><time>2026-03-29T10:23:32.999Z</time></trkpt><trkpt lat="43.176504279748194" lon="12.261597026934412"><ele>455.4</ele><time>2026-03-29T10:23:33.999Z</time></trkpt><trkpt lat="43.176426519782375" lon="12.261521400058639"><ele>454.8</ele><time>2026-03-29T10:23:34.999Z</time></trkpt><trkpt lat="43.176350611824795" lon="12.261422962427202"><ele>454.19999999999993</ele><time>2026-03-29T10:23:35.999Z</time></trkpt><trkpt lat="43.1762600317021" lon="12.261300026085758"><ele>453.59999999999997</ele><time>2026-03-29T10:23:36.999Z</time></trkpt><trkpt lat="43.17618230927997" lon="12.26119725633382"><ele>453.0</ele><time>2026-03-29T10:23:37.999Z</time></trkpt><trkpt lat="43.17610899336286" lon="12.26107821239147"><ele>453.0</ele><time>2026-03-29T10:23:38.999Z</time></trkpt><trkpt lat="43.17603805551041" lon="12.260945274737963"><ele>453.0</ele><time>2026-03-29T10:23:39.999Z</time></trkpt><trkpt lat="43.175980534636935" lon="12.260802777213279"><ele>453.0</ele><time>2026-03-29T10:23:40.999Z</time></trkpt><trkpt lat="43.17593668022944" lon="12.260661517501207"><ele>453.0</ele><time>2026-03-29T10:23:41.999Z</time></trkpt><trkpt lat="43.17598839803111" lon="12.260500795642338"><ele>454.59999999999997</ele><time>2026-03-29T10:23:42.999Z</time></trkpt><trkpt lat="43.17598153307407" lon="12.260373296101037"><ele>456.19999999999993</ele><time>2026-03-29T10:23:43.999Z</time></trkpt><trkpt lat="43.17598926890565" lon="12.260232824513924"><ele>457.8</ele><time>2026-03-29T10:23:44.999Z</time></trkpt><trkpt lat="43.17601937118302" lon="12.2600808898123"><ele>459.4</ele><time>2026-03-29T10:23:45.999Z</time></trkpt><trkpt lat="43.176050100779754" lon="12.259919293190864"><ele>461.0</ele><time>2026-03-29T10:23:46.999Z</time></trkpt><trkpt lat="43.17607034647157" lon="12.259780044975649"><ele>463.25</ele><time>2026-03-29T10:23:47.999Z</time></trkpt><trkpt lat="43.1760915269874" lon="12.259619472194082"><ele>465.5</ele><time>2026-03-29T10:23:48.999Z</time></trkpt><trkpt lat="43.17611555067667" lon="12.259444309277383"><ele>467.75</ele><time>2026-03-29T10:23:49.999Z</time></trkpt><trkpt lat="43.17614494939689" lon="12.259273385177044"><ele>470.0</ele><time>2026-03-29T10:23:50.999Z</time></trkpt><trkpt lat="43.176163322627204" lon="12.259166563492222"><ele>470.0</ele><time>2026-03-29T10:23:51.999Z</time></trkpt><trkpt lat="43.17617331880868" lon="12.259068863884359"><ele>470.0</ele><time>2026-03-29T10:23:52.999Z</time></trkpt><trkpt lat="43.17614104675113" lon="12.258943304592384"><ele>470.0</ele><time>2026-03-29T10:23:53.999Z</time></trkpt><trkpt lat="43.176054361713845" lon="12.258825561912623"><ele>470.0</ele><time>2026-03-29T10:23:54.999Z</time></trkpt><trkpt lat="43.17592839831155" lon="12.25873510194264"><ele>470.0</ele><time>2026-03-29T10:23:55.999Z</time></trkpt><trkpt lat="43.175802451731506" lon="12.25868108488626"><ele>468.25</ele><time>2026-03-29T10:23:56.999Z</time></trkpt><trkpt lat="43.17568719464349" lon="12.25865945174246"><ele>466.5</ele><time>2026-03-29T10:23:57.999Z</time></trkpt><trkpt lat="43.1755533898599" lon="12.25865981615327"><ele>464.75</ele><time>2026-03-29T10:23:58.999Z</time></trkpt><trkpt lat="43.17542794522395" lon="12.258671818412838"><ele>463.0</ele><time>2026-03-29T10:23:59.999Z</time></trkpt><trkpt lat="43.17531221247733" lon="12.258677932671016"><ele>463.0</ele><time>2026-03-29T10:24:00.999Z</time></trkpt><trkpt lat="43.175195873856474" lon="12.258680449716579"><ele>463.0</ele><time>2026-03-29T10:24:01.999Z</time></trkpt><trkpt lat="43.17506705318579" lon="12.258668897390548"><ele>463.0</ele><time>2026-03-29T10:24:02.999Z</time></trkpt><trkpt lat="43.17492464766593" lon="12.258643664816342"><ele>463.0</ele><time>2026-03-29T10:24:03.999Z</time></trkpt><trkpt lat="43.1747802535984" lon="12.258630030942065"><ele>464.25</ele><time>2026-03-29T10:24:04.999Z</time></trkpt><trkpt lat="43.17466401054344" lon="12.258621670999212"><ele>465.5</ele><time>2026-03-29T10:24:05.999Z</time></trkpt><trkpt lat="43.17454647230444" lon="12.258610166921796"><ele>466.75</ele><time>2026-03-29T10:24:06.999Z</time></trkpt><trkpt lat="43.17441708192165" lon="12.25859482384758"><ele>468.0</ele><time>2026-03-29T10:24:07.999Z</time></trkpt><trkpt lat="43.174300088536775" lon="12.258567830583502"><ele>468.0</ele><time>2026-03-29T10:24:08.999Z</time></trkpt><trkpt lat="43.17420385289663" lon="12.258518557177526"><ele>467.99999999999994</ele><time>2026-03-29T10:24:09.999Z</time></trkpt><trkpt lat="43.17411201964972" lon="12.2584651060158"><ele>467.99999999999994</ele><time>2026-03-29T10:24:10.999Z</time></trkpt><trkpt lat="43.174021708501606" lon="12.258410529564985"><ele>468.0</ele><time>2026-03-29T10:24:11.999Z</time></trkpt><trkpt lat="43.17393121762503" lon="12.2583529877263"><ele>468.0</ele><time>2026-03-29T10:24:12.999Z</time></trkpt><trkpt lat="43.1738182736798" lon="12.258280640699759"><ele>468.25</ele><time>2026-03-29T10:24:13.999Z</time></trkpt><trkpt lat="43.17369714934395" lon="12.258196798447514"><ele>468.5</ele><time>2026-03-29T10:24:14.999Z</time></trkpt><trkpt lat="43.173574889356765" lon="12.258088467361112"><ele>468.75</ele><time>2026-03-29T10:24:15.999Z</time></trkpt><trkpt lat="43.173468228038786" lon="12.257959010305434"><ele>469.0</ele><time>2026-03-29T10:24:16.999Z</time></trkpt><trkpt lat="43.17335648406651" lon="12.25780850704046"><ele>469.0</ele><time>2026-03-29T10:24:17.999Z</time></trkpt><trkpt lat="43.173244773860425" lon="12.257663096803721"><ele>469.0</ele><time>2026-03-29T10:24:18.999Z</time></trkpt><trkpt lat="43.17314082474189" lon="12.257528373854845"><ele>469.0</ele><time>2026-03-29T10:24:19.999Z</time></trkpt><trkpt lat="43.17304939321886" lon="12.257386625660434"><ele>469.0</ele><time>2026-03-29T10:24:20.999Z</time></trkpt><trkpt lat="43.17294735952357" lon="12.25723418279754"><ele>468.5</ele><time>2026-03-29T10:24:21.999Z</time></trkpt><trkpt lat="43.17285626391063" lon="12.257106669780377"><ele>468.0</ele><time>2026-03-29T10:24:22.999Z</time></trkpt><trkpt lat="43.172765469996214" lon="12.256997004058428"><ele>467.5</ele><time>2026-03-29T10:24:23.999Z</time></trkpt><trkpt lat="43.17265201629417" lon="12.256903848551024"><ele>467.0</ele><time>2026-03-29T10:24:24.999Z</time></trkpt><trkpt lat="43.17253082534296" lon="12.25686185369551"><ele>467.0</ele><time>2026-03-29T10:24:25.999Z</time></trkpt><trkpt lat="43.17242884916953" lon="12.256817909669072"><ele>467.0</ele><time>2026-03-29T10:24:26.999Z</time></trkpt><trkpt lat="43.172319914923726" lon="12.256762399521357"><ele>467.0</ele><time>2026-03-29T10:24:27.999Z</time></trkpt><trkpt lat="43.172202493623914" lon="12.256675053266685"><ele>467.0</ele><time>2026-03-29T10:24:28.999Z</time></trkpt><trkpt lat="43.172084719223086" lon="12.256602370270699"><ele>467.25</ele><time>2026-03-29T10:24:29.999Z</time></trkpt><trkpt lat="43.171966155211685" lon="12.25654998158831"><ele>467.5</ele><time>2026-03-29T10:24:30.999Z</time></trkpt><trkpt lat="43.1718574414523" lon="12.2565131620772"><ele>467.75</ele><time>2026-03-29T10:24:31.999Z</time></trkpt><trkpt lat="43.17174067490622" lon="12.256490170076631"><ele>468.0</ele><time>2026-03-29T10:24:32.999Z</time></trkpt><trkpt lat="43.17162473621571" lon="12.256474164764281"><ele>466.59999999999997</ele><time>2026-03-29T10:24:33.999Z</time></trkpt><trkpt lat="43.17151849199112" lon="12.256452958668502"><ele>465.19999999999993</ele><time>2026-03-29T10:24:34.999Z</time></trkpt><trkpt lat="43.17142365282366" lon="12.256406859083869"><ele>463.8</ele><time>2026-03-29T10:24:35.999Z</time></trkpt><trkpt lat="43.171362007714286" lon="12.256317216933008"><ele>462.4</ele><time>2026-03-29T10:24:36.999Z</time></trkpt><trkpt lat="43.17130839431116" lon="12.25620514594034"><ele>461.0</ele><time>2026-03-29T10:24:37.999Z</time></trkpt><trkpt lat="43.1712464629685" lon="12.256067486223278"><ele>461.0</ele><time>2026-03-29T10:24:38.999Z</time></trkpt><trkpt lat="43.17118602982781" lon="12.25591994144555"><ele>461.0</ele><time>2026-03-29T10:24:39.999Z</time></trkpt><trkpt lat="43.17112592685434" lon="12.255779709185676"><ele>461.0</ele><time>2026-03-29T10:24:40.999Z</time></trkpt><trkpt lat="43.1710646600953" lon="12.255642824646177"><ele>461.0</ele><time>2026-03-29T10:24:41.999Z</time></trkpt><trkpt lat="43.17100678094821" lon="12.255503709655512"><ele>459.6</ele><time>2026-03-29T10:24:42.999Z</time></trkpt><trkpt lat="43.17095531258688" lon="12.255359246500557"><ele>458.20000000000005</ele><time>2026-03-29T10:24:43.999Z</time></trkpt><trkpt lat="43.17092429166104" lon="12.255224748348061"><ele>456.79999999999995</ele><time>2026-03-29T10:24:44.999Z</time></trkpt><trkpt lat="43.17092228925012" lon="12.25509842222026"><ele>455.4</ele><time>2026-03-29T10:24:45.999Z</time></trkpt><trkpt lat="43.17093962557077" lon="12.254978557369697"><ele>454.0</ele><time>2026-03-29T10:24:46.999Z</time></trkpt><trkpt lat="43.170974114306034" lon="12.254898120636947"><ele>454.00000000000006</ele><time>2026-03-29T10:24:47.999Z</time></trkpt><trkpt lat="43.17103035356712" lon="12.254805615036517"><ele>454.0</ele><time>2026-03-29T10:24:49.999Z</time></trkpt><trkpt lat="43.17109403393972" lon="12.25471826943829"><ele>454.0</ele><time>2026-03-29T10:24:51.999Z</time></trkpt><trkpt lat="43.171182052980235" lon="12.254788151445936"><ele>454.0</ele><time>2026-03-29T10:24:52.999Z</time></trkpt><trkpt lat="43.171259852750715" lon="12.254800677002287"><ele>454.00000000000006</ele><time>2026-03-29T10:24:53.999Z</time></trkpt><trkpt lat="43.171345904766454" lon="12.254809242802914"><ele>454.0</ele><time>2026-03-29T10:24:54.999Z</time></trkpt><trkpt lat="43.1714269267541" lon="12.254801579827403"><ele>454.0</ele><time>2026-03-29T10:24:55.999Z</time></trkpt><trkpt lat="43.17149847868145" lon="12.254824370865459"><ele>454.0</ele><time>2026-03-29T10:24:56.999Z</time></trkpt><trkpt lat="43.171612258543284" lon="12.254850239644659"><ele>454.0</ele><time>2026-03-29T10:24:58.999Z</time></trkpt><trkpt lat="43.17188808098862" lon="12.254901882911291"><ele>454.1666666666667</ele><time>2026-03-29T10:25:03.999Z</time></trkpt><trkpt lat="43.17197079630212" lon="12.25485852929003"><ele>454.33333333333337</ele><time>2026-03-29T10:25:04.999Z</time></trkpt><trkpt lat="43.17205215757731" lon="12.254810533816938"><ele>454.5</ele><time>2026-03-29T10:25:05.999Z</time></trkpt><trkpt lat="43.17211821162358" lon="12.254782283224552"><ele>454.66666666666663</ele><time>2026-03-29T10:25:06.999Z</time></trkpt><trkpt lat="43.17218415847924" lon="12.254760273903297"><ele>454.8333333333333</ele><time>2026-03-29T10:25:07.999Z</time></trkpt><trkpt lat="43.17226565854767" lon="12.25471868072833"><ele>455.0</ele><time>2026-03-29T10:25:08.999Z</time></trkpt><trkpt lat="43.172343113678366" lon="12.254641205980246"><ele>452.16666666666663</ele><time>2026-03-29T10:25:09.999Z</time></trkpt><trkpt lat="43.17240910122096" lon="12.25455428040022"><ele>449.3333333333333</ele><time>2026-03-29T10:25:10.999Z</time></trkpt><trkpt lat="43.172478761403255" lon="12.254499991230738"><ele>446.5</ele><time>2026-03-29T10:25:11.999Z</time></trkpt><trkpt lat="43.17255749271746" lon="12.254447506499274"><ele>443.66666666666663</ele><time>2026-03-29T10:25:12.999Z</time></trkpt><trkpt lat="43.172628018134354" lon="12.25440387648202"><ele>440.8333333333333</ele><time>2026-03-29T10:25:13.999Z</time></trkpt><trkpt lat="43.17269975941205" lon="12.25436652782938"><ele>438.0</ele><time>2026-03-29T10:25:14.999Z</time></trkpt><trkpt lat="43.17276405754226" lon="12.25433107170426"><ele>438.0</ele><time>2026-03-29T10:25:15.999Z</time></trkpt><trkpt lat="43.17281680043098" lon="12.2542829741255"><ele>437.99999999999994</ele><time>2026-03-29T10:25:16.999Z</time></trkpt><trkpt lat="43.17286362618752" lon="12.25419455991876"><ele>437.99999999999994</ele><time>2026-03-29T10:25:17.999Z</time></trkpt><trkpt lat="43.1729192788385" lon="12.254085664378586"><ele>438.0</ele><time>2026-03-29T10:25:19.999Z</time></trkpt><trkpt lat="43.17303420447845" lon="12.254016008064685"><ele>438.0</ele><time>2026-03-29T10:25:21.999Z</time></trkpt><trkpt lat="43.17313726826554" lon="12.253958696756506"><ele>435.79999999999995</ele><time>2026-03-29T10:25:22.999Z</time></trkpt><trkpt lat="43.17323501980865" lon="12.253881580900718"><ele>433.59999999999997</ele><time>2026-03-29T10:25:23.999Z</time></trkpt><trkpt lat="43.17332568645669" lon="12.253810054549328"><ele>431.40000000000003</ele><time>2026-03-29T10:25:24.999Z</time></trkpt><trkpt lat="43.17341211853903" lon="12.25374044128536"><ele>429.20000000000005</ele><time>2026-03-29T10:25:25.999Z</time></trkpt><trkpt lat="43.1735036963206" lon="12.253666242350159"><ele>427.0</ele><time>2026-03-29T10:25:26.999Z</time></trkpt><trkpt lat="43.17360392119926" lon="12.25358383669706"><ele>427.0</ele><time>2026-03-29T10:25:27.999Z</time></trkpt><trkpt lat="43.17369687838432" lon="12.253503635698497"><ele>427.0</ele><time>2026-03-29T10:25:28.999Z</time></trkpt><trkpt lat="43.17380281275888" lon="12.253390664442431"><ele>427.0</ele><time>2026-03-29T10:25:29.999Z</time></trkpt><trkpt lat="43.173871177945315" lon="12.253251494161182"><ele>427.0</ele><time>2026-03-29T10:25:30.999Z</time></trkpt><trkpt lat="43.17393376594655" lon="12.253133933441498"><ele>424.0</ele><time>2026-03-29T10:25:31.999Z</time></trkpt><trkpt lat="43.17400900892594" lon="12.253107755220185"><ele>421.00000000000006</ele><time>2026-03-29T10:25:32.999Z</time></trkpt><trkpt lat="43.17414926286028" lon="12.253058606549597"><ele>418.0</ele><time>2026-03-29T10:25:34.999Z</time></trkpt><trkpt lat="43.17421869397879" lon="12.253024754888372"><ele>415.0</ele><time>2026-03-29T10:25:35.999Z</time></trkpt><trkpt lat="43.1743031258606" lon="12.252979376795071"><ele>412.0</ele><time>2026-03-29T10:25:36.999Z</time></trkpt><trkpt lat="43.17439397486476" lon="12.252917571997315"><ele>412.0</ele><time>2026-03-29T10:25:37.999Z</time></trkpt><trkpt lat="43.17446718660969" lon="12.252826671267817"><ele>412.0</ele><time>2026-03-29T10:25:38.999Z</time></trkpt><trkpt lat="43.17453640967883" lon="12.252720953868938"><ele>412.0</ele><time>2026-03-29T10:25:39.999Z</time></trkpt><trkpt lat="43.17460346334644" lon="12.25262754733908"><ele>412.0</ele><time>2026-03-29T10:25:40.999Z</time></trkpt><trkpt lat="43.17467792302327" lon="12.25254725856796"><ele>412.0</ele><time>2026-03-29T10:25:41.999Z</time></trkpt><trkpt lat="43.17474229985087" lon="12.252504570631443"><ele>412.0</ele><time>2026-03-29T10:25:42.999Z</time></trkpt><trkpt lat="43.17481711436354" lon="12.252449411314895"><ele>412.0</ele><time>2026-03-29T10:25:43.999Z</time></trkpt><trkpt lat="43.17488946129741" lon="12.252396071291205"><ele>412.0</ele><time>2026-03-29T10:25:44.999Z</time></trkpt><trkpt lat="43.17496034960023" lon="12.252343806695814"><ele>412.0</ele><time>2026-03-29T10:25:45.999Z</time></trkpt><trkpt lat="43.17503354802703" lon="12.252289838887027"><ele>412.0</ele><time>2026-03-29T10:25:46.999Z</time></trkpt><trkpt lat="43.17503234965936" lon="12.252049639438317"><ele>409.85714285714283</ele><time>2026-03-29T10:25:47.999Z</time></trkpt><trkpt lat="43.1751040810014" lon="12.251996687570346"><ele>407.7142857142857</ele><time>2026-03-29T10:25:48.999Z</time></trkpt><trkpt lat="43.17517658551144" lon="12.251973705016711"><ele>405.57142857142856</ele><time>2026-03-29T10:25:49.999Z</time></trkpt><trkpt lat="43.17524003499999" lon="12.251964706758441"><ele>403.42857142857144</ele><time>2026-03-29T10:25:50.999Z</time></trkpt><trkpt lat="43.17531354148403" lon="12.251941728018203"><ele>401.2857142857143</ele><time>2026-03-29T10:25:51.999Z</time></trkpt><trkpt lat="43.17539019298971" lon="12.251916476165242"><ele>399.1428571428571</ele><time>2026-03-29T10:25:52.999Z</time></trkpt><trkpt lat="43.17545962516585" lon="12.251914462213193"><ele>397.0</ele><time>2026-03-29T10:25:53.999Z</time></trkpt><trkpt lat="43.17553330688955" lon="12.251951080647018"><ele>397.0</ele><time>2026-03-29T10:25:54.999Z</time></trkpt><trkpt lat="43.17565719325946" lon="12.251978631293738"><ele>397.0</ele><time>2026-03-29T10:25:57Z</time></trkpt><trkpt lat="43.17573191534508" lon="12.251969627238324"><ele>397.0</ele><time>2026-03-29T10:25:58Z</time></trkpt><trkpt lat="43.175769150575626" lon="12.251831857458493"><ele>397.0</ele><time>2026-03-29T10:26:00Z</time></trkpt><trkpt lat="43.17567107472008" lon="12.25168206502226"><ele>397.0</ele><time>2026-03-29T10:26:02Z</time></trkpt><trkpt lat="43.175588285331806" lon="12.251605276414427"><ele>397.0</ele><time>2026-03-29T10:26:03Z</time></trkpt><trkpt lat="43.17553077249398" lon="12.251500314642536"><ele>397.0</ele><time>2026-03-29T10:26:04Z</time></trkpt><trkpt lat="43.175492640330496" lon="12.25139674303731"><ele>397.0</ele><time>2026-03-29T10:26:05Z</time></trkpt><trkpt lat="43.175442966024214" lon="12.251301129386354"><ele>397.0</ele><time>2026-03-29T10:26:07Z</time></trkpt><trkpt lat="43.17534698659327" lon="12.251225710936898"><ele>393.7142857142857</ele><time>2026-03-29T10:26:09Z</time></trkpt><trkpt lat="43.17533156643913" lon="12.25114023822608"><ele>390.42857142857144</ele><time>2026-03-29T10:26:10Z</time></trkpt><trkpt lat="43.17534243568816" lon="12.25105153440024"><ele>387.1428571428571</ele><time>2026-03-29T10:26:11Z</time></trkpt><trkpt lat="43.17539785967547" lon="12.250998942104923"><ele>383.8571428571429</ele><time>2026-03-29T10:26:12Z</time></trkpt><trkpt lat="43.1754754360062" lon="12.250949517883098"><ele>380.5714285714286</ele><time>2026-03-29T10:26:13Z</time></trkpt><trkpt lat="43.17556035330162" lon="12.250899476068856"><ele>377.2857142857143</ele><time>2026-03-29T10:26:14Z</time></trkpt><trkpt lat="43.17562779270926" lon="12.25087724199485"><ele>374.0</ele><time>2026-03-29T10:26:15Z</time></trkpt><trkpt lat="43.17573980871748" lon="12.250806082702981"><ele>374.0</ele><time>2026-03-29T10:26:17Z</time></trkpt><trkpt lat="43.17581383462596" lon="12.250780697125242"><ele>374.0</ele><time>2026-03-29T10:26:18Z</time></trkpt><trkpt lat="43.175872718823655" lon="12.250749981296092"><ele>374.0</ele><time>2026-03-29T10:26:19Z</time></trkpt><trkpt lat="43.1759302608221" lon="12.250711518874915"><ele>374.0</ele><time>2026-03-29T10:26:20Z</time></trkpt><trkpt lat="43.17604029773019" lon="12.25068555853111"><ele>374.0</ele><time>2026-03-29T10:26:22Z</time></trkpt><trkpt lat="43.176107831859134" lon="12.250680497389945"><ele>374.0</ele><time>2026-03-29T10:26:23Z</time></trkpt><trkpt lat="43.17617208873559" lon="12.250684322868684"><ele>374.0</ele><time>2026-03-29T10:26:24Z</time></trkpt><trkpt lat="43.17628417101939" lon="12.250729046252392"><ele>374.0</ele><time>2026-03-29T10:26:26Z</time></trkpt><trkpt lat="43.176360862326355" lon="12.250649036740462"><ele>374.0</ele><time>2026-03-29T10:26:28Z</time></trkpt><trkpt lat="43.17640267069767" lon="12.250500364095245"><ele>374.0</ele><time>2026-03-29T10:26:30Z</time></trkpt><trkpt lat="43.176404356187554" lon="12.250402539888814"><ele>374.0</ele><time>2026-03-29T10:26:31Z</time></trkpt><trkpt lat="43.17640621729565" lon="12.25028604602768"><ele>374.0</ele><time>2026-03-29T10:26:32Z</time></trkpt><trkpt lat="43.176422370771064" lon="12.250172459704782"><ele>370.2</ele><time>2026-03-29T10:26:33Z</time></trkpt><trkpt lat="43.17643944370036" lon="12.250041796242138"><ele>366.4</ele><time>2026-03-29T10:26:34Z</time></trkpt><trkpt lat="43.17645334406966" lon="12.249954883210552"><ele>362.6</ele><time>2026-03-29T10:26:35Z</time></trkpt><trkpt lat="43.17646011925084" lon="12.249782509039639"><ele>358.8</ele><time>2026-03-29T10:26:37Z</time></trkpt><trkpt lat="43.17646784113397" lon="12.249672376625567"><ele>355.0</ele><time>2026-03-29T10:26:38Z</time></trkpt><trkpt lat="43.17645698783382" lon="12.249545954404955"><ele>352.0</ele><time>2026-03-29T10:26:39Z</time></trkpt><trkpt lat="43.17645242878415" lon="12.249420716309336"><ele>349.0</ele><time>2026-03-29T10:26:40Z</time></trkpt><trkpt lat="43.17645652660417" lon="12.249299757169233"><ele>346.0</ele><time>2026-03-29T10:26:41Z</time></trkpt><trkpt lat="43.176438273638574" lon="12.249187024405334"><ele>343.0</ele><time>2026-03-29T10:26:42Z</time></trkpt><trkpt lat="43.17641596730854" lon="12.249096400835507"><ele>340.0</ele><time>2026-03-29T10:26:43Z</time></trkpt><trkpt lat="43.17643478201454" lon="12.248982498964903"><ele>337.0</ele><time>2026-03-29T10:26:44Z</time></trkpt><trkpt lat="43.1764371669037" lon="12.248860157036841"><ele>335.66666666666663</ele><time>2026-03-29T10:26:45Z</time></trkpt><trkpt lat="43.17643531697694" lon="12.248740746419475"><ele>334.3333333333333</ele><time>2026-03-29T10:26:46Z</time></trkpt><trkpt lat="43.17644589930201" lon="12.248636786032302"><ele>333.0</ele><time>2026-03-29T10:26:47Z</time></trkpt><trkpt lat="43.176451367603555" lon="12.248544282154862"><ele>331.6666666666667</ele><time>2026-03-29T10:26:48Z</time></trkpt><trkpt lat="43.17645064637699" lon="12.248439080621681"><ele>330.33333333333337</ele><time>2026-03-29T10:26:49Z</time></trkpt><trkpt lat="43.17645046211527" lon="12.248335224695406"><ele>329.0</ele><time>2026-03-29T10:26:50Z</time></trkpt><trkpt lat="43.17643501263212" lon="12.24820541867673"><ele>327.5</ele><time>2026-03-29T10:26:51Z</time></trkpt><trkpt lat="43.176430802661194" lon="12.248092870509227"><ele>326.0</ele><time>2026-03-29T10:26:52Z</time></trkpt><trkpt lat="43.17643057765565" lon="12.247994182478942"><ele>324.5</ele><time>2026-03-29T10:26:53Z</time></trkpt><trkpt lat="43.17643168224223" lon="12.247892481081669"><ele>323.0</ele><time>2026-03-29T10:26:54Z</time></trkpt><trkpt lat="43.17643089027676" lon="12.247781105625664"><ele>321.5</ele><time>2026-03-29T10:26:55Z</time></trkpt><trkpt lat="43.17641736269509" lon="12.247665856251261"><ele>320.0</ele><time>2026-03-29T10:26:56Z</time></trkpt><trkpt lat="43.17639249386428" lon="12.247576122258153"><ele>320.0</ele><time>2026-03-29T10:26:57Z</time></trkpt><trkpt lat="43.1764256207384" lon="12.247438418664965"><ele>320.0</ele><time>2026-03-29T10:26:59Z</time></trkpt><trkpt lat="43.17646988169602" lon="12.247361449226606"><ele>320.0</ele><time>2026-03-29T10:27:00Z</time></trkpt><trkpt lat="43.17653375377507" lon="12.247280693361681"><ele>320.0</ele><time>2026-03-29T10:27:02Z</time></trkpt><trkpt lat="43.17655341358623" lon="12.247134420986198"><ele>320.0</ele><time>2026-03-29T10:27:04Z</time></trkpt><trkpt lat="43.176478689883375" lon="12.247122109212613"><ele>320.0</ele><time>2026-03-29T10:27:06Z</time></trkpt><trkpt lat="43.17640401998897" lon="12.247134596723907"><ele>320.0</ele><time>2026-03-29T10:27:09Z</time></trkpt><trkpt lat="43.17638505131812" lon="12.247225178367266"><ele>320.0</ele><time>2026-03-29T10:27:11Z</time></trkpt><trkpt lat="43.17636779634877" lon="12.247316390002535"><ele>320.0</ele><time>2026-03-29T10:27:12Z</time></trkpt><trkpt lat="43.17632278722288" lon="12.247409094323384"><ele>320.0</ele><time>2026-03-29T10:27:13Z</time></trkpt><trkpt lat="43.17626738712406" lon="12.247509448294828"><ele>320.0</ele><time>2026-03-29T10:27:14Z</time></trkpt><trkpt lat="43.17623415591065" lon="12.24761384157192"><ele>320.0</ele><time>2026-03-29T10:27:15Z</time></trkpt><trkpt lat="43.1761972261861" lon="12.247695707357037"><ele>320.0</ele><time>2026-03-29T10:27:16Z</time></trkpt><trkpt lat="43.17617165681317" lon="12.247780355388489"><ele>320.0</ele><time>2026-03-29T10:27:17Z</time></trkpt><trkpt lat="43.17612858353834" lon="12.24787952587206"><ele>320.0</ele><time>2026-03-29T10:27:18Z</time></trkpt><trkpt lat="43.17608632796357" lon="12.24796971474597"><ele>320.0</ele><time>2026-03-29T10:27:19Z</time></trkpt><trkpt lat="43.17604306165701" lon="12.248047533801719"><ele>320.0</ele><time>2026-03-29T10:27:20Z</time></trkpt><trkpt lat="43.17599093014589" lon="12.248136047715587"><ele>320.0</ele><time>2026-03-29T10:27:21Z</time></trkpt><trkpt lat="43.1759519386879" lon="12.248262734379272"><ele>320.0</ele><time>2026-03-29T10:27:23Z</time></trkpt><trkpt lat="43.17588560372316" lon="12.24830401016471"><ele>320.0</ele><time>2026-03-29T10:27:25Z</time></trkpt><trkpt lat="43.17587719351982" lon="12.24818392335129"><ele>320.0</ele><time>2026-03-29T10:27:27.999Z</time></trkpt><trkpt lat="43.175866380642454" lon="12.248068293651464"><ele>320.0</ele><time>2026-03-29T10:27:30.999Z</time></trkpt><trkpt lat="43.17585201106809" lon="12.247948263987512"><ele>320.0</ele><time>2026-03-29T10:27:33.999Z</time></trkpt><trkpt lat="43.175792868196886" lon="12.247986882850316"><ele>320.0</ele><time>2026-03-29T10:27:35.999Z</time></trkpt><trkpt lat="43.17577397349824" lon="12.247839878244285"><ele>320.0</ele><time>2026-03-29T10:27:36.999Z</time></trkpt><trkpt lat="43.17577340495699" lon="12.24772078315375"><ele>320.0</ele><time>2026-03-29T10:27:37.999Z</time></trkpt><trkpt lat="43.17578368435172" lon="12.247589432869903"><ele>320.0</ele><time>2026-03-29T10:27:38.999Z</time></trkpt><trkpt lat="43.17579058375802" lon="12.247403734522306"><ele>320.0</ele><time>2026-03-29T10:27:39.999Z</time></trkpt><trkpt lat="43.17583434185077" lon="12.247258106673918"><ele>320.0</ele><time>2026-03-29T10:27:40.999Z</time></trkpt><trkpt lat="43.17586631324173" lon="12.247134228953955"><ele>318.0</ele><time>2026-03-29T10:27:41.999Z</time></trkpt><trkpt lat="43.17588983031182" lon="12.247014473526834"><ele>316.0</ele><time>2026-03-29T10:27:42.999Z</time></trkpt><trkpt lat="43.17591174477267" lon="12.24688409284599"><ele>314.0</ele><time>2026-03-29T10:27:43.999Z</time></trkpt><trkpt lat="43.17595003699292" lon="12.246770546504559"><ele>312.0</ele><time>2026-03-29T10:27:44.999Z</time></trkpt><trkpt lat="43.17598334294357" lon="12.246642678306305"><ele>310.0</ele><time>2026-03-29T10:27:45.999Z</time></trkpt><trkpt lat="43.17602075114623" lon="12.246520653049428"><ele>308.4</ele><time>2026-03-29T10:27:46.999Z</time></trkpt><trkpt lat="43.17604452189062" lon="12.246345848648053"><ele>306.8</ele><time>2026-03-29T10:27:48.999Z</time></trkpt><trkpt lat="43.1760439437365" lon="12.246231140945367"><ele>305.2</ele><time>2026-03-29T10:27:49.999Z</time></trkpt><trkpt lat="43.17606244003981" lon="12.246138195420178"><ele>303.6</ele><time>2026-03-29T10:27:50.999Z</time></trkpt><trkpt lat="43.17611125111876" lon="12.246055325586099"><ele>302.0</ele><time>2026-03-29T10:27:51.999Z</time></trkpt><trkpt lat="43.1761643282638" lon="12.245934923800235"><ele>303.5</ele><time>2026-03-29T10:27:52.999Z</time></trkpt><trkpt lat="43.176303165089955" lon="12.245483767872397"><ele>305.0</ele><time>2026-03-29T10:27:53.999Z</time></trkpt><trkpt lat="43.17637371788803" lon="12.245379685447919"><ele>305.0</ele><time>2026-03-29T10:27:54.999Z</time></trkpt><trkpt lat="43.17645035195375" lon="12.245280719242398"><ele>305.0</ele><time>2026-03-29T10:27:55.999Z</time></trkpt><trkpt lat="43.17652752211743" lon="12.24517826946844"><ele>305.0</ele><time>2026-03-29T10:27:56.999Z</time></trkpt><trkpt lat="43.17666704020701" lon="12.24512068409516"><ele>305.0</ele><time>2026-03-29T10:27:57.999Z</time></trkpt><trkpt lat="43.176742121477545" lon="12.2449903943956"><ele>302.6</ele><time>2026-03-29T10:27:58.999Z</time></trkpt><trkpt lat="43.17680957318105" lon="12.24488126506141"><ele>300.2</ele><time>2026-03-29T10:27:59.999Z</time></trkpt><trkpt lat="43.176859270203316" lon="12.244770784343501"><ele>297.8</ele><time>2026-03-29T10:28:00.999Z</time></trkpt><trkpt lat="43.176878065607205" lon="12.244639302871768"><ele>295.4</ele><time>2026-03-29T10:28:02Z</time></trkpt><trkpt lat="43.176872251958585" lon="12.244469027503063"><ele>293.0</ele><time>2026-03-29T10:28:03Z</time></trkpt><trkpt lat="43.176799783829985" lon="12.244239842148106"><ele>292.4</ele><time>2026-03-29T10:28:04Z</time></trkpt><trkpt lat="43.17669376395735" lon="12.244079616221356"><ele>291.8</ele><time>2026-03-29T10:28:05Z</time></trkpt><trkpt lat="43.17667521053253" lon="12.243939605547872"><ele>291.2</ele><time>2026-03-29T10:28:06Z</time></trkpt><trkpt lat="43.17670649557797" lon="12.243827496659984"><ele>290.6</ele><time>2026-03-29T10:28:07Z</time></trkpt><trkpt lat="43.176736100307444" lon="12.243749736445029"><ele>290.0</ele><time>2026-03-29T10:28:08Z</time></trkpt><trkpt lat="43.17674816660124" lon="12.243625210954228"><ele>289.75</ele><time>2026-03-29T10:28:09Z</time></trkpt><trkpt lat="43.17668440504731" lon="12.243466934963424"><ele>289.5</ele><time>2026-03-29T10:28:10Z</time></trkpt><trkpt lat="43.17658207956344" lon="12.243337525881303"><ele>289.25</ele><time>2026-03-29T10:28:11Z</time></trkpt><trkpt lat="43.17647425938477" lon="12.243255266776343"><ele>289.0</ele><time>2026-03-29T10:28:12Z</time></trkpt><trkpt lat="43.1763460617487" lon="12.243165179430006"><ele>288.5</ele><time>2026-03-29T10:28:13Z</time></trkpt><trkpt lat="43.17625973442675" lon="12.243041966462936"><ele>288.0</ele><time>2026-03-29T10:28:14Z</time></trkpt><trkpt lat="43.17621524733024" lon="12.24291498195946"><ele>287.5</ele><time>2026-03-29T10:28:15Z</time></trkpt><trkpt lat="43.17621011775357" lon="12.242769390992017"><ele>287.0</ele><time>2026-03-29T10:28:16Z</time></trkpt><trkpt lat="43.176210209058574" lon="12.242605782422247"><ele>287.0</ele><time>2026-03-29T10:28:17Z</time></trkpt><trkpt lat="43.17618954017395" lon="12.24239883473197"><ele>287.0</ele><time>2026-03-29T10:28:18Z</time></trkpt><trkpt lat="43.17610486135405" lon="12.242192282820007"><ele>287.0</ele><time>2026-03-29T10:28:19Z</time></trkpt><trkpt lat="43.176024886598675" lon="12.241993614814687"><ele>286.6666666666667</ele><time>2026-03-29T10:28:20Z</time></trkpt><trkpt lat="43.17594481474684" lon="12.241784845215994"><ele>286.3333333333333</ele><time>2026-03-29T10:28:21Z</time></trkpt><trkpt lat="43.17586981779012" lon="12.241555444842993"><ele>286.0</ele><time>2026-03-29T10:28:22Z</time></trkpt><trkpt lat="43.175805773996196" lon="12.241343113178477"><ele>286.3333333333333</ele><time>2026-03-29T10:28:23Z</time></trkpt><trkpt lat="43.175747234429025" lon="12.241142483654423"><ele>286.6666666666667</ele><time>2026-03-29T10:28:24Z</time></trkpt><trkpt lat="43.175693089681594" lon="12.240956010404776"><ele>287.0</ele><time>2026-03-29T10:28:25Z</time></trkpt><trkpt lat="43.17563724418179" lon="12.240762379151446"><ele>286.0</ele><time>2026-03-29T10:28:26Z</time></trkpt><trkpt lat="43.17557855942061" lon="12.240552439061949"><ele>285.0</ele><time>2026-03-29T10:28:27Z</time></trkpt><trkpt lat="43.175520928602026" lon="12.240335880181515"><ele>284.0</ele><time>2026-03-29T10:28:28Z</time></trkpt><trkpt lat="43.175476745835425" lon="12.240118351019825"><ele>284.0</ele><time>2026-03-29T10:28:29Z</time></trkpt><trkpt lat="43.17544588201398" lon="12.239877805519908"><ele>284.0</ele><time>2026-03-29T10:28:30Z</time></trkpt><trkpt lat="43.17541781948267" lon="12.239640275344778"><ele>284.0</ele><time>2026-03-29T10:28:31Z</time></trkpt><trkpt lat="43.17539153332527" lon="12.239418357114307"><ele>283.6666666666667</ele><time>2026-03-29T10:28:32Z</time></trkpt><trkpt lat="43.17534469803823" lon="12.239197643333902"><ele>283.3333333333333</ele><time>2026-03-29T10:28:33Z</time></trkpt><trkpt lat="43.17528434288857" lon="12.238981345291183"><ele>283.0</ele><time>2026-03-29T10:28:34Z</time></trkpt><trkpt lat="43.17521909733173" lon="12.23876257667204"><ele>282.66666666666663</ele><time>2026-03-29T10:28:35Z</time></trkpt><trkpt lat="43.175157669861285" lon="12.23854531461076"><ele>282.3333333333333</ele><time>2026-03-29T10:28:36Z</time></trkpt><trkpt lat="43.175085852344175" lon="12.238329833456815"><ele>282.0</ele><time>2026-03-29T10:28:37Z</time></trkpt><trkpt lat="43.17504551132766" lon="12.238116266966705"><ele>283.3333333333333</ele><time>2026-03-29T10:28:38Z</time></trkpt><trkpt lat="43.17503043995663" lon="12.2379101894586"><ele>284.66666666666663</ele><time>2026-03-29T10:28:39Z</time></trkpt><trkpt lat="43.175027212901675" lon="12.237679782566055"><ele>286.0</ele><time>2026-03-29T10:28:40Z</time></trkpt><trkpt lat="43.174998717976806" lon="12.237453561770458"><ele>287.66666666666663</ele><time>2026-03-29T10:28:41Z</time></trkpt><trkpt lat="43.174947787878196" lon="12.237237716727183"><ele>289.3333333333333</ele><time>2026-03-29T10:28:42Z</time></trkpt><trkpt lat="43.17488209033161" lon="12.237032078762446"><ele>291.0</ele><time>2026-03-29T10:28:43Z</time></trkpt><trkpt lat="43.17479753948416" lon="12.23685087838502"><ele>289.8</ele><time>2026-03-29T10:28:44Z</time></trkpt><trkpt lat="43.17472189141496" lon="12.23669721675794"><ele>288.6</ele><time>2026-03-29T10:28:45Z</time></trkpt><trkpt lat="43.17464488830136" lon="12.236552879113457"><ele>287.4</ele><time>2026-03-29T10:28:46Z</time></trkpt><trkpt lat="43.174568957511816" lon="12.236450075840818"><ele>286.2</ele><time>2026-03-29T10:28:47Z</time></trkpt><trkpt lat="43.174513500736346" lon="12.236377850577295"><ele>285.0</ele><time>2026-03-29T10:28:48Z</time></trkpt><trkpt lat="43.17445443702919" lon="12.236306039837368"><ele>284.0</ele><time>2026-03-29T10:28:50Z</time></trkpt><trkpt lat="43.17433500243958" lon="12.236475750419814"><ele>283.0</ele><time>2026-03-29T10:28:51Z</time></trkpt><trkpt lat="43.17425495101078" lon="12.236532735796445"><ele>282.0</ele><time>2026-03-29T10:28:52Z</time></trkpt><trkpt lat="43.17416291120495" lon="12.236624877343115"><ele>281.0</ele><time>2026-03-29T10:28:53Z</time></trkpt><trkpt lat="43.17407606641175" lon="12.23672650565767"><ele>280.25</ele><time>2026-03-29T10:28:54Z</time></trkpt><trkpt lat="43.173971219413204" lon="12.236831465254433"><ele>279.5</ele><time>2026-03-29T10:28:55Z</time></trkpt><trkpt lat="43.17385535162753" lon="12.236899390134202"><ele>278.75</ele><time>2026-03-29T10:28:56Z</time></trkpt><trkpt lat="43.17373695811006" lon="12.236991345922968"><ele>278.0</ele><time>2026-03-29T10:28:57Z</time></trkpt><trkpt lat="43.17363666269009" lon="12.23708893670859"><ele>278.0</ele><time>2026-03-29T10:28:58Z</time></trkpt><trkpt lat="43.17357290341899" lon="12.23714889359357"><ele>278.0</ele><time>2026-03-29T10:28:59Z</time></trkpt><trkpt lat="43.17351625819449" lon="12.237237308604861"><ele>278.0</ele><time>2026-03-29T10:29:01Z</time></trkpt><trkpt lat="43.17350383702519" lon="12.237352896662074"><ele>278.0</ele><time>2026-03-29T10:29:02Z</time></trkpt><trkpt lat="43.173478282584824" lon="12.237458622501705"><ele>278.0</ele><time>2026-03-29T10:29:03Z</time></trkpt><trkpt lat="43.17356389472647" lon="12.237588454536642"><ele>277.75</ele><time>2026-03-29T10:29:04Z</time></trkpt><trkpt lat="43.17355105098144" lon="12.237683627023609"><ele>277.5</ele><time>2026-03-29T10:29:07Z</time></trkpt><trkpt lat="43.17342100537258" lon="12.237740032740852"><ele>277.25</ele><time>2026-03-29T10:29:08.001Z</time></trkpt><trkpt lat="43.173311561361956" lon="12.237784692252555"><ele>277.0</ele><time>2026-03-29T10:29:09.001Z</time></trkpt><trkpt lat="43.17319034228458" lon="12.237856285197756"><ele>276.6</ele><time>2026-03-29T10:29:10.001Z</time></trkpt><trkpt lat="43.173073757462966" lon="12.237906895565894"><ele>276.2</ele><time>2026-03-29T10:29:11.001Z</time></trkpt><trkpt lat="43.17296743881945" lon="12.237943068388658"><ele>275.8</ele><time>2026-03-29T10:29:12.001Z</time></trkpt><trkpt lat="43.17287886724239" lon="12.23797822276904"><ele>275.4</ele><time>2026-03-29T10:29:13.001Z</time></trkpt><trkpt lat="43.17281074822465" lon="12.238066557651127"><ele>275.0</ele><time>2026-03-29T10:29:14.001Z</time></trkpt><trkpt lat="43.17276840062603" lon="12.238170923820228"><ele>276.25</ele><time>2026-03-29T10:29:15.001Z</time></trkpt><trkpt lat="43.17269987870702" lon="12.238278369719946"><ele>277.5</ele><time>2026-03-29T10:29:16.001Z</time></trkpt><trkpt lat="43.17263169623673" lon="12.238385283330686"><ele>278.75</ele><time>2026-03-29T10:29:17.001Z</time></trkpt><trkpt lat="43.17254534461494" lon="12.23850658923769"><ele>280.0</ele><time>2026-03-29T10:29:18.001Z</time></trkpt><trkpt lat="43.17243304991087" lon="12.238571661896746"><ele>280.0</ele><time>2026-03-29T10:29:19.001Z</time></trkpt><trkpt lat="43.17235800972867" lon="12.238644813551913"><ele>280.0</ele><time>2026-03-29T10:29:20.001Z</time></trkpt><trkpt lat="43.172300307935984" lon="12.238716395376919"><ele>280.0</ele><time>2026-03-29T10:29:21.001Z</time></trkpt><trkpt lat="43.17224368601745" lon="12.238782331189862"><ele>280.0</ele><time>2026-03-29T10:29:22.001Z</time></trkpt><trkpt lat="43.172221192780114" lon="12.238863711126632"><ele>280.0</ele><time>2026-03-29T10:29:23.001Z</time></trkpt><trkpt lat="43.17220402494951" lon="12.238983060252867"><ele>280.0</ele><time>2026-03-29T10:29:24.001Z</time></trkpt><trkpt lat="43.17218890399768" lon="12.239101046788509"><ele>281.66666666666663</ele><time>2026-03-29T10:29:25.001Z</time></trkpt><trkpt lat="43.17214000575195" lon="12.23922807672554"><ele>283.3333333333333</ele><time>2026-03-29T10:29:26.001Z</time></trkpt><trkpt lat="43.17210156694155" lon="12.23933854837124"><ele>285.0</ele><time>2026-03-29T10:29:27.001Z</time></trkpt><trkpt lat="43.17203040423199" lon="12.239430827929151"><ele>286.6666666666667</ele><time>2026-03-29T10:29:28Z</time></trkpt><trkpt lat="43.17197898769684" lon="12.239510853342844"><ele>288.33333333333337</ele><time>2026-03-29T10:29:29Z</time></trkpt><trkpt lat="43.17194584454006" lon="12.239590050844079"><ele>290.0</ele><time>2026-03-29T10:29:30Z</time></trkpt><trkpt lat="43.17191749645253" lon="12.239670886827684"><ele>290.0</ele><time>2026-03-29T10:29:31Z</time></trkpt><trkpt lat="43.17186825525335" lon="12.239773736260927"><ele>290.0</ele><time>2026-03-29T10:29:32Z</time></trkpt><trkpt lat="43.17180874342434" lon="12.239877587511259"><ele>290.0</ele><time>2026-03-29T10:29:33Z</time></trkpt><trkpt lat="43.17172904334166" lon="12.23996335191031"><ele>290.0</ele><time>2026-03-29T10:29:34Z</time></trkpt><trkpt lat="43.1716329866849" lon="12.240042234492485"><ele>290.0</ele><time>2026-03-29T10:29:35Z</time></trkpt><trkpt lat="43.17154374605071" lon="12.240117134781762"><ele>290.6666666666667</ele><time>2026-03-29T10:29:36Z</time></trkpt><trkpt lat="43.17147774968215" lon="12.240178424028688"><ele>291.33333333333337</ele><time>2026-03-29T10:29:37Z</time></trkpt><trkpt lat="43.1714463487128" lon="12.240267588937687"><ele>292.0</ele><time>2026-03-29T10:29:38Z</time></trkpt><trkpt lat="43.17144026114006" lon="12.2403798295335"><ele>292.6666666666667</ele><time>2026-03-29T10:29:39Z</time></trkpt><trkpt lat="43.17146878789723" lon="12.240486720139113"><ele>293.3333333333333</ele><time>2026-03-29T10:29:40Z</time></trkpt><trkpt lat="43.17154475513427" lon="12.240617653441467"><ele>294.0</ele><time>2026-03-29T10:29:42Z</time></trkpt><trkpt lat="43.17160555389221" lon="12.240718498557587"><ele>296.4</ele><time>2026-03-29T10:29:43Z</time></trkpt><trkpt lat="43.171683588354774" lon="12.24084111236164"><ele>298.79999999999995</ele><time>2026-03-29T10:29:44Z</time></trkpt><trkpt lat="43.17173263805532" lon="12.24094419039552"><ele>301.20000000000005</ele><time>2026-03-29T10:29:45Z</time></trkpt><trkpt lat="43.171789552553" lon="12.241049918888347"><ele>303.6</ele><time>2026-03-29T10:29:46Z</time></trkpt><trkpt lat="43.17185398573277" lon="12.241149324874938"><ele>306.0</ele><time>2026-03-29T10:29:47Z</time></trkpt><trkpt lat="43.17195402752197" lon="12.241259037019868"><ele>306.0</ele><time>2026-03-29T10:29:48Z</time></trkpt><trkpt lat="43.17201955474167" lon="12.241349489445666"><ele>306.0</ele><time>2026-03-29T10:29:49Z</time></trkpt><trkpt lat="43.17205579640948" lon="12.241435131674729"><ele>306.0</ele><time>2026-03-29T10:29:50Z</time></trkpt><trkpt lat="43.17208578195404" lon="12.241559866468863"><ele>306.0</ele><time>2026-03-29T10:29:51Z</time></trkpt><trkpt lat="43.172070363513185" lon="12.241657612126623"><ele>306.0</ele><time>2026-03-29T10:29:52Z</time></trkpt><trkpt lat="43.17204709106768" lon="12.241747444029505"><ele>306.0</ele><time>2026-03-29T10:29:53Z</time></trkpt><trkpt lat="43.17200938948653" lon="12.2418383880407"><ele>308.6</ele><time>2026-03-29T10:29:54Z</time></trkpt><trkpt lat="43.17197992242939" lon="12.241935766977855"><ele>311.20000000000005</ele><time>2026-03-29T10:29:55Z</time></trkpt><trkpt lat="43.17196629989892" lon="12.242084124905432"><ele>313.79999999999995</ele><time>2026-03-29T10:29:56Z</time></trkpt><trkpt lat="43.171942944027094" lon="12.242219454245948"><ele>316.4</ele><time>2026-03-29T10:29:57Z</time></trkpt><trkpt lat="43.171930594416" lon="12.242339962253215"><ele>319.0</ele><time>2026-03-29T10:29:58Z</time></trkpt><trkpt lat="43.1718665459917" lon="12.242492816215483"><ele>321.5</ele><time>2026-03-29T10:30:00Z</time></trkpt><trkpt lat="43.17183326277189" lon="12.242570451826197"><ele>324.0</ele><time>2026-03-29T10:30:01Z</time></trkpt><trkpt lat="43.17173747868372" lon="12.242665711815768"><ele>326.5</ele><time>2026-03-29T10:30:03Z</time></trkpt><trkpt lat="43.1716862840851" lon="12.242779653285272"><ele>329.0</ele><time>2026-03-29T10:30:05Z</time></trkpt><trkpt lat="43.17165043576256" lon="12.242865939682346"><ele>331.5</ele><time>2026-03-29T10:30:06Z</time></trkpt><trkpt lat="43.17166211661242" lon="12.242970339614827"><ele>334.0</ele><time>2026-03-29T10:30:07Z</time></trkpt><trkpt lat="43.1716814652712" lon="12.243072896044971"><ele>336.16666666666663</ele><time>2026-03-29T10:30:08.001Z</time></trkpt><trkpt lat="43.17169413626387" lon="12.243171161335356"><ele>338.3333333333333</ele><time>2026-03-29T10:30:09.001Z</time></trkpt><trkpt lat="43.17171149302434" lon="12.243287011000735"><ele>340.5</ele><time>2026-03-29T10:30:10.001Z</time></trkpt><trkpt lat="43.171731676857114" lon="12.24340767481495"><ele>342.6666666666667</ele><time>2026-03-29T10:30:11.001Z</time></trkpt><trkpt lat="43.171751437485625" lon="12.243500655928262"><ele>344.83333333333337</ele><time>2026-03-29T10:30:12.001Z</time></trkpt><trkpt lat="43.17177847966473" lon="12.24360062386092"><ele>347.0</ele><time>2026-03-29T10:30:13.001Z</time></trkpt><trkpt lat="43.17182638208679" lon="12.243708188868332"><ele>347.0</ele><time>2026-03-29T10:30:14.001Z</time></trkpt><trkpt lat="43.171888544467734" lon="12.243783567691347"><ele>347.0</ele><time>2026-03-29T10:30:15.001Z</time></trkpt><trkpt lat="43.17195398520471" lon="12.243807563867497"><ele>347.0</ele><time>2026-03-29T10:30:16.001Z</time></trkpt><trkpt lat="43.17200193422464" lon="12.2438807740808"><ele>347.0</ele><time>2026-03-29T10:30:17.001Z</time></trkpt><trkpt lat="43.17210073495407" lon="12.243948594307017"><ele>347.0</ele><time>2026-03-29T10:30:19.001Z</time></trkpt><trkpt lat="43.17216961709493" lon="12.24396427778771"><ele>347.0</ele><time>2026-03-29T10:30:20.001Z</time></trkpt><trkpt lat="43.172238262213675" lon="12.243966529451141"><ele>349.0</ele><time>2026-03-29T10:30:21.001Z</time></trkpt><trkpt lat="43.17228037084614" lon="12.244041180225574"><ele>351.0</ele><time>2026-03-29T10:30:23.001Z</time></trkpt><trkpt lat="43.17226678784617" lon="12.244166727618449"><ele>353.0</ele><time>2026-03-29T10:30:25.001Z</time></trkpt><trkpt lat="43.1722053365716" lon="12.244269528925333"><ele>355.0</ele><time>2026-03-29T10:30:28.001Z</time></trkpt><trkpt lat="43.17216584188628" lon="12.244355357735785"><ele>357.0</ele><time>2026-03-29T10:30:30.001Z</time></trkpt><trkpt lat="43.17210590610604" lon="12.244405097513114"><ele>359.0</ele><time>2026-03-29T10:30:31.001Z</time></trkpt><trkpt lat="43.172115092037146" lon="12.244494566356558"><ele>359.0</ele><time>2026-03-29T10:30:34.001Z</time></trkpt><trkpt lat="43.17211045366007" lon="12.244604509308603"><ele>359.0</ele><time>2026-03-29T10:30:37.001Z</time></trkpt><trkpt lat="43.17213156058701" lon="12.244688755120551"><ele>359.0</ele><time>2026-03-29T10:30:39.001Z</time></trkpt><trkpt lat="43.17230401136396" lon="12.245529022030674"><ele>365.4</ele><time>2026-03-29T10:30:40.001Z</time></trkpt><trkpt lat="43.172304044076746" lon="12.245679717291146"><ele>371.79999999999995</ele><time>2026-03-29T10:30:42.001Z</time></trkpt><trkpt lat="43.17230242765168" lon="12.245817391801154"><ele>378.20000000000005</ele><time>2026-03-29T10:30:44.001Z</time></trkpt><trkpt lat="43.17226663552646" lon="12.245890266200107"><ele>384.6</ele><time>2026-03-29T10:30:45.001Z</time></trkpt><trkpt lat="43.17224442254566" lon="12.246069429791673"><ele>391.0</ele><time>2026-03-29T10:30:47.001Z</time></trkpt><trkpt lat="43.17223670305192" lon="12.246170764993444"><ele>391.00000000000006</ele><time>2026-03-29T10:30:48.001Z</time></trkpt><trkpt lat="43.17222594291554" lon="12.24627131037183"><ele>391.0</ele><time>2026-03-29T10:30:49.001Z</time></trkpt><trkpt lat="43.17221285086465" lon="12.246360420949316"><ele>391.0</ele><time>2026-03-29T10:30:50.001Z</time></trkpt><trkpt lat="43.17222494169666" lon="12.246488572833373"><ele>391.0</ele><time>2026-03-29T10:30:52.001Z</time></trkpt><trkpt lat="43.172230309258474" lon="12.246597768372306"><ele>391.00000000000006</ele><time>2026-03-29T10:30:55.001Z</time></trkpt><trkpt lat="43.172248724378775" lon="12.246743500281488"><ele>391.0</ele><time>2026-03-29T10:30:58Z</time></trkpt><trkpt lat="43.17231026704114" lon="12.246796107429082"><ele>378.0</ele><time>2026-03-29T10:30:59Z</time></trkpt><trkpt lat="43.17284181953966" lon="12.246458354455847"><ele>382.33333333333337</ele><time>2026-03-29T10:31:00Z</time></trkpt><trkpt lat="43.172895291386034" lon="12.246551084331886"><ele>386.6666666666667</ele><time>2026-03-29T10:31:01Z</time></trkpt><trkpt lat="43.172873810917984" lon="12.246670372453009"><ele>391.0</ele><time>2026-03-29T10:31:03Z</time></trkpt><trkpt lat="43.17257127091065" lon="12.246918777268817"><ele>390.99999999999994</ele><time>2026-03-29T10:31:06Z</time></trkpt><trkpt lat="43.17258121492441" lon="12.247015981529051"><ele>391.0</ele><time>2026-03-29T10:31:08Z</time></trkpt><trkpt lat="43.17259018544908" lon="12.247102538390324"><ele>391.0</ele><time>2026-03-29T10:31:10Z</time></trkpt><trkpt lat="43.17253302078803" lon="12.247158440466885"><ele>391.0</ele><time>2026-03-29T10:31:14Z</time></trkpt><trkpt lat="43.17260016245355" lon="12.247193355311056"><ele>391.0</ele><time>2026-03-29T10:31:23Z</time></trkpt><trkpt lat="43.17257718214893" lon="12.247293195092142"><ele>390.99999999999994</ele><time>2026-03-29T10:31:28Z</time></trkpt><trkpt lat="43.172533471734305" lon="12.247364290780686"><ele>391.0</ele><time>2026-03-29T10:31:44Z</time></trkpt><trkpt lat="43.172448410672686" lon="12.24740174321103"><ele>396.25</ele><time>2026-03-29T10:31:46Z</time></trkpt><trkpt lat="43.17233251195483" lon="12.247489015196331"><ele>401.5</ele><time>2026-03-29T10:31:48Z</time></trkpt><trkpt lat="43.17223843264208" lon="12.247582755692802"><ele>406.75</ele><time>2026-03-29T10:31:49Z</time></trkpt><trkpt lat="43.17214434540738" lon="12.247657679173688"><ele>412.0</ele><time>2026-03-29T10:31:50Z</time></trkpt><trkpt lat="43.17204652127346" lon="12.247709999759987"><ele>411.99999999999994</ele><time>2026-03-29T10:31:51Z</time></trkpt><trkpt lat="43.171986549819806" lon="12.247737835662837"><ele>412.0</ele><time>2026-03-29T10:31:52Z</time></trkpt><trkpt lat="43.17194034048064" lon="12.247796496258688"><ele>412.0</ele><time>2026-03-29T10:31:53Z</time></trkpt><trkpt lat="43.17189774487962" lon="12.24790047390149"><ele>412.0</ele><time>2026-03-29T10:31:54Z</time></trkpt><trkpt lat="43.17189558013719" lon="12.248000281123804"><ele>412.0</ele><time>2026-03-29T10:31:55Z</time></trkpt><trkpt lat="43.171850536187556" lon="12.2480735438164"><ele>411.99999999999994</ele><time>2026-03-29T10:31:56Z</time></trkpt><trkpt lat="43.17180344727714" lon="12.248137411356232"><ele>412.0</ele><time>2026-03-29T10:31:57Z</time></trkpt><trkpt lat="43.171734229417666" lon="12.24819400644267"><ele>411.8</ele><time>2026-03-29T10:31:58Z</time></trkpt><trkpt lat="43.17164995206456" lon="12.248351286495335"><ele>411.6</ele><time>2026-03-29T10:32:00Z</time></trkpt><trkpt lat="43.17161754596023" lon="12.248477183257881"><ele>411.40000000000003</ele><time>2026-03-29T10:32:01Z</time></trkpt><trkpt lat="43.17157678383047" lon="12.248556716519996"><ele>411.20000000000005</ele><time>2026-03-29T10:32:02Z</time></trkpt><trkpt lat="43.1715611877977" lon="12.248671154436234"><ele>411.0</ele><time>2026-03-29T10:32:04Z</time></trkpt><trkpt lat="43.17161431516302" lon="12.248741302435327"><ele>411.0</ele><time>2026-03-29T10:32:05Z</time></trkpt><trkpt lat="43.17179301146524" lon="12.248915270745053"><ele>411.0</ele><time>2026-03-29T10:32:06Z</time></trkpt><trkpt lat="43.1718898994548" lon="12.249027046807582"><ele>411.0</ele><time>2026-03-29T10:32:07Z</time></trkpt><trkpt lat="43.17198414044143" lon="12.24909648238207"><ele>413.0</ele><time>2026-03-29T10:32:08Z</time></trkpt><trkpt lat="43.172040757756676" lon="12.249158666513864"><ele>415.0</ele><time>2026-03-29T10:32:09Z</time></trkpt><trkpt lat="43.17210699378109" lon="12.2492122960971"><ele>417.0</ele><time>2026-03-29T10:32:10Z</time></trkpt><trkpt lat="43.17221023583032" lon="12.249288903326065"><ele>419.0</ele><time>2026-03-29T10:32:12Z</time></trkpt><trkpt lat="43.17224309556953" lon="12.24936311650732"><ele>421.0</ele><time>2026-03-29T10:32:13Z</time></trkpt><trkpt lat="43.17226753676916" lon="12.249533593068183"><ele>421.0</ele><time>2026-03-29T10:32:15Z</time></trkpt><trkpt lat="43.17231277929763" lon="12.249604966828127"><ele>421.0</ele><time>2026-03-29T10:32:16Z</time></trkpt><trkpt lat="43.17236883502757" lon="12.249715722768432"><ele>421.0</ele><time>2026-03-29T10:32:17Z</time></trkpt><trkpt lat="43.17242197620896" lon="12.249821247618609"><ele>421.0</ele><time>2026-03-29T10:32:18Z</time></trkpt><trkpt lat="43.172445380505074" lon="12.249925829782912"><ele>421.0</ele><time>2026-03-29T10:32:19Z</time></trkpt><trkpt lat="43.172373225310196" lon="12.250080429063093"><ele>424.0</ele><time>2026-03-29T10:32:20Z</time></trkpt><trkpt lat="43.17227910450399" lon="12.250168501927293"><ele>427.0</ele><time>2026-03-29T10:32:21Z</time></trkpt><trkpt lat="43.17216638844112" lon="12.250299302844972"><ele>430.0</ele><time>2026-03-29T10:32:22Z</time></trkpt><trkpt lat="43.17203109666526" lon="12.250383139901013"><ele>433.0</ele><time>2026-03-29T10:32:23Z</time></trkpt><trkpt lat="43.17186534305467" lon="12.250461186687485"><ele>433.0</ele><time>2026-03-29T10:32:24Z</time></trkpt><trkpt lat="43.17175877077469" lon="12.250459837635534"><ele>432.99999999999994</ele><time>2026-03-29T10:32:25Z</time></trkpt><trkpt lat="43.17167128075677" lon="12.250459008198728"><ele>432.99999999999994</ele><time>2026-03-29T10:32:26Z</time></trkpt><trkpt lat="43.17157583710523" lon="12.250497663020774"><ele>433.0</ele><time>2026-03-29T10:32:27Z</time></trkpt><trkpt lat="43.17147891802484" lon="12.25053908661549"><ele>433.0</ele><time>2026-03-29T10:32:28Z</time></trkpt><trkpt lat="43.17148279768238" lon="12.250770533160187"><ele>438.25</ele><time>2026-03-29T10:32:30Z</time></trkpt><trkpt lat="43.171496748261276" lon="12.25094542079852"><ele>443.5</ele><time>2026-03-29T10:32:31Z</time></trkpt><trkpt lat="43.17149165936391" lon="12.251115819596798"><ele>448.75</ele><time>2026-03-29T10:32:32Z</time></trkpt><trkpt lat="43.17146732054803" lon="12.251276063500802"><ele>454.0</ele><time>2026-03-29T10:32:33Z</time></trkpt><trkpt lat="43.17149659658269" lon="12.25144057878344"><ele>453.1666666666667</ele><time>2026-03-29T10:32:34Z</time></trkpt><trkpt lat="43.17153069263123" lon="12.251532950380671"><ele>452.33333333333337</ele><time>2026-03-29T10:32:35Z</time></trkpt><trkpt lat="43.171490653913956" lon="12.251667636897107"><ele>451.5</ele><time>2026-03-29T10:32:37Z</time></trkpt><trkpt lat="43.171440485090024" lon="12.251782175802157"><ele>450.66666666666663</ele><time>2026-03-29T10:32:39Z</time></trkpt><trkpt lat="43.17138405715426" lon="12.251825709822517"><ele>449.8333333333333</ele><time>2026-03-29T10:32:40Z</time></trkpt><trkpt lat="43.17130546579543" lon="12.251865340822636"><ele>449.0</ele><time>2026-03-29T10:32:41Z</time></trkpt><trkpt lat="43.17122024369701" lon="12.251937230382385"><ele>449.0</ele><time>2026-03-29T10:32:42Z</time></trkpt><trkpt lat="43.17115684169331" lon="12.252048837638892"><ele>449.0</ele><time>2026-03-29T10:32:43Z</time></trkpt><trkpt lat="43.17114261364156" lon="12.25221099241727"><ele>449.0</ele><time>2026-03-29T10:32:44Z</time></trkpt><trkpt lat="43.17112583905918" lon="12.252328655643533"><ele>449.0</ele><time>2026-03-29T10:32:45Z</time></trkpt><trkpt lat="43.1710560912054" lon="12.252446933310027"><ele>449.0</ele><time>2026-03-29T10:32:47Z</time></trkpt><trkpt lat="43.17099052520977" lon="12.252489769087447"><ele>447.66666666666663</ele><time>2026-03-29T10:32:48Z</time></trkpt><trkpt lat="43.17089913510438" lon="12.25256350084787"><ele>446.3333333333333</ele><time>2026-03-29T10:32:49Z</time></trkpt><trkpt lat="43.170815465616464" lon="12.252612281004692"><ele>445.0</ele><time>2026-03-29T10:32:50Z</time></trkpt><trkpt lat="43.170740537617206" lon="12.25266419665422"><ele>443.66666666666663</ele><time>2026-03-29T10:32:51Z</time></trkpt><trkpt lat="43.17065981805087" lon="12.252682163235937"><ele>442.3333333333333</ele><time>2026-03-29T10:32:52Z</time></trkpt><trkpt lat="43.170595836016815" lon="12.252726301614427"><ele>441.0</ele><time>2026-03-29T10:32:53Z</time></trkpt><trkpt lat="43.17053578058862" lon="12.252627263243475"><ele>441.1666666666667</ele><time>2026-03-29T10:32:56Z</time></trkpt><trkpt lat="43.170535505336694" lon="12.252527942214298"><ele>441.33333333333337</ele><time>2026-03-29T10:32:57Z</time></trkpt><trkpt lat="43.17054934353371" lon="12.252420105042916"><ele>441.5</ele><time>2026-03-29T10:32:58Z</time></trkpt><trkpt lat="43.170547005888295" lon="12.252322164315904"><ele>441.6666666666667</ele><time>2026-03-29T10:32:59Z</time></trkpt><trkpt lat="43.170528251554984" lon="12.252183457838369"><ele>441.83333333333337</ele><time>2026-03-29T10:33:00Z</time></trkpt><trkpt lat="43.1704745932864" lon="12.252044628507665"><ele>442.0</ele><time>2026-03-29T10:33:01Z</time></trkpt><trkpt lat="43.17044121529505" lon="12.251880753546898"><ele>442.0</ele><time>2026-03-29T10:33:02Z</time></trkpt><trkpt lat="43.17041365804741" lon="12.25173280428693"><ele>442.00000000000006</ele><time>2026-03-29T10:33:03Z</time></trkpt><trkpt lat="43.170353269817916" lon="12.251591639315466"><ele>442.00000000000006</ele><time>2026-03-29T10:33:04Z</time></trkpt><trkpt lat="43.17028228996235" lon="12.251535767091603"><ele>442.0</ele><time>2026-03-29T10:33:05Z</time></trkpt><trkpt lat="43.17016635231428" lon="12.25146444255513"><ele>442.0</ele><time>2026-03-29T10:33:06Z</time></trkpt><trkpt lat="43.170038822748594" lon="12.251390294675065"><ele>444.0</ele><time>2026-03-29T10:33:07Z</time></trkpt><trkpt lat="43.16993417279047" lon="12.251323453539273"><ele>446.00000000000006</ele><time>2026-03-29T10:33:08Z</time></trkpt><trkpt lat="43.16984891373676" lon="12.251273928084494"><ele>448.00000000000006</ele><time>2026-03-29T10:33:09Z</time></trkpt><trkpt lat="43.16975685247082" lon="12.251216096607271"><ele>450.0</ele><time>2026-03-29T10:33:10Z</time></trkpt><trkpt lat="43.16966017689829" lon="12.251120125221435"><ele>452.0</ele><time>2026-03-29T10:33:11Z</time></trkpt><trkpt lat="43.16957179901802" lon="12.251002073460338"><ele>452.0</ele><time>2026-03-29T10:33:12Z</time></trkpt><trkpt lat="43.1694787383462" lon="12.250861252197483"><ele>452.0</ele><time>2026-03-29T10:33:13Z</time></trkpt><trkpt lat="43.16939778795039" lon="12.250700817582302"><ele>452.0</ele><time>2026-03-29T10:33:14Z</time></trkpt><trkpt lat="43.16931821178849" lon="12.25055362414024"><ele>452.0</ele><time>2026-03-29T10:33:15Z</time></trkpt><trkpt lat="43.16924497346653" lon="12.250426183690335"><ele>454.75</ele><time>2026-03-29T10:33:16Z</time></trkpt><trkpt lat="43.16914314224262" lon="12.250315938689877"><ele>457.5</ele><time>2026-03-29T10:33:17Z</time></trkpt><trkpt lat="43.1690295165802" lon="12.250220158626208"><ele>460.25</ele><time>2026-03-29T10:33:18Z</time></trkpt><trkpt lat="43.16893629621455" lon="12.250115292276861"><ele>463.0</ele><time>2026-03-29T10:33:19Z</time></trkpt><trkpt lat="43.168902362109264" lon="12.249966515225053"><ele>462.75</ele><time>2026-03-29T10:33:20Z</time></trkpt><trkpt lat="43.16887002387608" lon="12.249832660250034"><ele>462.5</ele><time>2026-03-29T10:33:21Z</time></trkpt><trkpt lat="43.168811255148405" lon="12.249718270837542"><ele>462.25</ele><time>2026-03-29T10:33:22Z</time></trkpt><trkpt lat="43.168725212622" lon="12.24959629781403"><ele>462.0</ele><time>2026-03-29T10:33:23Z</time></trkpt><trkpt lat="43.16862476488667" lon="12.249462998166619"><ele>462.0</ele><time>2026-03-29T10:33:24Z</time></trkpt><trkpt lat="43.16853790464673" lon="12.249355054332774"><ele>462.0</ele><time>2026-03-29T10:33:25Z</time></trkpt><trkpt lat="43.1684155409484" lon="12.249244030339822"><ele>462.0</ele><time>2026-03-29T10:33:26Z</time></trkpt><trkpt lat="43.16829937354186" lon="12.24913157212996"><ele>462.0</ele><time>2026-03-29T10:33:27Z</time></trkpt><trkpt lat="43.16820735052362" lon="12.248952876250844"><ele>462.0</ele><time>2026-03-29T10:33:28Z</time></trkpt><trkpt lat="43.168129433274395" lon="12.248778046223004"><ele>462.0</ele><time>2026-03-29T10:33:29Z</time></trkpt><trkpt lat="43.1680335081655" lon="12.248623932406497"><ele>462.0</ele><time>2026-03-29T10:33:30Z</time></trkpt><trkpt lat="43.16793343595635" lon="12.248483966831294"><ele>462.0</ele><time>2026-03-29T10:33:31Z</time></trkpt><trkpt lat="43.16781010498659" lon="12.248353852361822"><ele>462.0</ele><time>2026-03-29T10:33:32Z</time></trkpt><trkpt lat="43.16771356552268" lon="12.248235356801649"><ele>462.00000000000006</ele><time>2026-03-29T10:33:33Z</time></trkpt><trkpt lat="43.167639884695305" lon="12.248135611629205"><ele>462.00000000000006</ele><time>2026-03-29T10:33:34Z</time></trkpt><trkpt lat="43.16756699151198" lon="12.248064496309798"><ele>462.0</ele><time>2026-03-29T10:33:35Z</time></trkpt><trkpt lat="43.167466739997884" lon="12.248041015828285"><ele>462.0</ele><time>2026-03-29T10:33:36Z</time></trkpt><trkpt lat="43.1673401552117" lon="12.24806661225329"><ele>462.20000000000005</ele><time>2026-03-29T10:33:37Z</time></trkpt><trkpt lat="43.16720606389067" lon="12.248114217374296"><ele>462.40000000000003</ele><time>2026-03-29T10:33:38Z</time></trkpt><trkpt lat="43.16709732792859" lon="12.248141916968308"><ele>462.59999999999997</ele><time>2026-03-29T10:33:39Z</time></trkpt><trkpt lat="43.16701323620095" lon="12.248096426829253"><ele>462.79999999999995</ele><time>2026-03-29T10:33:40Z</time></trkpt><trkpt lat="43.16690813256426" lon="12.248070874068567"><ele>463.0</ele><time>2026-03-29T10:33:41Z</time></trkpt><trkpt lat="43.16681744976216" lon="12.248059164390066"><ele>463.0</ele><time>2026-03-29T10:33:42Z</time></trkpt><trkpt lat="43.1667221218919" lon="12.24814834511929"><ele>463.0</ele><time>2026-03-29T10:33:43Z</time></trkpt><trkpt lat="43.16660721264324" lon="12.248224164940229"><ele>463.0</ele><time>2026-03-29T10:33:44Z</time></trkpt><trkpt lat="43.16649889784556" lon="12.248292985470961"><ele>463.0</ele><time>2026-03-29T10:33:45Z</time></trkpt><trkpt lat="43.16639249194317" lon="12.248358120554611"><ele>461.5</ele><time>2026-03-29T10:33:46Z</time></trkpt><trkpt lat="43.16625955711898" lon="12.248382757523094"><ele>460.0</ele><time>2026-03-29T10:33:47Z</time></trkpt><trkpt lat="43.16615701713051" lon="12.248452535676037"><ele>458.5</ele><time>2026-03-29T10:33:48Z</time></trkpt><trkpt lat="43.16604001054108" lon="12.248554388637217"><ele>457.0</ele><time>2026-03-29T10:33:49Z</time></trkpt><trkpt lat="43.16593849344451" lon="12.248673564017265"><ele>457.0</ele><time>2026-03-29T10:33:50Z</time></trkpt><trkpt lat="43.16585090474795" lon="12.248805766623024"><ele>457.0</ele><time>2026-03-29T10:33:51Z</time></trkpt><trkpt lat="43.16577843027582" lon="12.248953239799953"><ele>457.0</ele><time>2026-03-29T10:33:52Z</time></trkpt><trkpt lat="43.16569217719544" lon="12.249103944855259"><ele>457.0</ele><time>2026-03-29T10:33:53Z</time></trkpt><trkpt lat="43.16561149721509" lon="12.249229706372423"><ele>458.20000000000005</ele><time>2026-03-29T10:33:54Z</time></trkpt><trkpt lat="43.16553557683484" lon="12.249335921746743"><ele>459.40000000000003</ele><time>2026-03-29T10:33:55Z</time></trkpt><trkpt lat="43.165442256117494" lon="12.249442416548531"><ele>460.59999999999997</ele><time>2026-03-29T10:33:56Z</time></trkpt><trkpt lat="43.16535387910425" lon="12.249540225386706"><ele>461.79999999999995</ele><time>2026-03-29T10:33:57Z</time></trkpt><trkpt lat="43.165302777000484" lon="12.249640552370604"><ele>463.0</ele><time>2026-03-29T10:33:58Z</time></trkpt><trkpt lat="43.1652573659802" lon="12.249714990856697"><ele>462.75</ele><time>2026-03-29T10:33:59Z</time></trkpt><trkpt lat="43.165214666431844" lon="12.249797233737794"><ele>462.5</ele><time>2026-03-29T10:34:00Z</time></trkpt><trkpt lat="43.16509449662485" lon="12.249846643772491"><ele>462.25</ele><time>2026-03-29T10:34:01Z</time></trkpt><trkpt lat="43.16509926788525" lon="12.249962308534608"><ele>462.0</ele><time>2026-03-29T10:34:02Z</time></trkpt><trkpt lat="43.16475665450039" lon="12.249740943994972"><ele>463.6</ele><time>2026-03-29T10:34:03Z</time></trkpt><trkpt lat="43.16464712724009" lon="12.249719217413235"><ele>465.20000000000005</ele><time>2026-03-29T10:34:04Z</time></trkpt><trkpt lat="43.16453581883438" lon="12.24969456283251"><ele>466.8</ele><time>2026-03-29T10:34:05Z</time></trkpt><trkpt lat="43.16444039009363" lon="12.24966153547496"><ele>468.4</ele><time>2026-03-29T10:34:06Z</time></trkpt><trkpt lat="43.16437140635703" lon="12.249618419121466"><ele>470.0</ele><time>2026-03-29T10:34:07Z</time></trkpt><trkpt lat="43.164320886918446" lon="12.249427675485675"><ele>469.99999999999994</ele><time>2026-03-29T10:34:09Z</time></trkpt><trkpt lat="43.164300298178496" lon="12.249322011265384"><ele>470.0</ele><time>2026-03-29T10:34:10Z</time></trkpt><trkpt lat="43.16424997573767" lon="12.249249127596324"><ele>470.0</ele><time>2026-03-29T10:34:11Z</time></trkpt><trkpt lat="43.16414930240674" lon="12.249151722803115"><ele>470.0</ele><time>2026-03-29T10:34:13Z</time></trkpt><trkpt lat="43.16408944154619" lon="12.249093260104823"><ele>469.99999999999994</ele><time>2026-03-29T10:34:14Z</time></trkpt><trkpt lat="43.16401411266632" lon="12.249031521724648"><ele>470.0</ele><time>2026-03-29T10:34:15Z</time></trkpt><trkpt lat="43.16394490705602" lon="12.248986818176217"><ele>471.99999999999994</ele><time>2026-03-29T10:34:16Z</time></trkpt><trkpt lat="43.16386699293303" lon="12.248945239028355"><ele>474.0</ele><time>2026-03-29T10:34:17Z</time></trkpt><trkpt lat="43.163783092878646" lon="12.248910043930168"><ele>476.0</ele><time>2026-03-29T10:34:18Z</time></trkpt><trkpt lat="43.163715838074616" lon="12.248842721785865"><ele>478.0</ele><time>2026-03-29T10:34:19Z</time></trkpt><trkpt lat="43.16367084064011" lon="12.248751222793034"><ele>479.99999999999994</ele><time>2026-03-29T10:34:20Z</time></trkpt><trkpt lat="43.16361547907431" lon="12.248641537745725"><ele>482.0</ele><time>2026-03-29T10:34:21Z</time></trkpt><trkpt lat="43.16357248751423" lon="12.248512174613152"><ele>481.99999999999994</ele><time>2026-03-29T10:34:22Z</time></trkpt><trkpt lat="43.16353783447379" lon="12.248378342375826"><ele>482.0</ele><time>2026-03-29T10:34:23Z</time></trkpt><trkpt lat="43.16350729243818" lon="12.248271107473863"><ele>482.0</ele><time>2026-03-29T10:34:24Z</time></trkpt><trkpt lat="43.163452131986844" lon="12.248211406312437"><ele>482.0</ele><time>2026-03-29T10:34:25Z</time></trkpt><trkpt lat="43.16337227780126" lon="12.248210905602004"><ele>481.99999999999994</ele><time>2026-03-29T10:34:26Z</time></trkpt><trkpt lat="43.16327923017958" lon="12.248188557072526"><ele>482.0</ele><time>2026-03-29T10:34:27Z</time></trkpt><trkpt lat="43.16319076376108" lon="12.248181725607608"><ele>483.0</ele><time>2026-03-29T10:34:28Z</time></trkpt><trkpt lat="43.1630891870438" lon="12.24819963611505"><ele>484.00000000000006</ele><time>2026-03-29T10:34:29Z</time></trkpt><trkpt lat="43.162990754404085" lon="12.248252385412203"><ele>485.00000000000006</ele><time>2026-03-29T10:34:30Z</time></trkpt><trkpt lat="43.162899877222735" lon="12.248308517089852"><ele>486.0</ele><time>2026-03-29T10:34:31Z</time></trkpt><trkpt lat="43.1628475320386" lon="12.248414645761892"><ele>487.0</ele><time>2026-03-29T10:34:32Z</time></trkpt><trkpt lat="43.16278033623424" lon="12.24853308929159"><ele>487.0</ele><time>2026-03-29T10:34:33Z</time></trkpt><trkpt lat="43.16271509245234" lon="12.248595147856665"><ele>487.00000000000006</ele><time>2026-03-29T10:34:34Z</time></trkpt><trkpt lat="43.16261564097863" lon="12.248602702552613"><ele>487.00000000000006</ele><time>2026-03-29T10:34:35Z</time></trkpt><trkpt lat="43.16250859220946" lon="12.24859907100786"><ele>487.0</ele><time>2026-03-29T10:34:36Z</time></trkpt><trkpt lat="43.16241988589158" lon="12.248510903694314"><ele>487.0</ele><time>2026-03-29T10:34:37Z</time></trkpt><trkpt lat="43.162346340689986" lon="12.248496019586169"><ele>488.00000000000006</ele><time>2026-03-29T10:34:39Z</time></trkpt><trkpt lat="43.16224053291844" lon="12.248456465994002"><ele>489.0</ele><time>2026-03-29T10:34:41Z</time></trkpt><trkpt lat="43.16215967096089" lon="12.248461983267386"><ele>490.0</ele><time>2026-03-29T10:34:42Z</time></trkpt><trkpt lat="43.1620820145237" lon="12.24847704517555"><ele>491.0</ele><time>2026-03-29T10:34:43Z</time></trkpt><trkpt lat="43.161995239634074" lon="12.248440485321273"><ele>492.00000000000006</ele><time>2026-03-29T10:34:44Z</time></trkpt><trkpt lat="43.16192289283113" lon="12.248381827797994"><ele>493.0</ele><time>2026-03-29T10:34:45Z</time></trkpt><trkpt lat="43.1618387225044" lon="12.248320560968384"><ele>493.0</ele><time>2026-03-29T10:34:46Z</time></trkpt><trkpt lat="43.16175555013696" lon="12.248261695832834"><ele>493.0</ele><time>2026-03-29T10:34:47Z</time></trkpt><trkpt lat="43.16167517225524" lon="12.248193985510055"><ele>493.0</ele><time>2026-03-29T10:34:48Z</time></trkpt><trkpt lat="43.1615626030311" lon="12.248135495293601"><ele>493.0</ele><time>2026-03-29T10:34:49Z</time></trkpt><trkpt lat="43.16143220366713" lon="12.248057694715143"><ele>493.5</ele><time>2026-03-29T10:34:50Z</time></trkpt><trkpt lat="43.16131725230538" lon="12.24799208829801"><ele>494.0</ele><time>2026-03-29T10:34:51Z</time></trkpt><trkpt lat="43.1611902701756" lon="12.247909227888915"><ele>494.5</ele><time>2026-03-29T10:34:52Z</time></trkpt><trkpt lat="43.161088968785016" lon="12.247787112557395"><ele>495.0</ele><time>2026-03-29T10:34:53Z</time></trkpt><trkpt lat="43.160961378866496" lon="12.247689738017113"><ele>495.0</ele><time>2026-03-29T10:34:54Z</time></trkpt><trkpt lat="43.160840608060035" lon="12.247630165528406"><ele>495.0</ele><time>2026-03-29T10:34:55Z</time></trkpt><trkpt lat="43.160751416085624" lon="12.247558381098342"><ele>495.0</ele><time>2026-03-29T10:34:56Z</time></trkpt><trkpt lat="43.1606938090955" lon="12.247470472563052"><ele>495.0</ele><time>2026-03-29T10:34:57Z</time></trkpt><trkpt lat="43.160646185876786" lon="12.247325616144138"><ele>495.0</ele><time>2026-03-29T10:34:58Z</time></trkpt><trkpt lat="43.160603177340214" lon="12.247137790932781"><ele>498.4</ele><time>2026-03-29T10:34:59Z</time></trkpt><trkpt lat="43.16057107099589" lon="12.247012606080698"><ele>501.8</ele><time>2026-03-29T10:35:00Z</time></trkpt><trkpt lat="43.1605327676274" lon="12.246891125520072"><ele>505.20000000000005</ele><time>2026-03-29T10:35:01Z</time></trkpt><trkpt lat="43.160465234075495" lon="12.246771064540988"><ele>508.6</ele><time>2026-03-29T10:35:02Z</time></trkpt><trkpt lat="43.16041789395121" lon="12.246641983673953"><ele>512.0</ele><time>2026-03-29T10:35:03Z</time></trkpt><trkpt lat="43.16034038632103" lon="12.246550099197416"><ele>512.0</ele><time>2026-03-29T10:35:04Z</time></trkpt><trkpt lat="43.16027789809638" lon="12.246473620956166"><ele>512.0</ele><time>2026-03-29T10:35:05Z</time></trkpt><trkpt lat="43.160189785112735" lon="12.246374478272962"><ele>512.0</ele><time>2026-03-29T10:35:06Z</time></trkpt><trkpt lat="43.160119574283456" lon="12.246282526862268"><ele>512.0</ele><time>2026-03-29T10:35:07Z</time></trkpt><trkpt lat="43.16002763487271" lon="12.246174586089266"><ele>512.0</ele><time>2026-03-29T10:35:08Z</time></trkpt><trkpt lat="43.15996808463054" lon="12.246051602021442"><ele>511.5</ele><time>2026-03-29T10:35:09Z</time></trkpt><trkpt lat="43.159937890883256" lon="12.245905061502693"><ele>511.0</ele><time>2026-03-29T10:35:10Z</time></trkpt><trkpt lat="43.15995943124931" lon="12.245737956908291"><ele>510.5</ele><time>2026-03-29T10:35:11Z</time></trkpt><trkpt lat="43.15999518742134" lon="12.245574091871063"><ele>510.0</ele><time>2026-03-29T10:35:12Z</time></trkpt><trkpt lat="43.16001628288682" lon="12.245396881787968"><ele>510.0</ele><time>2026-03-29T10:35:13Z</time></trkpt><trkpt lat="43.16004500714501" lon="12.245241710102087"><ele>510.0</ele><time>2026-03-29T10:35:14Z</time></trkpt><trkpt lat="43.16007594303588" lon="12.2450933740854"><ele>510.0</ele><time>2026-03-29T10:35:15Z</time></trkpt><trkpt lat="43.160074144743064" lon="12.244977376016127"><ele>510.0</ele><time>2026-03-29T10:35:16Z</time></trkpt><trkpt lat="43.16003417928665" lon="12.244878724690702"><ele>510.0</ele><time>2026-03-29T10:35:17Z</time></trkpt><trkpt lat="43.15998718977065" lon="12.244730376466853"><ele>509.0</ele><time>2026-03-29T10:35:18Z</time></trkpt><trkpt lat="43.15992214967928" lon="12.244581471908122"><ele>508.0</ele><time>2026-03-29T10:35:19Z</time></trkpt><trkpt lat="43.15985674807837" lon="12.244396827733778"><ele>507.0</ele><time>2026-03-29T10:35:20Z</time></trkpt><trkpt lat="43.159809980953504" lon="12.244218850219768"><ele>506.0</ele><time>2026-03-29T10:35:21Z</time></trkpt><trkpt lat="43.159774057718934" lon="12.24406133586688"><ele>503.0</ele><time>2026-03-29T10:35:22Z</time></trkpt><trkpt lat="43.15973243849768" lon="12.243881223653611"><ele>500.0</ele><time>2026-03-29T10:35:23Z</time></trkpt><trkpt lat="43.15969040162188" lon="12.243715195247509"><ele>497.0</ele><time>2026-03-29T10:35:24Z</time></trkpt><trkpt lat="43.15965030609935" lon="12.24354365287785"><ele>494.0</ele><time>2026-03-29T10:35:25Z</time></trkpt><trkpt lat="43.15960881687786" lon="12.243390234103346"><ele>494.0</ele><time>2026-03-29T10:35:26Z</time></trkpt><trkpt lat="43.159561812588564" lon="12.243263690975141"><ele>494.0</ele><time>2026-03-29T10:35:27Z</time></trkpt><trkpt lat="43.15950482871974" lon="12.243140714965005"><ele>494.0</ele><time>2026-03-29T10:35:28Z</time></trkpt><trkpt lat="43.159446311988795" lon="12.243024161143069"><ele>494.0</ele><time>2026-03-29T10:35:29Z</time></trkpt><trkpt lat="43.1593806359735" lon="12.242899517697278"><ele>494.0</ele><time>2026-03-29T10:35:30Z</time></trkpt><trkpt lat="43.1593352068607" lon="12.242768862884045"><ele>491.2</ele><time>2026-03-29T10:35:31Z</time></trkpt><trkpt lat="43.159314506269105" lon="12.242620629978145"><ele>488.4</ele><time>2026-03-29T10:35:32Z</time></trkpt><trkpt lat="43.159299081607415" lon="12.242470025211922"><ele>485.6</ele><time>2026-03-29T10:35:33Z</time></trkpt><trkpt lat="43.15927261664088" lon="12.242316338480267"><ele>482.8</ele><time>2026-03-29T10:35:34Z</time></trkpt><trkpt lat="43.15923235726759" lon="12.242175031921962"><ele>480.0</ele><time>2026-03-29T10:35:35Z</time></trkpt><trkpt lat="43.15919164817332" lon="12.2420393969344"><ele>478.4</ele><time>2026-03-29T10:35:36Z</time></trkpt><trkpt lat="43.15914476431761" lon="12.241915043989879"><ele>476.8</ele><time>2026-03-29T10:35:37Z</time></trkpt><trkpt lat="43.15910385928869" lon="12.24178487754763"><ele>475.20000000000005</ele><time>2026-03-29T10:35:38Z</time></trkpt><trkpt lat="43.15906808754425" lon="12.241642134838438"><ele>473.6</ele><time>2026-03-29T10:35:39Z</time></trkpt><trkpt lat="43.15903536286873" lon="12.241523155998506"><ele>472.0</ele><time>2026-03-29T10:35:40Z</time></trkpt><trkpt lat="43.15900994337095" lon="12.241401688406125"><ele>470.50000000000006</ele><time>2026-03-29T10:35:41Z</time></trkpt><trkpt lat="43.15898650123008" lon="12.241280068244615"><ele>469.0</ele><time>2026-03-29T10:35:42Z</time></trkpt><trkpt lat="43.158990564489876" lon="12.241185229724998"><ele>467.5</ele><time>2026-03-29T10:35:43Z</time></trkpt><trkpt lat="43.15902313268931" lon="12.241108288308194"><ele>466.0</ele><time>2026-03-29T10:35:44Z</time></trkpt><trkpt lat="43.159078561222415" lon="12.24102775003081"><ele>464.50000000000006</ele><time>2026-03-29T10:35:45Z</time></trkpt><trkpt lat="43.159166399130406" lon="12.240945259149623"><ele>463.0</ele><time>2026-03-29T10:35:46Z</time></trkpt><trkpt lat="43.15924180319077" lon="12.240864385087304"><ele>463.0</ele><time>2026-03-29T10:35:47Z</time></trkpt><trkpt lat="43.15933682487943" lon="12.24074413779909"><ele>462.99999999999994</ele><time>2026-03-29T10:35:48Z</time></trkpt><trkpt lat="43.159421891675926" lon="12.240668196541836"><ele>462.99999999999994</ele><time>2026-03-29T10:35:49Z</time></trkpt><trkpt lat="43.1595082923" lon="12.240567225809992"><ele>463.0</ele><time>2026-03-29T10:35:50Z</time></trkpt><trkpt lat="43.15957632774211" lon="12.240465686561228"><ele>463.0</ele><time>2026-03-29T10:35:51Z</time></trkpt><trkpt lat="43.15964708318903" lon="12.240377083329065"><ele>461.59999999999997</ele><time>2026-03-29T10:35:52Z</time></trkpt><trkpt lat="43.159723749340536" lon="12.240306931684735"><ele>460.19999999999993</ele><time>2026-03-29T10:35:53Z</time></trkpt><trkpt lat="43.159817877551816" lon="12.240294656950729"><ele>458.8</ele><time>2026-03-29T10:35:54Z</time></trkpt><trkpt lat="43.15993115221054" lon="12.240216637695232"><ele>457.4</ele><time>2026-03-29T10:35:55Z</time></trkpt><trkpt lat="43.16003703749561" lon="12.24019085582578"><ele>456.0</ele><time>2026-03-29T10:35:56Z</time></trkpt><trkpt lat="43.16016587539385" lon="12.240205058832661"><ele>455.20000000000005</ele><time>2026-03-29T10:35:57Z</time></trkpt><trkpt lat="43.16027673806973" lon="12.240225657578609"><ele>454.40000000000003</ele><time>2026-03-29T10:35:58Z</time></trkpt><trkpt lat="43.16037030974263" lon="12.240226435513282"><ele>453.6</ele><time>2026-03-29T10:35:59Z</time></trkpt><trkpt lat="43.16047063972771" lon="12.24020511470263"><ele>452.8</ele><time>2026-03-29T10:36:00Z</time></trkpt><trkpt lat="43.160576457822835" lon="12.24018456729467"><ele>452.0</ele><time>2026-03-29T10:36:01Z</time></trkpt><trkpt lat="43.16068214105859" lon="12.240190248343705"><ele>448.6</ele><time>2026-03-29T10:36:02Z</time></trkpt><trkpt lat="43.160776286887" lon="12.240208780651932"><ele>445.20000000000005</ele><time>2026-03-29T10:36:03Z</time></trkpt><trkpt lat="43.160862341852706" lon="12.240251100400881"><ele>441.8</ele><time>2026-03-29T10:36:04Z</time></trkpt><trkpt lat="43.16094126533787" lon="12.240297128021393"><ele>438.4</ele><time>2026-03-29T10:36:05Z</time></trkpt><trkpt lat="43.16102192500414" lon="12.240348444152488"><ele>435.0</ele><time>2026-03-29T10:36:06Z</time></trkpt><trkpt lat="43.16111162479969" lon="12.240374454881733"><ele>435.0</ele><time>2026-03-29T10:36:07Z</time></trkpt><trkpt lat="43.1611966110497" lon="12.240394788508766"><ele>435.0</ele><time>2026-03-29T10:36:08Z</time></trkpt><trkpt lat="43.16128027235127" lon="12.240428214991217"><ele>435.0</ele><time>2026-03-29T10:36:09Z</time></trkpt><trkpt lat="43.16135416464723" lon="12.240485915027012"><ele>435.0</ele><time>2026-03-29T10:36:10Z</time></trkpt><trkpt lat="43.161436319398284" lon="12.240560535082954"><ele>435.0</ele><time>2026-03-29T10:36:11Z</time></trkpt><trkpt lat="43.16155740202492" lon="12.24060591372463"><ele>435.6</ele><time>2026-03-29T10:36:12Z</time></trkpt><trkpt lat="43.1616671441825" lon="12.240625235451587"><ele>436.2</ele><time>2026-03-29T10:36:13Z</time></trkpt><trkpt lat="43.16174663843938" lon="12.240638763753509"><ele>436.79999999999995</ele><time>2026-03-29T10:36:14Z</time></trkpt><trkpt lat="43.16185154529289" lon="12.240620399575674"><ele>437.4</ele><time>2026-03-29T10:36:15Z</time></trkpt><trkpt lat="43.16195007275906" lon="12.240573381008852"><ele>438.0</ele><time>2026-03-29T10:36:16Z</time></trkpt><trkpt lat="43.162046076593725" lon="12.240514893658537"><ele>435.0</ele><time>2026-03-29T10:36:17Z</time></trkpt><trkpt lat="43.162140583002575" lon="12.24045152578868"><ele>431.99999999999994</ele><time>2026-03-29T10:36:18Z</time></trkpt><trkpt lat="43.16221963551713" lon="12.24035591489891"><ele>429.0</ele><time>2026-03-29T10:36:19Z</time></trkpt><trkpt lat="43.16230424645233" lon="12.240241431892459"><ele>426.0</ele><time>2026-03-29T10:36:20Z</time></trkpt><trkpt lat="43.162381953511016" lon="12.240144047304495"><ele>423.0</ele><time>2026-03-29T10:36:21Z</time></trkpt><trkpt lat="43.1624534505684" lon="12.240067855945172"><ele>422.59999999999997</ele><time>2026-03-29T10:36:22Z</time></trkpt><trkpt lat="43.162528130038574" lon="12.23999257253853"><ele>422.2</ele><time>2026-03-29T10:36:23Z</time></trkpt><trkpt lat="43.16260163093229" lon="12.239925794916706"><ele>421.8</ele><time>2026-03-29T10:36:24Z</time></trkpt><trkpt lat="43.16266977457692" lon="12.239843657939906"><ele>421.4</ele><time>2026-03-29T10:36:25Z</time></trkpt><trkpt lat="43.16274346016456" lon="12.239752894709751"><ele>421.0</ele><time>2026-03-29T10:36:26Z</time></trkpt><trkpt lat="43.16281632675181" lon="12.239660959288932"><ele>418.8</ele><time>2026-03-29T10:36:27Z</time></trkpt><trkpt lat="43.16289704845318" lon="12.239580904760388"><ele>416.6</ele><time>2026-03-29T10:36:28Z</time></trkpt><trkpt lat="43.16297581748656" lon="12.239502895249208"><ele>414.4</ele><time>2026-03-29T10:36:29Z</time></trkpt><trkpt lat="43.16306257739308" lon="12.239419459039038"><ele>412.2</ele><time>2026-03-29T10:36:30Z</time></trkpt><trkpt lat="43.16314164590151" lon="12.239324161271314"><ele>410.0</ele><time>2026-03-29T10:36:31Z</time></trkpt><trkpt lat="43.16322806003461" lon="12.239240275605253"><ele>409.2</ele><time>2026-03-29T10:36:32Z</time></trkpt><trkpt lat="43.16330907517101" lon="12.239145380960089"><ele>408.4</ele><time>2026-03-29T10:36:33Z</time></trkpt><trkpt lat="43.16337742047293" lon="12.239061205376526"><ele>407.6</ele><time>2026-03-29T10:36:34Z</time></trkpt><trkpt lat="43.16345186386125" lon="12.23899050283826"><ele>406.8</ele><time>2026-03-29T10:36:35Z</time></trkpt><trkpt lat="43.16351331162571" lon="12.238914590893394"><ele>406.0</ele><time>2026-03-29T10:36:36Z</time></trkpt><trkpt lat="43.163574109488366" lon="12.238839460263643"><ele>403.7142857142857</ele><time>2026-03-29T10:36:37Z</time></trkpt><trkpt lat="43.16362912293934" lon="12.238772224541496"><ele>401.42857142857144</ele><time>2026-03-29T10:36:38Z</time></trkpt><trkpt lat="43.16368763585743" lon="12.238718012618543"><ele>399.1428571428571</ele><time>2026-03-29T10:36:39Z</time></trkpt><trkpt lat="43.16374996748006" lon="12.23867567393311"><ele>396.8571428571429</ele><time>2026-03-29T10:36:40Z</time></trkpt><trkpt lat="43.16381535549197" lon="12.238651871316865"><ele>394.57142857142856</ele><time>2026-03-29T10:36:41Z</time></trkpt><trkpt lat="43.163880545582614" lon="12.238656933048299"><ele>392.2857142857143</ele><time>2026-03-29T10:36:42Z</time></trkpt><trkpt lat="43.16398242742638" lon="12.238671455953893"><ele>390.0</ele><time>2026-03-29T10:36:44Z</time></trkpt><trkpt lat="43.16408008130867" lon="12.23864008022653"><ele>388.3333333333333</ele><time>2026-03-29T10:36:46Z</time></trkpt><trkpt lat="43.16414504686785" lon="12.238604368847474"><ele>386.6666666666667</ele><time>2026-03-29T10:36:47Z</time></trkpt><trkpt lat="43.164197050783734" lon="12.23854526216348"><ele>385.0</ele><time>2026-03-29T10:36:48Z</time></trkpt><trkpt lat="43.16425855143589" lon="12.238493662831388"><ele>383.33333333333337</ele><time>2026-03-29T10:36:49Z</time></trkpt><trkpt lat="43.16428126913168" lon="12.238346438011353"><ele>381.6666666666667</ele><time>2026-03-29T10:36:51Z</time></trkpt><trkpt lat="43.164224387632714" lon="12.23828385028633"><ele>380.0</ele><time>2026-03-29T10:36:52Z</time></trkpt><trkpt lat="43.164118321804445" lon="12.238261905385128"><ele>380.0</ele><time>2026-03-29T10:36:54Z</time></trkpt><trkpt lat="43.16413402663738" lon="12.238162805472037"><ele>380.0</ele><time>2026-03-29T10:36:56Z</time></trkpt><trkpt lat="43.16407289623565" lon="12.238087387988193"><ele>380.0</ele><time>2026-03-29T10:36:58Z</time></trkpt><trkpt lat="43.16401745416243" lon="12.237974981092355"><ele>380.0</ele><time>2026-03-29T10:37:01Z</time></trkpt><trkpt lat="43.163943382212004" lon="12.238017184646742"><ele>380.0</ele><time>2026-03-29T10:37:04Z</time></trkpt><trkpt lat="43.164040795564844" lon="12.23769278900613"><ele>377.5</ele><time>2026-03-29T10:37:08Z</time></trkpt><trkpt lat="43.16407484375252" lon="12.237592765393105"><ele>375.0</ele><time>2026-03-29T10:37:09Z</time></trkpt><trkpt lat="43.1641559610723" lon="12.237481046993867"><ele>372.5</ele><time>2026-03-29T10:37:11Z</time></trkpt><trkpt lat="43.16422489702965" lon="12.237446018318973"><ele>370.0</ele><time>2026-03-29T10:37:12Z</time></trkpt><trkpt lat="43.164315999249894" lon="12.23745298955034"><ele>367.5</ele><time>2026-03-29T10:37:13Z</time></trkpt><trkpt lat="43.16439319884336" lon="12.23744966569128"><ele>365.0</ele><time>2026-03-29T10:37:14Z</time></trkpt><trkpt lat="43.16446397290955" lon="12.237459066677413"><ele>365.0</ele><time>2026-03-29T10:37:15Z</time></trkpt><trkpt lat="43.164535266645494" lon="12.237464379704814"><ele>365.0</ele><time>2026-03-29T10:37:16Z</time></trkpt><trkpt lat="43.164598279461" lon="12.237461644816282"><ele>365.0</ele><time>2026-03-29T10:37:17Z</time></trkpt><trkpt lat="43.164677447188375" lon="12.237474462282742"><ele>365.0</ele><time>2026-03-29T10:37:18Z</time></trkpt><trkpt lat="43.16474766784673" lon="12.237488915756053"><ele>365.0</ele><time>2026-03-29T10:37:19Z</time></trkpt><trkpt lat="43.16490885513371" lon="12.237541786309015"><ele>362.0</ele><time>2026-03-29T10:37:20Z</time></trkpt><trkpt lat="43.16500287379001" lon="12.237540882053406"><ele>359.0</ele><time>2026-03-29T10:37:21Z</time></trkpt><trkpt lat="43.16507372886834" lon="12.237531317123441"><ele>356.0</ele><time>2026-03-29T10:37:22Z</time></trkpt><trkpt lat="43.16535439118627" lon="12.2372874262434"><ele>353.8</ele><time>2026-03-29T10:37:23Z</time></trkpt><trkpt lat="43.16541647169696" lon="12.237204305777743"><ele>351.6</ele><time>2026-03-29T10:37:24Z</time></trkpt><trkpt lat="43.16545530618435" lon="12.237098251086394"><ele>349.4</ele><time>2026-03-29T10:37:25Z</time></trkpt><trkpt lat="43.16548406661121" lon="12.236976696546499"><ele>347.2</ele><time>2026-03-29T10:37:27Z</time></trkpt><trkpt lat="43.16558787021857" lon="12.236907035001831"><ele>345.0</ele><time>2026-03-29T10:37:29Z</time></trkpt><trkpt lat="43.165650588348896" lon="12.23685842030552"><ele>343.2</ele><time>2026-03-29T10:37:30Z</time></trkpt><trkpt lat="43.165719911388074" lon="12.236787236550141"><ele>341.4</ele><time>2026-03-29T10:37:31Z</time></trkpt><trkpt lat="43.16578006866831" lon="12.236708775304455"><ele>339.6</ele><time>2026-03-29T10:37:32Z</time></trkpt><trkpt lat="43.16586204611969" lon="12.23663818736141"><ele>337.8</ele><time>2026-03-29T10:37:33Z</time></trkpt><trkpt lat="43.165942894191275" lon="12.236559562979954"><ele>336.0</ele><time>2026-03-29T10:37:34Z</time></trkpt><trkpt lat="43.16602069656302" lon="12.236494750400915"><ele>335.1666666666667</ele><time>2026-03-29T10:37:35Z</time></trkpt><trkpt lat="43.16609428204083" lon="12.236426897496239"><ele>334.3333333333333</ele><time>2026-03-29T10:37:36Z</time></trkpt><trkpt lat="43.16615685217328" lon="12.236349099749694"><ele>333.5</ele><time>2026-03-29T10:37:37Z</time></trkpt><trkpt lat="43.16621519743745" lon="12.236276094512544"><ele>332.66666666666663</ele><time>2026-03-29T10:37:38Z</time></trkpt><trkpt lat="43.16627282338796" lon="12.236222208474443"><ele>331.8333333333333</ele><time>2026-03-29T10:37:39Z</time></trkpt><trkpt lat="43.16633486532295" lon="12.236179410957329"><ele>331.0</ele><time>2026-03-29T10:37:40Z</time></trkpt><trkpt lat="43.16639593173205" lon="12.236123129531302"><ele>331.0</ele><time>2026-03-29T10:37:41Z</time></trkpt><trkpt lat="43.16648689520229" lon="12.23598206500971"><ele>331.0</ele><time>2026-03-29T10:37:43Z</time></trkpt><trkpt lat="43.16654101211706" lon="12.235896063940295"><ele>331.0</ele><time>2026-03-29T10:37:44Z</time></trkpt><trkpt lat="43.16659453479145" lon="12.2358084194679"><ele>331.0</ele><time>2026-03-29T10:37:45Z</time></trkpt><trkpt lat="43.16663834303492" lon="12.235687872404103"><ele>331.0</ele><time>2026-03-29T10:37:46Z</time></trkpt><trkpt lat="43.16668099767342" lon="12.235611436288286"><ele>329.16666666666663</ele><time>2026-03-29T10:37:47Z</time></trkpt><trkpt lat="43.166718692689976" lon="12.235525454271926"><ele>327.3333333333333</ele><time>2026-03-29T10:37:48Z</time></trkpt><trkpt lat="43.166783408793975" lon="12.235456930999609"><ele>325.5</ele><time>2026-03-29T10:37:49Z</time></trkpt><trkpt lat="43.166849897806415" lon="12.235399751038274"><ele>323.6666666666667</ele><time>2026-03-29T10:37:50Z</time></trkpt><trkpt lat="43.16690866574271" lon="12.235323186379908"><ele>321.83333333333337</ele><time>2026-03-29T10:37:51Z</time></trkpt><trkpt lat="43.16695172471466" lon="12.235254197399337"><ele>320.0</ele><time>2026-03-29T10:37:52Z</time></trkpt><trkpt lat="43.1670177102264" lon="12.235119936588571"><ele>320.0</ele><time>2026-03-29T10:37:54Z</time></trkpt><trkpt lat="43.1670098105586" lon="12.23501930501181"><ele>320.0</ele><time>2026-03-29T10:37:55Z</time></trkpt><trkpt lat="43.166971880556375" lon="12.234922583421875"><ele>320.0</ele><time>2026-03-29T10:37:56Z</time></trkpt><trkpt lat="43.16689241601102" lon="12.234825930220941"><ele>320.0</ele><time>2026-03-29T10:37:57Z</time></trkpt><trkpt lat="43.16680963814535" lon="12.234753347801249"><ele>320.0</ele><time>2026-03-29T10:37:58Z</time></trkpt><trkpt lat="43.16673363925004" lon="12.234684900928462"><ele>320.0</ele><time>2026-03-29T10:37:59Z</time></trkpt><trkpt lat="43.16665482424609" lon="12.234605997704982"><ele>317.6</ele><time>2026-03-29T10:38:01Z</time></trkpt><trkpt lat="43.16668841247422" lon="12.234528403514341"><ele>315.2</ele><time>2026-03-29T10:38:03Z</time></trkpt><trkpt lat="43.16667748948105" lon="12.234378408035056"><ele>312.8</ele><time>2026-03-29T10:38:05Z</time></trkpt><trkpt lat="43.166625929153376" lon="12.234268503061253"><ele>310.4</ele><time>2026-03-29T10:38:06Z</time></trkpt><trkpt lat="43.166568541143505" lon="12.234150754396957"><ele>308.0</ele><time>2026-03-29T10:38:07Z</time></trkpt><trkpt lat="43.166519397129434" lon="12.234008610755817"><ele>304.75</ele><time>2026-03-29T10:38:08Z</time></trkpt><trkpt lat="43.1664813380527" lon="12.233853041084306"><ele>301.5</ele><time>2026-03-29T10:38:09Z</time></trkpt><trkpt lat="43.16643223446147" lon="12.233691889882492"><ele>298.25</ele><time>2026-03-29T10:38:10Z</time></trkpt><trkpt lat="43.166387507194344" lon="12.23352825517065"><ele>295.0</ele><time>2026-03-29T10:38:11Z</time></trkpt><trkpt lat="43.16635096291561" lon="12.233353257861394"><ele>295.0</ele><time>2026-03-29T10:38:12Z</time></trkpt><trkpt lat="43.16631499275405" lon="12.233180663757997"><ele>295.0</ele><time>2026-03-29T10:38:13Z</time></trkpt><trkpt lat="43.16627802633332" lon="12.233011810254084"><ele>295.0</ele><time>2026-03-29T10:38:14Z</time></trkpt><trkpt lat="43.166241774242295" lon="12.232843720772633"><ele>295.0</ele><time>2026-03-29T10:38:15Z</time></trkpt><trkpt lat="43.16621959828605" lon="12.232694777464534"><ele>293.6</ele><time>2026-03-29T10:38:16Z</time></trkpt><trkpt lat="43.166217143567344" lon="12.232576946703386"><ele>292.2</ele><time>2026-03-29T10:38:17Z</time></trkpt><trkpt lat="43.16624701105466" lon="12.232482166473503"><ele>290.8</ele><time>2026-03-29T10:38:18Z</time></trkpt><trkpt lat="43.16626113440881" lon="12.232321735732322"><ele>289.4</ele><time>2026-03-29T10:38:19Z</time></trkpt><trkpt lat="43.166262728510496" lon="12.232152904791572"><ele>288.0</ele><time>2026-03-29T10:38:20Z</time></trkpt><trkpt lat="43.166280669312194" lon="12.232010789346564"><ele>287.0</ele><time>2026-03-29T10:38:21Z</time></trkpt><trkpt lat="43.166253190995" lon="12.231880912149641"><ele>286.0</ele><time>2026-03-29T10:38:22Z</time></trkpt><trkpt lat="43.166198924123805" lon="12.231767183465141"><ele>285.0</ele><time>2026-03-29T10:38:23Z</time></trkpt><trkpt lat="43.16615105524444" lon="12.231663779794145"><ele>284.0</ele><time>2026-03-29T10:38:24Z</time></trkpt><trkpt lat="43.16621194404633" lon="12.231469704120782"><ele>283.0</ele><time>2026-03-29T10:38:26Z</time></trkpt><trkpt lat="43.16624510216995" lon="12.231356090550769"><ele>281.2</ele><time>2026-03-29T10:38:27Z</time></trkpt><trkpt lat="43.16621346883105" lon="12.231237776615586"><ele>279.4</ele><time>2026-03-29T10:38:29Z</time></trkpt><trkpt lat="43.16608481617833" lon="12.231154031284962"><ele>277.59999999999997</ele><time>2026-03-29T10:38:31Z</time></trkpt><trkpt lat="43.16599433533666" lon="12.231149415405152"><ele>275.8</ele><time>2026-03-29T10:38:32Z</time></trkpt><trkpt lat="43.1658937692877" lon="12.231143613324663"><ele>274.0</ele><time>2026-03-29T10:38:33Z</time></trkpt><trkpt lat="43.1657898088606" lon="12.231182099824412"><ele>274.0</ele><time>2026-03-29T10:38:34Z</time></trkpt><trkpt lat="43.165701389075544" lon="12.231244891143481"><ele>274.0</ele><time>2026-03-29T10:38:35Z</time></trkpt><trkpt lat="43.165660494389975" lon="12.231364243892036"><ele>274.0</ele><time>2026-03-29T10:38:36Z</time></trkpt><trkpt lat="43.16564911820815" lon="12.23147496673827"><ele>274.0</ele><time>2026-03-29T10:38:37Z</time></trkpt><trkpt lat="43.165667317000555" lon="12.231642622332634"><ele>274.0</ele><time>2026-03-29T10:38:38Z</time></trkpt><trkpt lat="43.1656635491852" lon="12.23181044830005"><ele>274.3333333333333</ele><time>2026-03-29T10:38:39Z</time></trkpt><trkpt lat="43.16564878350014" lon="12.231919969135623"><ele>274.66666666666663</ele><time>2026-03-29T10:38:40Z</time></trkpt><trkpt lat="43.16561414545391" lon="12.232008500509394"><ele>275.0</ele><time>2026-03-29T10:38:41Z</time></trkpt><trkpt lat="43.165554925316805" lon="12.232041153529552"><ele>275.3333333333333</ele><time>2026-03-29T10:38:42Z</time></trkpt><trkpt lat="43.16547415314465" lon="12.231987195184724"><ele>275.6666666666667</ele><time>2026-03-29T10:38:44Z</time></trkpt><trkpt lat="43.16542392674115" lon="12.231917323818104"><ele>276.0</ele><time>2026-03-29T10:38:45Z</time></trkpt><trkpt lat="43.16535038399553" lon="12.23181920375201"><ele>276.0</ele><time>2026-03-29T10:38:46Z</time></trkpt><trkpt lat="43.16527432335283" lon="12.231724955269405"><ele>276.0</ele><time>2026-03-29T10:38:47Z</time></trkpt><trkpt lat="43.165195756241815" lon="12.231591080046186"><ele>276.0</ele><time>2026-03-29T10:38:48Z</time></trkpt><trkpt lat="43.16510003082714" lon="12.23141220408448"><ele>276.0</ele><time>2026-03-29T10:38:49Z</time></trkpt><trkpt lat="43.16499115605419" lon="12.231177717271395"><ele>274.6666666666667</ele><time>2026-03-29T10:38:50Z</time></trkpt><trkpt lat="43.16488778238832" lon="12.230991038399711"><ele>273.33333333333337</ele><time>2026-03-29T10:38:51Z</time></trkpt><trkpt lat="43.164799823300434" lon="12.230832411944709"><ele>272.0</ele><time>2026-03-29T10:38:52Z</time></trkpt><trkpt lat="43.16471188931625" lon="12.230648981484684"><ele>271.5</ele><time>2026-03-29T10:38:53Z</time></trkpt><trkpt lat="43.16465021444927" lon="12.230474290031742"><ele>271.0</ele><time>2026-03-29T10:38:54Z</time></trkpt><trkpt lat="43.16461819062448" lon="12.23028621697861"><ele>270.5</ele><time>2026-03-29T10:38:55Z</time></trkpt><trkpt lat="43.1646102041558" lon="12.230077926185722"><ele>270.0</ele><time>2026-03-29T10:38:56Z</time></trkpt><trkpt lat="43.16463216310459" lon="12.229854992528777"><ele>269.3333333333333</ele><time>2026-03-29T10:38:57Z</time></trkpt><trkpt lat="43.164689402535565" lon="12.229620605454834"><ele>268.66666666666663</ele><time>2026-03-29T10:38:58Z</time></trkpt><trkpt lat="43.16474798430021" lon="12.229376125538234"><ele>268.0</ele><time>2026-03-29T10:38:59Z</time></trkpt><trkpt lat="43.164826573438106" lon="12.229174479645245"><ele>267.0</ele><time>2026-03-29T10:39:00Z</time></trkpt><trkpt lat="43.164908494406774" lon="12.22896985003641"><ele>266.0</ele><time>2026-03-29T10:39:01Z</time></trkpt><trkpt lat="43.16499898853721" lon="12.228747283189582"><ele>265.0</ele><time>2026-03-29T10:39:02Z</time></trkpt><trkpt lat="43.165094855939316" lon="12.228521885774612"><ele>265.0</ele><time>2026-03-29T10:39:03Z</time></trkpt><trkpt lat="43.16520007744676" lon="12.228328192668254"><ele>265.0</ele><time>2026-03-29T10:39:04Z</time></trkpt><trkpt lat="43.16531520239683" lon="12.228185006301073"><ele>265.0</ele><time>2026-03-29T10:39:05Z</time></trkpt><trkpt lat="43.165424839290154" lon="12.228047746011427"><ele>264.25</ele><time>2026-03-29T10:39:06Z</time></trkpt><trkpt lat="43.16549251678288" lon="12.22790819468925"><ele>263.5</ele><time>2026-03-29T10:39:07Z</time></trkpt><trkpt lat="43.16558363032365" lon="12.227834253064827"><ele>262.75</ele><time>2026-03-29T10:39:08Z</time></trkpt><trkpt lat="43.16571057512511" lon="12.227796605498492"><ele>262.0</ele><time>2026-03-29T10:39:09Z</time></trkpt><trkpt lat="43.16584653786648" lon="12.22768808670286"><ele>261.66666666666663</ele><time>2026-03-29T10:39:10Z</time></trkpt><trkpt lat="43.16599803213183" lon="12.227503114548789"><ele>261.3333333333333</ele><time>2026-03-29T10:39:11Z</time></trkpt><trkpt lat="43.16616427084288" lon="12.227305329446207"><ele>261.0</ele><time>2026-03-29T10:39:12Z</time></trkpt><trkpt lat="43.166336439768465" lon="12.22714407125488"><ele>261.0</ele><time>2026-03-29T10:39:13Z</time></trkpt><trkpt lat="43.166488292145" lon="12.227017167237586"><ele>261.0</ele><time>2026-03-29T10:39:14Z</time></trkpt><trkpt lat="43.166601536819904" lon="12.226882551165202"><ele>261.0</ele><time>2026-03-29T10:39:15Z</time></trkpt><trkpt lat="43.16670130737529" lon="12.226716643399874"><ele>261.0</ele><time>2026-03-29T10:39:16Z</time></trkpt><trkpt lat="43.16678446910544" lon="12.226524170893937"><ele>261.0</ele><time>2026-03-29T10:39:17Z</time></trkpt><trkpt lat="43.1668572382684" lon="12.226367551826788"><ele>261.0</ele><time>2026-03-29T10:39:18Z</time></trkpt><trkpt lat="43.16692289293424" lon="12.226274756921427"><ele>261.0</ele><time>2026-03-29T10:39:19Z</time></trkpt><trkpt lat="43.16696645751994" lon="12.226179620105086"><ele>261.25</ele><time>2026-03-29T10:39:20Z</time></trkpt><trkpt lat="43.16699855892049" lon="12.226100950103229"><ele>261.5</ele><time>2026-03-29T10:39:22Z</time></trkpt><trkpt lat="43.16686277293521" lon="12.225968013652922"><ele>261.75</ele><time>2026-03-29T10:39:23Z</time></trkpt><trkpt lat="43.16678217351124" lon="12.225892137443747"><ele>262.0</ele><time>2026-03-29T10:39:24Z</time></trkpt><trkpt lat="43.16665805459869" lon="12.225760157633125"><ele>261.0</ele><time>2026-03-29T10:39:25Z</time></trkpt><trkpt lat="43.16650853877447" lon="12.225616087740546"><ele>260.0</ele><time>2026-03-29T10:39:26Z</time></trkpt><trkpt lat="43.166352212651354" lon="12.22546545581667"><ele>259.0</ele><time>2026-03-29T10:39:27Z</time></trkpt><trkpt lat="43.16619536314799" lon="12.225314319082358"><ele>259.0</ele><time>2026-03-29T10:39:28Z</time></trkpt><trkpt lat="43.16602989866383" lon="12.225154881352386"><ele>259.0</ele><time>2026-03-29T10:39:29Z</time></trkpt><trkpt lat="43.165867365027026" lon="12.224997856466677"><ele>259.0</ele><time>2026-03-29T10:39:30Z</time></trkpt><trkpt lat="43.16569904082816" lon="12.224830443340053"><ele>258.66666666666663</ele><time>2026-03-29T10:39:31Z</time></trkpt><trkpt lat="43.1655459610333" lon="12.224662424549939"><ele>258.3333333333333</ele><time>2026-03-29T10:39:32Z</time></trkpt><trkpt lat="43.16540725905741" lon="12.224497311403985"><ele>258.0</ele><time>2026-03-29T10:39:33Z</time></trkpt><trkpt lat="43.16526747999676" lon="12.22431884591563"><ele>258.0</ele><time>2026-03-29T10:39:34Z</time></trkpt><trkpt lat="43.16513131364362" lon="12.224141739897414"><ele>258.0</ele><time>2026-03-29T10:39:35Z</time></trkpt><trkpt lat="43.164999428121355" lon="12.223970984719505"><ele>258.0</ele><time>2026-03-29T10:39:36Z</time></trkpt><trkpt lat="43.16486722466656" lon="12.223799817894506"><ele>257.0</ele><time>2026-03-29T10:39:37Z</time></trkpt><trkpt lat="43.16473207138384" lon="12.223624831700523"><ele>256.0</ele><time>2026-03-29T10:39:38Z</time></trkpt><trkpt lat="43.16460615645359" lon="12.223461806756792"><ele>255.0</ele><time>2026-03-29T10:39:39Z</time></trkpt><trkpt lat="43.164488956729" lon="12.223307756038006"><ele>255.0</ele><time>2026-03-29T10:39:40Z</time></trkpt><trkpt lat="43.16438182694076" lon="12.223165109627747"><ele>255.0</ele><time>2026-03-29T10:39:41Z</time></trkpt><trkpt lat="43.1642731927494" lon="12.223017108187836"><ele>255.0</ele><time>2026-03-29T10:39:42Z</time></trkpt><trkpt lat="43.16416151944104" lon="12.222862537568687"><ele>255.0</ele><time>2026-03-29T10:39:43Z</time></trkpt><trkpt lat="43.16405818991726" lon="12.22271910429592"><ele>255.0</ele><time>2026-03-29T10:39:44Z</time></trkpt><trkpt lat="43.16395789266922" lon="12.222579880243083"><ele>255.0</ele><time>2026-03-29T10:39:45Z</time></trkpt><trkpt lat="43.163860376797814" lon="12.222444516924702"><ele>255.0</ele><time>2026-03-29T10:39:46Z</time></trkpt><trkpt lat="43.163773487774414" lon="12.222323904940344"><ele>255.0</ele><time>2026-03-29T10:39:47Z</time></trkpt><trkpt lat="43.16369104251566" lon="12.222209461751854"><ele>255.0</ele><time>2026-03-29T10:39:48Z</time></trkpt><trkpt lat="43.1636298112265" lon="12.222124465689518"><ele>255.0</ele><time>2026-03-29T10:39:49Z</time></trkpt><trkpt lat="43.16356181053238" lon="12.222030072627836"><ele>255.0</ele><time>2026-03-29T10:39:51Z</time></trkpt><trkpt lat="43.16352301127329" lon="12.221917595641512"><ele>255.0</ele><time>2026-03-29T10:39:53Z</time></trkpt><trkpt lat="43.16369664691861" lon="12.221810358612068"><ele>255.0</ele><time>2026-03-29T10:39:56Z</time></trkpt><trkpt lat="43.16379108748368" lon="12.221729359889279"><ele>255.0</ele><time>2026-03-29T10:39:57Z</time></trkpt><trkpt lat="43.16391124395805" lon="12.221632012052847"><ele>255.0</ele><time>2026-03-29T10:39:58Z</time></trkpt><trkpt lat="43.164036775594326" lon="12.221524831940037"><ele>255.0</ele><time>2026-03-29T10:39:59Z</time></trkpt><trkpt lat="43.16415748658643" lon="12.221420045219688"><ele>255.5</ele><time>2026-03-29T10:40:00Z</time></trkpt><trkpt lat="43.1642776411259" lon="12.221313933351981"><ele>256.0</ele><time>2026-03-29T10:40:01Z</time></trkpt><trkpt lat="43.164400228981066" lon="12.221212933841977"><ele>256.5</ele><time>2026-03-29T10:40:02Z</time></trkpt><trkpt lat="43.16449954148368" lon="12.221134613755552"><ele>257.0</ele><time>2026-03-29T10:40:03Z</time></trkpt><trkpt lat="43.16459133239165" lon="12.22106178463838"><ele>257.0</ele><time>2026-03-29T10:40:04Z</time></trkpt><trkpt lat="43.164682014791865" lon="12.220993469381204"><ele>257.0</ele><time>2026-03-29T10:40:05Z</time></trkpt><trkpt lat="43.164789632271614" lon="12.220914211326772"><ele>257.0</ele><time>2026-03-29T10:40:06Z</time></trkpt><trkpt lat="43.164881667282835" lon="12.220845331872402"><ele>257.0</ele><time>2026-03-29T10:40:07Z</time></trkpt><trkpt lat="43.16498801514108" lon="12.220779699312281"><ele>257.0</ele><time>2026-03-29T10:40:08Z</time></trkpt><trkpt lat="43.165115749123096" lon="12.220710012104245"><ele>257.5</ele><time>2026-03-29T10:40:09Z</time></trkpt><trkpt lat="43.165236020016856" lon="12.220640664771816"><ele>258.0</ele><time>2026-03-29T10:40:10Z</time></trkpt><trkpt lat="43.16536405928639" lon="12.22056702054074"><ele>258.5</ele><time>2026-03-29T10:40:11Z</time></trkpt><trkpt lat="43.16549239470475" lon="12.22050353178131"><ele>259.0</ele><time>2026-03-29T10:40:12Z</time></trkpt><trkpt lat="43.165615714193265" lon="12.220450370179169"><ele>259.0</ele><time>2026-03-29T10:40:13Z</time></trkpt><trkpt lat="43.16573984447559" lon="12.220386613880816"><ele>259.0</ele><time>2026-03-29T10:40:14Z</time></trkpt><trkpt lat="43.16587404526783" lon="12.220301898328403"><ele>259.0</ele><time>2026-03-29T10:40:15Z</time></trkpt><trkpt lat="43.16601192952512" lon="12.220232023046723"><ele>259.0</ele><time>2026-03-29T10:40:16Z</time></trkpt><trkpt lat="43.16614941583561" lon="12.220153088405258"><ele>259.0</ele><time>2026-03-29T10:40:17Z</time></trkpt><trkpt lat="43.166280486222746" lon="12.220099438107995"><ele>259.0</ele><time>2026-03-29T10:40:18Z</time></trkpt><trkpt lat="43.166394993083465" lon="12.22004459913245"><ele>259.0</ele><time>2026-03-29T10:40:19Z</time></trkpt><trkpt lat="43.1665204857044" lon="12.219963391872554"><ele>259.0</ele><time>2026-03-29T10:40:20Z</time></trkpt><trkpt lat="43.16665645325882" lon="12.219883349402844"><ele>259.3333333333333</ele><time>2026-03-29T10:40:21Z</time></trkpt><trkpt lat="43.16680200813768" lon="12.21979776228209"><ele>259.6666666666667</ele><time>2026-03-29T10:40:22Z</time></trkpt><trkpt lat="43.166949243017655" lon="12.219710075757552"><ele>260.0</ele><time>2026-03-29T10:40:23Z</time></trkpt><trkpt lat="43.16709928256637" lon="12.219626524865365"><ele>260.0</ele><time>2026-03-29T10:40:24Z</time></trkpt><trkpt lat="43.16725161228539" lon="12.219541240372534"><ele>260.0</ele><time>2026-03-29T10:40:25Z</time></trkpt><trkpt lat="43.167394118631286" lon="12.219465040604213"><ele>260.0</ele><time>2026-03-29T10:40:26Z</time></trkpt><trkpt lat="43.16755572958631" lon="12.219399271906166"><ele>260.33333333333337</ele><time>2026-03-29T10:40:27Z</time></trkpt><trkpt lat="43.167718624027664" lon="12.219318481183217"><ele>260.6666666666667</ele><time>2026-03-29T10:40:28Z</time></trkpt><trkpt lat="43.167880828891576" lon="12.219229551549223"><ele>261.0</ele><time>2026-03-29T10:40:29Z</time></trkpt><trkpt lat="43.16803024084353" lon="12.219146362951795"><ele>261.0</ele><time>2026-03-29T10:40:30Z</time></trkpt><trkpt lat="43.168183432338786" lon="12.21907203997706"><ele>261.0</ele><time>2026-03-29T10:40:31Z</time></trkpt><trkpt lat="43.16832989816351" lon="12.218995940259296"><ele>261.0</ele><time>2026-03-29T10:40:32Z</time></trkpt><trkpt lat="43.168474284445324" lon="12.218912063885575"><ele>261.6666666666667</ele><time>2026-03-29T10:40:33Z</time></trkpt><trkpt lat="43.16861844910991" lon="12.218833213676437"><ele>262.33333333333337</ele><time>2026-03-29T10:40:34Z</time></trkpt><trkpt lat="43.168761852727734" lon="12.218757849158353"><ele>263.0</ele><time>2026-03-29T10:40:35Z</time></trkpt><trkpt lat="43.16889870156401" lon="12.218681563647895"><ele>264.0</ele><time>2026-03-29T10:40:36Z</time></trkpt><trkpt lat="43.16903783447493" lon="12.218607337862776"><ele>265.0</ele><time>2026-03-29T10:40:37Z</time></trkpt><trkpt lat="43.1691696264115" lon="12.218536855768198"><ele>266.0</ele><time>2026-03-29T10:40:38Z</time></trkpt><trkpt lat="43.16931062773633" lon="12.218456583370841"><ele>267.0</ele><time>2026-03-29T10:40:39Z</time></trkpt><trkpt lat="43.16944956513799" lon="12.218378085523943"><ele>267.0</ele><time>2026-03-29T10:40:40Z</time></trkpt><trkpt lat="43.16956891811361" lon="12.21831143483274"><ele>267.0</ele><time>2026-03-29T10:40:41Z</time></trkpt><trkpt lat="43.16966621070881" lon="12.218259292647284"><ele>267.0</ele><time>2026-03-29T10:40:42Z</time></trkpt><trkpt lat="43.169744203071595" lon="12.21821142064058"><ele>267.0</ele><time>2026-03-29T10:40:43Z</time></trkpt><trkpt lat="43.16984664084039" lon="12.218313820930511"><ele>267.0</ele><time>2026-03-29T10:40:44Z</time></trkpt><trkpt lat="43.16996173975598" lon="12.218256315147887"><ele>267.4</ele><time>2026-03-29T10:40:46Z</time></trkpt><trkpt lat="43.1700239147462" lon="12.218225250348185"><ele>267.79999999999995</ele><time>2026-03-29T10:40:48Z</time></trkpt><trkpt lat="43.1701489361492" lon="12.218166611008314"><ele>268.2</ele><time>2026-03-29T10:40:50Z</time></trkpt><trkpt lat="43.170224669451486" lon="12.218137103308198"><ele>268.59999999999997</ele><time>2026-03-29T10:40:51Z</time></trkpt><trkpt lat="43.17032079071283" lon="12.218100223757983"><ele>269.0</ele><time>2026-03-29T10:40:52Z</time></trkpt><trkpt lat="43.17041413647573" lon="12.218064409229315"><ele>269.0</ele><time>2026-03-29T10:40:53Z</time></trkpt><trkpt lat="43.17048779059604" lon="12.218036077335398"><ele>269.0</ele><time>2026-03-29T10:40:54Z</time></trkpt><trkpt lat="43.170572537453346" lon="12.218003286021922"><ele>269.0</ele><time>2026-03-29T10:40:55Z</time></trkpt><trkpt lat="43.17064435777428" lon="12.217975496383547"><ele>269.0</ele><time>2026-03-29T10:40:56Z</time></trkpt><trkpt lat="43.17071460585288" lon="12.217948165580195"><ele>269.0</ele><time>2026-03-29T10:40:57Z</time></trkpt><trkpt lat="43.170844527472646" lon="12.217896434962347"><ele>269.0</ele><time>2026-03-29T10:40:59Z</time></trkpt><trkpt lat="43.1709378612866" lon="12.217859272347928"><ele>270.0</ele><time>2026-03-29T10:41:00Z</time></trkpt><trkpt lat="43.17101094278392" lon="12.217831246601355"><ele>271.0</ele><time>2026-03-29T10:41:01Z</time></trkpt><trkpt lat="43.1710851597331" lon="12.21780414531431"><ele>272.0</ele><time>2026-03-29T10:41:02Z</time></trkpt><trkpt lat="43.17116878435635" lon="12.217774266698305"><ele>273.0</ele><time>2026-03-29T10:41:03Z</time></trkpt><trkpt lat="43.17126618760898" lon="12.217738893306091"><ele>274.0</ele><time>2026-03-29T10:41:04Z</time></trkpt><trkpt lat="43.17136530202179" lon="12.21770020432541"><ele>275.0</ele><time>2026-03-29T10:41:05Z</time></trkpt><trkpt lat="43.17145224975304" lon="12.217666264440028"><ele>276.2</ele><time>2026-03-29T10:41:06Z</time></trkpt><trkpt lat="43.1715477691256" lon="12.217629790112811"><ele>277.4</ele><time>2026-03-29T10:41:07Z</time></trkpt><trkpt lat="43.17163495519983" lon="12.217577184109041"><ele>278.6</ele><time>2026-03-29T10:41:08Z</time></trkpt><trkpt lat="43.17172627920783" lon="12.2175522127444"><ele>279.8</ele><time>2026-03-29T10:41:09Z</time></trkpt><trkpt lat="43.1718223649534" lon="12.217576203515533"><ele>281.0</ele><time>2026-03-29T10:41:10Z</time></trkpt><trkpt lat="43.17190346561144" lon="12.217631674463377"><ele>281.0</ele><time>2026-03-29T10:41:11Z</time></trkpt><trkpt lat="43.17199311083358" lon="12.217688116711841"><ele>281.0</ele><time>2026-03-29T10:41:12Z</time></trkpt><trkpt lat="43.17207837074615" lon="12.217732246841273"><ele>281.0</ele><time>2026-03-29T10:41:13Z</time></trkpt><trkpt lat="43.172184741427856" lon="12.21778177033786"><ele>281.0</ele><time>2026-03-29T10:41:14Z</time></trkpt><trkpt lat="43.17229109844255" lon="12.217824009285637"><ele>281.0</ele><time>2026-03-29T10:41:15Z</time></trkpt><trkpt lat="43.17238334577788" lon="12.217858022630441"><ele>282.2</ele><time>2026-03-29T10:41:16Z</time></trkpt><trkpt lat="43.172471686543005" lon="12.217889693057202"><ele>283.40000000000003</ele><time>2026-03-29T10:41:17Z</time></trkpt><trkpt lat="43.172565632115024" lon="12.217923372862327"><ele>284.6</ele><time>2026-03-29T10:41:18Z</time></trkpt><trkpt lat="43.17267449838209" lon="12.217942688864627"><ele>285.8</ele><time>2026-03-29T10:41:19Z</time></trkpt><trkpt lat="43.17277971283461" lon="12.217987933296424"><ele>287.0</ele><time>2026-03-29T10:41:20Z</time></trkpt><trkpt lat="43.17287900499249" lon="12.218052868673057"><ele>287.0</ele><time>2026-03-29T10:41:21Z</time></trkpt><trkpt lat="43.17299304069942" lon="12.218101960669495"><ele>287.0</ele><time>2026-03-29T10:41:22Z</time></trkpt><trkpt lat="43.173080114958005" lon="12.218139513820176"><ele>287.0</ele><time>2026-03-29T10:41:23Z</time></trkpt><trkpt lat="43.17316639146578" lon="12.218176708136058"><ele>287.0</ele><time>2026-03-29T10:41:24Z</time></trkpt><trkpt lat="43.173235122101076" lon="12.218182661557455"><ele>287.0</ele><time>2026-03-29T10:41:25Z</time></trkpt><trkpt lat="43.17338940645435" lon="12.217998909774732"><ele>287.0</ele><time>2026-03-29T10:41:29Z</time></trkpt><trkpt lat="43.17341039957525" lon="12.217834876288492"><ele>287.0</ele><time>2026-03-29T10:41:30Z</time></trkpt><trkpt lat="43.17343419604828" lon="12.21765973149647"><ele>287.0</ele><time>2026-03-29T10:41:31Z</time></trkpt><trkpt lat="43.17346625477098" lon="12.217442678131869"><ele>287.0</ele><time>2026-03-29T10:41:32Z</time></trkpt><trkpt lat="43.17349987667612" lon="12.217221011997918"><ele>287.0</ele><time>2026-03-29T10:41:33Z</time></trkpt><trkpt lat="43.17353016129584" lon="12.217021348956456"><ele>287.0</ele><time>2026-03-29T10:41:34Z</time></trkpt><trkpt lat="43.17356205129974" lon="12.216811101175733"><ele>287.0</ele><time>2026-03-29T10:41:35Z</time></trkpt><trkpt lat="43.17359191372778" lon="12.216599556484189"><ele>286.33333333333337</ele><time>2026-03-29T10:41:36Z</time></trkpt><trkpt lat="43.17361917241679" lon="12.216384728544774"><ele>285.6666666666667</ele><time>2026-03-29T10:41:37Z</time></trkpt><trkpt lat="43.173648396851384" lon="12.216161918120063"><ele>285.0</ele><time>2026-03-29T10:41:38Z</time></trkpt><trkpt lat="43.17367994771447" lon="12.215955164242063"><ele>285.0</ele><time>2026-03-29T10:41:39Z</time></trkpt><trkpt lat="43.17370701694405" lon="12.21575659763645"><ele>285.0</ele><time>2026-03-29T10:41:40Z</time></trkpt><trkpt lat="43.17372645083551" lon="12.215577054402058"><ele>285.0</ele><time>2026-03-29T10:41:41Z</time></trkpt><trkpt lat="43.173739481545404" lon="12.21541211815426"><ele>285.0</ele><time>2026-03-29T10:41:42Z</time></trkpt><trkpt lat="43.1737444108838" lon="12.215271581771576"><ele>284.8</ele><time>2026-03-29T10:41:43Z</time></trkpt><trkpt lat="43.17373495002522" lon="12.215157955711595"><ele>284.6</ele><time>2026-03-29T10:41:44Z</time></trkpt><trkpt lat="43.1737826652475" lon="12.215076094579045"><ele>284.4</ele><time>2026-03-29T10:41:45Z</time></trkpt><trkpt lat="43.173799625773526" lon="12.214960527912753"><ele>284.2</ele><time>2026-03-29T10:41:47Z</time></trkpt><trkpt lat="43.17362656293882" lon="12.214893299256952"><ele>284.0</ele><time>2026-03-29T10:41:48Z</time></trkpt><trkpt lat="43.17353041078316" lon="12.214880575792934"><ele>284.0</ele><time>2026-03-29T10:41:49Z</time></trkpt><trkpt lat="43.17341594449555" lon="12.214837571546216"><ele>284.0</ele><time>2026-03-29T10:41:50Z</time></trkpt><trkpt lat="43.173292566945186" lon="12.214806485784642"><ele>284.0</ele><time>2026-03-29T10:41:51Z</time></trkpt><trkpt lat="43.17316537478066" lon="12.214758654734231"><ele>284.0</ele><time>2026-03-29T10:41:52Z</time></trkpt><trkpt lat="43.17304191820648" lon="12.214691508831525"><ele>283.0</ele><time>2026-03-29T10:41:53Z</time></trkpt><trkpt lat="43.17292604581654" lon="12.214610972208671"><ele>282.0</ele><time>2026-03-29T10:41:54Z</time></trkpt><trkpt lat="43.172824351820054" lon="12.214515391874128"><ele>281.0</ele><time>2026-03-29T10:41:55Z</time></trkpt><trkpt lat="43.17272284920796" lon="12.214414149409148"><ele>280.0</ele><time>2026-03-29T10:41:56Z</time></trkpt><trkpt lat="43.17264324297697" lon="12.214285417054171"><ele>280.0</ele><time>2026-03-29T10:41:57Z</time></trkpt><trkpt lat="43.172604531467" lon="12.2141338591105"><ele>280.0</ele><time>2026-03-29T10:41:58Z</time></trkpt><trkpt lat="43.17259521937292" lon="12.213970066674626"><ele>280.0</ele><time>2026-03-29T10:41:59Z</time></trkpt><trkpt lat="43.17260889336781" lon="12.213806254191683"><ele>280.0</ele><time>2026-03-29T10:42:00Z</time></trkpt><trkpt lat="43.1726527297154" lon="12.2136526520632"><ele>279.5</ele><time>2026-03-29T10:42:01Z</time></trkpt><trkpt lat="43.172736484861495" lon="12.213502672913034"><ele>279.0</ele><time>2026-03-29T10:42:02Z</time></trkpt><trkpt lat="43.17283085409792" lon="12.213337978384818"><ele>278.5</ele><time>2026-03-29T10:42:03Z</time></trkpt><trkpt lat="43.17293236403695" lon="12.213171507482377"><ele>278.0</ele><time>2026-03-29T10:42:04Z</time></trkpt><trkpt lat="43.17302736326225" lon="12.213005024645046"><ele>278.0</ele><time>2026-03-29T10:42:05Z</time></trkpt><trkpt lat="43.17310445940102" lon="12.212824239852846"><ele>278.0</ele><time>2026-03-29T10:42:06Z</time></trkpt><trkpt lat="43.17318234473755" lon="12.21267230411196"><ele>278.0</ele><time>2026-03-29T10:42:07Z</time></trkpt><trkpt lat="43.17324553771581" lon="12.212508640273969"><ele>278.0</ele><time>2026-03-29T10:42:08Z</time></trkpt><trkpt lat="43.17329929574573" lon="12.212348368486824"><ele>278.0</ele><time>2026-03-29T10:42:09Z</time></trkpt><trkpt lat="43.173355446288475" lon="12.21219211357819"><ele>278.0</ele><time>2026-03-29T10:42:10Z</time></trkpt><trkpt lat="43.173428490883516" lon="12.212047216976295"><ele>278.0</ele><time>2026-03-29T10:42:11Z</time></trkpt><trkpt lat="43.17348266403306" lon="12.211884826283251"><ele>278.0</ele><time>2026-03-29T10:42:12Z</time></trkpt><trkpt lat="43.17350635902498" lon="12.211711037324303"><ele>278.0</ele><time>2026-03-29T10:42:13Z</time></trkpt><trkpt lat="43.17351830118281" lon="12.211539849298576"><ele>278.0</ele><time>2026-03-29T10:42:14Z</time></trkpt><trkpt lat="43.173559471072664" lon="12.211391376853298"><ele>278.0</ele><time>2026-03-29T10:42:15Z</time></trkpt><trkpt lat="43.173615119236416" lon="12.211247045436059"><ele>278.0</ele><time>2026-03-29T10:42:16Z</time></trkpt><trkpt lat="43.17369374127452" lon="12.211123283777939"><ele>277.75</ele><time>2026-03-29T10:42:17Z</time></trkpt><trkpt lat="43.17379704328242" lon="12.21103069564764"><ele>277.5</ele><time>2026-03-29T10:42:18Z</time></trkpt><trkpt lat="43.17392094956656" lon="12.210963697954556"><ele>277.25</ele><time>2026-03-29T10:42:19Z</time></trkpt><trkpt lat="43.17406576103817" lon="12.210895587565851"><ele>277.0</ele><time>2026-03-29T10:42:20Z</time></trkpt><trkpt lat="43.174193667044335" lon="12.21080069460051"><ele>277.75</ele><time>2026-03-29T10:42:21Z</time></trkpt><trkpt lat="43.17431052834554" lon="12.210688733638664"><ele>278.5</ele><time>2026-03-29T10:42:22Z</time></trkpt><trkpt lat="43.17441290847533" lon="12.210528876921403"><ele>279.25</ele><time>2026-03-29T10:42:23Z</time></trkpt><trkpt lat="43.17451891989186" lon="12.210409728856959"><ele>280.0</ele><time>2026-03-29T10:42:24Z</time></trkpt><trkpt lat="43.174629281971754" lon="12.210320421186886"><ele>280.0</ele><time>2026-03-29T10:42:25Z</time></trkpt><trkpt lat="43.1747512296118" lon="12.210272439237091"><ele>280.0</ele><time>2026-03-29T10:42:26Z</time></trkpt><trkpt lat="43.17487423313407" lon="12.210224134621678"><ele>280.0</ele><time>2026-03-29T10:42:27Z</time></trkpt><trkpt lat="43.17497911179663" lon="12.21016017178761"><ele>280.0</ele><time>2026-03-29T10:42:28Z</time></trkpt><trkpt lat="43.175070202860255" lon="12.210109937018618"><ele>280.66666666666663</ele><time>2026-03-29T10:42:29Z</time></trkpt><trkpt lat="43.175123060182386" lon="12.210051362309917"><ele>281.3333333333333</ele><time>2026-03-29T10:42:30Z</time></trkpt><trkpt lat="43.17514407283387" lon="12.209959933886408"><ele>282.0</ele><time>2026-03-29T10:42:32Z</time></trkpt><trkpt lat="43.17518593522736" lon="12.2098949791313"><ele>282.6666666666667</ele><time>2026-03-29T10:42:33Z</time></trkpt><trkpt lat="43.175221660671134" lon="12.209818468656758"><ele>283.33333333333337</ele><time>2026-03-29T10:42:34Z</time></trkpt><trkpt lat="43.17512475716406" lon="12.20961505384906"><ele>284.0</ele><time>2026-03-29T10:42:35Z</time></trkpt><trkpt lat="43.17510973714447" lon="12.209484067811896"><ele>284.0</ele><time>2026-03-29T10:42:36Z</time></trkpt><trkpt lat="43.175090718115925" lon="12.209327184448883"><ele>284.0</ele><time>2026-03-29T10:42:37Z</time></trkpt><trkpt lat="43.175062373047815" lon="12.209159352749772"><ele>284.0</ele><time>2026-03-29T10:42:38Z</time></trkpt><trkpt lat="43.17502940334063" lon="12.208991163985187"><ele>284.0</ele><time>2026-03-29T10:42:39Z</time></trkpt><trkpt lat="43.17502127805071" lon="12.20885457176278"><ele>285.59999999999997</ele><time>2026-03-29T10:42:40Z</time></trkpt><trkpt lat="43.175029185796205" lon="12.208697617519473"><ele>287.2</ele><time>2026-03-29T10:42:41Z</time></trkpt><trkpt lat="43.17505411572099" lon="12.208576517931743"><ele>288.79999999999995</ele><time>2026-03-29T10:42:42Z</time></trkpt><trkpt lat="43.17509062663758" lon="12.208475104942105"><ele>290.4</ele><time>2026-03-29T10:42:43Z</time></trkpt><trkpt lat="43.17513634408806" lon="12.208363968476666"><ele>292.0</ele><time>2026-03-29T10:42:44Z</time></trkpt><trkpt lat="43.17515110764072" lon="12.208227442670918"><ele>294.4</ele><time>2026-03-29T10:42:45Z</time></trkpt><trkpt lat="43.17517879187771" lon="12.208126666528846"><ele>296.79999999999995</ele><time>2026-03-29T10:42:46Z</time></trkpt><trkpt lat="43.17522721218562" lon="12.208037788168477"><ele>299.2</ele><time>2026-03-29T10:42:47Z</time></trkpt><trkpt lat="43.17530615615215" lon="12.207979075058534"><ele>301.59999999999997</ele><time>2026-03-29T10:42:48Z</time></trkpt><trkpt lat="43.17539070462468" lon="12.207885607569926"><ele>304.0</ele><time>2026-03-29T10:42:49Z</time></trkpt><trkpt lat="43.17547885056503" lon="12.20780666801126"><ele>304.0</ele><time>2026-03-29T10:42:50Z</time></trkpt><trkpt lat="43.175549132275954" lon="12.20772361173666"><ele>304.0</ele><time>2026-03-29T10:42:51Z</time></trkpt><trkpt lat="43.17558282869122" lon="12.207625131193947"><ele>304.0</ele><time>2026-03-29T10:42:53Z</time></trkpt><trkpt lat="43.175487160572814" lon="12.207553459954573"><ele>304.0</ele><time>2026-03-29T10:42:55Z</time></trkpt><trkpt lat="43.17539726731434" lon="12.207458605741113"><ele>304.0</ele><time>2026-03-29T10:42:57Z</time></trkpt><trkpt lat="43.1754034378671" lon="12.207318890779883"><ele>306.8</ele><time>2026-03-29T10:42:59Z</time></trkpt><trkpt lat="43.175423560327474" lon="12.207196427773106"><ele>309.59999999999997</ele><time>2026-03-29T10:43:01Z</time></trkpt><trkpt lat="43.17545794191257" lon="12.2070983136051"><ele>312.4</ele><time>2026-03-29T10:43:02Z</time></trkpt><trkpt lat="43.17552323903616" lon="12.206950330956735"><ele>315.2</ele><time>2026-03-29T10:43:04Z</time></trkpt><trkpt lat="43.17557218803006" lon="12.206791522038312"><ele>318.0</ele><time>2026-03-29T10:43:06Z</time></trkpt><trkpt lat="43.17560604879667" lon="12.20667477797875"><ele>318.0</ele><time>2026-03-29T10:43:07Z</time></trkpt><trkpt lat="43.175627710430106" lon="12.20656814127734"><ele>318.0</ele><time>2026-03-29T10:43:08Z</time></trkpt><trkpt lat="43.17562719920347" lon="12.206481473797233"><ele>318.0</ele><time>2026-03-29T10:43:09Z</time></trkpt><trkpt lat="43.17558494389499" lon="12.206398128754458"><ele>318.0</ele><time>2026-03-29T10:43:10Z</time></trkpt><trkpt lat="43.175491039862614" lon="12.206313962387416"><ele>318.0</ele><time>2026-03-29T10:43:12Z</time></trkpt><trkpt lat="43.175423051639456" lon="12.206179470454705"><ele>318.0</ele><time>2026-03-29T10:43:14Z</time></trkpt><trkpt lat="43.17538430530026" lon="12.206085129501362"><ele>319.1666666666667</ele><time>2026-03-29T10:43:15Z</time></trkpt><trkpt lat="43.17532997100402" lon="12.20597703116357"><ele>320.3333333333333</ele><time>2026-03-29T10:43:16Z</time></trkpt><trkpt lat="43.17528160280698" lon="12.205873969183168"><ele>321.5</ele><time>2026-03-29T10:43:17Z</time></trkpt><trkpt lat="43.175223804921885" lon="12.20578867329537"><ele>322.66666666666663</ele><time>2026-03-29T10:43:18Z</time></trkpt><trkpt lat="43.175168635275995" lon="12.205710554853237"><ele>323.8333333333333</ele><time>2026-03-29T10:43:19Z</time></trkpt><trkpt lat="43.175107319318556" lon="12.20563624987787"><ele>325.0</ele><time>2026-03-29T10:43:20Z</time></trkpt><trkpt lat="43.17506479800409" lon="12.205551157320922"><ele>325.0</ele><time>2026-03-29T10:43:20.999Z</time></trkpt><trkpt lat="43.17504697860288" lon="12.20566405398098"><ele>325.0</ele><time>2026-03-29T10:43:24.999Z</time></trkpt><trkpt lat="43.17506390678588" lon="12.205778428100018"><ele>325.0</ele><time>2026-03-29T10:43:26.999Z</time></trkpt><trkpt lat="43.17507320459502" lon="12.20587800962826"><ele>325.0</ele><time>2026-03-29T10:43:28.999Z</time></trkpt><trkpt lat="43.17513002344044" lon="12.205999379300266"><ele>325.0</ele><time>2026-03-29T10:43:30.999Z</time></trkpt><trkpt lat="43.175217398673475" lon="12.206166150342455"><ele>325.0</ele><time>2026-03-29T10:43:32.999Z</time></trkpt><trkpt lat="43.17524115324882" lon="12.20626397033431"><ele>325.0</ele><time>2026-03-29T10:43:33.999Z</time></trkpt><trkpt lat="43.17524378983169" lon="12.206377416972853"><ele>325.0</ele><time>2026-03-29T10:43:34.999Z</time></trkpt><trkpt lat="43.175214623818206" lon="12.206513257730306"><ele>325.0</ele><time>2026-03-29T10:43:35.999Z</time></trkpt><trkpt lat="43.17516691514305" lon="12.206636504530609"><ele>325.0</ele><time>2026-03-29T10:43:36.999Z</time></trkpt><trkpt lat="43.17510484890515" lon="12.206717378985907"><ele>325.0</ele><time>2026-03-29T10:43:37.999Z</time></trkpt><trkpt lat="43.1750167357465" lon="12.20678178499195"><ele>323.8333333333333</ele><time>2026-03-29T10:43:38.999Z</time></trkpt><trkpt lat="43.17492721878289" lon="12.206835150742684"><ele>322.66666666666663</ele><time>2026-03-29T10:43:39.999Z</time></trkpt><trkpt lat="43.17485023724946" lon="12.206865144675358"><ele>321.5</ele><time>2026-03-29T10:43:40.999Z</time></trkpt><trkpt lat="43.17477697064101" lon="12.206903065521562"><ele>320.3333333333333</ele><time>2026-03-29T10:43:41.999Z</time></trkpt><trkpt lat="43.17471359381982" lon="12.20694301100523"><ele>319.1666666666667</ele><time>2026-03-29T10:43:42.999Z</time></trkpt><trkpt lat="43.17464590650876" lon="12.20700688379697"><ele>318.0</ele><time>2026-03-29T10:43:43.999Z</time></trkpt><trkpt lat="43.174585964618565" lon="12.20705354299197"><ele>317.8</ele><time>2026-03-29T10:43:44.999Z</time></trkpt><trkpt lat="43.17453247721322" lon="12.207124595483448"><ele>317.6</ele><time>2026-03-29T10:43:45.999Z</time></trkpt><trkpt lat="43.1744661362049" lon="12.207188159163454"><ele>317.4</ele><time>2026-03-29T10:43:46.999Z</time></trkpt><trkpt lat="43.17439110855681" lon="12.207261342894473"><ele>317.2</ele><time>2026-03-29T10:43:47.999Z</time></trkpt><trkpt lat="43.17429408152126" lon="12.207354936419717"><ele>317.0</ele><time>2026-03-29T10:43:48.999Z</time></trkpt><trkpt lat="43.17419857650875" lon="12.207460816167716"><ele>317.0</ele><time>2026-03-29T10:43:49.999Z</time></trkpt><trkpt lat="43.17412024180318" lon="12.207571310558901"><ele>317.0</ele><time>2026-03-29T10:43:50.999Z</time></trkpt><trkpt lat="43.1740553989433" lon="12.207665505470464"><ele>317.0</ele><time>2026-03-29T10:43:51.999Z</time></trkpt><trkpt lat="43.17396113409315" lon="12.207756260288635"><ele>317.0</ele><time>2026-03-29T10:43:52.999Z</time></trkpt><trkpt lat="43.17385757673979" lon="12.207834498133401"><ele>317.0</ele><time>2026-03-29T10:43:53.999Z</time></trkpt><trkpt lat="43.17376530698055" lon="12.20792956743045"><ele>315.25</ele><time>2026-03-29T10:43:54.999Z</time></trkpt><trkpt lat="43.17367740750455" lon="12.208009486513768"><ele>313.5</ele><time>2026-03-29T10:43:55.999Z</time></trkpt><trkpt lat="43.17356817409741" lon="12.20805895386012"><ele>311.75</ele><time>2026-03-29T10:43:56.999Z</time></trkpt><trkpt lat="43.173438498059184" lon="12.208109741289169"><ele>310.0</ele><time>2026-03-29T10:43:57.999Z</time></trkpt><trkpt lat="43.173321028445216" lon="12.20816395832396"><ele>311.75</ele><time>2026-03-29T10:43:58.999Z</time></trkpt><trkpt lat="43.173183679483" lon="12.208219000283561"><ele>313.5</ele><time>2026-03-29T10:43:59.999Z</time></trkpt><trkpt lat="43.17306386672671" lon="12.208280197647921"><ele>315.25</ele><time>2026-03-29T10:44:00.999Z</time></trkpt><trkpt lat="43.17294713259839" lon="12.208341483119709"><ele>317.0</ele><time>2026-03-29T10:44:01.999Z</time></trkpt><trkpt lat="43.17282706532999" lon="12.208411144605725"><ele>317.0</ele><time>2026-03-29T10:44:02.999Z</time></trkpt><trkpt lat="43.17272090846735" lon="12.208466224351062"><ele>317.0</ele><time>2026-03-29T10:44:03.999Z</time></trkpt><trkpt lat="43.17262851652753" lon="12.208507878364639"><ele>317.0</ele><time>2026-03-29T10:44:04.999Z</time></trkpt><trkpt lat="43.17253407369835" lon="12.208547921139113"><ele>317.0</ele><time>2026-03-29T10:44:05.999Z</time></trkpt><trkpt lat="43.17244856784531" lon="12.208555884133103"><ele>317.0</ele><time>2026-03-29T10:44:06.999Z</time></trkpt><trkpt lat="43.17236873268549" lon="12.20851534707673"><ele>318.1666666666667</ele><time>2026-03-29T10:44:07.999Z</time></trkpt><trkpt lat="43.17229907914539" lon="12.208472823888856"><ele>319.33333333333337</ele><time>2026-03-29T10:44:08.999Z</time></trkpt><trkpt lat="43.17218834237138" lon="12.208524043577802"><ele>320.5</ele><time>2026-03-29T10:44:10.999Z</time></trkpt><trkpt lat="43.17211491518016" lon="12.208587356339791"><ele>321.6666666666667</ele><time>2026-03-29T10:44:11.999Z</time></trkpt><trkpt lat="43.172038145465756" lon="12.208588692130062"><ele>322.8333333333333</ele><time>2026-03-29T10:44:12.999Z</time></trkpt><trkpt lat="43.171971040877466" lon="12.208544551801527"><ele>324.0</ele><time>2026-03-29T10:44:13.999Z</time></trkpt><trkpt lat="43.17184949824785" lon="12.208543062398078"><ele>324.0</ele><time>2026-03-29T10:44:15.999Z</time></trkpt><trkpt lat="43.171800975458964" lon="12.208602630960426"><ele>324.0</ele><time>2026-03-29T10:44:16.999Z</time></trkpt><trkpt lat="43.17173181253461" lon="12.20863232273072"><ele>324.0</ele><time>2026-03-29T10:44:18.999Z</time></trkpt><trkpt lat="43.17166500447104" lon="12.208514890263702"><ele>324.0</ele><time>2026-03-29T10:44:20.999Z</time></trkpt><trkpt lat="43.17163276463371" lon="12.208436114280067"><ele>324.0</ele><time>2026-03-29T10:44:21.999Z</time></trkpt><trkpt lat="43.17157099759177" lon="12.208412895133025"><ele>324.0</ele><time>2026-03-29T10:44:22.999Z</time></trkpt><trkpt lat="43.17148958268136" lon="12.208374285562769"><ele>325.1666666666667</ele><time>2026-03-29T10:44:24Z</time></trkpt><trkpt lat="43.17142088542294" lon="12.208307794937015"><ele>326.3333333333333</ele><time>2026-03-29T10:44:25Z</time></trkpt><trkpt lat="43.17134251658817" lon="12.208277475494905"><ele>327.5</ele><time>2026-03-29T10:44:26Z</time></trkpt><trkpt lat="43.17121489431692" lon="12.208285126157541"><ele>328.66666666666663</ele><time>2026-03-29T10:44:28Z</time></trkpt><trkpt lat="43.17116866238993" lon="12.208184112358065"><ele>329.8333333333333</ele><time>2026-03-29T10:44:30Z</time></trkpt><trkpt lat="43.17117900911527" lon="12.208096527048275"><ele>331.0</ele><time>2026-03-29T10:44:31Z</time></trkpt><trkpt lat="43.17110504337394" lon="12.207983757488911"><ele>335.6</ele><time>2026-03-29T10:44:33Z</time></trkpt><trkpt lat="43.17107297490482" lon="12.207905202731792"><ele>340.20000000000005</ele><time>2026-03-29T10:44:34Z</time></trkpt><trkpt lat="43.17101561652628" lon="12.207834485040523"><ele>344.79999999999995</ele><time>2026-03-29T10:44:35Z</time></trkpt><trkpt lat="43.17087207658754" lon="12.207770346495742"><ele>349.4</ele><time>2026-03-29T10:44:37Z</time></trkpt><trkpt lat="43.17080402465173" lon="12.207694083544661"><ele>354.0</ele><time>2026-03-29T10:44:38Z</time></trkpt><trkpt lat="43.17075155066497" lon="12.207617406428929"><ele>354.0</ele><time>2026-03-29T10:44:39Z</time></trkpt><trkpt lat="43.17069472686845" lon="12.20754948632494"><ele>354.0</ele><time>2026-03-29T10:44:40Z</time></trkpt><trkpt lat="43.17078496751607" lon="12.207541485712124"><ele>354.0</ele><time>2026-03-29T10:44:44Z</time></trkpt><trkpt lat="43.17083094898541" lon="12.207448956364107"><ele>354.0</ele><time>2026-03-29T10:44:48Z</time></trkpt><trkpt lat="43.17081136510676" lon="12.20735925543499"><ele>354.0</ele><time>2026-03-29T10:44:51Z</time></trkpt><trkpt lat="43.17086134130034" lon="12.207241662925352"><ele>354.0</ele><time>2026-03-29T10:44:54Z</time></trkpt><trkpt lat="43.17091500754506" lon="12.207184390109859"><ele>357.0</ele><time>2026-03-29T10:44:56Z</time></trkpt><trkpt lat="43.17084728168583" lon="12.20709044202601"><ele>360.0</ele><time>2026-03-29T10:45:00Z</time></trkpt><trkpt lat="43.17090238707588" lon="12.206980626056758"><ele>363.0</ele><time>2026-03-29T10:45:04Z</time></trkpt><trkpt lat="43.170910422999484" lon="12.20688992491004"><ele>366.0</ele><time>2026-03-29T10:45:06Z</time></trkpt><trkpt lat="43.170841699786834" lon="12.20676751571666"><ele>369.0</ele><time>2026-03-29T10:45:10Z</time></trkpt><trkpt lat="43.17093649540348" lon="12.206204568705003"><ele>372.5</ele><time>2026-03-29T10:45:13Z</time></trkpt><trkpt lat="43.1708520438986" lon="12.206178958888042"><ele>376.0</ele><time>2026-03-29T10:45:14Z</time></trkpt><trkpt lat="43.17077914424043" lon="12.206148863677297"><ele>379.5</ele><time>2026-03-29T10:45:16Z</time></trkpt><trkpt lat="43.17071224609171" lon="12.206069552921704"><ele>383.0</ele><time>2026-03-29T10:45:19Z</time></trkpt><trkpt lat="43.170712016959534" lon="12.205960236711755"><ele>386.5</ele><time>2026-03-29T10:45:21Z</time></trkpt><trkpt lat="43.17073073760338" lon="12.205871947637469"><ele>390.0</ele><time>2026-03-29T10:45:22Z</time></trkpt><trkpt lat="43.1707918669333" lon="12.205779583511383"><ele>390.0</ele><time>2026-03-29T10:45:23Z</time></trkpt><trkpt lat="43.17084275339538" lon="12.205699890878337"><ele>390.0</ele><time>2026-03-29T10:45:24Z</time></trkpt><trkpt lat="43.170913960978744" lon="12.205600416740927"><ele>390.0</ele><time>2026-03-29T10:45:25Z</time></trkpt><trkpt lat="43.17097919251726" lon="12.20548150525786"><ele>390.0</ele><time>2026-03-29T10:45:26Z</time></trkpt><trkpt lat="43.17105360717546" lon="12.205341430547916"><ele>390.0</ele><time>2026-03-29T10:45:27Z</time></trkpt><trkpt lat="43.17113011329357" lon="12.205210805072989"><ele>393.6</ele><time>2026-03-29T10:45:28Z</time></trkpt><trkpt lat="43.171188073121165" lon="12.205101337746472"><ele>397.2</ele><time>2026-03-29T10:45:29Z</time></trkpt><trkpt lat="43.17124105157913" lon="12.204966596932955"><ele>400.79999999999995</ele><time>2026-03-29T10:45:30Z</time></trkpt><trkpt lat="43.17130023667292" lon="12.204858020371523"><ele>404.4</ele><time>2026-03-29T10:45:31Z</time></trkpt><trkpt lat="43.171419465011596" lon="12.20485202555653"><ele>408.0</ele><time>2026-03-29T10:45:32Z</time></trkpt><trkpt lat="43.17147963562467" lon="12.204824335079993"><ele>407.3333333333333</ele><time>2026-03-29T10:45:33Z</time></trkpt><trkpt lat="43.171570908284245" lon="12.204804839740316"><ele>406.66666666666663</ele><time>2026-03-29T10:45:35Z</time></trkpt><trkpt lat="43.17161239121402" lon="12.204889221569722"><ele>406.0</ele><time>2026-03-29T10:45:36Z</time></trkpt><trkpt lat="43.17161592250639" lon="12.20476930185585"><ele>405.3333333333333</ele><time>2026-03-29T10:45:38Z</time></trkpt><trkpt lat="43.171651950478086" lon="12.204661403377077"><ele>404.66666666666663</ele><time>2026-03-29T10:45:40Z</time></trkpt><trkpt lat="43.17175761960505" lon="12.204640797897703"><ele>404.0</ele><time>2026-03-29T10:45:41Z</time></trkpt><trkpt lat="43.17185017742038" lon="12.20462497853321"><ele>408.2</ele><time>2026-03-29T10:45:42Z</time></trkpt><trkpt lat="43.17193777150188" lon="12.20459985198625"><ele>412.4</ele><time>2026-03-29T10:45:43Z</time></trkpt><trkpt lat="43.17201347639953" lon="12.20451368426242"><ele>416.6</ele><time>2026-03-29T10:45:45Z</time></trkpt><trkpt lat="43.17203880341694" lon="12.204411930982788"><ele>420.8</ele><time>2026-03-29T10:45:46Z</time></trkpt><trkpt lat="43.17209626840056" lon="12.20430049621614"><ele>425.0</ele><time>2026-03-29T10:45:47Z</time></trkpt><trkpt lat="43.172165574301125" lon="12.204168188702688"><ele>425.0</ele><time>2026-03-29T10:45:48Z</time></trkpt><trkpt lat="43.17224445814501" lon="12.20405269620973"><ele>425.0</ele><time>2026-03-29T10:45:49Z</time></trkpt><trkpt lat="43.17231409300259" lon="12.20391094929546"><ele>425.0</ele><time>2026-03-29T10:45:50Z</time></trkpt><trkpt lat="43.172348446188025" lon="12.203734963599025"><ele>425.0</ele><time>2026-03-29T10:45:51Z</time></trkpt><trkpt lat="43.17241845570481" lon="12.203594222601355"><ele>425.5</ele><time>2026-03-29T10:45:52Z</time></trkpt><trkpt lat="43.17249353306555" lon="12.20356153225666"><ele>426.0</ele><time>2026-03-29T10:45:54Z</time></trkpt><trkpt lat="43.17255739541834" lon="12.203496162575338"><ele>426.5</ele><time>2026-03-29T10:45:59Z</time></trkpt><trkpt lat="43.172620309488785" lon="12.20335968146095"><ele>427.0</ele><time>2026-03-29T10:46:02Z</time></trkpt><trkpt lat="43.172649636648565" lon="12.203084038115513"><ele>429.8</ele><time>2026-03-29T10:46:03Z</time></trkpt><trkpt lat="43.172657264057484" lon="12.202990202722427"><ele>432.6</ele><time>2026-03-29T10:46:05Z</time></trkpt><trkpt lat="43.17268825207882" lon="12.202839469676201"><ele>435.40000000000003</ele><time>2026-03-29T10:46:07Z</time></trkpt><trkpt lat="43.17272372589215" lon="12.202727115932733"><ele>438.20000000000005</ele><time>2026-03-29T10:46:08Z</time></trkpt><trkpt lat="43.172777042833005" lon="12.202602001840617"><ele>441.0</ele><time>2026-03-29T10:46:09Z</time></trkpt><trkpt lat="43.172823046720616" lon="12.202459684470867"><ele>441.0</ele><time>2026-03-29T10:46:10Z</time></trkpt><trkpt lat="43.17286039630748" lon="12.202352800542288"><ele>441.0</ele><time>2026-03-29T10:46:11Z</time></trkpt><trkpt lat="43.172899409173176" lon="12.202205530169053"><ele>441.0</ele><time>2026-03-29T10:46:13Z</time></trkpt><trkpt lat="43.17293090724639" lon="12.202086376990637"><ele>441.0</ele><time>2026-03-29T10:46:14Z</time></trkpt><trkpt lat="43.17295757313671" lon="12.20196672475974"><ele>441.0</ele><time>2026-03-29T10:46:15Z</time></trkpt><trkpt lat="43.17276045875275" lon="12.202077441159247"><ele>440.20000000000005</ele><time>2026-03-29T10:46:16Z</time></trkpt><trkpt lat="43.17271249030301" lon="12.20192673582067"><ele>439.40000000000003</ele><time>2026-03-29T10:46:17Z</time></trkpt><trkpt lat="43.172690088788514" lon="12.201828430317061"><ele>438.6</ele><time>2026-03-29T10:46:18Z</time></trkpt><trkpt lat="43.172665483918244" lon="12.201683673478058"><ele>437.8</ele><time>2026-03-29T10:46:19Z</time></trkpt><trkpt lat="43.17263505800284" lon="12.20156284974751"><ele>437.0</ele><time>2026-03-29T10:46:20Z</time></trkpt><trkpt lat="43.17259519630253" lon="12.20147694353793"><ele>434.20000000000005</ele><time>2026-03-29T10:46:21Z</time></trkpt><trkpt lat="43.172547181304004" lon="12.201344251603027"><ele>431.40000000000003</ele><time>2026-03-29T10:46:23Z</time></trkpt><trkpt lat="43.172523668996995" lon="12.201198760746887"><ele>428.6</ele><time>2026-03-29T10:46:25Z</time></trkpt><trkpt lat="43.17247970222892" lon="12.201057448872286"><ele>425.79999999999995</ele><time>2026-03-29T10:46:27Z</time></trkpt><trkpt lat="43.17242506838809" lon="12.20096189591959"><ele>423.0</ele><time>2026-03-29T10:46:29Z</time></trkpt><trkpt lat="43.17240101045036" lon="12.200813594321524"><ele>422.0</ele><time>2026-03-29T10:46:31Z</time></trkpt><trkpt lat="43.17234822632113" lon="12.20066971828103"><ele>421.0</ele><time>2026-03-29T10:46:33Z</time></trkpt><trkpt lat="43.17227657304695" lon="12.200500748310448"><ele>420.0</ele><time>2026-03-29T10:46:35Z</time></trkpt><trkpt lat="43.17220438924291" lon="12.200361054162128"><ele>419.0</ele><time>2026-03-29T10:46:37Z</time></trkpt><trkpt lat="43.172098097150226" lon="12.200324937089972"><ele>418.99999999999994</ele><time>2026-03-29T10:46:39Z</time></trkpt><trkpt lat="43.17202787174119" lon="12.20031327449278"><ele>419.0</ele><time>2026-03-29T10:46:40Z</time></trkpt><trkpt lat="43.17195878867861" lon="12.20028237939461"><ele>419.0</ele><time>2026-03-29T10:46:42Z</time></trkpt><trkpt lat="43.1718808125812" lon="12.200309579525182"><ele>419.0</ele><time>2026-03-29T10:46:44Z</time></trkpt><trkpt lat="43.171816032543326" lon="12.200301158063997"><ele>418.99999999999994</ele><time>2026-03-29T10:46:47Z</time></trkpt><trkpt lat="43.17169365517831" lon="12.200331092419454"><ele>419.0</ele><time>2026-03-29T10:46:50Z</time></trkpt><trkpt lat="43.171584428813006" lon="12.200377556993889"><ele>421.5</ele><time>2026-03-29T10:46:52Z</time></trkpt><trkpt lat="43.17138606746667" lon="12.200445174051811"><ele>424.0</ele><time>2026-03-29T10:46:58Z</time></trkpt><trkpt lat="43.17131451448143" lon="12.200533040028263"><ele>426.5</ele><time>2026-03-29T10:47:01Z</time></trkpt><trkpt lat="43.17123780700513" lon="12.200543978548303"><ele>429.0</ele><time>2026-03-29T10:47:04Z</time></trkpt><trkpt lat="43.17113847986635" lon="12.2005945228477"><ele>429.0</ele><time>2026-03-29T10:47:06Z</time></trkpt><trkpt lat="43.171066878051256" lon="12.200646307114788"><ele>429.0</ele><time>2026-03-29T10:47:07Z</time></trkpt><trkpt lat="43.17098177388316" lon="12.200702583002396"><ele>429.0</ele><time>2026-03-29T10:47:08Z</time></trkpt><trkpt lat="43.170892180800024" lon="12.200735000426041"><ele>429.0</ele><time>2026-03-29T10:47:09Z</time></trkpt><trkpt lat="43.170809581870444" lon="12.200758382127157"><ele>429.0</ele><time>2026-03-29T10:47:10Z</time></trkpt><trkpt lat="43.17073809221399" lon="12.200795542339302"><ele>429.0</ele><time>2026-03-29T10:47:11Z</time></trkpt><trkpt lat="43.17067565402038" lon="12.200835539263092"><ele>432.0</ele><time>2026-03-29T10:47:12Z</time></trkpt><trkpt lat="43.17061843990059" lon="12.200892721859336"><ele>435.0</ele><time>2026-03-29T10:47:13Z</time></trkpt><trkpt lat="43.170534230311084" lon="12.200959986556855"><ele>438.0</ele><time>2026-03-29T10:47:14Z</time></trkpt><trkpt lat="43.17044581257696" lon="12.200991275320328"><ele>441.0</ele><time>2026-03-29T10:47:15Z</time></trkpt><trkpt lat="43.17037084722378" lon="12.200980582763949"><ele>444.0</ele><time>2026-03-29T10:47:16Z</time></trkpt><trkpt lat="43.17030342347845" lon="12.20100359710044"><ele>447.0</ele><time>2026-03-29T10:47:17Z</time></trkpt><trkpt lat="43.170232474624946" lon="12.201064675981064"><ele>447.0</ele><time>2026-03-29T10:47:18Z</time></trkpt><trkpt lat="43.170176202622834" lon="12.20110572178853"><ele>447.0</ele><time>2026-03-29T10:47:19Z</time></trkpt><trkpt lat="43.170117613030214" lon="12.201145044798348"><ele>447.0</ele><time>2026-03-29T10:47:20Z</time></trkpt><trkpt lat="43.17004218467612" lon="12.20116580927313"><ele>447.0</ele><time>2026-03-29T10:47:21Z</time></trkpt><trkpt lat="43.169976855407555" lon="12.201189332153607"><ele>447.0</ele><time>2026-03-29T10:47:22Z</time></trkpt><trkpt lat="43.16987256207639" lon="12.201279500753516"><ele>447.0</ele><time>2026-03-29T10:47:24Z</time></trkpt><trkpt lat="43.169797603334885" lon="12.201287210434547"><ele>446.8</ele><time>2026-03-29T10:47:25Z</time></trkpt><trkpt lat="43.169714966022426" lon="12.201253468400633"><ele>446.6</ele><time>2026-03-29T10:47:26Z</time></trkpt><trkpt lat="43.16963325072714" lon="12.20122062589257"><ele>446.40000000000003</ele><time>2026-03-29T10:47:27Z</time></trkpt><trkpt lat="43.16952647255823" lon="12.201260663186549"><ele>446.20000000000005</ele><time>2026-03-29T10:47:29Z</time></trkpt><trkpt lat="43.169425032476106" lon="12.201291635634037"><ele>446.0</ele><time>2026-03-29T10:47:31Z</time></trkpt><trkpt lat="43.16927690356603" lon="12.20131784487357"><ele>445.99999999999994</ele><time>2026-03-29T10:47:33Z</time></trkpt><trkpt lat="43.169184380264305" lon="12.201316942946212"><ele>446.0</ele><time>2026-03-29T10:47:34Z</time></trkpt><trkpt lat="43.16909943666145" lon="12.201301353586752"><ele>446.0</ele><time>2026-03-29T10:47:35Z</time></trkpt><trkpt lat="43.169031430234185" lon="12.20126791924228"><ele>446.0</ele><time>2026-03-29T10:47:36Z</time></trkpt><trkpt lat="43.168969482334006" lon="12.201237325161076"><ele>445.99999999999994</ele><time>2026-03-29T10:47:37Z</time></trkpt><trkpt lat="43.1689022173498" lon="12.20123875882809"><ele>446.0</ele><time>2026-03-29T10:47:38Z</time></trkpt><trkpt lat="43.168823977891236" lon="12.201241956256702"><ele>446.16666666666663</ele><time>2026-03-29T10:47:39Z</time></trkpt><trkpt lat="43.16874170455034" lon="12.201229570279802"><ele>446.3333333333333</ele><time>2026-03-29T10:47:40Z</time></trkpt><trkpt lat="43.16866764630122" lon="12.201209812513898"><ele>446.5</ele><time>2026-03-29T10:47:41Z</time></trkpt><trkpt lat="43.168589946523504" lon="12.201192163310571"><ele>446.66666666666663</ele><time>2026-03-29T10:47:42Z</time></trkpt><trkpt lat="43.16850058888701" lon="12.201181306530758"><ele>446.8333333333333</ele><time>2026-03-29T10:47:43Z</time></trkpt><trkpt lat="43.168394130243925" lon="12.20116135838303"><ele>447.0</ele><time>2026-03-29T10:47:44Z</time></trkpt><trkpt lat="43.168293864628744" lon="12.2011411988805"><ele>447.0</ele><time>2026-03-29T10:47:45Z</time></trkpt><trkpt lat="43.16819997592712" lon="12.201117875749341"><ele>447.0</ele><time>2026-03-29T10:47:46Z</time></trkpt><trkpt lat="43.16810936369314" lon="12.201104619733302"><ele>447.0</ele><time>2026-03-29T10:47:47Z</time></trkpt><trkpt lat="43.16802305960854" lon="12.2010991368416"><ele>447.0</ele><time>2026-03-29T10:47:48Z</time></trkpt><trkpt lat="43.16794725609968" lon="12.20109582415723"><ele>447.0</ele><time>2026-03-29T10:47:49Z</time></trkpt><trkpt lat="43.167848164421024" lon="12.201092388877816"><ele>447.0</ele><time>2026-03-29T10:47:51Z</time></trkpt><trkpt lat="43.16774059654006" lon="12.201059008713916"><ele>446.8333333333333</ele><time>2026-03-29T10:47:53Z</time></trkpt><trkpt lat="43.1676678403083" lon="12.201032510757972"><ele>446.66666666666663</ele><time>2026-03-29T10:47:54Z</time></trkpt><trkpt lat="43.16759803883175" lon="12.201001875734045"><ele>446.5</ele><time>2026-03-29T10:47:55Z</time></trkpt><trkpt lat="43.1675178132625" lon="12.200961038698109"><ele>446.3333333333333</ele><time>2026-03-29T10:47:56Z</time></trkpt><trkpt lat="43.16743993120575" lon="12.200931711643273"><ele>446.16666666666663</ele><time>2026-03-29T10:47:57Z</time></trkpt><trkpt lat="43.167364818407975" lon="12.200899980727977"><ele>446.0</ele><time>2026-03-29T10:47:58Z</time></trkpt><trkpt lat="43.16728343742731" lon="12.200865660838854"><ele>445.57142857142856</ele><time>2026-03-29T10:47:59Z</time></trkpt><trkpt lat="43.16720602807617" lon="12.200833084725623"><ele>445.1428571428571</ele><time>2026-03-29T10:48:00Z</time></trkpt><trkpt lat="43.16713464129893" lon="12.20080772857725"><ele>444.7142857142857</ele><time>2026-03-29T10:48:01Z</time></trkpt><trkpt lat="43.16706159337627" lon="12.200802009668275"><ele>444.2857142857143</ele><time>2026-03-29T10:48:02Z</time></trkpt><trkpt lat="43.16699034051349" lon="12.200799033676258"><ele>443.8571428571429</ele><time>2026-03-29T10:48:03Z</time></trkpt><trkpt lat="43.16692063527588" lon="12.200792396201871"><ele>443.42857142857144</ele><time>2026-03-29T10:48:04Z</time></trkpt><trkpt lat="43.16685499330058" lon="12.200792289876006"><ele>443.0</ele><time>2026-03-29T10:48:05Z</time></trkpt><trkpt lat="43.16673457870344" lon="12.200722675681748"><ele>443.0</ele><time>2026-03-29T10:48:07Z</time></trkpt><trkpt lat="43.166652713411445" lon="12.200737355898962"><ele>442.99999999999994</ele><time>2026-03-29T10:48:08Z</time></trkpt><trkpt lat="43.16655763177433" lon="12.200737093621377"><ele>442.99999999999994</ele><time>2026-03-29T10:48:09Z</time></trkpt><trkpt lat="43.16646298181367" lon="12.200725463819774"><ele>443.0</ele><time>2026-03-29T10:48:10Z</time></trkpt><trkpt lat="43.166356774899825" lon="12.200746122908114"><ele>443.0</ele><time>2026-03-29T10:48:11Z</time></trkpt><trkpt lat="43.16621706515791" lon="12.200800463589543"><ele>440.3333333333333</ele><time>2026-03-29T10:48:12Z</time></trkpt><trkpt lat="43.16606731754639" lon="12.200851176763887"><ele>437.66666666666663</ele><time>2026-03-29T10:48:13Z</time></trkpt><trkpt lat="43.1659225839645" lon="12.200893258164518"><ele>435.0</ele><time>2026-03-29T10:48:14Z</time></trkpt><trkpt lat="43.16577635176986" lon="12.200928201824793"><ele>433.25</ele><time>2026-03-29T10:48:15Z</time></trkpt><trkpt lat="43.165636013961496" lon="12.200958114573044"><ele>431.5</ele><time>2026-03-29T10:48:16Z</time></trkpt><trkpt lat="43.165491876394334" lon="12.201001520581707"><ele>429.75</ele><time>2026-03-29T10:48:17Z</time></trkpt><trkpt lat="43.16535409153039" lon="12.20104550664592"><ele>428.0</ele><time>2026-03-29T10:48:18Z</time></trkpt><trkpt lat="43.16521542321183" lon="12.201077349638036"><ele>428.0</ele><time>2026-03-29T10:48:19Z</time></trkpt><trkpt lat="43.1650866027684" lon="12.20110803782978"><ele>428.0</ele><time>2026-03-29T10:48:20Z</time></trkpt><trkpt lat="43.16496203406685" lon="12.201129132674494"><ele>428.0</ele><time>2026-03-29T10:48:21Z</time></trkpt><trkpt lat="43.164855396248896" lon="12.20115803801038"><ele>428.0</ele><time>2026-03-29T10:48:22Z</time></trkpt><trkpt lat="43.16474749884325" lon="12.201180818713151"><ele>426.16666666666663</ele><time>2026-03-29T10:48:23Z</time></trkpt><trkpt lat="43.164657090596435" lon="12.201206587615534"><ele>424.3333333333333</ele><time>2026-03-29T10:48:24Z</time></trkpt><trkpt lat="43.16457118949456" lon="12.201250078639225"><ele>422.5</ele><time>2026-03-29T10:48:25Z</time></trkpt><trkpt lat="43.164487372447496" lon="12.201281461415523"><ele>420.66666666666663</ele><time>2026-03-29T10:48:26Z</time></trkpt><trkpt lat="43.16441518282527" lon="12.201291415670749"><ele>418.8333333333333</ele><time>2026-03-29T10:48:27Z</time></trkpt><trkpt lat="43.16435641445337" lon="12.201326162247437"><ele>417.0</ele><time>2026-03-29T10:48:28Z</time></trkpt><trkpt lat="43.164330147188124" lon="12.201490081875011"><ele>416.0</ele><time>2026-03-29T10:48:30Z</time></trkpt><trkpt lat="43.164343335988555" lon="12.201576594628653"><ele>415.0</ele><time>2026-03-29T10:48:31Z</time></trkpt><trkpt lat="43.16431309568306" lon="12.201699240887729"><ele>414.0</ele><time>2026-03-29T10:48:33Z</time></trkpt><trkpt lat="43.16433544164397" lon="12.20178582335026"><ele>413.0</ele><time>2026-03-29T10:48:35Z</time></trkpt><trkpt lat="43.16427097444562" lon="12.201815083905105"><ele>412.0</ele><time>2026-03-29T10:48:37Z</time></trkpt><trkpt lat="43.16420680653744" lon="12.201795165403812"><ele>411.0</ele><time>2026-03-29T10:48:38Z</time></trkpt><trkpt lat="43.164103348771256" lon="12.201786394024113"><ele>409.25</ele><time>2026-03-29T10:48:39Z</time></trkpt><trkpt lat="43.16400307010904" lon="12.201794121643983"><ele>407.5</ele><time>2026-03-29T10:48:40Z</time></trkpt><trkpt lat="43.16388905880845" lon="12.201713235224615"><ele>405.75</ele><time>2026-03-29T10:48:41Z</time></trkpt><trkpt lat="43.163795452326504" lon="12.201625197814181"><ele>404.0</ele><time>2026-03-29T10:48:42Z</time></trkpt><trkpt lat="43.16368466230818" lon="12.201578624764407"><ele>404.0</ele><time>2026-03-29T10:48:43Z</time></trkpt><trkpt lat="43.16353781366265" lon="12.201612148039342"><ele>404.0</ele><time>2026-03-29T10:48:44Z</time></trkpt><trkpt lat="43.163400144370904" lon="12.201668635380916"><ele>404.0</ele><time>2026-03-29T10:48:45Z</time></trkpt><trkpt lat="43.16326667547025" lon="12.201726436933235"><ele>404.0</ele><time>2026-03-29T10:48:46Z</time></trkpt><trkpt lat="43.16314142292608" lon="12.201740481848578"><ele>404.5</ele><time>2026-03-29T10:48:47Z</time></trkpt><trkpt lat="43.1630125615359" lon="12.201693026497054"><ele>405.0</ele><time>2026-03-29T10:48:48Z</time></trkpt><trkpt lat="43.16289474832327" lon="12.20166183006163"><ele>405.5</ele><time>2026-03-29T10:48:49Z</time></trkpt><trkpt lat="43.16275616447226" lon="12.201671665877718"><ele>406.0</ele><time>2026-03-29T10:48:50Z</time></trkpt><trkpt lat="43.16263616414808" lon="12.201691855588157"><ele>406.0</ele><time>2026-03-29T10:48:51Z</time></trkpt><trkpt lat="43.16252492858403" lon="12.201713250031773"><ele>406.0</ele><time>2026-03-29T10:48:52Z</time></trkpt><trkpt lat="43.16240223598309" lon="12.201775179195632"><ele>406.0</ele><time>2026-03-29T10:48:53Z</time></trkpt><trkpt lat="43.162289112202316" lon="12.201844858158008"><ele>406.0</ele><time>2026-03-29T10:48:54Z</time></trkpt><trkpt lat="43.16218559177889" lon="12.201875638046172"><ele>404.4</ele><time>2026-03-29T10:48:55Z</time></trkpt><trkpt lat="43.16207100205146" lon="12.201866617734344"><ele>402.8</ele><time>2026-03-29T10:48:56Z</time></trkpt><trkpt lat="43.16196603939783" lon="12.201852824406567"><ele>401.2</ele><time>2026-03-29T10:48:57Z</time></trkpt><trkpt lat="43.161886998486835" lon="12.201873864360115"><ele>399.59999999999997</ele><time>2026-03-29T10:48:58Z</time></trkpt><trkpt lat="43.1618065601893" lon="12.201911180960877"><ele>398.0</ele><time>2026-03-29T10:48:59Z</time></trkpt><trkpt lat="43.161709707843734" lon="12.20202737055744"><ele>398.0</ele><time>2026-03-29T10:49:00Z</time></trkpt><trkpt lat="43.161607730774485" lon="12.202107654922136"><ele>398.0</ele><time>2026-03-29T10:49:01Z</time></trkpt><trkpt lat="43.16147084488749" lon="12.202179715759936"><ele>398.0</ele><time>2026-03-29T10:49:02Z</time></trkpt><trkpt lat="43.16133975521491" lon="12.202252549712002"><ele>398.0</ele><time>2026-03-29T10:49:03Z</time></trkpt><trkpt lat="43.16120470921805" lon="12.202321039268318"><ele>399.0</ele><time>2026-03-29T10:49:04Z</time></trkpt><trkpt lat="43.161087013262055" lon="12.202414230221763"><ele>400.0</ele><time>2026-03-29T10:49:05Z</time></trkpt><trkpt lat="43.16096471494683" lon="12.2024935368199"><ele>401.0</ele><time>2026-03-29T10:49:06Z</time></trkpt><trkpt lat="43.16084159174851" lon="12.20262172214674"><ele>402.0</ele><time>2026-03-29T10:49:07Z</time></trkpt><trkpt lat="43.16072683150172" lon="12.20270197360541"><ele>401.40000000000003</ele><time>2026-03-29T10:49:08Z</time></trkpt><trkpt lat="43.16064767844973" lon="12.202761484521963"><ele>400.8</ele><time>2026-03-29T10:49:09Z</time></trkpt><trkpt lat="43.16058473593392" lon="12.2028373485072"><ele>400.2</ele><time>2026-03-29T10:49:10Z</time></trkpt><trkpt lat="43.16049332765323" lon="12.20291175397736"><ele>399.6</ele><time>2026-03-29T10:49:11Z</time></trkpt><trkpt lat="43.16039867922187" lon="12.202982399291198"><ele>399.0</ele><time>2026-03-29T10:49:12Z</time></trkpt><trkpt lat="43.160290727765755" lon="12.203047059218033"><ele>399.0</ele><time>2026-03-29T10:49:13Z</time></trkpt><trkpt lat="43.16017641298935" lon="12.203105313031953"><ele>399.0</ele><time>2026-03-29T10:49:14Z</time></trkpt><trkpt lat="43.160096217947164" lon="12.203165018749308"><ele>399.0</ele><time>2026-03-29T10:49:15Z</time></trkpt><trkpt lat="43.15999856606441" lon="12.203290749824587"><ele>399.0</ele><time>2026-03-29T10:49:16Z</time></trkpt><trkpt lat="43.159869366913895" lon="12.203419737919111"><ele>399.5</ele><time>2026-03-29T10:49:17Z</time></trkpt><trkpt lat="43.159763701738285" lon="12.203552164337939"><ele>400.0</ele><time>2026-03-29T10:49:18Z</time></trkpt><trkpt lat="43.15963810595629" lon="12.203607043204933"><ele>400.5</ele><time>2026-03-29T10:49:19Z</time></trkpt><trkpt lat="43.159520046821655" lon="12.203679708129139"><ele>401.0</ele><time>2026-03-29T10:49:20Z</time></trkpt><trkpt lat="43.15938910523329" lon="12.20371669214347"><ele>401.0</ele><time>2026-03-29T10:49:21Z</time></trkpt><trkpt lat="43.15924452503295" lon="12.203743053712605"><ele>401.0</ele><time>2026-03-29T10:49:22Z</time></trkpt><trkpt lat="43.159118154812234" lon="12.203732208659146"><ele>401.0</ele><time>2026-03-29T10:49:23Z</time></trkpt><trkpt lat="43.158994286973524" lon="12.20373073994997"><ele>401.0</ele><time>2026-03-29T10:49:24Z</time></trkpt><trkpt lat="43.158858340433845" lon="12.203745953490577"><ele>400.8</ele><time>2026-03-29T10:49:25Z</time></trkpt><trkpt lat="43.15873837466246" lon="12.203761143945465"><ele>400.6</ele><time>2026-03-29T10:49:26Z</time></trkpt><trkpt lat="43.1586269141374" lon="12.203769486610142"><ele>400.4</ele><time>2026-03-29T10:49:27Z</time></trkpt><trkpt lat="43.158523800936315" lon="12.203790824694233"><ele>400.2</ele><time>2026-03-29T10:49:28Z</time></trkpt><trkpt lat="43.15843458258648" lon="12.203821506403406"><ele>400.0</ele><time>2026-03-29T10:49:29Z</time></trkpt><trkpt lat="43.158349363121296" lon="12.203854977848959"><ele>400.0</ele><time>2026-03-29T10:49:30Z</time></trkpt><trkpt lat="43.15825513958297" lon="12.203906104484412"><ele>400.0</ele><time>2026-03-29T10:49:31Z</time></trkpt><trkpt lat="43.15814546179568" lon="12.203966049914523"><ele>400.0</ele><time>2026-03-29T10:49:32Z</time></trkpt><trkpt lat="43.15803314170776" lon="12.204019030079973"><ele>400.0</ele><time>2026-03-29T10:49:33Z</time></trkpt><trkpt lat="43.157886746198" lon="12.204055299718979"><ele>403.0</ele><time>2026-03-29T10:49:34Z</time></trkpt><trkpt lat="43.15775555318815" lon="12.204086481486803"><ele>406.0</ele><time>2026-03-29T10:49:35Z</time></trkpt><trkpt lat="43.157629239212284" lon="12.20412782069277"><ele>409.0</ele><time>2026-03-29T10:49:36Z</time></trkpt><trkpt lat="43.15749437422882" lon="12.20419039119721"><ele>412.0</ele><time>2026-03-29T10:49:37Z</time></trkpt><trkpt lat="43.15735736365287" lon="12.204237779879316"><ele>413.75</ele><time>2026-03-29T10:49:38Z</time></trkpt><trkpt lat="43.15722202972122" lon="12.204237344025751"><ele>415.5</ele><time>2026-03-29T10:49:39Z</time></trkpt><trkpt lat="43.15709068189288" lon="12.204252559409946"><ele>417.25</ele><time>2026-03-29T10:49:40Z</time></trkpt><trkpt lat="43.15698182107983" lon="12.20428207762088"><ele>419.0</ele><time>2026-03-29T10:49:41Z</time></trkpt><trkpt lat="43.1568774181066" lon="12.204260304179794"><ele>419.0</ele><time>2026-03-29T10:49:42Z</time></trkpt><trkpt lat="43.15678060538951" lon="12.204234353603212"><ele>419.0</ele><time>2026-03-29T10:49:43Z</time></trkpt><trkpt lat="43.156668225596626" lon="12.204187822135903"><ele>419.0</ele><time>2026-03-29T10:49:44Z</time></trkpt><trkpt lat="43.156583816182405" lon="12.20406672383715"><ele>419.0</ele><time>2026-03-29T10:49:45Z</time></trkpt><trkpt lat="43.15650654853098" lon="12.2039875398148"><ele>419.0</ele><time>2026-03-29T10:49:46Z</time></trkpt><trkpt lat="43.1563934218091" lon="12.20391719657379"><ele>418.0</ele><time>2026-03-29T10:49:47Z</time></trkpt><trkpt lat="43.15626388626202" lon="12.203832736685136"><ele>417.0</ele><time>2026-03-29T10:49:48Z</time></trkpt><trkpt lat="43.15611063844408" lon="12.203766899942497"><ele>416.0</ele><time>2026-03-29T10:49:49Z</time></trkpt><trkpt lat="43.15598105194583" lon="12.203690827986405"><ele>415.0</ele><time>2026-03-29T10:49:50Z</time></trkpt><trkpt lat="43.155846397291974" lon="12.203570975164292"><ele>415.0</ele><time>2026-03-29T10:49:51Z</time></trkpt><trkpt lat="43.15573021113329" lon="12.203425192209853"><ele>415.0</ele><time>2026-03-29T10:49:52Z</time></trkpt><trkpt lat="43.155619823666356" lon="12.203294891715744"><ele>415.0</ele><time>2026-03-29T10:49:53Z</time></trkpt><trkpt lat="43.15551339115444" lon="12.203121091210443"><ele>412.6666666666667</ele><time>2026-03-29T10:49:54Z</time></trkpt><trkpt lat="43.155407980029274" lon="12.202955183421539"><ele>410.33333333333337</ele><time>2026-03-29T10:49:55Z</time></trkpt><trkpt lat="43.155299220634724" lon="12.202806447479363"><ele>408.0</ele><time>2026-03-29T10:49:56Z</time></trkpt><trkpt lat="43.1551879340203" lon="12.202677982716091"><ele>408.0</ele><time>2026-03-29T10:49:57Z</time></trkpt><trkpt lat="43.1551035122553" lon="12.202549790586055"><ele>408.0</ele><time>2026-03-29T10:49:58Z</time></trkpt><trkpt lat="43.15502787029303" lon="12.202405777412876"><ele>408.0</ele><time>2026-03-29T10:49:59Z</time></trkpt><trkpt lat="43.15495052977238" lon="12.202246721486897"><ele>408.0</ele><time>2026-03-29T10:50:00Z</time></trkpt><trkpt lat="43.15487691677827" lon="12.202127842086497"><ele>408.75</ele><time>2026-03-29T10:50:01Z</time></trkpt><trkpt lat="43.15479519524747" lon="12.202018207522288"><ele>409.5</ele><time>2026-03-29T10:50:02Z</time></trkpt><trkpt lat="43.15470557365695" lon="12.201883835008497"><ele>410.25</ele><time>2026-03-29T10:50:03Z</time></trkpt><trkpt lat="43.154602036036145" lon="12.201768430325549"><ele>411.0</ele><time>2026-03-29T10:50:04Z</time></trkpt><trkpt lat="43.15449551152758" lon="12.201691302614858"><ele>411.0</ele><time>2026-03-29T10:50:05Z</time></trkpt><trkpt lat="43.15440810645708" lon="12.20157684002232"><ele>411.0</ele><time>2026-03-29T10:50:06Z</time></trkpt><trkpt lat="43.154311770346055" lon="12.201494200960234"><ele>411.0</ele><time>2026-03-29T10:50:07Z</time></trkpt><trkpt lat="43.154234688772874" lon="12.201423523280324"><ele>411.0</ele><time>2026-03-29T10:50:08Z</time></trkpt><trkpt lat="43.15416297431029" lon="12.201399284035242"><ele>411.0</ele><time>2026-03-29T10:50:09Z</time></trkpt><trkpt lat="43.15410124372401" lon="12.201418930479022"><ele>411.8</ele><time>2026-03-29T10:50:10Z</time></trkpt><trkpt lat="43.15402740772668" lon="12.20145489724705"><ele>412.6</ele><time>2026-03-29T10:50:11Z</time></trkpt><trkpt lat="43.153957407668706" lon="12.201505116056465"><ele>413.4</ele><time>2026-03-29T10:50:12Z</time></trkpt><trkpt lat="43.15384628946823" lon="12.201481017800223"><ele>414.2</ele><time>2026-03-29T10:50:14Z</time></trkpt><trkpt lat="43.15376709880598" lon="12.201473789232987"><ele>415.0</ele><time>2026-03-29T10:50:15Z</time></trkpt><trkpt lat="43.15365266647013" lon="12.201461556915312"><ele>415.0</ele><time>2026-03-29T10:50:16Z</time></trkpt><trkpt lat="43.15353509666837" lon="12.201439740902119"><ele>415.0</ele><time>2026-03-29T10:50:17Z</time></trkpt><trkpt lat="43.15344254572916" lon="12.201408829017696"><ele>415.0</ele><time>2026-03-29T10:50:18Z</time></trkpt><trkpt lat="43.15333759409019" lon="12.20135798653659"><ele>415.0</ele><time>2026-03-29T10:50:19Z</time></trkpt><trkpt lat="43.15321983905592" lon="12.201278452784804"><ele>416.25</ele><time>2026-03-29T10:50:20Z</time></trkpt><trkpt lat="43.1531105077406" lon="12.201211505736913"><ele>417.5</ele><time>2026-03-29T10:50:21Z</time></trkpt><trkpt lat="43.1530100342632" lon="12.20116077886806"><ele>418.75</ele><time>2026-03-29T10:50:22Z</time></trkpt><trkpt lat="43.15289373054589" lon="12.20112477267872"><ele>420.0</ele><time>2026-03-29T10:50:23Z</time></trkpt><trkpt lat="43.15278290239519" lon="12.201132373032495"><ele>420.0</ele><time>2026-03-29T10:50:24Z</time></trkpt><trkpt lat="43.15266857925862" lon="12.201134654492435"><ele>420.0</ele><time>2026-03-29T10:50:25Z</time></trkpt><trkpt lat="43.15254446038351" lon="12.201142940182173"><ele>420.0</ele><time>2026-03-29T10:50:26Z</time></trkpt><trkpt lat="43.15242946080493" lon="12.201156222470196"><ele>420.0</ele><time>2026-03-29T10:50:27Z</time></trkpt><trkpt lat="43.152328012354566" lon="12.20116646081098"><ele>420.6666666666667</ele><time>2026-03-29T10:50:28Z</time></trkpt><trkpt lat="43.152242687171004" lon="12.201102456173846"><ele>421.33333333333337</ele><time>2026-03-29T10:50:29Z</time></trkpt><trkpt lat="43.15215007362675" lon="12.201050415049409"><ele>422.0</ele><time>2026-03-29T10:50:30Z</time></trkpt><trkpt lat="43.15205785467273" lon="12.20098158510658"><ele>422.6666666666667</ele><time>2026-03-29T10:50:31Z</time></trkpt><trkpt lat="43.152002492678555" lon="12.200925929622654"><ele>423.33333333333337</ele><time>2026-03-29T10:50:32Z</time></trkpt><trkpt lat="43.15197775375391" lon="12.200823883619238"><ele>424.0</ele><time>2026-03-29T10:50:35Z</time></trkpt><trkpt lat="43.15197905653483" lon="12.200678701993306"><ele>423.00000000000006</ele><time>2026-03-29T10:50:37Z</time></trkpt><trkpt lat="43.151957921057154" lon="12.200597376290093"><ele>422.0</ele><time>2026-03-29T10:50:38Z</time></trkpt><trkpt lat="43.151918955117424" lon="12.200512055240955"><ele>421.0</ele><time>2026-03-29T10:50:39Z</time></trkpt><trkpt lat="43.15189667489763" lon="12.200391093124308"><ele>420.0</ele><time>2026-03-29T10:50:40Z</time></trkpt><trkpt lat="43.15186955347568" lon="12.20028369053119"><ele>419.00000000000006</ele><time>2026-03-29T10:50:41Z</time></trkpt><trkpt lat="43.15185396863517" lon="12.200174345704548"><ele>418.0</ele><time>2026-03-29T10:50:42Z</time></trkpt><trkpt lat="43.15185476223745" lon="12.2000573246206"><ele>418.0</ele><time>2026-03-29T10:50:43Z</time></trkpt><trkpt lat="43.15184808349506" lon="12.19992972012735"><ele>418.0</ele><time>2026-03-29T10:50:44Z</time></trkpt><trkpt lat="43.15182557854165" lon="12.199811285046275"><ele>418.0</ele><time>2026-03-29T10:50:45Z</time></trkpt><trkpt lat="43.15183527757515" lon="12.1996850492359"><ele>418.0</ele><time>2026-03-29T10:50:46Z</time></trkpt><trkpt lat="43.15182878063456" lon="12.199560918030027"><ele>418.0</ele><time>2026-03-29T10:50:47Z</time></trkpt><trkpt lat="43.15180449766162" lon="12.19944070350765"><ele>415.2</ele><time>2026-03-29T10:50:48Z</time></trkpt><trkpt lat="43.15178633495426" lon="12.199335177474778"><ele>412.4</ele><time>2026-03-29T10:50:49Z</time></trkpt><trkpt lat="43.151767686076" lon="12.199226553077136"><ele>409.59999999999997</ele><time>2026-03-29T10:50:50Z</time></trkpt><trkpt lat="43.15176158580551" lon="12.199105632085637"><ele>406.79999999999995</ele><time>2026-03-29T10:50:51Z</time></trkpt><trkpt lat="43.15172747315527" lon="12.198954343688722"><ele>404.0</ele><time>2026-03-29T10:50:52Z</time></trkpt><trkpt lat="43.15168832812243" lon="12.198807705246129"><ele>401.75</ele><time>2026-03-29T10:50:53Z</time></trkpt><trkpt lat="43.15165111399583" lon="12.198669223072432"><ele>399.5</ele><time>2026-03-29T10:50:54Z</time></trkpt><trkpt lat="43.151613962212366" lon="12.198534252829017"><ele>397.25</ele><time>2026-03-29T10:50:55Z</time></trkpt><trkpt lat="43.151566745693216" lon="12.198384946632814"><ele>395.0</ele><time>2026-03-29T10:50:56Z</time></trkpt><trkpt lat="43.15149235540945" lon="12.198247039677076"><ele>391.66666666666663</ele><time>2026-03-29T10:50:57Z</time></trkpt><trkpt lat="43.1514100143899" lon="12.198077567431488"><ele>388.33333333333337</ele><time>2026-03-29T10:50:58Z</time></trkpt><trkpt lat="43.15131786341151" lon="12.19787417279725"><ele>385.0</ele><time>2026-03-29T10:50:59Z</time></trkpt><trkpt lat="43.15119300867754" lon="12.19769425805299"><ele>385.0</ele><time>2026-03-29T10:51:00Z</time></trkpt><trkpt lat="43.15109413662032" lon="12.197545403251947"><ele>385.0</ele><time>2026-03-29T10:51:01Z</time></trkpt><trkpt lat="43.15102201915474" lon="12.19741136982056"><ele>385.0</ele><time>2026-03-29T10:51:02Z</time></trkpt><trkpt lat="43.15096189809157" lon="12.197293620790441"><ele>385.0</ele><time>2026-03-29T10:51:03Z</time></trkpt><trkpt lat="43.15090895328873" lon="12.197178175542547"><ele>386.0</ele><time>2026-03-29T10:51:04Z</time></trkpt><trkpt lat="43.15087382727652" lon="12.197042675870943"><ele>387.0</ele><time>2026-03-29T10:51:05Z</time></trkpt><trkpt lat="43.15081667040186" lon="12.196927474835723"><ele>388.0</ele><time>2026-03-29T10:51:06Z</time></trkpt><trkpt lat="43.150751066189066" lon="12.196839346742166"><ele>389.0</ele><time>2026-03-29T10:51:07Z</time></trkpt><trkpt lat="43.15069771593418" lon="12.196739183316328"><ele>390.0</ele><time>2026-03-29T10:51:08Z</time></trkpt><trkpt lat="43.15068678701824" lon="12.196642889381337"><ele>386.1666666666667</ele><time>2026-03-29T10:51:09Z</time></trkpt><trkpt lat="43.150644937337894" lon="12.196539975638142"><ele>382.3333333333333</ele><time>2026-03-29T10:51:11Z</time></trkpt><trkpt lat="43.15055506611521" lon="12.196570389696785"><ele>378.5</ele><time>2026-03-29T10:51:13Z</time></trkpt><trkpt lat="43.150522940163405" lon="12.19665824706785"><ele>374.66666666666663</ele><time>2026-03-29T10:51:14Z</time></trkpt><trkpt lat="43.150453752928705" lon="12.196744149017894"><ele>370.8333333333333</ele><time>2026-03-29T10:51:16Z</time></trkpt><trkpt lat="43.150383495363386" lon="12.196666396397394"><ele>367.0</ele><time>2026-03-29T10:51:18Z</time></trkpt><trkpt lat="43.15034421439216" lon="12.196536124139362"><ele>366.8</ele><time>2026-03-29T10:51:19Z</time></trkpt><trkpt lat="43.1502953959732" lon="12.19643450321833"><ele>366.6</ele><time>2026-03-29T10:51:20Z</time></trkpt><trkpt lat="43.15023709487803" lon="12.196317051378907"><ele>366.40000000000003</ele><time>2026-03-29T10:51:21Z</time></trkpt><trkpt lat="43.15017427184747" lon="12.1962174939196"><ele>366.20000000000005</ele><time>2026-03-29T10:51:22Z</time></trkpt><trkpt lat="43.1501258756804" lon="12.1961189385473"><ele>366.0</ele><time>2026-03-29T10:51:23Z</time></trkpt><trkpt lat="43.15010598216102" lon="12.19601116110035"><ele>366.0</ele><time>2026-03-29T10:51:24Z</time></trkpt><trkpt lat="43.15011553419341" lon="12.195907057967412"><ele>366.0</ele><time>2026-03-29T10:51:25Z</time></trkpt><trkpt lat="43.15014801047352" lon="12.195791559136307"><ele>366.0</ele><time>2026-03-29T10:51:26Z</time></trkpt><trkpt lat="43.150216969735155" lon="12.195704677855236"><ele>366.0</ele><time>2026-03-29T10:51:27Z</time></trkpt><trkpt lat="43.15028897081819" lon="12.195642163007845"><ele>366.0</ele><time>2026-03-29T10:51:28Z</time></trkpt><trkpt lat="43.15036859991774" lon="12.195588003544655"><ele>366.0</ele><time>2026-03-29T10:51:29Z</time></trkpt><trkpt lat="43.15045579503095" lon="12.195513636711429"><ele>365.20000000000005</ele><time>2026-03-29T10:51:30Z</time></trkpt><trkpt lat="43.15053847255881" lon="12.195436516972855"><ele>364.40000000000003</ele><time>2026-03-29T10:51:31Z</time></trkpt><trkpt lat="43.15061450757662" lon="12.195342802242715"><ele>363.6</ele><time>2026-03-29T10:51:32Z</time></trkpt><trkpt lat="43.15067720704504" lon="12.19524606656562"><ele>362.8</ele><time>2026-03-29T10:51:33Z</time></trkpt><trkpt lat="43.15074329014376" lon="12.195156725448994"><ele>362.0</ele><time>2026-03-29T10:51:34Z</time></trkpt><trkpt lat="43.15080251174683" lon="12.195090211178936"><ele>362.0</ele><time>2026-03-29T10:51:35Z</time></trkpt><trkpt lat="43.150881350860594" lon="12.195035879431666"><ele>362.0</ele><time>2026-03-29T10:51:36Z</time></trkpt><trkpt lat="43.15097836101264" lon="12.194998882940638"><ele>362.0</ele><time>2026-03-29T10:51:37Z</time></trkpt><trkpt lat="43.15106932937533" lon="12.19496925181255"><ele>362.0</ele><time>2026-03-29T10:51:38Z</time></trkpt><trkpt lat="43.15115985125473" lon="12.194941369335647"><ele>362.0</ele><time>2026-03-29T10:51:39Z</time></trkpt><trkpt lat="43.15124166814236" lon="12.194926926764529"><ele>362.0</ele><time>2026-03-29T10:51:40Z</time></trkpt><trkpt lat="43.15133356547456" lon="12.194926143697428"><ele>362.0</ele><time>2026-03-29T10:51:41Z</time></trkpt><trkpt lat="43.15141740124091" lon="12.194933260167376"><ele>362.0</ele><time>2026-03-29T10:51:42Z</time></trkpt><trkpt lat="43.15149472449335" lon="12.194938680040877"><ele>362.0</ele><time>2026-03-29T10:51:43Z</time></trkpt><trkpt lat="43.15158464509636" lon="12.194950899092024"><ele>362.0</ele><time>2026-03-29T10:51:45Z</time></trkpt><trkpt lat="43.15164880974863" lon="12.194922510350972"><ele>362.0</ele><time>2026-03-29T10:51:47Z</time></trkpt><trkpt lat="43.15153079552672" lon="12.19472066837062"><ele>361.75</ele><time>2026-03-29T10:51:50Z</time></trkpt><trkpt lat="43.15145888382598" lon="12.194704041037859"><ele>361.5</ele><time>2026-03-29T10:51:51Z</time></trkpt><trkpt lat="43.15131920261063" lon="12.194666266650323"><ele>361.25</ele><time>2026-03-29T10:51:52Z</time></trkpt><trkpt lat="43.15118686094448" lon="12.194626789387602"><ele>361.0</ele><time>2026-03-29T10:51:53Z</time></trkpt><trkpt lat="43.15106214747465" lon="12.1945813661307"><ele>361.0</ele><time>2026-03-29T10:51:54Z</time></trkpt><trkpt lat="43.150911624305756" lon="12.194596015517877"><ele>361.0</ele><time>2026-03-29T10:51:55Z</time></trkpt><trkpt lat="43.15078381485271" lon="12.194635590019521"><ele>361.0</ele><time>2026-03-29T10:51:56Z</time></trkpt><trkpt lat="43.15066904510035" lon="12.194676420460821"><ele>361.0</ele><time>2026-03-29T10:51:57Z</time></trkpt><trkpt lat="43.15056097177593" lon="12.194707893642839"><ele>360.5</ele><time>2026-03-29T10:51:58Z</time></trkpt><trkpt lat="43.150460583318186" lon="12.19473946866082"><ele>360.0</ele><time>2026-03-29T10:51:59Z</time></trkpt><trkpt lat="43.150372649845735" lon="12.194770196556394"><ele>359.5</ele><time>2026-03-29T10:52:00Z</time></trkpt><trkpt lat="43.150299945489635" lon="12.194800496899825"><ele>359.0</ele><time>2026-03-29T10:52:01Z</time></trkpt><trkpt lat="43.150210897157365" lon="12.194807237846568"><ele>358.5</ele><time>2026-03-29T10:52:03Z</time></trkpt><trkpt lat="43.15017454445495" lon="12.194698888287057"><ele>358.0</ele><time>2026-03-29T10:52:05Z</time></trkpt><trkpt lat="43.15015145306643" lon="12.19459417791594"><ele>358.0</ele><time>2026-03-29T10:52:06Z</time></trkpt><trkpt lat="43.15011511621514" lon="12.194422675095826"><ele>358.0</ele><time>2026-03-29T10:52:07Z</time></trkpt><trkpt lat="43.150065696757714" lon="12.194284290949383"><ele>358.0</ele><time>2026-03-29T10:52:08Z</time></trkpt><trkpt lat="43.1499967218911" lon="12.194148916564219"><ele>358.0</ele><time>2026-03-29T10:52:09Z</time></trkpt><trkpt lat="43.14991910707546" lon="12.19401419529588"><ele>358.0</ele><time>2026-03-29T10:52:10Z</time></trkpt><trkpt lat="43.14980999836074" lon="12.193951577298042"><ele>358.0</ele><time>2026-03-29T10:52:11Z</time></trkpt><trkpt lat="43.14970135828118" lon="12.193853843345023"><ele>358.0</ele><time>2026-03-29T10:52:12Z</time></trkpt><trkpt lat="43.14961103186203" lon="12.193756779032167"><ele>358.0</ele><time>2026-03-29T10:52:13Z</time></trkpt><trkpt lat="43.14953517573268" lon="12.193632414944792"><ele>358.0</ele><time>2026-03-29T10:52:14Z</time></trkpt><trkpt lat="43.14946416363174" lon="12.193492972380072"><ele>358.0</ele><time>2026-03-29T10:52:15Z</time></trkpt><trkpt lat="43.14939353916132" lon="12.193349833179775"><ele>358.0</ele><time>2026-03-29T10:52:16Z</time></trkpt><trkpt lat="43.14931913568355" lon="12.193187900204588"><ele>358.0</ele><time>2026-03-29T10:52:17Z</time></trkpt><trkpt lat="43.14924509045958" lon="12.193013487890527"><ele>359.59999999999997</ele><time>2026-03-29T10:52:18Z</time></trkpt><trkpt lat="43.149188996847485" lon="12.19286398046524"><ele>361.2</ele><time>2026-03-29T10:52:19Z</time></trkpt><trkpt lat="43.149132560721604" lon="12.192721103212131"><ele>362.8</ele><time>2026-03-29T10:52:20Z</time></trkpt><trkpt lat="43.149078006907395" lon="12.192576612241249"><ele>364.4</ele><time>2026-03-29T10:52:21Z</time></trkpt><trkpt lat="43.149038157981884" lon="12.192466612261656"><ele>366.0</ele><time>2026-03-29T10:52:22Z</time></trkpt><trkpt lat="43.149004098304424" lon="12.192351839349273"><ele>366.25</ele><time>2026-03-29T10:52:23Z</time></trkpt><trkpt lat="43.14898361642871" lon="12.192211112102367"><ele>366.5</ele><time>2026-03-29T10:52:24Z</time></trkpt><trkpt lat="43.14898899773146" lon="12.192046834896109"><ele>366.75</ele><time>2026-03-29T10:52:25Z</time></trkpt><trkpt lat="43.1490310875487" lon="12.191845717365187"><ele>367.0</ele><time>2026-03-29T10:52:26Z</time></trkpt><trkpt lat="43.14907867809625" lon="12.1916005873632"><ele>367.0</ele><time>2026-03-29T10:52:27Z</time></trkpt><trkpt lat="43.149138829818774" lon="12.19139241066498"><ele>367.0</ele><time>2026-03-29T10:52:28Z</time></trkpt><trkpt lat="43.14919884648404" lon="12.191216822930404"><ele>367.0</ele><time>2026-03-29T10:52:29Z</time></trkpt><trkpt lat="43.149239961425465" lon="12.191059109015583"><ele>367.0</ele><time>2026-03-29T10:52:30Z</time></trkpt><trkpt lat="43.14928948257747" lon="12.190910524645862"><ele>367.0</ele><time>2026-03-29T10:52:31Z</time></trkpt><trkpt lat="43.1493289957647" lon="12.190787603714256"><ele>367.0</ele><time>2026-03-29T10:52:32Z</time></trkpt><trkpt lat="43.149370843999144" lon="12.190677266728795"><ele>367.0</ele><time>2026-03-29T10:52:33Z</time></trkpt><trkpt lat="43.149404649704366" lon="12.190563825784968"><ele>367.0</ele><time>2026-03-29T10:52:34Z</time></trkpt><trkpt lat="43.149430568476426" lon="12.190438427549674"><ele>367.0</ele><time>2026-03-29T10:52:35Z</time></trkpt><trkpt lat="43.14943792225953" lon="12.190317429998712"><ele>367.8</ele><time>2026-03-29T10:52:36Z</time></trkpt><trkpt lat="43.14944569270878" lon="12.190191189247486"><ele>368.6</ele><time>2026-03-29T10:52:37Z</time></trkpt><trkpt lat="43.14943013126218" lon="12.190065427639174"><ele>369.40000000000003</ele><time>2026-03-29T10:52:38Z</time></trkpt><trkpt lat="43.14941579471807" lon="12.18994952644799"><ele>370.20000000000005</ele><time>2026-03-29T10:52:40Z</time></trkpt><trkpt lat="43.14928393719935" lon="12.189902437137055"><ele>371.0</ele><time>2026-03-29T10:52:41Z</time></trkpt><trkpt lat="43.14917358055566" lon="12.18987043199941"><ele>372.6</ele><time>2026-03-29T10:52:43Z</time></trkpt><trkpt lat="43.14908008330416" lon="12.189841702554235"><ele>374.20000000000005</ele><time>2026-03-29T10:52:45Z</time></trkpt><trkpt lat="43.148970158215796" lon="12.189805991550687"><ele>375.79999999999995</ele><time>2026-03-29T10:52:47Z</time></trkpt><trkpt lat="43.148899291144566" lon="12.189781643733916"><ele>377.4</ele><time>2026-03-29T10:52:48Z</time></trkpt><trkpt lat="43.148810338514814" lon="12.18974826435724"><ele>379.0</ele><time>2026-03-29T10:52:49Z</time></trkpt><trkpt lat="43.14870835614013" lon="12.189702274206882"><ele>379.4</ele><time>2026-03-29T10:52:50Z</time></trkpt><trkpt lat="43.14859247174749" lon="12.189658858162897"><ele>379.79999999999995</ele><time>2026-03-29T10:52:51Z</time></trkpt><trkpt lat="43.148488663596034" lon="12.189602264680907"><ele>380.20000000000005</ele><time>2026-03-29T10:52:52Z</time></trkpt><trkpt lat="43.1483923238843" lon="12.189557426358018"><ele>380.6</ele><time>2026-03-29T10:52:53Z</time></trkpt><trkpt lat="43.14829671117689" lon="12.189520925419785"><ele>381.0</ele><time>2026-03-29T10:52:54Z</time></trkpt><trkpt lat="43.14819768006111" lon="12.189472532798883"><ele>378.25</ele><time>2026-03-29T10:52:55Z</time></trkpt><trkpt lat="43.148082021291174" lon="12.189446086958055"><ele>375.5</ele><time>2026-03-29T10:52:56Z</time></trkpt><trkpt lat="43.147938443389734" lon="12.18941729108197"><ele>372.75</ele><time>2026-03-29T10:52:57Z</time></trkpt><trkpt lat="43.14779973073268" lon="12.189392905596911"><ele>370.0</ele><time>2026-03-29T10:52:58Z</time></trkpt><trkpt lat="43.14765267046257" lon="12.189373559109873"><ele>370.0</ele><time>2026-03-29T10:52:59Z</time></trkpt><trkpt lat="43.14751546249449" lon="12.189359284181073"><ele>370.0</ele><time>2026-03-29T10:53:00Z</time></trkpt><trkpt lat="43.14737534967768" lon="12.189353013843254"><ele>370.0</ele><time>2026-03-29T10:53:01Z</time></trkpt><trkpt lat="43.14724226039555" lon="12.189305019763358"><ele>370.0</ele><time>2026-03-29T10:53:02Z</time></trkpt><trkpt lat="43.147121217355796" lon="12.1892807333638"><ele>367.6</ele><time>2026-03-29T10:53:03Z</time></trkpt><trkpt lat="43.14700737097316" lon="12.189278833811617"><ele>365.2</ele><time>2026-03-29T10:53:04Z</time></trkpt><trkpt lat="43.146896428632026" lon="12.189308322710419"><ele>362.79999999999995</ele><time>2026-03-29T10:53:05Z</time></trkpt><trkpt lat="43.14679538736121" lon="12.18933966457862"><ele>360.4</ele><time>2026-03-29T10:53:06Z</time></trkpt><trkpt lat="43.14669967673812" lon="12.189353454688067"><ele>358.0</ele><time>2026-03-29T10:53:07Z</time></trkpt><trkpt lat="43.14661394236611" lon="12.189394590247387"><ele>355.0</ele><time>2026-03-29T10:53:08Z</time></trkpt><trkpt lat="43.1465429529331" lon="12.189394765607412"><ele>352.0</ele><time>2026-03-29T10:53:09Z</time></trkpt><trkpt lat="43.14647245656474" lon="12.189435911205106"><ele>349.0</ele><time>2026-03-29T10:53:11Z</time></trkpt><trkpt lat="43.14645086602928" lon="12.189237250737053"><ele>346.0</ele><time>2026-03-29T10:53:12Z</time></trkpt><trkpt lat="43.14639788740843" lon="12.18913785952054"><ele>343.0</ele><time>2026-03-29T10:53:13Z</time></trkpt><trkpt lat="43.146332705485285" lon="12.189010009263487"><ele>345.0</ele><time>2026-03-29T10:53:14Z</time></trkpt><trkpt lat="43.146263855535956" lon="12.188879645264853"><ele>347.0</ele><time>2026-03-29T10:53:15Z</time></trkpt><trkpt lat="43.146195163949265" lon="12.188763273143033"><ele>349.0</ele><time>2026-03-29T10:53:16Z</time></trkpt><trkpt lat="43.14613011228496" lon="12.188668517296842"><ele>351.0</ele><time>2026-03-29T10:53:17Z</time></trkpt><trkpt lat="43.14607468954926" lon="12.188552677381683"><ele>353.0</ele><time>2026-03-29T10:53:18Z</time></trkpt><trkpt lat="43.146012884025076" lon="12.188460087922849"><ele>353.0</ele><time>2026-03-29T10:53:19Z</time></trkpt><trkpt lat="43.14594900880538" lon="12.188385862485381"><ele>353.0</ele><time>2026-03-29T10:53:20Z</time></trkpt><trkpt lat="43.145882332650245" lon="12.188318201359884"><ele>353.0</ele><time>2026-03-29T10:53:21Z</time></trkpt><trkpt lat="43.145823659328116" lon="12.188213899967527"><ele>353.0</ele><time>2026-03-29T10:53:22Z</time></trkpt><trkpt lat="43.145749282202345" lon="12.18811350478922"><ele>353.0</ele><time>2026-03-29T10:53:23Z</time></trkpt><trkpt lat="43.14567302975309" lon="12.18801419589616"><ele>354.5</ele><time>2026-03-29T10:53:24Z</time></trkpt><trkpt lat="43.14559086755582" lon="12.187909134869573"><ele>356.0</ele><time>2026-03-29T10:53:25Z</time></trkpt><trkpt lat="43.14549952955887" lon="12.187806888717766"><ele>357.5</ele><time>2026-03-29T10:53:26Z</time></trkpt><trkpt lat="43.14540041008392" lon="12.18771145664781"><ele>359.0</ele><time>2026-03-29T10:53:27Z</time></trkpt><trkpt lat="43.14529294435608" lon="12.187626885445633"><ele>359.0</ele><time>2026-03-29T10:53:28Z</time></trkpt><trkpt lat="43.14517970893799" lon="12.187587925544792"><ele>359.0</ele><time>2026-03-29T10:53:29Z</time></trkpt><trkpt lat="43.145071899585396" lon="12.18754746525567"><ele>359.0</ele><time>2026-03-29T10:53:30Z</time></trkpt><trkpt lat="43.144952658712086" lon="12.187553759318883"><ele>359.0</ele><time>2026-03-29T10:53:31Z</time></trkpt><trkpt lat="43.14483074565115" lon="12.187598536493967"><ele>357.79999999999995</ele><time>2026-03-29T10:53:32Z</time></trkpt><trkpt lat="43.14470972883405" lon="12.187676975572552"><ele>356.59999999999997</ele><time>2026-03-29T10:53:33Z</time></trkpt><trkpt lat="43.144593861811366" lon="12.187727980090433"><ele>355.4</ele><time>2026-03-29T10:53:34Z</time></trkpt><trkpt lat="43.14449655769739" lon="12.187773717641711"><ele>354.2</ele><time>2026-03-29T10:53:35Z</time></trkpt><trkpt lat="43.14440930467687" lon="12.187741001632622"><ele>353.0</ele><time>2026-03-29T10:53:36Z</time></trkpt><trkpt lat="43.14432387197931" lon="12.187744560019363"><ele>353.0</ele><time>2026-03-29T10:53:37Z</time></trkpt><trkpt lat="43.14425195609489" lon="12.18773315364492"><ele>353.0</ele><time>2026-03-29T10:53:39Z</time></trkpt><trkpt lat="43.14427138057949" lon="12.187471964686948"><ele>353.0</ele><time>2026-03-29T10:53:40Z</time></trkpt><trkpt lat="43.144293327731944" lon="12.187250861716617"><ele>353.0</ele><time>2026-03-29T10:53:41Z</time></trkpt><trkpt lat="43.14429102346638" lon="12.187034823710583"><ele>354.4</ele><time>2026-03-29T10:53:42Z</time></trkpt><trkpt lat="43.14429174361587" lon="12.186846934567695"><ele>355.79999999999995</ele><time>2026-03-29T10:53:43Z</time></trkpt><trkpt lat="43.14428546370152" lon="12.186694360514807"><ele>357.2</ele><time>2026-03-29T10:53:44Z</time></trkpt><trkpt lat="43.14427608076524" lon="12.186544137647644"><ele>358.6</ele><time>2026-03-29T10:53:45Z</time></trkpt><trkpt lat="43.14427554693123" lon="12.18643310071812"><ele>360.0</ele><time>2026-03-29T10:53:46Z</time></trkpt><trkpt lat="43.14421145426537" lon="12.186371586301634"><ele>362.0</ele><time>2026-03-29T10:53:48Z</time></trkpt><trkpt lat="43.14420773336862" lon="12.186205939285754"><ele>364.0</ele><time>2026-03-29T10:53:51Z</time></trkpt><trkpt lat="43.14426317300722" lon="12.186089490983012"><ele>366.0</ele><time>2026-03-29T10:53:52Z</time></trkpt><trkpt lat="43.144310668626346" lon="12.185985856908326"><ele>368.0</ele><time>2026-03-29T10:53:53Z</time></trkpt><trkpt lat="43.144314277730494" lon="12.18587698339869"><ele>370.0</ele><time>2026-03-29T10:53:54Z</time></trkpt><trkpt lat="43.14431066539777" lon="12.185773552121065"><ele>372.6</ele><time>2026-03-29T10:53:55Z</time></trkpt><trkpt lat="43.14429484515407" lon="12.18563302531896"><ele>375.2</ele><time>2026-03-29T10:53:56Z</time></trkpt><trkpt lat="43.14426152436495" lon="12.185490914208527"><ele>377.79999999999995</ele><time>2026-03-29T10:53:57Z</time></trkpt><trkpt lat="43.14420243248164" lon="12.185344239146435"><ele>380.4</ele><time>2026-03-29T10:53:58Z</time></trkpt><trkpt lat="43.14415110404223" lon="12.185208331065654"><ele>383.0</ele><time>2026-03-29T10:53:59Z</time></trkpt><trkpt lat="43.14410963023924" lon="12.18508471900494"><ele>383.0</ele><time>2026-03-29T10:54:00Z</time></trkpt><trkpt lat="43.14406819091398" lon="12.184966043615349"><ele>383.0</ele><time>2026-03-29T10:54:01Z</time></trkpt><trkpt lat="43.14403883535681" lon="12.184837953627087"><ele>383.0</ele><time>2026-03-29T10:54:02Z</time></trkpt><trkpt lat="43.14401873251694" lon="12.184695885840451"><ele>383.0</ele><time>2026-03-29T10:54:03Z</time></trkpt><trkpt lat="43.14401547261991" lon="12.184560913383542"><ele>383.0</ele><time>2026-03-29T10:54:04Z</time></trkpt><trkpt lat="43.143982494079516" lon="12.184434500733751"><ele>383.79999999999995</ele><time>2026-03-29T10:54:05Z</time></trkpt><trkpt lat="43.14391275800152" lon="12.184302648518283"><ele>384.6</ele><time>2026-03-29T10:54:06Z</time></trkpt><trkpt lat="43.14384473857181" lon="12.184180731946993"><ele>385.4</ele><time>2026-03-29T10:54:07Z</time></trkpt><trkpt lat="43.14377934749871" lon="12.184069679612348"><ele>386.20000000000005</ele><time>2026-03-29T10:54:08Z</time></trkpt><trkpt lat="43.143697671289225" lon="12.183978129276387"><ele>387.0</ele><time>2026-03-29T10:54:09Z</time></trkpt><trkpt lat="43.14360654708111" lon="12.183891726618437"><ele>389.20000000000005</ele><time>2026-03-29T10:54:10Z</time></trkpt><trkpt lat="43.14353880980869" lon="12.183802760924138"><ele>391.4</ele><time>2026-03-29T10:54:11Z</time></trkpt><trkpt lat="43.14346988584761" lon="12.183739280524783"><ele>393.6</ele><time>2026-03-29T10:54:12Z</time></trkpt><trkpt lat="43.14339161212826" lon="12.18364550803124"><ele>395.79999999999995</ele><time>2026-03-29T10:54:13Z</time></trkpt><trkpt lat="43.14330427185852" lon="12.183551728209284"><ele>398.0</ele><time>2026-03-29T10:54:14Z</time></trkpt><trkpt lat="43.14320682452599" lon="12.183450902170774"><ele>398.0</ele><time>2026-03-29T10:54:15Z</time></trkpt><trkpt lat="43.14313026467168" lon="12.183332990009799"><ele>398.0</ele><time>2026-03-29T10:54:16Z</time></trkpt><trkpt lat="43.14306400276975" lon="12.183255608609969"><ele>398.0</ele><time>2026-03-29T10:54:17Z</time></trkpt><trkpt lat="43.14296788351869" lon="12.183203309866514"><ele>398.0</ele><time>2026-03-29T10:54:18Z</time></trkpt><trkpt lat="43.14285879720931" lon="12.183144636947215"><ele>398.0</ele><time>2026-03-29T10:54:19Z</time></trkpt><trkpt lat="43.14271282657235" lon="12.183076384277152"><ele>401.0</ele><time>2026-03-29T10:54:20Z</time></trkpt><trkpt lat="43.14258162030223" lon="12.183048475822513"><ele>404.0</ele><time>2026-03-29T10:54:21Z</time></trkpt><trkpt lat="43.14246382470762" lon="12.183015421879645"><ele>407.0</ele><time>2026-03-29T10:54:22Z</time></trkpt><trkpt lat="43.14234294251752" lon="12.182943448215825"><ele>410.0</ele><time>2026-03-29T10:54:23Z</time></trkpt><trkpt lat="43.14224818451243" lon="12.182913427977216"><ele>410.0</ele><time>2026-03-29T10:54:24Z</time></trkpt><trkpt lat="43.14215380141986" lon="12.182833948934098"><ele>410.0</ele><time>2026-03-29T10:54:25Z</time></trkpt><trkpt lat="43.142077015900135" lon="12.182767128143452"><ele>410.0</ele><time>2026-03-29T10:54:26Z</time></trkpt><trkpt lat="43.14198160919781" lon="12.182733074003378"><ele>410.0</ele><time>2026-03-29T10:54:27Z</time></trkpt><trkpt lat="43.14188747739646" lon="12.18270566046512"><ele>410.0</ele><time>2026-03-29T10:54:28Z</time></trkpt><trkpt lat="43.141809888773146" lon="12.182658643153735"><ele>409.99999999999994</ele><time>2026-03-29T10:54:29Z</time></trkpt><trkpt lat="43.14173201533442" lon="12.182622449872316"><ele>410.0</ele><time>2026-03-29T10:54:30Z</time></trkpt><trkpt lat="43.14166687716959" lon="12.182602637322816"><ele>410.0</ele><time>2026-03-29T10:54:31Z</time></trkpt><trkpt lat="43.14157756206816" lon="12.182596592122565"><ele>410.0</ele><time>2026-03-29T10:54:33Z</time></trkpt><trkpt lat="43.14149846030184" lon="12.18262591840292"><ele>409.99999999999994</ele><time>2026-03-29T10:54:36Z</time></trkpt><trkpt lat="43.14143658220644" lon="12.182602930063654"><ele>410.0</ele><time>2026-03-29T10:54:37Z</time></trkpt><trkpt lat="43.14132187911559" lon="12.182586668117036"><ele>410.3333333333333</ele><time>2026-03-29T10:54:39Z</time></trkpt><trkpt lat="43.14122438640236" lon="12.18259060383328"><ele>410.66666666666663</ele><time>2026-03-29T10:54:40Z</time></trkpt><trkpt lat="43.141155014585664" lon="12.182591079281012"><ele>411.0</ele><time>2026-03-29T10:54:41Z</time></trkpt><trkpt lat="43.14108059839159" lon="12.182605903681893"><ele>411.33333333333337</ele><time>2026-03-29T10:54:42Z</time></trkpt><trkpt lat="43.140987092873544" lon="12.182624212032598"><ele>411.6666666666667</ele><time>2026-03-29T10:54:43Z</time></trkpt><trkpt lat="43.1408877045657" lon="12.182669563099143"><ele>412.0</ele><time>2026-03-29T10:54:44Z</time></trkpt><trkpt lat="43.140770433371344" lon="12.182693310962796"><ele>412.6666666666667</ele><time>2026-03-29T10:54:45Z</time></trkpt><trkpt lat="43.14063007636029" lon="12.182730261340518"><ele>413.33333333333337</ele><time>2026-03-29T10:54:46Z</time></trkpt><trkpt lat="43.14048212710146" lon="12.182794325575708"><ele>414.0</ele><time>2026-03-29T10:54:47Z</time></trkpt><trkpt lat="43.14034299254226" lon="12.182884334024324"><ele>414.0</ele><time>2026-03-29T10:54:48Z</time></trkpt><trkpt lat="43.14019362198496" lon="12.182907732425996"><ele>414.0</ele><time>2026-03-29T10:54:49Z</time></trkpt><trkpt lat="43.14004097849455" lon="12.182920751418267"><ele>414.0</ele><time>2026-03-29T10:54:50Z</time></trkpt><trkpt lat="43.13987545632501" lon="12.182936182593172"><ele>414.66666666666663</ele><time>2026-03-29T10:54:51Z</time></trkpt><trkpt lat="43.139721735816664" lon="12.182963981819231"><ele>415.3333333333333</ele><time>2026-03-29T10:54:52Z</time></trkpt><trkpt lat="43.1395513388238" lon="12.182991740907468"><ele>416.0</ele><time>2026-03-29T10:54:53Z</time></trkpt><trkpt lat="43.13940248809516" lon="12.18301815339355"><ele>416.0</ele><time>2026-03-29T10:54:54Z</time></trkpt><trkpt lat="43.13924873105881" lon="12.183025987495153"><ele>416.0</ele><time>2026-03-29T10:54:55Z</time></trkpt><trkpt lat="43.13909844991354" lon="12.1830543495249"><ele>416.0</ele><time>2026-03-29T10:54:56Z</time></trkpt><trkpt lat="43.13895191593068" lon="12.183095418653473"><ele>415.5</ele><time>2026-03-29T10:54:57Z</time></trkpt><trkpt lat="43.13879932172092" lon="12.183105023604508"><ele>415.0</ele><time>2026-03-29T10:54:58Z</time></trkpt><trkpt lat="43.138653839485805" lon="12.183085176897695"><ele>414.5</ele><time>2026-03-29T10:54:59Z</time></trkpt><trkpt lat="43.138516214446895" lon="12.183061962791108"><ele>414.0</ele><time>2026-03-29T10:55:00Z</time></trkpt><trkpt lat="43.138363534743114" lon="12.183040102300424"><ele>414.0</ele><time>2026-03-29T10:55:01Z</time></trkpt><trkpt lat="43.138224851628074" lon="12.183027279218601"><ele>414.0</ele><time>2026-03-29T10:55:02Z</time></trkpt><trkpt lat="43.1380970597232" lon="12.183011780406225"><ele>414.0</ele><time>2026-03-29T10:55:03Z</time></trkpt><trkpt lat="43.13797055822587" lon="12.182998347815616"><ele>414.0</ele><time>2026-03-29T10:55:04Z</time></trkpt><trkpt lat="43.13785468662675" lon="12.18298655020994"><ele>412.25</ele><time>2026-03-29T10:55:05Z</time></trkpt><trkpt lat="43.13773521626697" lon="12.182976999074352"><ele>410.5</ele><time>2026-03-29T10:55:06Z</time></trkpt><trkpt lat="43.137629457911174" lon="12.18292901426815"><ele>408.75</ele><time>2026-03-29T10:55:07Z</time></trkpt><trkpt lat="43.13752566047106" lon="12.182858564348688"><ele>407.0</ele><time>2026-03-29T10:55:08Z</time></trkpt><trkpt lat="43.13742609256509" lon="12.182788075952349"><ele>405.20000000000005</ele><time>2026-03-29T10:55:09Z</time></trkpt><trkpt lat="43.13732843099322" lon="12.182734964361313"><ele>403.4</ele><time>2026-03-29T10:55:10Z</time></trkpt><trkpt lat="43.13722724463932" lon="12.182713302127844"><ele>401.6</ele><time>2026-03-29T10:55:11Z</time></trkpt><trkpt lat="43.13712919303691" lon="12.182716351709454"><ele>399.79999999999995</ele><time>2026-03-29T10:55:12Z</time></trkpt><trkpt lat="43.137035836744595" lon="12.182727894219626"><ele>398.0</ele><time>2026-03-29T10:55:13Z</time></trkpt><trkpt lat="43.136934023365505" lon="12.182734524700297"><ele>398.0</ele><time>2026-03-29T10:55:14Z</time></trkpt><trkpt lat="43.13682224655425" lon="12.182730459620657"><ele>398.0</ele><time>2026-03-29T10:55:15Z</time></trkpt><trkpt lat="43.136698346302005" lon="12.182725034003846"><ele>398.0</ele><time>2026-03-29T10:55:16Z</time></trkpt><trkpt lat="43.13657107223944" lon="12.182707382203802"><ele>398.0</ele><time>2026-03-29T10:55:17Z</time></trkpt><trkpt lat="43.13645806042268" lon="12.182669750995101"><ele>396.75</ele><time>2026-03-29T10:55:18Z</time></trkpt><trkpt lat="43.136332751778525" lon="12.182617637483494"><ele>395.5</ele><time>2026-03-29T10:55:19Z</time></trkpt><trkpt lat="43.13622256422874" lon="12.182564884320085"><ele>394.25</ele><time>2026-03-29T10:55:20Z</time></trkpt><trkpt lat="43.13610912357085" lon="12.182513824781225"><ele>393.0</ele><time>2026-03-29T10:55:21Z</time></trkpt><trkpt lat="43.13601693779734" lon="12.182463393045351"><ele>393.0</ele><time>2026-03-29T10:55:22Z</time></trkpt><trkpt lat="43.135930802106856" lon="12.18242412532151"><ele>393.0</ele><time>2026-03-29T10:55:23Z</time></trkpt><trkpt lat="43.13585159282001" lon="12.18237985233722"><ele>393.0</ele><time>2026-03-29T10:55:24Z</time></trkpt><trkpt lat="43.13576821655039" lon="12.182325121301467"><ele>393.0</ele><time>2026-03-29T10:55:25Z</time></trkpt><trkpt lat="43.135696545453094" lon="12.182262691718966"><ele>393.0</ele><time>2026-03-29T10:55:26Z</time></trkpt><trkpt lat="43.1356249415032" lon="12.182209213183274"><ele>393.0</ele><time>2026-03-29T10:55:27Z</time></trkpt><trkpt lat="43.13555787905418" lon="12.182170422989085"><ele>392.4</ele><time>2026-03-29T10:55:28Z</time></trkpt><trkpt lat="43.135499652164064" lon="12.182136424853518"><ele>391.79999999999995</ele><time>2026-03-29T10:55:29Z</time></trkpt><trkpt lat="43.13541793380478" lon="12.18207755332514"><ele>391.2</ele><time>2026-03-29T10:55:31Z</time></trkpt><trkpt lat="43.135272969594034" lon="12.181935340179097"><ele>390.6</ele><time>2026-03-29T10:56:13Z</time></trkpt><trkpt lat="43.13521211671085" lon="12.181874215780748"><ele>390.0</ele><time>2026-03-29T10:56:14Z</time></trkpt><trkpt lat="43.13513558237791" lon="12.181776382961136"><ele>390.0</ele><time>2026-03-29T10:56:15Z</time></trkpt><trkpt lat="43.13500006316671" lon="12.181650711116346"><ele>390.0</ele><time>2026-03-29T10:56:16Z</time></trkpt><trkpt lat="43.13488851679668" lon="12.181539631672209"><ele>390.0</ele><time>2026-03-29T10:56:17Z</time></trkpt><trkpt lat="43.134767558510056" lon="12.181445886919581"><ele>390.0</ele><time>2026-03-29T10:56:18Z</time></trkpt><trkpt lat="43.1346382947444" lon="12.181370305457557"><ele>391.0</ele><time>2026-03-29T10:56:19Z</time></trkpt><trkpt lat="43.134490922683355" lon="12.181274309551004"><ele>392.0</ele><time>2026-03-29T10:56:20Z</time></trkpt><trkpt lat="43.13434303536457" lon="12.181195753060484"><ele>393.0</ele><time>2026-03-29T10:56:21Z</time></trkpt><trkpt lat="43.13417768851738" lon="12.181107922232432"><ele>390.66666666666663</ele><time>2026-03-29T10:56:22Z</time></trkpt><trkpt lat="43.134000527250215" lon="12.181013815569212"><ele>388.3333333333333</ele><time>2026-03-29T10:56:23Z</time></trkpt><trkpt lat="43.13382207116763" lon="12.180924016635268"><ele>386.0</ele><time>2026-03-29T10:56:24Z</time></trkpt><trkpt lat="43.133642606448916" lon="12.180832818969204"><ele>386.0</ele><time>2026-03-29T10:56:25Z</time></trkpt><trkpt lat="43.13347210818673" lon="12.180742496384276"><ele>386.0</ele><time>2026-03-29T10:56:26Z</time></trkpt><trkpt lat="43.13330353572851" lon="12.180662239919803"><ele>386.0</ele><time>2026-03-29T10:56:27Z</time></trkpt><trkpt lat="43.13313314964844" lon="12.180593621410743"><ele>386.0</ele><time>2026-03-29T10:56:28Z</time></trkpt><trkpt lat="43.13297076619493" lon="12.180529176255234"><ele>386.0</ele><time>2026-03-29T10:56:29Z</time></trkpt><trkpt lat="43.132804454865216" lon="12.18046220151637"><ele>386.0</ele><time>2026-03-29T10:56:30Z</time></trkpt><trkpt lat="43.13264542166171" lon="12.18039815771104"><ele>386.0</ele><time>2026-03-29T10:56:31Z</time></trkpt><trkpt lat="43.132489247964266" lon="12.180332516470296"><ele>386.0</ele><time>2026-03-29T10:56:32Z</time></trkpt><trkpt lat="43.13234571363631" lon="12.180263087048266"><ele>386.0</ele><time>2026-03-29T10:56:33Z</time></trkpt><trkpt lat="43.132225320736715" lon="12.180202923592544"><ele>386.0</ele><time>2026-03-29T10:56:34Z</time></trkpt><trkpt lat="43.13213360548651" lon="12.180154535633932"><ele>385.49999999999994</ele><time>2026-03-29T10:56:35Z</time></trkpt><trkpt lat="43.13207344477282" lon="12.180121146269919"><ele>385.0</ele><time>2026-03-29T10:56:36Z</time></trkpt><trkpt lat="43.131984207004514" lon="12.180071621787052"><ele>384.5</ele><time>2026-03-29T10:56:38Z</time></trkpt><trkpt lat="43.13190534315596" lon="12.180054877386178"><ele>384.0</ele><time>2026-03-29T10:56:40Z</time></trkpt><trkpt lat="43.13183721859708" lon="12.180009721074896"><ele>383.5</ele><time>2026-03-29T10:56:42Z</time></trkpt><trkpt lat="43.13175918208456" lon="12.179997965689301"><ele>383.0</ele><time>2026-03-29T10:56:44Z</time></trkpt><trkpt lat="43.1316655993676" lon="12.17996405194442"><ele>383.0</ele><time>2026-03-29T10:56:47Z</time></trkpt><trkpt lat="43.13159504775967" lon="12.179954077115847"><ele>383.0</ele><time>2026-03-29T10:56:49Z</time></trkpt><trkpt lat="43.131523824747234" lon="12.179875678488266"><ele>383.0</ele><time>2026-03-29T10:56:53Z</time></trkpt><trkpt lat="43.13144418708044" lon="12.179813135953278"><ele>383.0</ele><time>2026-03-29T10:56:56Z</time></trkpt><trkpt lat="43.13135886246728" lon="12.179768664710062"><ele>383.0</ele><time>2026-03-29T10:56:58Z</time></trkpt><trkpt lat="43.13128080678541" lon="12.179724049308815"><ele>383.0</ele><time>2026-03-29T10:57:00Z</time></trkpt><trkpt lat="43.131162280931136" lon="12.179664921905271"><ele>382.33333333333337</ele><time>2026-03-29T10:57:02Z</time></trkpt><trkpt lat="43.131083241634606" lon="12.179635289530912"><ele>381.6666666666667</ele><time>2026-03-29T10:57:03Z</time></trkpt><trkpt lat="43.1310003045131" lon="12.179603784084643"><ele>381.0</ele><time>2026-03-29T10:57:04Z</time></trkpt><trkpt lat="43.13092990219322" lon="12.179574477947398"><ele>380.3333333333333</ele><time>2026-03-29T10:57:05Z</time></trkpt><trkpt lat="43.13085600661218" lon="12.179548106444436"><ele>379.66666666666663</ele><time>2026-03-29T10:57:06Z</time></trkpt><trkpt lat="43.13079097409545" lon="12.179525264234362"><ele>379.0</ele><time>2026-03-29T10:57:07Z</time></trkpt><trkpt lat="43.13070359292944" lon="12.179489374587211"><ele>379.0</ele><time>2026-03-29T10:57:09Z</time></trkpt><trkpt lat="43.13063194275871" lon="12.179456515900503"><ele>379.0</ele><time>2026-03-29T10:57:11Z</time></trkpt><trkpt lat="43.13053230320048" lon="12.179418922061071"><ele>379.0</ele><time>2026-03-29T10:57:13Z</time></trkpt><trkpt lat="43.130459125372994" lon="12.179388182063269"><ele>379.0</ele><time>2026-03-29T10:57:14Z</time></trkpt><trkpt lat="43.13034214965237" lon="12.179337796006015"><ele>379.0</ele><time>2026-03-29T10:57:15Z</time></trkpt><trkpt lat="43.13020854947704" lon="12.179284057708063"><ele>379.0</ele><time>2026-03-29T10:57:16Z</time></trkpt><trkpt lat="43.13007678925871" lon="12.179224119151389"><ele>379.0</ele><time>2026-03-29T10:57:17Z</time></trkpt><trkpt lat="43.1298998811097" lon="12.179149145005537"><ele>379.0</ele><time>2026-03-29T10:57:18Z</time></trkpt><trkpt lat="43.12974941471334" lon="12.179077462888989"><ele>378.0</ele><time>2026-03-29T10:57:19Z</time></trkpt><trkpt lat="43.12961474484376" lon="12.17901758041961"><ele>377.0</ele><time>2026-03-29T10:57:20Z</time></trkpt><trkpt lat="43.12947727783198" lon="12.178963985713224"><ele>376.0</ele><time>2026-03-29T10:57:21Z</time></trkpt><trkpt lat="43.12931108765038" lon="12.178890655718673"><ele>376.0</ele><time>2026-03-29T10:57:22Z</time></trkpt><trkpt lat="43.1291181899049" lon="12.178758745601648"><ele>376.0</ele><time>2026-03-29T10:57:23Z</time></trkpt><trkpt lat="43.128925027893764" lon="12.178664781658597"><ele>376.0</ele><time>2026-03-29T10:57:24Z</time></trkpt><trkpt lat="43.12878159279547" lon="12.178584606926089"><ele>376.0</ele><time>2026-03-29T10:57:25Z</time></trkpt><trkpt lat="43.128653758057425" lon="12.178515986952782"><ele>376.0</ele><time>2026-03-29T10:57:26Z</time></trkpt><trkpt lat="43.12851761455046" lon="12.178447458059058"><ele>376.0</ele><time>2026-03-29T10:57:27Z</time></trkpt><trkpt lat="43.128383318679504" lon="12.17837837987859"><ele>376.0</ele><time>2026-03-29T10:57:28Z</time></trkpt><trkpt lat="43.12825999491483" lon="12.178307106491234"><ele>375.25</ele><time>2026-03-29T10:57:29Z</time></trkpt><trkpt lat="43.128144338389205" lon="12.178213868170952"><ele>374.5</ele><time>2026-03-29T10:57:30Z</time></trkpt><trkpt lat="43.12803408468079" lon="12.178112490300531"><ele>373.75</ele><time>2026-03-29T10:57:31Z</time></trkpt><trkpt lat="43.12794247633962" lon="12.177990113524043"><ele>373.0</ele><time>2026-03-29T10:57:32Z</time></trkpt><trkpt lat="43.12784550486448" lon="12.177867463720386"><ele>373.0</ele><time>2026-03-29T10:57:33Z</time></trkpt><trkpt lat="43.12774555502501" lon="12.177736664851803"><ele>373.0</ele><time>2026-03-29T10:57:34Z</time></trkpt><trkpt lat="43.127645493238184" lon="12.17760015043944"><ele>373.0</ele><time>2026-03-29T10:57:35Z</time></trkpt><trkpt lat="43.12755309824309" lon="12.177470769364131"><ele>373.0</ele><time>2026-03-29T10:57:36Z</time></trkpt><trkpt lat="43.12747029057181" lon="12.177362959829027"><ele>373.4</ele><time>2026-03-29T10:57:37Z</time></trkpt><trkpt lat="43.12739242527888" lon="12.1772942646136"><ele>373.79999999999995</ele><time>2026-03-29T10:57:38Z</time></trkpt><trkpt lat="43.12727780306606" lon="12.177237287720313"><ele>374.2</ele><time>2026-03-29T10:57:40Z</time></trkpt><trkpt lat="43.1272251757909" lon="12.177181905265284"><ele>374.6</ele><time>2026-03-29T10:57:42Z</time></trkpt><trkpt lat="43.127141935098166" lon="12.177326658642016"><ele>375.0</ele><time>2026-03-29T10:57:43Z</time></trkpt><trkpt lat="43.12709730470545" lon="12.17740902741356"><ele>375.0</ele><time>2026-03-29T10:57:44Z</time></trkpt><trkpt lat="43.12705112235957" lon="12.177502848685505"><ele>375.0</ele><time>2026-03-29T10:57:45Z</time></trkpt><trkpt lat="43.12697512802087" lon="12.177606544364455"><ele>375.0</ele><time>2026-03-29T10:57:46Z</time></trkpt><trkpt lat="43.12688772917349" lon="12.177687916257694"><ele>375.0</ele><time>2026-03-29T10:57:47Z</time></trkpt><trkpt lat="43.12678280530136" lon="12.177786452866911"><ele>375.0</ele><time>2026-03-29T10:57:48Z</time></trkpt><trkpt lat="43.126672304161744" lon="12.177874820951901"><ele>377.5</ele><time>2026-03-29T10:57:49Z</time></trkpt><trkpt lat="43.126545943205016" lon="12.17790616487404"><ele>380.0</ele><time>2026-03-29T10:57:50Z</time></trkpt><trkpt lat="43.12639875975078" lon="12.177901125919947"><ele>382.5</ele><time>2026-03-29T10:57:51Z</time></trkpt><trkpt lat="43.126244000360025" lon="12.177903392785675"><ele>385.0</ele><time>2026-03-29T10:57:52Z</time></trkpt><trkpt lat="43.12609816675779" lon="12.17792229206312"><ele>385.0</ele><time>2026-03-29T10:57:53Z</time></trkpt><trkpt lat="43.12592915126273" lon="12.177927193783956"><ele>385.0</ele><time>2026-03-29T10:57:54Z</time></trkpt><trkpt lat="43.12578308523736" lon="12.177947931241626"><ele>385.0</ele><time>2026-03-29T10:57:55Z</time></trkpt><trkpt lat="43.12563584961295" lon="12.177972140582394"><ele>384.25</ele><time>2026-03-29T10:57:56Z</time></trkpt><trkpt lat="43.12549596388256" lon="12.178005967074965"><ele>383.5</ele><time>2026-03-29T10:57:57Z</time></trkpt><trkpt lat="43.125369705327934" lon="12.178099517703819"><ele>382.75</ele><time>2026-03-29T10:57:58Z</time></trkpt><trkpt lat="43.125268287785936" lon="12.178243036256188"><ele>382.0</ele><time>2026-03-29T10:57:59Z</time></trkpt><trkpt lat="43.12517652752893" lon="12.178383800934435"><ele>382.0</ele><time>2026-03-29T10:58:00Z</time></trkpt><trkpt lat="43.125071257529356" lon="12.178545003901567"><ele>382.0</ele><time>2026-03-29T10:58:01Z</time></trkpt><trkpt lat="43.12497455257098" lon="12.178681222374017"><ele>382.0</ele><time>2026-03-29T10:58:02Z</time></trkpt><trkpt lat="43.124889953802615" lon="12.178770754891879"><ele>382.0</ele><time>2026-03-29T10:58:03Z</time></trkpt><trkpt lat="43.12482586554259" lon="12.178838364087904"><ele>381.25</ele><time>2026-03-29T10:58:04Z</time></trkpt><trkpt lat="43.12478032486114" lon="12.17901434814439"><ele>380.5</ele><time>2026-03-29T10:58:05Z</time></trkpt><trkpt lat="43.12476300038823" lon="12.179132197048528"><ele>379.75</ele><time>2026-03-29T10:58:06Z</time></trkpt><trkpt lat="43.12474464357633" lon="12.179275534627129"><ele>379.0</ele><time>2026-03-29T10:58:07Z</time></trkpt><trkpt lat="43.124729609826396" lon="12.179445247853124"><ele>378.25</ele><time>2026-03-29T10:58:08Z</time></trkpt><trkpt lat="43.124716329760496" lon="12.179631581961326"><ele>377.5</ele><time>2026-03-29T10:58:09Z</time></trkpt><trkpt lat="43.12470577481514" lon="12.17980785675666"><ele>376.75</ele><time>2026-03-29T10:58:10Z</time></trkpt><trkpt lat="43.124696496631024" lon="12.179962808817264"><ele>376.0</ele><time>2026-03-29T10:58:11Z</time></trkpt><trkpt lat="43.124687499794234" lon="12.180095426173821"><ele>378.0</ele><time>2026-03-29T10:58:12Z</time></trkpt><trkpt lat="43.12467583745339" lon="12.180228119710941"><ele>380.0</ele><time>2026-03-29T10:58:13Z</time></trkpt><trkpt lat="43.12465682072358" lon="12.180380978568"><ele>382.0</ele><time>2026-03-29T10:58:14Z</time></trkpt><trkpt lat="43.1246352502413" lon="12.180535253890099"><ele>384.0</ele><time>2026-03-29T10:58:15Z</time></trkpt><trkpt lat="43.12462033479189" lon="12.18070507902486"><ele>384.0</ele><time>2026-03-29T10:58:16Z</time></trkpt><trkpt lat="43.124622592208596" lon="12.180869996783631"><ele>384.0</ele><time>2026-03-29T10:58:17Z</time></trkpt><trkpt lat="43.12463438645576" lon="12.181020818952968"><ele>384.0</ele><time>2026-03-29T10:58:18Z</time></trkpt><trkpt lat="43.12466392999163" lon="12.181166808127788"><ele>384.0</ele><time>2026-03-29T10:58:19Z</time></trkpt><trkpt lat="43.12469948839166" lon="12.181316831901572"><ele>384.0</ele><time>2026-03-29T10:58:20Z</time></trkpt><trkpt lat="43.124701085390214" lon="12.18145257717208"><ele>384.0</ele><time>2026-03-29T10:58:21Z</time></trkpt><trkpt lat="43.124705338100405" lon="12.1815758654507"><ele>384.0</ele><time>2026-03-29T10:58:22Z</time></trkpt><trkpt lat="43.12470385815121" lon="12.181708957807198"><ele>384.0</ele><time>2026-03-29T10:58:23Z</time></trkpt><trkpt lat="43.124700607451324" lon="12.1818564894738"><ele>384.0</ele><time>2026-03-29T10:58:24Z</time></trkpt><trkpt lat="43.12469743458415" lon="12.182000493947971"><ele>384.79999999999995</ele><time>2026-03-29T10:58:25Z</time></trkpt><trkpt lat="43.12469424679843" lon="12.182145175561043"><ele>385.59999999999997</ele><time>2026-03-29T10:58:26Z</time></trkpt><trkpt lat="43.12469109551511" lon="12.182288200566605"><ele>386.4</ele><time>2026-03-29T10:58:27Z</time></trkpt><trkpt lat="43.124761763335556" lon="12.182413840931929"><ele>387.2</ele><time>2026-03-29T10:58:28Z</time></trkpt><trkpt lat="43.12471611141967" lon="12.182516348195055"><ele>388.0</ele><time>2026-03-29T10:58:29Z</time></trkpt><trkpt lat="43.12463787426067" lon="12.182617827897372"><ele>388.0</ele><time>2026-03-29T10:58:30Z</time></trkpt><trkpt lat="43.12455604421698" lon="12.182710712709953"><ele>388.0</ele><time>2026-03-29T10:58:31Z</time></trkpt><trkpt lat="43.12445976749385" lon="12.182798320070384"><ele>388.0</ele><time>2026-03-29T10:58:32Z</time></trkpt><trkpt lat="43.12434572173814" lon="12.182835211840095"><ele>388.0</ele><time>2026-03-29T10:58:33Z</time></trkpt><trkpt lat="43.12424785645928" lon="12.182869356572892"><ele>388.0</ele><time>2026-03-29T10:58:34Z</time></trkpt><trkpt lat="43.12415793748896" lon="12.182901472610604"><ele>388.0</ele><time>2026-03-29T10:58:35Z</time></trkpt><trkpt lat="43.12408805538134" lon="12.182948137966433"><ele>388.0</ele><time>2026-03-29T10:58:36Z</time></trkpt><trkpt lat="43.12402487349708" lon="12.183009707505743"><ele>388.0</ele><time>2026-03-29T10:58:37Z</time></trkpt><trkpt lat="43.12396420122915" lon="12.1830624228986"><ele>388.0</ele><time>2026-03-29T10:58:38Z</time></trkpt><trkpt lat="43.12383060219507" lon="12.183027389722605"><ele>388.0</ele><time>2026-03-29T10:58:40Z</time></trkpt><trkpt lat="43.12374214289938" lon="12.182999596839625"><ele>388.00000000000006</ele><time>2026-03-29T10:58:41Z</time></trkpt><trkpt lat="43.123646864375004" lon="12.183015572846406"><ele>388.0</ele><time>2026-03-29T10:58:42Z</time></trkpt><trkpt lat="43.12357267099115" lon="12.183064438787872"><ele>388.0</ele><time>2026-03-29T10:58:43Z</time></trkpt><trkpt lat="43.12352047349553" lon="12.18315963840793"><ele>388.0</ele><time>2026-03-29T10:58:44Z</time></trkpt><trkpt lat="43.12349431803266" lon="12.183272904186332"><ele>388.00000000000006</ele><time>2026-03-29T10:58:45Z</time></trkpt><trkpt lat="43.12346700855325" lon="12.183366054591165"><ele>388.0</ele><time>2026-03-29T10:58:46Z</time></trkpt><trkpt lat="43.123404427002185" lon="12.183438975511418"><ele>388.6666666666667</ele><time>2026-03-29T10:58:47Z</time></trkpt><trkpt lat="43.12335120350219" lon="12.183494683293757"><ele>389.33333333333337</ele><time>2026-03-29T10:58:48Z</time></trkpt><trkpt lat="43.12331216961417" lon="12.183637961054522"><ele>390.0</ele><time>2026-03-29T10:58:50Z</time></trkpt><trkpt lat="43.12322540347609" lon="12.18371208745234"><ele>390.66666666666663</ele><time>2026-03-29T10:58:52Z</time></trkpt><trkpt lat="43.12315089441167" lon="12.183721111979382"><ele>391.3333333333333</ele><time>2026-03-29T10:58:53Z</time></trkpt><trkpt lat="43.12307293324513" lon="12.183746955551532"><ele>392.0</ele><time>2026-03-29T10:58:54Z</time></trkpt><trkpt lat="43.122979067216235" lon="12.183788933832474"><ele>392.0</ele><time>2026-03-29T10:58:55Z</time></trkpt><trkpt lat="43.12286985074576" lon="12.183845491354122"><ele>392.0</ele><time>2026-03-29T10:58:56Z</time></trkpt><trkpt lat="43.12275376014203" lon="12.183859832082423"><ele>392.0</ele><time>2026-03-29T10:58:57Z</time></trkpt><trkpt lat="43.122632652656954" lon="12.183886667520609"><ele>392.0</ele><time>2026-03-29T10:58:58Z</time></trkpt><trkpt lat="43.122532025659936" lon="12.183906321856243"><ele>392.0</ele><time>2026-03-29T10:58:59Z</time></trkpt><trkpt lat="43.12245083393429" lon="12.183936667773539"><ele>392.0</ele><time>2026-03-29T10:59:00Z</time></trkpt><trkpt lat="43.12236847187423" lon="12.183987735157638"><ele>392.0</ele><time>2026-03-29T10:59:01Z</time></trkpt><trkpt lat="43.12229013780497" lon="12.184074732609657"><ele>392.0</ele><time>2026-03-29T10:59:02Z</time></trkpt><trkpt lat="43.1222215286545" lon="12.184191035265034"><ele>392.0</ele><time>2026-03-29T10:59:03Z</time></trkpt><trkpt lat="43.12215531440735" lon="12.184307170789182"><ele>394.6</ele><time>2026-03-29T10:59:04Z</time></trkpt><trkpt lat="43.12208413979397" lon="12.184417003595117"><ele>397.20000000000005</ele><time>2026-03-29T10:59:05Z</time></trkpt><trkpt lat="43.12203184023149" lon="12.184532477900227"><ele>399.8</ele><time>2026-03-29T10:59:06Z</time></trkpt><trkpt lat="43.12199772415093" lon="12.184652667074731"><ele>402.4</ele><time>2026-03-29T10:59:07Z</time></trkpt><trkpt lat="43.12198884438417" lon="12.184771903660343"><ele>405.0</ele><time>2026-03-29T10:59:08Z</time></trkpt><trkpt lat="43.12197767868384" lon="12.184893143072182"><ele>405.0</ele><time>2026-03-29T10:59:09Z</time></trkpt><trkpt lat="43.12194607218139" lon="12.18501524509448"><ele>405.0</ele><time>2026-03-29T10:59:10Z</time></trkpt><trkpt lat="43.12189538999061" lon="12.185100157962088"><ele>405.0</ele><time>2026-03-29T10:59:11Z</time></trkpt><trkpt lat="43.12181886651747" lon="12.18516940190146"><ele>405.0</ele><time>2026-03-29T10:59:12Z</time></trkpt><trkpt lat="43.12173313074798" lon="12.185233952148065"><ele>405.0</ele><time>2026-03-29T10:59:13Z</time></trkpt><trkpt lat="43.1216485210119" lon="12.185295775614293"><ele>405.0</ele><time>2026-03-29T10:59:14Z</time></trkpt><trkpt lat="43.121569997127295" lon="12.18535775097609"><ele>405.0</ele><time>2026-03-29T10:59:15Z</time></trkpt><trkpt lat="43.12149644915039" lon="12.185433634923442"><ele>405.0</ele><time>2026-03-29T10:59:16Z</time></trkpt><trkpt lat="43.12141513093855" lon="12.185515769882947"><ele>405.0</ele><time>2026-03-29T10:59:17Z</time></trkpt><trkpt lat="43.12133436879671" lon="12.185613946634424"><ele>405.0</ele><time>2026-03-29T10:59:18Z</time></trkpt><trkpt lat="43.12124901913277" lon="12.185682501991852"><ele>404.3333333333333</ele><time>2026-03-29T10:59:19Z</time></trkpt><trkpt lat="43.12116011222324" lon="12.185768885117916"><ele>403.66666666666663</ele><time>2026-03-29T10:59:19.999Z</time></trkpt><trkpt lat="43.12109703946476" lon="12.185859106091133"><ele>403.0</ele><time>2026-03-29T10:59:20.999Z</time></trkpt><trkpt lat="43.12106415310139" lon="12.185948068347109"><ele>402.3333333333333</ele><time>2026-03-29T10:59:21.999Z</time></trkpt><trkpt lat="43.12105936218084" lon="12.186038012331226"><ele>401.66666666666663</ele><time>2026-03-29T10:59:22.999Z</time></trkpt><trkpt lat="43.12104190764204" lon="12.186138737980333"><ele>401.0</ele><time>2026-03-29T10:59:23.999Z</time></trkpt><trkpt lat="43.121020271866385" lon="12.186228362736358"><ele>400.99999999999994</ele><time>2026-03-29T10:59:24.999Z</time></trkpt><trkpt lat="43.12098383334483" lon="12.186367346330895"><ele>401.0</ele><time>2026-03-29T10:59:26.999Z</time></trkpt><trkpt lat="43.12089636136297" lon="12.186461270373009"><ele>401.0</ele><time>2026-03-29T10:59:28.999Z</time></trkpt><trkpt lat="43.12086989465848" lon="12.186552279206373"><ele>401.0</ele><time>2026-03-29T10:59:29.999Z</time></trkpt><trkpt lat="43.12083028905736" lon="12.186620893419175"><ele>400.99999999999994</ele><time>2026-03-29T10:59:31Z</time></trkpt><trkpt lat="43.120773767941316" lon="12.18667008644465"><ele>401.0</ele><time>2026-03-29T10:59:32Z</time></trkpt><trkpt lat="43.12070585454186" lon="12.186747772232458"><ele>399.6</ele><time>2026-03-29T10:59:35Z</time></trkpt><trkpt lat="43.1206169991688" lon="12.186812473820758"><ele>398.20000000000005</ele><time>2026-03-29T10:59:37Z</time></trkpt><trkpt lat="43.12055622082565" lon="12.1868737948904"><ele>396.79999999999995</ele><time>2026-03-29T10:59:38Z</time></trkpt><trkpt lat="43.12048643707672" lon="12.18691780818145"><ele>395.4</ele><time>2026-03-29T10:59:39Z</time></trkpt><trkpt lat="43.12039765871724" lon="12.187000518282547"><ele>394.0</ele><time>2026-03-29T10:59:40Z</time></trkpt><trkpt lat="43.12030622195083" lon="12.187069605673686"><ele>394.00000000000006</ele><time>2026-03-29T10:59:41Z</time></trkpt><trkpt lat="43.120223340131574" lon="12.18709974588673"><ele>394.0</ele><time>2026-03-29T10:59:42Z</time></trkpt><trkpt lat="43.12013093998971" lon="12.187151989107099"><ele>394.0</ele><time>2026-03-29T10:59:43Z</time></trkpt><trkpt lat="43.12005299678155" lon="12.187247207862683"><ele>394.0</ele><time>2026-03-29T10:59:44Z</time></trkpt><trkpt lat="43.1200132316571" lon="12.187337172862396"><ele>394.00000000000006</ele><time>2026-03-29T10:59:45Z</time></trkpt><trkpt lat="43.11995493717625" lon="12.187413126914056"><ele>394.0</ele><time>2026-03-29T10:59:46Z</time></trkpt><trkpt lat="43.11990837944236" lon="12.187495257157142"><ele>391.33333333333337</ele><time>2026-03-29T10:59:47Z</time></trkpt><trkpt lat="43.11986406229887" lon="12.187563620697741"><ele>388.6666666666667</ele><time>2026-03-29T10:59:49Z</time></trkpt><trkpt lat="43.1197903343075" lon="12.187586596039045"><ele>386.0</ele><time>2026-03-29T10:59:51Z</time></trkpt><trkpt lat="43.1197382631218" lon="12.187646963266536"><ele>383.33333333333337</ele><time>2026-03-29T10:59:53Z</time></trkpt><trkpt lat="43.11967360553128" lon="12.187674044591683"><ele>380.6666666666667</ele><time>2026-03-29T10:59:55Z</time></trkpt><trkpt lat="43.11958575113346" lon="12.187785875887455"><ele>378.0</ele><time>2026-03-29T10:59:58Z</time></trkpt><trkpt lat="43.11951649343385" lon="12.18786001878525"><ele>378.0</ele><time>2026-03-29T10:59:59Z</time></trkpt><trkpt lat="43.11944788964343" lon="12.187942968683283"><ele>378.0</ele><time>2026-03-29T11:00:00Z</time></trkpt><trkpt lat="43.11938606853963" lon="12.187993148119691"><ele>378.0</ele><time>2026-03-29T11:00:01Z</time></trkpt><trkpt lat="43.11929121145684" lon="12.18808931253268"><ele>378.0</ele><time>2026-03-29T11:00:03Z</time></trkpt><trkpt lat="43.11925217921135" lon="12.18816326533135"><ele>378.0</ele><time>2026-03-29T11:00:04Z</time></trkpt><trkpt lat="43.119064194198224" lon="12.188286078325953"><ele>376.79999999999995</ele><time>2026-03-29T11:00:05Z</time></trkpt><trkpt lat="43.11900223408629" lon="12.188396882021063"><ele>375.6</ele><time>2026-03-29T11:00:06Z</time></trkpt><trkpt lat="43.11893565360725" lon="12.188483466645565"><ele>374.4</ele><time>2026-03-29T11:00:07Z</time></trkpt><trkpt lat="43.11885783972352" lon="12.188577124911818"><ele>373.20000000000005</ele><time>2026-03-29T11:00:08Z</time></trkpt><trkpt lat="43.11879038165619" lon="12.188662859565737"><ele>372.0</ele><time>2026-03-29T11:00:09Z</time></trkpt><trkpt lat="43.1187249888264" lon="12.188730601855152"><ele>372.0</ele><time>2026-03-29T11:00:10Z</time></trkpt><trkpt lat="43.11867493041828" lon="12.188784764846636"><ele>372.0</ele><time>2026-03-29T11:00:11Z</time></trkpt><trkpt lat="43.11861877840434" lon="12.188834861951364"><ele>372.0</ele><time>2026-03-29T11:00:12Z</time></trkpt><trkpt lat="43.11856052477002" lon="12.18889593956156"><ele>372.0</ele><time>2026-03-29T11:00:13Z</time></trkpt><trkpt lat="43.11849394923784" lon="12.188952545445423"><ele>372.0</ele><time>2026-03-29T11:00:14Z</time></trkpt><trkpt lat="43.1184141322456" lon="12.18897491131186"><ele>372.0</ele><time>2026-03-29T11:00:15Z</time></trkpt><trkpt lat="43.1183142703249" lon="12.18894515687801"><ele>372.0</ele><time>2026-03-29T11:00:16Z</time></trkpt><trkpt lat="43.11825754106724" lon="12.18900023421096"><ele>372.0</ele><time>2026-03-29T11:00:17Z</time></trkpt><trkpt lat="43.1181840155965" lon="12.189030285051956"><ele>372.0</ele><time>2026-03-29T11:00:18Z</time></trkpt><trkpt lat="43.1180953971018" lon="12.189023649436159"><ele>372.0</ele><time>2026-03-29T11:00:19Z</time></trkpt><trkpt lat="43.11798867672749" lon="12.189046019749735"><ele>372.0</ele><time>2026-03-29T11:00:21Z</time></trkpt><trkpt lat="43.11790931311554" lon="12.189082053267335"><ele>372.0</ele><time>2026-03-29T11:00:22Z</time></trkpt><trkpt lat="43.11780225779563" lon="12.189082979549964"><ele>373.0</ele><time>2026-03-29T11:00:23Z</time></trkpt><trkpt lat="43.11772351135846" lon="12.189073468621931"><ele>374.0</ele><time>2026-03-29T11:00:24Z</time></trkpt><trkpt lat="43.1176474703315" lon="12.18905215518645"><ele>375.0</ele><time>2026-03-29T11:00:25Z</time></trkpt><trkpt lat="43.117580784286524" lon="12.18904238958578"><ele>376.0</ele><time>2026-03-29T11:00:26Z</time></trkpt><trkpt lat="43.11751003248441" lon="12.189047305056706"><ele>377.0</ele><time>2026-03-29T11:00:27Z</time></trkpt><trkpt lat="43.11741543841161" lon="12.189116761797159"><ele>378.0</ele><time>2026-03-29T11:00:29Z</time></trkpt><trkpt lat="43.117360703913626" lon="12.189165855904264"><ele>374.59999999999997</ele><time>2026-03-29T11:00:30Z</time></trkpt><trkpt lat="43.117247361209465" lon="12.189193292643827"><ele>371.2</ele><time>2026-03-29T11:00:32Z</time></trkpt><trkpt lat="43.11718047808116" lon="12.189229572527653"><ele>367.8</ele><time>2026-03-29T11:00:33Z</time></trkpt><trkpt lat="43.117091620361954" lon="12.189322536675235"><ele>364.4</ele><time>2026-03-29T11:00:35Z</time></trkpt><trkpt lat="43.116998933610994" lon="12.189368105331933"><ele>361.0</ele><time>2026-03-29T11:00:37Z</time></trkpt><trkpt lat="43.116962231593874" lon="12.18949329176415"><ele>361.0</ele><time>2026-03-29T11:00:40Z</time></trkpt><trkpt lat="43.11690999462864" lon="12.189654833867836"><ele>361.0</ele><time>2026-03-29T11:00:42Z</time></trkpt><trkpt lat="43.11687552884175" lon="12.189744824963975"><ele>361.0</ele><time>2026-03-29T11:00:43Z</time></trkpt><trkpt lat="43.11686457019677" lon="12.189839928718534"><ele>361.0</ele><time>2026-03-29T11:00:44Z</time></trkpt><trkpt lat="43.1168775116839" lon="12.189955600991851"><ele>361.0</ele><time>2026-03-29T11:00:45Z</time></trkpt><trkpt lat="43.116845704045325" lon="12.190053533382617"><ele>361.0</ele><time>2026-03-29T11:00:46Z</time></trkpt><trkpt lat="43.11677459706978" lon="12.190151239351074"><ele>361.6</ele><time>2026-03-29T11:00:47Z</time></trkpt><trkpt lat="43.11669102109666" lon="12.190248285859571"><ele>362.20000000000005</ele><time>2026-03-29T11:00:48Z</time></trkpt><trkpt lat="43.11661677952413" lon="12.19033959284421"><ele>362.79999999999995</ele><time>2026-03-29T11:00:49Z</time></trkpt><trkpt lat="43.11655337807232" lon="12.190434806364644"><ele>363.4</ele><time>2026-03-29T11:00:50Z</time></trkpt><trkpt lat="43.1164924478967" lon="12.190525687122006"><ele>364.0</ele><time>2026-03-29T11:00:51Z</time></trkpt><trkpt lat="43.11644029996898" lon="12.190612905803828"><ele>364.2</ele><time>2026-03-29T11:00:52Z</time></trkpt><trkpt lat="43.11638007763372" lon="12.190688799684958"><ele>364.4</ele><time>2026-03-29T11:00:53Z</time></trkpt><trkpt lat="43.11633863994214" lon="12.190775335390859"><ele>364.6</ele><time>2026-03-29T11:00:54Z</time></trkpt><trkpt lat="43.1163169862114" lon="12.190870237601692"><ele>364.8</ele><time>2026-03-29T11:00:55Z</time></trkpt><trkpt lat="43.11626434153041" lon="12.191009147218184"><ele>365.0</ele><time>2026-03-29T11:00:57Z</time></trkpt><trkpt lat="43.11618321854526" lon="12.19112923482099"><ele>365.0</ele><time>2026-03-29T11:00:59Z</time></trkpt><trkpt lat="43.116115500506424" lon="12.19119297811004"><ele>365.0</ele><time>2026-03-29T11:01:00Z</time></trkpt><trkpt lat="43.116046294639645" lon="12.191257842009412"><ele>365.0</ele><time>2026-03-29T11:01:01Z</time></trkpt><trkpt lat="43.11598952732664" lon="12.191364016949834"><ele>365.0</ele><time>2026-03-29T11:01:02Z</time></trkpt><trkpt lat="43.11593805932001" lon="12.191488351472747"><ele>365.0</ele><time>2026-03-29T11:01:02.999Z</time></trkpt><trkpt lat="43.11588711869085" lon="12.191603903653426"><ele>363.6</ele><time>2026-03-29T11:01:03.999Z</time></trkpt><trkpt lat="43.115846561000716" lon="12.191741619889433"><ele>362.2</ele><time>2026-03-29T11:01:04.999Z</time></trkpt><trkpt lat="43.11582943819563" lon="12.191890954020158"><ele>360.79999999999995</ele><time>2026-03-29T11:01:05.999Z</time></trkpt><trkpt lat="43.11582760283435" lon="12.191992868724236"><ele>359.4</ele><time>2026-03-29T11:01:06.999Z</time></trkpt><trkpt lat="43.11581761972392" lon="12.192119619430255"><ele>358.0</ele><time>2026-03-29T11:01:07.999Z</time></trkpt><trkpt lat="43.11578768641908" lon="12.192227615290827"><ele>357.0</ele><time>2026-03-29T11:01:08.999Z</time></trkpt><trkpt lat="43.11573498973229" lon="12.192293246361253"><ele>356.0</ele><time>2026-03-29T11:01:09.999Z</time></trkpt><trkpt lat="43.115670343531484" lon="12.192330219722768"><ele>355.0</ele><time>2026-03-29T11:01:10.999Z</time></trkpt><trkpt lat="43.115602468858235" lon="12.192432354192848"><ele>354.0</ele><time>2026-03-29T11:01:11.999Z</time></trkpt><trkpt lat="43.11550035990836" lon="12.192499155345887"><ele>353.0</ele><time>2026-03-29T11:01:12.999Z</time></trkpt><trkpt lat="43.11540055619991" lon="12.192560766024753"><ele>353.0</ele><time>2026-03-29T11:01:13.999Z</time></trkpt><trkpt lat="43.11530337159253" lon="12.192580332043054"><ele>353.0</ele><time>2026-03-29T11:01:14.999Z</time></trkpt><trkpt lat="43.11522914154894" lon="12.192612711279736"><ele>353.0</ele><time>2026-03-29T11:01:15.999Z</time></trkpt><trkpt lat="43.115166155383406" lon="12.192645113619795"><ele>353.0</ele><time>2026-03-29T11:01:16.999Z</time></trkpt><trkpt lat="43.115106446901414" lon="12.19269243520167"><ele>353.0</ele><time>2026-03-29T11:01:17.999Z</time></trkpt><trkpt lat="43.11508221068365" lon="12.192784729875013"><ele>353.0</ele><time>2026-03-29T11:01:18.999Z</time></trkpt><trkpt lat="43.11504186878908" lon="12.19287810256813"><ele>353.0</ele><time>2026-03-29T11:01:19.999Z</time></trkpt><trkpt lat="43.11500841002801" lon="12.192956152727712"><ele>353.0</ele><time>2026-03-29T11:01:20.999Z</time></trkpt><trkpt lat="43.11498115631361" lon="12.193035716049454"><ele>353.0</ele><time>2026-03-29T11:01:21.999Z</time></trkpt><trkpt lat="43.11494524639273" lon="12.193123743845947"><ele>353.0</ele><time>2026-03-29T11:01:23.999Z</time></trkpt><trkpt lat="43.115064806568434" lon="12.193221503705395"><ele>353.0</ele><time>2026-03-29T11:02:29Z</time></trkpt><trkpt lat="43.115139046233224" lon="12.193244480345433"><ele>353.0</ele><time>2026-03-29T11:02:30Z</time></trkpt><trkpt lat="43.11522182617646" lon="12.193279625459027"><ele>350.2</ele><time>2026-03-29T11:02:31Z</time></trkpt><trkpt lat="43.115315684097034" lon="12.193344318400099"><ele>347.4</ele><time>2026-03-29T11:02:32Z</time></trkpt><trkpt lat="43.1154170977361" lon="12.193408435987473"><ele>344.59999999999997</ele><time>2026-03-29T11:02:33Z</time></trkpt><trkpt lat="43.11551929972438" lon="12.193460234580114"><ele>341.79999999999995</ele><time>2026-03-29T11:02:34Z</time></trkpt><trkpt lat="43.11562187713216" lon="12.193520020431313"><ele>339.0</ele><time>2026-03-29T11:02:35Z</time></trkpt><trkpt lat="43.115713237183236" lon="12.193595295169576"><ele>336.6666666666667</ele><time>2026-03-29T11:02:36Z</time></trkpt><trkpt lat="43.11578664802668" lon="12.193686618931258"><ele>334.3333333333333</ele><time>2026-03-29T11:02:37Z</time></trkpt><trkpt lat="43.11583542495232" lon="12.193790664815545"><ele>332.0</ele><time>2026-03-29T11:02:38Z</time></trkpt><trkpt lat="43.11588193118935" lon="12.193876463690415"><ele>329.66666666666663</ele><time>2026-03-29T11:02:39Z</time></trkpt><trkpt lat="43.11593656159504" lon="12.193924650917076"><ele>327.3333333333333</ele><time>2026-03-29T11:02:40Z</time></trkpt><trkpt lat="43.116000309263285" lon="12.193979303714634"><ele>325.0</ele><time>2026-03-29T11:02:41Z</time></trkpt><trkpt lat="43.11610318677024" lon="12.19398052960416"><ele>325.0</ele><time>2026-03-29T11:02:42Z</time></trkpt><trkpt lat="43.11619330983845" lon="12.19397382960864"><ele>325.0</ele><time>2026-03-29T11:02:43Z</time></trkpt><trkpt lat="43.11627008152205" lon="12.193973429172463"><ele>325.0</ele><time>2026-03-29T11:02:44Z</time></trkpt><trkpt lat="43.116331077442524" lon="12.194010639566589"><ele>325.0</ele><time>2026-03-29T11:02:45Z</time></trkpt><trkpt lat="43.11638967944448" lon="12.194116317281296"><ele>325.0</ele><time>2026-03-29T11:02:46Z</time></trkpt><trkpt lat="43.116465797918245" lon="12.1942472147892"><ele>323.0</ele><time>2026-03-29T11:02:47Z</time></trkpt><trkpt lat="43.11652072251092" lon="12.194370241162293"><ele>321.0</ele><time>2026-03-29T11:02:47.999Z</time></trkpt><trkpt lat="43.1165608517579" lon="12.19445445117345"><ele>319.0</ele><time>2026-03-29T11:02:48.999Z</time></trkpt><trkpt lat="43.1166968983731" lon="12.19454965297542"><ele>317.0</ele><time>2026-03-29T11:02:50.999Z</time></trkpt><trkpt lat="43.11677872490095" lon="12.194590378177487"><ele>315.0</ele><time>2026-03-29T11:02:51.999Z</time></trkpt><trkpt lat="43.1168458269237" lon="12.194718419029419"><ele>311.25</ele><time>2026-03-29T11:02:52.999Z</time></trkpt><trkpt lat="43.116915853663826" lon="12.194860762927608"><ele>307.5</ele><time>2026-03-29T11:02:53.999Z</time></trkpt><trkpt lat="43.117009296427405" lon="12.194999725970728"><ele>303.75</ele><time>2026-03-29T11:02:54.999Z</time></trkpt><trkpt lat="43.11713111415677" lon="12.195127451144868"><ele>300.0</ele><time>2026-03-29T11:02:55.999Z</time></trkpt><trkpt lat="43.117202035796026" lon="12.195328676404385"><ele>300.0</ele><time>2026-03-29T11:02:56.999Z</time></trkpt><trkpt lat="43.11728529533292" lon="12.19549485953837"><ele>300.0</ele><time>2026-03-29T11:02:57.999Z</time></trkpt><trkpt lat="43.117362293874685" lon="12.195652120217202"><ele>300.0</ele><time>2026-03-29T11:02:58.999Z</time></trkpt><trkpt lat="43.11743258384505" lon="12.195781862913922"><ele>300.0</ele><time>2026-03-29T11:02:59.999Z</time></trkpt><trkpt lat="43.117494011746324" lon="12.195881318375276"><ele>297.0</ele><time>2026-03-29T11:03:00.999Z</time></trkpt><trkpt lat="43.11754482188574" lon="12.195973472770834"><ele>294.0</ele><time>2026-03-29T11:03:01.999Z</time></trkpt><trkpt lat="43.11765835823306" lon="12.195989935460537"><ele>291.0</ele><time>2026-03-29T11:03:02.999Z</time></trkpt><trkpt lat="43.117751722823506" lon="12.196012700009193"><ele>288.0</ele><time>2026-03-29T11:03:03.999Z</time></trkpt><trkpt lat="43.11782987199195" lon="12.196038084187945"><ele>285.0</ele><time>2026-03-29T11:03:04.999Z</time></trkpt><trkpt lat="43.11789085067539" lon="12.196119042501438"><ele>285.0</ele><time>2026-03-29T11:03:05.999Z</time></trkpt><trkpt lat="43.1179774149274" lon="12.196214917002859"><ele>285.0</ele><time>2026-03-29T11:03:06.999Z</time></trkpt><trkpt lat="43.11804734993842" lon="12.19636259091318"><ele>285.0</ele><time>2026-03-29T11:03:07.999Z</time></trkpt><trkpt lat="43.1180899587881" lon="12.196498872211082"><ele>285.0</ele><time>2026-03-29T11:03:08.999Z</time></trkpt><trkpt lat="43.11810952543772" lon="12.196635705780357"><ele>284.0</ele><time>2026-03-29T11:03:09.999Z</time></trkpt><trkpt lat="43.11810647643622" lon="12.196794149900077"><ele>283.0</ele><time>2026-03-29T11:03:10.999Z</time></trkpt><trkpt lat="43.118083874402686" lon="12.196944881811532"><ele>282.0</ele><time>2026-03-29T11:03:11.999Z</time></trkpt><trkpt lat="43.118044628503064" lon="12.197087698279331"><ele>281.0</ele><time>2026-03-29T11:03:12.999Z</time></trkpt><trkpt lat="43.11797528316835" lon="12.197217779513776"><ele>281.0</ele><time>2026-03-29T11:03:13.999Z</time></trkpt><trkpt lat="43.11790876959088" lon="12.19731036119686"><ele>281.0</ele><time>2026-03-29T11:03:14.999Z</time></trkpt><trkpt lat="43.117870129246505" lon="12.197408418911492"><ele>281.0</ele><time>2026-03-29T11:03:15.999Z</time></trkpt><trkpt lat="43.11785510072109" lon="12.197511239990511"><ele>281.0</ele><time>2026-03-29T11:03:16.999Z</time></trkpt><trkpt lat="43.11788128500504" lon="12.197641365973185"><ele>281.0</ele><time>2026-03-29T11:03:17.999Z</time></trkpt><trkpt lat="43.11789525479919" lon="12.19780551896605"><ele>278.25</ele><time>2026-03-29T11:03:18.999Z</time></trkpt><trkpt lat="43.11790354247105" lon="12.19798143396926"><ele>275.5</ele><time>2026-03-29T11:03:19.999Z</time></trkpt><trkpt lat="43.11791065712855" lon="12.198178611849482"><ele>272.75</ele><time>2026-03-29T11:03:20.999Z</time></trkpt><trkpt lat="43.11791787471826" lon="12.198378642194807"><ele>270.0</ele><time>2026-03-29T11:03:21.999Z</time></trkpt><trkpt lat="43.11790970936549" lon="12.198576199162202"><ele>266.0</ele><time>2026-03-29T11:03:22.999Z</time></trkpt><trkpt lat="43.11792437453626" lon="12.198777066166446"><ele>262.0</ele><time>2026-03-29T11:03:23.999Z</time></trkpt><trkpt lat="43.11796520126161" lon="12.198978772941588"><ele>258.0</ele><time>2026-03-29T11:03:24.999Z</time></trkpt><trkpt lat="43.1180076271549" lon="12.199182146247548"><ele>256.5</ele><time>2026-03-29T11:03:25.999Z</time></trkpt><trkpt lat="43.1180229746699" lon="12.199401099953162"><ele>255.0</ele><time>2026-03-29T11:03:26.999Z</time></trkpt><trkpt lat="43.11804020576553" lon="12.199591811051151"><ele>253.5</ele><time>2026-03-29T11:03:27.999Z</time></trkpt><trkpt lat="43.11805612557412" lon="12.199772925985451"><ele>252.0</ele><time>2026-03-29T11:03:28.999Z</time></trkpt><trkpt lat="43.11806767057386" lon="12.199936674640396"><ele>251.0</ele><time>2026-03-29T11:03:29.999Z</time></trkpt><trkpt lat="43.11807867302928" lon="12.200088327591027"><ele>250.0</ele><time>2026-03-29T11:03:30.999Z</time></trkpt><trkpt lat="43.11808889518148" lon="12.200225602110777"><ele>249.0</ele><time>2026-03-29T11:03:31.999Z</time></trkpt><trkpt lat="43.11809777095609" lon="12.200349477785892"><ele>248.0</ele><time>2026-03-29T11:03:32.999Z</time></trkpt><trkpt lat="43.118112117897304" lon="12.20045729222929"><ele>247.0</ele><time>2026-03-29T11:03:33.999Z</time></trkpt><trkpt lat="43.11814158053507" lon="12.200540630211156"><ele>247.0</ele><time>2026-03-29T11:03:34.999Z</time></trkpt><trkpt lat="43.118173791775355" lon="12.20063440159627"><ele>247.0</ele><time>2026-03-29T11:03:35.999Z</time></trkpt><trkpt lat="43.11821157315261" lon="12.20072979139524"><ele>247.0</ele><time>2026-03-29T11:03:36.999Z</time></trkpt><trkpt lat="43.118258783834" lon="12.200848989094528"><ele>247.0</ele><time>2026-03-29T11:03:37.999Z</time></trkpt><trkpt lat="43.11834216550592" lon="12.200957095578673"><ele>247.0</ele><time>2026-03-29T11:03:38.999Z</time></trkpt><trkpt lat="43.11833028375982" lon="12.201130821310478"><ele>246.0</ele><time>2026-03-29T11:03:39.999Z</time></trkpt><trkpt lat="43.1183192275008" lon="12.201309682692932"><ele>245.0</ele><time>2026-03-29T11:03:40.999Z</time></trkpt><trkpt lat="43.118319072393426" lon="12.201498726138386"><ele>244.0</ele><time>2026-03-29T11:03:41.999Z</time></trkpt><trkpt lat="43.118323747344725" lon="12.20169567740521"><ele>243.0</ele><time>2026-03-29T11:03:42.999Z</time></trkpt><trkpt lat="43.11832819154421" lon="12.201888651692778"><ele>242.75</ele><time>2026-03-29T11:03:43.999Z</time></trkpt><trkpt lat="43.118331549415615" lon="12.20208910236056"><ele>242.5</ele><time>2026-03-29T11:03:44.999Z</time></trkpt><trkpt lat="43.118331206968314" lon="12.202299375820326"><ele>242.25</ele><time>2026-03-29T11:03:45.999Z</time></trkpt><trkpt lat="43.1183338953118" lon="12.202495158608553"><ele>242.0</ele><time>2026-03-29T11:03:46.999Z</time></trkpt><trkpt lat="43.11833674643417" lon="12.2026727842917"><ele>242.0</ele><time>2026-03-29T11:03:47.999Z</time></trkpt><trkpt lat="43.1183468764022" lon="12.202845697175025"><ele>242.0</ele><time>2026-03-29T11:03:48.999Z</time></trkpt><trkpt lat="43.11835228408203" lon="12.203002295008664"><ele>242.0</ele><time>2026-03-29T11:03:49.999Z</time></trkpt><trkpt lat="43.11834562264405" lon="12.203141920327756"><ele>242.0</ele><time>2026-03-29T11:03:50.999Z</time></trkpt><trkpt lat="43.11830649333265" lon="12.203267659918374"><ele>242.0</ele><time>2026-03-29T11:03:51.999Z</time></trkpt><trkpt lat="43.11821797613457" lon="12.203341978505296"><ele>242.5</ele><time>2026-03-29T11:03:52.999Z</time></trkpt><trkpt lat="43.11809290628966" lon="12.203346089411333"><ele>243.0</ele><time>2026-03-29T11:03:53.999Z</time></trkpt><trkpt lat="43.11796771613079" lon="12.203383979103078"><ele>243.5</ele><time>2026-03-29T11:03:54.999Z</time></trkpt><trkpt lat="43.117859946767126" lon="12.203428826236655"><ele>244.0</ele><time>2026-03-29T11:03:55.999Z</time></trkpt><trkpt lat="43.117772059556636" lon="12.203492498210176"><ele>244.0</ele><time>2026-03-29T11:03:56.999Z</time></trkpt><trkpt lat="43.11769922750604" lon="12.203572691795893"><ele>244.0</ele><time>2026-03-29T11:03:57.999Z</time></trkpt><trkpt lat="43.117643035823654" lon="12.20369617465678"><ele>244.0</ele><time>2026-03-29T11:03:58.999Z</time></trkpt><trkpt lat="43.11759461552016" lon="12.203863636927197"><ele>244.0</ele><time>2026-03-29T11:03:59.999Z</time></trkpt><trkpt lat="43.117555118895375" lon="12.20403497303692"><ele>244.0</ele><time>2026-03-29T11:04:00.999Z</time></trkpt><trkpt lat="43.11752505464953" lon="12.204184157628536"><ele>244.0</ele><time>2026-03-29T11:04:01.999Z</time></trkpt><trkpt lat="43.11746927730607" lon="12.20431714986609"><ele>244.0</ele><time>2026-03-29T11:04:02.999Z</time></trkpt><trkpt lat="43.11739077196288" lon="12.204428548795086"><ele>244.0</ele><time>2026-03-29T11:04:03.999Z</time></trkpt><trkpt lat="43.11729165981618" lon="12.204522754017194"><ele>244.39999999999998</ele><time>2026-03-29T11:04:04.999Z</time></trkpt><trkpt lat="43.11718542485373" lon="12.20460053564863"><ele>244.79999999999998</ele><time>2026-03-29T11:04:05.999Z</time></trkpt><trkpt lat="43.117086933872045" lon="12.204658049720358"><ele>245.20000000000002</ele><time>2026-03-29T11:04:06.999Z</time></trkpt><trkpt lat="43.11701248131718" lon="12.20472767312995"><ele>245.60000000000002</ele><time>2026-03-29T11:04:07.999Z</time></trkpt><trkpt lat="43.11696202061668" lon="12.204819304673796"><ele>246.0</ele><time>2026-03-29T11:04:08.999Z</time></trkpt><trkpt lat="43.116939375356566" lon="12.204930841057063"><ele>246.75</ele><time>2026-03-29T11:04:09.999Z</time></trkpt><trkpt lat="43.11690559660867" lon="12.205054821910498"><ele>247.5</ele><time>2026-03-29T11:04:10.999Z</time></trkpt><trkpt lat="43.11682819475508" lon="12.20517444373667"><ele>248.25</ele><time>2026-03-29T11:04:11.999Z</time></trkpt><trkpt lat="43.116726894807336" lon="12.205270175598844"><ele>249.0</ele><time>2026-03-29T11:04:12.999Z</time></trkpt><trkpt lat="43.11661060791719" lon="12.20536773594535"><ele>249.0</ele><time>2026-03-29T11:04:13.999Z</time></trkpt><trkpt lat="43.116497789579974" lon="12.205485683352302"><ele>249.0</ele><time>2026-03-29T11:04:14.999Z</time></trkpt><trkpt lat="43.116389018043165" lon="12.205622087934925"><ele>249.0</ele><time>2026-03-29T11:04:15.999Z</time></trkpt><trkpt lat="43.11626590039078" lon="12.20576075643849"><ele>249.0</ele><time>2026-03-29T11:04:16.999Z</time></trkpt><trkpt lat="43.116156104523604" lon="12.205878181700632"><ele>249.0</ele><time>2026-03-29T11:04:17.999Z</time></trkpt><trkpt lat="43.116062804783574" lon="12.205986926342355"><ele>249.0</ele><time>2026-03-29T11:04:18.999Z</time></trkpt><trkpt lat="43.115992529798795" lon="12.206103181288936"><ele>249.0</ele><time>2026-03-29T11:04:19.999Z</time></trkpt><trkpt lat="43.11593953809045" lon="12.20626049959554"><ele>249.0</ele><time>2026-03-29T11:04:20.999Z</time></trkpt><trkpt lat="43.115893068305" lon="12.206412174545886"><ele>249.75</ele><time>2026-03-29T11:04:21.999Z</time></trkpt><trkpt lat="43.1158324597168" lon="12.206581094838947"><ele>250.5</ele><time>2026-03-29T11:04:22.999Z</time></trkpt><trkpt lat="43.115754960055405" lon="12.206759319780959"><ele>251.25</ele><time>2026-03-29T11:04:23.999Z</time></trkpt><trkpt lat="43.11568732088285" lon="12.206916323453955"><ele>252.0</ele><time>2026-03-29T11:04:24.999Z</time></trkpt><trkpt lat="43.11560546073895" lon="12.20701999306843"><ele>252.8</ele><time>2026-03-29T11:04:25.999Z</time></trkpt><trkpt lat="43.115538773401205" lon="12.207111478587416"><ele>253.6</ele><time>2026-03-29T11:04:26.999Z</time></trkpt><trkpt lat="43.11544622542542" lon="12.207174658205181"><ele>254.40000000000003</ele><time>2026-03-29T11:04:27.999Z</time></trkpt><trkpt lat="43.11535773486032" lon="12.2072511432607"><ele>255.20000000000002</ele><time>2026-03-29T11:04:28.999Z</time></trkpt><trkpt lat="43.11529438840706" lon="12.20734880977563"><ele>256.0</ele><time>2026-03-29T11:04:29.999Z</time></trkpt><trkpt lat="43.1152577811286" lon="12.207487692098717"><ele>256.25</ele><time>2026-03-29T11:04:30.999Z</time></trkpt><trkpt lat="43.11525222379001" lon="12.207638145136148"><ele>256.5</ele><time>2026-03-29T11:04:31.999Z</time></trkpt><trkpt lat="43.1152669331894" lon="12.207806598402465"><ele>256.75</ele><time>2026-03-29T11:04:32.999Z</time></trkpt><trkpt lat="43.115269921013294" lon="12.208000467645588"><ele>257.0</ele><time>2026-03-29T11:04:33.999Z</time></trkpt><trkpt lat="43.1153080245046" lon="12.208170171923884"><ele>257.0</ele><time>2026-03-29T11:04:34.999Z</time></trkpt><trkpt lat="43.11532980418604" lon="12.208359659761827"><ele>257.0</ele><time>2026-03-29T11:04:35.999Z</time></trkpt><trkpt lat="43.11532208220009" lon="12.208556634132641"><ele>257.0</ele><time>2026-03-29T11:04:36.999Z</time></trkpt><trkpt lat="43.11532557592029" lon="12.208741413871659"><ele>257.0</ele><time>2026-03-29T11:04:37.999Z</time></trkpt><trkpt lat="43.11532107368917" lon="12.208927866932115"><ele>259.25</ele><time>2026-03-29T11:04:38.999Z</time></trkpt><trkpt lat="43.11534661800586" lon="12.209101150781622"><ele>261.5</ele><time>2026-03-29T11:04:39.999Z</time></trkpt><trkpt lat="43.11538018536526" lon="12.209254297823227"><ele>263.75</ele><time>2026-03-29T11:04:40.999Z</time></trkpt><trkpt lat="43.11543237012133" lon="12.209418038499777"><ele>266.0</ele><time>2026-03-29T11:04:41.999Z</time></trkpt><trkpt lat="43.11548472177405" lon="12.209592185555298"><ele>266.0</ele><time>2026-03-29T11:04:42.999Z</time></trkpt><trkpt lat="43.11552476858003" lon="12.209743428910006"><ele>266.0</ele><time>2026-03-29T11:04:43.999Z</time></trkpt><trkpt lat="43.1155614837533" lon="12.2098873095519"><ele>266.0</ele><time>2026-03-29T11:04:44.999Z</time></trkpt><trkpt lat="43.115615420854" lon="12.21002222837028"><ele>266.0</ele><time>2026-03-29T11:04:45.999Z</time></trkpt><trkpt lat="43.11564750089893" lon="12.210191781264752"><ele>266.75</ele><time>2026-03-29T11:04:46.999Z</time></trkpt><trkpt lat="43.11568722661777" lon="12.210367336876788"><ele>267.5</ele><time>2026-03-29T11:04:47.999Z</time></trkpt><trkpt lat="43.115725960975006" lon="12.210545680266291"><ele>268.25</ele><time>2026-03-29T11:04:48.999Z</time></trkpt><trkpt lat="43.11577137336813" lon="12.210704027482157"><ele>269.0</ele><time>2026-03-29T11:04:49.999Z</time></trkpt><trkpt lat="43.11580198700524" lon="12.210867688440262"><ele>269.0</ele><time>2026-03-29T11:04:50.999Z</time></trkpt><trkpt lat="43.11583361408827" lon="12.211045093563266"><ele>269.0</ele><time>2026-03-29T11:04:51.999Z</time></trkpt><trkpt lat="43.11586368719654" lon="12.21123186346382"><ele>269.0</ele><time>2026-03-29T11:04:52.999Z</time></trkpt><trkpt lat="43.11589812844688" lon="12.211427987306061"><ele>269.0</ele><time>2026-03-29T11:04:53.999Z</time></trkpt><trkpt lat="43.11592681765484" lon="12.211607483176925"><ele>270.0</ele><time>2026-03-29T11:04:54.999Z</time></trkpt><trkpt lat="43.11594628971836" lon="12.211775460917613"><ele>271.0</ele><time>2026-03-29T11:04:55.999Z</time></trkpt><trkpt lat="43.115943494455365" lon="12.211931583619199"><ele>272.0</ele><time>2026-03-29T11:04:56.999Z</time></trkpt><trkpt lat="43.115947249131736" lon="12.21207732302208"><ele>273.0</ele><time>2026-03-29T11:04:57.999Z</time></trkpt><trkpt lat="43.11593569895277" lon="12.212240873777874"><ele>274.0</ele><time>2026-03-29T11:04:58.999Z</time></trkpt><trkpt lat="43.1159199406418" lon="12.212442740325606"><ele>275.0</ele><time>2026-03-29T11:04:59.999Z</time></trkpt><trkpt lat="43.11587151339463" lon="12.212635225583709"><ele>276.0</ele><time>2026-03-29T11:05:00.999Z</time></trkpt><trkpt lat="43.11585761985019" lon="12.212809356555544"><ele>277.0</ele><time>2026-03-29T11:05:01.999Z</time></trkpt><trkpt lat="43.11583936758983" lon="12.212960760850358"><ele>277.0</ele><time>2026-03-29T11:05:02.999Z</time></trkpt><trkpt lat="43.11590304346715" lon="12.21310101855093"><ele>277.0</ele><time>2026-03-29T11:05:03.999Z</time></trkpt><trkpt lat="43.11598117729892" lon="12.21322358862747"><ele>277.0</ele><time>2026-03-29T11:05:04.999Z</time></trkpt><trkpt lat="43.116068041827155" lon="12.213358180737124"><ele>277.0</ele><time>2026-03-29T11:05:05.999Z</time></trkpt><trkpt lat="43.116143955996144" lon="12.21346873233565"><ele>276.2</ele><time>2026-03-29T11:05:06.999Z</time></trkpt><trkpt lat="43.11620874252122" lon="12.213564379693938"><ele>275.4</ele><time>2026-03-29T11:05:07.999Z</time></trkpt><trkpt lat="43.11623850037988" lon="12.213646969736326"><ele>274.6</ele><time>2026-03-29T11:05:08.999Z</time></trkpt><trkpt lat="43.11627212755269" lon="12.213767669862865"><ele>273.8</ele><time>2026-03-29T11:05:10.999Z</time></trkpt><trkpt lat="43.11615079932333" lon="12.21384807611199"><ele>273.0</ele><time>2026-03-29T11:05:12.999Z</time></trkpt><trkpt lat="43.11607726758485" lon="12.213869153651078"><ele>273.0</ele><time>2026-03-29T11:05:13.999Z</time></trkpt><trkpt lat="43.115982543414646" lon="12.213897528076613"><ele>273.0</ele><time>2026-03-29T11:05:14.999Z</time></trkpt><trkpt lat="43.11586354065265" lon="12.213920532248256"><ele>273.0</ele><time>2026-03-29T11:05:15.999Z</time></trkpt><trkpt lat="43.11576488688264" lon="12.213925012929769"><ele>273.0</ele><time>2026-03-29T11:05:16.999Z</time></trkpt><trkpt lat="43.11567573659198" lon="12.21393460651959"><ele>273.0</ele><time>2026-03-29T11:05:17.999Z</time></trkpt><trkpt lat="43.11559033871422" lon="12.213957173181383"><ele>276.0</ele><time>2026-03-29T11:05:18.999Z</time></trkpt><trkpt lat="43.11552798751418" lon="12.214027517367894"><ele>279.0</ele><time>2026-03-29T11:05:19.999Z</time></trkpt><trkpt lat="43.115479133067474" lon="12.214124235541927"><ele>282.0</ele><time>2026-03-29T11:05:20.999Z</time></trkpt><trkpt lat="43.11545299001776" lon="12.214247370173288"><ele>285.0</ele><time>2026-03-29T11:05:21.999Z</time></trkpt><trkpt lat="43.1154711896473" lon="12.214370561758164"><ele>288.0</ele><time>2026-03-29T11:05:22.999Z</time></trkpt><trkpt lat="43.11549804945367" lon="12.214512799813038"><ele>288.0</ele><time>2026-03-29T11:05:23.999Z</time></trkpt><trkpt lat="43.11551500588274" lon="12.214644936677885"><ele>288.0</ele><time>2026-03-29T11:05:24.999Z</time></trkpt><trkpt lat="43.11554384718771" lon="12.214758288605562"><ele>288.0</ele><time>2026-03-29T11:05:25.999Z</time></trkpt><trkpt lat="43.115619250230395" lon="12.21480411698597"><ele>288.0</ele><time>2026-03-29T11:05:26.999Z</time></trkpt><trkpt lat="43.11569274424518" lon="12.214872650578878"><ele>288.0</ele><time>2026-03-29T11:05:27.999Z</time></trkpt><trkpt lat="43.115768200644105" lon="12.214942011560208"><ele>288.0</ele><time>2026-03-29T11:05:28.999Z</time></trkpt><trkpt lat="43.115826741037694" lon="12.215027268252657"><ele>287.0</ele><time>2026-03-29T11:05:29.999Z</time></trkpt><trkpt lat="43.11590081889389" lon="12.215129544672916"><ele>286.0</ele><time>2026-03-29T11:05:30.999Z</time></trkpt><trkpt lat="43.116010460297744" lon="12.215235817704217"><ele>285.0</ele><time>2026-03-29T11:05:31.999Z</time></trkpt><trkpt lat="43.116102764629716" lon="12.215319613533813"><ele>284.0</ele><time>2026-03-29T11:05:32.999Z</time></trkpt><trkpt lat="43.116195887663444" lon="12.215392881490047"><ele>284.0</ele><time>2026-03-29T11:05:33.999Z</time></trkpt><trkpt lat="43.116279094930974" lon="12.215472233597335"><ele>284.0</ele><time>2026-03-29T11:05:34.999Z</time></trkpt><trkpt lat="43.11634446814107" lon="12.215549284365338"><ele>284.0</ele><time>2026-03-29T11:05:35.999Z</time></trkpt><trkpt lat="43.116402671213024" lon="12.215607780164383"><ele>284.0</ele><time>2026-03-29T11:05:37.999Z</time></trkpt><trkpt lat="43.11635255209969" lon="12.215679275639012"><ele>284.0</ele><time>2026-03-29T11:05:40.999Z</time></trkpt><trkpt lat="43.11628984365175" lon="12.215692162289391"><ele>284.0</ele><time>2026-03-29T11:05:41.999Z</time></trkpt><trkpt lat="43.11621321766217" lon="12.215719858491761"><ele>286.4</ele><time>2026-03-29T11:05:42.999Z</time></trkpt><trkpt lat="43.11612794601133" lon="12.215719110996757"><ele>288.79999999999995</ele><time>2026-03-29T11:05:43.999Z</time></trkpt><trkpt lat="43.11603074130258" lon="12.215733869372507"><ele>291.20000000000005</ele><time>2026-03-29T11:05:44.999Z</time></trkpt><trkpt lat="43.11593782197966" lon="12.215761280254883"><ele>293.6</ele><time>2026-03-29T11:05:45.999Z</time></trkpt><trkpt lat="43.11583371237192" lon="12.215786793816982"><ele>296.0</ele><time>2026-03-29T11:05:46.999Z</time></trkpt><trkpt lat="43.11574012110483" lon="12.215823011824261"><ele>296.5</ele><time>2026-03-29T11:05:47.999Z</time></trkpt><trkpt lat="43.1156640193688" lon="12.215862841810038"><ele>297.0</ele><time>2026-03-29T11:05:48.999Z</time></trkpt><trkpt lat="43.11558814539827" lon="12.215931030916947"><ele>297.5</ele><time>2026-03-29T11:05:49.999Z</time></trkpt><trkpt lat="43.115514617027976" lon="12.216012337453257"><ele>298.0</ele><time>2026-03-29T11:05:50.999Z</time></trkpt><trkpt lat="43.115443075974994" lon="12.216075446775948"><ele>298.5</ele><time>2026-03-29T11:05:51.999Z</time></trkpt><trkpt lat="43.11536089164731" lon="12.216128611146658"><ele>299.0</ele><time>2026-03-29T11:05:52.999Z</time></trkpt><trkpt lat="43.115268087333426" lon="12.216141549144783"><ele>299.0</ele><time>2026-03-29T11:05:53.999Z</time></trkpt><trkpt lat="43.11518997844407" lon="12.216207330872514"><ele>299.0</ele><time>2026-03-29T11:05:54.999Z</time></trkpt><trkpt lat="43.11512707828442" lon="12.216279129209477"><ele>299.0</ele><time>2026-03-29T11:05:55.999Z</time></trkpt><trkpt lat="43.11508583427047" lon="12.216389035437409"><ele>299.0</ele><time>2026-03-29T11:05:56.999Z</time></trkpt><trkpt lat="43.11502874787644" lon="12.216481520753966"><ele>299.0</ele><time>2026-03-29T11:05:58Z</time></trkpt><trkpt lat="43.11496950686073" lon="12.216560578625778"><ele>299.0</ele><time>2026-03-29T11:05:59Z</time></trkpt><trkpt lat="43.114910833391676" lon="12.216644439633058"><ele>301.0</ele><time>2026-03-29T11:06:00Z</time></trkpt><trkpt lat="43.114863192699204" lon="12.216728323804375"><ele>303.0</ele><time>2026-03-29T11:06:01Z</time></trkpt><trkpt lat="43.11480958161214" lon="12.216795259271994"><ele>305.0</ele><time>2026-03-29T11:06:02Z</time></trkpt><trkpt lat="43.11475240050116" lon="12.216890069747903"><ele>307.0</ele><time>2026-03-29T11:06:04Z</time></trkpt><trkpt lat="43.11481963504998" lon="12.216973169900918"><ele>309.0</ele><time>2026-03-29T11:06:06Z</time></trkpt><trkpt lat="43.11489348176999" lon="12.216969276104336"><ele>311.0</ele><time>2026-03-29T11:06:07Z</time></trkpt><trkpt lat="43.11496296397863" lon="12.216891099519861"><ele>311.0</ele><time>2026-03-29T11:06:07.999Z</time></trkpt><trkpt lat="43.115038332674146" lon="12.216849679680626"><ele>311.0</ele><time>2026-03-29T11:06:08.999Z</time></trkpt><trkpt lat="43.115102353469055" lon="12.216800380685363"><ele>311.0</ele><time>2026-03-29T11:06:09.999Z</time></trkpt><trkpt lat="43.11520038201712" lon="12.21677190706303"><ele>311.0</ele><time>2026-03-29T11:06:10.999Z</time></trkpt><trkpt lat="43.11529026234986" lon="12.216763458048908"><ele>311.0</ele><time>2026-03-29T11:06:11.999Z</time></trkpt><trkpt lat="43.1153797058039" lon="12.216787081894598"><ele>311.0</ele><time>2026-03-29T11:06:12.999Z</time></trkpt><trkpt lat="43.11547342489633" lon="12.216817677169104"><ele>311.0</ele><time>2026-03-29T11:06:13.999Z</time></trkpt><trkpt lat="43.115557626957596" lon="12.216823563558176"><ele>311.0</ele><time>2026-03-29T11:06:14.999Z</time></trkpt><trkpt lat="43.11554718732159" lon="12.216926518442147"><ele>311.0</ele><time>2026-03-29T11:06:16.999Z</time></trkpt><trkpt lat="43.11547537959649" lon="12.216981448158423"><ele>311.0</ele><time>2026-03-29T11:06:17.999Z</time></trkpt><trkpt lat="43.115401969829" lon="12.217025842519636"><ele>311.0</ele><time>2026-03-29T11:06:18.999Z</time></trkpt><trkpt lat="43.11529554814557" lon="12.217109072097832"><ele>311.0</ele><time>2026-03-29T11:06:20.999Z</time></trkpt><trkpt lat="43.115221201665626" lon="12.217261780420934"><ele>313.83333333333337</ele><time>2026-03-29T11:06:22.999Z</time></trkpt><trkpt lat="43.11518256595964" lon="12.217345549114292"><ele>316.6666666666667</ele><time>2026-03-29T11:06:23.999Z</time></trkpt><trkpt lat="43.11512872227357" lon="12.217443277986709"><ele>319.5</ele><time>2026-03-29T11:06:24.999Z</time></trkpt><trkpt lat="43.11507603967732" lon="12.217543105545717"><ele>322.3333333333333</ele><time>2026-03-29T11:06:25.999Z</time></trkpt><trkpt lat="43.115013377760675" lon="12.217644498357728"><ele>325.16666666666663</ele><time>2026-03-29T11:06:26.999Z</time></trkpt><trkpt lat="43.114949266396735" lon="12.217737958216745"><ele>328.0</ele><time>2026-03-29T11:06:27.999Z</time></trkpt><trkpt lat="43.11487009826007" lon="12.217834970629408"><ele>328.4</ele><time>2026-03-29T11:06:28.999Z</time></trkpt><trkpt lat="43.11478533812189" lon="12.21791536669241"><ele>328.79999999999995</ele><time>2026-03-29T11:06:29.999Z</time></trkpt><trkpt lat="43.11471280867203" lon="12.217964057754589"><ele>329.2</ele><time>2026-03-29T11:06:30.999Z</time></trkpt><trkpt lat="43.114704485816844" lon="12.218061451206857"><ele>329.6</ele><time>2026-03-29T11:06:32.999Z</time></trkpt><trkpt lat="43.11479010128334" lon="12.21815015816957"><ele>330.0</ele><time>2026-03-29T11:06:34.999Z</time></trkpt><trkpt lat="43.11488243024712" lon="12.21829453525753"><ele>332.6</ele><time>2026-03-29T11:06:36.999Z</time></trkpt><trkpt lat="43.11490110576527" lon="12.218471523107018"><ele>335.2</ele><time>2026-03-29T11:06:38.999Z</time></trkpt><trkpt lat="43.114907113274" lon="12.21858808253227"><ele>337.79999999999995</ele><time>2026-03-29T11:06:39.999Z</time></trkpt><trkpt lat="43.11488854127838" lon="12.218704217474112"><ele>340.4</ele><time>2026-03-29T11:06:40.999Z</time></trkpt><trkpt lat="43.114840309843146" lon="12.218850759145019"><ele>343.0</ele><time>2026-03-29T11:06:41.999Z</time></trkpt><trkpt lat="43.11479408311151" lon="12.218947209658577"><ele>347.0</ele><time>2026-03-29T11:06:42.999Z</time></trkpt><trkpt lat="43.11473612220869" lon="12.21908511156303"><ele>351.0</ele><time>2026-03-29T11:06:43.999Z</time></trkpt><trkpt lat="43.114659926958865" lon="12.219227446702082"><ele>355.0</ele><time>2026-03-29T11:06:44.999Z</time></trkpt><trkpt lat="43.114607998142965" lon="12.219359401060442"><ele>359.0</ele><time>2026-03-29T11:06:45.999Z</time></trkpt><trkpt lat="43.114582232179664" lon="12.219481649059409"><ele>363.0</ele><time>2026-03-29T11:06:46.999Z</time></trkpt><trkpt lat="43.11454438727555" lon="12.219600746838246"><ele>363.0</ele><time>2026-03-29T11:06:47.999Z</time></trkpt><trkpt lat="43.11450346762244" lon="12.219768607906135"><ele>363.0</ele><time>2026-03-29T11:06:49.999Z</time></trkpt><trkpt lat="43.11445015782545" lon="12.219851717875981"><ele>363.0</ele><time>2026-03-29T11:06:50.999Z</time></trkpt><trkpt lat="43.11440293785777" lon="12.219918387658423"><ele>363.0</ele><time>2026-03-29T11:06:51.999Z</time></trkpt><trkpt lat="43.11436530864057" lon="12.220003437813132"><ele>363.0</ele><time>2026-03-29T11:06:52.999Z</time></trkpt><trkpt lat="43.11433089965826" lon="12.22009859780302"><ele>363.0</ele><time>2026-03-29T11:06:53.999Z</time></trkpt><trkpt lat="43.11427053186671" lon="12.220140144572518"><ele>364.79999999999995</ele><time>2026-03-29T11:06:54.999Z</time></trkpt><trkpt lat="43.11417813837414" lon="12.22010478306111"><ele>366.6</ele><time>2026-03-29T11:06:55.999Z</time></trkpt><trkpt lat="43.11407822007036" lon="12.220121325721218"><ele>368.4</ele><time>2026-03-29T11:06:56.999Z</time></trkpt><trkpt lat="43.113981912919606" lon="12.22016682323154"><ele>370.20000000000005</ele><time>2026-03-29T11:06:57.999Z</time></trkpt><trkpt lat="43.113889658886286" lon="12.220218370057088"><ele>372.0</ele><time>2026-03-29T11:06:58.999Z</time></trkpt><trkpt lat="43.11378943429319" lon="12.220236686217376"><ele>374.0</ele><time>2026-03-29T11:06:59.999Z</time></trkpt><trkpt lat="43.11369992951076" lon="12.220234990707679"><ele>376.0</ele><time>2026-03-29T11:07:00.999Z</time></trkpt><trkpt lat="43.11359159550517" lon="12.220253561654173"><ele>378.0</ele><time>2026-03-29T11:07:01.999Z</time></trkpt><trkpt lat="43.11345854811246" lon="12.220242923938796"><ele>380.0</ele><time>2026-03-29T11:07:02.999Z</time></trkpt><trkpt lat="43.11334304327318" lon="12.220249508694483"><ele>382.0</ele><time>2026-03-29T11:07:03.999Z</time></trkpt><trkpt lat="43.113277957416365" lon="12.220289081668968"><ele>382.0</ele><time>2026-03-29T11:07:04.999Z</time></trkpt><trkpt lat="43.113281896444796" lon="12.220426170058554"><ele>382.0</ele><time>2026-03-29T11:07:06.999Z</time></trkpt><trkpt lat="43.11330441822782" lon="12.220512515757871"><ele>382.0</ele><time>2026-03-29T11:07:07.999Z</time></trkpt><trkpt lat="43.11331303228232" lon="12.220636885207066"><ele>382.0</ele><time>2026-03-29T11:07:08.999Z</time></trkpt><trkpt lat="43.11331776824973" lon="12.220826452524523"><ele>382.0</ele><time>2026-03-29T11:07:10.999Z</time></trkpt><trkpt lat="43.11332410547282" lon="12.22093438851666"><ele>385.40000000000003</ele><time>2026-03-29T11:07:11.999Z</time></trkpt><trkpt lat="43.113388964513206" lon="12.220992375790265"><ele>388.8</ele><time>2026-03-29T11:07:13.999Z</time></trkpt><trkpt lat="43.11348785734788" lon="12.221094067353958"><ele>392.2</ele><time>2026-03-29T11:07:14.999Z</time></trkpt><trkpt lat="43.113592079048885" lon="12.221196113702112"><ele>395.6</ele><time>2026-03-29T11:07:15.999Z</time></trkpt><trkpt lat="43.113620166475506" lon="12.221313726420126"><ele>399.0</ele><time>2026-03-29T11:07:16.999Z</time></trkpt><trkpt lat="43.113674488030995" lon="12.221431334550545"><ele>403.0</ele><time>2026-03-29T11:07:17.999Z</time></trkpt><trkpt lat="43.11371514598802" lon="12.221623601751865"><ele>407.0</ele><time>2026-03-29T11:07:18.999Z</time></trkpt><trkpt lat="43.113783402963854" lon="12.22167828439048"><ele>411.0</ele><time>2026-03-29T11:07:19.999Z</time></trkpt><trkpt lat="43.113932324980965" lon="12.221796422912744"><ele>415.0</ele><time>2026-03-29T11:07:21.999Z</time></trkpt><trkpt lat="43.114047423400265" lon="12.221891240159778"><ele>414.0</ele><time>2026-03-29T11:07:22.999Z</time></trkpt><trkpt lat="43.114158058167014" lon="12.22199751297468"><ele>413.0</ele><time>2026-03-29T11:07:23.999Z</time></trkpt><trkpt lat="43.114243278689045" lon="12.22213862234714"><ele>412.0</ele><time>2026-03-29T11:07:24.999Z</time></trkpt><trkpt lat="43.11431639108402" lon="12.222282471544423"><ele>411.0</ele><time>2026-03-29T11:07:25.999Z</time></trkpt><trkpt lat="43.114375142272245" lon="12.222397140419014"><ele>411.0</ele><time>2026-03-29T11:07:26.999Z</time></trkpt><trkpt lat="43.11440727757547" lon="12.222530939233248"><ele>411.0</ele><time>2026-03-29T11:07:27.999Z</time></trkpt><trkpt lat="43.11442540924831" lon="12.222654822566172"><ele>411.0</ele><time>2026-03-29T11:07:28.999Z</time></trkpt><trkpt lat="43.11439438495966" lon="12.222779727673567"><ele>411.0</ele><time>2026-03-29T11:07:29.999Z</time></trkpt><trkpt lat="43.11436785641246" lon="12.222877345242955"><ele>411.0</ele><time>2026-03-29T11:07:30.999Z</time></trkpt><trkpt lat="43.114358553256174" lon="12.222988870489772"><ele>411.0</ele><time>2026-03-29T11:07:31.999Z</time></trkpt><trkpt lat="43.114420516016104" lon="12.223096497195211"><ele>411.0</ele><time>2026-03-29T11:07:33.999Z</time></trkpt><trkpt lat="43.11449758817676" lon="12.223130521067326"><ele>411.0</ele><time>2026-03-29T11:07:34.999Z</time></trkpt><trkpt lat="43.11456014691237" lon="12.223112810061906"><ele>411.0</ele><time>2026-03-29T11:07:35.999Z</time></trkpt><trkpt lat="43.114656985401275" lon="12.223073071031473"><ele>411.0</ele><time>2026-03-29T11:07:36.999Z</time></trkpt><trkpt lat="43.11477018327734" lon="12.223061777238538"><ele>411.0</ele><time>2026-03-29T11:07:37.999Z</time></trkpt><trkpt lat="43.114881338240835" lon="12.2230490455113"><ele>403.0</ele><time>2026-03-29T11:07:38.999Z</time></trkpt><trkpt lat="43.114982103748076" lon="12.223034202416398"><ele>395.0</ele><time>2026-03-29T11:07:39.999Z</time></trkpt><trkpt lat="43.115087876738194" lon="12.223011049091125"><ele>387.0</ele><time>2026-03-29T11:07:40.999Z</time></trkpt><trkpt lat="43.1153668216915" lon="12.222985574064316"><ele>387.0</ele><time>2026-03-29T11:07:42.999Z</time></trkpt><trkpt lat="43.11549286240443" lon="12.222959064086997"><ele>387.0</ele><time>2026-03-29T11:07:43.999Z</time></trkpt><trkpt lat="43.11575051832685" lon="12.22279432251668"><ele>387.0</ele><time>2026-03-29T11:07:45.999Z</time></trkpt><trkpt lat="43.11588280135858" lon="12.222786109609814"><ele>383.5</ele><time>2026-03-29T11:07:46.999Z</time></trkpt><trkpt lat="43.11601604004747" lon="12.222826156105732"><ele>380.0</ele><time>2026-03-29T11:07:47.999Z</time></trkpt><trkpt lat="43.116118876209484" lon="12.222864126109432"><ele>376.5</ele><time>2026-03-29T11:07:48.999Z</time></trkpt><trkpt lat="43.116229028073114" lon="12.222897519425269"><ele>373.0</ele><time>2026-03-29T11:07:49.999Z</time></trkpt><trkpt lat="43.11633933184732" lon="12.222927784191093"><ele>373.0</ele><time>2026-03-29T11:07:50.999Z</time></trkpt><trkpt lat="43.1164474215021" lon="12.222942780716773"><ele>373.0</ele><time>2026-03-29T11:07:51.999Z</time></trkpt><trkpt lat="43.11657475669903" lon="12.222949840080865"><ele>373.0</ele><time>2026-03-29T11:07:52.999Z</time></trkpt><trkpt lat="43.11673261413234" lon="12.222955668285515"><ele>373.0</ele><time>2026-03-29T11:07:53.999Z</time></trkpt><trkpt lat="43.11690135375481" lon="12.222959205058679"><ele>371.5</ele><time>2026-03-29T11:07:55Z</time></trkpt><trkpt lat="43.11705854465036" lon="12.222962907407469"><ele>370.0</ele><time>2026-03-29T11:07:56Z</time></trkpt><trkpt lat="43.11719262426512" lon="12.222977235670674"><ele>368.5</ele><time>2026-03-29T11:07:57Z</time></trkpt><trkpt lat="43.11730931876073" lon="12.2230062404376"><ele>367.0</ele><time>2026-03-29T11:07:58Z</time></trkpt><trkpt lat="43.11738273871872" lon="12.223031068308096"><ele>367.0</ele><time>2026-03-29T11:07:59Z</time></trkpt><trkpt lat="43.11730864657646" lon="12.223008185162074"><ele>367.0</ele><time>2026-03-29T11:08:08Z</time></trkpt><trkpt lat="43.11724145378496" lon="12.222988373145334"><ele>367.0</ele><time>2026-03-29T11:08:11Z</time></trkpt><trkpt lat="43.11715815972886" lon="12.223047865458105"><ele>367.0</ele><time>2026-03-29T11:08:12.999Z</time></trkpt><trkpt lat="43.117055654707066" lon="12.223114230078666"><ele>367.0</ele><time>2026-03-29T11:08:14.999Z</time></trkpt><trkpt lat="43.11699088893731" lon="12.223164794359272"><ele>367.0</ele><time>2026-03-29T11:08:15.999Z</time></trkpt><trkpt lat="43.11692569393074" lon="12.223216767662315"><ele>370.66666666666663</ele><time>2026-03-29T11:08:16.999Z</time></trkpt><trkpt lat="43.11692524180257" lon="12.223324944257307"><ele>374.3333333333333</ele><time>2026-03-29T11:08:17.999Z</time></trkpt><trkpt lat="43.11683963568703" lon="12.22345017094246"><ele>378.0</ele><time>2026-03-29T11:08:19.999Z</time></trkpt><trkpt lat="43.11678094275312" lon="12.223484368083751"><ele>381.66666666666663</ele><time>2026-03-29T11:08:20.999Z</time></trkpt><trkpt lat="43.11671591526665" lon="12.22350003873165"><ele>385.3333333333333</ele><time>2026-03-29T11:08:21.999Z</time></trkpt><trkpt lat="43.1166276574988" lon="12.223535710001359"><ele>389.0</ele><time>2026-03-29T11:08:22.999Z</time></trkpt><trkpt lat="43.11650090192497" lon="12.22358918565473"><ele>389.79999999999995</ele><time>2026-03-29T11:08:23.999Z</time></trkpt><trkpt lat="43.11639449237791" lon="12.223667390676216"><ele>390.59999999999997</ele><time>2026-03-29T11:08:24.999Z</time></trkpt><trkpt lat="43.116302355304164" lon="12.223736849927667"><ele>391.4</ele><time>2026-03-29T11:08:25.999Z</time></trkpt><trkpt lat="43.1162178136384" lon="12.223741008853636"><ele>392.2</ele><time>2026-03-29T11:08:26.999Z</time></trkpt><trkpt lat="43.116121926046" lon="12.223778142059853"><ele>393.0</ele><time>2026-03-29T11:08:27.999Z</time></trkpt><trkpt lat="43.11604082829882" lon="12.223816076392197"><ele>393.0</ele><time>2026-03-29T11:08:28.999Z</time></trkpt><trkpt lat="43.11596190939621" lon="12.223909220972292"><ele>393.0</ele><time>2026-03-29T11:08:29.999Z</time></trkpt><trkpt lat="43.11591076863784" lon="12.2239669423936"><ele>393.0</ele><time>2026-03-29T11:08:30.999Z</time></trkpt><trkpt lat="43.11600130364766" lon="12.224162098289694"><ele>393.0</ele><time>2026-03-29T11:08:32.999Z</time></trkpt><trkpt lat="43.11606322423949" lon="12.224241653152713"><ele>393.0</ele><time>2026-03-29T11:08:33.999Z</time></trkpt><trkpt lat="43.116134833863235" lon="12.224338079313535"><ele>396.4</ele><time>2026-03-29T11:08:35.999Z</time></trkpt><trkpt lat="43.11614873694865" lon="12.224437360986782"><ele>399.79999999999995</ele><time>2026-03-29T11:08:37.999Z</time></trkpt><trkpt lat="43.11602222141178" lon="12.224490316171664"><ele>403.2</ele><time>2026-03-29T11:08:38.999Z</time></trkpt><trkpt lat="43.115933479804916" lon="12.224490501035262"><ele>406.6</ele><time>2026-03-29T11:08:39.999Z</time></trkpt><trkpt lat="43.11585138653596" lon="12.224539363287056"><ele>410.0</ele><time>2026-03-29T11:08:40.999Z</time></trkpt><trkpt lat="43.1157627023041" lon="12.224563245906623"><ele>411.8</ele><time>2026-03-29T11:08:41.999Z</time></trkpt><trkpt lat="43.11568373888279" lon="12.224559177799566"><ele>413.6</ele><time>2026-03-29T11:08:42.999Z</time></trkpt><trkpt lat="43.115579193158496" lon="12.224570961629944"><ele>415.4</ele><time>2026-03-29T11:08:43.999Z</time></trkpt><trkpt lat="43.11546857042674" lon="12.224586644795515"><ele>417.2</ele><time>2026-03-29T11:08:44.999Z</time></trkpt><trkpt lat="43.1153757823496" lon="12.224599799481357"><ele>419.0</ele><time>2026-03-29T11:08:45.999Z</time></trkpt><trkpt lat="43.11530956432266" lon="12.224609187297814"><ele>419.0</ele><time>2026-03-29T11:08:46.999Z</time></trkpt><trkpt lat="43.115245920701" lon="12.224618210393281"><ele>419.0</ele><time>2026-03-29T11:08:48.999Z</time></trkpt><trkpt lat="43.11514574079594" lon="12.22463141124771"><ele>419.0</ele><time>2026-03-29T11:08:50.999Z</time></trkpt><trkpt lat="43.115056689014914" lon="12.224645039675748"><ele>419.0</ele><time>2026-03-29T11:08:55.999Z</time></trkpt><trkpt lat="43.11492452398042" lon="12.224787059556784"><ele>419.0</ele><time>2026-03-29T11:08:58Z</time></trkpt><trkpt lat="43.11483661520113" lon="12.224841252698301"><ele>422.79999999999995</ele><time>2026-03-29T11:08:59Z</time></trkpt><trkpt lat="43.11473933706654" lon="12.224911687427406"><ele>426.59999999999997</ele><time>2026-03-29T11:09:00Z</time></trkpt><trkpt lat="43.114665992665735" lon="12.224978281826496"><ele>430.4</ele><time>2026-03-29T11:09:01Z</time></trkpt><trkpt lat="43.114604829402886" lon="12.225032712974581"><ele>434.2</ele><time>2026-03-29T11:09:02Z</time></trkpt><trkpt lat="43.11452400860538" lon="12.225138752005815"><ele>438.0</ele><time>2026-03-29T11:09:04Z</time></trkpt><trkpt lat="43.11445577981349" lon="12.2251939385893"><ele>438.0</ele><time>2026-03-29T11:09:05Z</time></trkpt><trkpt lat="43.114395294332425" lon="12.225275743737498"><ele>438.0</ele><time>2026-03-29T11:09:06Z</time></trkpt><trkpt lat="43.114324457335556" lon="12.225302251869236"><ele>438.0</ele><time>2026-03-29T11:09:07Z</time></trkpt><trkpt lat="43.114242874296046" lon="12.22527540764011"><ele>438.0</ele><time>2026-03-29T11:09:08Z</time></trkpt><trkpt lat="43.11416611227828" lon="12.225238956794902"><ele>438.0</ele><time>2026-03-29T11:09:09Z</time></trkpt><trkpt lat="43.114098098212565" lon="12.225173819102412"><ele>438.0</ele><time>2026-03-29T11:09:10Z</time></trkpt><trkpt lat="43.11402228670271" lon="12.225082981704462"><ele>437.5</ele><time>2026-03-29T11:09:11Z</time></trkpt><trkpt lat="43.11395696398795" lon="12.224993335010238"><ele>437.0</ele><time>2026-03-29T11:09:12Z</time></trkpt><trkpt lat="43.1139252583325" lon="12.224909003535087"><ele>436.5</ele><time>2026-03-29T11:09:13Z</time></trkpt><trkpt lat="43.11388465348996" lon="12.224809479447448"><ele>436.0</ele><time>2026-03-29T11:09:15Z</time></trkpt><trkpt lat="43.11378614199744" lon="12.224761654564622"><ele>435.5</ele><time>2026-03-29T11:09:18Z</time></trkpt><trkpt lat="43.11372408045645" lon="12.224715076898258"><ele>435.0</ele><time>2026-03-29T11:09:19Z</time></trkpt><trkpt lat="43.113599578135776" lon="12.224638654267823"><ele>437.6</ele><time>2026-03-29T11:09:21Z</time></trkpt><trkpt lat="43.113518656544265" lon="12.224601498063057"><ele>440.2</ele><time>2026-03-29T11:09:22Z</time></trkpt><trkpt lat="43.11344538950895" lon="12.22456882699095"><ele>442.79999999999995</ele><time>2026-03-29T11:09:23Z</time></trkpt><trkpt lat="43.11339502685975" lon="12.22451229023272"><ele>445.4</ele><time>2026-03-29T11:09:24Z</time></trkpt><trkpt lat="43.113283991066986" lon="12.224436624708417"><ele>448.0</ele><time>2026-03-29T11:09:26Z</time></trkpt><trkpt lat="43.113184614609914" lon="12.224363460299388"><ele>449.79999999999995</ele><time>2026-03-29T11:09:28Z</time></trkpt><trkpt lat="43.113138612616225" lon="12.22427919923305"><ele>451.59999999999997</ele><time>2026-03-29T11:09:29Z</time></trkpt><trkpt lat="43.11307507017657" lon="12.224164960815214"><ele>453.40000000000003</ele><time>2026-03-29T11:09:32Z</time></trkpt><trkpt lat="43.113012128833155" lon="12.224045238403477"><ele>455.20000000000005</ele><time>2026-03-29T11:09:34Z</time></trkpt><trkpt lat="43.112976730658936" lon="12.223915855878076"><ele>457.0</ele><time>2026-03-29T11:09:36Z</time></trkpt><trkpt lat="43.112935964945805" lon="12.223767061998872"><ele>457.0</ele><time>2026-03-29T11:09:38Z</time></trkpt><trkpt lat="43.11289162403415" lon="12.22367682551814"><ele>457.00000000000006</ele><time>2026-03-29T11:09:39Z</time></trkpt><trkpt lat="43.11284372992481" lon="12.223589980269807"><ele>457.00000000000006</ele><time>2026-03-29T11:09:40Z</time></trkpt><trkpt lat="43.112805128181265" lon="12.22345088047605"><ele>457.0</ele><time>2026-03-29T11:09:42Z</time></trkpt><trkpt lat="43.1127773965859" lon="12.223290772750536"><ele>457.0</ele><time>2026-03-29T11:09:44Z</time></trkpt><trkpt lat="43.11274084071975" lon="12.223189635776212"><ele>457.0</ele><time>2026-03-29T11:09:45Z</time></trkpt><trkpt lat="43.11259934795993" lon="12.223220076964576"><ele>457.0</ele><time>2026-03-29T11:09:47Z</time></trkpt><trkpt lat="43.11252483250519" lon="12.223384740107562"><ele>457.0</ele><time>2026-03-29T11:09:49Z</time></trkpt><trkpt lat="43.11245794094813" lon="12.223448563405565"><ele>457.0</ele><time>2026-03-29T11:09:50Z</time></trkpt><trkpt lat="43.11240596179796" lon="12.223545758173369"><ele>459.50000000000006</ele><time>2026-03-29T11:09:51Z</time></trkpt><trkpt lat="43.112334569069226" lon="12.22364088308257"><ele>462.0</ele><time>2026-03-29T11:09:52Z</time></trkpt><trkpt lat="43.112264472059266" lon="12.223742345222076"><ele>464.5</ele><time>2026-03-29T11:09:53Z</time></trkpt><trkpt lat="43.11217572263198" lon="12.223778790239054"><ele>467.0</ele><time>2026-03-29T11:09:54Z</time></trkpt><trkpt lat="43.1121206683773" lon="12.223838626809897"><ele>469.50000000000006</ele><time>2026-03-29T11:09:55Z</time></trkpt><trkpt lat="43.112068361733165" lon="12.223898896048457"><ele>472.0</ele><time>2026-03-29T11:09:56Z</time></trkpt><trkpt lat="43.11199832350305" lon="12.2239964440532"><ele>474.0</ele><time>2026-03-29T11:09:58Z</time></trkpt><trkpt lat="43.11193716146237" lon="12.22405740332525"><ele>476.00000000000006</ele><time>2026-03-29T11:10:10Z</time></trkpt><trkpt lat="43.11186046331604" lon="12.224053374151367"><ele>478.00000000000006</ele><time>2026-03-29T11:10:13Z</time></trkpt><trkpt lat="43.11178660242354" lon="12.224077002658989"><ele>480.0</ele><time>2026-03-29T11:10:15Z</time></trkpt><trkpt lat="43.11163842221418" lon="12.224177457125391"><ele>482.0</ele><time>2026-03-29T11:10:17Z</time></trkpt><trkpt lat="43.11152496311019" lon="12.224275943869236"><ele>482.20000000000005</ele><time>2026-03-29T11:10:18Z</time></trkpt><trkpt lat="43.11144788656633" lon="12.224360223980478"><ele>482.40000000000003</ele><time>2026-03-29T11:10:19Z</time></trkpt><trkpt lat="43.11136346226938" lon="12.224440569897295"><ele>482.59999999999997</ele><time>2026-03-29T11:10:20Z</time></trkpt><trkpt lat="43.1112424839383" lon="12.22449105780001"><ele>482.79999999999995</ele><time>2026-03-29T11:10:22Z</time></trkpt><trkpt lat="43.11118881076651" lon="12.224551040907418"><ele>483.0</ele><time>2026-03-29T11:10:24Z</time></trkpt><trkpt lat="43.11097701004852" lon="12.224867371123182"><ele>483.0</ele><time>2026-03-29T11:10:26Z</time></trkpt><trkpt lat="43.110911526649424" lon="12.224928774627289"><ele>483.0</ele><time>2026-03-29T11:10:28Z</time></trkpt><trkpt lat="43.110847130477524" lon="12.224954727544182"><ele>483.0</ele><time>2026-03-29T11:10:30Z</time></trkpt><trkpt lat="43.11076711379991" lon="12.224905424653375"><ele>483.0</ele><time>2026-03-29T11:10:32Z</time></trkpt><trkpt lat="43.11073043715998" lon="12.224760760772497"><ele>483.0</ele><time>2026-03-29T11:10:34Z</time></trkpt><trkpt lat="43.110714172202385" lon="12.22467462915489"><ele>483.0</ele><time>2026-03-29T11:10:35Z</time></trkpt><trkpt lat="43.110667717590324" lon="12.224559178235397"><ele>482.25</ele><time>2026-03-29T11:10:37Z</time></trkpt><trkpt lat="43.11064886182572" lon="12.224433602757912"><ele>481.5</ele><time>2026-03-29T11:10:39Z</time></trkpt><trkpt lat="43.11060898596568" lon="12.224268915736943"><ele>480.75</ele><time>2026-03-29T11:10:41Z</time></trkpt><trkpt lat="43.110651107291474" lon="12.223991535127519"><ele>480.0</ele><time>2026-03-29T11:10:43Z</time></trkpt><trkpt lat="43.11067818824293" lon="12.223887259769821"><ele>480.0</ele><time>2026-03-29T11:10:45Z</time></trkpt><trkpt lat="43.110612917403024" lon="12.223772824613242"><ele>480.0</ele><time>2026-03-29T11:10:47Z</time></trkpt><trkpt lat="43.11055028890713" lon="12.223690172010787"><ele>480.0</ele><time>2026-03-29T11:10:48Z</time></trkpt><trkpt lat="43.11047045248669" lon="12.22363711512482"><ele>480.0</ele><time>2026-03-29T11:10:49Z</time></trkpt><trkpt lat="43.110378659421876" lon="12.223553303951286"><ele>480.0</ele><time>2026-03-29T11:10:50Z</time></trkpt><trkpt lat="43.11030320873639" lon="12.223442972271894"><ele>480.0</ele><time>2026-03-29T11:10:51Z</time></trkpt><trkpt lat="43.110232968534255" lon="12.22333729285906"><ele>480.0</ele><time>2026-03-29T11:10:52Z</time></trkpt><trkpt lat="43.11017201113154" lon="12.223227054026914"><ele>480.0</ele><time>2026-03-29T11:10:53Z</time></trkpt><trkpt lat="43.11011215837359" lon="12.223139823382189"><ele>480.0</ele><time>2026-03-29T11:10:54Z</time></trkpt><trkpt lat="43.11006748662871" lon="12.223077069827506"><ele>480.0</ele><time>2026-03-29T11:10:55Z</time></trkpt><trkpt lat="43.110040023619455" lon="12.22298935622763"><ele>480.0</ele><time>2026-03-29T11:10:56Z</time></trkpt><trkpt lat="43.110011706721494" lon="12.222897090768265"><ele>479.1666666666667</ele><time>2026-03-29T11:10:57Z</time></trkpt><trkpt lat="43.10999185976356" lon="12.222806252980046"><ele>478.33333333333337</ele><time>2026-03-29T11:10:58Z</time></trkpt><trkpt lat="43.109958531866724" lon="12.222684363023664"><ele>477.5</ele><time>2026-03-29T11:10:59Z</time></trkpt><trkpt lat="43.109924916498954" lon="12.222590678432319"><ele>476.6666666666667</ele><time>2026-03-29T11:11:00Z</time></trkpt><trkpt lat="43.109879932885924" lon="12.222483420274155"><ele>475.83333333333337</ele><time>2026-03-29T11:11:01Z</time></trkpt><trkpt lat="43.109833778244685" lon="12.222390461074074"><ele>475.0</ele><time>2026-03-29T11:11:02Z</time></trkpt><trkpt lat="43.10978171306377" lon="12.22228726189006"><ele>473.33333333333337</ele><time>2026-03-29T11:11:03Z</time></trkpt><trkpt lat="43.1097321175143" lon="12.222172971463573"><ele>471.6666666666667</ele><time>2026-03-29T11:11:04Z</time></trkpt><trkpt lat="43.10967884026248" lon="12.222096699112454"><ele>470.0</ele><time>2026-03-29T11:11:05Z</time></trkpt><trkpt lat="43.1096354766017" lon="12.222033055555052"><ele>468.33333333333337</ele><time>2026-03-29T11:11:06Z</time></trkpt><trkpt lat="43.10959915388611" lon="12.221947223211753"><ele>466.6666666666667</ele><time>2026-03-29T11:11:07Z</time></trkpt><trkpt lat="43.109556855444474" lon="12.221786560988946"><ele>465.0</ele><time>2026-03-29T11:11:09Z</time></trkpt><trkpt lat="43.10954297862378" lon="12.22168788264062"><ele>465.0</ele><time>2026-03-29T11:11:10Z</time></trkpt><trkpt lat="43.109510729350575" lon="12.22153688184174"><ele>465.0</ele><time>2026-03-29T11:11:12Z</time></trkpt><trkpt lat="43.10943198407851" lon="12.221442468767757"><ele>465.0</ele><time>2026-03-29T11:11:14Z</time></trkpt><trkpt lat="43.10940376084777" lon="12.221282478946344"><ele>465.0</ele><time>2026-03-29T11:11:16Z</time></trkpt><trkpt lat="43.10934020085699" lon="12.221201422992497"><ele>465.0</ele><time>2026-03-29T11:11:18Z</time></trkpt><trkpt lat="43.10922707487119" lon="12.221112391363514"><ele>463.8333333333333</ele><time>2026-03-29T11:11:20Z</time></trkpt><trkpt lat="43.10916250068278" lon="12.221019441498681"><ele>462.66666666666663</ele><time>2026-03-29T11:11:21Z</time></trkpt><trkpt lat="43.109134641110614" lon="12.220921893157135"><ele>461.5</ele><time>2026-03-29T11:11:22Z</time></trkpt><trkpt lat="43.10909535101935" lon="12.220815201908566"><ele>460.3333333333333</ele><time>2026-03-29T11:11:23Z</time></trkpt><trkpt lat="43.10902731778739" lon="12.220730966428954"><ele>459.16666666666663</ele><time>2026-03-29T11:11:24Z</time></trkpt><trkpt lat="43.10894185501054" lon="12.2206987044915"><ele>458.0</ele><time>2026-03-29T11:11:25Z</time></trkpt><trkpt lat="43.10884787012062" lon="12.220651442411857"><ele>457.2</ele><time>2026-03-29T11:11:26Z</time></trkpt><trkpt lat="43.10875100322326" lon="12.22059787288585"><ele>456.4</ele><time>2026-03-29T11:11:27Z</time></trkpt><trkpt lat="43.10866267773572" lon="12.220524035886898"><ele>455.59999999999997</ele><time>2026-03-29T11:11:28Z</time></trkpt><trkpt lat="43.10859049064162" lon="12.220432553539686"><ele>454.79999999999995</ele><time>2026-03-29T11:11:29Z</time></trkpt><trkpt lat="43.108522595924434" lon="12.220318248613172"><ele>454.0</ele><time>2026-03-29T11:11:30Z</time></trkpt><trkpt lat="43.10847509433545" lon="12.220213831743715"><ele>454.00000000000006</ele><time>2026-03-29T11:11:31Z</time></trkpt><trkpt lat="43.108424350140126" lon="12.220103678330744"><ele>454.0</ele><time>2026-03-29T11:11:33Z</time></trkpt><trkpt lat="43.10836212366327" lon="12.220035550034218"><ele>454.0</ele><time>2026-03-29T11:11:37Z</time></trkpt><trkpt lat="43.10832658572964" lon="12.219952219587885"><ele>454.0</ele><time>2026-03-29T11:11:41Z</time></trkpt><trkpt lat="43.108276733031" lon="12.219889917868842"><ele>454.00000000000006</ele><time>2026-03-29T11:11:42Z</time></trkpt><trkpt lat="43.108212566989124" lon="12.219828930137185"><ele>454.0</ele><time>2026-03-29T11:11:43Z</time></trkpt><trkpt lat="43.108141180379974" lon="12.219770597704716"><ele>456.4</ele><time>2026-03-29T11:11:44Z</time></trkpt><trkpt lat="43.10807388239812" lon="12.219735181466516"><ele>458.79999999999995</ele><time>2026-03-29T11:11:45Z</time></trkpt><trkpt lat="43.108007287335234" lon="12.219687773150435"><ele>461.20000000000005</ele><time>2026-03-29T11:11:47Z</time></trkpt><trkpt lat="43.107921185141386" lon="12.21968711926199"><ele>463.6</ele><time>2026-03-29T11:12:06Z</time></trkpt><trkpt lat="43.107818349448124" lon="12.219658444148834"><ele>466.0</ele><time>2026-03-29T11:12:09Z</time></trkpt><trkpt lat="43.107687071574375" lon="12.219644347498754"><ele>466.00000000000006</ele><time>2026-03-29T11:12:11Z</time></trkpt><trkpt lat="43.10760713736738" lon="12.21966932525366"><ele>466.0</ele><time>2026-03-29T11:12:12Z</time></trkpt><trkpt lat="43.10752898557724" lon="12.219665835099761"><ele>466.0</ele><time>2026-03-29T11:12:13Z</time></trkpt><trkpt lat="43.10746948353347" lon="12.219629952508289"><ele>466.0</ele><time>2026-03-29T11:12:14Z</time></trkpt><trkpt lat="43.10739468256631" lon="12.219629762819519"><ele>466.00000000000006</ele><time>2026-03-29T11:12:16Z</time></trkpt><trkpt lat="43.10745172282861" lon="12.219710443189687"><ele>466.0</ele><time>2026-03-29T11:12:18Z</time></trkpt><trkpt lat="43.10757099493043" lon="12.219723235596915"><ele>466.00000000000006</ele><time>2026-03-29T11:12:20Z</time></trkpt><trkpt lat="43.10766137628817" lon="12.219809369943457"><ele>466.0</ele><time>2026-03-29T11:12:22Z</time></trkpt><trkpt lat="43.10775164421195" lon="12.219914378112554"><ele>466.0</ele><time>2026-03-29T11:12:24Z</time></trkpt><trkpt lat="43.10780815638159" lon="12.21997653457795"><ele>466.0</ele><time>2026-03-29T11:12:26Z</time></trkpt><trkpt lat="43.107838607303236" lon="12.22005997667894"><ele>466.00000000000006</ele><time>2026-03-29T11:12:27Z</time></trkpt><trkpt lat="43.107847023529786" lon="12.2201459429756"><ele>466.0</ele><time>2026-03-29T11:12:28Z</time></trkpt><trkpt lat="43.10786651203469" lon="12.220241633222265"><ele>462.50000000000006</ele><time>2026-03-29T11:12:29Z</time></trkpt><trkpt lat="43.10789874873927" lon="12.220396519691084"><ele>459.0</ele><time>2026-03-29T11:12:31Z</time></trkpt><trkpt lat="43.10792389670398" lon="12.22056637479577"><ele>455.5</ele><time>2026-03-29T11:12:33Z</time></trkpt><trkpt lat="43.10795751521776" lon="12.220643343356345"><ele>452.0</ele><time>2026-03-29T11:12:35Z</time></trkpt><trkpt lat="43.10801893727202" lon="12.22069918525765"><ele>448.50000000000006</ele><time>2026-03-29T11:12:38Z</time></trkpt><trkpt lat="43.108025833458676" lon="12.220787148477935"><ele>445.0</ele><time>2026-03-29T11:12:40Z</time></trkpt><trkpt lat="43.108044485683614" lon="12.2209067916527"><ele>440.8</ele><time>2026-03-29T11:12:43Z</time></trkpt><trkpt lat="43.1080440671181" lon="12.221016246418996"><ele>436.6</ele><time>2026-03-29T11:12:46Z</time></trkpt><trkpt lat="43.10801541430046" lon="12.221125335567288"><ele>432.4</ele><time>2026-03-29T11:12:48Z</time></trkpt><trkpt lat="43.10801345356785" lon="12.221296364040928"><ele>428.2</ele><time>2026-03-29T11:12:49Z</time></trkpt><trkpt lat="43.108028064904445" lon="12.221418531328428"><ele>424.0</ele><time>2026-03-29T11:12:50Z</time></trkpt><trkpt lat="43.10802642362925" lon="12.221538152246657"><ele>419.75</ele><time>2026-03-29T11:12:51Z</time></trkpt><trkpt lat="43.10804457564486" lon="12.221638237081624"><ele>415.5</ele><time>2026-03-29T11:12:52Z</time></trkpt><trkpt lat="43.10803576410661" lon="12.22173456866526"><ele>411.25</ele><time>2026-03-29T11:12:53Z</time></trkpt><trkpt lat="43.10804388516963" lon="12.221827608715333"><ele>407.0</ele><time>2026-03-29T11:12:56Z</time></trkpt><trkpt lat="43.10819162065302" lon="12.222204192165352"><ele>405.5</ele><time>2026-03-29T11:12:59Z</time></trkpt><trkpt lat="43.10819884569989" lon="12.222588939235957"><ele>404.0</ele><time>2026-03-29T11:13:01Z</time></trkpt><trkpt lat="43.10819824880422" lon="12.222703107228632"><ele>402.5</ele><time>2026-03-29T11:13:02Z</time></trkpt><trkpt lat="43.10819444616321" lon="12.222809254797589"><ele>401.0</ele><time>2026-03-29T11:13:03Z</time></trkpt><trkpt lat="43.10815356073641" lon="12.222887266879555"><ele>400.99999999999994</ele><time>2026-03-29T11:13:04Z</time></trkpt><trkpt lat="43.10815960840742" lon="12.223039989130276"><ele>401.0</ele><time>2026-03-29T11:13:06Z</time></trkpt><trkpt lat="43.10810319182045" lon="12.222989902635616"><ele>401.0</ele><time>2026-03-29T11:13:08Z</time></trkpt><trkpt lat="43.108040820197" lon="12.222921937721663"><ele>401.0</ele><time>2026-03-29T11:13:09Z</time></trkpt><trkpt lat="43.10798891786252" lon="12.222834444113793"><ele>400.99999999999994</ele><time>2026-03-29T11:13:10Z</time></trkpt><trkpt lat="43.107927064492664" lon="12.22279425987506"><ele>401.0</ele><time>2026-03-29T11:13:11Z</time></trkpt><trkpt lat="43.1078630783804" lon="12.2226719005291"><ele>401.0</ele><time>2026-03-29T11:13:13Z</time></trkpt><trkpt lat="43.107810407339066" lon="12.222597744143256"><ele>401.0</ele><time>2026-03-29T11:13:16Z</time></trkpt><trkpt lat="43.10783708261222" lon="12.222948399123538"><ele>401.0</ele><time>2026-03-29T11:13:21Z</time></trkpt><trkpt lat="43.107887602499666" lon="12.22305838794123"><ele>401.0</ele><time>2026-03-29T11:13:22Z</time></trkpt><trkpt lat="43.10794026868178" lon="12.223178807772332"><ele>399.0</ele><time>2026-03-29T11:13:23Z</time></trkpt><trkpt lat="43.10797020159208" lon="12.223347567615212"><ele>397.0</ele><time>2026-03-29T11:13:25Z</time></trkpt><trkpt lat="43.10793453800833" lon="12.223489714115322"><ele>395.0</ele><time>2026-03-29T11:13:26Z</time></trkpt><trkpt lat="43.10789604738144" lon="12.223630772113575"><ele>393.0</ele><time>2026-03-29T11:13:27Z</time></trkpt><trkpt lat="43.107904524416014" lon="12.223723650416664"><ele>391.0</ele><time>2026-03-29T11:13:28Z</time></trkpt><trkpt lat="43.10788916516819" lon="12.223835128450354"><ele>390.6</ele><time>2026-03-29T11:13:29Z</time></trkpt><trkpt lat="43.10782567654286" lon="12.224000252948127"><ele>390.20000000000005</ele><time>2026-03-29T11:13:31Z</time></trkpt><trkpt lat="43.1078584965482" lon="12.224128967440569"><ele>389.79999999999995</ele><time>2026-03-29T11:13:33Z</time></trkpt><trkpt lat="43.10788834710513" lon="12.224263255698258"><ele>389.4</ele><time>2026-03-29T11:13:34Z</time></trkpt><trkpt lat="43.107893142917995" lon="12.224393452913802"><ele>389.0</ele><time>2026-03-29T11:13:35Z</time></trkpt><trkpt lat="43.107952503324405" lon="12.224552211047298"><ele>388.99999999999994</ele><time>2026-03-29T11:13:36Z</time></trkpt><trkpt lat="43.1080105120977" lon="12.22468612750332"><ele>389.0</ele><time>2026-03-29T11:13:37Z</time></trkpt><trkpt lat="43.108049023200664" lon="12.224783240835343"><ele>389.0</ele><time>2026-03-29T11:13:38Z</time></trkpt><trkpt lat="43.10807735473422" lon="12.224883834006814"><ele>389.0</ele><time>2026-03-29T11:13:39Z</time></trkpt><trkpt lat="43.108102279535494" lon="12.22499242271675"><ele>388.99999999999994</ele><time>2026-03-29T11:13:40Z</time></trkpt><trkpt lat="43.10807518300991" lon="12.225090704172475"><ele>389.0</ele><time>2026-03-29T11:13:41Z</time></trkpt><trkpt lat="43.108021003582984" lon="12.225200181549637"><ele>389.66666666666663</ele><time>2026-03-29T11:13:42Z</time></trkpt><trkpt lat="43.107976791315025" lon="12.225274225020632"><ele>390.3333333333333</ele><time>2026-03-29T11:13:43Z</time></trkpt><trkpt lat="43.10791746002112" lon="12.225317813513858"><ele>391.0</ele><time>2026-03-29T11:13:44Z</time></trkpt><trkpt lat="43.10784171850514" lon="12.225411663681307"><ele>391.66666666666663</ele><time>2026-03-29T11:13:45Z</time></trkpt><trkpt lat="43.1077529864418" lon="12.22544643559046"><ele>392.3333333333333</ele><time>2026-03-29T11:13:46Z</time></trkpt><trkpt lat="43.107669657145756" lon="12.225493505231453"><ele>393.0</ele><time>2026-03-29T11:13:48Z</time></trkpt><trkpt lat="43.10773635711346" lon="12.225578120118715"><ele>392.8333333333333</ele><time>2026-03-29T11:13:50Z</time></trkpt><trkpt lat="43.10779454952782" lon="12.225656953958229"><ele>392.66666666666663</ele><time>2026-03-29T11:13:51Z</time></trkpt><trkpt lat="43.10784941560081" lon="12.225715169061065"><ele>392.5</ele><time>2026-03-29T11:13:52Z</time></trkpt><trkpt lat="43.107935120013316" lon="12.22576710523926"><ele>392.3333333333333</ele><time>2026-03-29T11:13:53Z</time></trkpt><trkpt lat="43.10803226265935" lon="12.225828389735304"><ele>392.16666666666663</ele><time>2026-03-29T11:13:54Z</time></trkpt><trkpt lat="43.108114749964145" lon="12.225860988614379"><ele>392.0</ele><time>2026-03-29T11:13:55Z</time></trkpt><trkpt lat="43.10818886379548" lon="12.225939903114748"><ele>391.20000000000005</ele><time>2026-03-29T11:13:56Z</time></trkpt><trkpt lat="43.10825395352327" lon="12.226029566497564"><ele>390.4</ele><time>2026-03-29T11:13:57Z</time></trkpt><trkpt lat="43.10827766157888" lon="12.226150293588011"><ele>389.6</ele><time>2026-03-29T11:13:58Z</time></trkpt><trkpt lat="43.1083094251815" lon="12.226266396716388"><ele>388.79999999999995</ele><time>2026-03-29T11:13:59Z</time></trkpt><trkpt lat="43.10834189360388" lon="12.226375898908776"><ele>388.0</ele><time>2026-03-29T11:14:00Z</time></trkpt><trkpt lat="43.10839616000463" lon="12.226528611005763"><ele>388.0</ele><time>2026-03-29T11:14:02Z</time></trkpt><trkpt lat="43.1084646115207" lon="12.226684675892862"><ele>388.0</ele><time>2026-03-29T11:14:04Z</time></trkpt><trkpt lat="43.10851104114706" lon="12.226809872305072"><ele>388.0</ele><time>2026-03-29T11:14:05Z</time></trkpt><trkpt lat="43.10855170978028" lon="12.226938285958525"><ele>388.0</ele><time>2026-03-29T11:14:06Z</time></trkpt><trkpt lat="43.10860206578098" lon="12.227005392143498"><ele>388.0</ele><time>2026-03-29T11:14:07Z</time></trkpt><trkpt lat="43.108666814872" lon="12.227102632604558"><ele>388.0</ele><time>2026-03-29T11:14:09Z</time></trkpt><trkpt lat="43.108733007660796" lon="12.227199152659539"><ele>388.0</ele><time>2026-03-29T11:14:11Z</time></trkpt><trkpt lat="43.10884343787848" lon="12.227304776122656"><ele>388.0</ele><time>2026-03-29T11:14:13Z</time></trkpt><trkpt lat="43.10891813512623" lon="12.227315326200417"><ele>388.0</ele><time>2026-03-29T11:14:14Z</time></trkpt><trkpt lat="43.108981720352695" lon="12.2274072321487"><ele>388.0</ele><time>2026-03-29T11:14:15Z</time></trkpt><trkpt lat="43.10903088214551" lon="12.22749115297775"><ele>388.0</ele><time>2026-03-29T11:14:16Z</time></trkpt><trkpt lat="43.10908211646606" lon="12.227576133763817"><ele>388.0</ele><time>2026-03-29T11:14:17Z</time></trkpt><trkpt lat="43.10914193873471" lon="12.227681434704783"><ele>388.0</ele><time>2026-03-29T11:14:18Z</time></trkpt><trkpt lat="43.10919494994585" lon="12.227803082768409"><ele>388.0</ele><time>2026-03-29T11:14:19Z</time></trkpt><trkpt lat="43.10923643055512" lon="12.227911465240098"><ele>388.0</ele><time>2026-03-29T11:14:20Z</time></trkpt><trkpt lat="43.10920394055873" lon="12.228035600389148"><ele>385.25</ele><time>2026-03-29T11:14:21Z</time></trkpt><trkpt lat="43.10909830020635" lon="12.228218108914158"><ele>382.5</ele><time>2026-03-29T11:14:22Z</time></trkpt><trkpt lat="43.10909632770135" lon="12.228322342845361"><ele>379.75</ele><time>2026-03-29T11:14:23Z</time></trkpt><trkpt lat="43.10912917691676" lon="12.22847344177241"><ele>377.0</ele><time>2026-03-29T11:14:24Z</time></trkpt><trkpt lat="43.10916681013773" lon="12.228631437395293"><ele>377.0</ele><time>2026-03-29T11:14:25Z</time></trkpt><trkpt lat="43.10917482288576" lon="12.228776878054681"><ele>377.0</ele><time>2026-03-29T11:14:26Z</time></trkpt><trkpt lat="43.109155314810245" lon="12.22895020687703"><ele>377.0</ele><time>2026-03-29T11:14:27Z</time></trkpt><trkpt lat="43.10913797299896" lon="12.229128555679948"><ele>377.0</ele><time>2026-03-29T11:14:28Z</time></trkpt><trkpt lat="43.10910969856211" lon="12.229269365341663"><ele>375.8</ele><time>2026-03-29T11:14:29Z</time></trkpt><trkpt lat="43.109059842859665" lon="12.229393414111547"><ele>374.6</ele><time>2026-03-29T11:14:30Z</time></trkpt><trkpt lat="43.109030993617345" lon="12.229500915728785"><ele>373.40000000000003</ele><time>2026-03-29T11:14:31Z</time></trkpt><trkpt lat="43.10899754845224" lon="12.2296050693344"><ele>372.20000000000005</ele><time>2026-03-29T11:14:32Z</time></trkpt><trkpt lat="43.10894595738606" lon="12.229750968078552"><ele>371.0</ele><time>2026-03-29T11:14:33Z</time></trkpt><trkpt lat="43.108916749993725" lon="12.229854263531339"><ele>369.6</ele><time>2026-03-29T11:14:34Z</time></trkpt><trkpt lat="43.108932748734524" lon="12.22994632370134"><ele>368.20000000000005</ele><time>2026-03-29T11:14:35Z</time></trkpt><trkpt lat="43.1089396639654" lon="12.230056043716774"><ele>366.79999999999995</ele><time>2026-03-29T11:14:36Z</time></trkpt><trkpt lat="43.108941615853084" lon="12.230182455730674"><ele>365.4</ele><time>2026-03-29T11:14:37Z</time></trkpt><trkpt lat="43.10893190204791" lon="12.230321885559396"><ele>364.0</ele><time>2026-03-29T11:14:38Z</time></trkpt><trkpt lat="43.10891700296309" lon="12.23046795376038"><ele>364.0</ele><time>2026-03-29T11:14:39Z</time></trkpt><trkpt lat="43.10887703365111" lon="12.230618699144733"><ele>364.0</ele><time>2026-03-29T11:14:40Z</time></trkpt><trkpt lat="43.10881680854276" lon="12.230751336195427"><ele>364.0</ele><time>2026-03-29T11:14:41Z</time></trkpt><trkpt lat="43.108762551276605" lon="12.230870655106274"><ele>364.0</ele><time>2026-03-29T11:14:42Z</time></trkpt><trkpt lat="43.108712214382464" lon="12.230986617446927"><ele>364.0</ele><time>2026-03-29T11:14:43Z</time></trkpt><trkpt lat="43.1086767454608" lon="12.231092185707944"><ele>364.16666666666663</ele><time>2026-03-29T11:14:44Z</time></trkpt><trkpt lat="43.10865284928731" lon="12.231188398092655"><ele>364.3333333333333</ele><time>2026-03-29T11:14:45Z</time></trkpt><trkpt lat="43.10863080505372" lon="12.231314562701446"><ele>364.5</ele><time>2026-03-29T11:14:46Z</time></trkpt><trkpt lat="43.10860723978098" lon="12.231430209131517"><ele>364.6666666666667</ele><time>2026-03-29T11:14:47Z</time></trkpt><trkpt lat="43.10857002690382" lon="12.231525369487416"><ele>364.83333333333337</ele><time>2026-03-29T11:14:48Z</time></trkpt><trkpt lat="43.10852507197589" lon="12.231635168798357"><ele>365.0</ele><time>2026-03-29T11:14:49Z</time></trkpt><trkpt lat="43.108505237467604" lon="12.231725353750019"><ele>364.2</ele><time>2026-03-29T11:14:50Z</time></trkpt><trkpt lat="43.10841193108823" lon="12.231839017746509"><ele>363.4</ele><time>2026-03-29T11:14:52Z</time></trkpt><trkpt lat="43.10832704480671" lon="12.231839467152888"><ele>362.6</ele><time>2026-03-29T11:14:53Z</time></trkpt><trkpt lat="43.10823773638187" lon="12.23187170290989"><ele>361.8</ele><time>2026-03-29T11:14:54Z</time></trkpt><trkpt lat="43.10815896110252" lon="12.231917493657154"><ele>361.0</ele><time>2026-03-29T11:14:55Z</time></trkpt><trkpt lat="43.10807763258945" lon="12.231957607465992"><ele>358.8333333333333</ele><time>2026-03-29T11:14:56Z</time></trkpt><trkpt lat="43.10800333983335" lon="12.232000697038165"><ele>356.66666666666663</ele><time>2026-03-29T11:14:57Z</time></trkpt><trkpt lat="43.107941665840386" lon="12.232036380564587"><ele>354.5</ele><time>2026-03-29T11:14:58Z</time></trkpt><trkpt lat="43.107888893499705" lon="12.232092627805578"><ele>352.3333333333333</ele><time>2026-03-29T11:14:59Z</time></trkpt><trkpt lat="43.10781179759558" lon="12.232138792894352"><ele>350.1666666666667</ele><time>2026-03-29T11:15:00Z</time></trkpt><trkpt lat="43.107712717545695" lon="12.232166878297635"><ele>348.0</ele><time>2026-03-29T11:15:01Z</time></trkpt><trkpt lat="43.10763289442891" lon="12.232189818999874"><ele>348.0</ele><time>2026-03-29T11:15:02Z</time></trkpt><trkpt lat="43.107579169672036" lon="12.232241772358995"><ele>348.0</ele><time>2026-03-29T11:15:03Z</time></trkpt><trkpt lat="43.107547592840554" lon="12.232324556556534"><ele>348.0</ele><time>2026-03-29T11:15:04Z</time></trkpt><trkpt lat="43.107482635455966" lon="12.232455616637512"><ele>348.0</ele><time>2026-03-29T11:15:06Z</time></trkpt><trkpt lat="43.107422785593116" lon="12.232618628711093"><ele>348.0</ele><time>2026-03-29T11:15:08Z</time></trkpt><trkpt lat="43.107396170770656" lon="12.232700825109998"><ele>348.0</ele><time>2026-03-29T11:15:09Z</time></trkpt><trkpt lat="43.107380238018905" lon="12.232817316852538"><ele>346.75</ele><time>2026-03-29T11:15:10Z</time></trkpt><trkpt lat="43.10735464750512" lon="12.23298311373954"><ele>345.5</ele><time>2026-03-29T11:15:11Z</time></trkpt><trkpt lat="43.10730238310013" lon="12.23315353937277"><ele>344.25</ele><time>2026-03-29T11:15:12Z</time></trkpt><trkpt lat="43.107273677770195" lon="12.233348342561284"><ele>343.0</ele><time>2026-03-29T11:15:13Z</time></trkpt><trkpt lat="43.107219815680246" lon="12.233506907428152"><ele>342.79999999999995</ele><time>2026-03-29T11:15:14Z</time></trkpt><trkpt lat="43.10714110786818" lon="12.233672304076974"><ele>342.6</ele><time>2026-03-29T11:15:15Z</time></trkpt><trkpt lat="43.10707120848687" lon="12.233723780362599"><ele>342.4</ele><time>2026-03-29T11:15:17Z</time></trkpt><trkpt lat="43.10710887951628" lon="12.233833990767064"><ele>342.20000000000005</ele><time>2026-03-29T11:15:19Z</time></trkpt><trkpt lat="43.10716652271777" lon="12.233792626609523"><ele>342.0</ele><time>2026-03-29T11:15:23Z</time></trkpt><trkpt lat="43.107156760967214" lon="12.233951036228046"><ele>323.0</ele><time>2026-03-29T11:15:26Z</time></trkpt><trkpt lat="43.10684070137282" lon="12.234594386242922"><ele>323.0</ele><time>2026-03-29T11:15:31Z</time></trkpt><trkpt lat="43.106831374356325" lon="12.234726978434987"><ele>323.0</ele><time>2026-03-29T11:15:32Z</time></trkpt><trkpt lat="43.10687771504777" lon="12.234652225986135"><ele>323.0</ele><time>2026-03-29T11:15:33Z</time></trkpt><trkpt lat="43.10680634266124" lon="12.234762299353621"><ele>323.0</ele><time>2026-03-29T11:15:36Z</time></trkpt><trkpt lat="43.106754491301395" lon="12.23458044718121"><ele>323.0</ele><time>2026-03-29T11:15:39Z</time></trkpt><trkpt lat="43.10664384317453" lon="12.234728838427992"><ele>317.75</ele><time>2026-03-29T11:15:42Z</time></trkpt><trkpt lat="43.10678851125432" lon="12.234852539819741"><ele>312.5</ele><time>2026-03-29T11:15:44Z</time></trkpt><trkpt lat="43.1068690367137" lon="12.234928185550348"><ele>307.25</ele><time>2026-03-29T11:15:45Z</time></trkpt><trkpt lat="43.106947130778515" lon="12.23503314859143"><ele>302.0</ele><time>2026-03-29T11:15:46Z</time></trkpt><trkpt lat="43.10701059311359" lon="12.235108373739537"><ele>302.0</ele><time>2026-03-29T11:15:47Z</time></trkpt><trkpt lat="43.10707360359432" lon="12.2351816847854"><ele>302.0</ele><time>2026-03-29T11:15:48Z</time></trkpt><trkpt lat="43.10721536397281" lon="12.235253061258096"><ele>302.0</ele><time>2026-03-29T11:15:49Z</time></trkpt><trkpt lat="43.107553613212055" lon="12.23534892764777"><ele>303.25</ele><time>2026-03-29T11:15:50Z</time></trkpt><trkpt lat="43.10764356972153" lon="12.235434442576421"><ele>304.5</ele><time>2026-03-29T11:15:52Z</time></trkpt><trkpt lat="43.1078017594387" lon="12.235257289367068"><ele>305.75</ele><time>2026-03-29T11:15:54Z</time></trkpt><trkpt lat="43.107855360854735" lon="12.235157871130925"><ele>307.0</ele><time>2026-03-29T11:15:55Z</time></trkpt><trkpt lat="43.1079020061828" lon="12.235065983306848"><ele>307.0</ele><time>2026-03-29T11:15:56Z</time></trkpt><trkpt lat="43.10792833475293" lon="12.234975518721718"><ele>307.0</ele><time>2026-03-29T11:15:57Z</time></trkpt><trkpt lat="43.10795738288327" lon="12.234843311164296"><ele>307.0</ele><time>2026-03-29T11:15:59Z</time></trkpt><trkpt lat="43.10799056817281" lon="12.234693940209652"><ele>307.0</ele><time>2026-03-29T11:16:01Z</time></trkpt><trkpt lat="43.10802084440849" lon="12.234544291688577"><ele>307.0</ele><time>2026-03-29T11:16:03Z</time></trkpt><trkpt lat="43.10801250069602" lon="12.234320293883592"><ele>307.5</ele><time>2026-03-29T11:16:04Z</time></trkpt><trkpt lat="43.10807721800285" lon="12.234229114055566"><ele>308.0</ele><time>2026-03-29T11:16:05Z</time></trkpt><trkpt lat="43.10815823268587" lon="12.23417094688323"><ele>308.5</ele><time>2026-03-29T11:16:06Z</time></trkpt><trkpt lat="43.10835665609641" lon="12.234171583499487"><ele>309.0</ele><time>2026-03-29T11:16:10Z</time></trkpt><trkpt lat="43.10843306765039" lon="12.234175213513765"><ele>309.0</ele><time>2026-03-29T11:16:11Z</time></trkpt><trkpt lat="43.10850916908918" lon="12.234172772407476"><ele>309.0</ele><time>2026-03-29T11:16:12Z</time></trkpt><trkpt lat="43.10858947511786" lon="12.234171561257886"><ele>309.0</ele><time>2026-03-29T11:16:13Z</time></trkpt><trkpt lat="43.10871998296647" lon="12.234137183016289"><ele>309.0</ele><time>2026-03-29T11:16:15Z</time></trkpt><trkpt lat="43.108857418548126" lon="12.234113365615297"><ele>309.0</ele><time>2026-03-29T11:16:18Z</time></trkpt><trkpt lat="43.10895280992712" lon="12.23410523278999"><ele>309.0</ele><time>2026-03-29T11:16:19Z</time></trkpt><trkpt lat="43.10907139601883" lon="12.234102585565624"><ele>309.0</ele><time>2026-03-29T11:16:21Z</time></trkpt><trkpt lat="43.109164358442996" lon="12.234109014402758"><ele>309.0</ele><time>2026-03-29T11:16:23Z</time></trkpt><trkpt lat="43.109482111067756" lon="12.234837934844718"><ele>305.6666666666667</ele><time>2026-03-29T11:16:25Z</time></trkpt><trkpt lat="43.109565729285436" lon="12.234841054267116"><ele>302.3333333333333</ele><time>2026-03-29T11:16:26Z</time></trkpt><trkpt lat="43.109647358428674" lon="12.234852221912835"><ele>299.0</ele><time>2026-03-29T11:16:27Z</time></trkpt><trkpt lat="43.109714709383944" lon="12.234865987844643"><ele>295.66666666666663</ele><time>2026-03-29T11:16:28Z</time></trkpt><trkpt lat="43.10983964542145" lon="12.234863029397832"><ele>292.3333333333333</ele><time>2026-03-29T11:16:30Z</time></trkpt><trkpt lat="43.109894158475164" lon="12.234805367379794"><ele>289.0</ele><time>2026-03-29T11:16:31Z</time></trkpt><trkpt lat="43.109975367831126" lon="12.234715349130372"><ele>288.2</ele><time>2026-03-29T11:16:32Z</time></trkpt><trkpt lat="43.11001782891738" lon="12.234633977260017"><ele>287.4</ele><time>2026-03-29T11:16:33Z</time></trkpt><trkpt lat="43.11010800182809" lon="12.234488948556221"><ele>286.6</ele><time>2026-03-29T11:16:35Z</time></trkpt><trkpt lat="43.11017809219752" lon="12.234395640208527"><ele>285.8</ele><time>2026-03-29T11:16:36Z</time></trkpt><trkpt lat="43.11027258259964" lon="12.234284367699304"><ele>285.0</ele><time>2026-03-29T11:16:37Z</time></trkpt><trkpt lat="43.11032851528043" lon="12.234188081874954"><ele>285.0</ele><time>2026-03-29T11:16:38Z</time></trkpt><trkpt lat="43.11036891008113" lon="12.234080834052184"><ele>285.0</ele><time>2026-03-29T11:16:39Z</time></trkpt><trkpt lat="43.11039707512926" lon="12.233978663027123"><ele>285.0</ele><time>2026-03-29T11:16:40Z</time></trkpt><trkpt lat="43.11047337211109" lon="12.233896591250167"><ele>285.0</ele><time>2026-03-29T11:16:42Z</time></trkpt><trkpt lat="43.11052250617619" lon="12.233973110376908"><ele>285.0</ele><time>2026-03-29T11:16:44Z</time></trkpt><trkpt lat="43.11053303094029" lon="12.234083474912174"><ele>285.0</ele><time>2026-03-29T11:16:47Z</time></trkpt><trkpt lat="43.11043376111928" lon="12.234174593869293"><ele>285.0</ele><time>2026-03-29T11:16:49Z</time></trkpt><trkpt lat="43.11046287476656" lon="12.234273666243672"><ele>285.0</ele><time>2026-03-29T11:16:50Z</time></trkpt><trkpt lat="43.110448326402576" lon="12.234409549915682"><ele>285.0</ele><time>2026-03-29T11:16:51Z</time></trkpt><trkpt lat="43.11047375125186" lon="12.234495056870909"><ele>285.0</ele><time>2026-03-29T11:16:52Z</time></trkpt><trkpt lat="43.11045947177946" lon="12.234588004377045"><ele>285.0</ele><time>2026-03-29T11:16:53Z</time></trkpt><trkpt lat="43.11044635280622" lon="12.234789119928239"><ele>281.75</ele><time>2026-03-29T11:16:54Z</time></trkpt><trkpt lat="43.110441846315794" lon="12.234979242098149"><ele>278.5</ele><time>2026-03-29T11:16:55Z</time></trkpt><trkpt lat="43.110459416375555" lon="12.235111587938443"><ele>275.25</ele><time>2026-03-29T11:16:56Z</time></trkpt><trkpt lat="43.11045059541701" lon="12.235254414261188"><ele>272.0</ele><time>2026-03-29T11:16:57Z</time></trkpt><trkpt lat="43.11042269060681" lon="12.235411561937"><ele>272.0</ele><time>2026-03-29T11:16:58Z</time></trkpt><trkpt lat="43.11041038850161" lon="12.235556665264788"><ele>272.0</ele><time>2026-03-29T11:16:59Z</time></trkpt><trkpt lat="43.11044326954806" lon="12.235747686978092"><ele>272.0</ele><time>2026-03-29T11:17:00Z</time></trkpt><trkpt lat="43.11051258841036" lon="12.23585555226257"><ele>272.0</ele><time>2026-03-29T11:17:01Z</time></trkpt><trkpt lat="43.110582275163765" lon="12.235930972436027"><ele>272.0</ele><time>2026-03-29T11:17:02Z</time></trkpt><trkpt lat="43.11065398541572" lon="12.236008139856933"><ele>271.0</ele><time>2026-03-29T11:17:03Z</time></trkpt><trkpt lat="43.110732966730716" lon="12.236072575863247"><ele>270.0</ele><time>2026-03-29T11:17:04Z</time></trkpt><trkpt lat="43.11081505110248" lon="12.236110441239392"><ele>269.0</ele><time>2026-03-29T11:17:05Z</time></trkpt><trkpt lat="43.110890476488045" lon="12.23618062480234"><ele>268.0</ele><time>2026-03-29T11:17:06Z</time></trkpt><trkpt lat="43.11095420424273" lon="12.23621714865599"><ele>267.0</ele><time>2026-03-29T11:17:07Z</time></trkpt><trkpt lat="43.111013371135314" lon="12.23640041618202"><ele>263.5</ele><time>2026-03-29T11:17:09Z</time></trkpt><trkpt lat="43.11100850459234" lon="12.236516794307343"><ele>260.0</ele><time>2026-03-29T11:17:10Z</time></trkpt><trkpt lat="43.11100670143728" lon="12.236625535648834"><ele>256.5</ele><time>2026-03-29T11:17:11Z</time></trkpt><trkpt lat="43.11098479461018" lon="12.23673142091498"><ele>253.0</ele><time>2026-03-29T11:17:12Z</time></trkpt><trkpt lat="43.1109530137285" lon="12.236823285891978"><ele>249.5</ele><time>2026-03-29T11:17:13Z</time></trkpt><trkpt lat="43.11088634136243" lon="12.236928188601528"><ele>246.0</ele><time>2026-03-29T11:17:14Z</time></trkpt><trkpt lat="43.1108573373073" lon="12.23709913569855"><ele>246.0</ele><time>2026-03-29T11:17:16Z</time></trkpt><trkpt lat="43.110866498948255" lon="12.237233832171759"><ele>246.0</ele><time>2026-03-29T11:17:17Z</time></trkpt><trkpt lat="43.11094088208193" lon="12.237391519029815"><ele>246.0</ele><time>2026-03-29T11:17:18Z</time></trkpt><trkpt lat="43.1110093764703" lon="12.237604950206995"><ele>246.0</ele><time>2026-03-29T11:17:19Z</time></trkpt><trkpt lat="43.11106940750285" lon="12.237829969450413"><ele>246.0</ele><time>2026-03-29T11:17:20Z</time></trkpt><trkpt lat="43.11111520579139" lon="12.238006266056697"><ele>246.00000000000003</ele><time>2026-03-29T11:17:21Z</time></trkpt><trkpt lat="43.111151520050505" lon="12.238153933396337"><ele>246.00000000000003</ele><time>2026-03-29T11:17:22Z</time></trkpt><trkpt lat="43.11116653703408" lon="12.238239555220115"><ele>246.0</ele><time>2026-03-29T11:17:23Z</time></trkpt><trkpt lat="43.11110212437376" lon="12.238360124191262"><ele>246.0</ele><time>2026-03-29T11:17:27Z</time></trkpt><trkpt lat="43.1109539806583" lon="12.238516869180241"><ele>246.16666666666666</ele><time>2026-03-29T11:17:34Z</time></trkpt><trkpt lat="43.11092039731179" lon="12.238607732586532"><ele>246.33333333333331</ele><time>2026-03-29T11:17:35Z</time></trkpt><trkpt lat="43.110885009297746" lon="12.238720591499952"><ele>246.5</ele><time>2026-03-29T11:17:36Z</time></trkpt><trkpt lat="43.1108596355558" lon="12.23882803283035"><ele>246.66666666666666</ele><time>2026-03-29T11:17:37Z</time></trkpt><trkpt lat="43.11084394375329" lon="12.23891886638349"><ele>246.83333333333331</ele><time>2026-03-29T11:17:38Z</time></trkpt><trkpt lat="43.11083778748383" lon="12.239024083874881"><ele>247.0</ele><time>2026-03-29T11:17:39Z</time></trkpt><trkpt lat="43.11085149721712" lon="12.239163176732205"><ele>246.5</ele><time>2026-03-29T11:17:40Z</time></trkpt><trkpt lat="43.11088609810417" lon="12.239337700414147"><ele>246.0</ele><time>2026-03-29T11:17:41Z</time></trkpt><trkpt lat="43.11091840951922" lon="12.23951093929796"><ele>245.5</ele><time>2026-03-29T11:17:42Z</time></trkpt><trkpt lat="43.11092658863025" lon="12.239681249441691"><ele>245.0</ele><time>2026-03-29T11:17:43Z</time></trkpt><trkpt lat="43.11090321516714" lon="12.239862702860993"><ele>244.25</ele><time>2026-03-29T11:17:44Z</time></trkpt><trkpt lat="43.110879534893876" lon="12.240030087422076"><ele>243.5</ele><time>2026-03-29T11:17:45Z</time></trkpt><trkpt lat="43.11087247554953" lon="12.240205715893394"><ele>242.75</ele><time>2026-03-29T11:17:46Z</time></trkpt><trkpt lat="43.11088972788138" lon="12.240375478902715"><ele>242.0</ele><time>2026-03-29T11:17:47Z</time></trkpt><trkpt lat="43.11094206058556" lon="12.240575875899587"><ele>241.0</ele><time>2026-03-29T11:17:48Z</time></trkpt><trkpt lat="43.11098823247133" lon="12.24073056312876"><ele>240.0</ele><time>2026-03-29T11:17:49Z</time></trkpt><trkpt lat="43.11101533500129" lon="12.240913004865"><ele>239.0</ele><time>2026-03-29T11:17:50Z</time></trkpt><trkpt lat="43.111031419300595" lon="12.241093788041924"><ele>238.0</ele><time>2026-03-29T11:17:51Z</time></trkpt><trkpt lat="43.11105686780973" lon="12.241286303798084"><ele>237.5</ele><time>2026-03-29T11:17:52Z</time></trkpt><trkpt lat="43.11107733367743" lon="12.241470630030202"><ele>237.0</ele><time>2026-03-29T11:17:53Z</time></trkpt><trkpt lat="43.111092818467526" lon="12.241637525391587"><ele>236.5</ele><time>2026-03-29T11:17:54Z</time></trkpt><trkpt lat="43.111099167383195" lon="12.24179817773966"><ele>236.0</ele><time>2026-03-29T11:17:55Z</time></trkpt><trkpt lat="43.11110734995848" lon="12.24193804743519"><ele>236.0</ele><time>2026-03-29T11:17:56Z</time></trkpt><trkpt lat="43.111111092943865" lon="12.242041204538923"><ele>236.00000000000003</ele><time>2026-03-29T11:17:57Z</time></trkpt><trkpt lat="43.11112030734349" lon="12.242146668815561"><ele>236.00000000000003</ele><time>2026-03-29T11:17:59Z</time></trkpt><trkpt lat="43.11117973231172" lon="12.242210361823629"><ele>236.0</ele><time>2026-03-29T11:18:01Z</time></trkpt><trkpt lat="43.11131001610931" lon="12.242176277918924"><ele>236.0</ele><time>2026-03-29T11:18:03Z</time></trkpt><trkpt lat="43.11141634147078" lon="12.242075706157852"><ele>236.0</ele><time>2026-03-29T11:18:04Z</time></trkpt><trkpt lat="43.11155640404428" lon="12.241971547340155"><ele>236.0</ele><time>2026-03-29T11:18:05Z</time></trkpt><trkpt lat="43.11171278963795" lon="12.241854393462349"><ele>236.0</ele><time>2026-03-29T11:18:06Z</time></trkpt><trkpt lat="43.111849090527016" lon="12.241745995811943"><ele>233.0</ele><time>2026-03-29T11:18:07Z</time></trkpt><trkpt lat="43.112014349780004" lon="12.24165886931505"><ele>230.0</ele><time>2026-03-29T11:18:08Z</time></trkpt><trkpt lat="43.11213676473853" lon="12.241577727651498"><ele>227.0</ele><time>2026-03-29T11:18:09Z</time></trkpt><trkpt lat="43.11226780429252" lon="12.241484009282509"><ele>228.33333333333334</ele><time>2026-03-29T11:18:10Z</time></trkpt><trkpt lat="43.11242453215772" lon="12.241367510244897"><ele>229.66666666666669</ele><time>2026-03-29T11:18:11Z</time></trkpt><trkpt lat="43.112599211138196" lon="12.241245321806074"><ele>231.0</ele><time>2026-03-29T11:18:12Z</time></trkpt><trkpt lat="43.11276536456741" lon="12.241172529691056"><ele>231.0</ele><time>2026-03-29T11:18:13Z</time></trkpt><trkpt lat="43.11290487218654" lon="12.241074252523827"><ele>231.0</ele><time>2026-03-29T11:18:14Z</time></trkpt><trkpt lat="43.11303793091096" lon="12.240980518294657"><ele>231.0</ele><time>2026-03-29T11:18:15Z</time></trkpt><trkpt lat="43.11316534349841" lon="12.240888880407047"><ele>230.5</ele><time>2026-03-29T11:18:16Z</time></trkpt><trkpt lat="43.1132832340285" lon="12.24080264020547"><ele>230.0</ele><time>2026-03-29T11:18:17Z</time></trkpt><trkpt lat="43.11339687705205" lon="12.240718373032754"><ele>229.5</ele><time>2026-03-29T11:18:18Z</time></trkpt><trkpt lat="43.11350503672748" lon="12.240636351283056"><ele>229.0</ele><time>2026-03-29T11:18:19Z</time></trkpt><trkpt lat="43.11361327778455" lon="12.240551261217593"><ele>228.75</ele><time>2026-03-29T11:18:20Z</time></trkpt><trkpt lat="43.113718392682436" lon="12.240444259256455"><ele>228.5</ele><time>2026-03-29T11:18:21Z</time></trkpt><trkpt lat="43.113842293160246" lon="12.24034427880777"><ele>228.25</ele><time>2026-03-29T11:18:22Z</time></trkpt><trkpt lat="43.11395209951912" lon="12.240251737701916"><ele>228.0</ele><time>2026-03-29T11:18:23Z</time></trkpt><trkpt lat="43.11406070421206" lon="12.240188880966064"><ele>228.5</ele><time>2026-03-29T11:18:24Z</time></trkpt><trkpt lat="43.114156078098056" lon="12.240085085625601"><ele>229.0</ele><time>2026-03-29T11:18:25Z</time></trkpt><trkpt lat="43.114262282122404" lon="12.24002536570633"><ele>229.5</ele><time>2026-03-29T11:18:26Z</time></trkpt><trkpt lat="43.114373053016585" lon="12.239935692137898"><ele>230.0</ele><time>2026-03-29T11:18:27Z</time></trkpt><trkpt lat="43.11449388378463" lon="12.239815745008187"><ele>232.25</ele><time>2026-03-29T11:18:28Z</time></trkpt><trkpt lat="43.11463849490519" lon="12.239731278512844"><ele>234.5</ele><time>2026-03-29T11:18:29Z</time></trkpt><trkpt lat="43.114753793619066" lon="12.239631609318591"><ele>236.75</ele><time>2026-03-29T11:18:30Z</time></trkpt><trkpt lat="43.11488456843763" lon="12.239567266393259"><ele>239.0</ele><time>2026-03-29T11:18:31Z</time></trkpt><trkpt lat="43.115014868438905" lon="12.239578869792314"><ele>240.66666666666669</ele><time>2026-03-29T11:18:32Z</time></trkpt><trkpt lat="43.11515118029362" lon="12.239591273171834"><ele>242.33333333333331</ele><time>2026-03-29T11:18:33Z</time></trkpt><trkpt lat="43.11542251656292" lon="12.239643497568494"><ele>244.0</ele><time>2026-03-29T11:18:35Z</time></trkpt><trkpt lat="43.11554031279697" lon="12.23966876722975"><ele>243.99999999999997</ele><time>2026-03-29T11:18:36Z</time></trkpt><trkpt lat="43.11563187353696" lon="12.239672979126075"><ele>244.0</ele><time>2026-03-29T11:18:37Z</time></trkpt><trkpt lat="43.115718775058426" lon="12.239693912391752"><ele>244.0</ele><time>2026-03-29T11:18:38Z</time></trkpt><trkpt lat="43.11579700458586" lon="12.239723829621838"><ele>244.0</ele><time>2026-03-29T11:18:39Z</time></trkpt><trkpt lat="43.1158769949954" lon="12.239758872651773"><ele>243.99999999999997</ele><time>2026-03-29T11:18:40Z</time></trkpt><trkpt lat="43.11596322330255" lon="12.23979282000708"><ele>244.0</ele><time>2026-03-29T11:18:41Z</time></trkpt><trkpt lat="43.116063007218806" lon="12.239844188451572"><ele>241.79999999999998</ele><time>2026-03-29T11:18:42Z</time></trkpt><trkpt lat="43.11615984851489" lon="12.239914631374809"><ele>239.59999999999997</ele><time>2026-03-29T11:18:43Z</time></trkpt><trkpt lat="43.116237404564025" lon="12.239976187292203"><ele>237.4</ele><time>2026-03-29T11:18:44Z</time></trkpt><trkpt lat="43.116319677066" lon="12.240039457718138"><ele>235.2</ele><time>2026-03-29T11:18:45Z</time></trkpt><trkpt lat="43.11639468509757" lon="12.240096253007911"><ele>233.0</ele><time>2026-03-29T11:18:46Z</time></trkpt><trkpt lat="43.116457501637285" lon="12.240155446633311"><ele>233.00000000000003</ele><time>2026-03-29T11:18:47Z</time></trkpt><trkpt lat="43.116503356966625" lon="12.240216868105529"><ele>233.0</ele><time>2026-03-29T11:18:48Z</time></trkpt><trkpt lat="43.11654169551467" lon="12.240323653297743"><ele>233.0</ele><time>2026-03-29T11:18:50Z</time></trkpt><trkpt lat="43.116579000144654" lon="12.240406630770211"><ele>233.0</ele><time>2026-03-29T11:18:52Z</time></trkpt><trkpt lat="43.11661295172904" lon="12.240518867542578"><ele>233.00000000000003</ele><time>2026-03-29T11:18:54Z</time></trkpt><trkpt lat="43.11665126461063" lon="12.24060840937942"><ele>233.0</ele><time>2026-03-29T11:18:56Z</time></trkpt><trkpt lat="43.116790051447396" lon="12.240652604887186"><ele>232.0</ele><time>2026-03-29T11:18:58Z</time></trkpt><trkpt lat="43.11684882634976" lon="12.240819153203853"><ele>231.0</ele><time>2026-03-29T11:19:00Z</time></trkpt><trkpt lat="43.116886385466344" lon="12.240928043661642"><ele>230.0</ele><time>2026-03-29T11:19:01Z</time></trkpt><trkpt lat="43.116929653384425" lon="12.241038651766258"><ele>229.0</ele><time>2026-03-29T11:19:02Z</time></trkpt><trkpt lat="43.11696672266341" lon="12.241150019465936"><ele>228.0</ele><time>2026-03-29T11:19:03Z</time></trkpt><trkpt lat="43.116983382377555" lon="12.24124555379985"><ele>228.0</ele><time>2026-03-29T11:19:04Z</time></trkpt><trkpt lat="43.11698268633807" lon="12.241338200325705"><ele>228.0</ele><time>2026-03-29T11:19:05Z</time></trkpt><trkpt lat="43.116956631850954" lon="12.241502018423173"><ele>228.0</ele><time>2026-03-29T11:19:07Z</time></trkpt><trkpt lat="43.116947821941025" lon="12.241605765536129"><ele>228.0</ele><time>2026-03-29T11:19:08Z</time></trkpt><trkpt lat="43.11691225834008" lon="12.241709134840484"><ele>228.0</ele><time>2026-03-29T11:19:09Z</time></trkpt><trkpt lat="43.116893962323246" lon="12.241856573200048"><ele>228.0</ele><time>2026-03-29T11:19:10Z</time></trkpt><trkpt lat="43.11690269449166" lon="12.242003560653949"><ele>228.0</ele><time>2026-03-29T11:19:11Z</time></trkpt><trkpt lat="43.11693528510888" lon="12.242136498553274"><ele>228.0</ele><time>2026-03-29T11:19:12Z</time></trkpt><trkpt lat="43.11698660951658" lon="12.242266834339741"><ele>228.0</ele><time>2026-03-29T11:19:13Z</time></trkpt><trkpt lat="43.11703253775653" lon="12.242402107605844"><ele>228.0</ele><time>2026-03-29T11:19:14Z</time></trkpt><trkpt lat="43.11707121942608" lon="12.242549268603304"><ele>228.2</ele><time>2026-03-29T11:19:15Z</time></trkpt><trkpt lat="43.11709660287071" lon="12.24268107601802"><ele>228.4</ele><time>2026-03-29T11:19:16Z</time></trkpt><trkpt lat="43.11712065249052" lon="12.24278862961602"><ele>228.59999999999997</ele><time>2026-03-29T11:19:17Z</time></trkpt><trkpt lat="43.11716659408647" lon="12.242854859352455"><ele>228.79999999999998</ele><time>2026-03-29T11:19:18Z</time></trkpt><trkpt lat="43.11727090188422" lon="12.242930813095139"><ele>229.0</ele><time>2026-03-29T11:19:20Z</time></trkpt><trkpt lat="43.11739955977355" lon="12.242969236781173"><ele>229.33333333333331</ele><time>2026-03-29T11:19:22Z</time></trkpt><trkpt lat="43.117477783011154" lon="12.24302725571734"><ele>229.66666666666666</ele><time>2026-03-29T11:19:23Z</time></trkpt><trkpt lat="43.11754594934544" lon="12.243032806271309"><ele>230.0</ele><time>2026-03-29T11:19:24Z</time></trkpt><trkpt lat="43.11761963799047" lon="12.243065265282869"><ele>230.33333333333331</ele><time>2026-03-29T11:19:25Z</time></trkpt><trkpt lat="43.11767229913654" lon="12.243117932346449"><ele>230.66666666666666</ele><time>2026-03-29T11:19:26Z</time></trkpt><trkpt lat="43.117719949930965" lon="12.243239053686862"><ele>231.0</ele><time>2026-03-29T11:19:27Z</time></trkpt><trkpt lat="43.11778611771385" lon="12.243353765056737"><ele>231.20000000000002</ele><time>2026-03-29T11:19:28Z</time></trkpt><trkpt lat="43.11785089626394" lon="12.243471570733394"><ele>231.40000000000003</ele><time>2026-03-29T11:19:29Z</time></trkpt><trkpt lat="43.11787909536222" lon="12.243576409597932"><ele>231.6</ele><time>2026-03-29T11:19:30Z</time></trkpt><trkpt lat="43.11787025034893" lon="12.243708525896633"><ele>231.8</ele><time>2026-03-29T11:19:31Z</time></trkpt><trkpt lat="43.117856806830744" lon="12.243852584957173"><ele>232.0</ele><time>2026-03-29T11:19:32Z</time></trkpt><trkpt lat="43.11789210859122" lon="12.243979663549455"><ele>231.66666666666666</ele><time>2026-03-29T11:19:33Z</time></trkpt><trkpt lat="43.117926443638844" lon="12.244088460334654"><ele>231.33333333333331</ele><time>2026-03-29T11:19:34Z</time></trkpt><trkpt lat="43.117928745200466" lon="12.24417481294448"><ele>231.0</ele><time>2026-03-29T11:19:35Z</time></trkpt><trkpt lat="43.11793949100772" lon="12.244261407302453"><ele>230.66666666666669</ele><time>2026-03-29T11:19:36Z</time></trkpt><trkpt lat="43.117962913185785" lon="12.244344215533513"><ele>230.33333333333334</ele><time>2026-03-29T11:19:37Z</time></trkpt><trkpt lat="43.11797317250583" lon="12.244431212592804"><ele>230.0</ele><time>2026-03-29T11:19:38Z</time></trkpt><trkpt lat="43.11800463028953" lon="12.244588812849184"><ele>230.00000000000003</ele><time>2026-03-29T11:19:40Z</time></trkpt><trkpt lat="43.11802660544036" lon="12.24469788510661"><ele>230.0</ele><time>2026-03-29T11:19:41Z</time></trkpt><trkpt lat="43.118049782165635" lon="12.244800280348512"><ele>230.0</ele><time>2026-03-29T11:19:42Z</time></trkpt><trkpt lat="43.118071546230006" lon="12.244890407279312"><ele>230.0</ele><time>2026-03-29T11:19:43Z</time></trkpt><trkpt lat="43.11810755915981" lon="12.245025622862594"><ele>230.00000000000003</ele><time>2026-03-29T11:19:45Z</time></trkpt><trkpt lat="43.118115086820154" lon="12.245143023656084"><ele>230.0</ele><time>2026-03-29T11:19:47Z</time></trkpt><trkpt lat="43.11814288967683" lon="12.245241936829107"><ele>229.75</ele><time>2026-03-29T11:19:49Z</time></trkpt><trkpt lat="43.118158230681246" lon="12.245351407877603"><ele>229.5</ele><time>2026-03-29T11:19:52Z</time></trkpt><trkpt lat="43.118212902760895" lon="12.245534929023721"><ele>229.25</ele><time>2026-03-29T11:19:54Z</time></trkpt><trkpt lat="43.118233158122216" lon="12.24569778993204"><ele>229.0</ele><time>2026-03-29T11:19:55Z</time></trkpt><trkpt lat="43.11826503740557" lon="12.245853644262443"><ele>229.25</ele><time>2026-03-29T11:19:56Z</time></trkpt><trkpt lat="43.11829880054161" lon="12.246018071833038"><ele>229.5</ele><time>2026-03-29T11:19:57Z</time></trkpt><trkpt lat="43.11832168762793" lon="12.246192230276874"><ele>229.75</ele><time>2026-03-29T11:19:58Z</time></trkpt><trkpt lat="43.11833555541887" lon="12.246331538670788"><ele>230.0</ele><time>2026-03-29T11:19:59Z</time></trkpt><trkpt lat="43.118364367929864" lon="12.246467376294682"><ele>230.0</ele><time>2026-03-29T11:20:00Z</time></trkpt><trkpt lat="43.11839309631984" lon="12.246601063185865"><ele>230.0</ele><time>2026-03-29T11:20:01Z</time></trkpt><trkpt lat="43.11841520030871" lon="12.24674892103749"><ele>230.0</ele><time>2026-03-29T11:20:02Z</time></trkpt><trkpt lat="43.11844172334301" lon="12.24688871538702"><ele>230.0</ele><time>2026-03-29T11:20:03Z</time></trkpt><trkpt lat="43.11847085464789" lon="12.247034704995025"><ele>230.0</ele><time>2026-03-29T11:20:04Z</time></trkpt><trkpt lat="43.11848880414715" lon="12.247188149444066"><ele>230.6</ele><time>2026-03-29T11:20:05Z</time></trkpt><trkpt lat="43.118506537246304" lon="12.247326385301841"><ele>231.2</ele><time>2026-03-29T11:20:06Z</time></trkpt><trkpt lat="43.118493594792454" lon="12.247459854514055"><ele>231.8</ele><time>2026-03-29T11:20:07Z</time></trkpt><trkpt lat="43.11847061148492" lon="12.24760362486776"><ele>232.4</ele><time>2026-03-29T11:20:08Z</time></trkpt><trkpt lat="43.1184585598529" lon="12.247760154871063"><ele>233.0</ele><time>2026-03-29T11:20:09Z</time></trkpt><trkpt lat="43.11844767538871" lon="12.24791060564481"><ele>233.0</ele><time>2026-03-29T11:20:10Z</time></trkpt><trkpt lat="43.1184286574142" lon="12.24803834272741"><ele>233.0</ele><time>2026-03-29T11:20:11Z</time></trkpt><trkpt lat="43.11840161366811" lon="12.248178923505893"><ele>233.0</ele><time>2026-03-29T11:20:12Z</time></trkpt><trkpt lat="43.11838614444351" lon="12.24831096144712"><ele>233.0</ele><time>2026-03-29T11:20:13Z</time></trkpt><trkpt lat="43.11836949441711" lon="12.248445847039086"><ele>233.0</ele><time>2026-03-29T11:20:14Z</time></trkpt><trkpt lat="43.118350304439666" lon="12.248560323222009"><ele>233.4</ele><time>2026-03-29T11:20:15Z</time></trkpt><trkpt lat="43.11839677000529" lon="12.248684920418107"><ele>233.8</ele><time>2026-03-29T11:20:17Z</time></trkpt><trkpt lat="43.118460233277666" lon="12.248718273157365"><ele>234.2</ele><time>2026-03-29T11:20:18Z</time></trkpt><trkpt lat="43.118545536843" lon="12.248734192418388"><ele>234.6</ele><time>2026-03-29T11:20:19Z</time></trkpt><trkpt lat="43.118659945383094" lon="12.248767432261861"><ele>235.0</ele><time>2026-03-29T11:20:20Z</time></trkpt><trkpt lat="43.1187693605113" lon="12.248778168040522"><ele>235.0</ele><time>2026-03-29T11:20:21Z</time></trkpt><trkpt lat="43.11888932054993" lon="12.248800370926972"><ele>235.0</ele><time>2026-03-29T11:20:22Z</time></trkpt><trkpt lat="43.11903061479719" lon="12.248826643289831"><ele>235.0</ele><time>2026-03-29T11:20:23Z</time></trkpt><trkpt lat="43.119109124775655" lon="12.248848121914058"><ele>235.0</ele><time>2026-03-29T11:20:24Z</time></trkpt><trkpt lat="43.119192648967896" lon="12.2488838072429"><ele>235.0</ele><time>2026-03-29T11:20:25Z</time></trkpt><trkpt lat="43.119249265586966" lon="12.248936634326219"><ele>235.49999999999997</ele><time>2026-03-29T11:20:26Z</time></trkpt><trkpt lat="43.11931051776886" lon="12.248981348151394"><ele>236.0</ele><time>2026-03-29T11:20:27Z</time></trkpt><trkpt lat="43.11934629717359" lon="12.249081154690952"><ele>236.5</ele><time>2026-03-29T11:20:29Z</time></trkpt><trkpt lat="43.11933530053555" lon="12.24922468929044"><ele>237.0</ele><time>2026-03-29T11:20:31Z</time></trkpt><trkpt lat="43.11931550770697" lon="12.24932331385176"><ele>237.49999999999997</ele><time>2026-03-29T11:20:32Z</time></trkpt><trkpt lat="43.11932655657941" lon="12.249449569167757"><ele>238.0</ele><time>2026-03-29T11:20:33Z</time></trkpt><trkpt lat="43.11934067772917" lon="12.249584529837456"><ele>238.0</ele><time>2026-03-29T11:20:34Z</time></trkpt><trkpt lat="43.11935237412127" lon="12.249740095841824"><ele>238.0</ele><time>2026-03-29T11:20:35Z</time></trkpt><trkpt lat="43.11933665542048" lon="12.249912788963712"><ele>238.0</ele><time>2026-03-29T11:20:36Z</time></trkpt><trkpt lat="43.119339117299" lon="12.250074634516942"><ele>238.0</ele><time>2026-03-29T11:20:37Z</time></trkpt><trkpt lat="43.11934605968062" lon="12.250236185562857"><ele>240.0</ele><time>2026-03-29T11:20:38Z</time></trkpt><trkpt lat="43.119343150847115" lon="12.250414306901162"><ele>242.0</ele><time>2026-03-29T11:20:39Z</time></trkpt><trkpt lat="43.11933986867844" lon="12.250585227217188"><ele>244.0</ele><time>2026-03-29T11:20:40Z</time></trkpt><trkpt lat="43.11933697122495" lon="12.250753033426463"><ele>246.0</ele><time>2026-03-29T11:20:41Z</time></trkpt><trkpt lat="43.1193422786509" lon="12.250879195763984"><ele>247.4</ele><time>2026-03-29T11:20:42Z</time></trkpt><trkpt lat="43.11929367100488" lon="12.250954720083499"><ele>248.8</ele><time>2026-03-29T11:20:43Z</time></trkpt><trkpt lat="43.119248869634745" lon="12.251114154195486"><ele>250.20000000000002</ele><time>2026-03-29T11:20:45Z</time></trkpt><trkpt lat="43.119215877728436" lon="12.251280237950908"><ele>251.60000000000002</ele><time>2026-03-29T11:20:47Z</time></trkpt><trkpt lat="43.11931095857267" lon="12.251388390670778"><ele>253.0</ele><time>2026-03-29T11:20:48Z</time></trkpt><trkpt lat="43.11928898375166" lon="12.251501975004224"><ele>254.60000000000002</ele><time>2026-03-29T11:20:50Z</time></trkpt><trkpt lat="43.11927263188293" lon="12.251607446107881"><ele>256.20000000000005</ele><time>2026-03-29T11:20:52Z</time></trkpt><trkpt lat="43.11923550449159" lon="12.251752330669111"><ele>257.8</ele><time>2026-03-29T11:20:54Z</time></trkpt><trkpt lat="43.11922148489392" lon="12.25191327723024"><ele>259.40000000000003</ele><time>2026-03-29T11:20:56Z</time></trkpt><trkpt lat="43.11918221401529" lon="12.252062331027924"><ele>261.0</ele><time>2026-03-29T11:20:58Z</time></trkpt><trkpt lat="43.11912729292409" lon="12.252213420849229"><ele>261.6</ele><time>2026-03-29T11:21:00Z</time></trkpt><trkpt lat="43.119089390252014" lon="12.252359322296057"><ele>262.20000000000005</ele><time>2026-03-29T11:21:02Z</time></trkpt><trkpt lat="43.11902890921676" lon="12.252484438147302"><ele>262.79999999999995</ele><time>2026-03-29T11:21:04Z</time></trkpt><trkpt lat="43.118973840969396" lon="12.252629392663295"><ele>263.4</ele><time>2026-03-29T11:21:06Z</time></trkpt><trkpt lat="43.11895198280807" lon="12.252754383009409"><ele>264.0</ele><time>2026-03-29T11:21:08Z</time></trkpt><trkpt lat="43.118985484675854" lon="12.252829859621599"><ele>264.0</ele><time>2026-03-29T11:21:09Z</time></trkpt><trkpt lat="43.11903419976455" lon="12.252902721417842"><ele>264.0</ele><time>2026-03-29T11:21:10Z</time></trkpt><trkpt lat="43.1190788254245" lon="12.25297497740076"><ele>264.0</ele><time>2026-03-29T11:21:11Z</time></trkpt><trkpt lat="43.119120109268735" lon="12.253059693783573"><ele>264.0</ele><time>2026-03-29T11:21:12Z</time></trkpt><trkpt lat="43.11913946698992" lon="12.253211530805485"><ele>264.0</ele><time>2026-03-29T11:21:14Z</time></trkpt><trkpt lat="43.11914744513915" lon="12.253307519926041"><ele>264.0</ele><time>2026-03-29T11:21:15Z</time></trkpt><trkpt lat="43.1191523825192" lon="12.253407817277195"><ele>266.85714285714283</ele><time>2026-03-29T11:21:16Z</time></trkpt><trkpt lat="43.11915741448263" lon="12.253501713296291"><ele>269.7142857142857</ele><time>2026-03-29T11:21:17Z</time></trkpt><trkpt lat="43.1191640368447" lon="12.253596805238747"><ele>272.57142857142856</ele><time>2026-03-29T11:21:18Z</time></trkpt><trkpt lat="43.11917353261762" lon="12.253694927805158"><ele>275.42857142857144</ele><time>2026-03-29T11:21:19Z</time></trkpt><trkpt lat="43.11917407960276" lon="12.25378536196394"><ele>278.2857142857143</ele><time>2026-03-29T11:21:20Z</time></trkpt><trkpt lat="43.11918338230454" lon="12.253879738512945"><ele>281.1428571428571</ele><time>2026-03-29T11:21:21Z</time></trkpt><trkpt lat="43.11918717366411" lon="12.254002663942835"><ele>284.0</ele><time>2026-03-29T11:21:22Z</time></trkpt><trkpt lat="43.11918987067632" lon="12.254114754278957"><ele>284.33333333333337</ele><time>2026-03-29T11:21:23Z</time></trkpt><trkpt lat="43.11912049451853" lon="12.25412182628144"><ele>284.6666666666667</ele><time>2026-03-29T11:21:26Z</time></trkpt><trkpt lat="43.11906918887473" lon="12.254036563146174"><ele>285.0</ele><time>2026-03-29T11:21:27Z</time></trkpt><trkpt lat="43.11900469221471" lon="12.254027154504984"><ele>285.3333333333333</ele><time>2026-03-29T11:21:29Z</time></trkpt><trkpt lat="43.11895033697584" lon="12.254111145292239"><ele>285.66666666666663</ele><time>2026-03-29T11:21:30Z</time></trkpt><trkpt lat="43.11894002457517" lon="12.254232300066581"><ele>286.0</ele><time>2026-03-29T11:21:31Z</time></trkpt><trkpt lat="43.11893108344306" lon="12.254362670311865"><ele>286.0</ele><time>2026-03-29T11:21:32Z</time></trkpt><trkpt lat="43.118931007890204" lon="12.254473573097824"><ele>286.0</ele><time>2026-03-29T11:21:33Z</time></trkpt><trkpt lat="43.1189278256199" lon="12.254612339879095"><ele>286.0</ele><time>2026-03-29T11:21:34Z</time></trkpt><trkpt lat="43.118919797662684" lon="12.254723190540496"><ele>286.0</ele><time>2026-03-29T11:21:35Z</time></trkpt><trkpt lat="43.11887412920948" lon="12.254797456209262"><ele>286.0</ele><time>2026-03-29T11:21:36Z</time></trkpt><trkpt lat="43.1188634588478" lon="12.254917726392403"><ele>286.0</ele><time>2026-03-29T11:21:37Z</time></trkpt><trkpt lat="43.11883434389643" lon="12.255014867314937"><ele>287.3333333333333</ele><time>2026-03-29T11:21:38Z</time></trkpt><trkpt lat="43.11878785276351" lon="12.255115695551574"><ele>288.66666666666663</ele><time>2026-03-29T11:21:39Z</time></trkpt><trkpt lat="43.11877051881675" lon="12.25521909536085"><ele>290.0</ele><time>2026-03-29T11:21:40Z</time></trkpt><trkpt lat="43.11877458479998" lon="12.255320751477507"><ele>291.3333333333333</ele><time>2026-03-29T11:21:41Z</time></trkpt><trkpt lat="43.11880227258212" lon="12.2554591851355"><ele>292.6666666666667</ele><time>2026-03-29T11:21:42Z</time></trkpt><trkpt lat="43.1188295208907" lon="12.255594427159213"><ele>294.0</ele><time>2026-03-29T11:21:43Z</time></trkpt><trkpt lat="43.118837562830876" lon="12.255708332549812"><ele>295.75</ele><time>2026-03-29T11:21:44Z</time></trkpt><trkpt lat="43.11891497170326" lon="12.255794703809665"><ele>297.5</ele><time>2026-03-29T11:21:46Z</time></trkpt><trkpt lat="43.119028677134594" lon="12.255795159213175"><ele>299.25</ele><time>2026-03-29T11:21:48Z</time></trkpt><trkpt lat="43.119087032300335" lon="12.255935625342406"><ele>301.0</ele><time>2026-03-29T11:21:50Z</time></trkpt><trkpt lat="43.11903252546493" lon="12.256130131709885"><ele>301.0</ele><time>2026-03-29T11:21:52Z</time></trkpt><trkpt lat="43.118993957004164" lon="12.256241584254797"><ele>301.0</ele><time>2026-03-29T11:21:53Z</time></trkpt><trkpt lat="43.11899793021067" lon="12.25634456592323"><ele>301.0</ele><time>2026-03-29T11:21:54Z</time></trkpt><trkpt lat="43.1190401817966" lon="12.256448142871314"><ele>301.0</ele><time>2026-03-29T11:21:55Z</time></trkpt><trkpt lat="43.119110710652414" lon="12.256539029685724"><ele>301.0</ele><time>2026-03-29T11:21:56Z</time></trkpt><trkpt lat="43.119170456203236" lon="12.25660576646835"><ele>301.0</ele><time>2026-03-29T11:21:57Z</time></trkpt><trkpt lat="43.119241153469346" lon="12.256615613184522"><ele>309.25</ele><time>2026-03-29T11:21:58Z</time></trkpt><trkpt lat="43.11931388603566" lon="12.256597558487572"><ele>317.5</ele><time>2026-03-29T11:21:59Z</time></trkpt><trkpt lat="43.11928882042886" lon="12.256712062918037"><ele>325.75</ele><time>2026-03-29T11:22:05Z</time></trkpt><trkpt lat="43.11922751356379" lon="12.257036605554543"><ele>334.0</ele><time>2026-03-29T11:22:09Z</time></trkpt><trkpt lat="43.11929399054904" lon="12.257073678463925"><ele>334.0</ele><time>2026-03-29T11:22:10Z</time></trkpt><trkpt lat="43.119802248006756" lon="12.257105514609513"><ele>334.0</ele><time>2026-03-29T11:22:15Z</time></trkpt><trkpt lat="43.119845083081955" lon="12.25724090463825"><ele>334.0</ele><time>2026-03-29T11:22:17Z</time></trkpt><trkpt lat="43.11973181498556" lon="12.257319255664337"><ele>334.0</ele><time>2026-03-29T11:22:25Z</time></trkpt><trkpt lat="43.11967484892208" lon="12.257280741994744"><ele>334.0</ele><time>2026-03-29T11:22:28Z</time></trkpt><trkpt lat="43.11958434798895" lon="12.2573859588913"><ele>334.0</ele><time>2026-03-29T11:22:31Z</time></trkpt><trkpt lat="43.11861435845825" lon="12.259879928534055"><ele>348.0</ele><time>2026-03-29T11:22:50Z</time></trkpt><trkpt lat="43.1185676387761" lon="12.259969076437718"><ele>362.0</ele><time>2026-03-29T11:22:51Z</time></trkpt><trkpt lat="43.11848232596619" lon="12.260204856144489"><ele>376.0</ele><time>2026-03-29T11:22:53Z</time></trkpt><trkpt lat="43.11827927230066" lon="12.260573163002226"><ele>374.0</ele><time>2026-03-29T11:22:56Z</time></trkpt><trkpt lat="43.11825230016064" lon="12.260718295674701"><ele>372.0</ele><time>2026-03-29T11:22:57Z</time></trkpt><trkpt lat="43.11795333705145" lon="12.260970458659537"><ele>372.0</ele><time>2026-03-29T11:23:01Z</time></trkpt><trkpt lat="43.11789808980868" lon="12.261026091387324"><ele>372.0</ele><time>2026-03-29T11:23:02Z</time></trkpt><trkpt lat="43.11862820915903" lon="12.26012614055753"><ele>373.0</ele><time>2026-03-29T11:23:10Z</time></trkpt><trkpt lat="43.11881985051121" lon="12.260146147864385"><ele>374.0</ele><time>2026-03-29T11:23:21Z</time></trkpt><trkpt lat="43.11881057408295" lon="12.260254218102007"><ele>375.0</ele><time>2026-03-29T11:23:25Z</time></trkpt><trkpt lat="43.118810778894684" lon="12.260364407776322"><ele>376.0</ele><time>2026-03-29T11:23:27Z</time></trkpt><trkpt lat="43.118689091904244" lon="12.260728496597519"><ele>377.4</ele><time>2026-03-29T11:23:29Z</time></trkpt><trkpt lat="43.11875130289744" lon="12.260662079932116"><ele>378.8</ele><time>2026-03-29T11:23:33Z</time></trkpt><trkpt lat="43.11878129440097" lon="12.260761180970437"><ele>380.2</ele><time>2026-03-29T11:23:36Z</time></trkpt><trkpt lat="43.118817329816764" lon="12.260884474086476"><ele>381.59999999999997</ele><time>2026-03-29T11:23:41Z</time></trkpt><trkpt lat="43.118891651799885" lon="12.260956903909154"><ele>383.0</ele><time>2026-03-29T11:23:42Z</time></trkpt><trkpt lat="43.118961939532795" lon="12.261089732529971"><ele>383.0</ele><time>2026-03-29T11:23:44Z</time></trkpt><trkpt lat="43.11906443009165" lon="12.261186281271211"><ele>383.0</ele><time>2026-03-29T11:23:46Z</time></trkpt><trkpt lat="43.11913529826761" lon="12.261217672630039"><ele>383.0</ele><time>2026-03-29T11:23:47Z</time></trkpt><trkpt lat="43.11920690947224" lon="12.26124869236552"><ele>383.0</ele><time>2026-03-29T11:23:48Z</time></trkpt><trkpt lat="43.1192626171835" lon="12.261304617408769"><ele>383.0</ele><time>2026-03-29T11:23:49Z</time></trkpt><trkpt lat="43.11933371840921" lon="12.261356045952713"><ele>383.0</ele><time>2026-03-29T11:23:50Z</time></trkpt><trkpt lat="43.11952487588178" lon="12.261396802041952"><ele>382.83333333333337</ele><time>2026-03-29T11:23:52Z</time></trkpt><trkpt lat="43.119600183068194" lon="12.26143058811645"><ele>382.6666666666667</ele><time>2026-03-29T11:23:53Z</time></trkpt><trkpt lat="43.119631100166096" lon="12.261530862696445"><ele>382.5</ele><time>2026-03-29T11:23:54Z</time></trkpt><trkpt lat="43.119678500309504" lon="12.261604582164974"><ele>382.3333333333333</ele><time>2026-03-29T11:23:55Z</time></trkpt><trkpt lat="43.11974065187345" lon="12.261653917708955"><ele>382.16666666666663</ele><time>2026-03-29T11:23:56Z</time></trkpt><trkpt lat="43.119794029144764" lon="12.26171212219763"><ele>382.0</ele><time>2026-03-29T11:23:57Z</time></trkpt><trkpt lat="43.11986667825953" lon="12.26177809588197"><ele>380.8</ele><time>2026-03-29T11:23:58Z</time></trkpt><trkpt lat="43.11994970280366" lon="12.261885530664125"><ele>379.6</ele><time>2026-03-29T11:24:00Z</time></trkpt><trkpt lat="43.119959837523325" lon="12.261973293139423"><ele>378.40000000000003</ele><time>2026-03-29T11:24:01Z</time></trkpt><trkpt lat="43.12001567461157" lon="12.26211564487479"><ele>377.20000000000005</ele><time>2026-03-29T11:24:03Z</time></trkpt><trkpt lat="43.12010648451077" lon="12.262228871073921"><ele>376.0</ele><time>2026-03-29T11:24:05Z</time></trkpt><trkpt lat="43.12012237917149" lon="12.262351766501537"><ele>373.6</ele><time>2026-03-29T11:24:07Z</time></trkpt><trkpt lat="43.120195785220695" lon="12.262494821379994"><ele>371.20000000000005</ele><time>2026-03-29T11:24:09Z</time></trkpt><trkpt lat="43.120257629002865" lon="12.262605003171414"><ele>368.79999999999995</ele><time>2026-03-29T11:24:11Z</time></trkpt><trkpt lat="43.12029430063334" lon="12.26271100099162"><ele>366.4</ele><time>2026-03-29T11:24:13Z</time></trkpt><trkpt lat="43.12034374658505" lon="12.262799429334873"><ele>364.0</ele><time>2026-03-29T11:24:15Z</time></trkpt><trkpt lat="43.12039625605626" lon="12.262880442479368"><ele>364.0</ele><time>2026-03-29T11:24:17Z</time></trkpt><trkpt lat="43.12041783750122" lon="12.26297182188589"><ele>364.0</ele><time>2026-03-29T11:24:19Z</time></trkpt><trkpt lat="43.120430803448386" lon="12.26306723367999"><ele>364.0</ele><time>2026-03-29T11:24:22Z</time></trkpt><trkpt lat="43.120451372836584" lon="12.263168719902103"><ele>364.0</ele><time>2026-03-29T11:24:24Z</time></trkpt><trkpt lat="43.120499607902715" lon="12.263281644173231"><ele>364.0</ele><time>2026-03-29T11:24:27Z</time></trkpt><trkpt lat="43.12052745289592" lon="12.263363819832236"><ele>364.0</ele><time>2026-03-29T11:24:31Z</time></trkpt><trkpt lat="43.12054872494203" lon="12.263470758109367"><ele>362.0</ele><time>2026-03-29T11:24:35Z</time></trkpt><trkpt lat="43.1204829745852" lon="12.263524897697456"><ele>360.0</ele><time>2026-03-29T11:24:38Z</time></trkpt><trkpt lat="43.120458061805984" lon="12.263632107759443"><ele>358.0</ele><time>2026-03-29T11:24:42Z</time></trkpt><trkpt lat="43.120508369652406" lon="12.263693444966723"><ele>356.0</ele><time>2026-03-29T11:24:45Z</time></trkpt><trkpt lat="43.12057591362468" lon="12.26365598194469"><ele>354.0</ele><time>2026-03-29T11:24:48Z</time></trkpt><trkpt lat="43.12064377649871" lon="12.263675823215525"><ele>352.0</ele><time>2026-03-29T11:24:49Z</time></trkpt><trkpt lat="43.12078710257166" lon="12.26362869832075"><ele>350.25</ele><time>2026-03-29T11:24:51Z</time></trkpt><trkpt lat="43.12087071565918" lon="12.263623650683275"><ele>348.5</ele><time>2026-03-29T11:24:52Z</time></trkpt><trkpt lat="43.12095382445718" lon="12.263648279375287"><ele>346.75</ele><time>2026-03-29T11:24:53Z</time></trkpt><trkpt lat="43.121060489174646" lon="12.26368328344966"><ele>345.0</ele><time>2026-03-29T11:24:54Z</time></trkpt><trkpt lat="43.1213064603767" lon="12.263677181842217"><ele>340.3333333333333</ele><time>2026-03-29T11:24:57Z</time></trkpt><trkpt lat="43.121570603888365" lon="12.263674673420693"><ele>335.66666666666663</ele><time>2026-03-29T11:25:00Z</time></trkpt><trkpt lat="43.12171820453569" lon="12.26368008699965"><ele>331.0</ele><time>2026-03-29T11:25:02Z</time></trkpt><trkpt lat="43.121828616102455" lon="12.263707178891387"><ele>331.0</ele><time>2026-03-29T11:25:04Z</time></trkpt><trkpt lat="43.12189567530984" lon="12.263711610604073"><ele>331.0</ele><time>2026-03-29T11:25:05Z</time></trkpt><trkpt lat="43.12214094832015" lon="12.26370941888547"><ele>331.0</ele><time>2026-03-29T11:25:08Z</time></trkpt><trkpt lat="43.12225286306758" lon="12.263692005928629"><ele>331.0</ele><time>2026-03-29T11:25:09Z</time></trkpt><trkpt lat="43.122346103701545" lon="12.263666813409126"><ele>329.5</ele><time>2026-03-29T11:25:10Z</time></trkpt><trkpt lat="43.12242360215645" lon="12.263664275547654"><ele>328.0</ele><time>2026-03-29T11:25:11Z</time></trkpt><trkpt lat="43.12249540809835" lon="12.26365755544683"><ele>326.5</ele><time>2026-03-29T11:25:12Z</time></trkpt><trkpt lat="43.12258052471665" lon="12.263653791520781"><ele>325.0</ele><time>2026-03-29T11:25:13Z</time></trkpt><trkpt lat="43.12265929242566" lon="12.263661461872694"><ele>323.5</ele><time>2026-03-29T11:25:14Z</time></trkpt><trkpt lat="43.122717494349224" lon="12.263711984617265"><ele>322.0</ele><time>2026-03-29T11:25:15Z</time></trkpt><trkpt lat="43.12277418249733" lon="12.263767191976035"><ele>322.0</ele><time>2026-03-29T11:25:16Z</time></trkpt><trkpt lat="43.12283244331271" lon="12.263852874538372"><ele>322.0</ele><time>2026-03-29T11:25:17Z</time></trkpt><trkpt lat="43.122874339964596" lon="12.26395377686014"><ele>322.0</ele><time>2026-03-29T11:25:18Z</time></trkpt><trkpt lat="43.12295518622377" lon="12.264058733902486"><ele>322.0</ele><time>2026-03-29T11:25:20Z</time></trkpt><trkpt lat="43.12301582431607" lon="12.264098080785443"><ele>322.0</ele><time>2026-03-29T11:25:21Z</time></trkpt><trkpt lat="43.1231108451191" lon="12.264177654613293"><ele>321.25</ele><time>2026-03-29T11:25:22Z</time></trkpt><trkpt lat="43.12323563235008" lon="12.264263523030941"><ele>320.5</ele><time>2026-03-29T11:25:23Z</time></trkpt><trkpt lat="43.123348290542594" lon="12.264342863162389"><ele>319.75</ele><time>2026-03-29T11:25:24Z</time></trkpt><trkpt lat="43.12343918100632" lon="12.264410870453816"><ele>319.0</ele><time>2026-03-29T11:25:25Z</time></trkpt><trkpt lat="43.12353743998895" lon="12.264478667550305"><ele>319.0</ele><time>2026-03-29T11:25:26Z</time></trkpt><trkpt lat="43.12358472065236" lon="12.264538019561243"><ele>319.0</ele><time>2026-03-29T11:25:27Z</time></trkpt><trkpt lat="43.12365373404347" lon="12.264672927222223"><ele>319.0</ele><time>2026-03-29T11:25:29Z</time></trkpt><trkpt lat="43.12357368357705" lon="12.26477251996367"><ele>319.0</ele><time>2026-03-29T11:25:30Z</time></trkpt><trkpt lat="43.12357741460935" lon="12.264873735551877"><ele>319.0</ele><time>2026-03-29T11:25:33Z</time></trkpt><trkpt lat="43.12365678886616" lon="12.26493201301575"><ele>318.8333333333333</ele><time>2026-03-29T11:25:34Z</time></trkpt><trkpt lat="43.123744457761724" lon="12.264914894149232"><ele>318.66666666666663</ele><time>2026-03-29T11:25:36Z</time></trkpt><trkpt lat="43.12381487914246" lon="12.264899846280631"><ele>318.5</ele><time>2026-03-29T11:25:38Z</time></trkpt><trkpt lat="43.123906197027885" lon="12.264880333193371"><ele>318.3333333333333</ele><time>2026-03-29T11:25:41Z</time></trkpt><trkpt lat="43.12399509313835" lon="12.264857191458777"><ele>318.1666666666667</ele><time>2026-03-29T11:25:43Z</time></trkpt><trkpt lat="43.124075785212206" lon="12.26483588507563"><ele>318.0</ele><time>2026-03-29T11:25:46Z</time></trkpt><trkpt lat="43.12414989278523" lon="12.264823604215271"><ele>313.0</ele><time>2026-03-29T11:25:49Z</time></trkpt><trkpt lat="43.12441239123971" lon="12.264804163655278"><ele>308.0</ele><time>2026-03-29T11:26:55Z</time></trkpt><trkpt lat="43.124506184373864" lon="12.264847524173645"><ele>303.0</ele><time>2026-03-29T11:26:56Z</time></trkpt><trkpt lat="43.12457240475123" lon="12.264948691118866"><ele>303.0</ele><time>2026-03-29T11:26:57Z</time></trkpt><trkpt lat="43.12466444620977" lon="12.265004244729651"><ele>303.0</ele><time>2026-03-29T11:26:58Z</time></trkpt><trkpt lat="43.12477033056113" lon="12.265061858960939"><ele>303.0</ele><time>2026-03-29T11:26:59Z</time></trkpt><trkpt lat="43.124886279655314" lon="12.26511659699627"><ele>303.0</ele><time>2026-03-29T11:27:00Z</time></trkpt><trkpt lat="43.125001475185776" lon="12.265187707914817"><ele>302.5</ele><time>2026-03-29T11:27:01Z</time></trkpt><trkpt lat="43.12511624315088" lon="12.265228241731043"><ele>302.0</ele><time>2026-03-29T11:27:02Z</time></trkpt><trkpt lat="43.12523162104016" lon="12.265261803101563"><ele>301.5</ele><time>2026-03-29T11:27:03Z</time></trkpt><trkpt lat="43.125369363326826" lon="12.265307543377393"><ele>301.0</ele><time>2026-03-29T11:27:04Z</time></trkpt><trkpt lat="43.12551622052551" lon="12.265351113623435"><ele>301.0</ele><time>2026-03-29T11:27:05Z</time></trkpt><trkpt lat="43.12566014096232" lon="12.265415060539521"><ele>301.0</ele><time>2026-03-29T11:27:06Z</time></trkpt><trkpt lat="43.12580341032625" lon="12.265457007651765"><ele>301.0</ele><time>2026-03-29T11:27:07Z</time></trkpt><trkpt lat="43.125949877375874" lon="12.265498465426674"><ele>301.0</ele><time>2026-03-29T11:27:08Z</time></trkpt><trkpt lat="43.1260967612819" lon="12.26553788407432"><ele>300.5</ele><time>2026-03-29T11:27:09Z</time></trkpt><trkpt lat="43.12624405111329" lon="12.265577411688016"><ele>300.0</ele><time>2026-03-29T11:27:10Z</time></trkpt><trkpt lat="43.12639206783832" lon="12.265617134354173"><ele>299.5</ele><time>2026-03-29T11:27:11Z</time></trkpt><trkpt lat="43.126519328059224" lon="12.265652104191588"><ele>299.0</ele><time>2026-03-29T11:27:12Z</time></trkpt><trkpt lat="43.126633293869205" lon="12.265684322616446"><ele>296.25</ele><time>2026-03-29T11:27:13Z</time></trkpt><trkpt lat="43.12674891792042" lon="12.265719894884636"><ele>293.5</ele><time>2026-03-29T11:27:14Z</time></trkpt><trkpt lat="43.126868030895864" lon="12.265756942281545"><ele>290.75</ele><time>2026-03-29T11:27:15Z</time></trkpt><trkpt lat="43.126978563825446" lon="12.26579132105355"><ele>288.0</ele><time>2026-03-29T11:27:16Z</time></trkpt><trkpt lat="43.12709052772474" lon="12.265826144880037"><ele>288.0</ele><time>2026-03-29T11:27:17Z</time></trkpt><trkpt lat="43.1271939449562" lon="12.265858362576747"><ele>288.0</ele><time>2026-03-29T11:27:18Z</time></trkpt><trkpt lat="43.127288824416304" lon="12.265888171258007"><ele>288.0</ele><time>2026-03-29T11:27:19Z</time></trkpt><trkpt lat="43.12740216593995" lon="12.265922344530601"><ele>288.0</ele><time>2026-03-29T11:27:20Z</time></trkpt><trkpt lat="43.12751614224306" lon="12.265952433063177"><ele>288.0</ele><time>2026-03-29T11:27:21Z</time></trkpt><trkpt lat="43.12762728193577" lon="12.265971774436888"><ele>287.5</ele><time>2026-03-29T11:27:22Z</time></trkpt><trkpt lat="43.12774235781684" lon="12.265977132856825"><ele>287.0</ele><time>2026-03-29T11:27:23Z</time></trkpt><trkpt lat="43.12784702535814" lon="12.265975458001465"><ele>286.5</ele><time>2026-03-29T11:27:24Z</time></trkpt><trkpt lat="43.12796453627737" lon="12.265968291046178"><ele>286.0</ele><time>2026-03-29T11:27:25Z</time></trkpt><trkpt lat="43.12809206569958" lon="12.26595161187846"><ele>284.0</ele><time>2026-03-29T11:27:26Z</time></trkpt><trkpt lat="43.12822890366493" lon="12.265923059738222"><ele>282.0</ele><time>2026-03-29T11:27:27Z</time></trkpt><trkpt lat="43.1283626627569" lon="12.265885879406587"><ele>280.0</ele><time>2026-03-29T11:27:28Z</time></trkpt><trkpt lat="43.12849274713534" lon="12.265840808968102"><ele>278.0</ele><time>2026-03-29T11:27:29Z</time></trkpt><trkpt lat="43.12862976759188" lon="12.265781242653128"><ele>278.0</ele><time>2026-03-29T11:27:30Z</time></trkpt><trkpt lat="43.1287756423168" lon="12.265715906778444"><ele>278.0</ele><time>2026-03-29T11:27:31Z</time></trkpt><trkpt lat="43.12892373128228" lon="12.265647095527003"><ele>278.0</ele><time>2026-03-29T11:27:32Z</time></trkpt><trkpt lat="43.1290575944268" lon="12.265588373769718"><ele>277.0</ele><time>2026-03-29T11:27:33Z</time></trkpt><trkpt lat="43.129192850303475" lon="12.265535482494167"><ele>276.0</ele><time>2026-03-29T11:27:34Z</time></trkpt><trkpt lat="43.12933134744526" lon="12.26547215555535"><ele>275.0</ele><time>2026-03-29T11:27:35Z</time></trkpt><trkpt lat="43.12945021328782" lon="12.265400968133395"><ele>274.0</ele><time>2026-03-29T11:27:36Z</time></trkpt><trkpt lat="43.12956565585593" lon="12.265295798815409"><ele>274.0</ele><time>2026-03-29T11:27:37Z</time></trkpt><trkpt lat="43.12966300760296" lon="12.265180757226402"><ele>274.0</ele><time>2026-03-29T11:27:38Z</time></trkpt><trkpt lat="43.129754616941426" lon="12.265043464705563"><ele>274.0</ele><time>2026-03-29T11:27:39Z</time></trkpt><trkpt lat="43.12977625304698" lon="12.264893521905359"><ele>274.0</ele><time>2026-03-29T11:27:40Z</time></trkpt><trkpt lat="43.129815600159006" lon="12.26474256380257"><ele>273.5</ele><time>2026-03-29T11:27:41Z</time></trkpt><trkpt lat="43.1298396582084" lon="12.264568325130508"><ele>273.0</ele><time>2026-03-29T11:27:42Z</time></trkpt><trkpt lat="43.12985647668617" lon="12.26440364495895"><ele>272.5</ele><time>2026-03-29T11:27:43Z</time></trkpt><trkpt lat="43.129862991124085" lon="12.2642403967915"><ele>272.0</ele><time>2026-03-29T11:27:44Z</time></trkpt><trkpt lat="43.12985999006333" lon="12.264092936536205"><ele>272.0</ele><time>2026-03-29T11:27:45Z</time></trkpt><trkpt lat="43.129822340519546" lon="12.263953366018068"><ele>272.0</ele><time>2026-03-29T11:27:46Z</time></trkpt><trkpt lat="43.12982558208586" lon="12.263848723841752"><ele>272.0</ele><time>2026-03-29T11:27:47Z</time></trkpt><trkpt lat="43.12985072372358" lon="12.263735289644336"><ele>272.0</ele><time>2026-03-29T11:27:49Z</time></trkpt><trkpt lat="43.12991653024511" lon="12.263783780406492"><ele>272.0</ele><time>2026-03-29T11:27:50Z</time></trkpt><trkpt lat="43.130013371851135" lon="12.263801415278007"><ele>272.0</ele><time>2026-03-29T11:27:51Z</time></trkpt><trkpt lat="43.13011114918411" lon="12.263853916946772"><ele>270.2</ele><time>2026-03-29T11:27:52Z</time></trkpt><trkpt lat="43.130201718820175" lon="12.26391034157588"><ele>268.4</ele><time>2026-03-29T11:27:53Z</time></trkpt><trkpt lat="43.13027881014053" lon="12.263975269846565"><ele>266.6</ele><time>2026-03-29T11:27:54Z</time></trkpt><trkpt lat="43.13041201116163" lon="12.264090659491913"><ele>264.8</ele><time>2026-03-29T11:27:56Z</time></trkpt><trkpt lat="43.13046702173938" lon="12.26414284942216"><ele>263.0</ele><time>2026-03-29T11:27:57Z</time></trkpt><trkpt lat="43.13058364475889" lon="12.26422515570463"><ele>263.0</ele><time>2026-03-29T11:27:59Z</time></trkpt><trkpt lat="43.1307137587982" lon="12.26420092981903"><ele>263.0</ele><time>2026-03-29T11:28:00Z</time></trkpt><trkpt lat="43.1308328111959" lon="12.264161624700872"><ele>263.0</ele><time>2026-03-29T11:28:01Z</time></trkpt><trkpt lat="43.13092823797494" lon="12.264130503813002"><ele>263.0</ele><time>2026-03-29T11:28:02Z</time></trkpt><trkpt lat="43.131033765658096" lon="12.264095608750237"><ele>260.6</ele><time>2026-03-29T11:28:03Z</time></trkpt><trkpt lat="43.13114579970122" lon="12.26405684814738"><ele>258.20000000000005</ele><time>2026-03-29T11:28:04Z</time></trkpt><trkpt lat="43.13125114759757" lon="12.26401771652334"><ele>255.8</ele><time>2026-03-29T11:28:05Z</time></trkpt><trkpt lat="43.13134924950904" lon="12.263975733900214"><ele>253.4</ele><time>2026-03-29T11:28:06Z</time></trkpt><trkpt lat="43.13143673760378" lon="12.263929896130067"><ele>251.0</ele><time>2026-03-29T11:28:07Z</time></trkpt><trkpt lat="43.13151702033282" lon="12.263884289136438"><ele>247.75</ele><time>2026-03-29T11:28:08Z</time></trkpt><trkpt lat="43.13157199970266" lon="12.263835210420659"><ele>244.5</ele><time>2026-03-29T11:28:09Z</time></trkpt><trkpt lat="43.131655466615264" lon="12.263810304082508"><ele>241.25</ele><time>2026-03-29T11:28:11Z</time></trkpt><trkpt lat="43.13183361666416" lon="12.263626732249493"><ele>238.0</ele><time>2026-03-29T11:28:27Z</time></trkpt><trkpt lat="43.1318721863404" lon="12.263516115041005"><ele>238.0</ele><time>2026-03-29T11:28:28Z</time></trkpt><trkpt lat="43.13191294552838" lon="12.263391115713533"><ele>238.0</ele><time>2026-03-29T11:28:29Z</time></trkpt><trkpt lat="43.13202205299701" lon="12.263290835616132"><ele>238.0</ele><time>2026-03-29T11:28:30Z</time></trkpt><trkpt lat="43.13207026928516" lon="12.26315603764802"><ele>238.0</ele><time>2026-03-29T11:28:31Z</time></trkpt><trkpt lat="43.13210901717452" lon="12.263034913847443"><ele>238.0</ele><time>2026-03-29T11:28:32Z</time></trkpt><trkpt lat="43.13214217380444" lon="12.262917892547113"><ele>237.66666666666666</ele><time>2026-03-29T11:28:33Z</time></trkpt><trkpt lat="43.13216954026882" lon="12.26280006734722"><ele>237.33333333333331</ele><time>2026-03-29T11:28:34Z</time></trkpt><trkpt lat="43.13219511623043" lon="12.26268315801943"><ele>237.0</ele><time>2026-03-29T11:28:35Z</time></trkpt><trkpt lat="43.132218154608594" lon="12.262568767064288"><ele>236.66666666666669</ele><time>2026-03-29T11:28:36Z</time></trkpt><trkpt lat="43.132239513541435" lon="12.26246436823608"><ele>236.33333333333334</ele><time>2026-03-29T11:28:37Z</time></trkpt><trkpt lat="43.1322606236446" lon="12.262366399294608"><ele>236.0</ele><time>2026-03-29T11:28:38Z</time></trkpt><trkpt lat="43.13226771832276" lon="12.262262459295185"><ele>235.8</ele><time>2026-03-29T11:28:39Z</time></trkpt><trkpt lat="43.13233357693127" lon="12.262175415085355"><ele>235.60000000000002</ele><time>2026-03-29T11:28:40Z</time></trkpt><trkpt lat="43.13243610929344" lon="12.262120495383819"><ele>235.4</ele><time>2026-03-29T11:28:41Z</time></trkpt><trkpt lat="43.132515098787046" lon="12.26202907104378"><ele>235.2</ele><time>2026-03-29T11:28:42Z</time></trkpt><trkpt lat="43.13260970795806" lon="12.262007342225212"><ele>235.0</ele><time>2026-03-29T11:28:43Z</time></trkpt><trkpt lat="43.132711047722466" lon="12.26202528099736"><ele>234.75</ele><time>2026-03-29T11:28:44Z</time></trkpt><trkpt lat="43.1328003583315" lon="12.262120304639323"><ele>234.5</ele><time>2026-03-29T11:28:45Z</time></trkpt><trkpt lat="43.13289853746449" lon="12.262212762907321"><ele>234.25</ele><time>2026-03-29T11:28:46Z</time></trkpt><trkpt lat="43.13298347947438" lon="12.262298337446941"><ele>234.0</ele><time>2026-03-29T11:28:47Z</time></trkpt><trkpt lat="43.13308924554812" lon="12.262380470828932"><ele>234.5</ele><time>2026-03-29T11:28:48Z</time></trkpt><trkpt lat="43.13317070602196" lon="12.262489873480689"><ele>235.0</ele><time>2026-03-29T11:28:49Z</time></trkpt><trkpt lat="43.13328876738998" lon="12.262608972590051"><ele>235.5</ele><time>2026-03-29T11:28:50Z</time></trkpt><trkpt lat="43.13338377508315" lon="12.262703288736548"><ele>236.0</ele><time>2026-03-29T11:28:51Z</time></trkpt><trkpt lat="43.13349530375678" lon="12.262809377221929"><ele>236.0</ele><time>2026-03-29T11:28:52Z</time></trkpt><trkpt lat="43.133606416874024" lon="12.262911699341382"><ele>236.0</ele><time>2026-03-29T11:28:53Z</time></trkpt><trkpt lat="43.13372169727697" lon="12.263011506685123"><ele>236.0</ele><time>2026-03-29T11:28:54Z</time></trkpt><trkpt lat="43.133839103313846" lon="12.263102957942724"><ele>236.0</ele><time>2026-03-29T11:28:55Z</time></trkpt><trkpt lat="43.13395913797498" lon="12.263192828067238"><ele>235.75</ele><time>2026-03-29T11:28:56Z</time></trkpt><trkpt lat="43.13408475285054" lon="12.263272878109811"><ele>235.5</ele><time>2026-03-29T11:28:57Z</time></trkpt><trkpt lat="43.13420922221865" lon="12.263346929358187"><ele>235.25</ele><time>2026-03-29T11:28:58Z</time></trkpt><trkpt lat="43.1343267698733" lon="12.26341472198687"><ele>235.0</ele><time>2026-03-29T11:28:59Z</time></trkpt><trkpt lat="43.13445245787339" lon="12.263477473576609"><ele>235.0</ele><time>2026-03-29T11:29:00Z</time></trkpt><trkpt lat="43.13458635055442" lon="12.263528371871596"><ele>235.0</ele><time>2026-03-29T11:29:01Z</time></trkpt><trkpt lat="43.13472878743897" lon="12.263538647879821"><ele>235.0</ele><time>2026-03-29T11:29:02Z</time></trkpt><trkpt lat="43.13486793801729" lon="12.263483910748041"><ele>235.0</ele><time>2026-03-29T11:29:03Z</time></trkpt><trkpt lat="43.135000084329306" lon="12.263501947740926"><ele>234.75</ele><time>2026-03-29T11:29:04Z</time></trkpt><trkpt lat="43.13512907018496" lon="12.263528349355248"><ele>234.5</ele><time>2026-03-29T11:29:05Z</time></trkpt><trkpt lat="43.135256982225265" lon="12.263560492666942"><ele>234.25</ele><time>2026-03-29T11:29:06Z</time></trkpt><trkpt lat="43.135381796815366" lon="12.2636025351463"><ele>234.0</ele><time>2026-03-29T11:29:07Z</time></trkpt><trkpt lat="43.13549939606333" lon="12.263649121578782"><ele>234.0</ele><time>2026-03-29T11:29:08Z</time></trkpt><trkpt lat="43.13561591884983" lon="12.263671887725762"><ele>234.0</ele><time>2026-03-29T11:29:09Z</time></trkpt><trkpt lat="43.13568746970273" lon="12.26386576341832"><ele>234.0</ele><time>2026-03-29T11:29:10Z</time></trkpt><trkpt lat="43.13577138318044" lon="12.264023904999155"><ele>234.0</ele><time>2026-03-29T11:29:11Z</time></trkpt><trkpt lat="43.13586089447983" lon="12.264182127261737"><ele>233.75</ele><time>2026-03-29T11:29:12Z</time></trkpt><trkpt lat="43.13594229168254" lon="12.26435475934339"><ele>233.5</ele><time>2026-03-29T11:29:13Z</time></trkpt><trkpt lat="43.13602538537804" lon="12.264529066280863"><ele>233.25</ele><time>2026-03-29T11:29:14Z</time></trkpt><trkpt lat="43.1361087127717" lon="12.264694104519359"><ele>233.0</ele><time>2026-03-29T11:29:15Z</time></trkpt><trkpt lat="43.13619691660952" lon="12.26485297346176"><ele>233.75</ele><time>2026-03-29T11:29:16Z</time></trkpt><trkpt lat="43.13628302165106" lon="12.265015662546482"><ele>234.5</ele><time>2026-03-29T11:29:17Z</time></trkpt><trkpt lat="43.13636922452326" lon="12.265183431328778"><ele>235.25</ele><time>2026-03-29T11:29:18Z</time></trkpt><trkpt lat="43.13645318973364" lon="12.265355008418585"><ele>236.0</ele><time>2026-03-29T11:29:19Z</time></trkpt><trkpt lat="43.13654168815241" lon="12.265531521120899"><ele>235.33333333333334</ele><time>2026-03-29T11:29:20Z</time></trkpt><trkpt lat="43.13663555299235" lon="12.265717924426973"><ele>234.66666666666669</ele><time>2026-03-29T11:29:21Z</time></trkpt><trkpt lat="43.136733280128595" lon="12.265904952477653"><ele>234.0</ele><time>2026-03-29T11:29:22Z</time></trkpt><trkpt lat="43.136833405622866" lon="12.266095470051777"><ele>234.0</ele><time>2026-03-29T11:29:23Z</time></trkpt><trkpt lat="43.13693253351892" lon="12.266291998135314"><ele>234.0</ele><time>2026-03-29T11:29:24Z</time></trkpt><trkpt lat="43.13703579160555" lon="12.266490781955525"><ele>234.0</ele><time>2026-03-29T11:29:25Z</time></trkpt><trkpt lat="43.13713971000879" lon="12.26669203279298"><ele>234.0</ele><time>2026-03-29T11:29:26Z</time></trkpt><trkpt lat="43.13724364476946" lon="12.26689674272854"><ele>234.0</ele><time>2026-03-29T11:29:27Z</time></trkpt><trkpt lat="43.13734524822285" lon="12.267094813731386"><ele>234.0</ele><time>2026-03-29T11:29:28Z</time></trkpt><trkpt lat="43.13743749774139" lon="12.26726955617526"><ele>235.0</ele><time>2026-03-29T11:29:29Z</time></trkpt><trkpt lat="43.137534635183556" lon="12.267451050879552"><ele>236.0</ele><time>2026-03-29T11:29:30Z</time></trkpt><trkpt lat="43.13763333574162" lon="12.267639870525452"><ele>237.0</ele><time>2026-03-29T11:29:31Z</time></trkpt><trkpt lat="43.13773238851442" lon="12.267830345593556"><ele>237.0</ele><time>2026-03-29T11:29:32Z</time></trkpt><trkpt lat="43.13783911642861" lon="12.26802326884553"><ele>237.0</ele><time>2026-03-29T11:29:33Z</time></trkpt><trkpt lat="43.1379460321178" lon="12.268215843234627"><ele>237.0</ele><time>2026-03-29T11:29:34Z</time></trkpt><trkpt lat="43.13805965395913" lon="12.268408048849311"><ele>236.66666666666669</ele><time>2026-03-29T11:29:35Z</time></trkpt><trkpt lat="43.138183241787026" lon="12.268597725609949"><ele>236.33333333333334</ele><time>2026-03-29T11:29:36Z</time></trkpt><trkpt lat="43.13831525078156" lon="12.268776032653033"><ele>236.0</ele><time>2026-03-29T11:29:37Z</time></trkpt><trkpt lat="43.138445648216624" lon="12.268938326117684"><ele>236.0</ele><time>2026-03-29T11:29:38Z</time></trkpt><trkpt lat="43.13857884381837" lon="12.269101826080588"><ele>236.0</ele><time>2026-03-29T11:29:39Z</time></trkpt><trkpt lat="43.138709162012624" lon="12.269251605204277"><ele>236.0</ele><time>2026-03-29T11:29:40Z</time></trkpt><trkpt lat="43.138817527311545" lon="12.26940237876496"><ele>236.0</ele><time>2026-03-29T11:29:41Z</time></trkpt><trkpt lat="43.13893006832399" lon="12.269518303499995"><ele>236.0</ele><time>2026-03-29T11:29:42Z</time></trkpt><trkpt lat="43.139028085010374" lon="12.269614768524994"><ele>236.0</ele><time>2026-03-29T11:29:43Z</time></trkpt><trkpt lat="43.13911631008529" lon="12.269708355384388"><ele>236.0</ele><time>2026-03-29T11:29:44Z</time></trkpt><trkpt lat="43.13919913706006" lon="12.26980844641008"><ele>236.25</ele><time>2026-03-29T11:29:45Z</time></trkpt><trkpt lat="43.13927478479772" lon="12.269921769143611"><ele>236.5</ele><time>2026-03-29T11:29:46Z</time></trkpt><trkpt lat="43.13940067596593" lon="12.269983998372812"><ele>236.75</ele><time>2026-03-29T11:29:47Z</time></trkpt><trkpt lat="43.13951051626408" lon="12.270035272991105"><ele>237.0</ele><time>2026-03-29T11:29:48Z</time></trkpt><trkpt lat="43.1396033962777" lon="12.270120300668681"><ele>237.0</ele><time>2026-03-29T11:29:49Z</time></trkpt><trkpt lat="43.13968193870227" lon="12.270203784950988"><ele>237.0</ele><time>2026-03-29T11:29:50Z</time></trkpt><trkpt lat="43.139743309836874" lon="12.270274740504458"><ele>237.0</ele><time>2026-03-29T11:29:51Z</time></trkpt><trkpt lat="43.139786078485734" lon="12.270341950422335"><ele>237.0</ele><time>2026-03-29T11:29:52Z</time></trkpt><trkpt lat="43.139885583650226" lon="12.270399922142861"><ele>237.0</ele><time>2026-03-29T11:29:54Z</time></trkpt><trkpt lat="43.14003269831343" lon="12.270214926422534"><ele>237.25</ele><time>2026-03-29T11:29:55Z</time></trkpt><trkpt lat="43.14008892467355" lon="12.270071105483426"><ele>237.5</ele><time>2026-03-29T11:29:56Z</time></trkpt><trkpt lat="43.14015145530067" lon="12.269904691156976"><ele>237.75</ele><time>2026-03-29T11:29:57Z</time></trkpt><trkpt lat="43.14021538060908" lon="12.269740658621163"><ele>238.0</ele><time>2026-03-29T11:29:58Z</time></trkpt><trkpt lat="43.140285850407345" lon="12.269604153810082"><ele>238.0</ele><time>2026-03-29T11:29:59Z</time></trkpt><trkpt lat="43.140369653051735" lon="12.269478185767467"><ele>238.0</ele><time>2026-03-29T11:30:00Z</time></trkpt><trkpt lat="43.14045847325699" lon="12.269334333118847"><ele>238.0</ele><time>2026-03-29T11:30:01Z</time></trkpt><trkpt lat="43.14053354716043" lon="12.269165499451736"><ele>238.0</ele><time>2026-03-29T11:30:02Z</time></trkpt><trkpt lat="43.14060479055599" lon="12.268997024319846"><ele>238.0</ele><time>2026-03-29T11:30:03Z</time></trkpt><trkpt lat="43.140672459914484" lon="12.26883157375279"><ele>238.0</ele><time>2026-03-29T11:30:04Z</time></trkpt><trkpt lat="43.14074747077761" lon="12.268677291693427"><ele>238.0</ele><time>2026-03-29T11:30:05Z</time></trkpt><trkpt lat="43.14083824086955" lon="12.268542762717592"><ele>238.0</ele><time>2026-03-29T11:30:06Z</time></trkpt><trkpt lat="43.14094402182" lon="12.268425198182385"><ele>238.0</ele><time>2026-03-29T11:30:07Z</time></trkpt><trkpt lat="43.14104247767718" lon="12.2683097898723"><ele>238.0</ele><time>2026-03-29T11:30:08Z</time></trkpt><trkpt lat="43.141132257884074" lon="12.268200249745986"><ele>238.0</ele><time>2026-03-29T11:30:09Z</time></trkpt><trkpt lat="43.14122663324947" lon="12.268081400497053"><ele>238.0</ele><time>2026-03-29T11:30:10Z</time></trkpt><trkpt lat="43.141333889141414" lon="12.267944506372586"><ele>238.33333333333331</ele><time>2026-03-29T11:30:11Z</time></trkpt><trkpt lat="43.14144578703137" lon="12.26779978307694"><ele>238.66666666666669</ele><time>2026-03-29T11:30:12Z</time></trkpt><trkpt lat="43.14155459127155" lon="12.267656997334528"><ele>239.0</ele><time>2026-03-29T11:30:13Z</time></trkpt><trkpt lat="43.141664765899286" lon="12.267511051282312"><ele>239.0</ele><time>2026-03-29T11:30:14Z</time></trkpt><trkpt lat="43.141775680810696" lon="12.267363898804215"><ele>239.0</ele><time>2026-03-29T11:30:15Z</time></trkpt><trkpt lat="43.141884454432926" lon="12.26722123872614"><ele>239.0</ele><time>2026-03-29T11:30:16Z</time></trkpt><trkpt lat="43.141991988350426" lon="12.267083326368763"><ele>238.79999999999998</ele><time>2026-03-29T11:30:17Z</time></trkpt><trkpt lat="43.14208457089884" lon="12.266964589398855"><ele>238.59999999999997</ele><time>2026-03-29T11:30:18Z</time></trkpt><trkpt lat="43.142160319349486" lon="12.266867442066387"><ele>238.4</ele><time>2026-03-29T11:30:19Z</time></trkpt><trkpt lat="43.142220561052206" lon="12.266788867053606"><ele>238.2</ele><time>2026-03-29T11:30:20Z</time></trkpt><trkpt lat="43.14231372001386" lon="12.266745791579751"><ele>238.0</ele><time>2026-03-29T11:30:22Z</time></trkpt><trkpt lat="43.142400590205675" lon="12.266905246239947"><ele>238.60000000000002</ele><time>2026-03-29T11:30:23Z</time></trkpt><trkpt lat="43.142492744438385" lon="12.266923622242837"><ele>239.20000000000002</ele><time>2026-03-29T11:30:24Z</time></trkpt><trkpt lat="43.14259421606223" lon="12.266943856082074"><ele>239.8</ele><time>2026-03-29T11:30:25Z</time></trkpt><trkpt lat="43.142710542444156" lon="12.266960009550724"><ele>240.4</ele><time>2026-03-29T11:30:26Z</time></trkpt><trkpt lat="43.14284672248975" lon="12.266975818565614"><ele>241.0</ele><time>2026-03-29T11:30:27Z</time></trkpt><trkpt lat="43.14299356754156" lon="12.266986888380163"><ele>241.0</ele><time>2026-03-29T11:30:28Z</time></trkpt><trkpt lat="43.1431277343555" lon="12.26698103226757"><ele>241.0</ele><time>2026-03-29T11:30:29Z</time></trkpt><trkpt lat="43.143245810057415" lon="12.266978457663281"><ele>241.0</ele><time>2026-03-29T11:30:30Z</time></trkpt><trkpt lat="43.14336864315089" lon="12.266982283012156"><ele>241.0</ele><time>2026-03-29T11:30:31Z</time></trkpt><trkpt lat="43.14346344646184" lon="12.26700937509629"><ele>241.25</ele><time>2026-03-29T11:30:32Z</time></trkpt><trkpt lat="43.14355483597758" lon="12.267082232236712"><ele>241.5</ele><time>2026-03-29T11:30:33Z</time></trkpt><trkpt lat="43.14364644104778" lon="12.267192174898948"><ele>241.75</ele><time>2026-03-29T11:30:34Z</time></trkpt><trkpt lat="43.14373971128906" lon="12.2673263034215"><ele>242.0</ele><time>2026-03-29T11:30:35Z</time></trkpt><trkpt lat="43.143840120512145" lon="12.267472419760665"><ele>241.33333333333334</ele><time>2026-03-29T11:30:36Z</time></trkpt><trkpt lat="43.14394870460966" lon="12.267635179705103"><ele>240.66666666666669</ele><time>2026-03-29T11:30:37Z</time></trkpt><trkpt lat="43.14405657079911" lon="12.26779517834086"><ele>240.0</ele><time>2026-03-29T11:30:38Z</time></trkpt><trkpt lat="43.14416530094697" lon="12.267954478695948"><ele>239.66666666666669</ele><time>2026-03-29T11:30:39Z</time></trkpt><trkpt lat="43.1442853371937" lon="12.268084990520624"><ele>239.33333333333334</ele><time>2026-03-29T11:30:40Z</time></trkpt><trkpt lat="43.144434889658434" lon="12.268187343614185"><ele>239.0</ele><time>2026-03-29T11:30:41Z</time></trkpt><trkpt lat="43.1445767134004" lon="12.268284539214788"><ele>239.0</ele><time>2026-03-29T11:30:42Z</time></trkpt><trkpt lat="43.14470173467298" lon="12.268377871130145"><ele>239.0</ele><time>2026-03-29T11:30:43Z</time></trkpt><trkpt lat="43.144822397457446" lon="12.268497452359806"><ele>239.0</ele><time>2026-03-29T11:30:44Z</time></trkpt><trkpt lat="43.14492327652693" lon="12.268612703772906"><ele>239.0</ele><time>2026-03-29T11:30:45Z</time></trkpt><trkpt lat="43.145018378710006" lon="12.268721900747238"><ele>239.5</ele><time>2026-03-29T11:30:46Z</time></trkpt><trkpt lat="43.14511834308075" lon="12.268837843928887"><ele>240.0</ele><time>2026-03-29T11:30:47Z</time></trkpt><trkpt lat="43.14520035898972" lon="12.268953827709584"><ele>240.5</ele><time>2026-03-29T11:30:48Z</time></trkpt><trkpt lat="43.14528175547216" lon="12.269082233855416"><ele>241.0</ele><time>2026-03-29T11:30:49Z</time></trkpt><trkpt lat="43.145327588484435" lon="12.269253277914705"><ele>241.25</ele><time>2026-03-29T11:30:50Z</time></trkpt><trkpt lat="43.14534104342934" lon="12.269422783906165"><ele>241.5</ele><time>2026-03-29T11:30:51Z</time></trkpt><trkpt lat="43.14532857848057" lon="12.269611860706908"><ele>241.75</ele><time>2026-03-29T11:30:52Z</time></trkpt><trkpt lat="43.14530276833121" lon="12.269826741639482"><ele>242.0</ele><time>2026-03-29T11:30:53Z</time></trkpt><trkpt lat="43.145284774064464" lon="12.270035532121652"><ele>242.39999999999998</ele><time>2026-03-29T11:30:54Z</time></trkpt><trkpt lat="43.145274435430174" lon="12.270207967948823"><ele>242.79999999999998</ele><time>2026-03-29T11:30:55Z</time></trkpt><trkpt lat="43.14526706255428" lon="12.270359966847499"><ele>243.2</ele><time>2026-03-29T11:30:56Z</time></trkpt><trkpt lat="43.1452660701504" lon="12.270496898551906"><ele>243.6</ele><time>2026-03-29T11:30:57Z</time></trkpt><trkpt lat="43.14526213204808" lon="12.27062523309265"><ele>244.0</ele><time>2026-03-29T11:30:58Z</time></trkpt><trkpt lat="43.14524545319692" lon="12.270774660801502"><ele>244.75</ele><time>2026-03-29T11:30:59Z</time></trkpt><trkpt lat="43.1451957528547" lon="12.270936058167305"><ele>245.5</ele><time>2026-03-29T11:31:00Z</time></trkpt><trkpt lat="43.14513625476395" lon="12.271076684346092"><ele>246.25</ele><time>2026-03-29T11:31:01Z</time></trkpt><trkpt lat="43.14507852820636" lon="12.271217872748785"><ele>247.0</ele><time>2026-03-29T11:31:02Z</time></trkpt><trkpt lat="43.145021395469485" lon="12.271358231778654"><ele>247.6</ele><time>2026-03-29T11:31:03Z</time></trkpt><trkpt lat="43.14497082529283" lon="12.271486816719257"><ele>248.2</ele><time>2026-03-29T11:31:04Z</time></trkpt><trkpt lat="43.14493468709804" lon="12.27160143907019"><ele>248.8</ele><time>2026-03-29T11:31:05Z</time></trkpt><trkpt lat="43.14492479027442" lon="12.271709187769764"><ele>249.4</ele><time>2026-03-29T11:31:06Z</time></trkpt><trkpt lat="43.144912244327585" lon="12.271849578377477"><ele>250.0</ele><time>2026-03-29T11:31:07Z</time></trkpt><trkpt lat="43.1449192253912" lon="12.272007902218537"><ele>250.0</ele><time>2026-03-29T11:31:08Z</time></trkpt><trkpt lat="43.144920674122325" lon="12.272170016494394"><ele>250.0</ele><time>2026-03-29T11:31:09Z</time></trkpt><trkpt lat="43.14492797304582" lon="12.27234822486633"><ele>250.0</ele><time>2026-03-29T11:31:10Z</time></trkpt><trkpt lat="43.144927879643014" lon="12.272511183489575"><ele>250.0</ele><time>2026-03-29T11:31:11Z</time></trkpt><trkpt lat="43.14495473417831" lon="12.272666105742745"><ele>250.25</ele><time>2026-03-29T11:31:12Z</time></trkpt><trkpt lat="43.14495263415283" lon="12.27283240252699"><ele>250.5</ele><time>2026-03-29T11:31:13Z</time></trkpt><trkpt lat="43.14496535672937" lon="12.273005952918362"><ele>250.75</ele><time>2026-03-29T11:31:14Z</time></trkpt><trkpt lat="43.14499534274707" lon="12.27318887335053"><ele>251.0</ele><time>2026-03-29T11:31:15Z</time></trkpt><trkpt lat="43.14500964167296" lon="12.273381284446671"><ele>250.25</ele><time>2026-03-29T11:31:16Z</time></trkpt><trkpt lat="43.145013987070364" lon="12.273584230057267"><ele>249.5</ele><time>2026-03-29T11:31:17Z</time></trkpt><trkpt lat="43.1450310863264" lon="12.27375544257725"><ele>248.75</ele><time>2026-03-29T11:31:18Z</time></trkpt><trkpt lat="43.14504254285654" lon="12.273895168225433"><ele>248.0</ele><time>2026-03-29T11:31:19Z</time></trkpt><trkpt lat="43.14507489113934" lon="12.274022826397395"><ele>247.33333333333334</ele><time>2026-03-29T11:31:20Z</time></trkpt><trkpt lat="43.14510446488529" lon="12.274138232222967"><ele>246.66666666666669</ele><time>2026-03-29T11:31:21Z</time></trkpt><trkpt lat="43.145145930553824" lon="12.274241448098968"><ele>246.0</ele><time>2026-03-29T11:31:22Z</time></trkpt><trkpt lat="43.14519244730984" lon="12.27431537921726"><ele>245.33333333333331</ele><time>2026-03-29T11:31:23Z</time></trkpt><trkpt lat="43.14523871577588" lon="12.274387484284121"><ele>244.66666666666666</ele><time>2026-03-29T11:31:25Z</time></trkpt><trkpt lat="43.14527154551591" lon="12.274461487245732"><ele>244.0</ele><time>2026-03-29T11:31:26Z</time></trkpt><trkpt lat="43.14534580160582" lon="12.274571918787244"><ele>243.99999999999997</ele><time>2026-03-29T11:31:28Z</time></trkpt><trkpt lat="43.145431000052085" lon="12.27466064748531"><ele>244.0</ele><time>2026-03-29T11:31:30Z</time></trkpt><trkpt lat="43.14548980569774" lon="12.274703773226891"><ele>244.0</ele><time>2026-03-29T11:31:31Z</time></trkpt><trkpt lat="43.14554685158833" lon="12.274746804620998"><ele>244.0</ele><time>2026-03-29T11:31:32Z</time></trkpt><trkpt lat="43.14561374939758" lon="12.27480006058309"><ele>243.99999999999997</ele><time>2026-03-29T11:31:33Z</time></trkpt><trkpt lat="43.14568088944362" lon="12.274844454557195"><ele>244.0</ele><time>2026-03-29T11:31:34Z</time></trkpt><trkpt lat="43.14578250349762" lon="12.274854392775014"><ele>243.79999999999998</ele><time>2026-03-29T11:31:35Z</time></trkpt><trkpt lat="43.14590298261807" lon="12.27486041037425"><ele>243.59999999999997</ele><time>2026-03-29T11:31:36Z</time></trkpt><trkpt lat="43.14601639378798" lon="12.274882659671212"><ele>243.4</ele><time>2026-03-29T11:31:37Z</time></trkpt><trkpt lat="43.14611598170087" lon="12.274909788122786"><ele>243.2</ele><time>2026-03-29T11:31:38Z</time></trkpt><trkpt lat="43.146207581968355" lon="12.274931840530952"><ele>243.0</ele><time>2026-03-29T11:31:39Z</time></trkpt><trkpt lat="43.14629659971804" lon="12.274940873129795"><ele>243.0</ele><time>2026-03-29T11:31:40Z</time></trkpt><trkpt lat="43.14637663739808" lon="12.274958025672584"><ele>243.0</ele><time>2026-03-29T11:31:41Z</time></trkpt><trkpt lat="43.14646642213818" lon="12.27496264925235"><ele>243.0</ele><time>2026-03-29T11:31:42Z</time></trkpt><trkpt lat="43.14660027806619" lon="12.2749591529427"><ele>243.0</ele><time>2026-03-29T11:31:43Z</time></trkpt><trkpt lat="43.14670422973067" lon="12.274942284227391"><ele>243.0</ele><time>2026-03-29T11:31:44Z</time></trkpt><trkpt lat="43.14679238127712" lon="12.274924814068621"><ele>243.60000000000002</ele><time>2026-03-29T11:31:45Z</time></trkpt><trkpt lat="43.146876201678616" lon="12.274910140955944"><ele>244.20000000000002</ele><time>2026-03-29T11:31:46Z</time></trkpt><trkpt lat="43.146944152755474" lon="12.274879876418037"><ele>244.8</ele><time>2026-03-29T11:31:47Z</time></trkpt><trkpt lat="43.147066773631714" lon="12.274953752826256"><ele>245.4</ele><time>2026-03-29T11:31:49Z</time></trkpt><trkpt lat="43.14712002889554" lon="12.275034332696364"><ele>246.0</ele><time>2026-03-29T11:31:50Z</time></trkpt><trkpt lat="43.147146033681985" lon="12.27514530353734"><ele>246.0</ele><time>2026-03-29T11:31:51Z</time></trkpt><trkpt lat="43.147190748782634" lon="12.2752408634359"><ele>246.00000000000003</ele><time>2026-03-29T11:31:52Z</time></trkpt><trkpt lat="43.14721970346501" lon="12.275328832259103"><ele>246.00000000000003</ele><time>2026-03-29T11:31:53Z</time></trkpt><trkpt lat="43.14727369870808" lon="12.275499356839392"><ele>246.0</ele><time>2026-03-29T11:31:55Z</time></trkpt><trkpt lat="43.147301551243295" lon="12.27562856519796"><ele>246.0</ele><time>2026-03-29T11:31:56Z</time></trkpt><trkpt lat="43.14734556614471" lon="12.275745604023044"><ele>245.8</ele><time>2026-03-29T11:31:57Z</time></trkpt><trkpt lat="43.14738802682599" lon="12.275893125258968"><ele>245.60000000000002</ele><time>2026-03-29T11:31:58Z</time></trkpt><trkpt lat="43.14741911872016" lon="12.276036842210004"><ele>245.4</ele><time>2026-03-29T11:31:59Z</time></trkpt><trkpt lat="43.14746009406781" lon="12.276165620276645"><ele>245.2</ele><time>2026-03-29T11:32:00Z</time></trkpt><trkpt lat="43.14750632631152" lon="12.276309038808542"><ele>245.0</ele><time>2026-03-29T11:32:01Z</time></trkpt><trkpt lat="43.14754457287292" lon="12.276437981708646"><ele>245.0</ele><time>2026-03-29T11:32:02Z</time></trkpt><trkpt lat="43.14758121687159" lon="12.276547735234375"><ele>245.0</ele><time>2026-03-29T11:32:03Z</time></trkpt><trkpt lat="43.147616029917224" lon="12.27664902078354"><ele>245.0</ele><time>2026-03-29T11:32:04Z</time></trkpt><trkpt lat="43.14766003729888" lon="12.276759611337623"><ele>245.0</ele><time>2026-03-29T11:32:05Z</time></trkpt><trkpt lat="43.14768759164154" lon="12.276864418412202"><ele>245.0</ele><time>2026-03-29T11:32:06Z</time></trkpt><trkpt lat="43.14781025273699" lon="12.276902955741285"><ele>245.0</ele><time>2026-03-29T11:32:07Z</time></trkpt><trkpt lat="43.14791988989806" lon="12.276932400547958"><ele>245.0</ele><time>2026-03-29T11:32:08Z</time></trkpt><trkpt lat="43.14800138146117" lon="12.27697890986712"><ele>245.0</ele><time>2026-03-29T11:32:09Z</time></trkpt><trkpt lat="43.1480927810557" lon="12.276967212463202"><ele>245.0</ele><time>2026-03-29T11:32:11Z</time></trkpt><trkpt lat="43.148216467643046" lon="12.277007808365966"><ele>245.0</ele><time>2026-03-29T11:32:13Z</time></trkpt><trkpt lat="43.14828540238998" lon="12.277064335710755"><ele>245.2</ele><time>2026-03-29T11:32:14Z</time></trkpt><trkpt lat="43.1483644017755" lon="12.277125755196183"><ele>245.4</ele><time>2026-03-29T11:32:15Z</time></trkpt><trkpt lat="43.14844161136491" lon="12.27721877187305"><ele>245.60000000000002</ele><time>2026-03-29T11:32:16Z</time></trkpt><trkpt lat="43.14852888577748" lon="12.277279615498173"><ele>245.8</ele><time>2026-03-29T11:32:17Z</time></trkpt><trkpt lat="43.14859760991781" lon="12.277316600317347"><ele>246.0</ele><time>2026-03-29T11:32:18Z</time></trkpt><trkpt lat="43.14871498902151" lon="12.277256510766968"><ele>246.5</ele><time>2026-03-29T11:32:19Z</time></trkpt><trkpt lat="43.148821257130585" lon="12.277204348833152"><ele>247.0</ele><time>2026-03-29T11:32:20Z</time></trkpt><trkpt lat="43.148940584247036" lon="12.277147033320967"><ele>247.5</ele><time>2026-03-29T11:32:21Z</time></trkpt><trkpt lat="43.14906289912942" lon="12.277088331107802"><ele>248.0</ele><time>2026-03-29T11:32:22Z</time></trkpt><trkpt lat="43.14917604642076" lon="12.277033748634638"><ele>248.0</ele><time>2026-03-29T11:32:23Z</time></trkpt><trkpt lat="43.14929788953516" lon="12.27697482681485"><ele>248.0</ele><time>2026-03-29T11:32:24Z</time></trkpt><trkpt lat="43.14940968670451" lon="12.27691934538466"><ele>248.0</ele><time>2026-03-29T11:32:25Z</time></trkpt><trkpt lat="43.14951688201606" lon="12.276865751626657"><ele>248.0</ele><time>2026-03-29T11:32:26Z</time></trkpt><trkpt lat="43.14961190405083" lon="12.276816557322002"><ele>248.0</ele><time>2026-03-29T11:32:27Z</time></trkpt><trkpt lat="43.14970091797494" lon="12.276770473387774"><ele>248.0</ele><time>2026-03-29T11:32:28Z</time></trkpt><trkpt lat="43.14979603544136" lon="12.2767212295846"><ele>248.0</ele><time>2026-03-29T11:32:29Z</time></trkpt><trkpt lat="43.14989309481386" lon="12.276670980431168"><ele>248.0</ele><time>2026-03-29T11:32:30Z</time></trkpt><trkpt lat="43.149981843105024" lon="12.276625034112506"><ele>248.0</ele><time>2026-03-29T11:32:31Z</time></trkpt><trkpt lat="43.15006006485451" lon="12.276584537485673"><ele>248.0</ele><time>2026-03-29T11:32:32Z</time></trkpt><trkpt lat="43.15014414902521" lon="12.276541005774341"><ele>248.0</ele><time>2026-03-29T11:32:33Z</time></trkpt><trkpt lat="43.15024330724151" lon="12.27648967003514"><ele>248.0</ele><time>2026-03-29T11:32:34Z</time></trkpt><trkpt lat="43.15035456993918" lon="12.276431017895375"><ele>248.0</ele><time>2026-03-29T11:32:35Z</time></trkpt><trkpt lat="43.15046218119155" lon="12.276367376494647"><ele>248.0</ele><time>2026-03-29T11:32:36Z</time></trkpt><trkpt lat="43.15055121761451" lon="12.276325649135282"><ele>247.83333333333334</ele><time>2026-03-29T11:32:37Z</time></trkpt><trkpt lat="43.150630498168965" lon="12.276313447710386"><ele>247.66666666666669</ele><time>2026-03-29T11:32:38Z</time></trkpt><trkpt lat="43.15069963442912" lon="12.276340089963554"><ele>247.5</ele><time>2026-03-29T11:32:39Z</time></trkpt><trkpt lat="43.150768571105196" lon="12.276360171526887"><ele>247.33333333333331</ele><time>2026-03-29T11:32:40Z</time></trkpt><trkpt lat="43.15085921919119" lon="12.276431304617285"><ele>247.16666666666666</ele><time>2026-03-29T11:32:41Z</time></trkpt><trkpt lat="43.150957449677016" lon="12.276477666267134"><ele>247.0</ele><time>2026-03-29T11:32:42Z</time></trkpt><trkpt lat="43.15104198780958" lon="12.276495613000945"><ele>248.0</ele><time>2026-03-29T11:32:43Z</time></trkpt><trkpt lat="43.15112221761006" lon="12.276541215249882"><ele>249.0</ele><time>2026-03-29T11:32:45Z</time></trkpt><trkpt lat="43.151196994060406" lon="12.276570547668138"><ele>250.0</ele><time>2026-03-29T11:32:47Z</time></trkpt><trkpt lat="43.15133161575442" lon="12.276285974913863"><ele>251.0</ele><time>2026-03-29T11:32:48Z</time></trkpt><trkpt lat="43.15140663497917" lon="12.276272141027576"><ele>251.16666666666669</ele><time>2026-03-29T11:32:49Z</time></trkpt><trkpt lat="43.151485016552705" lon="12.276259160035192"><ele>251.33333333333334</ele><time>2026-03-29T11:32:50Z</time></trkpt><trkpt lat="43.15154404971006" lon="12.276189152788112"><ele>251.5</ele><time>2026-03-29T11:32:53Z</time></trkpt><trkpt lat="43.15146231596657" lon="12.276145494282561"><ele>251.66666666666669</ele><time>2026-03-29T11:32:55Z</time></trkpt><trkpt lat="43.15136568519494" lon="12.276087659353564"><ele>251.83333333333334</ele><time>2026-03-29T11:32:58Z</time></trkpt><trkpt lat="43.151319339996114" lon="12.276026255188361"><ele>252.0</ele><time>2026-03-29T11:32:59Z</time></trkpt><trkpt lat="43.15127868909795" lon="12.275952363451887"><ele>252.0</ele><time>2026-03-29T11:33:00Z</time></trkpt><trkpt lat="43.151234190646505" lon="12.275882675764889"><ele>252.0</ele><time>2026-03-29T11:33:01Z</time></trkpt><trkpt lat="43.15120248968342" lon="12.27578079642586"><ele>252.0</ele><time>2026-03-29T11:33:02Z</time></trkpt><trkpt lat="43.15117347051551" lon="12.27569525769776"><ele>252.0</ele><time>2026-03-29T11:33:03Z</time></trkpt><trkpt lat="43.1513266850437" lon="12.275532686703503"><ele>252.0</ele><time>2026-03-29T11:33:10Z</time></trkpt><trkpt lat="43.15140370519607" lon="12.275509527047651"><ele>252.0</ele><time>2026-03-29T11:33:11Z</time></trkpt><trkpt lat="43.15147802100706" lon="12.275480695414352"><ele>252.0</ele><time>2026-03-29T11:33:12Z</time></trkpt><trkpt lat="43.151543933720816" lon="12.275456908279567"><ele>252.0</ele><time>2026-03-29T11:33:13Z</time></trkpt><trkpt lat="43.15162029391472" lon="12.275426448709593"><ele>252.0</ele><time>2026-03-29T11:33:14Z</time></trkpt><trkpt lat="43.15170783518356" lon="12.275383969510456"><ele>252.0</ele><time>2026-03-29T11:33:15Z</time></trkpt><trkpt lat="43.15179561152145" lon="12.275344738406622"><ele>252.0</ele><time>2026-03-29T11:33:16Z</time></trkpt><trkpt lat="43.1518946690916" lon="12.275309798454558"><ele>254.66666666666666</ele><time>2026-03-29T11:33:17Z</time></trkpt><trkpt lat="43.151992509217216" lon="12.275276206902676"><ele>257.3333333333333</ele><time>2026-03-29T11:33:18Z</time></trkpt><trkpt lat="43.15205583766879" lon="12.27525446501201"><ele>260.0</ele><time>2026-03-29T11:33:19Z</time></trkpt><trkpt lat="43.15211575410259" lon="12.275316150965175"><ele>262.66666666666663</ele><time>2026-03-29T11:33:21Z</time></trkpt><trkpt lat="43.15210581440722" lon="12.275402493806306"><ele>265.3333333333333</ele><time>2026-03-29T11:33:22Z</time></trkpt><trkpt lat="43.15213418393071" lon="12.275565589707224"><ele>268.0</ele><time>2026-03-29T11:33:24Z</time></trkpt><trkpt lat="43.15229171062352" lon="12.275525474007473"><ele>268.0</ele><time>2026-03-29T11:33:33Z</time></trkpt><trkpt lat="43.152366121320746" lon="12.275295140026193"><ele>268.0</ele><time>2026-03-29T11:33:34Z</time></trkpt><trkpt lat="43.15238799436123" lon="12.27520214757613"><ele>268.0</ele><time>2026-03-29T11:33:35Z</time></trkpt><trkpt lat="43.152417434662" lon="12.275123522887593"><ele>268.0</ele><time>2026-03-29T11:33:36Z</time></trkpt><trkpt lat="43.15250845596835" lon="12.275076602007264"><ele>268.0</ele><time>2026-03-29T11:33:39Z</time></trkpt><trkpt lat="43.15261197790213" lon="12.275047110006843"><ele>271.0</ele><time>2026-03-29T11:33:41Z</time></trkpt><trkpt lat="43.15272747583242" lon="12.275060761272059"><ele>274.0</ele><time>2026-03-29T11:33:43Z</time></trkpt><trkpt lat="43.15278974720266" lon="12.275079312928991"><ele>277.0</ele><time>2026-03-29T11:33:44Z</time></trkpt><trkpt lat="43.15291392519318" lon="12.275036689488314"><ele>280.0</ele><time>2026-03-29T11:33:46Z</time></trkpt><trkpt lat="43.152993782136875" lon="12.275007047926346"><ele>283.0</ele><time>2026-03-29T11:33:47Z</time></trkpt><trkpt lat="43.15306664625205" lon="12.2749956185967"><ele>283.0</ele><time>2026-03-29T11:33:48Z</time></trkpt><trkpt lat="43.153144272013634" lon="12.274979895445803"><ele>283.0</ele><time>2026-03-29T11:33:49Z</time></trkpt><trkpt lat="43.15322829165185" lon="12.274972722288076"><ele>283.0</ele><time>2026-03-29T11:33:50Z</time></trkpt><trkpt lat="43.153329049308816" lon="12.274957104310092"><ele>283.0</ele><time>2026-03-29T11:33:52Z</time></trkpt><trkpt lat="43.15344192733084" lon="12.274843885492727"><ele>283.0</ele><time>2026-03-29T11:33:54Z</time></trkpt><trkpt lat="43.153578673445246" lon="12.274833089422064"><ele>286.8</ele><time>2026-03-29T11:33:56Z</time></trkpt><trkpt lat="43.153646793129056" lon="12.274848406138766"><ele>290.6</ele><time>2026-03-29T11:33:57Z</time></trkpt><trkpt lat="43.15373918935695" lon="12.27480372224752"><ele>294.4</ele><time>2026-03-29T11:33:59Z</time></trkpt><trkpt lat="43.15387450548495" lon="12.27477157197252"><ele>298.2</ele><time>2026-03-29T11:34:01Z</time></trkpt><trkpt lat="43.1539640840531" lon="12.274804433477488"><ele>302.0</ele><time>2026-03-29T11:34:02Z</time></trkpt><trkpt lat="43.154058188674256" lon="12.27483494091957"><ele>304.6</ele><time>2026-03-29T11:34:03Z</time></trkpt><trkpt lat="43.154174037188156" lon="12.274904381570778"><ele>307.2</ele><time>2026-03-29T11:34:04Z</time></trkpt><trkpt lat="43.15425919318577" lon="12.274937885922029"><ele>309.8</ele><time>2026-03-29T11:34:05Z</time></trkpt><trkpt lat="43.15436116346751" lon="12.274989714916037"><ele>312.4</ele><time>2026-03-29T11:34:06Z</time></trkpt><trkpt lat="43.15445900320764" lon="12.27504977871602"><ele>315.0</ele><time>2026-03-29T11:34:07Z</time></trkpt><trkpt lat="43.154551081030284" lon="12.275098848836402"><ele>315.0</ele><time>2026-03-29T11:34:08Z</time></trkpt><trkpt lat="43.15464629779891" lon="12.275136179905026"><ele>315.0</ele><time>2026-03-29T11:34:09Z</time></trkpt><trkpt lat="43.154753605214474" lon="12.275168441553435"><ele>315.0</ele><time>2026-03-29T11:34:10Z</time></trkpt><trkpt lat="43.15487432103361" lon="12.275199150159313"><ele>315.0</ele><time>2026-03-29T11:34:11Z</time></trkpt><trkpt lat="43.15500595729106" lon="12.275237281245925"><ele>317.0</ele><time>2026-03-29T11:34:12Z</time></trkpt><trkpt lat="43.155137100043916" lon="12.275273445415525"><ele>319.0</ele><time>2026-03-29T11:34:13Z</time></trkpt><trkpt lat="43.15526529209284" lon="12.275307910772582"><ele>321.0</ele><time>2026-03-29T11:34:14Z</time></trkpt><trkpt lat="43.155385882729" lon="12.275342757727545"><ele>323.0</ele><time>2026-03-29T11:34:15Z</time></trkpt><trkpt lat="43.15549731852513" lon="12.275439070316903"><ele>323.0</ele><time>2026-03-29T11:34:16Z</time></trkpt><trkpt lat="43.155618514377004" lon="12.275471504424363"><ele>323.0</ele><time>2026-03-29T11:34:17Z</time></trkpt><trkpt lat="43.155744961826386" lon="12.275506417320669"><ele>323.0</ele><time>2026-03-29T11:34:18Z</time></trkpt><trkpt lat="43.155866760764766" lon="12.275550161427388"><ele>323.0</ele><time>2026-03-29T11:34:19Z</time></trkpt><trkpt lat="43.155993966474774" lon="12.275607672118424"><ele>321.5</ele><time>2026-03-29T11:34:20Z</time></trkpt><trkpt lat="43.15612064588021" lon="12.2756703764937"><ele>320.0</ele><time>2026-03-29T11:34:21Z</time></trkpt><trkpt lat="43.15623749374523" lon="12.275738680070864"><ele>318.5</ele><time>2026-03-29T11:34:22Z</time></trkpt><trkpt lat="43.15635352042515" lon="12.2758166902237"><ele>317.0</ele><time>2026-03-29T11:34:23Z</time></trkpt><trkpt lat="43.156462535951995" lon="12.27588911786733"><ele>318.6</ele><time>2026-03-29T11:34:24Z</time></trkpt><trkpt lat="43.156561008569675" lon="12.275949740980312"><ele>320.2</ele><time>2026-03-29T11:34:25Z</time></trkpt><trkpt lat="43.15665323344187" lon="12.275996443733412"><ele>321.8</ele><time>2026-03-29T11:34:26Z</time></trkpt><trkpt lat="43.156746827774235" lon="12.276028793573664"><ele>323.4</ele><time>2026-03-29T11:34:27Z</time></trkpt><trkpt lat="43.15683910169368" lon="12.275971360023318"><ele>325.0</ele><time>2026-03-29T11:34:28Z</time></trkpt><trkpt lat="43.15691194143176" lon="12.275993643100438"><ele>325.0</ele><time>2026-03-29T11:34:29Z</time></trkpt><trkpt lat="43.15701095446929" lon="12.27603286855767"><ele>325.0</ele><time>2026-03-29T11:34:31Z</time></trkpt><trkpt lat="43.157023804454006" lon="12.276152851982287"><ele>325.0</ele><time>2026-03-29T11:34:32Z</time></trkpt><trkpt lat="43.15707137253496" lon="12.276244293730235"><ele>325.0</ele><time>2026-03-29T11:34:33Z</time></trkpt><trkpt lat="43.15711487035552" lon="12.276324220458582"><ele>325.0</ele><time>2026-03-29T11:34:34Z</time></trkpt><trkpt lat="43.157152298334076" lon="12.276435034526083"><ele>325.0</ele><time>2026-03-29T11:34:36Z</time></trkpt><trkpt lat="43.15722988516749" lon="12.276264278412421"><ele>325.0</ele><time>2026-03-29T11:34:41Z</time></trkpt><trkpt lat="43.15723975389063" lon="12.276145210607087"><ele>325.0</ele><time>2026-03-29T11:34:42Z</time></trkpt><trkpt lat="43.15724037802609" lon="12.275996586450738"><ele>325.0</ele><time>2026-03-29T11:34:43Z</time></trkpt><trkpt lat="43.15723590143081" lon="12.27584202817972"><ele>325.0</ele><time>2026-03-29T11:34:44Z</time></trkpt><trkpt lat="43.15722908125725" lon="12.275690431944128"><ele>325.0</ele><time>2026-03-29T11:34:45Z</time></trkpt><trkpt lat="43.15723161493448" lon="12.275522529947724"><ele>324.75</ele><time>2026-03-29T11:34:46Z</time></trkpt><trkpt lat="43.157238426110005" lon="12.275338725317626"><ele>324.5</ele><time>2026-03-29T11:34:47Z</time></trkpt><trkpt lat="43.157242736525276" lon="12.27517190575601"><ele>324.25</ele><time>2026-03-29T11:34:48Z</time></trkpt><trkpt lat="43.15725224608748" lon="12.27499770640354"><ele>324.0</ele><time>2026-03-29T11:34:49Z</time></trkpt><trkpt lat="43.15727243995448" lon="12.274838526799014"><ele>320.75</ele><time>2026-03-29T11:34:50Z</time></trkpt><trkpt lat="43.1572891846355" lon="12.274670104569637"><ele>317.5</ele><time>2026-03-29T11:34:51Z</time></trkpt><trkpt lat="43.15729879893094" lon="12.274489619431769"><ele>314.25</ele><time>2026-03-29T11:34:52Z</time></trkpt><trkpt lat="43.15731578741686" lon="12.274331657687634"><ele>311.0</ele><time>2026-03-29T11:34:53Z</time></trkpt><trkpt lat="43.157343057139435" lon="12.274187598370986"><ele>311.0</ele><time>2026-03-29T11:34:54Z</time></trkpt><trkpt lat="43.15733691584502" lon="12.274056747569007"><ele>311.0</ele><time>2026-03-29T11:34:55Z</time></trkpt><trkpt lat="43.15735087343619" lon="12.273963418969107"><ele>311.0</ele><time>2026-03-29T11:34:56Z</time></trkpt><trkpt lat="43.15743849579984" lon="12.27389764823219"><ele>311.0</ele><time>2026-03-29T11:34:58Z</time></trkpt><trkpt lat="43.15754178506479" lon="12.274006651405282"><ele>311.0</ele><time>2026-03-29T11:35:00Z</time></trkpt><trkpt lat="43.15758243183467" lon="12.274119867445116"><ele>310.5</ele><time>2026-03-29T11:35:01Z</time></trkpt><trkpt lat="43.15767776817212" lon="12.274203249090958"><ele>310.0</ele><time>2026-03-29T11:35:02Z</time></trkpt><trkpt lat="43.15776930717304" lon="12.274308332856647"><ele>309.5</ele><time>2026-03-29T11:35:03Z</time></trkpt><trkpt lat="43.15785757349826" lon="12.27443577927675"><ele>309.0</ele><time>2026-03-29T11:35:04Z</time></trkpt><trkpt lat="43.157957534733505" lon="12.274551335093024"><ele>309.0</ele><time>2026-03-29T11:35:05Z</time></trkpt><trkpt lat="43.15805535335004" lon="12.274665695788496"><ele>309.0</ele><time>2026-03-29T11:35:06Z</time></trkpt><trkpt lat="43.158137325843" lon="12.274777675775011"><ele>309.0</ele><time>2026-03-29T11:35:07Z</time></trkpt><trkpt lat="43.15819188925057" lon="12.274894568017618"><ele>309.0</ele><time>2026-03-29T11:35:08Z</time></trkpt><trkpt lat="43.15823875873681" lon="12.275028433588533"><ele>305.5</ele><time>2026-03-29T11:35:09Z</time></trkpt><trkpt lat="43.15830070202782" lon="12.275174745475768"><ele>302.0</ele><time>2026-03-29T11:35:10Z</time></trkpt><trkpt lat="43.15838167294753" lon="12.275312366479067"><ele>298.5</ele><time>2026-03-29T11:35:11Z</time></trkpt><trkpt lat="43.15845982077854" lon="12.275450861247174"><ele>295.0</ele><time>2026-03-29T11:35:12Z</time></trkpt><trkpt lat="43.1585370241185" lon="12.275593778069224"><ele>293.4</ele><time>2026-03-29T11:35:13Z</time></trkpt><trkpt lat="43.158595137324234" lon="12.275742366832237"><ele>291.8</ele><time>2026-03-29T11:35:14Z</time></trkpt><trkpt lat="43.15867841653922" lon="12.275840482835688"><ele>290.2</ele><time>2026-03-29T11:35:15Z</time></trkpt><trkpt lat="43.158745467952144" lon="12.27594869865583"><ele>288.6</ele><time>2026-03-29T11:35:16Z</time></trkpt><trkpt lat="43.158816106865416" lon="12.276041260446023"><ele>287.0</ele><time>2026-03-29T11:35:17Z</time></trkpt><trkpt lat="43.158884876599885" lon="12.276138296975885"><ele>287.0</ele><time>2026-03-29T11:35:18Z</time></trkpt><trkpt lat="43.158936106896675" lon="12.27623752063415"><ele>287.0</ele><time>2026-03-29T11:35:19Z</time></trkpt><trkpt lat="43.15899092013234" lon="12.276325045500316"><ele>287.0</ele><time>2026-03-29T11:35:20Z</time></trkpt><trkpt lat="43.15904356635862" lon="12.276409110327625"><ele>287.0</ele><time>2026-03-29T11:35:21Z</time></trkpt><trkpt lat="43.15909788760547" lon="12.276505070017398"><ele>287.0</ele><time>2026-03-29T11:35:22Z</time></trkpt><trkpt lat="43.159150822731704" lon="12.27659292504146"><ele>287.0</ele><time>2026-03-29T11:35:23Z</time></trkpt><trkpt lat="43.15920010130206" lon="12.276674379374048"><ele>286.1666666666667</ele><time>2026-03-29T11:35:24Z</time></trkpt><trkpt lat="43.15926454712661" lon="12.276760857730649"><ele>285.33333333333337</ele><time>2026-03-29T11:35:25Z</time></trkpt><trkpt lat="43.159317757568374" lon="12.276851896202457"><ele>284.5</ele><time>2026-03-29T11:35:26Z</time></trkpt><trkpt lat="43.15941828096708" lon="12.27693566304238"><ele>283.6666666666667</ele><time>2026-03-29T11:35:28Z</time></trkpt><trkpt lat="43.15949756037709" lon="12.276939257100272"><ele>282.8333333333333</ele><time>2026-03-29T11:35:29Z</time></trkpt><trkpt lat="43.15955650165288" lon="12.276985204677507"><ele>282.0</ele><time>2026-03-29T11:35:30Z</time></trkpt><trkpt lat="43.15969417207398" lon="12.27703325062316"><ele>282.0</ele><time>2026-03-29T11:35:32Z</time></trkpt><trkpt lat="43.159821139612355" lon="12.277080194354447"><ele>282.0</ele><time>2026-03-29T11:35:34Z</time></trkpt><trkpt lat="43.15995285629319" lon="12.27696643191954"><ele>282.0</ele><time>2026-03-29T11:35:35Z</time></trkpt><trkpt lat="43.16005693069085" lon="12.276919922113374"><ele>282.0</ele><time>2026-03-29T11:35:36Z</time></trkpt><trkpt lat="43.16015399259786" lon="12.27687128451518"><ele>279.75</ele><time>2026-03-29T11:35:37Z</time></trkpt><trkpt lat="43.16026872271482" lon="12.27681115046849"><ele>277.5</ele><time>2026-03-29T11:35:38Z</time></trkpt><trkpt lat="43.16040251301368" lon="12.276735451057588"><ele>275.25</ele><time>2026-03-29T11:35:39Z</time></trkpt><trkpt lat="43.160533486098906" lon="12.276656107376894"><ele>273.0</ele><time>2026-03-29T11:35:40Z</time></trkpt><trkpt lat="43.16065895897616" lon="12.276583097901236"><ele>273.0</ele><time>2026-03-29T11:35:41Z</time></trkpt><trkpt lat="43.16079017199881" lon="12.276528073876037"><ele>273.0</ele><time>2026-03-29T11:35:42Z</time></trkpt><trkpt lat="43.16091811341789" lon="12.276468086999232"><ele>273.0</ele><time>2026-03-29T11:35:43Z</time></trkpt><trkpt lat="43.16102536438053" lon="12.276389056213688"><ele>273.0</ele><time>2026-03-29T11:35:44Z</time></trkpt><trkpt lat="43.161114590280775" lon="12.276287047496561"><ele>273.0</ele><time>2026-03-29T11:35:45Z</time></trkpt><trkpt lat="43.16118886623127" lon="12.276166884250191"><ele>273.0</ele><time>2026-03-29T11:35:46Z</time></trkpt><trkpt lat="43.161237748297964" lon="12.276053014409925"><ele>273.0</ele><time>2026-03-29T11:35:47Z</time></trkpt><trkpt lat="43.16129525245647" lon="12.275997450683603"><ele>273.0</ele><time>2026-03-29T11:35:48Z</time></trkpt><trkpt lat="43.161395169385735" lon="12.276092462268117"><ele>273.0</ele><time>2026-03-29T11:35:49Z</time></trkpt><trkpt lat="43.1614737453383" lon="12.276107659827371"><ele>269.75</ele><time>2026-03-29T11:35:50Z</time></trkpt><trkpt lat="43.16157182186905" lon="12.276126629146095"><ele>266.5</ele><time>2026-03-29T11:35:51Z</time></trkpt><trkpt lat="43.16168777083957" lon="12.276153169904223"><ele>263.25</ele><time>2026-03-29T11:35:52Z</time></trkpt><trkpt lat="43.16185162663979" lon="12.276193444796688"><ele>260.0</ele><time>2026-03-29T11:35:53Z</time></trkpt><trkpt lat="43.16198978379471" lon="12.276233086006572"><ele>260.0</ele><time>2026-03-29T11:35:54Z</time></trkpt><trkpt lat="43.16212148984135" lon="12.276251970290296"><ele>260.0</ele><time>2026-03-29T11:35:55Z</time></trkpt><trkpt lat="43.162247660036954" lon="12.27624157111239"><ele>260.0</ele><time>2026-03-29T11:35:56Z</time></trkpt><trkpt lat="43.162384378890565" lon="12.276196570380218"><ele>260.0</ele><time>2026-03-29T11:35:57Z</time></trkpt><trkpt lat="43.16250274388477" lon="12.276136010474644"><ele>260.0</ele><time>2026-03-29T11:35:58Z</time></trkpt><trkpt lat="43.1626226411039" lon="12.276065009803304"><ele>260.0</ele><time>2026-03-29T11:35:59Z</time></trkpt><trkpt lat="43.16274971501715" lon="12.276004989931515"><ele>260.0</ele><time>2026-03-29T11:36:00Z</time></trkpt><trkpt lat="43.16286355492284" lon="12.2759774910673"><ele>260.0</ele><time>2026-03-29T11:36:01Z</time></trkpt><trkpt lat="43.16298549576703" lon="12.27598099709653"><ele>260.0</ele><time>2026-03-29T11:36:02Z</time></trkpt><trkpt lat="43.163104205534516" lon="12.276024901568968"><ele>260.0</ele><time>2026-03-29T11:36:03Z</time></trkpt><trkpt lat="43.16323673045406" lon="12.276104404774356"><ele>260.0</ele><time>2026-03-29T11:36:04Z</time></trkpt><trkpt lat="43.16337771375027" lon="12.276194533813271"><ele>260.0</ele><time>2026-03-29T11:36:05Z</time></trkpt><trkpt lat="43.163495234990584" lon="12.276276494184152"><ele>259.8</ele><time>2026-03-29T11:36:06Z</time></trkpt><trkpt lat="43.16359936288038" lon="12.27635949299114"><ele>259.6</ele><time>2026-03-29T11:36:07Z</time></trkpt><trkpt lat="43.16368553877514" lon="12.276431004694512"><ele>259.4</ele><time>2026-03-29T11:36:08Z</time></trkpt><trkpt lat="43.16375499528834" lon="12.276487580425096"><ele>259.2</ele><time>2026-03-29T11:36:09Z</time></trkpt><trkpt lat="43.16381531846899" lon="12.27653569900983"><ele>259.0</ele><time>2026-03-29T11:36:10Z</time></trkpt><trkpt lat="43.163916357166045" lon="12.276615972117737"><ele>258.5</ele><time>2026-03-29T11:36:12Z</time></trkpt><trkpt lat="43.163965336877666" lon="12.276782190149934"><ele>258.0</ele><time>2026-03-29T11:36:14Z</time></trkpt><trkpt lat="43.163954104908264" lon="12.276914932773304"><ele>257.5</ele><time>2026-03-29T11:36:15Z</time></trkpt><trkpt lat="43.163943418910165" lon="12.277067463261858"><ele>257.0</ele><time>2026-03-29T11:36:16Z</time></trkpt><trkpt lat="43.16394110054032" lon="12.277250765921748"><ele>257.0</ele><time>2026-03-29T11:36:17Z</time></trkpt><trkpt lat="43.16393496358959" lon="12.277453779912863"><ele>257.0</ele><time>2026-03-29T11:36:18Z</time></trkpt><trkpt lat="43.16392835861743" lon="12.277651508405821"><ele>257.0</ele><time>2026-03-29T11:36:19Z</time></trkpt><trkpt lat="43.16392481746338" lon="12.277838218988101"><ele>257.0</ele><time>2026-03-29T11:36:20Z</time></trkpt><trkpt lat="43.163926246856285" lon="12.278018732018289"><ele>256.5</ele><time>2026-03-29T11:36:21Z</time></trkpt><trkpt lat="43.16395218629629" lon="12.278194043854654"><ele>256.0</ele><time>2026-03-29T11:36:22Z</time></trkpt><trkpt lat="43.163987458757425" lon="12.278358091898793"><ele>255.5</ele><time>2026-03-29T11:36:23Z</time></trkpt><trkpt lat="43.164034309854735" lon="12.278511124966393"><ele>255.0</ele><time>2026-03-29T11:36:24Z</time></trkpt><trkpt lat="43.164058673252526" lon="12.278673269268072"><ele>255.0</ele><time>2026-03-29T11:36:25Z</time></trkpt><trkpt lat="43.16406355905834" lon="12.278823353146185"><ele>255.0</ele><time>2026-03-29T11:36:26Z</time></trkpt><trkpt lat="43.16409455211153" lon="12.2789481480485"><ele>255.0</ele><time>2026-03-29T11:36:27Z</time></trkpt><trkpt lat="43.164117990620554" lon="12.279042646058342"><ele>255.0</ele><time>2026-03-29T11:36:28Z</time></trkpt><trkpt lat="43.16409387825214" lon="12.279160062558057"><ele>255.0</ele><time>2026-03-29T11:36:30Z</time></trkpt><trkpt lat="43.163964061413836" lon="12.279211237882379"><ele>254.5</ele><time>2026-03-29T11:36:32Z</time></trkpt><trkpt lat="43.16387539414821" lon="12.279246625535597"><ele>254.0</ele><time>2026-03-29T11:36:33Z</time></trkpt><trkpt lat="43.163793180444536" lon="12.27927914242918"><ele>253.5</ele><time>2026-03-29T11:36:34Z</time></trkpt><trkpt lat="43.16372546537995" lon="12.27929288428402"><ele>253.0</ele><time>2026-03-29T11:36:35Z</time></trkpt><trkpt lat="43.16366300977562" lon="12.279334500472457"><ele>252.5</ele><time>2026-03-29T11:36:36Z</time></trkpt><trkpt lat="43.16357939649828" lon="12.279402140570756"><ele>252.0</ele><time>2026-03-29T11:36:37Z</time></trkpt><trkpt lat="43.163485183747476" lon="12.279498599220563"><ele>252.0</ele><time>2026-03-29T11:36:38Z</time></trkpt><trkpt lat="43.163401947146475" lon="12.279610917611642"><ele>252.0</ele><time>2026-03-29T11:36:39Z</time></trkpt><trkpt lat="43.16332063759165" lon="12.279706603467913"><ele>252.0</ele><time>2026-03-29T11:36:40Z</time></trkpt><trkpt lat="43.16324383624968" lon="12.279840034007675"><ele>252.0</ele><time>2026-03-29T11:36:41Z</time></trkpt><trkpt lat="43.16317764816106" lon="12.2799657973718"><ele>251.75</ele><time>2026-03-29T11:36:42Z</time></trkpt><trkpt lat="43.163116309701344" lon="12.28008472643251"><ele>251.5</ele><time>2026-03-29T11:36:43Z</time></trkpt><trkpt lat="43.1630508091152" lon="12.280233416317024"><ele>251.25</ele><time>2026-03-29T11:36:44Z</time></trkpt><trkpt lat="43.16298128218798" lon="12.280372307580881"><ele>251.0</ele><time>2026-03-29T11:36:45Z</time></trkpt><trkpt lat="43.162905382769495" lon="12.280514984983457"><ele>250.75</ele><time>2026-03-29T11:36:46Z</time></trkpt><trkpt lat="43.16282373071123" lon="12.280660765073621"><ele>250.5</ele><time>2026-03-29T11:36:47Z</time></trkpt><trkpt lat="43.162745726862845" lon="12.280804317405677"><ele>250.25</ele><time>2026-03-29T11:36:48Z</time></trkpt><trkpt lat="43.162669645869585" lon="12.280939820369964"><ele>250.0</ele><time>2026-03-29T11:36:49Z</time></trkpt><trkpt lat="43.16259599271455" lon="12.28108015638739"><ele>250.0</ele><time>2026-03-29T11:36:50Z</time></trkpt><trkpt lat="43.162519022109905" lon="12.281225415442476"><ele>250.0</ele><time>2026-03-29T11:36:51Z</time></trkpt><trkpt lat="43.16244433389864" lon="12.281364517656922"><ele>250.0</ele><time>2026-03-29T11:36:52Z</time></trkpt><trkpt lat="43.16236836114616" lon="12.281508188546521"><ele>250.0</ele><time>2026-03-29T11:36:53Z</time></trkpt><trkpt lat="43.16228974557604" lon="12.281647094448074"><ele>250.0</ele><time>2026-03-29T11:36:54Z</time></trkpt><trkpt lat="43.16222853868692" lon="12.281793104682043"><ele>250.0</ele><time>2026-03-29T11:36:55Z</time></trkpt><trkpt lat="43.16216474852547" lon="12.281917686057172"><ele>250.0</ele><time>2026-03-29T11:36:56Z</time></trkpt><trkpt lat="43.16210443181764" lon="12.282036905359536"><ele>250.0</ele><time>2026-03-29T11:36:57Z</time></trkpt><trkpt lat="43.16203731313938" lon="12.282167730796658"><ele>250.25</ele><time>2026-03-29T11:36:58Z</time></trkpt><trkpt lat="43.161967667175986" lon="12.282307232583236"><ele>250.5</ele><time>2026-03-29T11:36:59Z</time></trkpt><trkpt lat="43.16189885982429" lon="12.282442645177163"><ele>250.75</ele><time>2026-03-29T11:37:00Z</time></trkpt><trkpt lat="43.16183089696762" lon="12.282569428124487"><ele>251.0</ele><time>2026-03-29T11:37:01Z</time></trkpt><trkpt lat="43.16176539698529" lon="12.282689153556515"><ele>251.0</ele><time>2026-03-29T11:37:02Z</time></trkpt><trkpt lat="43.161700173518504" lon="12.282818667188252"><ele>251.00000000000003</ele><time>2026-03-29T11:37:03Z</time></trkpt><trkpt lat="43.16164541446603" lon="12.28293213697705"><ele>251.00000000000003</ele><time>2026-03-29T11:37:04Z</time></trkpt><trkpt lat="43.16158856651039" lon="12.283036350884569"><ele>251.0</ele><time>2026-03-29T11:37:05Z</time></trkpt><trkpt lat="43.16153577085582" lon="12.283147179706495"><ele>251.0</ele><time>2026-03-29T11:37:06Z</time></trkpt><trkpt lat="43.16147675433706" lon="12.28325236970209"><ele>250.8</ele><time>2026-03-29T11:37:07Z</time></trkpt><trkpt lat="43.16142306806467" lon="12.283357331709745"><ele>250.60000000000002</ele><time>2026-03-29T11:37:08Z</time></trkpt><trkpt lat="43.16136016405385" lon="12.283471803165837"><ele>250.4</ele><time>2026-03-29T11:37:09Z</time></trkpt><trkpt lat="43.161296197278304" lon="12.283590420149537"><ele>250.2</ele><time>2026-03-29T11:37:10Z</time></trkpt><trkpt lat="43.16123575865996" lon="12.283706971831863"><ele>250.0</ele><time>2026-03-29T11:37:11Z</time></trkpt><trkpt lat="43.1611784121837" lon="12.28381280016983"><ele>249.99999999999997</ele><time>2026-03-29T11:37:12Z</time></trkpt><trkpt lat="43.161135511356655" lon="12.28388897908761"><ele>250.0</ele><time>2026-03-29T11:37:13Z</time></trkpt><trkpt lat="43.161072477348036" lon="12.284015795148992"><ele>250.0</ele><time>2026-03-29T11:37:15Z</time></trkpt><trkpt lat="43.16101366866341" lon="12.28413120628486"><ele>250.0</ele><time>2026-03-29T11:37:17Z</time></trkpt><trkpt lat="43.16096666693512" lon="12.284223563402737"><ele>249.99999999999997</ele><time>2026-03-29T11:37:19Z</time></trkpt><trkpt lat="43.16090846299403" lon="12.284272908355252"><ele>250.0</ele><time>2026-03-29T11:37:21Z</time></trkpt><trkpt lat="43.1606633465892" lon="12.284087087732644"><ele>250.0</ele><time>2026-03-29T11:37:22Z</time></trkpt><trkpt lat="43.16059266649668" lon="12.28409507189886"><ele>250.0</ele><time>2026-03-29T11:37:24Z</time></trkpt><trkpt lat="43.160526528768465" lon="12.28413135667613"><ele>250.0</ele><time>2026-03-29T11:37:28Z</time></trkpt><trkpt lat="43.16046477514861" lon="12.284162451000585"><ele>250.0</ele><time>2026-03-29T11:38:54Z</time></trkpt></trkseg></trk></gpx>